<?xml version="1.0" encoding="UTF-8" standalone="no" ?>
<gpx xmlns="http://www.topografix.com/GPX/1/1" xmlns:xsi="http://www.w3.org/2001/XMLSchema-instance" xsi:schemaLocation="http://www.topografix.com/GPX/1/1 http://www.topografix.com/GPX/1/1/gpx.xsd" version="1.1" creator="VisuGPX - https://www.visugpx.com">
  <metadata>
    <name>Reco utrb roule et cours.</name>
  </metadata>
  <trk>
    <name><![CDATA[Reco utrb roule et cours.]]></name>
    <trkseg>
      <trkpt lat="49.44804" lon="1.09399">
        <ele>36.7</ele>
        <time>2021-05-02T07:11:16Z</time>
      </trkpt>
      <trkpt lat="49.44794" lon="1.09394">
        <ele>36.7</ele>
        <time>2021-05-02T07:11:17Z</time>
      </trkpt>
      <trkpt lat="49.44788" lon="1.09396">
        <ele>36.7</ele>
        <time>2021-05-02T07:11:18Z</time>
      </trkpt>
      <trkpt lat="49.44769" lon="1.09408">
        <ele>36.7</ele>
        <time>2021-05-02T07:11:20Z</time>
      </trkpt>
      <trkpt lat="49.44759" lon="1.09413">
        <ele>36.7</ele>
        <time>2021-05-02T07:11:21Z</time>
      </trkpt>
      <trkpt lat="49.44782" lon="1.09401">
        <ele>36.8</ele>
        <time>2021-05-02T07:11:22Z</time>
      </trkpt>
      <trkpt lat="49.44788" lon="1.094">
        <ele>36.8</ele>
        <time>2021-05-02T07:11:23Z</time>
      </trkpt>
      <trkpt lat="49.44774" lon="1.09398">
        <ele>36.8</ele>
        <time>2021-05-02T07:11:25Z</time>
      </trkpt>
      <trkpt lat="49.44763" lon="1.09396">
        <ele>36.7</ele>
        <time>2021-05-02T07:11:26Z</time>
      </trkpt>
      <trkpt lat="49.44752" lon="1.09394">
        <ele>36.6</ele>
        <time>2021-05-02T07:11:28Z</time>
      </trkpt>
      <trkpt lat="49.44742" lon="1.09393">
        <ele>36.5</ele>
        <time>2021-05-02T07:11:29Z</time>
      </trkpt>
      <trkpt lat="49.44718" lon="1.0937">
        <ele>35.6</ele>
        <time>2021-05-02T07:11:30Z</time>
      </trkpt>
      <trkpt lat="49.44709" lon="1.09364">
        <ele>35.6</ele>
        <time>2021-05-02T07:11:31Z</time>
      </trkpt>
      <trkpt lat="49.44718" lon="1.0936">
        <ele>35.5</ele>
        <time>2021-05-02T07:11:32Z</time>
      </trkpt>
      <trkpt lat="49.44719" lon="1.0936">
        <ele>35.5</ele>
        <time>2021-05-02T07:11:33Z</time>
      </trkpt>
      <trkpt lat="49.44713" lon="1.09356">
        <ele>35.2</ele>
        <time>2021-05-02T07:11:35Z</time>
      </trkpt>
      <trkpt lat="49.44695" lon="1.09347">
        <ele>35.2</ele>
        <time>2021-05-02T07:11:36Z</time>
      </trkpt>
      <trkpt lat="49.44678" lon="1.09338">
        <ele>34.5</ele>
        <time>2021-05-02T07:11:37Z</time>
      </trkpt>
      <trkpt lat="49.44662" lon="1.09329">
        <ele>33.7</ele>
        <time>2021-05-02T07:11:39Z</time>
      </trkpt>
      <trkpt lat="49.4464" lon="1.09319">
        <ele>32.5</ele>
        <time>2021-05-02T07:11:41Z</time>
      </trkpt>
      <trkpt lat="49.44631" lon="1.09314">
        <ele>32</ele>
        <time>2021-05-02T07:11:42Z</time>
      </trkpt>
      <trkpt lat="49.44613" lon="1.09303">
        <ele>31.5</ele>
        <time>2021-05-02T07:11:44Z</time>
      </trkpt>
      <trkpt lat="49.44595" lon="1.09293">
        <ele>30.5</ele>
        <time>2021-05-02T07:11:46Z</time>
      </trkpt>
      <trkpt lat="49.44587" lon="1.09289">
        <ele>30.1</ele>
        <time>2021-05-02T07:11:47Z</time>
      </trkpt>
      <trkpt lat="49.44573" lon="1.0928">
        <ele>29.3</ele>
        <time>2021-05-02T07:11:49Z</time>
      </trkpt>
      <trkpt lat="49.44566" lon="1.09275">
        <ele>28.9</ele>
        <time>2021-05-02T07:11:50Z</time>
      </trkpt>
      <trkpt lat="49.4455" lon="1.09261">
        <ele>28.1</ele>
        <time>2021-05-02T07:11:52Z</time>
      </trkpt>
      <trkpt lat="49.44535" lon="1.09254">
        <ele>27.8</ele>
        <time>2021-05-02T07:11:54Z</time>
      </trkpt>
      <trkpt lat="49.44528" lon="1.0925">
        <ele>27.4</ele>
        <time>2021-05-02T07:11:55Z</time>
      </trkpt>
      <trkpt lat="49.44518" lon="1.09244">
        <ele>26.9</ele>
        <time>2021-05-02T07:11:56Z</time>
      </trkpt>
      <trkpt lat="49.44502" lon="1.09231">
        <ele>25.9</ele>
        <time>2021-05-02T07:11:58Z</time>
      </trkpt>
      <trkpt lat="49.44488" lon="1.09222">
        <ele>25.1</ele>
        <time>2021-05-02T07:12:00Z</time>
      </trkpt>
      <trkpt lat="49.44482" lon="1.09219">
        <ele>24.8</ele>
        <time>2021-05-02T07:12:01Z</time>
      </trkpt>
      <trkpt lat="49.44472" lon="1.09213">
        <ele>24.5</ele>
        <time>2021-05-02T07:12:03Z</time>
      </trkpt>
      <trkpt lat="49.44459" lon="1.09206">
        <ele>24.2</ele>
        <time>2021-05-02T07:12:05Z</time>
      </trkpt>
      <trkpt lat="49.44453" lon="1.09201">
        <ele>24</ele>
        <time>2021-05-02T07:12:06Z</time>
      </trkpt>
      <trkpt lat="49.4444" lon="1.0919">
        <ele>23.6</ele>
        <time>2021-05-02T07:12:08Z</time>
      </trkpt>
      <trkpt lat="49.44425" lon="1.09178">
        <ele>23.1</ele>
        <time>2021-05-02T07:12:10Z</time>
      </trkpt>
      <trkpt lat="49.44411" lon="1.0917">
        <ele>22.8</ele>
        <time>2021-05-02T07:12:12Z</time>
      </trkpt>
      <trkpt lat="49.44406" lon="1.09166">
        <ele>22.6</ele>
        <time>2021-05-02T07:12:13Z</time>
      </trkpt>
      <trkpt lat="49.44394" lon="1.09153">
        <ele>26</ele>
        <time>2021-05-02T07:12:15Z</time>
      </trkpt>
      <trkpt lat="49.44384" lon="1.09145">
        <ele>25.4</ele>
        <time>2021-05-02T07:12:17Z</time>
      </trkpt>
      <trkpt lat="49.44373" lon="1.09139">
        <ele>24.8</ele>
        <time>2021-05-02T07:12:19Z</time>
      </trkpt>
      <trkpt lat="49.44366" lon="1.09133">
        <ele>24.4</ele>
        <time>2021-05-02T07:12:20Z</time>
      </trkpt>
      <trkpt lat="49.44355" lon="1.09122">
        <ele>23.6</ele>
        <time>2021-05-02T07:12:22Z</time>
      </trkpt>
      <trkpt lat="49.4434" lon="1.0911">
        <ele>22.8</ele>
        <time>2021-05-02T07:12:24Z</time>
      </trkpt>
      <trkpt lat="49.44324" lon="1.09101">
        <ele>21.9</ele>
        <time>2021-05-02T07:12:26Z</time>
      </trkpt>
      <trkpt lat="49.44308" lon="1.09092">
        <ele>21.1</ele>
        <time>2021-05-02T07:12:28Z</time>
      </trkpt>
      <trkpt lat="49.44291" lon="1.09085">
        <ele>19.9</ele>
        <time>2021-05-02T07:12:30Z</time>
      </trkpt>
      <trkpt lat="49.44274" lon="1.09078">
        <ele>19.7</ele>
        <time>2021-05-02T07:12:32Z</time>
      </trkpt>
      <trkpt lat="49.44266" lon="1.09073">
        <ele>19.6</ele>
        <time>2021-05-02T07:12:33Z</time>
      </trkpt>
      <trkpt lat="49.44249" lon="1.09066">
        <ele>19.5</ele>
        <time>2021-05-02T07:12:35Z</time>
      </trkpt>
      <trkpt lat="49.44241" lon="1.09061">
        <ele>19.2</ele>
        <time>2021-05-02T07:12:36Z</time>
      </trkpt>
      <trkpt lat="49.4423" lon="1.09054">
        <ele>19.2</ele>
        <time>2021-05-02T07:12:38Z</time>
      </trkpt>
      <trkpt lat="49.44223" lon="1.09048">
        <ele>19.1</ele>
        <time>2021-05-02T07:12:40Z</time>
      </trkpt>
      <trkpt lat="49.44213" lon="1.09042">
        <ele>19</ele>
        <time>2021-05-02T07:12:42Z</time>
      </trkpt>
      <trkpt lat="49.44207" lon="1.09037">
        <ele>18.9</ele>
        <time>2021-05-02T07:12:43Z</time>
      </trkpt>
      <trkpt lat="49.44193" lon="1.09028">
        <ele>18.8</ele>
        <time>2021-05-02T07:12:45Z</time>
      </trkpt>
      <trkpt lat="49.44185" lon="1.09024">
        <ele>18.6</ele>
        <time>2021-05-02T07:12:46Z</time>
      </trkpt>
      <trkpt lat="49.44178" lon="1.0902">
        <ele>18.4</ele>
        <time>2021-05-02T07:12:47Z</time>
      </trkpt>
      <trkpt lat="49.44171" lon="1.09017">
        <ele>18.3</ele>
        <time>2021-05-02T07:12:48Z</time>
      </trkpt>
      <trkpt lat="49.44157" lon="1.09013">
        <ele>18</ele>
        <time>2021-05-02T07:12:50Z</time>
      </trkpt>
      <trkpt lat="49.4415" lon="1.09008">
        <ele>17.8</ele>
        <time>2021-05-02T07:12:51Z</time>
      </trkpt>
      <trkpt lat="49.44132" lon="1.08992">
        <ele>17.3</ele>
        <time>2021-05-02T07:12:53Z</time>
      </trkpt>
      <trkpt lat="49.44123" lon="1.08987">
        <ele>17.1</ele>
        <time>2021-05-02T07:12:54Z</time>
      </trkpt>
      <trkpt lat="49.44115" lon="1.08981">
        <ele>16.9</ele>
        <time>2021-05-02T07:12:55Z</time>
      </trkpt>
      <trkpt lat="49.44101" lon="1.08972">
        <ele>15.4</ele>
        <time>2021-05-02T07:12:57Z</time>
      </trkpt>
      <trkpt lat="49.44091" lon="1.08969">
        <ele>15.4</ele>
        <time>2021-05-02T07:12:58Z</time>
      </trkpt>
      <trkpt lat="49.44076" lon="1.08958">
        <ele>15</ele>
        <time>2021-05-02T07:13:00Z</time>
      </trkpt>
      <trkpt lat="49.44068" lon="1.08954">
        <ele>14.8</ele>
        <time>2021-05-02T07:13:01Z</time>
      </trkpt>
      <trkpt lat="49.44054" lon="1.08946">
        <ele>14.4</ele>
        <time>2021-05-02T07:13:03Z</time>
      </trkpt>
      <trkpt lat="49.44047" lon="1.08942">
        <ele>14.2</ele>
        <time>2021-05-02T07:13:04Z</time>
      </trkpt>
      <trkpt lat="49.44038" lon="1.0894">
        <ele>14</ele>
        <time>2021-05-02T07:13:05Z</time>
      </trkpt>
      <trkpt lat="49.44022" lon="1.0893">
        <ele>13.6</ele>
        <time>2021-05-02T07:13:07Z</time>
      </trkpt>
      <trkpt lat="49.44016" lon="1.08925">
        <ele>13.5</ele>
        <time>2021-05-02T07:13:08Z</time>
      </trkpt>
      <trkpt lat="49.44002" lon="1.08916">
        <ele>13.4</ele>
        <time>2021-05-02T07:13:10Z</time>
      </trkpt>
      <trkpt lat="49.43989" lon="1.08909">
        <ele>13.3</ele>
        <time>2021-05-02T07:13:12Z</time>
      </trkpt>
      <trkpt lat="49.43978" lon="1.08903">
        <ele>13.2</ele>
        <time>2021-05-02T07:13:14Z</time>
      </trkpt>
      <trkpt lat="49.43971" lon="1.08899">
        <ele>13.2</ele>
        <time>2021-05-02T07:13:15Z</time>
      </trkpt>
      <trkpt lat="49.43963" lon="1.08896">
        <ele>13.2</ele>
        <time>2021-05-02T07:13:16Z</time>
      </trkpt>
      <trkpt lat="49.43949" lon="1.0889">
        <ele>13.2</ele>
        <time>2021-05-02T07:13:18Z</time>
      </trkpt>
      <trkpt lat="49.43943" lon="1.08887">
        <ele>13.2</ele>
        <time>2021-05-02T07:13:19Z</time>
      </trkpt>
      <trkpt lat="49.43931" lon="1.08879">
        <ele>13.2</ele>
        <time>2021-05-02T07:13:21Z</time>
      </trkpt>
      <trkpt lat="49.43921" lon="1.0887">
        <ele>13.2</ele>
        <time>2021-05-02T07:13:23Z</time>
      </trkpt>
      <trkpt lat="49.43916" lon="1.08864">
        <ele>13.2</ele>
        <time>2021-05-02T07:13:24Z</time>
      </trkpt>
      <trkpt lat="49.4391" lon="1.08859">
        <ele>13.3</ele>
        <time>2021-05-02T07:13:25Z</time>
      </trkpt>
      <trkpt lat="49.43905" lon="1.08859">
        <ele>13.4</ele>
        <time>2021-05-02T07:13:26Z</time>
      </trkpt>
      <trkpt lat="49.43897" lon="1.0887">
        <ele>13.6</ele>
        <time>2021-05-02T07:13:28Z</time>
      </trkpt>
      <trkpt lat="49.43891" lon="1.08884">
        <ele>13.1</ele>
        <time>2021-05-02T07:13:30Z</time>
      </trkpt>
      <trkpt lat="49.43888" lon="1.08893">
        <ele>13</ele>
        <time>2021-05-02T07:13:31Z</time>
      </trkpt>
      <trkpt lat="49.43885" lon="1.08903">
        <ele>12.9</ele>
        <time>2021-05-02T07:13:32Z</time>
      </trkpt>
      <trkpt lat="49.43879" lon="1.08921">
        <ele>12.8</ele>
        <time>2021-05-02T07:13:34Z</time>
      </trkpt>
      <trkpt lat="49.43873" lon="1.08938">
        <ele>12.7</ele>
        <time>2021-05-02T07:13:36Z</time>
      </trkpt>
      <trkpt lat="49.43868" lon="1.08955">
        <ele>12.7</ele>
        <time>2021-05-02T07:13:38Z</time>
      </trkpt>
      <trkpt lat="49.43864" lon="1.08974">
        <ele>12.6</ele>
        <time>2021-05-02T07:13:40Z</time>
      </trkpt>
      <trkpt lat="49.43861" lon="1.08982">
        <ele>12.6</ele>
        <time>2021-05-02T07:13:41Z</time>
      </trkpt>
      <trkpt lat="49.43859" lon="1.0899">
        <ele>12.6</ele>
        <time>2021-05-02T07:13:42Z</time>
      </trkpt>
      <trkpt lat="49.43854" lon="1.09011">
        <ele>12.6</ele>
        <time>2021-05-02T07:13:44Z</time>
      </trkpt>
      <trkpt lat="49.43851" lon="1.09021">
        <ele>12.6</ele>
        <time>2021-05-02T07:13:45Z</time>
      </trkpt>
      <trkpt lat="49.43849" lon="1.09029">
        <ele>12.6</ele>
        <time>2021-05-02T07:13:46Z</time>
      </trkpt>
      <trkpt lat="49.43843" lon="1.0905">
        <ele>12.5</ele>
        <time>2021-05-02T07:13:48Z</time>
      </trkpt>
      <trkpt lat="49.43838" lon="1.09062">
        <ele>12.4</ele>
        <time>2021-05-02T07:13:49Z</time>
      </trkpt>
      <trkpt lat="49.43836" lon="1.09074">
        <ele>12.4</ele>
        <time>2021-05-02T07:13:50Z</time>
      </trkpt>
      <trkpt lat="49.43833" lon="1.09085">
        <ele>12.3</ele>
        <time>2021-05-02T07:13:51Z</time>
      </trkpt>
      <trkpt lat="49.43827" lon="1.09106">
        <ele>12.3</ele>
        <time>2021-05-02T07:13:53Z</time>
      </trkpt>
      <trkpt lat="49.43824" lon="1.09115">
        <ele>12.3</ele>
        <time>2021-05-02T07:13:54Z</time>
      </trkpt>
      <trkpt lat="49.43821" lon="1.09132">
        <ele>12.3</ele>
        <time>2021-05-02T07:13:56Z</time>
      </trkpt>
      <trkpt lat="49.43819" lon="1.09141">
        <ele>12.3</ele>
        <time>2021-05-02T07:13:57Z</time>
      </trkpt>
      <trkpt lat="49.43818" lon="1.09148">
        <ele>12.3</ele>
        <time>2021-05-02T07:13:58Z</time>
      </trkpt>
      <trkpt lat="49.43816" lon="1.09156">
        <ele>12.3</ele>
        <time>2021-05-02T07:13:59Z</time>
      </trkpt>
      <trkpt lat="49.43811" lon="1.09175">
        <ele>12.9</ele>
        <time>2021-05-02T07:14:01Z</time>
      </trkpt>
      <trkpt lat="49.43808" lon="1.09196">
        <ele>12.7</ele>
        <time>2021-05-02T07:14:03Z</time>
      </trkpt>
      <trkpt lat="49.43805" lon="1.09206">
        <ele>12.3</ele>
        <time>2021-05-02T07:14:04Z</time>
      </trkpt>
      <trkpt lat="49.43799" lon="1.09227">
        <ele>11.7</ele>
        <time>2021-05-02T07:14:06Z</time>
      </trkpt>
      <trkpt lat="49.43794" lon="1.09249">
        <ele>11</ele>
        <time>2021-05-02T07:14:08Z</time>
      </trkpt>
      <trkpt lat="49.43788" lon="1.09271">
        <ele>10.6</ele>
        <time>2021-05-02T07:14:10Z</time>
      </trkpt>
      <trkpt lat="49.43785" lon="1.09282">
        <ele>10.4</ele>
        <time>2021-05-02T07:14:11Z</time>
      </trkpt>
      <trkpt lat="49.43779" lon="1.09305">
        <ele>10.1</ele>
        <time>2021-05-02T07:14:13Z</time>
      </trkpt>
      <trkpt lat="49.43777" lon="1.09316">
        <ele>9.9</ele>
        <time>2021-05-02T07:14:14Z</time>
      </trkpt>
      <trkpt lat="49.43775" lon="1.09327">
        <ele>9.8</ele>
        <time>2021-05-02T07:14:15Z</time>
      </trkpt>
      <trkpt lat="49.43769" lon="1.09351">
        <ele>9.6</ele>
        <time>2021-05-02T07:14:17Z</time>
      </trkpt>
      <trkpt lat="49.43764" lon="1.09371">
        <ele>9.3</ele>
        <time>2021-05-02T07:14:19Z</time>
      </trkpt>
      <trkpt lat="49.43761" lon="1.09381">
        <ele>9.3</ele>
        <time>2021-05-02T07:14:20Z</time>
      </trkpt>
      <trkpt lat="49.43756" lon="1.09403">
        <ele>9.2</ele>
        <time>2021-05-02T07:14:22Z</time>
      </trkpt>
      <trkpt lat="49.43752" lon="1.09424">
        <ele>9.1</ele>
        <time>2021-05-02T07:14:24Z</time>
      </trkpt>
      <trkpt lat="49.43747" lon="1.09444">
        <ele>9.2</ele>
        <time>2021-05-02T07:14:26Z</time>
      </trkpt>
      <trkpt lat="49.43743" lon="1.09464">
        <ele>9.3</ele>
        <time>2021-05-02T07:14:28Z</time>
      </trkpt>
      <trkpt lat="49.43741" lon="1.09474">
        <ele>9.4</ele>
        <time>2021-05-02T07:14:29Z</time>
      </trkpt>
      <trkpt lat="49.43736" lon="1.09492">
        <ele>9.5</ele>
        <time>2021-05-02T07:14:31Z</time>
      </trkpt>
      <trkpt lat="49.43731" lon="1.09511">
        <ele>9.8</ele>
        <time>2021-05-02T07:14:33Z</time>
      </trkpt>
      <trkpt lat="49.43729" lon="1.09521">
        <ele>9.9</ele>
        <time>2021-05-02T07:14:34Z</time>
      </trkpt>
      <trkpt lat="49.43724" lon="1.09542">
        <ele>10.2</ele>
        <time>2021-05-02T07:14:36Z</time>
      </trkpt>
      <trkpt lat="49.4372" lon="1.0956">
        <ele>10.6</ele>
        <time>2021-05-02T07:14:38Z</time>
      </trkpt>
      <trkpt lat="49.43719" lon="1.0957">
        <ele>11</ele>
        <time>2021-05-02T07:14:39Z</time>
      </trkpt>
      <trkpt lat="49.43715" lon="1.09586">
        <ele>11.7</ele>
        <time>2021-05-02T07:14:41Z</time>
      </trkpt>
      <trkpt lat="49.43712" lon="1.09592">
        <ele>12.4</ele>
        <time>2021-05-02T07:14:42Z</time>
      </trkpt>
      <trkpt lat="49.43705" lon="1.09595">
        <ele>12.8</ele>
        <time>2021-05-02T07:14:44Z</time>
      </trkpt>
      <trkpt lat="49.43701" lon="1.09592">
        <ele>12.8</ele>
        <time>2021-05-02T07:14:45Z</time>
      </trkpt>
      <trkpt lat="49.43692" lon="1.09588">
        <ele>12.9</ele>
        <time>2021-05-02T07:14:47Z</time>
      </trkpt>
      <trkpt lat="49.43688" lon="1.09587">
        <ele>12.9</ele>
        <time>2021-05-02T07:14:49Z</time>
      </trkpt>
      <trkpt lat="49.43689" lon="1.09582">
        <ele>12.9</ele>
        <time>2021-05-02T07:14:50Z</time>
      </trkpt>
      <trkpt lat="49.43689" lon="1.09581">
        <ele>12.5</ele>
        <time>2021-05-02T07:14:51Z</time>
      </trkpt>
      <trkpt lat="49.4369" lon="1.09579">
        <ele>12.5</ele>
        <time>2021-05-02T07:14:52Z</time>
      </trkpt>
      <trkpt lat="49.43692" lon="1.09581">
        <ele>12.4</ele>
        <time>2021-05-02T07:14:54Z</time>
      </trkpt>
      <trkpt lat="49.43695" lon="1.09583">
        <ele>12.2</ele>
        <time>2021-05-02T07:14:55Z</time>
      </trkpt>
      <trkpt lat="49.43698" lon="1.09582">
        <ele>12.1</ele>
        <time>2021-05-02T07:14:57Z</time>
      </trkpt>
      <trkpt lat="49.43698" lon="1.0958">
        <ele>12</ele>
        <time>2021-05-02T07:14:59Z</time>
      </trkpt>
      <trkpt lat="49.43699" lon="1.0958">
        <ele>12</ele>
        <time>2021-05-02T07:15:01Z</time>
      </trkpt>
      <trkpt lat="49.437" lon="1.0958">
        <ele>12</ele>
        <time>2021-05-02T07:15:02Z</time>
      </trkpt>
      <trkpt lat="49.437" lon="1.09579">
        <ele>12</ele>
        <time>2021-05-02T07:15:03Z</time>
      </trkpt>
      <trkpt lat="49.437" lon="1.09579">
        <ele>12</ele>
        <time>2021-05-02T07:15:04Z</time>
      </trkpt>
      <trkpt lat="49.437" lon="1.09578">
        <ele>11.4</ele>
        <time>2021-05-02T07:15:05Z</time>
      </trkpt>
      <trkpt lat="49.437" lon="1.09574">
        <ele>10.7</ele>
        <time>2021-05-02T07:15:06Z</time>
      </trkpt>
      <trkpt lat="49.437" lon="1.09572">
        <ele>10.2</ele>
        <time>2021-05-02T07:15:08Z</time>
      </trkpt>
      <trkpt lat="49.43702" lon="1.0957">
        <ele>9.5</ele>
        <time>2021-05-02T07:15:09Z</time>
      </trkpt>
      <trkpt lat="49.43702" lon="1.09568">
        <ele>9.2</ele>
        <time>2021-05-02T07:15:10Z</time>
      </trkpt>
      <trkpt lat="49.43703" lon="1.09567">
        <ele>8.9</ele>
        <time>2021-05-02T07:15:11Z</time>
      </trkpt>
      <trkpt lat="49.43705" lon="1.09561">
        <ele>7.4</ele>
        <time>2021-05-02T07:15:13Z</time>
      </trkpt>
      <trkpt lat="49.43705" lon="1.09559">
        <ele>7.3</ele>
        <time>2021-05-02T07:15:14Z</time>
      </trkpt>
      <trkpt lat="49.43705" lon="1.09557">
        <ele>7.2</ele>
        <time>2021-05-02T07:15:15Z</time>
      </trkpt>
      <trkpt lat="49.43705" lon="1.09555">
        <ele>7.1</ele>
        <time>2021-05-02T07:15:17Z</time>
      </trkpt>
      <trkpt lat="49.43705" lon="1.09552">
        <ele>7</ele>
        <time>2021-05-02T07:15:18Z</time>
      </trkpt>
      <trkpt lat="49.43703" lon="1.0955">
        <ele>6.8</ele>
        <time>2021-05-02T07:15:20Z</time>
      </trkpt>
      <trkpt lat="49.43702" lon="1.09549">
        <ele>6.6</ele>
        <time>2021-05-02T07:15:21Z</time>
      </trkpt>
      <trkpt lat="49.43701" lon="1.09548">
        <ele>6.3</ele>
        <time>2021-05-02T07:15:22Z</time>
      </trkpt>
      <trkpt lat="49.43699" lon="1.09546">
        <ele>6.3</ele>
        <time>2021-05-02T07:15:23Z</time>
      </trkpt>
      <trkpt lat="49.43698" lon="1.09547">
        <ele>6.3</ele>
        <time>2021-05-02T07:15:24Z</time>
      </trkpt>
      <trkpt lat="49.43697" lon="1.09548">
        <ele>6.3</ele>
        <time>2021-05-02T07:15:25Z</time>
      </trkpt>
      <trkpt lat="49.43697" lon="1.0955">
        <ele>6.2</ele>
        <time>2021-05-02T07:15:27Z</time>
      </trkpt>
      <trkpt lat="49.43697" lon="1.09551">
        <ele>6.2</ele>
        <time>2021-05-02T07:15:28Z</time>
      </trkpt>
      <trkpt lat="49.43697" lon="1.0955">
        <ele>6.2</ele>
        <time>2021-05-02T07:15:29Z</time>
      </trkpt>
      <trkpt lat="49.43697" lon="1.0955">
        <ele>6.2</ele>
        <time>2021-05-02T07:15:30Z</time>
      </trkpt>
      <trkpt lat="49.43697" lon="1.0955">
        <ele>6.2</ele>
        <time>2021-05-02T07:15:32Z</time>
      </trkpt>
      <trkpt lat="49.43697" lon="1.0955">
        <ele>6.2</ele>
        <time>2021-05-02T07:15:33Z</time>
      </trkpt>
      <trkpt lat="49.43696" lon="1.0955">
        <ele>6.2</ele>
        <time>2021-05-02T07:15:35Z</time>
      </trkpt>
      <trkpt lat="49.43696" lon="1.0955">
        <ele>6.2</ele>
        <time>2021-05-02T07:15:36Z</time>
      </trkpt>
      <trkpt lat="49.43696" lon="1.0955">
        <ele>6.2</ele>
        <time>2021-05-02T07:15:38Z</time>
      </trkpt>
      <trkpt lat="49.43696" lon="1.09551">
        <ele>6.2</ele>
        <time>2021-05-02T07:15:40Z</time>
      </trkpt>
      <trkpt lat="49.43696" lon="1.09551">
        <ele>6.2</ele>
        <time>2021-05-02T07:15:41Z</time>
      </trkpt>
      <trkpt lat="49.43696" lon="1.09552">
        <ele>6.2</ele>
        <time>2021-05-02T07:15:43Z</time>
      </trkpt>
      <trkpt lat="49.43696" lon="1.09553">
        <ele>6.2</ele>
        <time>2021-05-02T07:15:45Z</time>
      </trkpt>
      <trkpt lat="49.43695" lon="1.09554">
        <ele>6.2</ele>
        <time>2021-05-02T07:15:46Z</time>
      </trkpt>
      <trkpt lat="49.43695" lon="1.09556">
        <ele>6.2</ele>
        <time>2021-05-02T07:15:48Z</time>
      </trkpt>
      <trkpt lat="49.43695" lon="1.09558">
        <ele>6.2</ele>
        <time>2021-05-02T07:15:50Z</time>
      </trkpt>
      <trkpt lat="49.43694" lon="1.0956">
        <ele>6.2</ele>
        <time>2021-05-02T07:15:51Z</time>
      </trkpt>
      <trkpt lat="49.43694" lon="1.09562">
        <ele>6.1</ele>
        <time>2021-05-02T07:15:53Z</time>
      </trkpt>
      <trkpt lat="49.43694" lon="1.09564">
        <ele>6.1</ele>
        <time>2021-05-02T07:15:54Z</time>
      </trkpt>
      <trkpt lat="49.43694" lon="1.09566">
        <ele>6.1</ele>
        <time>2021-05-02T07:15:56Z</time>
      </trkpt>
      <trkpt lat="49.43693" lon="1.09568">
        <ele>6.1</ele>
        <time>2021-05-02T07:16:19Z</time>
      </trkpt>
      <trkpt lat="49.43693" lon="1.0957">
        <ele>6.1</ele>
        <time>2021-05-02T07:16:20Z</time>
      </trkpt>
      <trkpt lat="49.43693" lon="1.09573">
        <ele>6.1</ele>
        <time>2021-05-02T07:16:21Z</time>
      </trkpt>
      <trkpt lat="49.43693" lon="1.09584">
        <ele>6</ele>
        <time>2021-05-02T07:16:23Z</time>
      </trkpt>
      <trkpt lat="49.43693" lon="1.09588">
        <ele>6</ele>
        <time>2021-05-02T07:16:25Z</time>
      </trkpt>
      <trkpt lat="49.43693" lon="1.09592">
        <ele>5.9</ele>
        <time>2021-05-02T07:16:27Z</time>
      </trkpt>
      <trkpt lat="49.43693" lon="1.09569">
        <ele>5.9</ele>
        <time>2021-05-02T07:16:29Z</time>
      </trkpt>
      <trkpt lat="49.43693" lon="1.09571">
        <ele>5.9</ele>
        <time>2021-05-02T07:16:31Z</time>
      </trkpt>
      <trkpt lat="49.43693" lon="1.09572">
        <ele>5.9</ele>
        <time>2021-05-02T07:16:32Z</time>
      </trkpt>
      <trkpt lat="49.43693" lon="1.09582">
        <ele>5.9</ele>
        <time>2021-05-02T07:16:34Z</time>
      </trkpt>
      <trkpt lat="49.43692" lon="1.09586">
        <ele>5.9</ele>
        <time>2021-05-02T07:16:35Z</time>
      </trkpt>
      <trkpt lat="49.4369" lon="1.09598">
        <ele>5.9</ele>
        <time>2021-05-02T07:16:37Z</time>
      </trkpt>
      <trkpt lat="49.43686" lon="1.0963">
        <ele>5.7</ele>
        <time>2021-05-02T07:16:38Z</time>
      </trkpt>
      <trkpt lat="49.43686" lon="1.09637">
        <ele>5.7</ele>
        <time>2021-05-02T07:16:40Z</time>
      </trkpt>
      <trkpt lat="49.43686" lon="1.09644">
        <ele>5.7</ele>
        <time>2021-05-02T07:16:41Z</time>
      </trkpt>
      <trkpt lat="49.43684" lon="1.09661">
        <ele>5.6</ele>
        <time>2021-05-02T07:16:43Z</time>
      </trkpt>
      <trkpt lat="49.43683" lon="1.09667">
        <ele>5.6</ele>
        <time>2021-05-02T07:16:45Z</time>
      </trkpt>
      <trkpt lat="49.43682" lon="1.09672">
        <ele>5.6</ele>
        <time>2021-05-02T07:16:46Z</time>
      </trkpt>
      <trkpt lat="49.43682" lon="1.09673">
        <ele>5.6</ele>
        <time>2021-05-02T07:16:47Z</time>
      </trkpt>
      <trkpt lat="49.43682" lon="1.09678">
        <ele>5.6</ele>
        <time>2021-05-02T07:16:49Z</time>
      </trkpt>
      <trkpt lat="49.43681" lon="1.09682">
        <ele>5.6</ele>
        <time>2021-05-02T07:16:50Z</time>
      </trkpt>
      <trkpt lat="49.43679" lon="1.09689">
        <ele>5.6</ele>
        <time>2021-05-02T07:16:52Z</time>
      </trkpt>
      <trkpt lat="49.43678" lon="1.09698">
        <ele>5.6</ele>
        <time>2021-05-02T07:16:54Z</time>
      </trkpt>
      <trkpt lat="49.43677" lon="1.09701">
        <ele>5.6</ele>
        <time>2021-05-02T07:16:55Z</time>
      </trkpt>
      <trkpt lat="49.43676" lon="1.09707">
        <ele>5.6</ele>
        <time>2021-05-02T07:16:57Z</time>
      </trkpt>
      <trkpt lat="49.43674" lon="1.09714">
        <ele>5.6</ele>
        <time>2021-05-02T07:16:58Z</time>
      </trkpt>
      <trkpt lat="49.43675" lon="1.09713">
        <ele>5.6</ele>
        <time>2021-05-02T07:17:00Z</time>
      </trkpt>
      <trkpt lat="49.43674" lon="1.09718">
        <ele>5.6</ele>
        <time>2021-05-02T07:17:01Z</time>
      </trkpt>
      <trkpt lat="49.43672" lon="1.09727">
        <ele>5.6</ele>
        <time>2021-05-02T07:17:03Z</time>
      </trkpt>
      <trkpt lat="49.43667" lon="1.09751">
        <ele>5.6</ele>
        <time>2021-05-02T07:17:05Z</time>
      </trkpt>
      <trkpt lat="49.43666" lon="1.09757">
        <ele>5.6</ele>
        <time>2021-05-02T07:17:06Z</time>
      </trkpt>
      <trkpt lat="49.43665" lon="1.09761">
        <ele>5.6</ele>
        <time>2021-05-02T07:17:07Z</time>
      </trkpt>
      <trkpt lat="49.43664" lon="1.0977">
        <ele>5.6</ele>
        <time>2021-05-02T07:17:09Z</time>
      </trkpt>
      <trkpt lat="49.43663" lon="1.09775">
        <ele>5.7</ele>
        <time>2021-05-02T07:17:10Z</time>
      </trkpt>
      <trkpt lat="49.43661" lon="1.09782">
        <ele>5.7</ele>
        <time>2021-05-02T07:17:12Z</time>
      </trkpt>
      <trkpt lat="49.43661" lon="1.09785">
        <ele>5.7</ele>
        <time>2021-05-02T07:17:13Z</time>
      </trkpt>
      <trkpt lat="49.4366" lon="1.09791">
        <ele>5.7</ele>
        <time>2021-05-02T07:17:15Z</time>
      </trkpt>
      <trkpt lat="49.43659" lon="1.09795">
        <ele>5.7</ele>
        <time>2021-05-02T07:17:16Z</time>
      </trkpt>
      <trkpt lat="49.43658" lon="1.09799">
        <ele>5.7</ele>
        <time>2021-05-02T07:17:17Z</time>
      </trkpt>
      <trkpt lat="49.43656" lon="1.09808">
        <ele>5.7</ele>
        <time>2021-05-02T07:17:19Z</time>
      </trkpt>
      <trkpt lat="49.43655" lon="1.09813">
        <ele>5.7</ele>
        <time>2021-05-02T07:17:20Z</time>
      </trkpt>
      <trkpt lat="49.43653" lon="1.09821">
        <ele>5.7</ele>
        <time>2021-05-02T07:17:22Z</time>
      </trkpt>
      <trkpt lat="49.43652" lon="1.09825">
        <ele>5.7</ele>
        <time>2021-05-02T07:17:23Z</time>
      </trkpt>
      <trkpt lat="49.4365" lon="1.09833">
        <ele>5.6</ele>
        <time>2021-05-02T07:17:25Z</time>
      </trkpt>
      <trkpt lat="49.4365" lon="1.09836">
        <ele>5.6</ele>
        <time>2021-05-02T07:17:26Z</time>
      </trkpt>
      <trkpt lat="49.43648" lon="1.09843">
        <ele>5.6</ele>
        <time>2021-05-02T07:17:28Z</time>
      </trkpt>
      <trkpt lat="49.43646" lon="1.09849">
        <ele>5.6</ele>
        <time>2021-05-02T07:17:30Z</time>
      </trkpt>
      <trkpt lat="49.43645" lon="1.09856">
        <ele>5.6</ele>
        <time>2021-05-02T07:17:32Z</time>
      </trkpt>
      <trkpt lat="49.43644" lon="1.0986">
        <ele>5.6</ele>
        <time>2021-05-02T07:17:33Z</time>
      </trkpt>
      <trkpt lat="49.43641" lon="1.09866">
        <ele>5.6</ele>
        <time>2021-05-02T07:17:35Z</time>
      </trkpt>
      <trkpt lat="49.4364" lon="1.0987">
        <ele>5.6</ele>
        <time>2021-05-02T07:17:36Z</time>
      </trkpt>
      <trkpt lat="49.43639" lon="1.09875">
        <ele>5.6</ele>
        <time>2021-05-02T07:17:37Z</time>
      </trkpt>
      <trkpt lat="49.43638" lon="1.09879">
        <ele>5.6</ele>
        <time>2021-05-02T07:17:38Z</time>
      </trkpt>
      <trkpt lat="49.43637" lon="1.09887">
        <ele>5.6</ele>
        <time>2021-05-02T07:17:40Z</time>
      </trkpt>
      <trkpt lat="49.43635" lon="1.09895">
        <ele>5.6</ele>
        <time>2021-05-02T07:17:42Z</time>
      </trkpt>
      <trkpt lat="49.43635" lon="1.09898">
        <ele>5.6</ele>
        <time>2021-05-02T07:17:44Z</time>
      </trkpt>
      <trkpt lat="49.43635" lon="1.099">
        <ele>5.6</ele>
        <time>2021-05-02T07:17:46Z</time>
      </trkpt>
      <trkpt lat="49.43635" lon="1.09901">
        <ele>5.6</ele>
        <time>2021-05-02T07:17:48Z</time>
      </trkpt>
      <trkpt lat="49.43635" lon="1.09902">
        <ele>5.6</ele>
        <time>2021-05-02T07:17:49Z</time>
      </trkpt>
      <trkpt lat="49.43635" lon="1.09903">
        <ele>5.6</ele>
        <time>2021-05-02T07:17:51Z</time>
      </trkpt>
      <trkpt lat="49.43635" lon="1.09905">
        <ele>5.6</ele>
        <time>2021-05-02T07:17:52Z</time>
      </trkpt>
      <trkpt lat="49.43635" lon="1.09906">
        <ele>5.6</ele>
        <time>2021-05-02T07:18:09Z</time>
      </trkpt>
      <trkpt lat="49.43635" lon="1.09907">
        <ele>5.6</ele>
        <time>2021-05-02T07:18:10Z</time>
      </trkpt>
      <trkpt lat="49.43634" lon="1.09908">
        <ele>5.6</ele>
        <time>2021-05-02T07:18:11Z</time>
      </trkpt>
      <trkpt lat="49.43624" lon="1.09947">
        <ele>5.5</ele>
        <time>2021-05-02T07:18:13Z</time>
      </trkpt>
      <trkpt lat="49.43619" lon="1.09972">
        <ele>5.5</ele>
        <time>2021-05-02T07:18:15Z</time>
      </trkpt>
      <trkpt lat="49.43616" lon="1.09981">
        <ele>5.4</ele>
        <time>2021-05-02T07:18:16Z</time>
      </trkpt>
      <trkpt lat="49.43613" lon="1.0999">
        <ele>5.4</ele>
        <time>2021-05-02T07:18:17Z</time>
      </trkpt>
      <trkpt lat="49.43607" lon="1.10006">
        <ele>5.3</ele>
        <time>2021-05-02T07:18:19Z</time>
      </trkpt>
      <trkpt lat="49.43604" lon="1.10014">
        <ele>5.3</ele>
        <time>2021-05-02T07:18:20Z</time>
      </trkpt>
      <trkpt lat="49.43599" lon="1.1003">
        <ele>5.2</ele>
        <time>2021-05-02T07:18:22Z</time>
      </trkpt>
      <trkpt lat="49.43597" lon="1.10039">
        <ele>5.2</ele>
        <time>2021-05-02T07:18:23Z</time>
      </trkpt>
      <trkpt lat="49.43593" lon="1.10055">
        <ele>5.3</ele>
        <time>2021-05-02T07:18:25Z</time>
      </trkpt>
      <trkpt lat="49.4359" lon="1.1007">
        <ele>5.3</ele>
        <time>2021-05-02T07:18:27Z</time>
      </trkpt>
      <trkpt lat="49.43589" lon="1.10075">
        <ele>5.3</ele>
        <time>2021-05-02T07:18:28Z</time>
      </trkpt>
      <trkpt lat="49.43588" lon="1.1008">
        <ele>5.3</ele>
        <time>2021-05-02T07:18:29Z</time>
      </trkpt>
      <trkpt lat="49.43588" lon="1.10087">
        <ele>5.3</ele>
        <time>2021-05-02T07:18:30Z</time>
      </trkpt>
      <trkpt lat="49.43586" lon="1.10094">
        <ele>5.3</ele>
        <time>2021-05-02T07:18:32Z</time>
      </trkpt>
      <trkpt lat="49.43586" lon="1.10104">
        <ele>5.2</ele>
        <time>2021-05-02T07:18:34Z</time>
      </trkpt>
      <trkpt lat="49.43585" lon="1.10108">
        <ele>5.2</ele>
        <time>2021-05-02T07:18:35Z</time>
      </trkpt>
      <trkpt lat="49.43583" lon="1.10113">
        <ele>5.2</ele>
        <time>2021-05-02T07:18:37Z</time>
      </trkpt>
      <trkpt lat="49.43582" lon="1.10117">
        <ele>5.2</ele>
        <time>2021-05-02T07:18:38Z</time>
      </trkpt>
      <trkpt lat="49.4358" lon="1.10122">
        <ele>5.2</ele>
        <time>2021-05-02T07:18:39Z</time>
      </trkpt>
      <trkpt lat="49.43578" lon="1.1013">
        <ele>5.2</ele>
        <time>2021-05-02T07:18:41Z</time>
      </trkpt>
      <trkpt lat="49.43577" lon="1.10134">
        <ele>5.2</ele>
        <time>2021-05-02T07:18:42Z</time>
      </trkpt>
      <trkpt lat="49.43576" lon="1.10142">
        <ele>5.3</ele>
        <time>2021-05-02T07:18:44Z</time>
      </trkpt>
      <trkpt lat="49.43575" lon="1.10148">
        <ele>5.3</ele>
        <time>2021-05-02T07:18:45Z</time>
      </trkpt>
      <trkpt lat="49.43575" lon="1.1015">
        <ele>5.3</ele>
        <time>2021-05-02T07:18:46Z</time>
      </trkpt>
      <trkpt lat="49.43573" lon="1.10157">
        <ele>5.3</ele>
        <time>2021-05-02T07:18:48Z</time>
      </trkpt>
      <trkpt lat="49.43571" lon="1.10164">
        <ele>5.3</ele>
        <time>2021-05-02T07:18:50Z</time>
      </trkpt>
      <trkpt lat="49.43569" lon="1.10173">
        <ele>5.3</ele>
        <time>2021-05-02T07:18:52Z</time>
      </trkpt>
      <trkpt lat="49.43567" lon="1.10177">
        <ele>5.3</ele>
        <time>2021-05-02T07:18:53Z</time>
      </trkpt>
      <trkpt lat="49.43565" lon="1.10185">
        <ele>5.3</ele>
        <time>2021-05-02T07:18:55Z</time>
      </trkpt>
      <trkpt lat="49.43562" lon="1.10192">
        <ele>5.4</ele>
        <time>2021-05-02T07:18:57Z</time>
      </trkpt>
      <trkpt lat="49.43558" lon="1.10199">
        <ele>5.4</ele>
        <time>2021-05-02T07:18:59Z</time>
      </trkpt>
      <trkpt lat="49.43555" lon="1.10205">
        <ele>5.4</ele>
        <time>2021-05-02T07:19:01Z</time>
      </trkpt>
      <trkpt lat="49.43552" lon="1.10213">
        <ele>5.4</ele>
        <time>2021-05-02T07:19:03Z</time>
      </trkpt>
      <trkpt lat="49.43548" lon="1.10219">
        <ele>5.4</ele>
        <time>2021-05-02T07:19:05Z</time>
      </trkpt>
      <trkpt lat="49.43546" lon="1.10223">
        <ele>5.4</ele>
        <time>2021-05-02T07:19:06Z</time>
      </trkpt>
      <trkpt lat="49.43542" lon="1.10229">
        <ele>5.4</ele>
        <time>2021-05-02T07:19:08Z</time>
      </trkpt>
      <trkpt lat="49.43539" lon="1.10233">
        <ele>5.5</ele>
        <time>2021-05-02T07:19:10Z</time>
      </trkpt>
      <trkpt lat="49.43537" lon="1.10238">
        <ele>5.5</ele>
        <time>2021-05-02T07:19:12Z</time>
      </trkpt>
      <trkpt lat="49.43534" lon="1.10243">
        <ele>5.5</ele>
        <time>2021-05-02T07:19:14Z</time>
      </trkpt>
      <trkpt lat="49.43533" lon="1.10247">
        <ele>5.5</ele>
        <time>2021-05-02T07:19:15Z</time>
      </trkpt>
      <trkpt lat="49.43531" lon="1.10253">
        <ele>5.5</ele>
        <time>2021-05-02T07:19:16Z</time>
      </trkpt>
      <trkpt lat="49.4353" lon="1.10256">
        <ele>5.5</ele>
        <time>2021-05-02T07:19:17Z</time>
      </trkpt>
      <trkpt lat="49.43528" lon="1.10264">
        <ele>5.5</ele>
        <time>2021-05-02T07:19:19Z</time>
      </trkpt>
      <trkpt lat="49.43526" lon="1.10267">
        <ele>5.5</ele>
        <time>2021-05-02T07:19:20Z</time>
      </trkpt>
      <trkpt lat="49.43523" lon="1.10274">
        <ele>5.5</ele>
        <time>2021-05-02T07:19:22Z</time>
      </trkpt>
      <trkpt lat="49.43521" lon="1.1028">
        <ele>5.5</ele>
        <time>2021-05-02T07:19:24Z</time>
      </trkpt>
      <trkpt lat="49.43519" lon="1.10284">
        <ele>5.5</ele>
        <time>2021-05-02T07:19:25Z</time>
      </trkpt>
      <trkpt lat="49.43516" lon="1.10291">
        <ele>5.5</ele>
        <time>2021-05-02T07:19:27Z</time>
      </trkpt>
      <trkpt lat="49.43513" lon="1.10296">
        <ele>5.5</ele>
        <time>2021-05-02T07:19:29Z</time>
      </trkpt>
      <trkpt lat="49.43512" lon="1.103">
        <ele>5.5</ele>
        <time>2021-05-02T07:19:30Z</time>
      </trkpt>
      <trkpt lat="49.4351" lon="1.10306">
        <ele>5.5</ele>
        <time>2021-05-02T07:19:32Z</time>
      </trkpt>
      <trkpt lat="49.43507" lon="1.1031">
        <ele>5.5</ele>
        <time>2021-05-02T07:19:33Z</time>
      </trkpt>
      <trkpt lat="49.43504" lon="1.10314">
        <ele>5.5</ele>
        <time>2021-05-02T07:19:34Z</time>
      </trkpt>
      <trkpt lat="49.43499" lon="1.10319">
        <ele>5.5</ele>
        <time>2021-05-02T07:19:36Z</time>
      </trkpt>
      <trkpt lat="49.43494" lon="1.10325">
        <ele>5.5</ele>
        <time>2021-05-02T07:19:38Z</time>
      </trkpt>
      <trkpt lat="49.43491" lon="1.10328">
        <ele>5.4</ele>
        <time>2021-05-02T07:19:39Z</time>
      </trkpt>
      <trkpt lat="49.43489" lon="1.1033">
        <ele>5.4</ele>
        <time>2021-05-02T07:19:40Z</time>
      </trkpt>
      <trkpt lat="49.43484" lon="1.10336">
        <ele>5.4</ele>
        <time>2021-05-02T07:19:42Z</time>
      </trkpt>
      <trkpt lat="49.43479" lon="1.10341">
        <ele>5.4</ele>
        <time>2021-05-02T07:19:44Z</time>
      </trkpt>
      <trkpt lat="49.43475" lon="1.10347">
        <ele>5.4</ele>
        <time>2021-05-02T07:19:46Z</time>
      </trkpt>
      <trkpt lat="49.43473" lon="1.1035">
        <ele>5.4</ele>
        <time>2021-05-02T07:19:47Z</time>
      </trkpt>
      <trkpt lat="49.43471" lon="1.10352">
        <ele>5.4</ele>
        <time>2021-05-02T07:19:48Z</time>
      </trkpt>
      <trkpt lat="49.43467" lon="1.10357">
        <ele>5.4</ele>
        <time>2021-05-02T07:19:50Z</time>
      </trkpt>
      <trkpt lat="49.43463" lon="1.10363">
        <ele>5.4</ele>
        <time>2021-05-02T07:19:52Z</time>
      </trkpt>
      <trkpt lat="49.43463" lon="1.10362">
        <ele>5.4</ele>
        <time>2021-05-02T07:19:53Z</time>
      </trkpt>
      <trkpt lat="49.43459" lon="1.10366">
        <ele>5.4</ele>
        <time>2021-05-02T07:19:55Z</time>
      </trkpt>
      <trkpt lat="49.43455" lon="1.10369">
        <ele>5.4</ele>
        <time>2021-05-02T07:19:57Z</time>
      </trkpt>
      <trkpt lat="49.43451" lon="1.10366">
        <ele>5.4</ele>
        <time>2021-05-02T07:19:59Z</time>
      </trkpt>
      <trkpt lat="49.43449" lon="1.10364">
        <ele>5.4</ele>
        <time>2021-05-02T07:20:01Z</time>
      </trkpt>
      <trkpt lat="49.43449" lon="1.10368">
        <ele>5.4</ele>
        <time>2021-05-02T07:20:02Z</time>
      </trkpt>
      <trkpt lat="49.43447" lon="1.1037">
        <ele>5.4</ele>
        <time>2021-05-02T07:20:03Z</time>
      </trkpt>
      <trkpt lat="49.43441" lon="1.10375">
        <ele>5.3</ele>
        <time>2021-05-02T07:20:05Z</time>
      </trkpt>
      <trkpt lat="49.43436" lon="1.10379">
        <ele>5.3</ele>
        <time>2021-05-02T07:20:07Z</time>
      </trkpt>
      <trkpt lat="49.43433" lon="1.10382">
        <ele>5.3</ele>
        <time>2021-05-02T07:20:08Z</time>
      </trkpt>
      <trkpt lat="49.43427" lon="1.10388">
        <ele>5.2</ele>
        <time>2021-05-02T07:20:10Z</time>
      </trkpt>
      <trkpt lat="49.43422" lon="1.10392">
        <ele>5.2</ele>
        <time>2021-05-02T07:20:12Z</time>
      </trkpt>
      <trkpt lat="49.43418" lon="1.10397">
        <ele>5.2</ele>
        <time>2021-05-02T07:20:14Z</time>
      </trkpt>
      <trkpt lat="49.43416" lon="1.10399">
        <ele>5.2</ele>
        <time>2021-05-02T07:20:15Z</time>
      </trkpt>
      <trkpt lat="49.43411" lon="1.10404">
        <ele>5.1</ele>
        <time>2021-05-02T07:20:17Z</time>
      </trkpt>
      <trkpt lat="49.43409" lon="1.10406">
        <ele>5.1</ele>
        <time>2021-05-02T07:20:18Z</time>
      </trkpt>
      <trkpt lat="49.43404" lon="1.1041">
        <ele>5.1</ele>
        <time>2021-05-02T07:20:20Z</time>
      </trkpt>
      <trkpt lat="49.434" lon="1.10414">
        <ele>5.1</ele>
        <time>2021-05-02T07:20:21Z</time>
      </trkpt>
      <trkpt lat="49.43393" lon="1.10419">
        <ele>5.1</ele>
        <time>2021-05-02T07:20:23Z</time>
      </trkpt>
      <trkpt lat="49.43385" lon="1.10427">
        <ele>5</ele>
        <time>2021-05-02T07:20:25Z</time>
      </trkpt>
      <trkpt lat="49.43382" lon="1.1043">
        <ele>5</ele>
        <time>2021-05-02T07:20:26Z</time>
      </trkpt>
      <trkpt lat="49.43377" lon="1.10435">
        <ele>5</ele>
        <time>2021-05-02T07:20:28Z</time>
      </trkpt>
      <trkpt lat="49.43374" lon="1.10438">
        <ele>5</ele>
        <time>2021-05-02T07:20:29Z</time>
      </trkpt>
      <trkpt lat="49.43371" lon="1.10441">
        <ele>5</ele>
        <time>2021-05-02T07:20:31Z</time>
      </trkpt>
      <trkpt lat="49.43368" lon="1.10445">
        <ele>5</ele>
        <time>2021-05-02T07:20:32Z</time>
      </trkpt>
      <trkpt lat="49.43367" lon="1.10447">
        <ele>5</ele>
        <time>2021-05-02T07:20:33Z</time>
      </trkpt>
      <trkpt lat="49.43358" lon="1.10455">
        <ele>5</ele>
        <time>2021-05-02T07:20:35Z</time>
      </trkpt>
      <trkpt lat="49.43355" lon="1.1046">
        <ele>5</ele>
        <time>2021-05-02T07:20:37Z</time>
      </trkpt>
      <trkpt lat="49.43352" lon="1.10466">
        <ele>5</ele>
        <time>2021-05-02T07:20:39Z</time>
      </trkpt>
      <trkpt lat="49.4335" lon="1.10471">
        <ele>5</ele>
        <time>2021-05-02T07:20:41Z</time>
      </trkpt>
      <trkpt lat="49.43347" lon="1.1047">
        <ele>5</ele>
        <time>2021-05-02T07:20:42Z</time>
      </trkpt>
      <trkpt lat="49.43341" lon="1.10474">
        <ele>5</ele>
        <time>2021-05-02T07:20:44Z</time>
      </trkpt>
      <trkpt lat="49.43337" lon="1.10478">
        <ele>5</ele>
        <time>2021-05-02T07:20:46Z</time>
      </trkpt>
      <trkpt lat="49.43334" lon="1.10481">
        <ele>5</ele>
        <time>2021-05-02T07:20:48Z</time>
      </trkpt>
      <trkpt lat="49.43331" lon="1.10484">
        <ele>5.1</ele>
        <time>2021-05-02T07:20:49Z</time>
      </trkpt>
      <trkpt lat="49.43328" lon="1.10488">
        <ele>5.1</ele>
        <time>2021-05-02T07:20:51Z</time>
      </trkpt>
      <trkpt lat="49.43326" lon="1.10491">
        <ele>5.1</ele>
        <time>2021-05-02T07:20:52Z</time>
      </trkpt>
      <trkpt lat="49.43324" lon="1.10492">
        <ele>5.1</ele>
        <time>2021-05-02T07:20:53Z</time>
      </trkpt>
      <trkpt lat="49.4332" lon="1.10493">
        <ele>5.1</ele>
        <time>2021-05-02T07:20:55Z</time>
      </trkpt>
      <trkpt lat="49.43317" lon="1.10495">
        <ele>5.1</ele>
        <time>2021-05-02T07:20:57Z</time>
      </trkpt>
      <trkpt lat="49.43315" lon="1.10499">
        <ele>5.1</ele>
        <time>2021-05-02T07:20:58Z</time>
      </trkpt>
      <trkpt lat="49.43312" lon="1.10503">
        <ele>5.1</ele>
        <time>2021-05-02T07:20:59Z</time>
      </trkpt>
      <trkpt lat="49.43306" lon="1.10512">
        <ele>5.1</ele>
        <time>2021-05-02T07:21:01Z</time>
      </trkpt>
      <trkpt lat="49.43303" lon="1.10515">
        <ele>5.1</ele>
        <time>2021-05-02T07:21:02Z</time>
      </trkpt>
      <trkpt lat="49.43297" lon="1.1052">
        <ele>5.2</ele>
        <time>2021-05-02T07:21:04Z</time>
      </trkpt>
      <trkpt lat="49.43294" lon="1.10525">
        <ele>5.2</ele>
        <time>2021-05-02T07:21:05Z</time>
      </trkpt>
      <trkpt lat="49.43289" lon="1.1053">
        <ele>5.2</ele>
        <time>2021-05-02T07:21:07Z</time>
      </trkpt>
      <trkpt lat="49.43284" lon="1.10535">
        <ele>5.2</ele>
        <time>2021-05-02T07:21:09Z</time>
      </trkpt>
      <trkpt lat="49.43282" lon="1.10537">
        <ele>5.2</ele>
        <time>2021-05-02T07:21:10Z</time>
      </trkpt>
      <trkpt lat="49.43277" lon="1.10542">
        <ele>5.2</ele>
        <time>2021-05-02T07:21:12Z</time>
      </trkpt>
      <trkpt lat="49.43273" lon="1.10547">
        <ele>5.3</ele>
        <time>2021-05-02T07:21:14Z</time>
      </trkpt>
      <trkpt lat="49.4327" lon="1.1055">
        <ele>5.3</ele>
        <time>2021-05-02T07:21:15Z</time>
      </trkpt>
      <trkpt lat="49.43267" lon="1.10553">
        <ele>5.3</ele>
        <time>2021-05-02T07:21:16Z</time>
      </trkpt>
      <trkpt lat="49.43262" lon="1.10558">
        <ele>5.3</ele>
        <time>2021-05-02T07:21:18Z</time>
      </trkpt>
      <trkpt lat="49.43259" lon="1.10561">
        <ele>5.3</ele>
        <time>2021-05-02T07:21:19Z</time>
      </trkpt>
      <trkpt lat="49.43256" lon="1.10564">
        <ele>5.3</ele>
        <time>2021-05-02T07:21:20Z</time>
      </trkpt>
      <trkpt lat="49.43251" lon="1.10568">
        <ele>5.3</ele>
        <time>2021-05-02T07:21:22Z</time>
      </trkpt>
      <trkpt lat="49.43246" lon="1.10573">
        <ele>5.3</ele>
        <time>2021-05-02T07:21:24Z</time>
      </trkpt>
      <trkpt lat="49.43244" lon="1.10576">
        <ele>5.3</ele>
        <time>2021-05-02T07:21:25Z</time>
      </trkpt>
      <trkpt lat="49.43239" lon="1.10582">
        <ele>5.3</ele>
        <time>2021-05-02T07:21:27Z</time>
      </trkpt>
      <trkpt lat="49.43234" lon="1.10587">
        <ele>5.3</ele>
        <time>2021-05-02T07:21:29Z</time>
      </trkpt>
      <trkpt lat="49.43232" lon="1.1059">
        <ele>5.3</ele>
        <time>2021-05-02T07:21:30Z</time>
      </trkpt>
      <trkpt lat="49.43231" lon="1.1059">
        <ele>5.3</ele>
        <time>2021-05-02T07:21:31Z</time>
      </trkpt>
      <trkpt lat="49.43229" lon="1.10592">
        <ele>5.3</ele>
        <time>2021-05-02T07:21:32Z</time>
      </trkpt>
      <trkpt lat="49.43225" lon="1.10597">
        <ele>5.3</ele>
        <time>2021-05-02T07:21:34Z</time>
      </trkpt>
      <trkpt lat="49.43223" lon="1.10599">
        <ele>5.3</ele>
        <time>2021-05-02T07:21:35Z</time>
      </trkpt>
      <trkpt lat="49.43218" lon="1.10602">
        <ele>5.4</ele>
        <time>2021-05-02T07:21:37Z</time>
      </trkpt>
      <trkpt lat="49.43213" lon="1.10608">
        <ele>5.4</ele>
        <time>2021-05-02T07:21:39Z</time>
      </trkpt>
      <trkpt lat="49.43209" lon="1.10613">
        <ele>5.4</ele>
        <time>2021-05-02T07:21:41Z</time>
      </trkpt>
      <trkpt lat="49.43206" lon="1.10619">
        <ele>5.4</ele>
        <time>2021-05-02T07:21:43Z</time>
      </trkpt>
      <trkpt lat="49.43203" lon="1.10621">
        <ele>5.4</ele>
        <time>2021-05-02T07:21:44Z</time>
      </trkpt>
      <trkpt lat="49.43199" lon="1.10627">
        <ele>5.4</ele>
        <time>2021-05-02T07:21:46Z</time>
      </trkpt>
      <trkpt lat="49.43195" lon="1.10632">
        <ele>5.4</ele>
        <time>2021-05-02T07:21:48Z</time>
      </trkpt>
      <trkpt lat="49.43192" lon="1.10636">
        <ele>5.5</ele>
        <time>2021-05-02T07:21:49Z</time>
      </trkpt>
      <trkpt lat="49.43191" lon="1.10637">
        <ele>5.5</ele>
        <time>2021-05-02T07:21:50Z</time>
      </trkpt>
      <trkpt lat="49.43186" lon="1.10642">
        <ele>5.5</ele>
        <time>2021-05-02T07:21:52Z</time>
      </trkpt>
      <trkpt lat="49.43184" lon="1.10644">
        <ele>5.5</ele>
        <time>2021-05-02T07:21:53Z</time>
      </trkpt>
      <trkpt lat="49.43179" lon="1.10649">
        <ele>5.5</ele>
        <time>2021-05-02T07:21:55Z</time>
      </trkpt>
      <trkpt lat="49.43177" lon="1.10652">
        <ele>5.5</ele>
        <time>2021-05-02T07:21:56Z</time>
      </trkpt>
      <trkpt lat="49.43173" lon="1.10656">
        <ele>5.5</ele>
        <time>2021-05-02T07:21:58Z</time>
      </trkpt>
      <trkpt lat="49.4317" lon="1.10659">
        <ele>5.5</ele>
        <time>2021-05-02T07:21:59Z</time>
      </trkpt>
      <trkpt lat="49.43167" lon="1.10662">
        <ele>5.5</ele>
        <time>2021-05-02T07:22:00Z</time>
      </trkpt>
      <trkpt lat="49.43164" lon="1.10665">
        <ele>5.5</ele>
        <time>2021-05-02T07:22:01Z</time>
      </trkpt>
      <trkpt lat="49.43159" lon="1.10669">
        <ele>5.5</ele>
        <time>2021-05-02T07:22:03Z</time>
      </trkpt>
      <trkpt lat="49.43156" lon="1.10673">
        <ele>5.5</ele>
        <time>2021-05-02T07:22:04Z</time>
      </trkpt>
      <trkpt lat="49.43152" lon="1.10676">
        <ele>5.5</ele>
        <time>2021-05-02T07:22:06Z</time>
      </trkpt>
      <trkpt lat="49.4315" lon="1.10679">
        <ele>5.5</ele>
        <time>2021-05-02T07:22:07Z</time>
      </trkpt>
      <trkpt lat="49.43146" lon="1.10682">
        <ele>5.5</ele>
        <time>2021-05-02T07:22:08Z</time>
      </trkpt>
      <trkpt lat="49.43145" lon="1.10683">
        <ele>5.5</ele>
        <time>2021-05-02T07:22:09Z</time>
      </trkpt>
      <trkpt lat="49.43141" lon="1.10688">
        <ele>5.5</ele>
        <time>2021-05-02T07:22:11Z</time>
      </trkpt>
      <trkpt lat="49.43139" lon="1.1069">
        <ele>5.5</ele>
        <time>2021-05-02T07:22:12Z</time>
      </trkpt>
      <trkpt lat="49.43136" lon="1.10693">
        <ele>5.5</ele>
        <time>2021-05-02T07:22:13Z</time>
      </trkpt>
      <trkpt lat="49.43132" lon="1.10698">
        <ele>5.5</ele>
        <time>2021-05-02T07:22:15Z</time>
      </trkpt>
      <trkpt lat="49.43127" lon="1.10702">
        <ele>5.5</ele>
        <time>2021-05-02T07:22:17Z</time>
      </trkpt>
      <trkpt lat="49.43123" lon="1.10707">
        <ele>5.5</ele>
        <time>2021-05-02T07:22:19Z</time>
      </trkpt>
      <trkpt lat="49.43121" lon="1.10709">
        <ele>5.5</ele>
        <time>2021-05-02T07:22:20Z</time>
      </trkpt>
      <trkpt lat="49.43116" lon="1.10715">
        <ele>5.5</ele>
        <time>2021-05-02T07:22:22Z</time>
      </trkpt>
      <trkpt lat="49.43114" lon="1.10717">
        <ele>5.5</ele>
        <time>2021-05-02T07:22:23Z</time>
      </trkpt>
      <trkpt lat="49.43109" lon="1.10723">
        <ele>5.5</ele>
        <time>2021-05-02T07:22:25Z</time>
      </trkpt>
      <trkpt lat="49.43107" lon="1.10725">
        <ele>5.5</ele>
        <time>2021-05-02T07:22:26Z</time>
      </trkpt>
      <trkpt lat="49.43103" lon="1.1073">
        <ele>5.5</ele>
        <time>2021-05-02T07:22:28Z</time>
      </trkpt>
      <trkpt lat="49.43101" lon="1.10732">
        <ele>5.5</ele>
        <time>2021-05-02T07:22:29Z</time>
      </trkpt>
      <trkpt lat="49.43097" lon="1.10737">
        <ele>5.5</ele>
        <time>2021-05-02T07:22:31Z</time>
      </trkpt>
      <trkpt lat="49.43093" lon="1.1074">
        <ele>5.5</ele>
        <time>2021-05-02T07:22:32Z</time>
      </trkpt>
      <trkpt lat="49.43092" lon="1.10741">
        <ele>5.5</ele>
        <time>2021-05-02T07:22:33Z</time>
      </trkpt>
      <trkpt lat="49.43087" lon="1.10745">
        <ele>5.5</ele>
        <time>2021-05-02T07:22:35Z</time>
      </trkpt>
      <trkpt lat="49.43083" lon="1.10749">
        <ele>5.5</ele>
        <time>2021-05-02T07:22:37Z</time>
      </trkpt>
      <trkpt lat="49.4308" lon="1.10753">
        <ele>5.5</ele>
        <time>2021-05-02T07:22:38Z</time>
      </trkpt>
      <trkpt lat="49.43077" lon="1.10756">
        <ele>5.6</ele>
        <time>2021-05-02T07:22:39Z</time>
      </trkpt>
      <trkpt lat="49.43075" lon="1.1076">
        <ele>5.6</ele>
        <time>2021-05-02T07:22:40Z</time>
      </trkpt>
      <trkpt lat="49.4307" lon="1.10765">
        <ele>5.6</ele>
        <time>2021-05-02T07:22:42Z</time>
      </trkpt>
      <trkpt lat="49.43067" lon="1.10767">
        <ele>5.6</ele>
        <time>2021-05-02T07:22:43Z</time>
      </trkpt>
      <trkpt lat="49.43064" lon="1.10769">
        <ele>5.6</ele>
        <time>2021-05-02T07:22:44Z</time>
      </trkpt>
      <trkpt lat="49.4306" lon="1.10774">
        <ele>5.6</ele>
        <time>2021-05-02T07:22:46Z</time>
      </trkpt>
      <trkpt lat="49.43057" lon="1.10778">
        <ele>5.6</ele>
        <time>2021-05-02T07:22:47Z</time>
      </trkpt>
      <trkpt lat="49.43053" lon="1.10784">
        <ele>5.6</ele>
        <time>2021-05-02T07:22:49Z</time>
      </trkpt>
      <trkpt lat="49.43049" lon="1.1079">
        <ele>5.6</ele>
        <time>2021-05-02T07:22:51Z</time>
      </trkpt>
      <trkpt lat="49.43046" lon="1.10792">
        <ele>5.6</ele>
        <time>2021-05-02T07:22:52Z</time>
      </trkpt>
      <trkpt lat="49.43042" lon="1.10798">
        <ele>5.6</ele>
        <time>2021-05-02T07:22:54Z</time>
      </trkpt>
      <trkpt lat="49.43038" lon="1.10801">
        <ele>5.6</ele>
        <time>2021-05-02T07:22:56Z</time>
      </trkpt>
      <trkpt lat="49.43034" lon="1.10805">
        <ele>5.6</ele>
        <time>2021-05-02T07:22:58Z</time>
      </trkpt>
      <trkpt lat="49.43031" lon="1.10807">
        <ele>5.6</ele>
        <time>2021-05-02T07:22:59Z</time>
      </trkpt>
      <trkpt lat="49.43027" lon="1.10813">
        <ele>5.5</ele>
        <time>2021-05-02T07:23:01Z</time>
      </trkpt>
      <trkpt lat="49.43022" lon="1.10818">
        <ele>5.5</ele>
        <time>2021-05-02T07:23:03Z</time>
      </trkpt>
      <trkpt lat="49.4302" lon="1.1082">
        <ele>5.5</ele>
        <time>2021-05-02T07:23:04Z</time>
      </trkpt>
      <trkpt lat="49.43016" lon="1.10824">
        <ele>5.5</ele>
        <time>2021-05-02T07:23:06Z</time>
      </trkpt>
      <trkpt lat="49.43013" lon="1.10826">
        <ele>5.5</ele>
        <time>2021-05-02T07:23:07Z</time>
      </trkpt>
      <trkpt lat="49.4301" lon="1.10829">
        <ele>5.5</ele>
        <time>2021-05-02T07:23:08Z</time>
      </trkpt>
      <trkpt lat="49.43007" lon="1.1083">
        <ele>5.5</ele>
        <time>2021-05-02T07:23:09Z</time>
      </trkpt>
      <trkpt lat="49.43002" lon="1.10834">
        <ele>5.5</ele>
        <time>2021-05-02T07:23:11Z</time>
      </trkpt>
      <trkpt lat="49.43" lon="1.10837">
        <ele>5.5</ele>
        <time>2021-05-02T07:23:12Z</time>
      </trkpt>
      <trkpt lat="49.42997" lon="1.1084">
        <ele>5.5</ele>
        <time>2021-05-02T07:23:13Z</time>
      </trkpt>
      <trkpt lat="49.42995" lon="1.10842">
        <ele>5.5</ele>
        <time>2021-05-02T07:23:14Z</time>
      </trkpt>
      <trkpt lat="49.42991" lon="1.10848">
        <ele>5.5</ele>
        <time>2021-05-02T07:23:16Z</time>
      </trkpt>
      <trkpt lat="49.42988" lon="1.10851">
        <ele>5.5</ele>
        <time>2021-05-02T07:23:17Z</time>
      </trkpt>
      <trkpt lat="49.42986" lon="1.10854">
        <ele>5.5</ele>
        <time>2021-05-02T07:23:18Z</time>
      </trkpt>
      <trkpt lat="49.42981" lon="1.10859">
        <ele>5.5</ele>
        <time>2021-05-02T07:23:20Z</time>
      </trkpt>
      <trkpt lat="49.42978" lon="1.10862">
        <ele>5.5</ele>
        <time>2021-05-02T07:23:21Z</time>
      </trkpt>
      <trkpt lat="49.42975" lon="1.10864">
        <ele>5.5</ele>
        <time>2021-05-02T07:23:22Z</time>
      </trkpt>
      <trkpt lat="49.4297" lon="1.10869">
        <ele>5.5</ele>
        <time>2021-05-02T07:23:24Z</time>
      </trkpt>
      <trkpt lat="49.42967" lon="1.10871">
        <ele>5.5</ele>
        <time>2021-05-02T07:23:25Z</time>
      </trkpt>
      <trkpt lat="49.42965" lon="1.10874">
        <ele>5.5</ele>
        <time>2021-05-02T07:23:26Z</time>
      </trkpt>
      <trkpt lat="49.42961" lon="1.10878">
        <ele>5.5</ele>
        <time>2021-05-02T07:23:28Z</time>
      </trkpt>
      <trkpt lat="49.42958" lon="1.10882">
        <ele>5.5</ele>
        <time>2021-05-02T07:23:29Z</time>
      </trkpt>
      <trkpt lat="49.42957" lon="1.10884">
        <ele>5.5</ele>
        <time>2021-05-02T07:23:30Z</time>
      </trkpt>
      <trkpt lat="49.42953" lon="1.10887">
        <ele>5.5</ele>
        <time>2021-05-02T07:23:32Z</time>
      </trkpt>
      <trkpt lat="49.4295" lon="1.10891">
        <ele>5.5</ele>
        <time>2021-05-02T07:23:33Z</time>
      </trkpt>
      <trkpt lat="49.42947" lon="1.10894">
        <ele>5.5</ele>
        <time>2021-05-02T07:23:34Z</time>
      </trkpt>
      <trkpt lat="49.42945" lon="1.10897">
        <ele>5.5</ele>
        <time>2021-05-02T07:23:35Z</time>
      </trkpt>
      <trkpt lat="49.42941" lon="1.10901">
        <ele>5.5</ele>
        <time>2021-05-02T07:23:37Z</time>
      </trkpt>
      <trkpt lat="49.42938" lon="1.10904">
        <ele>5.5</ele>
        <time>2021-05-02T07:23:38Z</time>
      </trkpt>
      <trkpt lat="49.42934" lon="1.10909">
        <ele>5.5</ele>
        <time>2021-05-02T07:23:40Z</time>
      </trkpt>
      <trkpt lat="49.4293" lon="1.10913">
        <ele>5.5</ele>
        <time>2021-05-02T07:23:41Z</time>
      </trkpt>
      <trkpt lat="49.42928" lon="1.10916">
        <ele>5.5</ele>
        <time>2021-05-02T07:23:42Z</time>
      </trkpt>
      <trkpt lat="49.42923" lon="1.10921">
        <ele>5.5</ele>
        <time>2021-05-02T07:23:44Z</time>
      </trkpt>
      <trkpt lat="49.42921" lon="1.10923">
        <ele>5.5</ele>
        <time>2021-05-02T07:23:45Z</time>
      </trkpt>
      <trkpt lat="49.42916" lon="1.10928">
        <ele>5.5</ele>
        <time>2021-05-02T07:23:47Z</time>
      </trkpt>
      <trkpt lat="49.42913" lon="1.10931">
        <ele>5.5</ele>
        <time>2021-05-02T07:23:48Z</time>
      </trkpt>
      <trkpt lat="49.42911" lon="1.10933">
        <ele>5.5</ele>
        <time>2021-05-02T07:23:49Z</time>
      </trkpt>
      <trkpt lat="49.42908" lon="1.10936">
        <ele>5.5</ele>
        <time>2021-05-02T07:23:50Z</time>
      </trkpt>
      <trkpt lat="49.42904" lon="1.10941">
        <ele>5.5</ele>
        <time>2021-05-02T07:23:52Z</time>
      </trkpt>
      <trkpt lat="49.42899" lon="1.10947">
        <ele>5.5</ele>
        <time>2021-05-02T07:23:54Z</time>
      </trkpt>
      <trkpt lat="49.42895" lon="1.10951">
        <ele>5.5</ele>
        <time>2021-05-02T07:23:56Z</time>
      </trkpt>
      <trkpt lat="49.42891" lon="1.10954">
        <ele>5.5</ele>
        <time>2021-05-02T07:23:57Z</time>
      </trkpt>
      <trkpt lat="49.42888" lon="1.10957">
        <ele>5.4</ele>
        <time>2021-05-02T07:23:59Z</time>
      </trkpt>
      <trkpt lat="49.42884" lon="1.10961">
        <ele>5.4</ele>
        <time>2021-05-02T07:24:00Z</time>
      </trkpt>
      <trkpt lat="49.42882" lon="1.10963">
        <ele>5.4</ele>
        <time>2021-05-02T07:24:01Z</time>
      </trkpt>
      <trkpt lat="49.42877" lon="1.10968">
        <ele>5.4</ele>
        <time>2021-05-02T07:24:03Z</time>
      </trkpt>
      <trkpt lat="49.42872" lon="1.10973">
        <ele>5.4</ele>
        <time>2021-05-02T07:24:05Z</time>
      </trkpt>
      <trkpt lat="49.42869" lon="1.10976">
        <ele>5.4</ele>
        <time>2021-05-02T07:24:06Z</time>
      </trkpt>
      <trkpt lat="49.42864" lon="1.10982">
        <ele>5.4</ele>
        <time>2021-05-02T07:24:08Z</time>
      </trkpt>
      <trkpt lat="49.42859" lon="1.10987">
        <ele>5.4</ele>
        <time>2021-05-02T07:24:10Z</time>
      </trkpt>
      <trkpt lat="49.42856" lon="1.1099">
        <ele>5.4</ele>
        <time>2021-05-02T07:24:11Z</time>
      </trkpt>
      <trkpt lat="49.42854" lon="1.10991">
        <ele>5.4</ele>
        <time>2021-05-02T07:24:12Z</time>
      </trkpt>
      <trkpt lat="49.4285" lon="1.10997">
        <ele>5.4</ele>
        <time>2021-05-02T07:24:14Z</time>
      </trkpt>
      <trkpt lat="49.42847" lon="1.10999">
        <ele>5.4</ele>
        <time>2021-05-02T07:24:15Z</time>
      </trkpt>
      <trkpt lat="49.42845" lon="1.11002">
        <ele>5.4</ele>
        <time>2021-05-02T07:24:16Z</time>
      </trkpt>
      <trkpt lat="49.42842" lon="1.11004">
        <ele>5.4</ele>
        <time>2021-05-02T07:24:17Z</time>
      </trkpt>
      <trkpt lat="49.4284" lon="1.11007">
        <ele>5.4</ele>
        <time>2021-05-02T07:24:19Z</time>
      </trkpt>
      <trkpt lat="49.42836" lon="1.11012">
        <ele>5.3</ele>
        <time>2021-05-02T07:24:20Z</time>
      </trkpt>
      <trkpt lat="49.42833" lon="1.11015">
        <ele>5.3</ele>
        <time>2021-05-02T07:24:21Z</time>
      </trkpt>
      <trkpt lat="49.42827" lon="1.11021">
        <ele>5.3</ele>
        <time>2021-05-02T07:24:23Z</time>
      </trkpt>
      <trkpt lat="49.42824" lon="1.11024">
        <ele>5.7</ele>
        <time>2021-05-02T07:24:24Z</time>
      </trkpt>
      <trkpt lat="49.42822" lon="1.11026">
        <ele>5.7</ele>
        <time>2021-05-02T07:24:25Z</time>
      </trkpt>
      <trkpt lat="49.42819" lon="1.11029">
        <ele>5.7</ele>
        <time>2021-05-02T07:24:26Z</time>
      </trkpt>
      <trkpt lat="49.42816" lon="1.11031">
        <ele>5.7</ele>
        <time>2021-05-02T07:24:27Z</time>
      </trkpt>
      <trkpt lat="49.42812" lon="1.11036">
        <ele>5.7</ele>
        <time>2021-05-02T07:24:29Z</time>
      </trkpt>
      <trkpt lat="49.42809" lon="1.11039">
        <ele>5.7</ele>
        <time>2021-05-02T07:24:30Z</time>
      </trkpt>
      <trkpt lat="49.42807" lon="1.11041">
        <ele>5.7</ele>
        <time>2021-05-02T07:24:31Z</time>
      </trkpt>
      <trkpt lat="49.42802" lon="1.11046">
        <ele>5.7</ele>
        <time>2021-05-02T07:24:33Z</time>
      </trkpt>
      <trkpt lat="49.42797" lon="1.11051">
        <ele>5.7</ele>
        <time>2021-05-02T07:24:35Z</time>
      </trkpt>
      <trkpt lat="49.42794" lon="1.11054">
        <ele>5.7</ele>
        <time>2021-05-02T07:24:36Z</time>
      </trkpt>
      <trkpt lat="49.42791" lon="1.11057">
        <ele>5.7</ele>
        <time>2021-05-02T07:24:37Z</time>
      </trkpt>
      <trkpt lat="49.42785" lon="1.11062">
        <ele>5.7</ele>
        <time>2021-05-02T07:24:39Z</time>
      </trkpt>
      <trkpt lat="49.42782" lon="1.11065">
        <ele>5.7</ele>
        <time>2021-05-02T07:24:41Z</time>
      </trkpt>
      <trkpt lat="49.42779" lon="1.11068">
        <ele>5.7</ele>
        <time>2021-05-02T07:24:42Z</time>
      </trkpt>
      <trkpt lat="49.42773" lon="1.11068">
        <ele>5.7</ele>
        <time>2021-05-02T07:24:44Z</time>
      </trkpt>
      <trkpt lat="49.42768" lon="1.1107">
        <ele>5.7</ele>
        <time>2021-05-02T07:24:46Z</time>
      </trkpt>
      <trkpt lat="49.42763" lon="1.11072">
        <ele>5.7</ele>
        <time>2021-05-02T07:24:48Z</time>
      </trkpt>
      <trkpt lat="49.4276" lon="1.11075">
        <ele>5.8</ele>
        <time>2021-05-02T07:24:49Z</time>
      </trkpt>
      <trkpt lat="49.42755" lon="1.11076">
        <ele>5.8</ele>
        <time>2021-05-02T07:24:51Z</time>
      </trkpt>
      <trkpt lat="49.42752" lon="1.11077">
        <ele>5.8</ele>
        <time>2021-05-02T07:24:52Z</time>
      </trkpt>
      <trkpt lat="49.4275" lon="1.11078">
        <ele>5.8</ele>
        <time>2021-05-02T07:24:53Z</time>
      </trkpt>
      <trkpt lat="49.42745" lon="1.11081">
        <ele>5.8</ele>
        <time>2021-05-02T07:24:55Z</time>
      </trkpt>
      <trkpt lat="49.42742" lon="1.11083">
        <ele>5.8</ele>
        <time>2021-05-02T07:24:56Z</time>
      </trkpt>
      <trkpt lat="49.42739" lon="1.11085">
        <ele>5.8</ele>
        <time>2021-05-02T07:24:57Z</time>
      </trkpt>
      <trkpt lat="49.42734" lon="1.11088">
        <ele>5.7</ele>
        <time>2021-05-02T07:24:59Z</time>
      </trkpt>
      <trkpt lat="49.4273" lon="1.11091">
        <ele>5.7</ele>
        <time>2021-05-02T07:25:01Z</time>
      </trkpt>
      <trkpt lat="49.42727" lon="1.11094">
        <ele>5.7</ele>
        <time>2021-05-02T07:25:02Z</time>
      </trkpt>
      <trkpt lat="49.42723" lon="1.11096">
        <ele>5.7</ele>
        <time>2021-05-02T07:25:03Z</time>
      </trkpt>
      <trkpt lat="49.42721" lon="1.11098">
        <ele>5.7</ele>
        <time>2021-05-02T07:25:04Z</time>
      </trkpt>
      <trkpt lat="49.42716" lon="1.11102">
        <ele>5.6</ele>
        <time>2021-05-02T07:25:06Z</time>
      </trkpt>
      <trkpt lat="49.42713" lon="1.11103">
        <ele>5.6</ele>
        <time>2021-05-02T07:25:07Z</time>
      </trkpt>
      <trkpt lat="49.42708" lon="1.11105">
        <ele>5.6</ele>
        <time>2021-05-02T07:25:09Z</time>
      </trkpt>
      <trkpt lat="49.42703" lon="1.11108">
        <ele>5.6</ele>
        <time>2021-05-02T07:25:10Z</time>
      </trkpt>
      <trkpt lat="49.427" lon="1.11109">
        <ele>5.5</ele>
        <time>2021-05-02T07:25:11Z</time>
      </trkpt>
      <trkpt lat="49.42693" lon="1.11113">
        <ele>5.5</ele>
        <time>2021-05-02T07:25:13Z</time>
      </trkpt>
      <trkpt lat="49.4269" lon="1.11115">
        <ele>5.5</ele>
        <time>2021-05-02T07:25:14Z</time>
      </trkpt>
      <trkpt lat="49.42687" lon="1.11117">
        <ele>5.5</ele>
        <time>2021-05-02T07:25:15Z</time>
      </trkpt>
      <trkpt lat="49.42683" lon="1.11118">
        <ele>5.5</ele>
        <time>2021-05-02T07:25:16Z</time>
      </trkpt>
      <trkpt lat="49.42679" lon="1.1112">
        <ele>5.5</ele>
        <time>2021-05-02T07:25:18Z</time>
      </trkpt>
      <trkpt lat="49.42675" lon="1.11123">
        <ele>5.5</ele>
        <time>2021-05-02T07:25:19Z</time>
      </trkpt>
      <trkpt lat="49.4267" lon="1.11125">
        <ele>5.5</ele>
        <time>2021-05-02T07:25:20Z</time>
      </trkpt>
      <trkpt lat="49.42667" lon="1.11127">
        <ele>5.5</ele>
        <time>2021-05-02T07:25:22Z</time>
      </trkpt>
      <trkpt lat="49.42663" lon="1.11129">
        <ele>5.5</ele>
        <time>2021-05-02T07:25:23Z</time>
      </trkpt>
      <trkpt lat="49.42657" lon="1.11133">
        <ele>5.5</ele>
        <time>2021-05-02T07:25:25Z</time>
      </trkpt>
      <trkpt lat="49.42654" lon="1.11134">
        <ele>5.5</ele>
        <time>2021-05-02T07:25:26Z</time>
      </trkpt>
      <trkpt lat="49.42648" lon="1.11137">
        <ele>5.5</ele>
        <time>2021-05-02T07:25:28Z</time>
      </trkpt>
      <trkpt lat="49.42644" lon="1.11138">
        <ele>5.5</ele>
        <time>2021-05-02T07:25:29Z</time>
      </trkpt>
      <trkpt lat="49.42638" lon="1.11141">
        <ele>5.5</ele>
        <time>2021-05-02T07:25:31Z</time>
      </trkpt>
      <trkpt lat="49.42634" lon="1.11144">
        <ele>5.4</ele>
        <time>2021-05-02T07:25:32Z</time>
      </trkpt>
      <trkpt lat="49.4263" lon="1.11146">
        <ele>5.4</ele>
        <time>2021-05-02T07:25:33Z</time>
      </trkpt>
      <trkpt lat="49.42627" lon="1.11147">
        <ele>5.4</ele>
        <time>2021-05-02T07:25:34Z</time>
      </trkpt>
      <trkpt lat="49.42624" lon="1.11149">
        <ele>5.4</ele>
        <time>2021-05-02T07:25:35Z</time>
      </trkpt>
      <trkpt lat="49.42623" lon="1.1115">
        <ele>5.4</ele>
        <time>2021-05-02T07:25:36Z</time>
      </trkpt>
      <trkpt lat="49.42619" lon="1.11153">
        <ele>5.4</ele>
        <time>2021-05-02T07:25:38Z</time>
      </trkpt>
      <trkpt lat="49.42615" lon="1.11156">
        <ele>5.4</ele>
        <time>2021-05-02T07:25:40Z</time>
      </trkpt>
      <trkpt lat="49.42611" lon="1.11158">
        <ele>5.4</ele>
        <time>2021-05-02T07:25:41Z</time>
      </trkpt>
      <trkpt lat="49.42609" lon="1.11159">
        <ele>5.4</ele>
        <time>2021-05-02T07:25:42Z</time>
      </trkpt>
      <trkpt lat="49.42607" lon="1.1116">
        <ele>5.4</ele>
        <time>2021-05-02T07:25:44Z</time>
      </trkpt>
      <trkpt lat="49.42603" lon="1.11163">
        <ele>5.4</ele>
        <time>2021-05-02T07:25:45Z</time>
      </trkpt>
      <trkpt lat="49.42598" lon="1.11165">
        <ele>5.4</ele>
        <time>2021-05-02T07:25:47Z</time>
      </trkpt>
      <trkpt lat="49.42593" lon="1.11168">
        <ele>5.4</ele>
        <time>2021-05-02T07:25:49Z</time>
      </trkpt>
      <trkpt lat="49.4259" lon="1.1117">
        <ele>5.4</ele>
        <time>2021-05-02T07:25:50Z</time>
      </trkpt>
      <trkpt lat="49.42586" lon="1.11172">
        <ele>5.4</ele>
        <time>2021-05-02T07:25:52Z</time>
      </trkpt>
      <trkpt lat="49.42582" lon="1.11174">
        <ele>5.4</ele>
        <time>2021-05-02T07:25:53Z</time>
      </trkpt>
      <trkpt lat="49.42578" lon="1.11176">
        <ele>5.4</ele>
        <time>2021-05-02T07:25:55Z</time>
      </trkpt>
      <trkpt lat="49.42574" lon="1.11178">
        <ele>5.4</ele>
        <time>2021-05-02T07:25:57Z</time>
      </trkpt>
      <trkpt lat="49.4257" lon="1.1118">
        <ele>5.4</ele>
        <time>2021-05-02T07:25:58Z</time>
      </trkpt>
      <trkpt lat="49.42567" lon="1.11182">
        <ele>5.4</ele>
        <time>2021-05-02T07:25:59Z</time>
      </trkpt>
      <trkpt lat="49.42562" lon="1.11185">
        <ele>5.4</ele>
        <time>2021-05-02T07:26:01Z</time>
      </trkpt>
      <trkpt lat="49.42559" lon="1.11186">
        <ele>5.4</ele>
        <time>2021-05-02T07:26:02Z</time>
      </trkpt>
      <trkpt lat="49.42554" lon="1.11188">
        <ele>5.4</ele>
        <time>2021-05-02T07:26:04Z</time>
      </trkpt>
      <trkpt lat="49.4255" lon="1.11189">
        <ele>5.4</ele>
        <time>2021-05-02T07:26:05Z</time>
      </trkpt>
      <trkpt lat="49.42545" lon="1.1119">
        <ele>5.4</ele>
        <time>2021-05-02T07:26:07Z</time>
      </trkpt>
      <trkpt lat="49.42542" lon="1.11191">
        <ele>5.4</ele>
        <time>2021-05-02T07:26:08Z</time>
      </trkpt>
      <trkpt lat="49.42538" lon="1.11193">
        <ele>5.4</ele>
        <time>2021-05-02T07:26:09Z</time>
      </trkpt>
      <trkpt lat="49.42535" lon="1.11194">
        <ele>5.4</ele>
        <time>2021-05-02T07:26:10Z</time>
      </trkpt>
      <trkpt lat="49.42531" lon="1.11196">
        <ele>5.5</ele>
        <time>2021-05-02T07:26:11Z</time>
      </trkpt>
      <trkpt lat="49.42527" lon="1.11198">
        <ele>5.5</ele>
        <time>2021-05-02T07:26:13Z</time>
      </trkpt>
      <trkpt lat="49.42524" lon="1.11199">
        <ele>5.5</ele>
        <time>2021-05-02T07:26:14Z</time>
      </trkpt>
      <trkpt lat="49.4252" lon="1.11201">
        <ele>5.6</ele>
        <time>2021-05-02T07:26:15Z</time>
      </trkpt>
      <trkpt lat="49.42516" lon="1.11202">
        <ele>5.6</ele>
        <time>2021-05-02T07:26:17Z</time>
      </trkpt>
      <trkpt lat="49.42512" lon="1.11204">
        <ele>5.6</ele>
        <time>2021-05-02T07:26:18Z</time>
      </trkpt>
      <trkpt lat="49.42509" lon="1.11205">
        <ele>5.6</ele>
        <time>2021-05-02T07:26:19Z</time>
      </trkpt>
      <trkpt lat="49.42503" lon="1.11208">
        <ele>5.6</ele>
        <time>2021-05-02T07:26:21Z</time>
      </trkpt>
      <trkpt lat="49.42498" lon="1.11207">
        <ele>5.7</ele>
        <time>2021-05-02T07:26:23Z</time>
      </trkpt>
      <trkpt lat="49.42492" lon="1.11211">
        <ele>5.7</ele>
        <time>2021-05-02T07:26:25Z</time>
      </trkpt>
      <trkpt lat="49.42489" lon="1.11214">
        <ele>5.7</ele>
        <time>2021-05-02T07:26:26Z</time>
      </trkpt>
      <trkpt lat="49.42484" lon="1.11217">
        <ele>5.7</ele>
        <time>2021-05-02T07:26:28Z</time>
      </trkpt>
      <trkpt lat="49.4248" lon="1.11219">
        <ele>5.7</ele>
        <time>2021-05-02T07:26:29Z</time>
      </trkpt>
      <trkpt lat="49.42477" lon="1.11221">
        <ele>5.7</ele>
        <time>2021-05-02T07:26:30Z</time>
      </trkpt>
      <trkpt lat="49.42472" lon="1.11223">
        <ele>5.7</ele>
        <time>2021-05-02T07:26:32Z</time>
      </trkpt>
      <trkpt lat="49.42469" lon="1.11224">
        <ele>5.7</ele>
        <time>2021-05-02T07:26:33Z</time>
      </trkpt>
      <trkpt lat="49.42465" lon="1.11227">
        <ele>5.7</ele>
        <time>2021-05-02T07:26:34Z</time>
      </trkpt>
      <trkpt lat="49.42459" lon="1.11232">
        <ele>5.7</ele>
        <time>2021-05-02T07:26:36Z</time>
      </trkpt>
      <trkpt lat="49.42455" lon="1.11233">
        <ele>5.6</ele>
        <time>2021-05-02T07:26:37Z</time>
      </trkpt>
      <trkpt lat="49.42452" lon="1.11235">
        <ele>5.6</ele>
        <time>2021-05-02T07:26:38Z</time>
      </trkpt>
      <trkpt lat="49.42447" lon="1.11237">
        <ele>5.6</ele>
        <time>2021-05-02T07:26:40Z</time>
      </trkpt>
      <trkpt lat="49.42442" lon="1.1124">
        <ele>5.7</ele>
        <time>2021-05-02T07:26:41Z</time>
      </trkpt>
      <trkpt lat="49.42436" lon="1.11243">
        <ele>5.7</ele>
        <time>2021-05-02T07:26:43Z</time>
      </trkpt>
      <trkpt lat="49.42433" lon="1.11245">
        <ele>5.7</ele>
        <time>2021-05-02T07:26:44Z</time>
      </trkpt>
      <trkpt lat="49.4243" lon="1.11246">
        <ele>5.7</ele>
        <time>2021-05-02T07:26:45Z</time>
      </trkpt>
      <trkpt lat="49.42425" lon="1.11251">
        <ele>5.7</ele>
        <time>2021-05-02T07:26:47Z</time>
      </trkpt>
      <trkpt lat="49.42421" lon="1.11251">
        <ele>5.7</ele>
        <time>2021-05-02T07:26:48Z</time>
      </trkpt>
      <trkpt lat="49.42416" lon="1.11254">
        <ele>5.7</ele>
        <time>2021-05-02T07:26:50Z</time>
      </trkpt>
      <trkpt lat="49.42412" lon="1.11256">
        <ele>5.7</ele>
        <time>2021-05-02T07:26:51Z</time>
      </trkpt>
      <trkpt lat="49.42408" lon="1.11259">
        <ele>5.8</ele>
        <time>2021-05-02T07:26:52Z</time>
      </trkpt>
      <trkpt lat="49.42405" lon="1.11262">
        <ele>5.8</ele>
        <time>2021-05-02T07:26:53Z</time>
      </trkpt>
      <trkpt lat="49.42401" lon="1.11263">
        <ele>5.8</ele>
        <time>2021-05-02T07:26:54Z</time>
      </trkpt>
      <trkpt lat="49.42398" lon="1.11265">
        <ele>5.8</ele>
        <time>2021-05-02T07:26:55Z</time>
      </trkpt>
      <trkpt lat="49.42397" lon="1.11266">
        <ele>5.8</ele>
        <time>2021-05-02T07:26:56Z</time>
      </trkpt>
      <trkpt lat="49.42393" lon="1.11269">
        <ele>5.8</ele>
        <time>2021-05-02T07:26:57Z</time>
      </trkpt>
      <trkpt lat="49.4239" lon="1.11272">
        <ele>5.7</ele>
        <time>2021-05-02T07:26:59Z</time>
      </trkpt>
      <trkpt lat="49.42386" lon="1.11275">
        <ele>5.7</ele>
        <time>2021-05-02T07:27:00Z</time>
      </trkpt>
      <trkpt lat="49.42383" lon="1.11277">
        <ele>5.7</ele>
        <time>2021-05-02T07:27:01Z</time>
      </trkpt>
      <trkpt lat="49.4238" lon="1.1128">
        <ele>5.7</ele>
        <time>2021-05-02T07:27:02Z</time>
      </trkpt>
      <trkpt lat="49.42379" lon="1.11281">
        <ele>5.7</ele>
        <time>2021-05-02T07:27:03Z</time>
      </trkpt>
      <trkpt lat="49.42376" lon="1.11285">
        <ele>5.7</ele>
        <time>2021-05-02T07:27:05Z</time>
      </trkpt>
      <trkpt lat="49.42375" lon="1.11286">
        <ele>5.7</ele>
        <time>2021-05-02T07:27:06Z</time>
      </trkpt>
      <trkpt lat="49.42372" lon="1.11289">
        <ele>5.7</ele>
        <time>2021-05-02T07:27:07Z</time>
      </trkpt>
      <trkpt lat="49.4237" lon="1.11292">
        <ele>5.7</ele>
        <time>2021-05-02T07:27:08Z</time>
      </trkpt>
      <trkpt lat="49.42367" lon="1.11294">
        <ele>5.7</ele>
        <time>2021-05-02T07:27:09Z</time>
      </trkpt>
      <trkpt lat="49.42361" lon="1.11298">
        <ele>5.7</ele>
        <time>2021-05-02T07:27:11Z</time>
      </trkpt>
      <trkpt lat="49.42356" lon="1.11303">
        <ele>5.7</ele>
        <time>2021-05-02T07:27:13Z</time>
      </trkpt>
      <trkpt lat="49.42351" lon="1.11307">
        <ele>5.7</ele>
        <time>2021-05-02T07:27:14Z</time>
      </trkpt>
      <trkpt lat="49.42347" lon="1.11309">
        <ele>5.7</ele>
        <time>2021-05-02T07:27:15Z</time>
      </trkpt>
      <trkpt lat="49.42342" lon="1.11313">
        <ele>5.7</ele>
        <time>2021-05-02T07:27:17Z</time>
      </trkpt>
      <trkpt lat="49.42339" lon="1.11318">
        <ele>5.7</ele>
        <time>2021-05-02T07:27:18Z</time>
      </trkpt>
      <trkpt lat="49.42333" lon="1.11321">
        <ele>5.7</ele>
        <time>2021-05-02T07:27:20Z</time>
      </trkpt>
      <trkpt lat="49.42329" lon="1.11323">
        <ele>5.7</ele>
        <time>2021-05-02T07:27:21Z</time>
      </trkpt>
      <trkpt lat="49.42326" lon="1.11325">
        <ele>5.7</ele>
        <time>2021-05-02T07:27:22Z</time>
      </trkpt>
      <trkpt lat="49.42323" lon="1.11328">
        <ele>5.7</ele>
        <time>2021-05-02T07:27:23Z</time>
      </trkpt>
      <trkpt lat="49.42317" lon="1.11331">
        <ele>5.7</ele>
        <time>2021-05-02T07:27:25Z</time>
      </trkpt>
      <trkpt lat="49.42314" lon="1.11333">
        <ele>5.7</ele>
        <time>2021-05-02T07:27:26Z</time>
      </trkpt>
      <trkpt lat="49.42309" lon="1.11337">
        <ele>5.7</ele>
        <time>2021-05-02T07:27:28Z</time>
      </trkpt>
      <trkpt lat="49.42305" lon="1.1134">
        <ele>5.7</ele>
        <time>2021-05-02T07:27:30Z</time>
      </trkpt>
      <trkpt lat="49.42301" lon="1.11344">
        <ele>5.7</ele>
        <time>2021-05-02T07:27:31Z</time>
      </trkpt>
      <trkpt lat="49.42297" lon="1.11347">
        <ele>5.7</ele>
        <time>2021-05-02T07:27:32Z</time>
      </trkpt>
      <trkpt lat="49.42293" lon="1.11351">
        <ele>5.7</ele>
        <time>2021-05-02T07:27:34Z</time>
      </trkpt>
      <trkpt lat="49.42289" lon="1.11354">
        <ele>5.6</ele>
        <time>2021-05-02T07:27:35Z</time>
      </trkpt>
      <trkpt lat="49.42285" lon="1.11356">
        <ele>5.6</ele>
        <time>2021-05-02T07:27:36Z</time>
      </trkpt>
      <trkpt lat="49.42281" lon="1.1136">
        <ele>5.6</ele>
        <time>2021-05-02T07:27:38Z</time>
      </trkpt>
      <trkpt lat="49.42277" lon="1.11363">
        <ele>5.6</ele>
        <time>2021-05-02T07:27:39Z</time>
      </trkpt>
      <trkpt lat="49.42274" lon="1.11365">
        <ele>5.6</ele>
        <time>2021-05-02T07:27:40Z</time>
      </trkpt>
      <trkpt lat="49.4227" lon="1.11369">
        <ele>5.5</ele>
        <time>2021-05-02T07:27:42Z</time>
      </trkpt>
      <trkpt lat="49.42271" lon="1.11371">
        <ele>5.7</ele>
        <time>2021-05-02T07:27:43Z</time>
      </trkpt>
      <trkpt lat="49.42271" lon="1.11372">
        <ele>5.7</ele>
        <time>2021-05-02T07:27:44Z</time>
      </trkpt>
      <trkpt lat="49.42272" lon="1.11374">
        <ele>5.7</ele>
        <time>2021-05-02T07:27:45Z</time>
      </trkpt>
      <trkpt lat="49.42272" lon="1.11375">
        <ele>5.7</ele>
        <time>2021-05-02T07:27:47Z</time>
      </trkpt>
      <trkpt lat="49.42273" lon="1.11376">
        <ele>5.7</ele>
        <time>2021-05-02T07:27:48Z</time>
      </trkpt>
      <trkpt lat="49.42275" lon="1.11381">
        <ele>5.8</ele>
        <time>2021-05-02T07:27:49Z</time>
      </trkpt>
      <trkpt lat="49.42278" lon="1.11387">
        <ele>5.9</ele>
        <time>2021-05-02T07:27:50Z</time>
      </trkpt>
      <trkpt lat="49.42281" lon="1.11394">
        <ele>6.1</ele>
        <time>2021-05-02T07:27:52Z</time>
      </trkpt>
      <trkpt lat="49.42284" lon="1.11399">
        <ele>6.3</ele>
        <time>2021-05-02T07:27:53Z</time>
      </trkpt>
      <trkpt lat="49.42285" lon="1.11404">
        <ele>6.4</ele>
        <time>2021-05-02T07:27:54Z</time>
      </trkpt>
      <trkpt lat="49.42286" lon="1.1141">
        <ele>6.5</ele>
        <time>2021-05-02T07:27:55Z</time>
      </trkpt>
      <trkpt lat="49.42287" lon="1.11416">
        <ele>6.6</ele>
        <time>2021-05-02T07:27:56Z</time>
      </trkpt>
      <trkpt lat="49.42288" lon="1.11421">
        <ele>6.7</ele>
        <time>2021-05-02T07:27:58Z</time>
      </trkpt>
      <trkpt lat="49.42289" lon="1.11427">
        <ele>6.8</ele>
        <time>2021-05-02T07:27:59Z</time>
      </trkpt>
      <trkpt lat="49.42291" lon="1.11433">
        <ele>7</ele>
        <time>2021-05-02T07:28:00Z</time>
      </trkpt>
      <trkpt lat="49.42293" lon="1.1144">
        <ele>7.1</ele>
        <time>2021-05-02T07:28:01Z</time>
      </trkpt>
      <trkpt lat="49.42295" lon="1.11444">
        <ele>7.2</ele>
        <time>2021-05-02T07:28:03Z</time>
      </trkpt>
      <trkpt lat="49.42296" lon="1.11449">
        <ele>7.3</ele>
        <time>2021-05-02T07:28:04Z</time>
      </trkpt>
      <trkpt lat="49.42298" lon="1.11452">
        <ele>7.4</ele>
        <time>2021-05-02T07:28:05Z</time>
      </trkpt>
      <trkpt lat="49.423" lon="1.11455">
        <ele>7.6</ele>
        <time>2021-05-02T07:28:06Z</time>
      </trkpt>
      <trkpt lat="49.42302" lon="1.11459">
        <ele>7.7</ele>
        <time>2021-05-02T07:28:07Z</time>
      </trkpt>
      <trkpt lat="49.42304" lon="1.11463">
        <ele>7.8</ele>
        <time>2021-05-02T07:28:08Z</time>
      </trkpt>
      <trkpt lat="49.42305" lon="1.11465">
        <ele>7.9</ele>
        <time>2021-05-02T07:28:09Z</time>
      </trkpt>
      <trkpt lat="49.42304" lon="1.11466">
        <ele>7.9</ele>
        <time>2021-05-02T07:28:10Z</time>
      </trkpt>
      <trkpt lat="49.42305" lon="1.11468">
        <ele>8</ele>
        <time>2021-05-02T07:28:11Z</time>
      </trkpt>
      <trkpt lat="49.42306" lon="1.11472">
        <ele>8.1</ele>
        <time>2021-05-02T07:28:12Z</time>
      </trkpt>
      <trkpt lat="49.42307" lon="1.11474">
        <ele>8.2</ele>
        <time>2021-05-02T07:28:13Z</time>
      </trkpt>
      <trkpt lat="49.42308" lon="1.11476">
        <ele>8.3</ele>
        <time>2021-05-02T07:28:14Z</time>
      </trkpt>
      <trkpt lat="49.42309" lon="1.11479">
        <ele>8.4</ele>
        <time>2021-05-02T07:28:16Z</time>
      </trkpt>
      <trkpt lat="49.42312" lon="1.11481">
        <ele>8.5</ele>
        <time>2021-05-02T07:28:17Z</time>
      </trkpt>
      <trkpt lat="49.42313" lon="1.11482">
        <ele>8.6</ele>
        <time>2021-05-02T07:28:18Z</time>
      </trkpt>
      <trkpt lat="49.42316" lon="1.11486">
        <ele>8.8</ele>
        <time>2021-05-02T07:28:20Z</time>
      </trkpt>
      <trkpt lat="49.42316" lon="1.11488">
        <ele>8.9</ele>
        <time>2021-05-02T07:28:21Z</time>
      </trkpt>
      <trkpt lat="49.42316" lon="1.1149">
        <ele>8.9</ele>
        <time>2021-05-02T07:28:22Z</time>
      </trkpt>
      <trkpt lat="49.42316" lon="1.11495">
        <ele>8.9</ele>
        <time>2021-05-02T07:28:23Z</time>
      </trkpt>
      <trkpt lat="49.42316" lon="1.11496">
        <ele>8.9</ele>
        <time>2021-05-02T07:28:24Z</time>
      </trkpt>
      <trkpt lat="49.42314" lon="1.115">
        <ele>8.9</ele>
        <time>2021-05-02T07:28:25Z</time>
      </trkpt>
      <trkpt lat="49.42313" lon="1.11504">
        <ele>8.9</ele>
        <time>2021-05-02T07:28:26Z</time>
      </trkpt>
      <trkpt lat="49.42309" lon="1.1151">
        <ele>9</ele>
        <time>2021-05-02T07:28:28Z</time>
      </trkpt>
      <trkpt lat="49.42306" lon="1.11514">
        <ele>9</ele>
        <time>2021-05-02T07:28:29Z</time>
      </trkpt>
      <trkpt lat="49.42302" lon="1.11516">
        <ele>9.1</ele>
        <time>2021-05-02T07:28:30Z</time>
      </trkpt>
      <trkpt lat="49.42297" lon="1.11519">
        <ele>9.1</ele>
        <time>2021-05-02T07:28:32Z</time>
      </trkpt>
      <trkpt lat="49.42293" lon="1.11521">
        <ele>9.1</ele>
        <time>2021-05-02T07:28:33Z</time>
      </trkpt>
      <trkpt lat="49.4229" lon="1.11522">
        <ele>9.2</ele>
        <time>2021-05-02T07:28:34Z</time>
      </trkpt>
      <trkpt lat="49.42286" lon="1.11524">
        <ele>9.2</ele>
        <time>2021-05-02T07:28:35Z</time>
      </trkpt>
      <trkpt lat="49.42282" lon="1.11525">
        <ele>9.2</ele>
        <time>2021-05-02T07:28:36Z</time>
      </trkpt>
      <trkpt lat="49.42278" lon="1.11526">
        <ele>9.2</ele>
        <time>2021-05-02T07:28:37Z</time>
      </trkpt>
      <trkpt lat="49.42275" lon="1.11527">
        <ele>9.2</ele>
        <time>2021-05-02T07:28:38Z</time>
      </trkpt>
      <trkpt lat="49.42271" lon="1.11528">
        <ele>9.2</ele>
        <time>2021-05-02T07:28:39Z</time>
      </trkpt>
      <trkpt lat="49.42268" lon="1.11529">
        <ele>9.2</ele>
        <time>2021-05-02T07:28:40Z</time>
      </trkpt>
      <trkpt lat="49.42265" lon="1.11531">
        <ele>9.3</ele>
        <time>2021-05-02T07:28:41Z</time>
      </trkpt>
      <trkpt lat="49.4226" lon="1.11533">
        <ele>9.3</ele>
        <time>2021-05-02T07:28:43Z</time>
      </trkpt>
      <trkpt lat="49.42255" lon="1.11536">
        <ele>9.3</ele>
        <time>2021-05-02T07:28:45Z</time>
      </trkpt>
      <trkpt lat="49.42252" lon="1.11537">
        <ele>9.3</ele>
        <time>2021-05-02T07:28:46Z</time>
      </trkpt>
      <trkpt lat="49.42249" lon="1.11539">
        <ele>9.3</ele>
        <time>2021-05-02T07:28:47Z</time>
      </trkpt>
      <trkpt lat="49.42246" lon="1.11541">
        <ele>9.3</ele>
        <time>2021-05-02T07:28:48Z</time>
      </trkpt>
      <trkpt lat="49.42243" lon="1.11542">
        <ele>9.3</ele>
        <time>2021-05-02T07:28:49Z</time>
      </trkpt>
      <trkpt lat="49.4224" lon="1.11544">
        <ele>9.3</ele>
        <time>2021-05-02T07:28:50Z</time>
      </trkpt>
      <trkpt lat="49.42237" lon="1.11546">
        <ele>9.4</ele>
        <time>2021-05-02T07:28:51Z</time>
      </trkpt>
      <trkpt lat="49.42234" lon="1.11549">
        <ele>9.4</ele>
        <time>2021-05-02T07:28:52Z</time>
      </trkpt>
      <trkpt lat="49.4223" lon="1.11552">
        <ele>9.4</ele>
        <time>2021-05-02T07:28:54Z</time>
      </trkpt>
      <trkpt lat="49.42227" lon="1.11554">
        <ele>9.4</ele>
        <time>2021-05-02T07:28:55Z</time>
      </trkpt>
      <trkpt lat="49.42224" lon="1.11556">
        <ele>9.5</ele>
        <time>2021-05-02T07:28:56Z</time>
      </trkpt>
      <trkpt lat="49.42221" lon="1.11559">
        <ele>9.5</ele>
        <time>2021-05-02T07:28:57Z</time>
      </trkpt>
      <trkpt lat="49.42218" lon="1.11561">
        <ele>9.5</ele>
        <time>2021-05-02T07:28:58Z</time>
      </trkpt>
      <trkpt lat="49.42214" lon="1.11564">
        <ele>9.5</ele>
        <time>2021-05-02T07:29:00Z</time>
      </trkpt>
      <trkpt lat="49.42211" lon="1.11566">
        <ele>9.6</ele>
        <time>2021-05-02T07:29:01Z</time>
      </trkpt>
      <trkpt lat="49.42208" lon="1.11567">
        <ele>9.6</ele>
        <time>2021-05-02T07:29:02Z</time>
      </trkpt>
      <trkpt lat="49.42205" lon="1.11569">
        <ele>9.6</ele>
        <time>2021-05-02T07:29:03Z</time>
      </trkpt>
      <trkpt lat="49.42203" lon="1.1157">
        <ele>9.7</ele>
        <time>2021-05-02T07:29:04Z</time>
      </trkpt>
      <trkpt lat="49.42197" lon="1.11573">
        <ele>9.8</ele>
        <time>2021-05-02T07:29:06Z</time>
      </trkpt>
      <trkpt lat="49.42193" lon="1.11575">
        <ele>9.8</ele>
        <time>2021-05-02T07:29:07Z</time>
      </trkpt>
      <trkpt lat="49.4219" lon="1.11577">
        <ele>9.9</ele>
        <time>2021-05-02T07:29:08Z</time>
      </trkpt>
      <trkpt lat="49.42188" lon="1.11579">
        <ele>9.9</ele>
        <time>2021-05-02T07:29:10Z</time>
      </trkpt>
      <trkpt lat="49.42185" lon="1.11581">
        <ele>10.6</ele>
        <time>2021-05-02T07:29:11Z</time>
      </trkpt>
      <trkpt lat="49.42183" lon="1.11584">
        <ele>10.6</ele>
        <time>2021-05-02T07:29:12Z</time>
      </trkpt>
      <trkpt lat="49.42181" lon="1.11588">
        <ele>10.8</ele>
        <time>2021-05-02T07:29:13Z</time>
      </trkpt>
      <trkpt lat="49.42179" lon="1.11593">
        <ele>11</ele>
        <time>2021-05-02T07:29:14Z</time>
      </trkpt>
      <trkpt lat="49.42178" lon="1.11595">
        <ele>11.1</ele>
        <time>2021-05-02T07:29:15Z</time>
      </trkpt>
      <trkpt lat="49.42175" lon="1.11598">
        <ele>11.3</ele>
        <time>2021-05-02T07:29:17Z</time>
      </trkpt>
      <trkpt lat="49.42174" lon="1.11599">
        <ele>11.4</ele>
        <time>2021-05-02T07:29:18Z</time>
      </trkpt>
      <trkpt lat="49.42171" lon="1.11601">
        <ele>11.7</ele>
        <time>2021-05-02T07:29:19Z</time>
      </trkpt>
      <trkpt lat="49.4217" lon="1.11602">
        <ele>11.7</ele>
        <time>2021-05-02T07:29:20Z</time>
      </trkpt>
      <trkpt lat="49.42166" lon="1.11605">
        <ele>12</ele>
        <time>2021-05-02T07:29:21Z</time>
      </trkpt>
      <trkpt lat="49.42164" lon="1.11606">
        <ele>12.2</ele>
        <time>2021-05-02T07:29:22Z</time>
      </trkpt>
      <trkpt lat="49.42161" lon="1.11608">
        <ele>12.4</ele>
        <time>2021-05-02T07:29:23Z</time>
      </trkpt>
      <trkpt lat="49.4216" lon="1.11609">
        <ele>12.6</ele>
        <time>2021-05-02T07:29:24Z</time>
      </trkpt>
      <trkpt lat="49.42156" lon="1.11612">
        <ele>12.9</ele>
        <time>2021-05-02T07:29:26Z</time>
      </trkpt>
      <trkpt lat="49.42153" lon="1.11614">
        <ele>13.2</ele>
        <time>2021-05-02T07:29:27Z</time>
      </trkpt>
      <trkpt lat="49.4215" lon="1.11616">
        <ele>13.5</ele>
        <time>2021-05-02T07:29:28Z</time>
      </trkpt>
      <trkpt lat="49.42148" lon="1.11617">
        <ele>13.8</ele>
        <time>2021-05-02T07:29:29Z</time>
      </trkpt>
      <trkpt lat="49.42146" lon="1.1162">
        <ele>14.3</ele>
        <time>2021-05-02T07:29:31Z</time>
      </trkpt>
      <trkpt lat="49.42147" lon="1.11621">
        <ele>14.5</ele>
        <time>2021-05-02T07:29:33Z</time>
      </trkpt>
      <trkpt lat="49.42148" lon="1.11622">
        <ele>14.6</ele>
        <time>2021-05-02T07:29:34Z</time>
      </trkpt>
      <trkpt lat="49.42148" lon="1.11621">
        <ele>14.7</ele>
        <time>2021-05-02T07:29:35Z</time>
      </trkpt>
      <trkpt lat="49.42148" lon="1.11619">
        <ele>14.9</ele>
        <time>2021-05-02T07:29:37Z</time>
      </trkpt>
      <trkpt lat="49.42147" lon="1.11619">
        <ele>15.1</ele>
        <time>2021-05-02T07:29:39Z</time>
      </trkpt>
      <trkpt lat="49.42146" lon="1.1162">
        <ele>15.3</ele>
        <time>2021-05-02T07:29:40Z</time>
      </trkpt>
      <trkpt lat="49.42145" lon="1.11622">
        <ele>15.6</ele>
        <time>2021-05-02T07:29:41Z</time>
      </trkpt>
      <trkpt lat="49.42144" lon="1.11625">
        <ele>15.9</ele>
        <time>2021-05-02T07:29:43Z</time>
      </trkpt>
      <trkpt lat="49.42144" lon="1.11629">
        <ele>16.3</ele>
        <time>2021-05-02T07:29:44Z</time>
      </trkpt>
      <trkpt lat="49.42144" lon="1.11634">
        <ele>16.8</ele>
        <time>2021-05-02T07:29:46Z</time>
      </trkpt>
      <trkpt lat="49.42144" lon="1.11638">
        <ele>17.3</ele>
        <time>2021-05-02T07:29:47Z</time>
      </trkpt>
      <trkpt lat="49.42145" lon="1.11642">
        <ele>17.7</ele>
        <time>2021-05-02T07:29:48Z</time>
      </trkpt>
      <trkpt lat="49.42146" lon="1.11649">
        <ele>18.4</ele>
        <time>2021-05-02T07:29:50Z</time>
      </trkpt>
      <trkpt lat="49.42148" lon="1.11654">
        <ele>19</ele>
        <time>2021-05-02T07:29:51Z</time>
      </trkpt>
      <trkpt lat="49.42149" lon="1.11659">
        <ele>19.7</ele>
        <time>2021-05-02T07:29:53Z</time>
      </trkpt>
      <trkpt lat="49.4215" lon="1.11665">
        <ele>20.3</ele>
        <time>2021-05-02T07:29:54Z</time>
      </trkpt>
      <trkpt lat="49.42151" lon="1.11671">
        <ele>20.9</ele>
        <time>2021-05-02T07:29:55Z</time>
      </trkpt>
      <trkpt lat="49.42152" lon="1.11676">
        <ele>21.5</ele>
        <time>2021-05-02T07:29:56Z</time>
      </trkpt>
      <trkpt lat="49.42153" lon="1.11681">
        <ele>22.1</ele>
        <time>2021-05-02T07:29:57Z</time>
      </trkpt>
      <trkpt lat="49.42154" lon="1.11685">
        <ele>22.7</ele>
        <time>2021-05-02T07:29:59Z</time>
      </trkpt>
      <trkpt lat="49.42155" lon="1.11692">
        <ele>23.5</ele>
        <time>2021-05-02T07:30:00Z</time>
      </trkpt>
      <trkpt lat="49.42155" lon="1.11696">
        <ele>24</ele>
        <time>2021-05-02T07:30:01Z</time>
      </trkpt>
      <trkpt lat="49.42156" lon="1.11704">
        <ele>25</ele>
        <time>2021-05-02T07:30:03Z</time>
      </trkpt>
      <trkpt lat="49.42156" lon="1.11707">
        <ele>25.3</ele>
        <time>2021-05-02T07:30:04Z</time>
      </trkpt>
      <trkpt lat="49.42156" lon="1.11709">
        <ele>25.5</ele>
        <time>2021-05-02T07:30:05Z</time>
      </trkpt>
      <trkpt lat="49.42157" lon="1.11712">
        <ele>25.9</ele>
        <time>2021-05-02T07:30:06Z</time>
      </trkpt>
      <trkpt lat="49.42159" lon="1.11716">
        <ele>26.3</ele>
        <time>2021-05-02T07:30:08Z</time>
      </trkpt>
      <trkpt lat="49.42161" lon="1.11714">
        <ele>26.7</ele>
        <time>2021-05-02T07:30:09Z</time>
      </trkpt>
      <trkpt lat="49.42163" lon="1.11713">
        <ele>27</ele>
        <time>2021-05-02T07:30:11Z</time>
      </trkpt>
      <trkpt lat="49.42165" lon="1.11714">
        <ele>27.3</ele>
        <time>2021-05-02T07:30:12Z</time>
      </trkpt>
      <trkpt lat="49.42168" lon="1.11712">
        <ele>27.6</ele>
        <time>2021-05-02T07:30:14Z</time>
      </trkpt>
      <trkpt lat="49.4217" lon="1.11711">
        <ele>27.8</ele>
        <time>2021-05-02T07:30:15Z</time>
      </trkpt>
      <trkpt lat="49.42172" lon="1.1171">
        <ele>28</ele>
        <time>2021-05-02T07:30:17Z</time>
      </trkpt>
      <trkpt lat="49.42175" lon="1.11708">
        <ele>28.3</ele>
        <time>2021-05-02T07:30:18Z</time>
      </trkpt>
      <trkpt lat="49.42179" lon="1.11705">
        <ele>28.6</ele>
        <time>2021-05-02T07:30:20Z</time>
      </trkpt>
      <trkpt lat="49.4218" lon="1.11704">
        <ele>28.7</ele>
        <time>2021-05-02T07:30:21Z</time>
      </trkpt>
      <trkpt lat="49.42181" lon="1.11703">
        <ele>28.8</ele>
        <time>2021-05-02T07:30:22Z</time>
      </trkpt>
      <trkpt lat="49.42184" lon="1.11702">
        <ele>29</ele>
        <time>2021-05-02T07:30:23Z</time>
      </trkpt>
      <trkpt lat="49.42185" lon="1.11701">
        <ele>29.1</ele>
        <time>2021-05-02T07:30:24Z</time>
      </trkpt>
      <trkpt lat="49.42189" lon="1.11699">
        <ele>29.5</ele>
        <time>2021-05-02T07:30:26Z</time>
      </trkpt>
      <trkpt lat="49.42194" lon="1.11698">
        <ele>29.8</ele>
        <time>2021-05-02T07:30:27Z</time>
      </trkpt>
      <trkpt lat="49.42198" lon="1.11697">
        <ele>30.1</ele>
        <time>2021-05-02T07:30:28Z</time>
      </trkpt>
      <trkpt lat="49.42203" lon="1.11696">
        <ele>30.4</ele>
        <time>2021-05-02T07:30:30Z</time>
      </trkpt>
      <trkpt lat="49.42206" lon="1.11694">
        <ele>30.7</ele>
        <time>2021-05-02T07:30:31Z</time>
      </trkpt>
      <trkpt lat="49.42209" lon="1.11692">
        <ele>31</ele>
        <time>2021-05-02T07:30:32Z</time>
      </trkpt>
      <trkpt lat="49.42212" lon="1.11691">
        <ele>31.2</ele>
        <time>2021-05-02T07:30:33Z</time>
      </trkpt>
      <trkpt lat="49.42216" lon="1.11688">
        <ele>31.3</ele>
        <time>2021-05-02T07:30:35Z</time>
      </trkpt>
      <trkpt lat="49.42219" lon="1.11687">
        <ele>31.8</ele>
        <time>2021-05-02T07:30:36Z</time>
      </trkpt>
      <trkpt lat="49.42222" lon="1.11687">
        <ele>32.2</ele>
        <time>2021-05-02T07:30:37Z</time>
      </trkpt>
      <trkpt lat="49.42226" lon="1.11687">
        <ele>32.9</ele>
        <time>2021-05-02T07:30:39Z</time>
      </trkpt>
      <trkpt lat="49.42229" lon="1.11688">
        <ele>33.4</ele>
        <time>2021-05-02T07:30:40Z</time>
      </trkpt>
      <trkpt lat="49.42231" lon="1.11689">
        <ele>33.8</ele>
        <time>2021-05-02T07:30:41Z</time>
      </trkpt>
      <trkpt lat="49.42234" lon="1.11694">
        <ele>34.6</ele>
        <time>2021-05-02T07:30:43Z</time>
      </trkpt>
      <trkpt lat="49.42234" lon="1.11701">
        <ele>35.5</ele>
        <time>2021-05-02T07:30:45Z</time>
      </trkpt>
      <trkpt lat="49.42233" lon="1.11703">
        <ele>35.8</ele>
        <time>2021-05-02T07:30:46Z</time>
      </trkpt>
      <trkpt lat="49.42233" lon="1.11705">
        <ele>36.1</ele>
        <time>2021-05-02T07:30:47Z</time>
      </trkpt>
      <trkpt lat="49.42231" lon="1.11707">
        <ele>36.4</ele>
        <time>2021-05-02T07:30:48Z</time>
      </trkpt>
      <trkpt lat="49.4223" lon="1.11711">
        <ele>37</ele>
        <time>2021-05-02T07:30:50Z</time>
      </trkpt>
      <trkpt lat="49.42228" lon="1.11715">
        <ele>37.5</ele>
        <time>2021-05-02T07:30:51Z</time>
      </trkpt>
      <trkpt lat="49.42227" lon="1.11716">
        <ele>37.7</ele>
        <time>2021-05-02T07:30:52Z</time>
      </trkpt>
      <trkpt lat="49.42225" lon="1.11719">
        <ele>38.2</ele>
        <time>2021-05-02T07:30:54Z</time>
      </trkpt>
      <trkpt lat="49.42224" lon="1.1172">
        <ele>38.4</ele>
        <time>2021-05-02T07:30:55Z</time>
      </trkpt>
      <trkpt lat="49.42223" lon="1.11722">
        <ele>38.6</ele>
        <time>2021-05-02T07:30:56Z</time>
      </trkpt>
      <trkpt lat="49.42222" lon="1.11724">
        <ele>38.9</ele>
        <time>2021-05-02T07:30:57Z</time>
      </trkpt>
      <trkpt lat="49.42219" lon="1.11728">
        <ele>39.5</ele>
        <time>2021-05-02T07:30:59Z</time>
      </trkpt>
      <trkpt lat="49.42218" lon="1.11729">
        <ele>39.7</ele>
        <time>2021-05-02T07:31:00Z</time>
      </trkpt>
      <trkpt lat="49.42215" lon="1.11732">
        <ele>40.3</ele>
        <time>2021-05-02T07:31:02Z</time>
      </trkpt>
      <trkpt lat="49.42214" lon="1.11733">
        <ele>40.4</ele>
        <time>2021-05-02T07:31:03Z</time>
      </trkpt>
      <trkpt lat="49.42211" lon="1.11736">
        <ele>40.9</ele>
        <time>2021-05-02T07:31:05Z</time>
      </trkpt>
      <trkpt lat="49.4221" lon="1.11737">
        <ele>41.1</ele>
        <time>2021-05-02T07:31:06Z</time>
      </trkpt>
      <trkpt lat="49.42207" lon="1.1174">
        <ele>41.6</ele>
        <time>2021-05-02T07:31:08Z</time>
      </trkpt>
      <trkpt lat="49.42206" lon="1.11741">
        <ele>41.8</ele>
        <time>2021-05-02T07:31:09Z</time>
      </trkpt>
      <trkpt lat="49.42204" lon="1.11742">
        <ele>42.1</ele>
        <time>2021-05-02T07:31:10Z</time>
      </trkpt>
      <trkpt lat="49.42203" lon="1.11744">
        <ele>42.3</ele>
        <time>2021-05-02T07:31:11Z</time>
      </trkpt>
      <trkpt lat="49.422" lon="1.11746">
        <ele>42.6</ele>
        <time>2021-05-02T07:31:13Z</time>
      </trkpt>
      <trkpt lat="49.42198" lon="1.11748">
        <ele>43.1</ele>
        <time>2021-05-02T07:31:14Z</time>
      </trkpt>
      <trkpt lat="49.42196" lon="1.11748">
        <ele>43.2</ele>
        <time>2021-05-02T07:31:15Z</time>
      </trkpt>
      <trkpt lat="49.42194" lon="1.1175">
        <ele>43.5</ele>
        <time>2021-05-02T07:31:16Z</time>
      </trkpt>
      <trkpt lat="49.42193" lon="1.11751">
        <ele>43.6</ele>
        <time>2021-05-02T07:31:17Z</time>
      </trkpt>
      <trkpt lat="49.4219" lon="1.11753">
        <ele>44</ele>
        <time>2021-05-02T07:31:18Z</time>
      </trkpt>
      <trkpt lat="49.42189" lon="1.11755">
        <ele>44.2</ele>
        <time>2021-05-02T07:31:19Z</time>
      </trkpt>
      <trkpt lat="49.42186" lon="1.11758">
        <ele>44.6</ele>
        <time>2021-05-02T07:31:21Z</time>
      </trkpt>
      <trkpt lat="49.42183" lon="1.11761">
        <ele>45</ele>
        <time>2021-05-02T07:31:23Z</time>
      </trkpt>
      <trkpt lat="49.4218" lon="1.11764">
        <ele>45.4</ele>
        <time>2021-05-02T07:31:25Z</time>
      </trkpt>
      <trkpt lat="49.42179" lon="1.11766">
        <ele>45.5</ele>
        <time>2021-05-02T07:31:26Z</time>
      </trkpt>
      <trkpt lat="49.42177" lon="1.11767">
        <ele>45.7</ele>
        <time>2021-05-02T07:31:27Z</time>
      </trkpt>
      <trkpt lat="49.42175" lon="1.1177">
        <ele>46</ele>
        <time>2021-05-02T07:31:29Z</time>
      </trkpt>
      <trkpt lat="49.42174" lon="1.11772">
        <ele>46.2</ele>
        <time>2021-05-02T07:31:30Z</time>
      </trkpt>
      <trkpt lat="49.42171" lon="1.11774">
        <ele>46.5</ele>
        <time>2021-05-02T07:31:32Z</time>
      </trkpt>
      <trkpt lat="49.42169" lon="1.11776">
        <ele>46.7</ele>
        <time>2021-05-02T07:31:33Z</time>
      </trkpt>
      <trkpt lat="49.42166" lon="1.11779">
        <ele>47.2</ele>
        <time>2021-05-02T07:31:35Z</time>
      </trkpt>
      <trkpt lat="49.42162" lon="1.11781">
        <ele>47.6</ele>
        <time>2021-05-02T07:31:36Z</time>
      </trkpt>
      <trkpt lat="49.42161" lon="1.11782">
        <ele>47.8</ele>
        <time>2021-05-02T07:31:37Z</time>
      </trkpt>
      <trkpt lat="49.42156" lon="1.11786">
        <ele>48.5</ele>
        <time>2021-05-02T07:31:39Z</time>
      </trkpt>
      <trkpt lat="49.42154" lon="1.11787">
        <ele>48.8</ele>
        <time>2021-05-02T07:31:40Z</time>
      </trkpt>
      <trkpt lat="49.42153" lon="1.11788">
        <ele>49</ele>
        <time>2021-05-02T07:31:41Z</time>
      </trkpt>
      <trkpt lat="49.42149" lon="1.11792">
        <ele>49.6</ele>
        <time>2021-05-02T07:31:43Z</time>
      </trkpt>
      <trkpt lat="49.42148" lon="1.11793">
        <ele>49.8</ele>
        <time>2021-05-02T07:31:44Z</time>
      </trkpt>
      <trkpt lat="49.42146" lon="1.11794">
        <ele>49.9</ele>
        <time>2021-05-02T07:31:45Z</time>
      </trkpt>
      <trkpt lat="49.42144" lon="1.11797">
        <ele>50.2</ele>
        <time>2021-05-02T07:31:46Z</time>
      </trkpt>
      <trkpt lat="49.42143" lon="1.11797">
        <ele>50.3</ele>
        <time>2021-05-02T07:31:47Z</time>
      </trkpt>
      <trkpt lat="49.42141" lon="1.11798">
        <ele>50.4</ele>
        <time>2021-05-02T07:31:48Z</time>
      </trkpt>
      <trkpt lat="49.42139" lon="1.11797">
        <ele>50.6</ele>
        <time>2021-05-02T07:31:50Z</time>
      </trkpt>
      <trkpt lat="49.42136" lon="1.11796">
        <ele>50.7</ele>
        <time>2021-05-02T07:31:52Z</time>
      </trkpt>
      <trkpt lat="49.42135" lon="1.11795">
        <ele>50.7</ele>
        <time>2021-05-02T07:31:53Z</time>
      </trkpt>
      <trkpt lat="49.42132" lon="1.11795">
        <ele>50.8</ele>
        <time>2021-05-02T07:31:54Z</time>
      </trkpt>
      <trkpt lat="49.4213" lon="1.11795">
        <ele>50.9</ele>
        <time>2021-05-02T07:31:56Z</time>
      </trkpt>
      <trkpt lat="49.42129" lon="1.11795">
        <ele>50.9</ele>
        <time>2021-05-02T07:31:57Z</time>
      </trkpt>
      <trkpt lat="49.42127" lon="1.11795">
        <ele>50.9</ele>
        <time>2021-05-02T07:31:58Z</time>
      </trkpt>
      <trkpt lat="49.42124" lon="1.11796">
        <ele>51</ele>
        <time>2021-05-02T07:32:00Z</time>
      </trkpt>
      <trkpt lat="49.42122" lon="1.11797">
        <ele>51.1</ele>
        <time>2021-05-02T07:32:01Z</time>
      </trkpt>
      <trkpt lat="49.42119" lon="1.11799">
        <ele>51.1</ele>
        <time>2021-05-02T07:32:03Z</time>
      </trkpt>
      <trkpt lat="49.42117" lon="1.118">
        <ele>51.2</ele>
        <time>2021-05-02T07:32:04Z</time>
      </trkpt>
      <trkpt lat="49.42114" lon="1.11802">
        <ele>51.3</ele>
        <time>2021-05-02T07:32:05Z</time>
      </trkpt>
      <trkpt lat="49.4211" lon="1.11805">
        <ele>51.5</ele>
        <time>2021-05-02T07:32:07Z</time>
      </trkpt>
      <trkpt lat="49.42106" lon="1.11807">
        <ele>51.6</ele>
        <time>2021-05-02T07:32:08Z</time>
      </trkpt>
      <trkpt lat="49.42105" lon="1.11807">
        <ele>51.7</ele>
        <time>2021-05-02T07:32:09Z</time>
      </trkpt>
      <trkpt lat="49.42102" lon="1.11808">
        <ele>51.8</ele>
        <time>2021-05-02T07:32:10Z</time>
      </trkpt>
      <trkpt lat="49.421" lon="1.11809">
        <ele>52</ele>
        <time>2021-05-02T07:32:12Z</time>
      </trkpt>
      <trkpt lat="49.42097" lon="1.11811">
        <ele>52.2</ele>
        <time>2021-05-02T07:32:13Z</time>
      </trkpt>
      <trkpt lat="49.42095" lon="1.11812">
        <ele>52.3</ele>
        <time>2021-05-02T07:32:14Z</time>
      </trkpt>
      <trkpt lat="49.42093" lon="1.11813">
        <ele>52.5</ele>
        <time>2021-05-02T07:32:15Z</time>
      </trkpt>
      <trkpt lat="49.42088" lon="1.11816">
        <ele>52.8</ele>
        <time>2021-05-02T07:32:17Z</time>
      </trkpt>
      <trkpt lat="49.42085" lon="1.11817">
        <ele>53.1</ele>
        <time>2021-05-02T07:32:18Z</time>
      </trkpt>
      <trkpt lat="49.4208" lon="1.11819">
        <ele>53.4</ele>
        <time>2021-05-02T07:32:20Z</time>
      </trkpt>
      <trkpt lat="49.42076" lon="1.11821">
        <ele>53.8</ele>
        <time>2021-05-02T07:32:21Z</time>
      </trkpt>
      <trkpt lat="49.42073" lon="1.11823">
        <ele>54</ele>
        <time>2021-05-02T07:32:22Z</time>
      </trkpt>
      <trkpt lat="49.4207" lon="1.11824">
        <ele>54.3</ele>
        <time>2021-05-02T07:32:24Z</time>
      </trkpt>
      <trkpt lat="49.42067" lon="1.11827">
        <ele>54.5</ele>
        <time>2021-05-02T07:32:25Z</time>
      </trkpt>
      <trkpt lat="49.42065" lon="1.11828">
        <ele>54.8</ele>
        <time>2021-05-02T07:32:26Z</time>
      </trkpt>
      <trkpt lat="49.42063" lon="1.1183">
        <ele>55</ele>
        <time>2021-05-02T07:32:27Z</time>
      </trkpt>
      <trkpt lat="49.4206" lon="1.11832">
        <ele>55.2</ele>
        <time>2021-05-02T07:32:29Z</time>
      </trkpt>
      <trkpt lat="49.42057" lon="1.11833">
        <ele>55.5</ele>
        <time>2021-05-02T07:32:31Z</time>
      </trkpt>
      <trkpt lat="49.42054" lon="1.11835">
        <ele>55.7</ele>
        <time>2021-05-02T07:32:32Z</time>
      </trkpt>
      <trkpt lat="49.42048" lon="1.11838">
        <ele>56.2</ele>
        <time>2021-05-02T07:32:35Z</time>
      </trkpt>
      <trkpt lat="49.42045" lon="1.11841">
        <ele>56.5</ele>
        <time>2021-05-02T07:32:36Z</time>
      </trkpt>
      <trkpt lat="49.42043" lon="1.11843">
        <ele>56.7</ele>
        <time>2021-05-02T07:32:37Z</time>
      </trkpt>
      <trkpt lat="49.4204" lon="1.11845">
        <ele>57</ele>
        <time>2021-05-02T07:32:38Z</time>
      </trkpt>
      <trkpt lat="49.42037" lon="1.11847">
        <ele>57.2</ele>
        <time>2021-05-02T07:32:40Z</time>
      </trkpt>
      <trkpt lat="49.42033" lon="1.1185">
        <ele>57.5</ele>
        <time>2021-05-02T07:32:41Z</time>
      </trkpt>
      <trkpt lat="49.42031" lon="1.11851">
        <ele>57.7</ele>
        <time>2021-05-02T07:32:42Z</time>
      </trkpt>
      <trkpt lat="49.42028" lon="1.11853">
        <ele>57.8</ele>
        <time>2021-05-02T07:32:43Z</time>
      </trkpt>
      <trkpt lat="49.42023" lon="1.11857">
        <ele>58.2</ele>
        <time>2021-05-02T07:32:45Z</time>
      </trkpt>
      <trkpt lat="49.42017" lon="1.1186">
        <ele>58.6</ele>
        <time>2021-05-02T07:32:46Z</time>
      </trkpt>
      <trkpt lat="49.42013" lon="1.11863">
        <ele>58.9</ele>
        <time>2021-05-02T07:32:48Z</time>
      </trkpt>
      <trkpt lat="49.4201" lon="1.11865">
        <ele>59.1</ele>
        <time>2021-05-02T07:32:49Z</time>
      </trkpt>
      <trkpt lat="49.42007" lon="1.11869">
        <ele>59.3</ele>
        <time>2021-05-02T07:32:50Z</time>
      </trkpt>
      <trkpt lat="49.42002" lon="1.11872">
        <ele>59.7</ele>
        <time>2021-05-02T07:32:51Z</time>
      </trkpt>
      <trkpt lat="49.41998" lon="1.11876">
        <ele>59.9</ele>
        <time>2021-05-02T07:32:53Z</time>
      </trkpt>
      <trkpt lat="49.41994" lon="1.11879">
        <ele>60.2</ele>
        <time>2021-05-02T07:32:54Z</time>
      </trkpt>
      <trkpt lat="49.4199" lon="1.11882">
        <ele>60.4</ele>
        <time>2021-05-02T07:32:55Z</time>
      </trkpt>
      <trkpt lat="49.41986" lon="1.11887">
        <ele>60.8</ele>
        <time>2021-05-02T07:32:57Z</time>
      </trkpt>
      <trkpt lat="49.41983" lon="1.11892">
        <ele>61</ele>
        <time>2021-05-02T07:32:59Z</time>
      </trkpt>
      <trkpt lat="49.4198" lon="1.11895">
        <ele>61.2</ele>
        <time>2021-05-02T07:33:00Z</time>
      </trkpt>
      <trkpt lat="49.41978" lon="1.11898">
        <ele>61.4</ele>
        <time>2021-05-02T07:33:01Z</time>
      </trkpt>
      <trkpt lat="49.41976" lon="1.11901">
        <ele>61.6</ele>
        <time>2021-05-02T07:33:02Z</time>
      </trkpt>
      <trkpt lat="49.41973" lon="1.11906">
        <ele>61.8</ele>
        <time>2021-05-02T07:33:04Z</time>
      </trkpt>
      <trkpt lat="49.41972" lon="1.1191">
        <ele>62</ele>
        <time>2021-05-02T07:33:05Z</time>
      </trkpt>
      <trkpt lat="49.41972" lon="1.11915">
        <ele>62.2</ele>
        <time>2021-05-02T07:33:07Z</time>
      </trkpt>
      <trkpt lat="49.41971" lon="1.11919">
        <ele>62.4</ele>
        <time>2021-05-02T07:33:08Z</time>
      </trkpt>
      <trkpt lat="49.4197" lon="1.11923">
        <ele>62.6</ele>
        <time>2021-05-02T07:33:09Z</time>
      </trkpt>
      <trkpt lat="49.4197" lon="1.11928">
        <ele>62.8</ele>
        <time>2021-05-02T07:33:11Z</time>
      </trkpt>
      <trkpt lat="49.41969" lon="1.11932">
        <ele>63</ele>
        <time>2021-05-02T07:33:12Z</time>
      </trkpt>
      <trkpt lat="49.41968" lon="1.11936">
        <ele>63.2</ele>
        <time>2021-05-02T07:33:13Z</time>
      </trkpt>
      <trkpt lat="49.41968" lon="1.11942">
        <ele>63.5</ele>
        <time>2021-05-02T07:33:15Z</time>
      </trkpt>
      <trkpt lat="49.41967" lon="1.11946">
        <ele>63.7</ele>
        <time>2021-05-02T07:33:16Z</time>
      </trkpt>
      <trkpt lat="49.41966" lon="1.11951">
        <ele>64</ele>
        <time>2021-05-02T07:33:18Z</time>
      </trkpt>
      <trkpt lat="49.41965" lon="1.11955">
        <ele>64.1</ele>
        <time>2021-05-02T07:33:19Z</time>
      </trkpt>
      <trkpt lat="49.41964" lon="1.11961">
        <ele>64.4</ele>
        <time>2021-05-02T07:33:20Z</time>
      </trkpt>
      <trkpt lat="49.41964" lon="1.11964">
        <ele>64.6</ele>
        <time>2021-05-02T07:33:21Z</time>
      </trkpt>
      <trkpt lat="49.41963" lon="1.11971">
        <ele>64.9</ele>
        <time>2021-05-02T07:33:23Z</time>
      </trkpt>
      <trkpt lat="49.41962" lon="1.11976">
        <ele>65.1</ele>
        <time>2021-05-02T07:33:24Z</time>
      </trkpt>
      <trkpt lat="49.41961" lon="1.11983">
        <ele>65.4</ele>
        <time>2021-05-02T07:33:26Z</time>
      </trkpt>
      <trkpt lat="49.4196" lon="1.11991">
        <ele>65.9</ele>
        <time>2021-05-02T07:33:28Z</time>
      </trkpt>
      <trkpt lat="49.41958" lon="1.11997">
        <ele>66.1</ele>
        <time>2021-05-02T07:33:29Z</time>
      </trkpt>
      <trkpt lat="49.41956" lon="1.12003">
        <ele>66.5</ele>
        <time>2021-05-02T07:33:31Z</time>
      </trkpt>
      <trkpt lat="49.41954" lon="1.12009">
        <ele>66.8</ele>
        <time>2021-05-02T07:33:33Z</time>
      </trkpt>
      <trkpt lat="49.41953" lon="1.12014">
        <ele>67.1</ele>
        <time>2021-05-02T07:33:34Z</time>
      </trkpt>
      <trkpt lat="49.41951" lon="1.1202">
        <ele>67.4</ele>
        <time>2021-05-02T07:33:36Z</time>
      </trkpt>
      <trkpt lat="49.4195" lon="1.12026">
        <ele>67.7</ele>
        <time>2021-05-02T07:33:38Z</time>
      </trkpt>
      <trkpt lat="49.41949" lon="1.1203">
        <ele>67.9</ele>
        <time>2021-05-02T07:33:39Z</time>
      </trkpt>
      <trkpt lat="49.41948" lon="1.12035">
        <ele>68.2</ele>
        <time>2021-05-02T07:33:40Z</time>
      </trkpt>
      <trkpt lat="49.41947" lon="1.1204">
        <ele>68.4</ele>
        <time>2021-05-02T07:33:41Z</time>
      </trkpt>
      <trkpt lat="49.41945" lon="1.12044">
        <ele>68.7</ele>
        <time>2021-05-02T07:33:42Z</time>
      </trkpt>
      <trkpt lat="49.41943" lon="1.12047">
        <ele>68.9</ele>
        <time>2021-05-02T07:33:44Z</time>
      </trkpt>
      <trkpt lat="49.41941" lon="1.12051">
        <ele>69.1</ele>
        <time>2021-05-02T07:33:45Z</time>
      </trkpt>
      <trkpt lat="49.41938" lon="1.12054">
        <ele>69.4</ele>
        <time>2021-05-02T07:33:47Z</time>
      </trkpt>
      <trkpt lat="49.41935" lon="1.12056">
        <ele>69.7</ele>
        <time>2021-05-02T07:33:48Z</time>
      </trkpt>
      <trkpt lat="49.41933" lon="1.12058">
        <ele>69.9</ele>
        <time>2021-05-02T07:33:49Z</time>
      </trkpt>
      <trkpt lat="49.41931" lon="1.1206">
        <ele>70.1</ele>
        <time>2021-05-02T07:33:51Z</time>
      </trkpt>
      <trkpt lat="49.41927" lon="1.12062">
        <ele>70.3</ele>
        <time>2021-05-02T07:33:53Z</time>
      </trkpt>
      <trkpt lat="49.41925" lon="1.12063">
        <ele>70.5</ele>
        <time>2021-05-02T07:33:54Z</time>
      </trkpt>
      <trkpt lat="49.41922" lon="1.12063">
        <ele>70.8</ele>
        <time>2021-05-02T07:33:56Z</time>
      </trkpt>
      <trkpt lat="49.41919" lon="1.12063">
        <ele>71</ele>
        <time>2021-05-02T07:33:57Z</time>
      </trkpt>
      <trkpt lat="49.41918" lon="1.12064">
        <ele>71.1</ele>
        <time>2021-05-02T07:33:58Z</time>
      </trkpt>
      <trkpt lat="49.41916" lon="1.12064">
        <ele>71.2</ele>
        <time>2021-05-02T07:33:59Z</time>
      </trkpt>
      <trkpt lat="49.41913" lon="1.12065">
        <ele>71.5</ele>
        <time>2021-05-02T07:34:01Z</time>
      </trkpt>
      <trkpt lat="49.41909" lon="1.12065">
        <ele>71.8</ele>
        <time>2021-05-02T07:34:02Z</time>
      </trkpt>
      <trkpt lat="49.41904" lon="1.12063">
        <ele>72.2</ele>
        <time>2021-05-02T07:34:04Z</time>
      </trkpt>
      <trkpt lat="49.41902" lon="1.12062">
        <ele>72.5</ele>
        <time>2021-05-02T07:34:05Z</time>
      </trkpt>
      <trkpt lat="49.41899" lon="1.12061">
        <ele>72.7</ele>
        <time>2021-05-02T07:34:06Z</time>
      </trkpt>
      <trkpt lat="49.41896" lon="1.12059">
        <ele>73</ele>
        <time>2021-05-02T07:34:07Z</time>
      </trkpt>
      <trkpt lat="49.41893" lon="1.12057">
        <ele>73.2</ele>
        <time>2021-05-02T07:34:09Z</time>
      </trkpt>
      <trkpt lat="49.4189" lon="1.12055">
        <ele>73.5</ele>
        <time>2021-05-02T07:34:10Z</time>
      </trkpt>
      <trkpt lat="49.41886" lon="1.1205">
        <ele>73.9</ele>
        <time>2021-05-02T07:34:12Z</time>
      </trkpt>
      <trkpt lat="49.41884" lon="1.12048">
        <ele>74.1</ele>
        <time>2021-05-02T07:34:13Z</time>
      </trkpt>
      <trkpt lat="49.41879" lon="1.12044">
        <ele>74.5</ele>
        <time>2021-05-02T07:34:15Z</time>
      </trkpt>
      <trkpt lat="49.41876" lon="1.12039">
        <ele>74.8</ele>
        <time>2021-05-02T07:34:17Z</time>
      </trkpt>
      <trkpt lat="49.41872" lon="1.12036">
        <ele>75.1</ele>
        <time>2021-05-02T07:34:19Z</time>
      </trkpt>
      <trkpt lat="49.41869" lon="1.12032">
        <ele>75.4</ele>
        <time>2021-05-02T07:34:20Z</time>
      </trkpt>
      <trkpt lat="49.41868" lon="1.12031">
        <ele>75.5</ele>
        <time>2021-05-02T07:34:21Z</time>
      </trkpt>
      <trkpt lat="49.41866" lon="1.12027">
        <ele>75.8</ele>
        <time>2021-05-02T07:34:23Z</time>
      </trkpt>
      <trkpt lat="49.41865" lon="1.12026">
        <ele>75.8</ele>
        <time>2021-05-02T07:34:24Z</time>
      </trkpt>
      <trkpt lat="49.41863" lon="1.12024">
        <ele>76.1</ele>
        <time>2021-05-02T07:34:25Z</time>
      </trkpt>
      <trkpt lat="49.41859" lon="1.1202">
        <ele>76.4</ele>
        <time>2021-05-02T07:34:27Z</time>
      </trkpt>
      <trkpt lat="49.41857" lon="1.12017">
        <ele>76.6</ele>
        <time>2021-05-02T07:34:28Z</time>
      </trkpt>
      <trkpt lat="49.41855" lon="1.12014">
        <ele>76.8</ele>
        <time>2021-05-02T07:34:29Z</time>
      </trkpt>
      <trkpt lat="49.41851" lon="1.1201">
        <ele>77.2</ele>
        <time>2021-05-02T07:34:31Z</time>
      </trkpt>
      <trkpt lat="49.41847" lon="1.12007">
        <ele>77.5</ele>
        <time>2021-05-02T07:34:33Z</time>
      </trkpt>
      <trkpt lat="49.41844" lon="1.12006">
        <ele>77.8</ele>
        <time>2021-05-02T07:34:34Z</time>
      </trkpt>
      <trkpt lat="49.4184" lon="1.12006">
        <ele>78</ele>
        <time>2021-05-02T07:34:35Z</time>
      </trkpt>
      <trkpt lat="49.41836" lon="1.12007">
        <ele>78.3</ele>
        <time>2021-05-02T07:34:37Z</time>
      </trkpt>
      <trkpt lat="49.41835" lon="1.12007">
        <ele>78.4</ele>
        <time>2021-05-02T07:34:38Z</time>
      </trkpt>
      <trkpt lat="49.41831" lon="1.12008">
        <ele>78.6</ele>
        <time>2021-05-02T07:34:39Z</time>
      </trkpt>
      <trkpt lat="49.4183" lon="1.12009">
        <ele>78.7</ele>
        <time>2021-05-02T07:34:40Z</time>
      </trkpt>
      <trkpt lat="49.41826" lon="1.1201">
        <ele>78.9</ele>
        <time>2021-05-02T07:34:42Z</time>
      </trkpt>
      <trkpt lat="49.41822" lon="1.12012">
        <ele>79.2</ele>
        <time>2021-05-02T07:34:43Z</time>
      </trkpt>
      <trkpt lat="49.41819" lon="1.12014">
        <ele>79.4</ele>
        <time>2021-05-02T07:34:45Z</time>
      </trkpt>
      <trkpt lat="49.41815" lon="1.12016">
        <ele>79.6</ele>
        <time>2021-05-02T07:34:46Z</time>
      </trkpt>
      <trkpt lat="49.41814" lon="1.12017">
        <ele>79.7</ele>
        <time>2021-05-02T07:34:47Z</time>
      </trkpt>
      <trkpt lat="49.4181" lon="1.12019">
        <ele>79.9</ele>
        <time>2021-05-02T07:34:49Z</time>
      </trkpt>
      <trkpt lat="49.41809" lon="1.1202">
        <ele>80</ele>
        <time>2021-05-02T07:34:50Z</time>
      </trkpt>
      <trkpt lat="49.41806" lon="1.12022">
        <ele>80.2</ele>
        <time>2021-05-02T07:34:52Z</time>
      </trkpt>
      <trkpt lat="49.41803" lon="1.12024">
        <ele>80.4</ele>
        <time>2021-05-02T07:34:53Z</time>
      </trkpt>
      <trkpt lat="49.41799" lon="1.12027">
        <ele>80.7</ele>
        <time>2021-05-02T07:34:55Z</time>
      </trkpt>
      <trkpt lat="49.41798" lon="1.12028">
        <ele>80.8</ele>
        <time>2021-05-02T07:34:56Z</time>
      </trkpt>
      <trkpt lat="49.41797" lon="1.12028">
        <ele>80.9</ele>
        <time>2021-05-02T07:34:57Z</time>
      </trkpt>
      <trkpt lat="49.41794" lon="1.1203">
        <ele>81.1</ele>
        <time>2021-05-02T07:34:58Z</time>
      </trkpt>
      <trkpt lat="49.41791" lon="1.12032">
        <ele>81.4</ele>
        <time>2021-05-02T07:35:00Z</time>
      </trkpt>
      <trkpt lat="49.41788" lon="1.12034">
        <ele>81.6</ele>
        <time>2021-05-02T07:35:01Z</time>
      </trkpt>
      <trkpt lat="49.41784" lon="1.12036">
        <ele>82</ele>
        <time>2021-05-02T07:35:03Z</time>
      </trkpt>
      <trkpt lat="49.41779" lon="1.12038">
        <ele>82.3</ele>
        <time>2021-05-02T07:35:05Z</time>
      </trkpt>
      <trkpt lat="49.41777" lon="1.1204">
        <ele>82.5</ele>
        <time>2021-05-02T07:35:06Z</time>
      </trkpt>
      <trkpt lat="49.41774" lon="1.12041">
        <ele>82.6</ele>
        <time>2021-05-02T07:35:07Z</time>
      </trkpt>
      <trkpt lat="49.4177" lon="1.12044">
        <ele>82.9</ele>
        <time>2021-05-02T07:35:09Z</time>
      </trkpt>
      <trkpt lat="49.41767" lon="1.12046">
        <ele>83.2</ele>
        <time>2021-05-02T07:35:10Z</time>
      </trkpt>
      <trkpt lat="49.41766" lon="1.12047">
        <ele>83.2</ele>
        <time>2021-05-02T07:35:11Z</time>
      </trkpt>
      <trkpt lat="49.41764" lon="1.12048">
        <ele>83.4</ele>
        <time>2021-05-02T07:35:12Z</time>
      </trkpt>
      <trkpt lat="49.4176" lon="1.12051">
        <ele>83.6</ele>
        <time>2021-05-02T07:35:14Z</time>
      </trkpt>
      <trkpt lat="49.41757" lon="1.12053">
        <ele>83.9</ele>
        <time>2021-05-02T07:35:16Z</time>
      </trkpt>
      <trkpt lat="49.41755" lon="1.12055">
        <ele>84.1</ele>
        <time>2021-05-02T07:35:17Z</time>
      </trkpt>
      <trkpt lat="49.41751" lon="1.12058">
        <ele>84.4</ele>
        <time>2021-05-02T07:35:19Z</time>
      </trkpt>
      <trkpt lat="49.41748" lon="1.12061">
        <ele>84.7</ele>
        <time>2021-05-02T07:35:20Z</time>
      </trkpt>
      <trkpt lat="49.41747" lon="1.12062">
        <ele>84.8</ele>
        <time>2021-05-02T07:35:21Z</time>
      </trkpt>
      <trkpt lat="49.41744" lon="1.12064">
        <ele>85.1</ele>
        <time>2021-05-02T07:35:23Z</time>
      </trkpt>
      <trkpt lat="49.4174" lon="1.12066">
        <ele>85.4</ele>
        <time>2021-05-02T07:35:24Z</time>
      </trkpt>
      <trkpt lat="49.41739" lon="1.12066">
        <ele>85.5</ele>
        <time>2021-05-02T07:35:25Z</time>
      </trkpt>
      <trkpt lat="49.41736" lon="1.12069">
        <ele>85.9</ele>
        <time>2021-05-02T07:35:26Z</time>
      </trkpt>
      <trkpt lat="49.41735" lon="1.1207">
        <ele>86</ele>
        <time>2021-05-02T07:35:27Z</time>
      </trkpt>
      <trkpt lat="49.41732" lon="1.12074">
        <ele>86.3</ele>
        <time>2021-05-02T07:35:29Z</time>
      </trkpt>
      <trkpt lat="49.41728" lon="1.12076">
        <ele>86.7</ele>
        <time>2021-05-02T07:35:30Z</time>
      </trkpt>
      <trkpt lat="49.41725" lon="1.12079">
        <ele>87</ele>
        <time>2021-05-02T07:35:32Z</time>
      </trkpt>
      <trkpt lat="49.41722" lon="1.12081">
        <ele>87.2</ele>
        <time>2021-05-02T07:35:33Z</time>
      </trkpt>
      <trkpt lat="49.41719" lon="1.12084">
        <ele>87.4</ele>
        <time>2021-05-02T07:35:35Z</time>
      </trkpt>
      <trkpt lat="49.41716" lon="1.12086">
        <ele>87.6</ele>
        <time>2021-05-02T07:35:36Z</time>
      </trkpt>
      <trkpt lat="49.41711" lon="1.12088">
        <ele>87.9</ele>
        <time>2021-05-02T07:35:38Z</time>
      </trkpt>
      <trkpt lat="49.41707" lon="1.12092">
        <ele>88.1</ele>
        <time>2021-05-02T07:35:39Z</time>
      </trkpt>
      <trkpt lat="49.41704" lon="1.12095">
        <ele>88.3</ele>
        <time>2021-05-02T07:35:40Z</time>
      </trkpt>
      <trkpt lat="49.41701" lon="1.12097">
        <ele>88.5</ele>
        <time>2021-05-02T07:35:41Z</time>
      </trkpt>
      <trkpt lat="49.41698" lon="1.12101">
        <ele>88.7</ele>
        <time>2021-05-02T07:35:43Z</time>
      </trkpt>
      <trkpt lat="49.41695" lon="1.12104">
        <ele>88.9</ele>
        <time>2021-05-02T07:35:45Z</time>
      </trkpt>
      <trkpt lat="49.41693" lon="1.12107">
        <ele>89.1</ele>
        <time>2021-05-02T07:35:46Z</time>
      </trkpt>
      <trkpt lat="49.41691" lon="1.1211">
        <ele>89.2</ele>
        <time>2021-05-02T07:35:47Z</time>
      </trkpt>
      <trkpt lat="49.41689" lon="1.12113">
        <ele>89.4</ele>
        <time>2021-05-02T07:35:48Z</time>
      </trkpt>
      <trkpt lat="49.41687" lon="1.12116">
        <ele>89.7</ele>
        <time>2021-05-02T07:35:49Z</time>
      </trkpt>
      <trkpt lat="49.41685" lon="1.12119">
        <ele>89.9</ele>
        <time>2021-05-02T07:35:51Z</time>
      </trkpt>
      <trkpt lat="49.41683" lon="1.12122">
        <ele>90.1</ele>
        <time>2021-05-02T07:35:52Z</time>
      </trkpt>
      <trkpt lat="49.4168" lon="1.12127">
        <ele>90.4</ele>
        <time>2021-05-02T07:35:54Z</time>
      </trkpt>
      <trkpt lat="49.41678" lon="1.12131">
        <ele>90.7</ele>
        <time>2021-05-02T07:35:55Z</time>
      </trkpt>
      <trkpt lat="49.41675" lon="1.12135">
        <ele>91</ele>
        <time>2021-05-02T07:35:57Z</time>
      </trkpt>
      <trkpt lat="49.41673" lon="1.1214">
        <ele>91.3</ele>
        <time>2021-05-02T07:35:58Z</time>
      </trkpt>
      <trkpt lat="49.4167" lon="1.12144">
        <ele>91.6</ele>
        <time>2021-05-02T07:36:00Z</time>
      </trkpt>
      <trkpt lat="49.41668" lon="1.12148">
        <ele>91.8</ele>
        <time>2021-05-02T07:36:01Z</time>
      </trkpt>
      <trkpt lat="49.41667" lon="1.12152">
        <ele>92</ele>
        <time>2021-05-02T07:36:02Z</time>
      </trkpt>
      <trkpt lat="49.41665" lon="1.12155">
        <ele>92.3</ele>
        <time>2021-05-02T07:36:03Z</time>
      </trkpt>
      <trkpt lat="49.41661" lon="1.1216">
        <ele>92.6</ele>
        <time>2021-05-02T07:36:05Z</time>
      </trkpt>
      <trkpt lat="49.41659" lon="1.12164">
        <ele>92.8</ele>
        <time>2021-05-02T07:36:06Z</time>
      </trkpt>
      <trkpt lat="49.41657" lon="1.12168">
        <ele>93</ele>
        <time>2021-05-02T07:36:08Z</time>
      </trkpt>
      <trkpt lat="49.41655" lon="1.12172">
        <ele>93.3</ele>
        <time>2021-05-02T07:36:09Z</time>
      </trkpt>
      <trkpt lat="49.41652" lon="1.12177">
        <ele>93.5</ele>
        <time>2021-05-02T07:36:11Z</time>
      </trkpt>
      <trkpt lat="49.4165" lon="1.1218">
        <ele>93.7</ele>
        <time>2021-05-02T07:36:12Z</time>
      </trkpt>
      <trkpt lat="49.41649" lon="1.12185">
        <ele>94</ele>
        <time>2021-05-02T07:36:13Z</time>
      </trkpt>
      <trkpt lat="49.41646" lon="1.1219">
        <ele>94.3</ele>
        <time>2021-05-02T07:36:15Z</time>
      </trkpt>
      <trkpt lat="49.41643" lon="1.12194">
        <ele>94.6</ele>
        <time>2021-05-02T07:36:16Z</time>
      </trkpt>
      <trkpt lat="49.41642" lon="1.12196">
        <ele>94.7</ele>
        <time>2021-05-02T07:36:17Z</time>
      </trkpt>
      <trkpt lat="49.4164" lon="1.122">
        <ele>95</ele>
        <time>2021-05-02T07:36:19Z</time>
      </trkpt>
      <trkpt lat="49.41637" lon="1.12205">
        <ele>95.3</ele>
        <time>2021-05-02T07:36:20Z</time>
      </trkpt>
      <trkpt lat="49.41637" lon="1.12207">
        <ele>95.4</ele>
        <time>2021-05-02T07:36:21Z</time>
      </trkpt>
      <trkpt lat="49.41635" lon="1.12211">
        <ele>95.7</ele>
        <time>2021-05-02T07:36:22Z</time>
      </trkpt>
      <trkpt lat="49.41634" lon="1.12215">
        <ele>95.9</ele>
        <time>2021-05-02T07:36:24Z</time>
      </trkpt>
      <trkpt lat="49.41634" lon="1.1222">
        <ele>96.2</ele>
        <time>2021-05-02T07:36:25Z</time>
      </trkpt>
      <trkpt lat="49.41633" lon="1.12228">
        <ele>96.6</ele>
        <time>2021-05-02T07:36:27Z</time>
      </trkpt>
      <trkpt lat="49.41633" lon="1.12232">
        <ele>96.9</ele>
        <time>2021-05-02T07:36:28Z</time>
      </trkpt>
      <trkpt lat="49.41632" lon="1.12238">
        <ele>97.2</ele>
        <time>2021-05-02T07:36:30Z</time>
      </trkpt>
      <trkpt lat="49.41631" lon="1.1224">
        <ele>97.3</ele>
        <time>2021-05-02T07:36:31Z</time>
      </trkpt>
      <trkpt lat="49.41631" lon="1.12245">
        <ele>97.6</ele>
        <time>2021-05-02T07:36:32Z</time>
      </trkpt>
      <trkpt lat="49.41631" lon="1.12247">
        <ele>97.7</ele>
        <time>2021-05-02T07:36:33Z</time>
      </trkpt>
      <trkpt lat="49.41631" lon="1.1225">
        <ele>97.9</ele>
        <time>2021-05-02T07:36:34Z</time>
      </trkpt>
      <trkpt lat="49.4163" lon="1.12255">
        <ele>98.2</ele>
        <time>2021-05-02T07:36:36Z</time>
      </trkpt>
      <trkpt lat="49.4163" lon="1.1226">
        <ele>98.5</ele>
        <time>2021-05-02T07:36:37Z</time>
      </trkpt>
      <trkpt lat="49.4163" lon="1.12262">
        <ele>98.6</ele>
        <time>2021-05-02T07:36:38Z</time>
      </trkpt>
      <trkpt lat="49.41628" lon="1.12267">
        <ele>98.9</ele>
        <time>2021-05-02T07:36:40Z</time>
      </trkpt>
      <trkpt lat="49.41628" lon="1.12273">
        <ele>99.2</ele>
        <time>2021-05-02T07:36:41Z</time>
      </trkpt>
      <trkpt lat="49.41627" lon="1.12277">
        <ele>99.5</ele>
        <time>2021-05-02T07:36:43Z</time>
      </trkpt>
      <trkpt lat="49.41627" lon="1.12282">
        <ele>99.7</ele>
        <time>2021-05-02T07:36:44Z</time>
      </trkpt>
      <trkpt lat="49.41626" lon="1.12286">
        <ele>99.9</ele>
        <time>2021-05-02T07:36:45Z</time>
      </trkpt>
      <trkpt lat="49.41626" lon="1.12293">
        <ele>100.3</ele>
        <time>2021-05-02T07:36:47Z</time>
      </trkpt>
      <trkpt lat="49.41626" lon="1.12298">
        <ele>100.5</ele>
        <time>2021-05-02T07:36:49Z</time>
      </trkpt>
      <trkpt lat="49.41626" lon="1.12303">
        <ele>100.8</ele>
        <time>2021-05-02T07:36:50Z</time>
      </trkpt>
      <trkpt lat="49.41625" lon="1.1231">
        <ele>101.2</ele>
        <time>2021-05-02T07:36:52Z</time>
      </trkpt>
      <trkpt lat="49.41625" lon="1.12318">
        <ele>101.6</ele>
        <time>2021-05-02T07:36:54Z</time>
      </trkpt>
      <trkpt lat="49.41625" lon="1.12326">
        <ele>101.9</ele>
        <time>2021-05-02T07:36:56Z</time>
      </trkpt>
      <trkpt lat="49.41625" lon="1.1233">
        <ele>102.1</ele>
        <time>2021-05-02T07:36:57Z</time>
      </trkpt>
      <trkpt lat="49.41625" lon="1.12335">
        <ele>102.4</ele>
        <time>2021-05-02T07:36:58Z</time>
      </trkpt>
      <trkpt lat="49.41626" lon="1.12342">
        <ele>102.9</ele>
        <time>2021-05-02T07:37:00Z</time>
      </trkpt>
      <trkpt lat="49.41626" lon="1.12345">
        <ele>103</ele>
        <time>2021-05-02T07:37:01Z</time>
      </trkpt>
      <trkpt lat="49.41626" lon="1.12348">
        <ele>103.2</ele>
        <time>2021-05-02T07:37:02Z</time>
      </trkpt>
      <trkpt lat="49.41626" lon="1.12352">
        <ele>103.4</ele>
        <time>2021-05-02T07:37:03Z</time>
      </trkpt>
      <trkpt lat="49.41626" lon="1.12356">
        <ele>103.6</ele>
        <time>2021-05-02T07:37:04Z</time>
      </trkpt>
      <trkpt lat="49.41627" lon="1.12361">
        <ele>103.9</ele>
        <time>2021-05-02T07:37:06Z</time>
      </trkpt>
      <trkpt lat="49.41629" lon="1.12365">
        <ele>104.1</ele>
        <time>2021-05-02T07:37:07Z</time>
      </trkpt>
      <trkpt lat="49.41629" lon="1.12372">
        <ele>104.5</ele>
        <time>2021-05-02T07:37:09Z</time>
      </trkpt>
      <trkpt lat="49.41628" lon="1.12377">
        <ele>104.8</ele>
        <time>2021-05-02T07:37:10Z</time>
      </trkpt>
      <trkpt lat="49.41628" lon="1.12381">
        <ele>105</ele>
        <time>2021-05-02T07:37:11Z</time>
      </trkpt>
      <trkpt lat="49.41628" lon="1.12388">
        <ele>105.4</ele>
        <time>2021-05-02T07:37:13Z</time>
      </trkpt>
      <trkpt lat="49.41629" lon="1.12395">
        <ele>105.7</ele>
        <time>2021-05-02T07:37:15Z</time>
      </trkpt>
      <trkpt lat="49.41629" lon="1.12401">
        <ele>106</ele>
        <time>2021-05-02T07:37:16Z</time>
      </trkpt>
      <trkpt lat="49.41629" lon="1.12407">
        <ele>106.3</ele>
        <time>2021-05-02T07:37:18Z</time>
      </trkpt>
      <trkpt lat="49.4163" lon="1.12413">
        <ele>106.6</ele>
        <time>2021-05-02T07:37:19Z</time>
      </trkpt>
      <trkpt lat="49.41631" lon="1.12417">
        <ele>106.8</ele>
        <time>2021-05-02T07:37:20Z</time>
      </trkpt>
      <trkpt lat="49.41632" lon="1.12422">
        <ele>107</ele>
        <time>2021-05-02T07:37:22Z</time>
      </trkpt>
      <trkpt lat="49.41632" lon="1.12425">
        <ele>107.2</ele>
        <time>2021-05-02T07:37:23Z</time>
      </trkpt>
      <trkpt lat="49.41633" lon="1.12431">
        <ele>107.4</ele>
        <time>2021-05-02T07:37:25Z</time>
      </trkpt>
      <trkpt lat="49.41633" lon="1.12436">
        <ele>107.6</ele>
        <time>2021-05-02T07:37:26Z</time>
      </trkpt>
      <trkpt lat="49.41633" lon="1.12441">
        <ele>107.8</ele>
        <time>2021-05-02T07:37:27Z</time>
      </trkpt>
      <trkpt lat="49.41633" lon="1.12447">
        <ele>108.1</ele>
        <time>2021-05-02T07:37:29Z</time>
      </trkpt>
      <trkpt lat="49.41633" lon="1.12453">
        <ele>108.4</ele>
        <time>2021-05-02T07:37:31Z</time>
      </trkpt>
      <trkpt lat="49.41633" lon="1.12458">
        <ele>108.6</ele>
        <time>2021-05-02T07:37:32Z</time>
      </trkpt>
      <trkpt lat="49.41634" lon="1.12465">
        <ele>109</ele>
        <time>2021-05-02T07:37:34Z</time>
      </trkpt>
      <trkpt lat="49.41634" lon="1.12467">
        <ele>109.1</ele>
        <time>2021-05-02T07:37:35Z</time>
      </trkpt>
      <trkpt lat="49.41634" lon="1.12469">
        <ele>109.2</ele>
        <time>2021-05-02T07:37:36Z</time>
      </trkpt>
      <trkpt lat="49.41634" lon="1.12474">
        <ele>109.4</ele>
        <time>2021-05-02T07:37:37Z</time>
      </trkpt>
      <trkpt lat="49.41634" lon="1.12478">
        <ele>109.6</ele>
        <time>2021-05-02T07:37:38Z</time>
      </trkpt>
      <trkpt lat="49.41634" lon="1.12482">
        <ele>109.9</ele>
        <time>2021-05-02T07:37:40Z</time>
      </trkpt>
      <trkpt lat="49.41635" lon="1.12487">
        <ele>110.1</ele>
        <time>2021-05-02T07:37:41Z</time>
      </trkpt>
      <trkpt lat="49.41635" lon="1.12493">
        <ele>110.4</ele>
        <time>2021-05-02T07:37:42Z</time>
      </trkpt>
      <trkpt lat="49.41635" lon="1.12495">
        <ele>110.5</ele>
        <time>2021-05-02T07:37:43Z</time>
      </trkpt>
      <trkpt lat="49.41635" lon="1.12498">
        <ele>110.6</ele>
        <time>2021-05-02T07:37:44Z</time>
      </trkpt>
      <trkpt lat="49.41635" lon="1.12503">
        <ele>110.8</ele>
        <time>2021-05-02T07:37:46Z</time>
      </trkpt>
      <trkpt lat="49.41635" lon="1.12507">
        <ele>111</ele>
        <time>2021-05-02T07:37:47Z</time>
      </trkpt>
      <trkpt lat="49.41634" lon="1.12515">
        <ele>111.4</ele>
        <time>2021-05-02T07:37:49Z</time>
      </trkpt>
      <trkpt lat="49.41634" lon="1.12521">
        <ele>111.6</ele>
        <time>2021-05-02T07:37:50Z</time>
      </trkpt>
      <trkpt lat="49.41635" lon="1.12526">
        <ele>111.8</ele>
        <time>2021-05-02T07:37:52Z</time>
      </trkpt>
      <trkpt lat="49.41635" lon="1.1253">
        <ele>112</ele>
        <time>2021-05-02T07:37:53Z</time>
      </trkpt>
      <trkpt lat="49.41636" lon="1.12534">
        <ele>112.2</ele>
        <time>2021-05-02T07:37:54Z</time>
      </trkpt>
      <trkpt lat="49.41636" lon="1.12541">
        <ele>112.4</ele>
        <time>2021-05-02T07:37:56Z</time>
      </trkpt>
      <trkpt lat="49.41637" lon="1.12546">
        <ele>112.7</ele>
        <time>2021-05-02T07:37:57Z</time>
      </trkpt>
      <trkpt lat="49.41637" lon="1.12548">
        <ele>112.8</ele>
        <time>2021-05-02T07:37:58Z</time>
      </trkpt>
      <trkpt lat="49.41638" lon="1.12551">
        <ele>113</ele>
        <time>2021-05-02T07:37:59Z</time>
      </trkpt>
      <trkpt lat="49.41638" lon="1.12556">
        <ele>113.2</ele>
        <time>2021-05-02T07:38:01Z</time>
      </trkpt>
      <trkpt lat="49.41639" lon="1.12564">
        <ele>113.6</ele>
        <time>2021-05-02T07:38:03Z</time>
      </trkpt>
      <trkpt lat="49.4164" lon="1.12566">
        <ele>113.8</ele>
        <time>2021-05-02T07:38:04Z</time>
      </trkpt>
      <trkpt lat="49.41641" lon="1.12568">
        <ele>113.9</ele>
        <time>2021-05-02T07:38:05Z</time>
      </trkpt>
      <trkpt lat="49.41642" lon="1.12574">
        <ele>114.3</ele>
        <time>2021-05-02T07:38:07Z</time>
      </trkpt>
      <trkpt lat="49.41644" lon="1.12578">
        <ele>114.5</ele>
        <time>2021-05-02T07:38:08Z</time>
      </trkpt>
      <trkpt lat="49.41645" lon="1.12581">
        <ele>114.7</ele>
        <time>2021-05-02T07:38:10Z</time>
      </trkpt>
      <trkpt lat="49.41646" lon="1.12586">
        <ele>115</ele>
        <time>2021-05-02T07:38:11Z</time>
      </trkpt>
      <trkpt lat="49.4165" lon="1.12591">
        <ele>115.5</ele>
        <time>2021-05-02T07:38:13Z</time>
      </trkpt>
      <trkpt lat="49.41652" lon="1.12592">
        <ele>115.7</ele>
        <time>2021-05-02T07:38:14Z</time>
      </trkpt>
      <trkpt lat="49.41653" lon="1.12594">
        <ele>115.9</ele>
        <time>2021-05-02T07:38:15Z</time>
      </trkpt>
      <trkpt lat="49.41655" lon="1.12596">
        <ele>116.1</ele>
        <time>2021-05-02T07:38:16Z</time>
      </trkpt>
      <trkpt lat="49.41658" lon="1.12599">
        <ele>116.4</ele>
        <time>2021-05-02T07:38:18Z</time>
      </trkpt>
      <trkpt lat="49.4166" lon="1.12601">
        <ele>116.7</ele>
        <time>2021-05-02T07:38:19Z</time>
      </trkpt>
      <trkpt lat="49.41664" lon="1.12605">
        <ele>117.2</ele>
        <time>2021-05-02T07:38:21Z</time>
      </trkpt>
      <trkpt lat="49.41665" lon="1.12607">
        <ele>117.4</ele>
        <time>2021-05-02T07:38:22Z</time>
      </trkpt>
      <trkpt lat="49.41666" lon="1.12608">
        <ele>117.6</ele>
        <time>2021-05-02T07:38:23Z</time>
      </trkpt>
      <trkpt lat="49.41669" lon="1.12612">
        <ele>118</ele>
        <time>2021-05-02T07:38:24Z</time>
      </trkpt>
      <trkpt lat="49.41671" lon="1.12616">
        <ele>118.5</ele>
        <time>2021-05-02T07:38:26Z</time>
      </trkpt>
      <trkpt lat="49.41674" lon="1.12622">
        <ele>119.4</ele>
        <time>2021-05-02T07:38:28Z</time>
      </trkpt>
      <trkpt lat="49.41677" lon="1.12627">
        <ele>120.1</ele>
        <time>2021-05-02T07:38:29Z</time>
      </trkpt>
      <trkpt lat="49.41677" lon="1.12628">
        <ele>120.3</ele>
        <time>2021-05-02T07:38:30Z</time>
      </trkpt>
      <trkpt lat="49.41679" lon="1.12633">
        <ele>121.2</ele>
        <time>2021-05-02T07:38:31Z</time>
      </trkpt>
      <trkpt lat="49.41681" lon="1.12637">
        <ele>122</ele>
        <time>2021-05-02T07:38:33Z</time>
      </trkpt>
      <trkpt lat="49.41682" lon="1.12639">
        <ele>122.5</ele>
        <time>2021-05-02T07:38:34Z</time>
      </trkpt>
      <trkpt lat="49.41683" lon="1.12641">
        <ele>123.2</ele>
        <time>2021-05-02T07:38:36Z</time>
      </trkpt>
      <trkpt lat="49.41685" lon="1.12643">
        <ele>123.7</ele>
        <time>2021-05-02T07:38:37Z</time>
      </trkpt>
      <trkpt lat="49.41685" lon="1.12644">
        <ele>124.1</ele>
        <time>2021-05-02T07:38:38Z</time>
      </trkpt>
      <trkpt lat="49.41686" lon="1.12645">
        <ele>124.5</ele>
        <time>2021-05-02T07:38:39Z</time>
      </trkpt>
      <trkpt lat="49.41688" lon="1.12647">
        <ele>125</ele>
        <time>2021-05-02T07:38:40Z</time>
      </trkpt>
      <trkpt lat="49.41689" lon="1.12648">
        <ele>125.7</ele>
        <time>2021-05-02T07:38:42Z</time>
      </trkpt>
      <trkpt lat="49.41691" lon="1.12649">
        <ele>126.1</ele>
        <time>2021-05-02T07:38:43Z</time>
      </trkpt>
      <trkpt lat="49.41691" lon="1.1265">
        <ele>126.4</ele>
        <time>2021-05-02T07:38:44Z</time>
      </trkpt>
      <trkpt lat="49.41692" lon="1.12651">
        <ele>126.6</ele>
        <time>2021-05-02T07:38:46Z</time>
      </trkpt>
      <trkpt lat="49.41692" lon="1.12651">
        <ele>126.9</ele>
        <time>2021-05-02T07:38:47Z</time>
      </trkpt>
      <trkpt lat="49.41693" lon="1.12652">
        <ele>127.3</ele>
        <time>2021-05-02T07:38:48Z</time>
      </trkpt>
      <trkpt lat="49.41694" lon="1.12652">
        <ele>127.5</ele>
        <time>2021-05-02T07:38:49Z</time>
      </trkpt>
      <trkpt lat="49.41695" lon="1.12653">
        <ele>127.7</ele>
        <time>2021-05-02T07:38:51Z</time>
      </trkpt>
      <trkpt lat="49.41695" lon="1.12654">
        <ele>128.1</ele>
        <time>2021-05-02T07:38:52Z</time>
      </trkpt>
      <trkpt lat="49.41696" lon="1.12655">
        <ele>128.3</ele>
        <time>2021-05-02T07:38:53Z</time>
      </trkpt>
      <trkpt lat="49.41696" lon="1.12657">
        <ele>128.8</ele>
        <time>2021-05-02T07:38:55Z</time>
      </trkpt>
      <trkpt lat="49.41697" lon="1.12657">
        <ele>129</ele>
        <time>2021-05-02T07:38:56Z</time>
      </trkpt>
      <trkpt lat="49.41698" lon="1.12658">
        <ele>129.2</ele>
        <time>2021-05-02T07:38:57Z</time>
      </trkpt>
      <trkpt lat="49.41698" lon="1.12657">
        <ele>129.3</ele>
        <time>2021-05-02T07:38:58Z</time>
      </trkpt>
      <trkpt lat="49.41699" lon="1.12658">
        <ele>129.4</ele>
        <time>2021-05-02T07:39:00Z</time>
      </trkpt>
      <trkpt lat="49.41699" lon="1.12658">
        <ele>129.5</ele>
        <time>2021-05-02T07:39:01Z</time>
      </trkpt>
      <trkpt lat="49.41699" lon="1.12658">
        <ele>129.6</ele>
        <time>2021-05-02T07:39:02Z</time>
      </trkpt>
      <trkpt lat="49.417" lon="1.12659">
        <ele>129.7</ele>
        <time>2021-05-02T07:39:03Z</time>
      </trkpt>
      <trkpt lat="49.417" lon="1.12659">
        <ele>129.7</ele>
        <time>2021-05-02T07:39:04Z</time>
      </trkpt>
      <trkpt lat="49.41701" lon="1.1266">
        <ele>129.8</ele>
        <time>2021-05-02T07:39:05Z</time>
      </trkpt>
      <trkpt lat="49.41701" lon="1.12661">
        <ele>129.9</ele>
        <time>2021-05-02T07:39:07Z</time>
      </trkpt>
      <trkpt lat="49.41702" lon="1.12661">
        <ele>130.1</ele>
        <time>2021-05-02T07:39:09Z</time>
      </trkpt>
      <trkpt lat="49.41703" lon="1.12662">
        <ele>130.2</ele>
        <time>2021-05-02T07:39:10Z</time>
      </trkpt>
      <trkpt lat="49.41704" lon="1.12664">
        <ele>130.5</ele>
        <time>2021-05-02T07:39:12Z</time>
      </trkpt>
      <trkpt lat="49.41705" lon="1.12665">
        <ele>130.7</ele>
        <time>2021-05-02T07:39:13Z</time>
      </trkpt>
      <trkpt lat="49.41706" lon="1.12666">
        <ele>130.8</ele>
        <time>2021-05-02T07:39:14Z</time>
      </trkpt>
      <trkpt lat="49.41706" lon="1.12667">
        <ele>130.9</ele>
        <time>2021-05-02T07:39:15Z</time>
      </trkpt>
      <trkpt lat="49.41706" lon="1.1267">
        <ele>131.1</ele>
        <time>2021-05-02T07:39:17Z</time>
      </trkpt>
      <trkpt lat="49.41707" lon="1.12672">
        <ele>131.3</ele>
        <time>2021-05-02T07:39:18Z</time>
      </trkpt>
      <trkpt lat="49.41707" lon="1.12674">
        <ele>131.4</ele>
        <time>2021-05-02T07:39:19Z</time>
      </trkpt>
      <trkpt lat="49.41708" lon="1.12675">
        <ele>131.6</ele>
        <time>2021-05-02T07:39:20Z</time>
      </trkpt>
      <trkpt lat="49.41708" lon="1.12678">
        <ele>131.7</ele>
        <time>2021-05-02T07:39:21Z</time>
      </trkpt>
      <trkpt lat="49.41708" lon="1.12683">
        <ele>132</ele>
        <time>2021-05-02T07:39:23Z</time>
      </trkpt>
      <trkpt lat="49.41708" lon="1.12684">
        <ele>132.1</ele>
        <time>2021-05-02T07:39:24Z</time>
      </trkpt>
      <trkpt lat="49.41707" lon="1.1269">
        <ele>132.5</ele>
        <time>2021-05-02T07:39:26Z</time>
      </trkpt>
      <trkpt lat="49.41706" lon="1.12692">
        <ele>132.5</ele>
        <time>2021-05-02T07:39:27Z</time>
      </trkpt>
      <trkpt lat="49.41706" lon="1.12696">
        <ele>132.6</ele>
        <time>2021-05-02T07:39:28Z</time>
      </trkpt>
      <trkpt lat="49.41705" lon="1.12699">
        <ele>132.8</ele>
        <time>2021-05-02T07:39:30Z</time>
      </trkpt>
      <trkpt lat="49.41705" lon="1.12705">
        <ele>133</ele>
        <time>2021-05-02T07:39:31Z</time>
      </trkpt>
      <trkpt lat="49.41705" lon="1.12708">
        <ele>133.1</ele>
        <time>2021-05-02T07:39:32Z</time>
      </trkpt>
      <trkpt lat="49.41703" lon="1.12713">
        <ele>133.3</ele>
        <time>2021-05-02T07:39:34Z</time>
      </trkpt>
      <trkpt lat="49.41703" lon="1.12718">
        <ele>133.5</ele>
        <time>2021-05-02T07:39:35Z</time>
      </trkpt>
      <trkpt lat="49.41703" lon="1.12724">
        <ele>133.7</ele>
        <time>2021-05-02T07:39:36Z</time>
      </trkpt>
      <trkpt lat="49.41702" lon="1.12726">
        <ele>133.8</ele>
        <time>2021-05-02T07:39:37Z</time>
      </trkpt>
      <trkpt lat="49.41702" lon="1.12729">
        <ele>133.9</ele>
        <time>2021-05-02T07:39:38Z</time>
      </trkpt>
      <trkpt lat="49.41701" lon="1.12733">
        <ele>134.1</ele>
        <time>2021-05-02T07:39:40Z</time>
      </trkpt>
      <trkpt lat="49.41701" lon="1.12738">
        <ele>134.3</ele>
        <time>2021-05-02T07:39:41Z</time>
      </trkpt>
      <trkpt lat="49.417" lon="1.12743">
        <ele>134.5</ele>
        <time>2021-05-02T07:39:42Z</time>
      </trkpt>
      <trkpt lat="49.41698" lon="1.12747">
        <ele>134.7</ele>
        <time>2021-05-02T07:39:44Z</time>
      </trkpt>
      <trkpt lat="49.41697" lon="1.1275">
        <ele>134.8</ele>
        <time>2021-05-02T07:39:45Z</time>
      </trkpt>
      <trkpt lat="49.41696" lon="1.12754">
        <ele>134.9</ele>
        <time>2021-05-02T07:39:47Z</time>
      </trkpt>
      <trkpt lat="49.41694" lon="1.12756">
        <ele>135</ele>
        <time>2021-05-02T07:39:48Z</time>
      </trkpt>
      <trkpt lat="49.41693" lon="1.12757">
        <ele>135.1</ele>
        <time>2021-05-02T07:39:49Z</time>
      </trkpt>
      <trkpt lat="49.41692" lon="1.12758">
        <ele>135.1</ele>
        <time>2021-05-02T07:39:50Z</time>
      </trkpt>
      <trkpt lat="49.41694" lon="1.12759">
        <ele>135.2</ele>
        <time>2021-05-02T07:39:52Z</time>
      </trkpt>
      <trkpt lat="49.41695" lon="1.12758">
        <ele>135.2</ele>
        <time>2021-05-02T07:39:54Z</time>
      </trkpt>
      <trkpt lat="49.41695" lon="1.12758">
        <ele>135.2</ele>
        <time>2021-05-02T07:39:55Z</time>
      </trkpt>
      <trkpt lat="49.41695" lon="1.12758">
        <ele>135.2</ele>
        <time>2021-05-02T07:39:57Z</time>
      </trkpt>
      <trkpt lat="49.41695" lon="1.12758">
        <ele>135.3</ele>
        <time>2021-05-02T07:39:59Z</time>
      </trkpt>
      <trkpt lat="49.41694" lon="1.12758">
        <ele>135.3</ele>
        <time>2021-05-02T07:40:00Z</time>
      </trkpt>
      <trkpt lat="49.41694" lon="1.12759">
        <ele>135.3</ele>
        <time>2021-05-02T07:40:02Z</time>
      </trkpt>
      <trkpt lat="49.41694" lon="1.1276">
        <ele>135.3</ele>
        <time>2021-05-02T07:40:04Z</time>
      </trkpt>
      <trkpt lat="49.41693" lon="1.1276">
        <ele>135.3</ele>
        <time>2021-05-02T07:40:05Z</time>
      </trkpt>
      <trkpt lat="49.41693" lon="1.1276">
        <ele>135.3</ele>
        <time>2021-05-02T07:40:07Z</time>
      </trkpt>
      <trkpt lat="49.41693" lon="1.12761">
        <ele>135.4</ele>
        <time>2021-05-02T07:40:08Z</time>
      </trkpt>
      <trkpt lat="49.41692" lon="1.12761">
        <ele>135.4</ele>
        <time>2021-05-02T07:40:10Z</time>
      </trkpt>
      <trkpt lat="49.41695" lon="1.12759">
        <ele>135.5</ele>
        <time>2021-05-02T07:40:33Z</time>
      </trkpt>
      <trkpt lat="49.41697" lon="1.12759">
        <ele>135.5</ele>
        <time>2021-05-02T07:40:35Z</time>
      </trkpt>
      <trkpt lat="49.41697" lon="1.12759">
        <ele>135.6</ele>
        <time>2021-05-02T07:40:36Z</time>
      </trkpt>
      <trkpt lat="49.41698" lon="1.12759">
        <ele>135.6</ele>
        <time>2021-05-02T07:40:38Z</time>
      </trkpt>
      <trkpt lat="49.41698" lon="1.12759">
        <ele>135.6</ele>
        <time>2021-05-02T07:40:40Z</time>
      </trkpt>
      <trkpt lat="49.41698" lon="1.12759">
        <ele>135.6</ele>
        <time>2021-05-02T07:40:41Z</time>
      </trkpt>
      <trkpt lat="49.41698" lon="1.12759">
        <ele>135.6</ele>
        <time>2021-05-02T07:40:42Z</time>
      </trkpt>
      <trkpt lat="49.41698" lon="1.12759">
        <ele>135.6</ele>
        <time>2021-05-02T07:40:43Z</time>
      </trkpt>
      <trkpt lat="49.41698" lon="1.12759">
        <ele>135.6</ele>
        <time>2021-05-02T07:40:45Z</time>
      </trkpt>
      <trkpt lat="49.41698" lon="1.12759">
        <ele>135.6</ele>
        <time>2021-05-02T07:40:46Z</time>
      </trkpt>
      <trkpt lat="49.41691" lon="1.12759">
        <ele>135.8</ele>
        <time>2021-05-02T07:41:10Z</time>
      </trkpt>
      <trkpt lat="49.4169" lon="1.12759">
        <ele>135.9</ele>
        <time>2021-05-02T07:41:11Z</time>
      </trkpt>
      <trkpt lat="49.41691" lon="1.1276">
        <ele>135.9</ele>
        <time>2021-05-02T07:41:13Z</time>
      </trkpt>
      <trkpt lat="49.41691" lon="1.12762">
        <ele>135.9</ele>
        <time>2021-05-02T07:41:14Z</time>
      </trkpt>
      <trkpt lat="49.41692" lon="1.12764">
        <ele>136</ele>
        <time>2021-05-02T07:41:16Z</time>
      </trkpt>
      <trkpt lat="49.41691" lon="1.12768">
        <ele>136.1</ele>
        <time>2021-05-02T07:41:17Z</time>
      </trkpt>
      <trkpt lat="49.41691" lon="1.12769">
        <ele>136.1</ele>
        <time>2021-05-02T07:41:18Z</time>
      </trkpt>
      <trkpt lat="49.41691" lon="1.12771">
        <ele>136.1</ele>
        <time>2021-05-02T07:41:19Z</time>
      </trkpt>
      <trkpt lat="49.41689" lon="1.12775">
        <ele>136.3</ele>
        <time>2021-05-02T07:41:21Z</time>
      </trkpt>
      <trkpt lat="49.41686" lon="1.1278">
        <ele>136.4</ele>
        <time>2021-05-02T07:41:23Z</time>
      </trkpt>
      <trkpt lat="49.41685" lon="1.12783">
        <ele>136.5</ele>
        <time>2021-05-02T07:41:24Z</time>
      </trkpt>
      <trkpt lat="49.41682" lon="1.12788">
        <ele>136.6</ele>
        <time>2021-05-02T07:41:26Z</time>
      </trkpt>
      <trkpt lat="49.4168" lon="1.12791">
        <ele>136.7</ele>
        <time>2021-05-02T07:41:27Z</time>
      </trkpt>
      <trkpt lat="49.4168" lon="1.12796">
        <ele>136.8</ele>
        <time>2021-05-02T07:41:29Z</time>
      </trkpt>
      <trkpt lat="49.41678" lon="1.128">
        <ele>136.9</ele>
        <time>2021-05-02T07:41:30Z</time>
      </trkpt>
      <trkpt lat="49.41676" lon="1.12805">
        <ele>137</ele>
        <time>2021-05-02T07:41:32Z</time>
      </trkpt>
      <trkpt lat="49.41675" lon="1.12812">
        <ele>137.2</ele>
        <time>2021-05-02T07:41:34Z</time>
      </trkpt>
      <trkpt lat="49.41674" lon="1.12817">
        <ele>137.3</ele>
        <time>2021-05-02T07:41:35Z</time>
      </trkpt>
      <trkpt lat="49.41673" lon="1.12821">
        <ele>137.5</ele>
        <time>2021-05-02T07:41:36Z</time>
      </trkpt>
      <trkpt lat="49.41672" lon="1.12824">
        <ele>137.6</ele>
        <time>2021-05-02T07:41:38Z</time>
      </trkpt>
      <trkpt lat="49.41672" lon="1.12827">
        <ele>137.6</ele>
        <time>2021-05-02T07:41:39Z</time>
      </trkpt>
      <trkpt lat="49.41671" lon="1.12829">
        <ele>137.7</ele>
        <time>2021-05-02T07:41:40Z</time>
      </trkpt>
      <trkpt lat="49.41671" lon="1.12833">
        <ele>137.8</ele>
        <time>2021-05-02T07:41:42Z</time>
      </trkpt>
      <trkpt lat="49.4167" lon="1.12838">
        <ele>138</ele>
        <time>2021-05-02T07:41:43Z</time>
      </trkpt>
      <trkpt lat="49.4167" lon="1.12839">
        <ele>138</ele>
        <time>2021-05-02T07:41:44Z</time>
      </trkpt>
      <trkpt lat="49.41668" lon="1.12849">
        <ele>138.3</ele>
        <time>2021-05-02T07:41:46Z</time>
      </trkpt>
      <trkpt lat="49.41667" lon="1.12854">
        <ele>138.4</ele>
        <time>2021-05-02T07:41:47Z</time>
      </trkpt>
      <trkpt lat="49.41667" lon="1.12861">
        <ele>138.6</ele>
        <time>2021-05-02T07:41:48Z</time>
      </trkpt>
      <trkpt lat="49.41666" lon="1.1287">
        <ele>138.9</ele>
        <time>2021-05-02T07:41:50Z</time>
      </trkpt>
      <trkpt lat="49.41666" lon="1.12876">
        <ele>139</ele>
        <time>2021-05-02T07:41:51Z</time>
      </trkpt>
      <trkpt lat="49.41666" lon="1.12877">
        <ele>139.1</ele>
        <time>2021-05-02T07:41:52Z</time>
      </trkpt>
      <trkpt lat="49.41666" lon="1.1288">
        <ele>139.1</ele>
        <time>2021-05-02T07:41:53Z</time>
      </trkpt>
      <trkpt lat="49.41666" lon="1.12884">
        <ele>139.2</ele>
        <time>2021-05-02T07:41:55Z</time>
      </trkpt>
      <trkpt lat="49.41666" lon="1.12888">
        <ele>139.4</ele>
        <time>2021-05-02T07:41:56Z</time>
      </trkpt>
      <trkpt lat="49.41666" lon="1.12889">
        <ele>139.4</ele>
        <time>2021-05-02T07:41:57Z</time>
      </trkpt>
      <trkpt lat="49.41666" lon="1.12891">
        <ele>139.4</ele>
        <time>2021-05-02T07:41:59Z</time>
      </trkpt>
      <trkpt lat="49.41666" lon="1.12893">
        <ele>139.5</ele>
        <time>2021-05-02T07:42:00Z</time>
      </trkpt>
      <trkpt lat="49.41666" lon="1.12897">
        <ele>139.6</ele>
        <time>2021-05-02T07:42:01Z</time>
      </trkpt>
      <trkpt lat="49.41666" lon="1.12902">
        <ele>139.7</ele>
        <time>2021-05-02T07:42:03Z</time>
      </trkpt>
      <trkpt lat="49.41666" lon="1.12908">
        <ele>139.9</ele>
        <time>2021-05-02T07:42:04Z</time>
      </trkpt>
      <trkpt lat="49.41665" lon="1.12917">
        <ele>140.2</ele>
        <time>2021-05-02T07:42:05Z</time>
      </trkpt>
      <trkpt lat="49.41666" lon="1.12933">
        <ele>140.6</ele>
        <time>2021-05-02T07:42:07Z</time>
      </trkpt>
      <trkpt lat="49.41666" lon="1.1294">
        <ele>140.8</ele>
        <time>2021-05-02T07:42:08Z</time>
      </trkpt>
      <trkpt lat="49.41665" lon="1.12955">
        <ele>141.2</ele>
        <time>2021-05-02T07:42:10Z</time>
      </trkpt>
      <trkpt lat="49.41665" lon="1.12969">
        <ele>141.6</ele>
        <time>2021-05-02T07:42:12Z</time>
      </trkpt>
      <trkpt lat="49.41665" lon="1.12974">
        <ele>141.8</ele>
        <time>2021-05-02T07:42:13Z</time>
      </trkpt>
      <trkpt lat="49.41665" lon="1.12981">
        <ele>141.9</ele>
        <time>2021-05-02T07:42:14Z</time>
      </trkpt>
      <trkpt lat="49.41665" lon="1.12983">
        <ele>142</ele>
        <time>2021-05-02T07:42:15Z</time>
      </trkpt>
      <trkpt lat="49.41664" lon="1.12988">
        <ele>142.2</ele>
        <time>2021-05-02T07:42:17Z</time>
      </trkpt>
      <trkpt lat="49.41664" lon="1.12994">
        <ele>142.3</ele>
        <time>2021-05-02T07:42:18Z</time>
      </trkpt>
      <trkpt lat="49.41664" lon="1.13">
        <ele>142.5</ele>
        <time>2021-05-02T07:42:19Z</time>
      </trkpt>
      <trkpt lat="49.41663" lon="1.13008">
        <ele>142.8</ele>
        <time>2021-05-02T07:42:21Z</time>
      </trkpt>
      <trkpt lat="49.41663" lon="1.13012">
        <ele>142.9</ele>
        <time>2021-05-02T07:42:22Z</time>
      </trkpt>
      <trkpt lat="49.41664" lon="1.1302">
        <ele>143.1</ele>
        <time>2021-05-02T07:42:24Z</time>
      </trkpt>
      <trkpt lat="49.41665" lon="1.13029">
        <ele>143.4</ele>
        <time>2021-05-02T07:42:26Z</time>
      </trkpt>
      <trkpt lat="49.41666" lon="1.13036">
        <ele>143.6</ele>
        <time>2021-05-02T07:42:28Z</time>
      </trkpt>
      <trkpt lat="49.41667" lon="1.1304">
        <ele>143.7</ele>
        <time>2021-05-02T07:42:29Z</time>
      </trkpt>
      <trkpt lat="49.41667" lon="1.13046">
        <ele>143.9</ele>
        <time>2021-05-02T07:42:30Z</time>
      </trkpt>
      <trkpt lat="49.41667" lon="1.13048">
        <ele>144</ele>
        <time>2021-05-02T07:42:31Z</time>
      </trkpt>
      <trkpt lat="49.41667" lon="1.13054">
        <ele>144.2</ele>
        <time>2021-05-02T07:42:33Z</time>
      </trkpt>
      <trkpt lat="49.41666" lon="1.13062">
        <ele>144.4</ele>
        <time>2021-05-02T07:42:35Z</time>
      </trkpt>
      <trkpt lat="49.41668" lon="1.13067">
        <ele>144.5</ele>
        <time>2021-05-02T07:42:36Z</time>
      </trkpt>
      <trkpt lat="49.41669" lon="1.13072">
        <ele>144.6</ele>
        <time>2021-05-02T07:42:37Z</time>
      </trkpt>
      <trkpt lat="49.41671" lon="1.13078">
        <ele>144.8</ele>
        <time>2021-05-02T07:42:39Z</time>
      </trkpt>
      <trkpt lat="49.41672" lon="1.1308">
        <ele>144.9</ele>
        <time>2021-05-02T07:42:41Z</time>
      </trkpt>
      <trkpt lat="49.41672" lon="1.13081">
        <ele>144.9</ele>
        <time>2021-05-02T07:42:43Z</time>
      </trkpt>
      <trkpt lat="49.41672" lon="1.13081">
        <ele>144.9</ele>
        <time>2021-05-02T07:42:44Z</time>
      </trkpt>
      <trkpt lat="49.41673" lon="1.13081">
        <ele>144.9</ele>
        <time>2021-05-02T07:42:45Z</time>
      </trkpt>
      <trkpt lat="49.41673" lon="1.13081">
        <ele>144.9</ele>
        <time>2021-05-02T07:42:46Z</time>
      </trkpt>
      <trkpt lat="49.41673" lon="1.1308">
        <ele>145</ele>
        <time>2021-05-02T07:42:48Z</time>
      </trkpt>
      <trkpt lat="49.41677" lon="1.13079">
        <ele>145.5</ele>
        <time>2021-05-02T07:42:49Z</time>
      </trkpt>
      <trkpt lat="49.41681" lon="1.13078">
        <ele>145.5</ele>
        <time>2021-05-02T07:42:50Z</time>
      </trkpt>
      <trkpt lat="49.41687" lon="1.13075">
        <ele>145.6</ele>
        <time>2021-05-02T07:42:51Z</time>
      </trkpt>
      <trkpt lat="49.41693" lon="1.13072">
        <ele>145.7</ele>
        <time>2021-05-02T07:42:53Z</time>
      </trkpt>
      <trkpt lat="49.41698" lon="1.13069">
        <ele>145.8</ele>
        <time>2021-05-02T07:42:54Z</time>
      </trkpt>
      <trkpt lat="49.41703" lon="1.13066">
        <ele>145.9</ele>
        <time>2021-05-02T07:42:56Z</time>
      </trkpt>
      <trkpt lat="49.41707" lon="1.13063">
        <ele>146</ele>
        <time>2021-05-02T07:42:57Z</time>
      </trkpt>
      <trkpt lat="49.41712" lon="1.13059">
        <ele>146.2</ele>
        <time>2021-05-02T07:42:59Z</time>
      </trkpt>
      <trkpt lat="49.41717" lon="1.13053">
        <ele>146.3</ele>
        <time>2021-05-02T07:43:01Z</time>
      </trkpt>
      <trkpt lat="49.41719" lon="1.1305">
        <ele>146.4</ele>
        <time>2021-05-02T07:43:02Z</time>
      </trkpt>
      <trkpt lat="49.41723" lon="1.13046">
        <ele>146.5</ele>
        <time>2021-05-02T07:43:04Z</time>
      </trkpt>
      <trkpt lat="49.41726" lon="1.13041">
        <ele>146.6</ele>
        <time>2021-05-02T07:43:05Z</time>
      </trkpt>
      <trkpt lat="49.4173" lon="1.13036">
        <ele>146.8</ele>
        <time>2021-05-02T07:43:07Z</time>
      </trkpt>
      <trkpt lat="49.41733" lon="1.13032">
        <ele>146.9</ele>
        <time>2021-05-02T07:43:08Z</time>
      </trkpt>
      <trkpt lat="49.41736" lon="1.13028">
        <ele>147</ele>
        <time>2021-05-02T07:43:10Z</time>
      </trkpt>
      <trkpt lat="49.41738" lon="1.13025">
        <ele>147.1</ele>
        <time>2021-05-02T07:43:11Z</time>
      </trkpt>
      <trkpt lat="49.41741" lon="1.13022">
        <ele>147.2</ele>
        <time>2021-05-02T07:43:12Z</time>
      </trkpt>
      <trkpt lat="49.41742" lon="1.1302">
        <ele>147.3</ele>
        <time>2021-05-02T07:43:13Z</time>
      </trkpt>
      <trkpt lat="49.41745" lon="1.13017">
        <ele>147.4</ele>
        <time>2021-05-02T07:43:14Z</time>
      </trkpt>
      <trkpt lat="49.41748" lon="1.13013">
        <ele>147.5</ele>
        <time>2021-05-02T07:43:15Z</time>
      </trkpt>
      <trkpt lat="49.41751" lon="1.13009">
        <ele>147.6</ele>
        <time>2021-05-02T07:43:17Z</time>
      </trkpt>
      <trkpt lat="49.41754" lon="1.13005">
        <ele>147.7</ele>
        <time>2021-05-02T07:43:18Z</time>
      </trkpt>
      <trkpt lat="49.41758" lon="1.13001">
        <ele>147.8</ele>
        <time>2021-05-02T07:43:19Z</time>
      </trkpt>
      <trkpt lat="49.41761" lon="1.12998">
        <ele>147.8</ele>
        <time>2021-05-02T07:43:20Z</time>
      </trkpt>
      <trkpt lat="49.41763" lon="1.12995">
        <ele>147.9</ele>
        <time>2021-05-02T07:43:21Z</time>
      </trkpt>
      <trkpt lat="49.41767" lon="1.1299">
        <ele>148</ele>
        <time>2021-05-02T07:43:23Z</time>
      </trkpt>
      <trkpt lat="49.41772" lon="1.12983">
        <ele>148.1</ele>
        <time>2021-05-02T07:43:25Z</time>
      </trkpt>
      <trkpt lat="49.41774" lon="1.1298">
        <ele>148.1</ele>
        <time>2021-05-02T07:43:26Z</time>
      </trkpt>
      <trkpt lat="49.41776" lon="1.12977">
        <ele>148.1</ele>
        <time>2021-05-02T07:43:27Z</time>
      </trkpt>
      <trkpt lat="49.41779" lon="1.1297">
        <ele>148.1</ele>
        <time>2021-05-02T07:43:29Z</time>
      </trkpt>
      <trkpt lat="49.4178" lon="1.12965">
        <ele>148.1</ele>
        <time>2021-05-02T07:43:30Z</time>
      </trkpt>
      <trkpt lat="49.41783" lon="1.12956">
        <ele>148.1</ele>
        <time>2021-05-02T07:43:32Z</time>
      </trkpt>
      <trkpt lat="49.41784" lon="1.12949">
        <ele>148.1</ele>
        <time>2021-05-02T07:43:33Z</time>
      </trkpt>
      <trkpt lat="49.41788" lon="1.12943">
        <ele>148</ele>
        <time>2021-05-02T07:43:34Z</time>
      </trkpt>
      <trkpt lat="49.41792" lon="1.12937">
        <ele>148</ele>
        <time>2021-05-02T07:43:36Z</time>
      </trkpt>
      <trkpt lat="49.41794" lon="1.12932">
        <ele>148</ele>
        <time>2021-05-02T07:43:37Z</time>
      </trkpt>
      <trkpt lat="49.41796" lon="1.12924">
        <ele>147.9</ele>
        <time>2021-05-02T07:43:39Z</time>
      </trkpt>
      <trkpt lat="49.41799" lon="1.12919">
        <ele>147.9</ele>
        <time>2021-05-02T07:43:40Z</time>
      </trkpt>
      <trkpt lat="49.41802" lon="1.12911">
        <ele>147.8</ele>
        <time>2021-05-02T07:43:42Z</time>
      </trkpt>
      <trkpt lat="49.41804" lon="1.12906">
        <ele>147.8</ele>
        <time>2021-05-02T07:43:44Z</time>
      </trkpt>
      <trkpt lat="49.41806" lon="1.129">
        <ele>147.8</ele>
        <time>2021-05-02T07:43:45Z</time>
      </trkpt>
      <trkpt lat="49.41809" lon="1.12893">
        <ele>147.8</ele>
        <time>2021-05-02T07:43:47Z</time>
      </trkpt>
      <trkpt lat="49.41811" lon="1.1289">
        <ele>147.8</ele>
        <time>2021-05-02T07:43:48Z</time>
      </trkpt>
      <trkpt lat="49.41813" lon="1.12885">
        <ele>147.8</ele>
        <time>2021-05-02T07:43:49Z</time>
      </trkpt>
      <trkpt lat="49.41815" lon="1.12881">
        <ele>147.8</ele>
        <time>2021-05-02T07:43:51Z</time>
      </trkpt>
      <trkpt lat="49.41817" lon="1.12877">
        <ele>147.8</ele>
        <time>2021-05-02T07:43:52Z</time>
      </trkpt>
      <trkpt lat="49.4182" lon="1.12873">
        <ele>147.7</ele>
        <time>2021-05-02T07:43:53Z</time>
      </trkpt>
      <trkpt lat="49.41822" lon="1.1287">
        <ele>147.7</ele>
        <time>2021-05-02T07:43:54Z</time>
      </trkpt>
      <trkpt lat="49.41825" lon="1.12861">
        <ele>147.7</ele>
        <time>2021-05-02T07:43:56Z</time>
      </trkpt>
      <trkpt lat="49.41829" lon="1.12853">
        <ele>147.6</ele>
        <time>2021-05-02T07:43:58Z</time>
      </trkpt>
      <trkpt lat="49.41831" lon="1.12847">
        <ele>147.6</ele>
        <time>2021-05-02T07:44:00Z</time>
      </trkpt>
      <trkpt lat="49.41833" lon="1.12841">
        <ele>147.6</ele>
        <time>2021-05-02T07:44:01Z</time>
      </trkpt>
      <trkpt lat="49.41835" lon="1.12836">
        <ele>147.6</ele>
        <time>2021-05-02T07:44:02Z</time>
      </trkpt>
      <trkpt lat="49.41838" lon="1.1283">
        <ele>147.6</ele>
        <time>2021-05-02T07:44:04Z</time>
      </trkpt>
      <trkpt lat="49.41839" lon="1.12826">
        <ele>147.6</ele>
        <time>2021-05-02T07:44:05Z</time>
      </trkpt>
      <trkpt lat="49.4184" lon="1.12824">
        <ele>147.6</ele>
        <time>2021-05-02T07:44:06Z</time>
      </trkpt>
      <trkpt lat="49.4184" lon="1.12822">
        <ele>147.6</ele>
        <time>2021-05-02T07:44:07Z</time>
      </trkpt>
      <trkpt lat="49.41841" lon="1.1282">
        <ele>147.6</ele>
        <time>2021-05-02T07:44:09Z</time>
      </trkpt>
      <trkpt lat="49.41841" lon="1.12818">
        <ele>147.6</ele>
        <time>2021-05-02T07:44:11Z</time>
      </trkpt>
      <trkpt lat="49.41842" lon="1.12816">
        <ele>147.6</ele>
        <time>2021-05-02T07:44:12Z</time>
      </trkpt>
      <trkpt lat="49.41844" lon="1.12805">
        <ele>147.6</ele>
        <time>2021-05-02T07:44:14Z</time>
      </trkpt>
      <trkpt lat="49.41846" lon="1.12798">
        <ele>147.6</ele>
        <time>2021-05-02T07:44:15Z</time>
      </trkpt>
      <trkpt lat="49.41847" lon="1.12791">
        <ele>147.7</ele>
        <time>2021-05-02T07:44:16Z</time>
      </trkpt>
      <trkpt lat="49.4185" lon="1.12778">
        <ele>147.7</ele>
        <time>2021-05-02T07:44:17Z</time>
      </trkpt>
      <trkpt lat="49.41852" lon="1.12771">
        <ele>147.7</ele>
        <time>2021-05-02T07:44:18Z</time>
      </trkpt>
      <trkpt lat="49.41853" lon="1.12765">
        <ele>147.8</ele>
        <time>2021-05-02T07:44:19Z</time>
      </trkpt>
      <trkpt lat="49.41854" lon="1.1276">
        <ele>147.8</ele>
        <time>2021-05-02T07:44:20Z</time>
      </trkpt>
      <trkpt lat="49.41856" lon="1.12754">
        <ele>147.8</ele>
        <time>2021-05-02T07:44:22Z</time>
      </trkpt>
      <trkpt lat="49.41859" lon="1.1275">
        <ele>147.8</ele>
        <time>2021-05-02T07:44:23Z</time>
      </trkpt>
      <trkpt lat="49.4186" lon="1.12747">
        <ele>147.8</ele>
        <time>2021-05-02T07:44:24Z</time>
      </trkpt>
      <trkpt lat="49.41861" lon="1.12742">
        <ele>147.9</ele>
        <time>2021-05-02T07:44:26Z</time>
      </trkpt>
      <trkpt lat="49.41863" lon="1.12739">
        <ele>147.9</ele>
        <time>2021-05-02T07:44:27Z</time>
      </trkpt>
      <trkpt lat="49.41865" lon="1.12735">
        <ele>147.9</ele>
        <time>2021-05-02T07:44:29Z</time>
      </trkpt>
      <trkpt lat="49.41867" lon="1.1273">
        <ele>147.9</ele>
        <time>2021-05-02T07:44:30Z</time>
      </trkpt>
      <trkpt lat="49.41868" lon="1.12729">
        <ele>147.9</ele>
        <time>2021-05-02T07:44:31Z</time>
      </trkpt>
      <trkpt lat="49.4187" lon="1.12724">
        <ele>148</ele>
        <time>2021-05-02T07:44:33Z</time>
      </trkpt>
      <trkpt lat="49.41872" lon="1.1272">
        <ele>148</ele>
        <time>2021-05-02T07:44:34Z</time>
      </trkpt>
      <trkpt lat="49.41873" lon="1.12717">
        <ele>148</ele>
        <time>2021-05-02T07:44:35Z</time>
      </trkpt>
      <trkpt lat="49.41875" lon="1.12713">
        <ele>148</ele>
        <time>2021-05-02T07:44:37Z</time>
      </trkpt>
      <trkpt lat="49.41877" lon="1.12709">
        <ele>148</ele>
        <time>2021-05-02T07:44:38Z</time>
      </trkpt>
      <trkpt lat="49.4188" lon="1.12705">
        <ele>148.1</ele>
        <time>2021-05-02T07:44:40Z</time>
      </trkpt>
      <trkpt lat="49.41883" lon="1.127">
        <ele>148.1</ele>
        <time>2021-05-02T07:44:42Z</time>
      </trkpt>
      <trkpt lat="49.41887" lon="1.12694">
        <ele>148.1</ele>
        <time>2021-05-02T07:44:43Z</time>
      </trkpt>
      <trkpt lat="49.41892" lon="1.12686">
        <ele>148.2</ele>
        <time>2021-05-02T07:44:45Z</time>
      </trkpt>
      <trkpt lat="49.41897" lon="1.1268">
        <ele>148.2</ele>
        <time>2021-05-02T07:44:47Z</time>
      </trkpt>
      <trkpt lat="49.419" lon="1.12675">
        <ele>148.2</ele>
        <time>2021-05-02T07:44:48Z</time>
      </trkpt>
      <trkpt lat="49.41904" lon="1.12669">
        <ele>148.2</ele>
        <time>2021-05-02T07:44:50Z</time>
      </trkpt>
      <trkpt lat="49.41907" lon="1.12666">
        <ele>148.2</ele>
        <time>2021-05-02T07:44:51Z</time>
      </trkpt>
      <trkpt lat="49.4191" lon="1.12662">
        <ele>148.3</ele>
        <time>2021-05-02T07:44:53Z</time>
      </trkpt>
      <trkpt lat="49.41913" lon="1.12657">
        <ele>148.3</ele>
        <time>2021-05-02T07:44:54Z</time>
      </trkpt>
      <trkpt lat="49.41915" lon="1.12654">
        <ele>148.3</ele>
        <time>2021-05-02T07:44:55Z</time>
      </trkpt>
      <trkpt lat="49.41919" lon="1.12648">
        <ele>148.3</ele>
        <time>2021-05-02T07:44:57Z</time>
      </trkpt>
      <trkpt lat="49.41922" lon="1.12643">
        <ele>148.3</ele>
        <time>2021-05-02T07:44:59Z</time>
      </trkpt>
      <trkpt lat="49.41926" lon="1.12638">
        <ele>148.3</ele>
        <time>2021-05-02T07:45:00Z</time>
      </trkpt>
      <trkpt lat="49.41931" lon="1.12631">
        <ele>148.3</ele>
        <time>2021-05-02T07:45:02Z</time>
      </trkpt>
      <trkpt lat="49.41936" lon="1.12626">
        <ele>148.4</ele>
        <time>2021-05-02T07:45:04Z</time>
      </trkpt>
      <trkpt lat="49.4194" lon="1.12622">
        <ele>148.4</ele>
        <time>2021-05-02T07:45:06Z</time>
      </trkpt>
      <trkpt lat="49.41943" lon="1.12619">
        <ele>148.4</ele>
        <time>2021-05-02T07:45:07Z</time>
      </trkpt>
      <trkpt lat="49.41945" lon="1.12616">
        <ele>148.4</ele>
        <time>2021-05-02T07:45:08Z</time>
      </trkpt>
      <trkpt lat="49.41948" lon="1.12612">
        <ele>148.4</ele>
        <time>2021-05-02T07:45:09Z</time>
      </trkpt>
      <trkpt lat="49.41949" lon="1.12611">
        <ele>148.4</ele>
        <time>2021-05-02T07:45:10Z</time>
      </trkpt>
      <trkpt lat="49.41954" lon="1.12606">
        <ele>148.3</ele>
        <time>2021-05-02T07:45:12Z</time>
      </trkpt>
      <trkpt lat="49.41958" lon="1.12604">
        <ele>148.3</ele>
        <time>2021-05-02T07:45:13Z</time>
      </trkpt>
      <trkpt lat="49.41962" lon="1.12599">
        <ele>148.3</ele>
        <time>2021-05-02T07:45:15Z</time>
      </trkpt>
      <trkpt lat="49.41966" lon="1.12596">
        <ele>148.3</ele>
        <time>2021-05-02T07:45:16Z</time>
      </trkpt>
      <trkpt lat="49.41969" lon="1.12593">
        <ele>148.3</ele>
        <time>2021-05-02T07:45:17Z</time>
      </trkpt>
      <trkpt lat="49.41973" lon="1.12589">
        <ele>148.2</ele>
        <time>2021-05-02T07:45:19Z</time>
      </trkpt>
      <trkpt lat="49.41975" lon="1.12587">
        <ele>148.2</ele>
        <time>2021-05-02T07:45:20Z</time>
      </trkpt>
      <trkpt lat="49.41978" lon="1.12583">
        <ele>148.2</ele>
        <time>2021-05-02T07:45:21Z</time>
      </trkpt>
      <trkpt lat="49.41981" lon="1.12579">
        <ele>148.2</ele>
        <time>2021-05-02T07:45:23Z</time>
      </trkpt>
      <trkpt lat="49.41984" lon="1.12575">
        <ele>148.2</ele>
        <time>2021-05-02T07:45:24Z</time>
      </trkpt>
      <trkpt lat="49.41987" lon="1.12572">
        <ele>148.2</ele>
        <time>2021-05-02T07:45:25Z</time>
      </trkpt>
      <trkpt lat="49.41992" lon="1.12567">
        <ele>148.2</ele>
        <time>2021-05-02T07:45:27Z</time>
      </trkpt>
      <trkpt lat="49.41997" lon="1.12561">
        <ele>148.2</ele>
        <time>2021-05-02T07:45:29Z</time>
      </trkpt>
      <trkpt lat="49.42002" lon="1.12557">
        <ele>148.1</ele>
        <time>2021-05-02T07:45:31Z</time>
      </trkpt>
      <trkpt lat="49.42005" lon="1.12554">
        <ele>148.1</ele>
        <time>2021-05-02T07:45:32Z</time>
      </trkpt>
      <trkpt lat="49.42007" lon="1.12551">
        <ele>148.1</ele>
        <time>2021-05-02T07:45:33Z</time>
      </trkpt>
      <trkpt lat="49.4201" lon="1.12547">
        <ele>148</ele>
        <time>2021-05-02T07:45:34Z</time>
      </trkpt>
      <trkpt lat="49.42015" lon="1.12542">
        <ele>148</ele>
        <time>2021-05-02T07:45:36Z</time>
      </trkpt>
      <trkpt lat="49.42021" lon="1.12537">
        <ele>148</ele>
        <time>2021-05-02T07:45:38Z</time>
      </trkpt>
      <trkpt lat="49.42025" lon="1.12534">
        <ele>147.9</ele>
        <time>2021-05-02T07:45:39Z</time>
      </trkpt>
      <trkpt lat="49.42033" lon="1.12528">
        <ele>147.9</ele>
        <time>2021-05-02T07:45:41Z</time>
      </trkpt>
      <trkpt lat="49.42035" lon="1.12525">
        <ele>147.9</ele>
        <time>2021-05-02T07:45:42Z</time>
      </trkpt>
      <trkpt lat="49.42039" lon="1.1252">
        <ele>147.8</ele>
        <time>2021-05-02T07:45:44Z</time>
      </trkpt>
      <trkpt lat="49.42042" lon="1.12516">
        <ele>147.8</ele>
        <time>2021-05-02T07:45:45Z</time>
      </trkpt>
      <trkpt lat="49.42045" lon="1.12512">
        <ele>147.8</ele>
        <time>2021-05-02T07:45:47Z</time>
      </trkpt>
      <trkpt lat="49.42049" lon="1.1251">
        <ele>147.8</ele>
        <time>2021-05-02T07:45:48Z</time>
      </trkpt>
      <trkpt lat="49.42052" lon="1.12507">
        <ele>147.8</ele>
        <time>2021-05-02T07:45:49Z</time>
      </trkpt>
      <trkpt lat="49.42058" lon="1.12503">
        <ele>147.8</ele>
        <time>2021-05-02T07:45:51Z</time>
      </trkpt>
      <trkpt lat="49.4206" lon="1.125">
        <ele>147.7</ele>
        <time>2021-05-02T07:45:52Z</time>
      </trkpt>
      <trkpt lat="49.42063" lon="1.12497">
        <ele>147.7</ele>
        <time>2021-05-02T07:45:53Z</time>
      </trkpt>
      <trkpt lat="49.42065" lon="1.12494">
        <ele>147.7</ele>
        <time>2021-05-02T07:45:54Z</time>
      </trkpt>
      <trkpt lat="49.42071" lon="1.12491">
        <ele>147.7</ele>
        <time>2021-05-02T07:45:56Z</time>
      </trkpt>
      <trkpt lat="49.42073" lon="1.1249">
        <ele>147.8</ele>
        <time>2021-05-02T07:45:57Z</time>
      </trkpt>
      <trkpt lat="49.4208" lon="1.12487">
        <ele>147.8</ele>
        <time>2021-05-02T07:45:59Z</time>
      </trkpt>
      <trkpt lat="49.42084" lon="1.12486">
        <ele>147.8</ele>
        <time>2021-05-02T07:46:00Z</time>
      </trkpt>
      <trkpt lat="49.42089" lon="1.12484">
        <ele>147.9</ele>
        <time>2021-05-02T07:46:02Z</time>
      </trkpt>
      <trkpt lat="49.42091" lon="1.12484">
        <ele>147.9</ele>
        <time>2021-05-02T07:46:03Z</time>
      </trkpt>
      <trkpt lat="49.42095" lon="1.12484">
        <ele>147.9</ele>
        <time>2021-05-02T07:46:05Z</time>
      </trkpt>
      <trkpt lat="49.42097" lon="1.12485">
        <ele>148</ele>
        <time>2021-05-02T07:46:06Z</time>
      </trkpt>
      <trkpt lat="49.42098" lon="1.12486">
        <ele>148</ele>
        <time>2021-05-02T07:46:08Z</time>
      </trkpt>
      <trkpt lat="49.42098" lon="1.12486">
        <ele>148</ele>
        <time>2021-05-02T07:46:09Z</time>
      </trkpt>
      <trkpt lat="49.42103" lon="1.12488">
        <ele>148</ele>
        <time>2021-05-02T07:46:11Z</time>
      </trkpt>
      <trkpt lat="49.42107" lon="1.12488">
        <ele>148</ele>
        <time>2021-05-02T07:46:12Z</time>
      </trkpt>
      <trkpt lat="49.42113" lon="1.1249">
        <ele>148.1</ele>
        <time>2021-05-02T07:46:14Z</time>
      </trkpt>
      <trkpt lat="49.42116" lon="1.1249">
        <ele>148.1</ele>
        <time>2021-05-02T07:46:15Z</time>
      </trkpt>
      <trkpt lat="49.42122" lon="1.12489">
        <ele>148.1</ele>
        <time>2021-05-02T07:46:17Z</time>
      </trkpt>
      <trkpt lat="49.42125" lon="1.12489">
        <ele>148.1</ele>
        <time>2021-05-02T07:46:18Z</time>
      </trkpt>
      <trkpt lat="49.42131" lon="1.12487">
        <ele>148.1</ele>
        <time>2021-05-02T07:46:20Z</time>
      </trkpt>
      <trkpt lat="49.4214" lon="1.12487">
        <ele>148.1</ele>
        <time>2021-05-02T07:46:22Z</time>
      </trkpt>
      <trkpt lat="49.42147" lon="1.12488">
        <ele>148.1</ele>
        <time>2021-05-02T07:46:24Z</time>
      </trkpt>
      <trkpt lat="49.42154" lon="1.12487">
        <ele>148.1</ele>
        <time>2021-05-02T07:46:26Z</time>
      </trkpt>
      <trkpt lat="49.4216" lon="1.12485">
        <ele>148.1</ele>
        <time>2021-05-02T07:46:28Z</time>
      </trkpt>
      <trkpt lat="49.42165" lon="1.12481">
        <ele>148.1</ele>
        <time>2021-05-02T07:46:29Z</time>
      </trkpt>
      <trkpt lat="49.42171" lon="1.12478">
        <ele>148.1</ele>
        <time>2021-05-02T07:46:31Z</time>
      </trkpt>
      <trkpt lat="49.42177" lon="1.12475">
        <ele>148.1</ele>
        <time>2021-05-02T07:46:32Z</time>
      </trkpt>
      <trkpt lat="49.4218" lon="1.12473">
        <ele>148</ele>
        <time>2021-05-02T07:46:33Z</time>
      </trkpt>
      <trkpt lat="49.42186" lon="1.12469">
        <ele>148</ele>
        <time>2021-05-02T07:46:35Z</time>
      </trkpt>
      <trkpt lat="49.42191" lon="1.12466">
        <ele>148</ele>
        <time>2021-05-02T07:46:37Z</time>
      </trkpt>
      <trkpt lat="49.42195" lon="1.12461">
        <ele>148</ele>
        <time>2021-05-02T07:46:38Z</time>
      </trkpt>
      <trkpt lat="49.42199" lon="1.1246">
        <ele>148</ele>
        <time>2021-05-02T07:46:39Z</time>
      </trkpt>
      <trkpt lat="49.42202" lon="1.12458">
        <ele>148</ele>
        <time>2021-05-02T07:46:40Z</time>
      </trkpt>
      <trkpt lat="49.42208" lon="1.12454">
        <ele>147.9</ele>
        <time>2021-05-02T07:46:42Z</time>
      </trkpt>
      <trkpt lat="49.42211" lon="1.12452">
        <ele>147.9</ele>
        <time>2021-05-02T07:46:43Z</time>
      </trkpt>
      <trkpt lat="49.42214" lon="1.12444">
        <ele>147.9</ele>
        <time>2021-05-02T07:46:45Z</time>
      </trkpt>
      <trkpt lat="49.42214" lon="1.12439">
        <ele>147.9</ele>
        <time>2021-05-02T07:46:46Z</time>
      </trkpt>
      <trkpt lat="49.42211" lon="1.12433">
        <ele>147.9</ele>
        <time>2021-05-02T07:46:48Z</time>
      </trkpt>
      <trkpt lat="49.42208" lon="1.12427">
        <ele>147.9</ele>
        <time>2021-05-02T07:46:49Z</time>
      </trkpt>
      <trkpt lat="49.42205" lon="1.12422">
        <ele>147.9</ele>
        <time>2021-05-02T07:46:50Z</time>
      </trkpt>
      <trkpt lat="49.42202" lon="1.12413">
        <ele>147.9</ele>
        <time>2021-05-02T07:46:52Z</time>
      </trkpt>
      <trkpt lat="49.42201" lon="1.12409">
        <ele>147.9</ele>
        <time>2021-05-02T07:46:53Z</time>
      </trkpt>
      <trkpt lat="49.422" lon="1.12402">
        <ele>147.9</ele>
        <time>2021-05-02T07:46:55Z</time>
      </trkpt>
      <trkpt lat="49.42199" lon="1.12397">
        <ele>147.9</ele>
        <time>2021-05-02T07:46:56Z</time>
      </trkpt>
      <trkpt lat="49.42197" lon="1.12392">
        <ele>147.9</ele>
        <time>2021-05-02T07:46:57Z</time>
      </trkpt>
      <trkpt lat="49.42195" lon="1.12384">
        <ele>147.9</ele>
        <time>2021-05-02T07:46:59Z</time>
      </trkpt>
      <trkpt lat="49.42195" lon="1.1238">
        <ele>147.9</ele>
        <time>2021-05-02T07:47:00Z</time>
      </trkpt>
      <trkpt lat="49.42194" lon="1.12375">
        <ele>147.9</ele>
        <time>2021-05-02T07:47:01Z</time>
      </trkpt>
      <trkpt lat="49.42193" lon="1.12371">
        <ele>147.9</ele>
        <time>2021-05-02T07:47:02Z</time>
      </trkpt>
      <trkpt lat="49.42191" lon="1.12362">
        <ele>147.9</ele>
        <time>2021-05-02T07:47:04Z</time>
      </trkpt>
      <trkpt lat="49.4219" lon="1.12358">
        <ele>147.9</ele>
        <time>2021-05-02T07:47:05Z</time>
      </trkpt>
      <trkpt lat="49.42188" lon="1.12353">
        <ele>147.9</ele>
        <time>2021-05-02T07:47:06Z</time>
      </trkpt>
      <trkpt lat="49.42187" lon="1.12348">
        <ele>147.9</ele>
        <time>2021-05-02T07:47:08Z</time>
      </trkpt>
      <trkpt lat="49.42186" lon="1.12344">
        <ele>148</ele>
        <time>2021-05-02T07:47:09Z</time>
      </trkpt>
      <trkpt lat="49.42184" lon="1.12341">
        <ele>147.9</ele>
        <time>2021-05-02T07:47:10Z</time>
      </trkpt>
      <trkpt lat="49.42182" lon="1.12335">
        <ele>147.9</ele>
        <time>2021-05-02T07:47:12Z</time>
      </trkpt>
      <trkpt lat="49.42181" lon="1.1233">
        <ele>147.9</ele>
        <time>2021-05-02T07:47:13Z</time>
      </trkpt>
      <trkpt lat="49.42181" lon="1.12325">
        <ele>147.9</ele>
        <time>2021-05-02T07:47:14Z</time>
      </trkpt>
      <trkpt lat="49.4218" lon="1.12316">
        <ele>147.9</ele>
        <time>2021-05-02T07:47:16Z</time>
      </trkpt>
      <trkpt lat="49.42179" lon="1.12309">
        <ele>147.8</ele>
        <time>2021-05-02T07:47:18Z</time>
      </trkpt>
      <trkpt lat="49.42178" lon="1.12305">
        <ele>147.8</ele>
        <time>2021-05-02T07:47:19Z</time>
      </trkpt>
      <trkpt lat="49.42179" lon="1.12299">
        <ele>147.8</ele>
        <time>2021-05-02T07:47:20Z</time>
      </trkpt>
      <trkpt lat="49.42179" lon="1.12293">
        <ele>147.7</ele>
        <time>2021-05-02T07:47:21Z</time>
      </trkpt>
      <trkpt lat="49.42179" lon="1.12287">
        <ele>147.7</ele>
        <time>2021-05-02T07:47:22Z</time>
      </trkpt>
      <trkpt lat="49.42179" lon="1.12278">
        <ele>147.6</ele>
        <time>2021-05-02T07:47:24Z</time>
      </trkpt>
      <trkpt lat="49.42179" lon="1.12273">
        <ele>147.6</ele>
        <time>2021-05-02T07:47:25Z</time>
      </trkpt>
      <trkpt lat="49.4218" lon="1.12268">
        <ele>147.5</ele>
        <time>2021-05-02T07:47:26Z</time>
      </trkpt>
      <trkpt lat="49.4218" lon="1.12263">
        <ele>147.5</ele>
        <time>2021-05-02T07:47:28Z</time>
      </trkpt>
      <trkpt lat="49.42179" lon="1.12257">
        <ele>147.4</ele>
        <time>2021-05-02T07:47:29Z</time>
      </trkpt>
      <trkpt lat="49.42178" lon="1.12253">
        <ele>147.4</ele>
        <time>2021-05-02T07:47:30Z</time>
      </trkpt>
      <trkpt lat="49.42176" lon="1.12249">
        <ele>147.3</ele>
        <time>2021-05-02T07:47:31Z</time>
      </trkpt>
      <trkpt lat="49.42175" lon="1.12243">
        <ele>147.2</ele>
        <time>2021-05-02T07:47:33Z</time>
      </trkpt>
      <trkpt lat="49.42174" lon="1.12239">
        <ele>147.1</ele>
        <time>2021-05-02T07:47:34Z</time>
      </trkpt>
      <trkpt lat="49.42173" lon="1.12231">
        <ele>146.9</ele>
        <time>2021-05-02T07:47:36Z</time>
      </trkpt>
      <trkpt lat="49.42172" lon="1.12224">
        <ele>146.7</ele>
        <time>2021-05-02T07:47:38Z</time>
      </trkpt>
      <trkpt lat="49.42172" lon="1.12219">
        <ele>146.7</ele>
        <time>2021-05-02T07:47:39Z</time>
      </trkpt>
      <trkpt lat="49.42171" lon="1.12209">
        <ele>146.4</ele>
        <time>2021-05-02T07:47:41Z</time>
      </trkpt>
      <trkpt lat="49.4217" lon="1.12203">
        <ele>146.3</ele>
        <time>2021-05-02T07:47:43Z</time>
      </trkpt>
      <trkpt lat="49.4217" lon="1.12198">
        <ele>146.2</ele>
        <time>2021-05-02T07:47:44Z</time>
      </trkpt>
      <trkpt lat="49.4217" lon="1.12191">
        <ele>146.1</ele>
        <time>2021-05-02T07:47:45Z</time>
      </trkpt>
      <trkpt lat="49.42172" lon="1.12182">
        <ele>145.9</ele>
        <time>2021-05-02T07:47:47Z</time>
      </trkpt>
      <trkpt lat="49.42174" lon="1.12176">
        <ele>145.7</ele>
        <time>2021-05-02T07:47:48Z</time>
      </trkpt>
      <trkpt lat="49.42174" lon="1.12171">
        <ele>145.6</ele>
        <time>2021-05-02T07:47:49Z</time>
      </trkpt>
      <trkpt lat="49.42175" lon="1.12166">
        <ele>145.5</ele>
        <time>2021-05-02T07:47:50Z</time>
      </trkpt>
      <trkpt lat="49.42175" lon="1.1216">
        <ele>145.4</ele>
        <time>2021-05-02T07:47:52Z</time>
      </trkpt>
      <trkpt lat="49.42175" lon="1.12156">
        <ele>145.4</ele>
        <time>2021-05-02T07:47:53Z</time>
      </trkpt>
      <trkpt lat="49.42176" lon="1.12151">
        <ele>145.3</ele>
        <time>2021-05-02T07:47:55Z</time>
      </trkpt>
      <trkpt lat="49.42176" lon="1.12148">
        <ele>145.2</ele>
        <time>2021-05-02T07:47:56Z</time>
      </trkpt>
      <trkpt lat="49.42177" lon="1.12144">
        <ele>144</ele>
        <time>2021-05-02T07:47:58Z</time>
      </trkpt>
      <trkpt lat="49.42176" lon="1.1214">
        <ele>141.3</ele>
        <time>2021-05-02T07:47:59Z</time>
      </trkpt>
      <trkpt lat="49.42176" lon="1.12138">
        <ele>140.1</ele>
        <time>2021-05-02T07:48:00Z</time>
      </trkpt>
      <trkpt lat="49.42175" lon="1.12135">
        <ele>138.5</ele>
        <time>2021-05-02T07:48:02Z</time>
      </trkpt>
      <trkpt lat="49.42174" lon="1.12136">
        <ele>137.4</ele>
        <time>2021-05-02T07:48:03Z</time>
      </trkpt>
      <trkpt lat="49.42172" lon="1.12135">
        <ele>134.9</ele>
        <time>2021-05-02T07:48:05Z</time>
      </trkpt>
      <trkpt lat="49.4217" lon="1.12134">
        <ele>132.4</ele>
        <time>2021-05-02T07:48:06Z</time>
      </trkpt>
      <trkpt lat="49.42166" lon="1.1213">
        <ele>131.8</ele>
        <time>2021-05-02T07:48:08Z</time>
      </trkpt>
      <trkpt lat="49.42165" lon="1.12128">
        <ele>131.5</ele>
        <time>2021-05-02T07:48:10Z</time>
      </trkpt>
      <trkpt lat="49.42165" lon="1.12128">
        <ele>131.4</ele>
        <time>2021-05-02T07:48:12Z</time>
      </trkpt>
      <trkpt lat="49.42164" lon="1.12127">
        <ele>131.3</ele>
        <time>2021-05-02T07:48:14Z</time>
      </trkpt>
      <trkpt lat="49.42163" lon="1.12126">
        <ele>131.1</ele>
        <time>2021-05-02T07:48:16Z</time>
      </trkpt>
      <trkpt lat="49.42162" lon="1.12125">
        <ele>131</ele>
        <time>2021-05-02T07:48:17Z</time>
      </trkpt>
      <trkpt lat="49.42162" lon="1.12125">
        <ele>130.9</ele>
        <time>2021-05-02T07:48:19Z</time>
      </trkpt>
      <trkpt lat="49.42161" lon="1.12124">
        <ele>130.7</ele>
        <time>2021-05-02T07:48:21Z</time>
      </trkpt>
      <trkpt lat="49.4216" lon="1.12123">
        <ele>130.6</ele>
        <time>2021-05-02T07:48:22Z</time>
      </trkpt>
      <trkpt lat="49.42159" lon="1.12121">
        <ele>130.3</ele>
        <time>2021-05-02T07:48:23Z</time>
      </trkpt>
      <trkpt lat="49.42158" lon="1.12119">
        <ele>130.1</ele>
        <time>2021-05-02T07:48:24Z</time>
      </trkpt>
      <trkpt lat="49.42158" lon="1.12118">
        <ele>130</ele>
        <time>2021-05-02T07:48:26Z</time>
      </trkpt>
      <trkpt lat="49.42158" lon="1.12118">
        <ele>130</ele>
        <time>2021-05-02T07:48:27Z</time>
      </trkpt>
      <trkpt lat="49.42158" lon="1.12118">
        <ele>129.9</ele>
        <time>2021-05-02T07:48:29Z</time>
      </trkpt>
      <trkpt lat="49.42157" lon="1.12117">
        <ele>129.1</ele>
        <time>2021-05-02T07:48:31Z</time>
      </trkpt>
      <trkpt lat="49.42157" lon="1.12117">
        <ele>129.2</ele>
        <time>2021-05-02T07:48:32Z</time>
      </trkpt>
      <trkpt lat="49.42156" lon="1.12116">
        <ele>129.2</ele>
        <time>2021-05-02T07:48:34Z</time>
      </trkpt>
      <trkpt lat="49.42146" lon="1.1212">
        <ele>129.7</ele>
        <time>2021-05-02T07:49:00Z</time>
      </trkpt>
      <trkpt lat="49.42145" lon="1.1212">
        <ele>129.7</ele>
        <time>2021-05-02T07:49:01Z</time>
      </trkpt>
      <trkpt lat="49.42143" lon="1.1212">
        <ele>129.8</ele>
        <time>2021-05-02T07:49:02Z</time>
      </trkpt>
      <trkpt lat="49.42142" lon="1.12119">
        <ele>129.9</ele>
        <time>2021-05-02T07:49:03Z</time>
      </trkpt>
      <trkpt lat="49.42139" lon="1.12114">
        <ele>130.1</ele>
        <time>2021-05-02T07:49:05Z</time>
      </trkpt>
      <trkpt lat="49.4214" lon="1.12111">
        <ele>130.2</ele>
        <time>2021-05-02T07:49:06Z</time>
      </trkpt>
      <trkpt lat="49.42142" lon="1.12109">
        <ele>130.3</ele>
        <time>2021-05-02T07:49:08Z</time>
      </trkpt>
      <trkpt lat="49.42143" lon="1.12107">
        <ele>130.4</ele>
        <time>2021-05-02T07:49:09Z</time>
      </trkpt>
      <trkpt lat="49.42146" lon="1.12105">
        <ele>129.2</ele>
        <time>2021-05-02T07:49:10Z</time>
      </trkpt>
      <trkpt lat="49.42153" lon="1.12102">
        <ele>127.6</ele>
        <time>2021-05-02T07:49:11Z</time>
      </trkpt>
      <trkpt lat="49.42157" lon="1.12102">
        <ele>127.1</ele>
        <time>2021-05-02T07:49:12Z</time>
      </trkpt>
      <trkpt lat="49.42161" lon="1.12103">
        <ele>126.8</ele>
        <time>2021-05-02T07:49:14Z</time>
      </trkpt>
      <trkpt lat="49.42166" lon="1.12103">
        <ele>126.6</ele>
        <time>2021-05-02T07:49:15Z</time>
      </trkpt>
      <trkpt lat="49.42171" lon="1.12106">
        <ele>126.5</ele>
        <time>2021-05-02T07:49:16Z</time>
      </trkpt>
      <trkpt lat="49.42178" lon="1.12111">
        <ele>126.5</ele>
        <time>2021-05-02T07:49:17Z</time>
      </trkpt>
      <trkpt lat="49.42184" lon="1.12115">
        <ele>126.5</ele>
        <time>2021-05-02T07:49:19Z</time>
      </trkpt>
      <trkpt lat="49.42188" lon="1.12121">
        <ele>126.5</ele>
        <time>2021-05-02T07:49:20Z</time>
      </trkpt>
      <trkpt lat="49.42189" lon="1.12125">
        <ele>126.5</ele>
        <time>2021-05-02T07:49:22Z</time>
      </trkpt>
      <trkpt lat="49.42189" lon="1.12129">
        <ele>126.5</ele>
        <time>2021-05-02T07:49:23Z</time>
      </trkpt>
      <trkpt lat="49.42187" lon="1.12135">
        <ele>126.5</ele>
        <time>2021-05-02T07:49:24Z</time>
      </trkpt>
      <trkpt lat="49.42186" lon="1.12137">
        <ele>126.5</ele>
        <time>2021-05-02T07:49:25Z</time>
      </trkpt>
      <trkpt lat="49.42185" lon="1.12137">
        <ele>126.5</ele>
        <time>2021-05-02T07:49:26Z</time>
      </trkpt>
      <trkpt lat="49.42184" lon="1.12136">
        <ele>126.5</ele>
        <time>2021-05-02T07:49:27Z</time>
      </trkpt>
      <trkpt lat="49.42183" lon="1.12134">
        <ele>126.5</ele>
        <time>2021-05-02T07:49:29Z</time>
      </trkpt>
      <trkpt lat="49.42182" lon="1.12133">
        <ele>126.5</ele>
        <time>2021-05-02T07:49:30Z</time>
      </trkpt>
      <trkpt lat="49.4218" lon="1.12133">
        <ele>126.5</ele>
        <time>2021-05-02T07:49:31Z</time>
      </trkpt>
      <trkpt lat="49.42179" lon="1.12135">
        <ele>126.5</ele>
        <time>2021-05-02T07:49:32Z</time>
      </trkpt>
      <trkpt lat="49.42178" lon="1.12136">
        <ele>126.5</ele>
        <time>2021-05-02T07:49:33Z</time>
      </trkpt>
      <trkpt lat="49.42174" lon="1.12137">
        <ele>126.5</ele>
        <time>2021-05-02T07:49:35Z</time>
      </trkpt>
      <trkpt lat="49.42172" lon="1.12137">
        <ele>126.5</ele>
        <time>2021-05-02T07:49:36Z</time>
      </trkpt>
      <trkpt lat="49.42169" lon="1.12136">
        <ele>126.5</ele>
        <time>2021-05-02T07:49:37Z</time>
      </trkpt>
      <trkpt lat="49.42169" lon="1.12135">
        <ele>126.5</ele>
        <time>2021-05-02T07:49:38Z</time>
      </trkpt>
      <trkpt lat="49.42166" lon="1.12135">
        <ele>134.3</ele>
        <time>2021-05-02T07:49:39Z</time>
      </trkpt>
      <trkpt lat="49.42165" lon="1.12135">
        <ele>134.3</ele>
        <time>2021-05-02T07:49:40Z</time>
      </trkpt>
      <trkpt lat="49.42161" lon="1.12133">
        <ele>134.2</ele>
        <time>2021-05-02T07:49:41Z</time>
      </trkpt>
      <trkpt lat="49.42158" lon="1.1213">
        <ele>134.2</ele>
        <time>2021-05-02T07:49:42Z</time>
      </trkpt>
      <trkpt lat="49.42154" lon="1.12126">
        <ele>134.2</ele>
        <time>2021-05-02T07:49:44Z</time>
      </trkpt>
      <trkpt lat="49.42153" lon="1.12123">
        <ele>134.2</ele>
        <time>2021-05-02T07:49:45Z</time>
      </trkpt>
      <trkpt lat="49.42153" lon="1.12122">
        <ele>134.2</ele>
        <time>2021-05-02T07:49:46Z</time>
      </trkpt>
      <trkpt lat="49.42154" lon="1.12123">
        <ele>134.2</ele>
        <time>2021-05-02T07:49:48Z</time>
      </trkpt>
      <trkpt lat="49.42155" lon="1.12127">
        <ele>134.1</ele>
        <time>2021-05-02T07:49:50Z</time>
      </trkpt>
      <trkpt lat="49.42153" lon="1.12129">
        <ele>134.1</ele>
        <time>2021-05-02T07:49:52Z</time>
      </trkpt>
      <trkpt lat="49.42154" lon="1.12131">
        <ele>134.1</ele>
        <time>2021-05-02T07:49:53Z</time>
      </trkpt>
      <trkpt lat="49.42155" lon="1.12132">
        <ele>134.1</ele>
        <time>2021-05-02T07:49:55Z</time>
      </trkpt>
      <trkpt lat="49.42155" lon="1.12132">
        <ele>134.1</ele>
        <time>2021-05-02T07:49:56Z</time>
      </trkpt>
      <trkpt lat="49.42155" lon="1.12133">
        <ele>134.1</ele>
        <time>2021-05-02T07:49:57Z</time>
      </trkpt>
      <trkpt lat="49.42155" lon="1.12133">
        <ele>134.1</ele>
        <time>2021-05-02T07:49:58Z</time>
      </trkpt>
      <trkpt lat="49.42155" lon="1.12134">
        <ele>134.1</ele>
        <time>2021-05-02T07:50:00Z</time>
      </trkpt>
      <trkpt lat="49.42155" lon="1.12134">
        <ele>134.1</ele>
        <time>2021-05-02T07:50:01Z</time>
      </trkpt>
      <trkpt lat="49.42155" lon="1.12135">
        <ele>134.1</ele>
        <time>2021-05-02T07:50:02Z</time>
      </trkpt>
      <trkpt lat="49.42155" lon="1.12135">
        <ele>134.1</ele>
        <time>2021-05-02T07:50:04Z</time>
      </trkpt>
      <trkpt lat="49.42155" lon="1.12136">
        <ele>134.1</ele>
        <time>2021-05-02T07:50:05Z</time>
      </trkpt>
      <trkpt lat="49.42155" lon="1.12136">
        <ele>134.1</ele>
        <time>2021-05-02T07:50:06Z</time>
      </trkpt>
      <trkpt lat="49.42158" lon="1.12137">
        <ele>134.1</ele>
        <time>2021-05-02T07:50:07Z</time>
      </trkpt>
      <trkpt lat="49.42162" lon="1.12136">
        <ele>134</ele>
        <time>2021-05-02T07:50:09Z</time>
      </trkpt>
      <trkpt lat="49.42165" lon="1.12135">
        <ele>134</ele>
        <time>2021-05-02T07:50:10Z</time>
      </trkpt>
      <trkpt lat="49.42168" lon="1.12134">
        <ele>145</ele>
        <time>2021-05-02T07:50:11Z</time>
      </trkpt>
      <trkpt lat="49.4217" lon="1.12134">
        <ele>144.9</ele>
        <time>2021-05-02T07:50:12Z</time>
      </trkpt>
      <trkpt lat="49.42174" lon="1.12135">
        <ele>144.7</ele>
        <time>2021-05-02T07:50:14Z</time>
      </trkpt>
      <trkpt lat="49.42177" lon="1.12135">
        <ele>144.6</ele>
        <time>2021-05-02T07:50:15Z</time>
      </trkpt>
      <trkpt lat="49.42179" lon="1.12135">
        <ele>144.5</ele>
        <time>2021-05-02T07:50:16Z</time>
      </trkpt>
      <trkpt lat="49.42181" lon="1.12136">
        <ele>144.4</ele>
        <time>2021-05-02T07:50:18Z</time>
      </trkpt>
      <trkpt lat="49.42185" lon="1.12136">
        <ele>144.1</ele>
        <time>2021-05-02T07:50:19Z</time>
      </trkpt>
      <trkpt lat="49.42186" lon="1.12137">
        <ele>144.1</ele>
        <time>2021-05-02T07:50:20Z</time>
      </trkpt>
      <trkpt lat="49.42188" lon="1.12136">
        <ele>143.9</ele>
        <time>2021-05-02T07:50:22Z</time>
      </trkpt>
      <trkpt lat="49.42189" lon="1.12138">
        <ele>143.8</ele>
        <time>2021-05-02T07:50:23Z</time>
      </trkpt>
      <trkpt lat="49.42192" lon="1.12135">
        <ele>143.5</ele>
        <time>2021-05-02T07:50:25Z</time>
      </trkpt>
      <trkpt lat="49.42193" lon="1.12135">
        <ele>143.4</ele>
        <time>2021-05-02T07:50:26Z</time>
      </trkpt>
      <trkpt lat="49.42196" lon="1.1213">
        <ele>143</ele>
        <time>2021-05-02T07:50:28Z</time>
      </trkpt>
      <trkpt lat="49.42196" lon="1.12129">
        <ele>142.9</ele>
        <time>2021-05-02T07:50:29Z</time>
      </trkpt>
      <trkpt lat="49.42197" lon="1.12123">
        <ele>142.4</ele>
        <time>2021-05-02T07:50:30Z</time>
      </trkpt>
      <trkpt lat="49.42197" lon="1.12114">
        <ele>141.5</ele>
        <time>2021-05-02T07:50:32Z</time>
      </trkpt>
      <trkpt lat="49.42198" lon="1.12107">
        <ele>140.9</ele>
        <time>2021-05-02T07:50:33Z</time>
      </trkpt>
      <trkpt lat="49.422" lon="1.12101">
        <ele>140.2</ele>
        <time>2021-05-02T07:50:34Z</time>
      </trkpt>
      <trkpt lat="49.42205" lon="1.12093">
        <ele>139.2</ele>
        <time>2021-05-02T07:50:35Z</time>
      </trkpt>
      <trkpt lat="49.4221" lon="1.12085">
        <ele>138.3</ele>
        <time>2021-05-02T07:50:37Z</time>
      </trkpt>
      <trkpt lat="49.42213" lon="1.12079">
        <ele>137.8</ele>
        <time>2021-05-02T07:50:38Z</time>
      </trkpt>
      <trkpt lat="49.42224" lon="1.12065">
        <ele>136.1</ele>
        <time>2021-05-02T07:50:39Z</time>
      </trkpt>
      <trkpt lat="49.42228" lon="1.12056">
        <ele>135.1</ele>
        <time>2021-05-02T07:50:40Z</time>
      </trkpt>
      <trkpt lat="49.42231" lon="1.12048">
        <ele>134.2</ele>
        <time>2021-05-02T07:50:41Z</time>
      </trkpt>
      <trkpt lat="49.42232" lon="1.12041">
        <ele>133.6</ele>
        <time>2021-05-02T07:50:43Z</time>
      </trkpt>
      <trkpt lat="49.42233" lon="1.12037">
        <ele>133</ele>
        <time>2021-05-02T07:50:44Z</time>
      </trkpt>
      <trkpt lat="49.42234" lon="1.12035">
        <ele>132.8</ele>
        <time>2021-05-02T07:50:45Z</time>
      </trkpt>
      <trkpt lat="49.42234" lon="1.12034">
        <ele>132.6</ele>
        <time>2021-05-02T07:50:46Z</time>
      </trkpt>
      <trkpt lat="49.42236" lon="1.12033">
        <ele>132.3</ele>
        <time>2021-05-02T07:50:48Z</time>
      </trkpt>
      <trkpt lat="49.42235" lon="1.12032">
        <ele>132.4</ele>
        <time>2021-05-02T07:50:49Z</time>
      </trkpt>
      <trkpt lat="49.42235" lon="1.12034">
        <ele>132.7</ele>
        <time>2021-05-02T07:50:51Z</time>
      </trkpt>
      <trkpt lat="49.42235" lon="1.12035">
        <ele>132.8</ele>
        <time>2021-05-02T07:50:53Z</time>
      </trkpt>
      <trkpt lat="49.42234" lon="1.12035">
        <ele>132.9</ele>
        <time>2021-05-02T07:50:54Z</time>
      </trkpt>
      <trkpt lat="49.42234" lon="1.12035">
        <ele>132.9</ele>
        <time>2021-05-02T07:50:56Z</time>
      </trkpt>
      <trkpt lat="49.42234" lon="1.12035">
        <ele>133</ele>
        <time>2021-05-02T07:50:57Z</time>
      </trkpt>
      <trkpt lat="49.42233" lon="1.12037">
        <ele>133.2</ele>
        <time>2021-05-02T07:50:59Z</time>
      </trkpt>
      <trkpt lat="49.42233" lon="1.1204">
        <ele>133.5</ele>
        <time>2021-05-02T07:51:00Z</time>
      </trkpt>
      <trkpt lat="49.42232" lon="1.12043">
        <ele>133.8</ele>
        <time>2021-05-02T07:51:01Z</time>
      </trkpt>
      <trkpt lat="49.42232" lon="1.12047">
        <ele>134.2</ele>
        <time>2021-05-02T07:51:03Z</time>
      </trkpt>
      <trkpt lat="49.42232" lon="1.12051">
        <ele>134.6</ele>
        <time>2021-05-02T07:51:04Z</time>
      </trkpt>
      <trkpt lat="49.42231" lon="1.12055">
        <ele>135</ele>
        <time>2021-05-02T07:51:06Z</time>
      </trkpt>
      <trkpt lat="49.42229" lon="1.12059">
        <ele>135.4</ele>
        <time>2021-05-02T07:51:07Z</time>
      </trkpt>
      <trkpt lat="49.42227" lon="1.12063">
        <ele>135.8</ele>
        <time>2021-05-02T07:51:09Z</time>
      </trkpt>
      <trkpt lat="49.42227" lon="1.12064">
        <ele>135.9</ele>
        <time>2021-05-02T07:51:10Z</time>
      </trkpt>
      <trkpt lat="49.42227" lon="1.12065">
        <ele>135.9</ele>
        <time>2021-05-02T07:51:12Z</time>
      </trkpt>
      <trkpt lat="49.42227" lon="1.12065">
        <ele>135.9</ele>
        <time>2021-05-02T07:51:13Z</time>
      </trkpt>
      <trkpt lat="49.42227" lon="1.12065">
        <ele>135.9</ele>
        <time>2021-05-02T07:51:15Z</time>
      </trkpt>
      <trkpt lat="49.42227" lon="1.12065">
        <ele>136</ele>
        <time>2021-05-02T07:51:16Z</time>
      </trkpt>
      <trkpt lat="49.42227" lon="1.12065">
        <ele>136</ele>
        <time>2021-05-02T07:51:17Z</time>
      </trkpt>
      <trkpt lat="49.42225" lon="1.12067">
        <ele>136.2</ele>
        <time>2021-05-02T07:51:18Z</time>
      </trkpt>
      <trkpt lat="49.42221" lon="1.12072">
        <ele>136.8</ele>
        <time>2021-05-02T07:51:20Z</time>
      </trkpt>
      <trkpt lat="49.42217" lon="1.12077">
        <ele>137.4</ele>
        <time>2021-05-02T07:51:21Z</time>
      </trkpt>
      <trkpt lat="49.42212" lon="1.12084">
        <ele>138.2</ele>
        <time>2021-05-02T07:51:23Z</time>
      </trkpt>
      <trkpt lat="49.42209" lon="1.1209">
        <ele>138.8</ele>
        <time>2021-05-02T07:51:24Z</time>
      </trkpt>
      <trkpt lat="49.42206" lon="1.12095">
        <ele>139.2</ele>
        <time>2021-05-02T07:51:26Z</time>
      </trkpt>
      <trkpt lat="49.42205" lon="1.12099">
        <ele>139.6</ele>
        <time>2021-05-02T07:51:27Z</time>
      </trkpt>
      <trkpt lat="49.42204" lon="1.121">
        <ele>139.7</ele>
        <time>2021-05-02T07:51:28Z</time>
      </trkpt>
      <trkpt lat="49.42203" lon="1.12106">
        <ele>140.2</ele>
        <time>2021-05-02T07:51:30Z</time>
      </trkpt>
      <trkpt lat="49.42203" lon="1.12108">
        <ele>140.4</ele>
        <time>2021-05-02T07:51:31Z</time>
      </trkpt>
      <trkpt lat="49.422" lon="1.12113">
        <ele>141</ele>
        <time>2021-05-02T07:51:33Z</time>
      </trkpt>
      <trkpt lat="49.42199" lon="1.12119">
        <ele>141.5</ele>
        <time>2021-05-02T07:51:35Z</time>
      </trkpt>
      <trkpt lat="49.42198" lon="1.12123">
        <ele>141.9</ele>
        <time>2021-05-02T07:51:36Z</time>
      </trkpt>
      <trkpt lat="49.42196" lon="1.12126">
        <ele>142.3</ele>
        <time>2021-05-02T07:51:37Z</time>
      </trkpt>
      <trkpt lat="49.42193" lon="1.12129">
        <ele>142.7</ele>
        <time>2021-05-02T07:51:38Z</time>
      </trkpt>
      <trkpt lat="49.42191" lon="1.12132">
        <ele>143.1</ele>
        <time>2021-05-02T07:51:39Z</time>
      </trkpt>
      <trkpt lat="49.42188" lon="1.12134">
        <ele>143.4</ele>
        <time>2021-05-02T07:51:40Z</time>
      </trkpt>
      <trkpt lat="49.42187" lon="1.12135">
        <ele>143.5</ele>
        <time>2021-05-02T07:51:41Z</time>
      </trkpt>
      <trkpt lat="49.42185" lon="1.12136">
        <ele>143.7</ele>
        <time>2021-05-02T07:51:43Z</time>
      </trkpt>
      <trkpt lat="49.42184" lon="1.12137">
        <ele>143.8</ele>
        <time>2021-05-02T07:51:44Z</time>
      </trkpt>
      <trkpt lat="49.42183" lon="1.12137">
        <ele>143.9</ele>
        <time>2021-05-02T07:51:45Z</time>
      </trkpt>
      <trkpt lat="49.42183" lon="1.12137">
        <ele>143.9</ele>
        <time>2021-05-02T07:51:46Z</time>
      </trkpt>
      <trkpt lat="49.42182" lon="1.12138">
        <ele>144</ele>
        <time>2021-05-02T07:51:48Z</time>
      </trkpt>
      <trkpt lat="49.42181" lon="1.12139">
        <ele>144</ele>
        <time>2021-05-02T07:51:50Z</time>
      </trkpt>
      <trkpt lat="49.42181" lon="1.12139">
        <ele>144.1</ele>
        <time>2021-05-02T07:51:51Z</time>
      </trkpt>
      <trkpt lat="49.42182" lon="1.12139">
        <ele>144.1</ele>
        <time>2021-05-02T07:51:53Z</time>
      </trkpt>
      <trkpt lat="49.42182" lon="1.12139">
        <ele>144.1</ele>
        <time>2021-05-02T07:51:55Z</time>
      </trkpt>
      <trkpt lat="49.42182" lon="1.12139">
        <ele>144.1</ele>
        <time>2021-05-02T07:51:58Z</time>
      </trkpt>
      <trkpt lat="49.42182" lon="1.12139">
        <ele>144.1</ele>
        <time>2021-05-02T07:52:00Z</time>
      </trkpt>
      <trkpt lat="49.42182" lon="1.12139">
        <ele>144.1</ele>
        <time>2021-05-02T07:52:01Z</time>
      </trkpt>
      <trkpt lat="49.42179" lon="1.12145">
        <ele>144.4</ele>
        <time>2021-05-02T07:52:10Z</time>
      </trkpt>
      <trkpt lat="49.42178" lon="1.12147">
        <ele>144.4</ele>
        <time>2021-05-02T07:52:12Z</time>
      </trkpt>
      <trkpt lat="49.42179" lon="1.12146">
        <ele>144.5</ele>
        <time>2021-05-02T07:52:14Z</time>
      </trkpt>
      <trkpt lat="49.42179" lon="1.12146">
        <ele>144.5</ele>
        <time>2021-05-02T07:52:15Z</time>
      </trkpt>
      <trkpt lat="49.42179" lon="1.12146">
        <ele>144.5</ele>
        <time>2021-05-02T07:52:17Z</time>
      </trkpt>
      <trkpt lat="49.42179" lon="1.12146">
        <ele>144.5</ele>
        <time>2021-05-02T07:52:18Z</time>
      </trkpt>
      <trkpt lat="49.42179" lon="1.12146">
        <ele>144.5</ele>
        <time>2021-05-02T07:52:20Z</time>
      </trkpt>
      <trkpt lat="49.42179" lon="1.12147">
        <ele>144.5</ele>
        <time>2021-05-02T07:52:22Z</time>
      </trkpt>
      <trkpt lat="49.42179" lon="1.12148">
        <ele>144.6</ele>
        <time>2021-05-02T07:52:24Z</time>
      </trkpt>
      <trkpt lat="49.42179" lon="1.12149">
        <ele>144.6</ele>
        <time>2021-05-02T07:52:25Z</time>
      </trkpt>
      <trkpt lat="49.42179" lon="1.12149">
        <ele>144.6</ele>
        <time>2021-05-02T07:52:26Z</time>
      </trkpt>
      <trkpt lat="49.42178" lon="1.12151">
        <ele>145.3</ele>
        <time>2021-05-02T07:52:27Z</time>
      </trkpt>
      <trkpt lat="49.42177" lon="1.12152">
        <ele>145.3</ele>
        <time>2021-05-02T07:52:29Z</time>
      </trkpt>
      <trkpt lat="49.42176" lon="1.12153">
        <ele>145.3</ele>
        <time>2021-05-02T07:52:30Z</time>
      </trkpt>
      <trkpt lat="49.42176" lon="1.12153">
        <ele>145.3</ele>
        <time>2021-05-02T07:52:31Z</time>
      </trkpt>
      <trkpt lat="49.42174" lon="1.12156">
        <ele>145.4</ele>
        <time>2021-05-02T07:52:32Z</time>
      </trkpt>
      <trkpt lat="49.42174" lon="1.12158">
        <ele>145.4</ele>
        <time>2021-05-02T07:52:33Z</time>
      </trkpt>
      <trkpt lat="49.42173" lon="1.1216">
        <ele>145.5</ele>
        <time>2021-05-02T07:52:35Z</time>
      </trkpt>
      <trkpt lat="49.42173" lon="1.12162">
        <ele>145.5</ele>
        <time>2021-05-02T07:52:36Z</time>
      </trkpt>
      <trkpt lat="49.42173" lon="1.12163">
        <ele>145.5</ele>
        <time>2021-05-02T07:52:37Z</time>
      </trkpt>
      <trkpt lat="49.42172" lon="1.12168">
        <ele>145.6</ele>
        <time>2021-05-02T07:52:38Z</time>
      </trkpt>
      <trkpt lat="49.42172" lon="1.12169">
        <ele>145.7</ele>
        <time>2021-05-02T07:52:39Z</time>
      </trkpt>
      <trkpt lat="49.42171" lon="1.12174">
        <ele>145.7</ele>
        <time>2021-05-02T07:52:40Z</time>
      </trkpt>
      <trkpt lat="49.4217" lon="1.12182">
        <ele>145.9</ele>
        <time>2021-05-02T07:52:42Z</time>
      </trkpt>
      <trkpt lat="49.4217" lon="1.12185">
        <ele>145.9</ele>
        <time>2021-05-02T07:52:43Z</time>
      </trkpt>
      <trkpt lat="49.4217" lon="1.12188">
        <ele>146</ele>
        <time>2021-05-02T07:52:44Z</time>
      </trkpt>
      <trkpt lat="49.42169" lon="1.12193">
        <ele>146.1</ele>
        <time>2021-05-02T07:52:45Z</time>
      </trkpt>
      <trkpt lat="49.42167" lon="1.12197">
        <ele>146.4</ele>
        <time>2021-05-02T07:52:47Z</time>
      </trkpt>
      <trkpt lat="49.42163" lon="1.12199">
        <ele>146.3</ele>
        <time>2021-05-02T07:52:49Z</time>
      </trkpt>
      <trkpt lat="49.42159" lon="1.122">
        <ele>146.3</ele>
        <time>2021-05-02T07:52:50Z</time>
      </trkpt>
      <trkpt lat="49.42158" lon="1.122">
        <ele>146.3</ele>
        <time>2021-05-02T07:52:51Z</time>
      </trkpt>
      <trkpt lat="49.42155" lon="1.12203">
        <ele>146.3</ele>
        <time>2021-05-02T07:52:53Z</time>
      </trkpt>
      <trkpt lat="49.42153" lon="1.12206">
        <ele>146.3</ele>
        <time>2021-05-02T07:52:54Z</time>
      </trkpt>
      <trkpt lat="49.4215" lon="1.1221">
        <ele>146.3</ele>
        <time>2021-05-02T07:52:56Z</time>
      </trkpt>
      <trkpt lat="49.42148" lon="1.12215">
        <ele>146.3</ele>
        <time>2021-05-02T07:52:57Z</time>
      </trkpt>
      <trkpt lat="49.42147" lon="1.12217">
        <ele>146.3</ele>
        <time>2021-05-02T07:52:58Z</time>
      </trkpt>
      <trkpt lat="49.42146" lon="1.12222">
        <ele>146.3</ele>
        <time>2021-05-02T07:53:00Z</time>
      </trkpt>
      <trkpt lat="49.42144" lon="1.12227">
        <ele>146.3</ele>
        <time>2021-05-02T07:53:01Z</time>
      </trkpt>
      <trkpt lat="49.42142" lon="1.1223">
        <ele>146.3</ele>
        <time>2021-05-02T07:53:02Z</time>
      </trkpt>
      <trkpt lat="49.4214" lon="1.12234">
        <ele>146.3</ele>
        <time>2021-05-02T07:53:03Z</time>
      </trkpt>
      <trkpt lat="49.42139" lon="1.12238">
        <ele>146.3</ele>
        <time>2021-05-02T07:53:04Z</time>
      </trkpt>
      <trkpt lat="49.42138" lon="1.12245">
        <ele>146.4</ele>
        <time>2021-05-02T07:53:06Z</time>
      </trkpt>
      <trkpt lat="49.42137" lon="1.1225">
        <ele>146.4</ele>
        <time>2021-05-02T07:53:07Z</time>
      </trkpt>
      <trkpt lat="49.42137" lon="1.12255">
        <ele>146.5</ele>
        <time>2021-05-02T07:53:08Z</time>
      </trkpt>
      <trkpt lat="49.42137" lon="1.12259">
        <ele>146.5</ele>
        <time>2021-05-02T07:53:09Z</time>
      </trkpt>
      <trkpt lat="49.42137" lon="1.12263">
        <ele>146.6</ele>
        <time>2021-05-02T07:53:10Z</time>
      </trkpt>
      <trkpt lat="49.42137" lon="1.12269">
        <ele>146.7</ele>
        <time>2021-05-02T07:53:12Z</time>
      </trkpt>
      <trkpt lat="49.42137" lon="1.12274">
        <ele>146.7</ele>
        <time>2021-05-02T07:53:13Z</time>
      </trkpt>
      <trkpt lat="49.42138" lon="1.12281">
        <ele>146.8</ele>
        <time>2021-05-02T07:53:15Z</time>
      </trkpt>
      <trkpt lat="49.42139" lon="1.12287">
        <ele>146.9</ele>
        <time>2021-05-02T07:53:16Z</time>
      </trkpt>
      <trkpt lat="49.4214" lon="1.12296">
        <ele>147</ele>
        <time>2021-05-02T07:53:18Z</time>
      </trkpt>
      <trkpt lat="49.4214" lon="1.12302">
        <ele>147</ele>
        <time>2021-05-02T07:53:19Z</time>
      </trkpt>
      <trkpt lat="49.4214" lon="1.12308">
        <ele>147.1</ele>
        <time>2021-05-02T07:53:20Z</time>
      </trkpt>
      <trkpt lat="49.4214" lon="1.12315">
        <ele>147.1</ele>
        <time>2021-05-02T07:53:21Z</time>
      </trkpt>
      <trkpt lat="49.4214" lon="1.1232">
        <ele>147.2</ele>
        <time>2021-05-02T07:53:22Z</time>
      </trkpt>
      <trkpt lat="49.42141" lon="1.12328">
        <ele>147.3</ele>
        <time>2021-05-02T07:53:24Z</time>
      </trkpt>
      <trkpt lat="49.42143" lon="1.12334">
        <ele>147.4</ele>
        <time>2021-05-02T07:53:25Z</time>
      </trkpt>
      <trkpt lat="49.42148" lon="1.12339">
        <ele>147.6</ele>
        <time>2021-05-02T07:53:27Z</time>
      </trkpt>
      <trkpt lat="49.42152" lon="1.12343">
        <ele>147.7</ele>
        <time>2021-05-02T07:53:29Z</time>
      </trkpt>
      <trkpt lat="49.42154" lon="1.12345">
        <ele>147.7</ele>
        <time>2021-05-02T07:53:30Z</time>
      </trkpt>
      <trkpt lat="49.42158" lon="1.12349">
        <ele>147.8</ele>
        <time>2021-05-02T07:53:32Z</time>
      </trkpt>
      <trkpt lat="49.42161" lon="1.12352">
        <ele>147.8</ele>
        <time>2021-05-02T07:53:33Z</time>
      </trkpt>
      <trkpt lat="49.42164" lon="1.12354">
        <ele>147.9</ele>
        <time>2021-05-02T07:53:34Z</time>
      </trkpt>
      <trkpt lat="49.42167" lon="1.12357">
        <ele>147.9</ele>
        <time>2021-05-02T07:53:35Z</time>
      </trkpt>
      <trkpt lat="49.4217" lon="1.12362">
        <ele>147.9</ele>
        <time>2021-05-02T07:53:37Z</time>
      </trkpt>
      <trkpt lat="49.42172" lon="1.12366">
        <ele>147.9</ele>
        <time>2021-05-02T07:53:38Z</time>
      </trkpt>
      <trkpt lat="49.42177" lon="1.12368">
        <ele>147.9</ele>
        <time>2021-05-02T07:53:40Z</time>
      </trkpt>
      <trkpt lat="49.42179" lon="1.12374">
        <ele>147.9</ele>
        <time>2021-05-02T07:53:41Z</time>
      </trkpt>
      <trkpt lat="49.42184" lon="1.12381">
        <ele>147.9</ele>
        <time>2021-05-02T07:53:43Z</time>
      </trkpt>
      <trkpt lat="49.42187" lon="1.12386">
        <ele>147.9</ele>
        <time>2021-05-02T07:53:44Z</time>
      </trkpt>
      <trkpt lat="49.42189" lon="1.1239">
        <ele>147.9</ele>
        <time>2021-05-02T07:53:46Z</time>
      </trkpt>
      <trkpt lat="49.42192" lon="1.12395">
        <ele>147.9</ele>
        <time>2021-05-02T07:53:47Z</time>
      </trkpt>
      <trkpt lat="49.42194" lon="1.12401">
        <ele>147.9</ele>
        <time>2021-05-02T07:53:49Z</time>
      </trkpt>
      <trkpt lat="49.42197" lon="1.12407">
        <ele>147.9</ele>
        <time>2021-05-02T07:53:51Z</time>
      </trkpt>
      <trkpt lat="49.42198" lon="1.12409">
        <ele>147.9</ele>
        <time>2021-05-02T07:53:52Z</time>
      </trkpt>
      <trkpt lat="49.42199" lon="1.12412">
        <ele>147.9</ele>
        <time>2021-05-02T07:53:53Z</time>
      </trkpt>
      <trkpt lat="49.422" lon="1.12415">
        <ele>147.9</ele>
        <time>2021-05-02T07:53:54Z</time>
      </trkpt>
      <trkpt lat="49.42203" lon="1.12424">
        <ele>147.9</ele>
        <time>2021-05-02T07:53:56Z</time>
      </trkpt>
      <trkpt lat="49.42205" lon="1.1243">
        <ele>147.9</ele>
        <time>2021-05-02T07:53:57Z</time>
      </trkpt>
      <trkpt lat="49.42208" lon="1.1244">
        <ele>147.9</ele>
        <time>2021-05-02T07:53:59Z</time>
      </trkpt>
      <trkpt lat="49.42211" lon="1.12447">
        <ele>147.9</ele>
        <time>2021-05-02T07:54:00Z</time>
      </trkpt>
      <trkpt lat="49.42213" lon="1.12452">
        <ele>148</ele>
        <time>2021-05-02T07:54:01Z</time>
      </trkpt>
      <trkpt lat="49.42215" lon="1.12459">
        <ele>148</ele>
        <time>2021-05-02T07:54:03Z</time>
      </trkpt>
      <trkpt lat="49.42217" lon="1.12464">
        <ele>148</ele>
        <time>2021-05-02T07:54:04Z</time>
      </trkpt>
      <trkpt lat="49.42218" lon="1.12468">
        <ele>148</ele>
        <time>2021-05-02T07:54:05Z</time>
      </trkpt>
      <trkpt lat="49.42218" lon="1.12473">
        <ele>148</ele>
        <time>2021-05-02T07:54:07Z</time>
      </trkpt>
      <trkpt lat="49.4222" lon="1.12477">
        <ele>148</ele>
        <time>2021-05-02T07:54:08Z</time>
      </trkpt>
      <trkpt lat="49.42221" lon="1.12481">
        <ele>148</ele>
        <time>2021-05-02T07:54:09Z</time>
      </trkpt>
      <trkpt lat="49.42222" lon="1.12482">
        <ele>148</ele>
        <time>2021-05-02T07:54:10Z</time>
      </trkpt>
      <trkpt lat="49.42224" lon="1.12487">
        <ele>148.1</ele>
        <time>2021-05-02T07:54:12Z</time>
      </trkpt>
      <trkpt lat="49.42226" lon="1.12491">
        <ele>148.1</ele>
        <time>2021-05-02T07:54:13Z</time>
      </trkpt>
      <trkpt lat="49.42227" lon="1.12495">
        <ele>148.1</ele>
        <time>2021-05-02T07:54:14Z</time>
      </trkpt>
      <trkpt lat="49.42227" lon="1.12498">
        <ele>148.1</ele>
        <time>2021-05-02T07:54:16Z</time>
      </trkpt>
      <trkpt lat="49.42227" lon="1.12499">
        <ele>148.1</ele>
        <time>2021-05-02T07:54:17Z</time>
      </trkpt>
      <trkpt lat="49.4223" lon="1.12506">
        <ele>148.1</ele>
        <time>2021-05-02T07:54:19Z</time>
      </trkpt>
      <trkpt lat="49.42232" lon="1.12511">
        <ele>148.1</ele>
        <time>2021-05-02T07:54:21Z</time>
      </trkpt>
      <trkpt lat="49.42233" lon="1.12515">
        <ele>148.2</ele>
        <time>2021-05-02T07:54:22Z</time>
      </trkpt>
      <trkpt lat="49.42234" lon="1.12517">
        <ele>148.2</ele>
        <time>2021-05-02T07:54:23Z</time>
      </trkpt>
      <trkpt lat="49.42236" lon="1.12524">
        <ele>148.2</ele>
        <time>2021-05-02T07:54:25Z</time>
      </trkpt>
      <trkpt lat="49.42236" lon="1.12527">
        <ele>148.2</ele>
        <time>2021-05-02T07:54:26Z</time>
      </trkpt>
      <trkpt lat="49.42237" lon="1.12541">
        <ele>148.3</ele>
        <time>2021-05-02T07:54:28Z</time>
      </trkpt>
      <trkpt lat="49.42239" lon="1.12551">
        <ele>148.3</ele>
        <time>2021-05-02T07:54:30Z</time>
      </trkpt>
      <trkpt lat="49.4224" lon="1.12556">
        <ele>148.4</ele>
        <time>2021-05-02T07:54:31Z</time>
      </trkpt>
      <trkpt lat="49.42242" lon="1.12567">
        <ele>148.4</ele>
        <time>2021-05-02T07:54:33Z</time>
      </trkpt>
      <trkpt lat="49.42242" lon="1.12574">
        <ele>148.5</ele>
        <time>2021-05-02T07:54:35Z</time>
      </trkpt>
      <trkpt lat="49.42242" lon="1.12576">
        <ele>148.5</ele>
        <time>2021-05-02T07:54:36Z</time>
      </trkpt>
      <trkpt lat="49.42243" lon="1.12578">
        <ele>148.5</ele>
        <time>2021-05-02T07:54:37Z</time>
      </trkpt>
      <trkpt lat="49.42243" lon="1.12582">
        <ele>148.6</ele>
        <time>2021-05-02T07:54:39Z</time>
      </trkpt>
      <trkpt lat="49.42244" lon="1.12587">
        <ele>148.6</ele>
        <time>2021-05-02T07:54:41Z</time>
      </trkpt>
      <trkpt lat="49.42246" lon="1.12592">
        <ele>148.6</ele>
        <time>2021-05-02T07:54:43Z</time>
      </trkpt>
      <trkpt lat="49.42247" lon="1.12596">
        <ele>148.4</ele>
        <time>2021-05-02T07:54:44Z</time>
      </trkpt>
      <trkpt lat="49.42249" lon="1.12601">
        <ele>148.3</ele>
        <time>2021-05-02T07:54:45Z</time>
      </trkpt>
      <trkpt lat="49.42253" lon="1.1261">
        <ele>148</ele>
        <time>2021-05-02T07:54:46Z</time>
      </trkpt>
      <trkpt lat="49.42257" lon="1.12617">
        <ele>147.8</ele>
        <time>2021-05-02T07:54:47Z</time>
      </trkpt>
      <trkpt lat="49.42262" lon="1.12628">
        <ele>147.5</ele>
        <time>2021-05-02T07:54:49Z</time>
      </trkpt>
      <trkpt lat="49.42264" lon="1.12633">
        <ele>147.3</ele>
        <time>2021-05-02T07:54:50Z</time>
      </trkpt>
      <trkpt lat="49.42266" lon="1.1264">
        <ele>147.1</ele>
        <time>2021-05-02T07:54:51Z</time>
      </trkpt>
      <trkpt lat="49.42267" lon="1.12648">
        <ele>146.9</ele>
        <time>2021-05-02T07:54:52Z</time>
      </trkpt>
      <trkpt lat="49.42269" lon="1.12655">
        <ele>146.7</ele>
        <time>2021-05-02T07:54:53Z</time>
      </trkpt>
      <trkpt lat="49.42274" lon="1.12667">
        <ele>146.6</ele>
        <time>2021-05-02T07:54:55Z</time>
      </trkpt>
      <trkpt lat="49.42279" lon="1.12677">
        <ele>146.3</ele>
        <time>2021-05-02T07:54:57Z</time>
      </trkpt>
      <trkpt lat="49.42283" lon="1.12682">
        <ele>146.2</ele>
        <time>2021-05-02T07:54:58Z</time>
      </trkpt>
      <trkpt lat="49.42286" lon="1.12687">
        <ele>146.1</ele>
        <time>2021-05-02T07:54:59Z</time>
      </trkpt>
      <trkpt lat="49.42289" lon="1.12688">
        <ele>146.1</ele>
        <time>2021-05-02T07:55:01Z</time>
      </trkpt>
      <trkpt lat="49.42291" lon="1.12682">
        <ele>146</ele>
        <time>2021-05-02T07:55:03Z</time>
      </trkpt>
      <trkpt lat="49.42293" lon="1.12677">
        <ele>145.9</ele>
        <time>2021-05-02T07:55:04Z</time>
      </trkpt>
      <trkpt lat="49.42296" lon="1.12673">
        <ele>145.8</ele>
        <time>2021-05-02T07:55:05Z</time>
      </trkpt>
      <trkpt lat="49.42302" lon="1.12665">
        <ele>145.6</ele>
        <time>2021-05-02T07:55:07Z</time>
      </trkpt>
      <trkpt lat="49.42305" lon="1.12662">
        <ele>145.5</ele>
        <time>2021-05-02T07:55:08Z</time>
      </trkpt>
      <trkpt lat="49.42311" lon="1.12655">
        <ele>145.3</ele>
        <time>2021-05-02T07:55:10Z</time>
      </trkpt>
      <trkpt lat="49.42314" lon="1.12652">
        <ele>145.2</ele>
        <time>2021-05-02T07:55:11Z</time>
      </trkpt>
      <trkpt lat="49.42318" lon="1.12648">
        <ele>145.1</ele>
        <time>2021-05-02T07:55:13Z</time>
      </trkpt>
      <trkpt lat="49.42322" lon="1.12645">
        <ele>145.1</ele>
        <time>2021-05-02T07:55:14Z</time>
      </trkpt>
      <trkpt lat="49.42325" lon="1.12648">
        <ele>145</ele>
        <time>2021-05-02T07:55:15Z</time>
      </trkpt>
      <trkpt lat="49.42326" lon="1.12649">
        <ele>145</ele>
        <time>2021-05-02T07:55:16Z</time>
      </trkpt>
      <trkpt lat="49.4233" lon="1.1265">
        <ele>145</ele>
        <time>2021-05-02T07:55:18Z</time>
      </trkpt>
      <trkpt lat="49.42333" lon="1.12653">
        <ele>145</ele>
        <time>2021-05-02T07:55:19Z</time>
      </trkpt>
      <trkpt lat="49.42337" lon="1.12655">
        <ele>145</ele>
        <time>2021-05-02T07:55:20Z</time>
      </trkpt>
      <trkpt lat="49.4234" lon="1.12658">
        <ele>145</ele>
        <time>2021-05-02T07:55:21Z</time>
      </trkpt>
      <trkpt lat="49.42344" lon="1.12661">
        <ele>145</ele>
        <time>2021-05-02T07:55:23Z</time>
      </trkpt>
      <trkpt lat="49.42347" lon="1.12665">
        <ele>145.1</ele>
        <time>2021-05-02T07:55:24Z</time>
      </trkpt>
      <trkpt lat="49.42348" lon="1.12666">
        <ele>145.1</ele>
        <time>2021-05-02T07:55:25Z</time>
      </trkpt>
      <trkpt lat="49.42351" lon="1.1267">
        <ele>145.1</ele>
        <time>2021-05-02T07:55:26Z</time>
      </trkpt>
      <trkpt lat="49.42355" lon="1.12673">
        <ele>145.2</ele>
        <time>2021-05-02T07:55:28Z</time>
      </trkpt>
      <trkpt lat="49.42359" lon="1.1268">
        <ele>145.3</ele>
        <time>2021-05-02T07:55:30Z</time>
      </trkpt>
      <trkpt lat="49.42364" lon="1.12686">
        <ele>145.4</ele>
        <time>2021-05-02T07:55:31Z</time>
      </trkpt>
      <trkpt lat="49.42366" lon="1.12689">
        <ele>145.4</ele>
        <time>2021-05-02T07:55:32Z</time>
      </trkpt>
      <trkpt lat="49.42368" lon="1.12693">
        <ele>145.5</ele>
        <time>2021-05-02T07:55:34Z</time>
      </trkpt>
      <trkpt lat="49.4237" lon="1.12698">
        <ele>145.6</ele>
        <time>2021-05-02T07:55:35Z</time>
      </trkpt>
      <trkpt lat="49.42372" lon="1.12702">
        <ele>145.7</ele>
        <time>2021-05-02T07:55:36Z</time>
      </trkpt>
      <trkpt lat="49.42374" lon="1.12706">
        <ele>145.8</ele>
        <time>2021-05-02T07:55:37Z</time>
      </trkpt>
      <trkpt lat="49.42376" lon="1.12709">
        <ele>145.8</ele>
        <time>2021-05-02T07:55:38Z</time>
      </trkpt>
      <trkpt lat="49.42379" lon="1.12712">
        <ele>145.9</ele>
        <time>2021-05-02T07:55:39Z</time>
      </trkpt>
      <trkpt lat="49.42383" lon="1.12716">
        <ele>146.1</ele>
        <time>2021-05-02T07:55:41Z</time>
      </trkpt>
      <trkpt lat="49.42386" lon="1.12719">
        <ele>146.2</ele>
        <time>2021-05-02T07:55:42Z</time>
      </trkpt>
      <trkpt lat="49.42389" lon="1.12723">
        <ele>146.3</ele>
        <time>2021-05-02T07:55:43Z</time>
      </trkpt>
      <trkpt lat="49.42393" lon="1.12726">
        <ele>146.4</ele>
        <time>2021-05-02T07:55:44Z</time>
      </trkpt>
      <trkpt lat="49.42396" lon="1.12727">
        <ele>146.5</ele>
        <time>2021-05-02T07:55:45Z</time>
      </trkpt>
      <trkpt lat="49.42401" lon="1.12731">
        <ele>146.7</ele>
        <time>2021-05-02T07:55:47Z</time>
      </trkpt>
      <trkpt lat="49.42404" lon="1.12734">
        <ele>146.8</ele>
        <time>2021-05-02T07:55:48Z</time>
      </trkpt>
      <trkpt lat="49.42407" lon="1.12738">
        <ele>146.9</ele>
        <time>2021-05-02T07:55:50Z</time>
      </trkpt>
      <trkpt lat="49.4241" lon="1.12742">
        <ele>147</ele>
        <time>2021-05-02T07:55:51Z</time>
      </trkpt>
      <trkpt lat="49.42413" lon="1.12745">
        <ele>147.1</ele>
        <time>2021-05-02T07:55:52Z</time>
      </trkpt>
      <trkpt lat="49.42419" lon="1.1275">
        <ele>147.3</ele>
        <time>2021-05-02T07:55:54Z</time>
      </trkpt>
      <trkpt lat="49.42422" lon="1.12754">
        <ele>147.4</ele>
        <time>2021-05-02T07:55:55Z</time>
      </trkpt>
      <trkpt lat="49.42425" lon="1.12757">
        <ele>147.5</ele>
        <time>2021-05-02T07:55:57Z</time>
      </trkpt>
      <trkpt lat="49.42428" lon="1.1276">
        <ele>147.6</ele>
        <time>2021-05-02T07:55:58Z</time>
      </trkpt>
      <trkpt lat="49.42431" lon="1.12763">
        <ele>147.6</ele>
        <time>2021-05-02T07:55:59Z</time>
      </trkpt>
      <trkpt lat="49.42435" lon="1.12769">
        <ele>147.7</ele>
        <time>2021-05-02T07:56:01Z</time>
      </trkpt>
      <trkpt lat="49.42438" lon="1.12773">
        <ele>147.8</ele>
        <time>2021-05-02T07:56:03Z</time>
      </trkpt>
      <trkpt lat="49.42441" lon="1.12776">
        <ele>147.9</ele>
        <time>2021-05-02T07:56:04Z</time>
      </trkpt>
      <trkpt lat="49.42444" lon="1.12779">
        <ele>148</ele>
        <time>2021-05-02T07:56:05Z</time>
      </trkpt>
      <trkpt lat="49.42449" lon="1.12784">
        <ele>148.1</ele>
        <time>2021-05-02T07:56:07Z</time>
      </trkpt>
      <trkpt lat="49.42451" lon="1.12787">
        <ele>148.2</ele>
        <time>2021-05-02T07:56:08Z</time>
      </trkpt>
      <trkpt lat="49.42457" lon="1.12792">
        <ele>148.4</ele>
        <time>2021-05-02T07:56:10Z</time>
      </trkpt>
      <trkpt lat="49.4246" lon="1.12794">
        <ele>148.5</ele>
        <time>2021-05-02T07:56:11Z</time>
      </trkpt>
      <trkpt lat="49.42463" lon="1.12796">
        <ele>148.6</ele>
        <time>2021-05-02T07:56:12Z</time>
      </trkpt>
      <trkpt lat="49.42467" lon="1.12799">
        <ele>148.7</ele>
        <time>2021-05-02T07:56:14Z</time>
      </trkpt>
      <trkpt lat="49.4247" lon="1.12802">
        <ele>148.8</ele>
        <time>2021-05-02T07:56:15Z</time>
      </trkpt>
      <trkpt lat="49.42472" lon="1.12806">
        <ele>148.9</ele>
        <time>2021-05-02T07:56:16Z</time>
      </trkpt>
      <trkpt lat="49.42476" lon="1.12808">
        <ele>149</ele>
        <time>2021-05-02T07:56:18Z</time>
      </trkpt>
      <trkpt lat="49.42479" lon="1.12812">
        <ele>149.1</ele>
        <time>2021-05-02T07:56:19Z</time>
      </trkpt>
      <trkpt lat="49.42483" lon="1.12817">
        <ele>149.2</ele>
        <time>2021-05-02T07:56:21Z</time>
      </trkpt>
      <trkpt lat="49.42486" lon="1.12819">
        <ele>149.3</ele>
        <time>2021-05-02T07:56:22Z</time>
      </trkpt>
      <trkpt lat="49.42491" lon="1.12822">
        <ele>149.4</ele>
        <time>2021-05-02T07:56:24Z</time>
      </trkpt>
      <trkpt lat="49.42493" lon="1.12824">
        <ele>149.4</ele>
        <time>2021-05-02T07:56:25Z</time>
      </trkpt>
      <trkpt lat="49.42496" lon="1.12827">
        <ele>149.4</ele>
        <time>2021-05-02T07:56:26Z</time>
      </trkpt>
      <trkpt lat="49.425" lon="1.12831">
        <ele>149.5</ele>
        <time>2021-05-02T07:56:27Z</time>
      </trkpt>
      <trkpt lat="49.42503" lon="1.12834">
        <ele>149.4</ele>
        <time>2021-05-02T07:56:28Z</time>
      </trkpt>
      <trkpt lat="49.42507" lon="1.12838">
        <ele>149.4</ele>
        <time>2021-05-02T07:56:30Z</time>
      </trkpt>
      <trkpt lat="49.42511" lon="1.12839">
        <ele>149.4</ele>
        <time>2021-05-02T07:56:31Z</time>
      </trkpt>
      <trkpt lat="49.42515" lon="1.12841">
        <ele>149.3</ele>
        <time>2021-05-02T07:56:32Z</time>
      </trkpt>
      <trkpt lat="49.42519" lon="1.12843">
        <ele>149.3</ele>
        <time>2021-05-02T07:56:34Z</time>
      </trkpt>
      <trkpt lat="49.42524" lon="1.12845">
        <ele>149.3</ele>
        <time>2021-05-02T07:56:35Z</time>
      </trkpt>
      <trkpt lat="49.42529" lon="1.1285">
        <ele>149.2</ele>
        <time>2021-05-02T07:56:37Z</time>
      </trkpt>
      <trkpt lat="49.42532" lon="1.12852">
        <ele>149.2</ele>
        <time>2021-05-02T07:56:38Z</time>
      </trkpt>
      <trkpt lat="49.42536" lon="1.12855">
        <ele>149.2</ele>
        <time>2021-05-02T07:56:40Z</time>
      </trkpt>
      <trkpt lat="49.42538" lon="1.1286">
        <ele>149.1</ele>
        <time>2021-05-02T07:56:41Z</time>
      </trkpt>
      <trkpt lat="49.42545" lon="1.1286">
        <ele>149.1</ele>
        <time>2021-05-02T07:56:43Z</time>
      </trkpt>
      <trkpt lat="49.42548" lon="1.12862">
        <ele>149</ele>
        <time>2021-05-02T07:56:44Z</time>
      </trkpt>
      <trkpt lat="49.42555" lon="1.12867">
        <ele>149</ele>
        <time>2021-05-02T07:56:46Z</time>
      </trkpt>
      <trkpt lat="49.42558" lon="1.12869">
        <ele>148.9</ele>
        <time>2021-05-02T07:56:47Z</time>
      </trkpt>
      <trkpt lat="49.4256" lon="1.12872">
        <ele>148.9</ele>
        <time>2021-05-02T07:56:48Z</time>
      </trkpt>
      <trkpt lat="49.42566" lon="1.12877">
        <ele>148.9</ele>
        <time>2021-05-02T07:56:50Z</time>
      </trkpt>
      <trkpt lat="49.42569" lon="1.12879">
        <ele>148.8</ele>
        <time>2021-05-02T07:56:51Z</time>
      </trkpt>
      <trkpt lat="49.42572" lon="1.12884">
        <ele>148.8</ele>
        <time>2021-05-02T07:56:53Z</time>
      </trkpt>
      <trkpt lat="49.42575" lon="1.12886">
        <ele>148.8</ele>
        <time>2021-05-02T07:56:54Z</time>
      </trkpt>
      <trkpt lat="49.42578" lon="1.12887">
        <ele>148.8</ele>
        <time>2021-05-02T07:56:55Z</time>
      </trkpt>
      <trkpt lat="49.42581" lon="1.12889">
        <ele>148.7</ele>
        <time>2021-05-02T07:56:56Z</time>
      </trkpt>
      <trkpt lat="49.42587" lon="1.12895">
        <ele>148.7</ele>
        <time>2021-05-02T07:56:58Z</time>
      </trkpt>
      <trkpt lat="49.4259" lon="1.12897">
        <ele>148.6</ele>
        <time>2021-05-02T07:56:59Z</time>
      </trkpt>
      <trkpt lat="49.42593" lon="1.129">
        <ele>148.6</ele>
        <time>2021-05-02T07:57:00Z</time>
      </trkpt>
      <trkpt lat="49.42599" lon="1.12904">
        <ele>148.6</ele>
        <time>2021-05-02T07:57:02Z</time>
      </trkpt>
      <trkpt lat="49.42605" lon="1.12907">
        <ele>148.5</ele>
        <time>2021-05-02T07:57:04Z</time>
      </trkpt>
      <trkpt lat="49.42611" lon="1.1291">
        <ele>148.5</ele>
        <time>2021-05-02T07:57:06Z</time>
      </trkpt>
      <trkpt lat="49.42613" lon="1.12912">
        <ele>148.5</ele>
        <time>2021-05-02T07:57:07Z</time>
      </trkpt>
      <trkpt lat="49.42617" lon="1.12914">
        <ele>148.4</ele>
        <time>2021-05-02T07:57:09Z</time>
      </trkpt>
      <trkpt lat="49.4262" lon="1.12915">
        <ele>148.3</ele>
        <time>2021-05-02T07:57:10Z</time>
      </trkpt>
      <trkpt lat="49.42624" lon="1.12919">
        <ele>148.3</ele>
        <time>2021-05-02T07:57:12Z</time>
      </trkpt>
      <trkpt lat="49.42625" lon="1.12922">
        <ele>148.2</ele>
        <time>2021-05-02T07:57:13Z</time>
      </trkpt>
      <trkpt lat="49.42628" lon="1.12925">
        <ele>148.2</ele>
        <time>2021-05-02T07:57:14Z</time>
      </trkpt>
      <trkpt lat="49.42632" lon="1.12928">
        <ele>148.1</ele>
        <time>2021-05-02T07:57:15Z</time>
      </trkpt>
      <trkpt lat="49.42637" lon="1.12933">
        <ele>148</ele>
        <time>2021-05-02T07:57:17Z</time>
      </trkpt>
      <trkpt lat="49.4264" lon="1.12935">
        <ele>148</ele>
        <time>2021-05-02T07:57:18Z</time>
      </trkpt>
      <trkpt lat="49.42644" lon="1.12938">
        <ele>147.9</ele>
        <time>2021-05-02T07:57:20Z</time>
      </trkpt>
      <trkpt lat="49.42649" lon="1.12941">
        <ele>147.9</ele>
        <time>2021-05-02T07:57:21Z</time>
      </trkpt>
      <trkpt lat="49.42652" lon="1.12943">
        <ele>147.8</ele>
        <time>2021-05-02T07:57:22Z</time>
      </trkpt>
      <trkpt lat="49.42661" lon="1.1295">
        <ele>147.7</ele>
        <time>2021-05-02T07:57:25Z</time>
      </trkpt>
      <trkpt lat="49.42663" lon="1.12952">
        <ele>147.6</ele>
        <time>2021-05-02T07:57:26Z</time>
      </trkpt>
      <trkpt lat="49.42669" lon="1.12956">
        <ele>147.5</ele>
        <time>2021-05-02T07:57:28Z</time>
      </trkpt>
      <trkpt lat="49.42673" lon="1.1296">
        <ele>147.4</ele>
        <time>2021-05-02T07:57:29Z</time>
      </trkpt>
      <trkpt lat="49.42677" lon="1.12963">
        <ele>147.3</ele>
        <time>2021-05-02T07:57:31Z</time>
      </trkpt>
      <trkpt lat="49.42681" lon="1.12965">
        <ele>147.2</ele>
        <time>2021-05-02T07:57:32Z</time>
      </trkpt>
      <trkpt lat="49.42683" lon="1.12967">
        <ele>147.2</ele>
        <time>2021-05-02T07:57:33Z</time>
      </trkpt>
      <trkpt lat="49.42686" lon="1.1297">
        <ele>147.1</ele>
        <time>2021-05-02T07:57:35Z</time>
      </trkpt>
      <trkpt lat="49.42689" lon="1.12973">
        <ele>147.1</ele>
        <time>2021-05-02T07:57:36Z</time>
      </trkpt>
      <trkpt lat="49.42691" lon="1.12976">
        <ele>147</ele>
        <time>2021-05-02T07:57:37Z</time>
      </trkpt>
      <trkpt lat="49.42693" lon="1.12979">
        <ele>147</ele>
        <time>2021-05-02T07:57:38Z</time>
      </trkpt>
      <trkpt lat="49.42695" lon="1.12981">
        <ele>146.9</ele>
        <time>2021-05-02T07:57:39Z</time>
      </trkpt>
      <trkpt lat="49.42701" lon="1.12983">
        <ele>146.8</ele>
        <time>2021-05-02T07:57:41Z</time>
      </trkpt>
      <trkpt lat="49.42704" lon="1.12986">
        <ele>146.8</ele>
        <time>2021-05-02T07:57:42Z</time>
      </trkpt>
      <trkpt lat="49.42706" lon="1.12988">
        <ele>146.7</ele>
        <time>2021-05-02T07:57:43Z</time>
      </trkpt>
      <trkpt lat="49.42713" lon="1.12992">
        <ele>146.6</ele>
        <time>2021-05-02T07:57:45Z</time>
      </trkpt>
      <trkpt lat="49.42718" lon="1.12998">
        <ele>146.5</ele>
        <time>2021-05-02T07:57:47Z</time>
      </trkpt>
      <trkpt lat="49.42724" lon="1.13003">
        <ele>146.3</ele>
        <time>2021-05-02T07:57:49Z</time>
      </trkpt>
      <trkpt lat="49.42728" lon="1.13006">
        <ele>146.2</ele>
        <time>2021-05-02T07:57:50Z</time>
      </trkpt>
      <trkpt lat="49.42733" lon="1.13009">
        <ele>146</ele>
        <time>2021-05-02T07:57:52Z</time>
      </trkpt>
      <trkpt lat="49.42736" lon="1.13012">
        <ele>145.9</ele>
        <time>2021-05-02T07:57:53Z</time>
      </trkpt>
      <trkpt lat="49.42738" lon="1.13014">
        <ele>145.8</ele>
        <time>2021-05-02T07:57:54Z</time>
      </trkpt>
      <trkpt lat="49.42744" lon="1.13017">
        <ele>145.6</ele>
        <time>2021-05-02T07:57:56Z</time>
      </trkpt>
      <trkpt lat="49.42746" lon="1.13019">
        <ele>145.6</ele>
        <time>2021-05-02T07:57:57Z</time>
      </trkpt>
      <trkpt lat="49.42751" lon="1.13022">
        <ele>145.4</ele>
        <time>2021-05-02T07:57:59Z</time>
      </trkpt>
      <trkpt lat="49.42753" lon="1.13024">
        <ele>145.3</ele>
        <time>2021-05-02T07:58:00Z</time>
      </trkpt>
      <trkpt lat="49.42758" lon="1.13029">
        <ele>145.2</ele>
        <time>2021-05-02T07:58:02Z</time>
      </trkpt>
      <trkpt lat="49.42761" lon="1.13031">
        <ele>145.1</ele>
        <time>2021-05-02T07:58:03Z</time>
      </trkpt>
      <trkpt lat="49.42765" lon="1.13038">
        <ele>144.9</ele>
        <time>2021-05-02T07:58:05Z</time>
      </trkpt>
      <trkpt lat="49.42768" lon="1.1304">
        <ele>144.8</ele>
        <time>2021-05-02T07:58:06Z</time>
      </trkpt>
      <trkpt lat="49.4277" lon="1.13044">
        <ele>144.7</ele>
        <time>2021-05-02T07:58:07Z</time>
      </trkpt>
      <trkpt lat="49.42775" lon="1.13048">
        <ele>144.5</ele>
        <time>2021-05-02T07:58:09Z</time>
      </trkpt>
      <trkpt lat="49.4278" lon="1.13052">
        <ele>144.3</ele>
        <time>2021-05-02T07:58:11Z</time>
      </trkpt>
      <trkpt lat="49.42783" lon="1.13054">
        <ele>144.2</ele>
        <time>2021-05-02T07:58:12Z</time>
      </trkpt>
      <trkpt lat="49.42786" lon="1.13058">
        <ele>144.1</ele>
        <time>2021-05-02T07:58:13Z</time>
      </trkpt>
      <trkpt lat="49.42791" lon="1.13061">
        <ele>144</ele>
        <time>2021-05-02T07:58:15Z</time>
      </trkpt>
      <trkpt lat="49.42796" lon="1.13064">
        <ele>143.8</ele>
        <time>2021-05-02T07:58:17Z</time>
      </trkpt>
      <trkpt lat="49.428" lon="1.13067">
        <ele>143.7</ele>
        <time>2021-05-02T07:58:18Z</time>
      </trkpt>
      <trkpt lat="49.42806" lon="1.13071">
        <ele>143.6</ele>
        <time>2021-05-02T07:58:20Z</time>
      </trkpt>
      <trkpt lat="49.42809" lon="1.13073">
        <ele>143.5</ele>
        <time>2021-05-02T07:58:21Z</time>
      </trkpt>
      <trkpt lat="49.42814" lon="1.1308">
        <ele>143.4</ele>
        <time>2021-05-02T07:58:23Z</time>
      </trkpt>
      <trkpt lat="49.42818" lon="1.13084">
        <ele>143.4</ele>
        <time>2021-05-02T07:58:24Z</time>
      </trkpt>
      <trkpt lat="49.42821" lon="1.13091">
        <ele>143.3</ele>
        <time>2021-05-02T07:58:26Z</time>
      </trkpt>
      <trkpt lat="49.42824" lon="1.13096">
        <ele>143.2</ele>
        <time>2021-05-02T07:58:27Z</time>
      </trkpt>
      <trkpt lat="49.42827" lon="1.13099">
        <ele>143.2</ele>
        <time>2021-05-02T07:58:28Z</time>
      </trkpt>
      <trkpt lat="49.42831" lon="1.13099">
        <ele>143.1</ele>
        <time>2021-05-02T07:58:30Z</time>
      </trkpt>
      <trkpt lat="49.42834" lon="1.13096">
        <ele>143</ele>
        <time>2021-05-02T07:58:31Z</time>
      </trkpt>
      <trkpt lat="49.42838" lon="1.1309">
        <ele>142.6</ele>
        <time>2021-05-02T07:58:32Z</time>
      </trkpt>
      <trkpt lat="49.42844" lon="1.13082">
        <ele>142.1</ele>
        <time>2021-05-02T07:58:34Z</time>
      </trkpt>
      <trkpt lat="49.42846" lon="1.13079">
        <ele>141.9</ele>
        <time>2021-05-02T07:58:35Z</time>
      </trkpt>
      <trkpt lat="49.42848" lon="1.13072">
        <ele>141.6</ele>
        <time>2021-05-02T07:58:37Z</time>
      </trkpt>
      <trkpt lat="49.4285" lon="1.1307">
        <ele>141.4</ele>
        <time>2021-05-02T07:58:38Z</time>
      </trkpt>
      <trkpt lat="49.42854" lon="1.13066">
        <ele>141.1</ele>
        <time>2021-05-02T07:58:39Z</time>
      </trkpt>
      <trkpt lat="49.4286" lon="1.13063">
        <ele>140.6</ele>
        <time>2021-05-02T07:58:41Z</time>
      </trkpt>
      <trkpt lat="49.42866" lon="1.13057">
        <ele>140.1</ele>
        <time>2021-05-02T07:58:43Z</time>
      </trkpt>
      <trkpt lat="49.42872" lon="1.13056">
        <ele>139.7</ele>
        <time>2021-05-02T07:58:44Z</time>
      </trkpt>
      <trkpt lat="49.42877" lon="1.13054">
        <ele>139.4</ele>
        <time>2021-05-02T07:58:45Z</time>
      </trkpt>
      <trkpt lat="49.42884" lon="1.13053">
        <ele>138.9</ele>
        <time>2021-05-02T07:58:47Z</time>
      </trkpt>
      <trkpt lat="49.42891" lon="1.1305">
        <ele>138.4</ele>
        <time>2021-05-02T07:58:49Z</time>
      </trkpt>
      <trkpt lat="49.42894" lon="1.13049">
        <ele>138.2</ele>
        <time>2021-05-02T07:58:50Z</time>
      </trkpt>
      <trkpt lat="49.42897" lon="1.13048">
        <ele>138</ele>
        <time>2021-05-02T07:58:52Z</time>
      </trkpt>
      <trkpt lat="49.429" lon="1.13047">
        <ele>137.9</ele>
        <time>2021-05-02T07:58:53Z</time>
      </trkpt>
      <trkpt lat="49.42903" lon="1.13045">
        <ele>137.8</ele>
        <time>2021-05-02T07:58:54Z</time>
      </trkpt>
      <trkpt lat="49.42904" lon="1.13044">
        <ele>137.7</ele>
        <time>2021-05-02T07:58:55Z</time>
      </trkpt>
      <trkpt lat="49.42905" lon="1.13041">
        <ele>137.7</ele>
        <time>2021-05-02T07:58:57Z</time>
      </trkpt>
      <trkpt lat="49.42907" lon="1.13039">
        <ele>137.6</ele>
        <time>2021-05-02T07:58:59Z</time>
      </trkpt>
      <trkpt lat="49.42908" lon="1.13037">
        <ele>137.6</ele>
        <time>2021-05-02T07:59:00Z</time>
      </trkpt>
      <trkpt lat="49.4291" lon="1.13037">
        <ele>137.5</ele>
        <time>2021-05-02T07:59:01Z</time>
      </trkpt>
      <trkpt lat="49.42914" lon="1.13036">
        <ele>137.5</ele>
        <time>2021-05-02T07:59:03Z</time>
      </trkpt>
      <trkpt lat="49.42919" lon="1.13034">
        <ele>137.2</ele>
        <time>2021-05-02T07:59:04Z</time>
      </trkpt>
      <trkpt lat="49.42922" lon="1.13032">
        <ele>137.2</ele>
        <time>2021-05-02T07:59:05Z</time>
      </trkpt>
      <trkpt lat="49.42926" lon="1.1303">
        <ele>136.9</ele>
        <time>2021-05-02T07:59:06Z</time>
      </trkpt>
      <trkpt lat="49.42933" lon="1.13027">
        <ele>136.8</ele>
        <time>2021-05-02T07:59:08Z</time>
      </trkpt>
      <trkpt lat="49.42936" lon="1.13025">
        <ele>136.6</ele>
        <time>2021-05-02T07:59:09Z</time>
      </trkpt>
      <trkpt lat="49.42938" lon="1.1302">
        <ele>136.6</ele>
        <time>2021-05-02T07:59:11Z</time>
      </trkpt>
      <trkpt lat="49.42938" lon="1.13019">
        <ele>136.6</ele>
        <time>2021-05-02T07:59:12Z</time>
      </trkpt>
      <trkpt lat="49.42938" lon="1.13015">
        <ele>136.6</ele>
        <time>2021-05-02T07:59:13Z</time>
      </trkpt>
      <trkpt lat="49.42938" lon="1.13006">
        <ele>136.5</ele>
        <time>2021-05-02T07:59:15Z</time>
      </trkpt>
      <trkpt lat="49.42938" lon="1.12996">
        <ele>136.4</ele>
        <time>2021-05-02T07:59:17Z</time>
      </trkpt>
      <trkpt lat="49.42937" lon="1.1299">
        <ele>136.4</ele>
        <time>2021-05-02T07:59:18Z</time>
      </trkpt>
      <trkpt lat="49.42938" lon="1.12981">
        <ele>136.5</ele>
        <time>2021-05-02T07:59:20Z</time>
      </trkpt>
      <trkpt lat="49.42937" lon="1.12975">
        <ele>136.5</ele>
        <time>2021-05-02T07:59:21Z</time>
      </trkpt>
      <trkpt lat="49.42937" lon="1.12966">
        <ele>136.5</ele>
        <time>2021-05-02T07:59:23Z</time>
      </trkpt>
      <trkpt lat="49.42937" lon="1.12964">
        <ele>136.4</ele>
        <time>2021-05-02T07:59:24Z</time>
      </trkpt>
      <trkpt lat="49.42937" lon="1.1296">
        <ele>136.4</ele>
        <time>2021-05-02T07:59:26Z</time>
      </trkpt>
      <trkpt lat="49.42938" lon="1.12953">
        <ele>136.4</ele>
        <time>2021-05-02T07:59:28Z</time>
      </trkpt>
      <trkpt lat="49.42939" lon="1.12949">
        <ele>136.3</ele>
        <time>2021-05-02T07:59:29Z</time>
      </trkpt>
      <trkpt lat="49.4294" lon="1.12944">
        <ele>136.3</ele>
        <time>2021-05-02T07:59:30Z</time>
      </trkpt>
      <trkpt lat="49.42941" lon="1.12942">
        <ele>136.3</ele>
        <time>2021-05-02T07:59:31Z</time>
      </trkpt>
      <trkpt lat="49.42943" lon="1.12936">
        <ele>136.2</ele>
        <time>2021-05-02T07:59:33Z</time>
      </trkpt>
      <trkpt lat="49.42944" lon="1.1293">
        <ele>136.2</ele>
        <time>2021-05-02T07:59:34Z</time>
      </trkpt>
      <trkpt lat="49.42949" lon="1.12926">
        <ele>136.1</ele>
        <time>2021-05-02T07:59:36Z</time>
      </trkpt>
      <trkpt lat="49.42951" lon="1.12923">
        <ele>136.1</ele>
        <time>2021-05-02T07:59:37Z</time>
      </trkpt>
      <trkpt lat="49.42953" lon="1.1292">
        <ele>136.1</ele>
        <time>2021-05-02T07:59:38Z</time>
      </trkpt>
      <trkpt lat="49.42956" lon="1.12916">
        <ele>136.1</ele>
        <time>2021-05-02T07:59:40Z</time>
      </trkpt>
      <trkpt lat="49.42958" lon="1.12911">
        <ele>136.1</ele>
        <time>2021-05-02T07:59:41Z</time>
      </trkpt>
      <trkpt lat="49.4296" lon="1.12908">
        <ele>136.1</ele>
        <time>2021-05-02T07:59:42Z</time>
      </trkpt>
      <trkpt lat="49.42963" lon="1.12906">
        <ele>136.1</ele>
        <time>2021-05-02T07:59:43Z</time>
      </trkpt>
      <trkpt lat="49.42964" lon="1.12906">
        <ele>136.1</ele>
        <time>2021-05-02T07:59:44Z</time>
      </trkpt>
      <trkpt lat="49.42966" lon="1.12906">
        <ele>136.1</ele>
        <time>2021-05-02T07:59:45Z</time>
      </trkpt>
      <trkpt lat="49.4297" lon="1.12905">
        <ele>136.2</ele>
        <time>2021-05-02T07:59:47Z</time>
      </trkpt>
      <trkpt lat="49.42973" lon="1.12904">
        <ele>136.3</ele>
        <time>2021-05-02T07:59:48Z</time>
      </trkpt>
      <trkpt lat="49.42974" lon="1.12904">
        <ele>136.3</ele>
        <time>2021-05-02T07:59:49Z</time>
      </trkpt>
      <trkpt lat="49.42977" lon="1.12904">
        <ele>136.3</ele>
        <time>2021-05-02T07:59:50Z</time>
      </trkpt>
      <trkpt lat="49.42979" lon="1.12903">
        <ele>136.4</ele>
        <time>2021-05-02T07:59:51Z</time>
      </trkpt>
      <trkpt lat="49.42983" lon="1.12902">
        <ele>136.4</ele>
        <time>2021-05-02T07:59:53Z</time>
      </trkpt>
      <trkpt lat="49.42985" lon="1.12902">
        <ele>136.5</ele>
        <time>2021-05-02T07:59:54Z</time>
      </trkpt>
      <trkpt lat="49.42986" lon="1.12901">
        <ele>136.5</ele>
        <time>2021-05-02T07:59:55Z</time>
      </trkpt>
      <trkpt lat="49.42991" lon="1.129">
        <ele>136.6</ele>
        <time>2021-05-02T07:59:57Z</time>
      </trkpt>
      <trkpt lat="49.42992" lon="1.129">
        <ele>136.6</ele>
        <time>2021-05-02T07:59:58Z</time>
      </trkpt>
      <trkpt lat="49.42994" lon="1.129">
        <ele>136.6</ele>
        <time>2021-05-02T07:59:59Z</time>
      </trkpt>
      <trkpt lat="49.42997" lon="1.12899">
        <ele>136.7</ele>
        <time>2021-05-02T08:00:00Z</time>
      </trkpt>
      <trkpt lat="49.43003" lon="1.12898">
        <ele>136.7</ele>
        <time>2021-05-02T08:00:02Z</time>
      </trkpt>
      <trkpt lat="49.43006" lon="1.12897">
        <ele>136.8</ele>
        <time>2021-05-02T08:00:03Z</time>
      </trkpt>
      <trkpt lat="49.43012" lon="1.12896">
        <ele>136.9</ele>
        <time>2021-05-02T08:00:05Z</time>
      </trkpt>
      <trkpt lat="49.43016" lon="1.12894">
        <ele>136.9</ele>
        <time>2021-05-02T08:00:06Z</time>
      </trkpt>
      <trkpt lat="49.43019" lon="1.1289">
        <ele>137</ele>
        <time>2021-05-02T08:00:08Z</time>
      </trkpt>
      <trkpt lat="49.43023" lon="1.12887">
        <ele>137</ele>
        <time>2021-05-02T08:00:09Z</time>
      </trkpt>
      <trkpt lat="49.43024" lon="1.12886">
        <ele>137.1</ele>
        <time>2021-05-02T08:00:10Z</time>
      </trkpt>
      <trkpt lat="49.43027" lon="1.12884">
        <ele>137.2</ele>
        <time>2021-05-02T08:00:11Z</time>
      </trkpt>
      <trkpt lat="49.4303" lon="1.12882">
        <ele>137.3</ele>
        <time>2021-05-02T08:00:13Z</time>
      </trkpt>
      <trkpt lat="49.43032" lon="1.12879">
        <ele>137.4</ele>
        <time>2021-05-02T08:00:14Z</time>
      </trkpt>
      <trkpt lat="49.43034" lon="1.12875">
        <ele>137.5</ele>
        <time>2021-05-02T08:00:16Z</time>
      </trkpt>
      <trkpt lat="49.43038" lon="1.12871">
        <ele>137.7</ele>
        <time>2021-05-02T08:00:17Z</time>
      </trkpt>
      <trkpt lat="49.43039" lon="1.12869">
        <ele>137.8</ele>
        <time>2021-05-02T08:00:18Z</time>
      </trkpt>
      <trkpt lat="49.43042" lon="1.12865">
        <ele>138.1</ele>
        <time>2021-05-02T08:00:20Z</time>
      </trkpt>
      <trkpt lat="49.43044" lon="1.12862">
        <ele>138.3</ele>
        <time>2021-05-02T08:00:21Z</time>
      </trkpt>
      <trkpt lat="49.43045" lon="1.12858">
        <ele>138.4</ele>
        <time>2021-05-02T08:00:22Z</time>
      </trkpt>
      <trkpt lat="49.43046" lon="1.12854">
        <ele>138.6</ele>
        <time>2021-05-02T08:00:24Z</time>
      </trkpt>
      <trkpt lat="49.43046" lon="1.12851">
        <ele>138.8</ele>
        <time>2021-05-02T08:00:25Z</time>
      </trkpt>
      <trkpt lat="49.43046" lon="1.12846">
        <ele>139</ele>
        <time>2021-05-02T08:00:27Z</time>
      </trkpt>
      <trkpt lat="49.43046" lon="1.12842">
        <ele>139.1</ele>
        <time>2021-05-02T08:00:28Z</time>
      </trkpt>
      <trkpt lat="49.43046" lon="1.12837">
        <ele>139.3</ele>
        <time>2021-05-02T08:00:29Z</time>
      </trkpt>
      <trkpt lat="49.43045" lon="1.12829">
        <ele>139.6</ele>
        <time>2021-05-02T08:00:31Z</time>
      </trkpt>
      <trkpt lat="49.43044" lon="1.12824">
        <ele>139.8</ele>
        <time>2021-05-02T08:00:33Z</time>
      </trkpt>
      <trkpt lat="49.43044" lon="1.12822">
        <ele>139.9</ele>
        <time>2021-05-02T08:00:35Z</time>
      </trkpt>
      <trkpt lat="49.43044" lon="1.12819">
        <ele>140</ele>
        <time>2021-05-02T08:00:36Z</time>
      </trkpt>
      <trkpt lat="49.43044" lon="1.12813">
        <ele>140.1</ele>
        <time>2021-05-02T08:00:37Z</time>
      </trkpt>
      <trkpt lat="49.43044" lon="1.12807">
        <ele>140.3</ele>
        <time>2021-05-02T08:00:39Z</time>
      </trkpt>
      <trkpt lat="49.43045" lon="1.12801">
        <ele>140.4</ele>
        <time>2021-05-02T08:00:40Z</time>
      </trkpt>
      <trkpt lat="49.43046" lon="1.12794">
        <ele>140.6</ele>
        <time>2021-05-02T08:00:42Z</time>
      </trkpt>
      <trkpt lat="49.43047" lon="1.12787">
        <ele>140.8</ele>
        <time>2021-05-02T08:00:44Z</time>
      </trkpt>
      <trkpt lat="49.43048" lon="1.12781">
        <ele>140.9</ele>
        <time>2021-05-02T08:00:46Z</time>
      </trkpt>
      <trkpt lat="49.43049" lon="1.12778">
        <ele>140.9</ele>
        <time>2021-05-02T08:00:47Z</time>
      </trkpt>
      <trkpt lat="49.4305" lon="1.12773">
        <ele>141</ele>
        <time>2021-05-02T08:00:49Z</time>
      </trkpt>
      <trkpt lat="49.43051" lon="1.12767">
        <ele>141.1</ele>
        <time>2021-05-02T08:00:50Z</time>
      </trkpt>
      <trkpt lat="49.43052" lon="1.12759">
        <ele>141.2</ele>
        <time>2021-05-02T08:00:52Z</time>
      </trkpt>
      <trkpt lat="49.43053" lon="1.12754">
        <ele>141.3</ele>
        <time>2021-05-02T08:00:53Z</time>
      </trkpt>
      <trkpt lat="49.43054" lon="1.12751">
        <ele>141.3</ele>
        <time>2021-05-02T08:00:54Z</time>
      </trkpt>
      <trkpt lat="49.43056" lon="1.12747">
        <ele>141.3</ele>
        <time>2021-05-02T08:00:56Z</time>
      </trkpt>
      <trkpt lat="49.43057" lon="1.12745">
        <ele>141.4</ele>
        <time>2021-05-02T08:00:57Z</time>
      </trkpt>
      <trkpt lat="49.43058" lon="1.12743">
        <ele>141.4</ele>
        <time>2021-05-02T08:00:58Z</time>
      </trkpt>
      <trkpt lat="49.4306" lon="1.12736">
        <ele>141.5</ele>
        <time>2021-05-02T08:01:00Z</time>
      </trkpt>
      <trkpt lat="49.43061" lon="1.12733">
        <ele>141.5</ele>
        <time>2021-05-02T08:01:02Z</time>
      </trkpt>
      <trkpt lat="49.43063" lon="1.1273">
        <ele>141.5</ele>
        <time>2021-05-02T08:01:03Z</time>
      </trkpt>
      <trkpt lat="49.43064" lon="1.12725">
        <ele>141.5</ele>
        <time>2021-05-02T08:01:04Z</time>
      </trkpt>
      <trkpt lat="49.43067" lon="1.12718">
        <ele>141.6</ele>
        <time>2021-05-02T08:01:06Z</time>
      </trkpt>
      <trkpt lat="49.43069" lon="1.12713">
        <ele>141.6</ele>
        <time>2021-05-02T08:01:08Z</time>
      </trkpt>
      <trkpt lat="49.43071" lon="1.12707">
        <ele>141.6</ele>
        <time>2021-05-02T08:01:09Z</time>
      </trkpt>
      <trkpt lat="49.43073" lon="1.12703">
        <ele>141.6</ele>
        <time>2021-05-02T08:01:10Z</time>
      </trkpt>
      <trkpt lat="49.43076" lon="1.12697">
        <ele>141.6</ele>
        <time>2021-05-02T08:01:12Z</time>
      </trkpt>
      <trkpt lat="49.43079" lon="1.12688">
        <ele>141.6</ele>
        <time>2021-05-02T08:01:13Z</time>
      </trkpt>
      <trkpt lat="49.43081" lon="1.12681">
        <ele>141.6</ele>
        <time>2021-05-02T08:01:15Z</time>
      </trkpt>
      <trkpt lat="49.43083" lon="1.12677">
        <ele>141.6</ele>
        <time>2021-05-02T08:01:16Z</time>
      </trkpt>
      <trkpt lat="49.43085" lon="1.12671">
        <ele>141.6</ele>
        <time>2021-05-02T08:01:17Z</time>
      </trkpt>
      <trkpt lat="49.43086" lon="1.12666">
        <ele>141.6</ele>
        <time>2021-05-02T08:01:19Z</time>
      </trkpt>
      <trkpt lat="49.43088" lon="1.12662">
        <ele>141.6</ele>
        <time>2021-05-02T08:01:20Z</time>
      </trkpt>
      <trkpt lat="49.43088" lon="1.12657">
        <ele>141.5</ele>
        <time>2021-05-02T08:01:22Z</time>
      </trkpt>
      <trkpt lat="49.4309" lon="1.12652">
        <ele>141.5</ele>
        <time>2021-05-02T08:01:23Z</time>
      </trkpt>
      <trkpt lat="49.4309" lon="1.12647">
        <ele>141.5</ele>
        <time>2021-05-02T08:01:24Z</time>
      </trkpt>
      <trkpt lat="49.43091" lon="1.12642">
        <ele>141.4</ele>
        <time>2021-05-02T08:01:26Z</time>
      </trkpt>
      <trkpt lat="49.43091" lon="1.1264">
        <ele>141.4</ele>
        <time>2021-05-02T08:01:27Z</time>
      </trkpt>
      <trkpt lat="49.43091" lon="1.12638">
        <ele>141.4</ele>
        <time>2021-05-02T08:01:28Z</time>
      </trkpt>
      <trkpt lat="49.43093" lon="1.12633">
        <ele>141.4</ele>
        <time>2021-05-02T08:01:30Z</time>
      </trkpt>
      <trkpt lat="49.43095" lon="1.12625">
        <ele>141.3</ele>
        <time>2021-05-02T08:01:32Z</time>
      </trkpt>
      <trkpt lat="49.431" lon="1.12607">
        <ele>141.3</ele>
        <time>2021-05-02T08:01:34Z</time>
      </trkpt>
      <trkpt lat="49.43103" lon="1.12599">
        <ele>141.2</ele>
        <time>2021-05-02T08:01:35Z</time>
      </trkpt>
      <trkpt lat="49.43105" lon="1.1259">
        <ele>141.2</ele>
        <time>2021-05-02T08:01:37Z</time>
      </trkpt>
      <trkpt lat="49.43107" lon="1.12581">
        <ele>141.2</ele>
        <time>2021-05-02T08:01:39Z</time>
      </trkpt>
      <trkpt lat="49.43108" lon="1.12576">
        <ele>141.2</ele>
        <time>2021-05-02T08:01:40Z</time>
      </trkpt>
      <trkpt lat="49.43108" lon="1.1257">
        <ele>141.2</ele>
        <time>2021-05-02T08:01:41Z</time>
      </trkpt>
      <trkpt lat="49.43108" lon="1.12565">
        <ele>141.2</ele>
        <time>2021-05-02T08:01:42Z</time>
      </trkpt>
      <trkpt lat="49.43109" lon="1.12562">
        <ele>141.2</ele>
        <time>2021-05-02T08:01:43Z</time>
      </trkpt>
      <trkpt lat="49.43113" lon="1.12555">
        <ele>141.2</ele>
        <time>2021-05-02T08:01:45Z</time>
      </trkpt>
      <trkpt lat="49.43116" lon="1.12545">
        <ele>141.1</ele>
        <time>2021-05-02T08:01:47Z</time>
      </trkpt>
      <trkpt lat="49.43118" lon="1.12537">
        <ele>141.1</ele>
        <time>2021-05-02T08:01:48Z</time>
      </trkpt>
      <trkpt lat="49.43122" lon="1.12521">
        <ele>141</ele>
        <time>2021-05-02T08:01:50Z</time>
      </trkpt>
      <trkpt lat="49.43123" lon="1.12515">
        <ele>140.9</ele>
        <time>2021-05-02T08:01:51Z</time>
      </trkpt>
      <trkpt lat="49.43124" lon="1.12511">
        <ele>140.9</ele>
        <time>2021-05-02T08:01:52Z</time>
      </trkpt>
      <trkpt lat="49.43124" lon="1.12508">
        <ele>140.9</ele>
        <time>2021-05-02T08:01:53Z</time>
      </trkpt>
      <trkpt lat="49.43125" lon="1.12506">
        <ele>140.8</ele>
        <time>2021-05-02T08:01:54Z</time>
      </trkpt>
      <trkpt lat="49.43125" lon="1.12501">
        <ele>140.8</ele>
        <time>2021-05-02T08:01:56Z</time>
      </trkpt>
      <trkpt lat="49.43127" lon="1.12492">
        <ele>140.7</ele>
        <time>2021-05-02T08:01:58Z</time>
      </trkpt>
      <trkpt lat="49.43127" lon="1.12487">
        <ele>140.7</ele>
        <time>2021-05-02T08:01:59Z</time>
      </trkpt>
      <trkpt lat="49.43128" lon="1.12485">
        <ele>140.7</ele>
        <time>2021-05-02T08:02:00Z</time>
      </trkpt>
      <trkpt lat="49.43129" lon="1.12481">
        <ele>140.6</ele>
        <time>2021-05-02T08:02:02Z</time>
      </trkpt>
      <trkpt lat="49.43129" lon="1.12479">
        <ele>140.6</ele>
        <time>2021-05-02T08:02:03Z</time>
      </trkpt>
      <trkpt lat="49.43129" lon="1.12476">
        <ele>140.6</ele>
        <time>2021-05-02T08:02:05Z</time>
      </trkpt>
      <trkpt lat="49.43129" lon="1.12475">
        <ele>140.6</ele>
        <time>2021-05-02T08:02:06Z</time>
      </trkpt>
      <trkpt lat="49.43129" lon="1.12474">
        <ele>140.5</ele>
        <time>2021-05-02T08:02:08Z</time>
      </trkpt>
      <trkpt lat="49.4313" lon="1.1247">
        <ele>140.5</ele>
        <time>2021-05-02T08:02:10Z</time>
      </trkpt>
      <trkpt lat="49.4313" lon="1.12469">
        <ele>140.5</ele>
        <time>2021-05-02T08:02:11Z</time>
      </trkpt>
      <trkpt lat="49.43132" lon="1.12466">
        <ele>140.5</ele>
        <time>2021-05-02T08:02:13Z</time>
      </trkpt>
      <trkpt lat="49.43132" lon="1.12464">
        <ele>140.5</ele>
        <time>2021-05-02T08:02:14Z</time>
      </trkpt>
      <trkpt lat="49.43134" lon="1.12456">
        <ele>140.4</ele>
        <time>2021-05-02T08:02:16Z</time>
      </trkpt>
      <trkpt lat="49.43136" lon="1.12443">
        <ele>140.3</ele>
        <time>2021-05-02T08:02:18Z</time>
      </trkpt>
      <trkpt lat="49.4314" lon="1.12421">
        <ele>140.3</ele>
        <time>2021-05-02T08:02:20Z</time>
      </trkpt>
      <trkpt lat="49.43143" lon="1.12403">
        <ele>140.2</ele>
        <time>2021-05-02T08:02:22Z</time>
      </trkpt>
      <trkpt lat="49.43145" lon="1.12393">
        <ele>140.2</ele>
        <time>2021-05-02T08:02:23Z</time>
      </trkpt>
      <trkpt lat="49.43147" lon="1.12377">
        <ele>140.1</ele>
        <time>2021-05-02T08:02:25Z</time>
      </trkpt>
      <trkpt lat="49.4315" lon="1.12362">
        <ele>140</ele>
        <time>2021-05-02T08:02:27Z</time>
      </trkpt>
      <trkpt lat="49.43151" lon="1.12358">
        <ele>140</ele>
        <time>2021-05-02T08:02:28Z</time>
      </trkpt>
      <trkpt lat="49.43152" lon="1.12355">
        <ele>140</ele>
        <time>2021-05-02T08:02:29Z</time>
      </trkpt>
      <trkpt lat="49.43153" lon="1.12351">
        <ele>140</ele>
        <time>2021-05-02T08:02:31Z</time>
      </trkpt>
      <trkpt lat="49.43155" lon="1.12345">
        <ele>139.9</ele>
        <time>2021-05-02T08:02:33Z</time>
      </trkpt>
      <trkpt lat="49.43156" lon="1.12341">
        <ele>139.9</ele>
        <time>2021-05-02T08:02:34Z</time>
      </trkpt>
      <trkpt lat="49.43158" lon="1.1233">
        <ele>139.8</ele>
        <time>2021-05-02T08:02:36Z</time>
      </trkpt>
      <trkpt lat="49.43161" lon="1.12316">
        <ele>139.7</ele>
        <time>2021-05-02T08:02:38Z</time>
      </trkpt>
      <trkpt lat="49.43166" lon="1.12292">
        <ele>139.6</ele>
        <time>2021-05-02T08:02:40Z</time>
      </trkpt>
      <trkpt lat="49.43168" lon="1.1228">
        <ele>139.6</ele>
        <time>2021-05-02T08:02:41Z</time>
      </trkpt>
      <trkpt lat="49.4317" lon="1.12264">
        <ele>139.6</ele>
        <time>2021-05-02T08:02:43Z</time>
      </trkpt>
      <trkpt lat="49.43172" lon="1.12252">
        <ele>139.6</ele>
        <time>2021-05-02T08:02:45Z</time>
      </trkpt>
      <trkpt lat="49.43173" lon="1.12247">
        <ele>139.6</ele>
        <time>2021-05-02T08:02:46Z</time>
      </trkpt>
      <trkpt lat="49.43175" lon="1.12236">
        <ele>139.7</ele>
        <time>2021-05-02T08:02:48Z</time>
      </trkpt>
      <trkpt lat="49.43176" lon="1.1223">
        <ele>139.7</ele>
        <time>2021-05-02T08:02:49Z</time>
      </trkpt>
      <trkpt lat="49.43177" lon="1.1222">
        <ele>139.8</ele>
        <time>2021-05-02T08:02:51Z</time>
      </trkpt>
      <trkpt lat="49.43178" lon="1.12215">
        <ele>139.8</ele>
        <time>2021-05-02T08:02:52Z</time>
      </trkpt>
      <trkpt lat="49.43179" lon="1.12208">
        <ele>139.9</ele>
        <time>2021-05-02T08:02:54Z</time>
      </trkpt>
      <trkpt lat="49.4318" lon="1.12202">
        <ele>139.9</ele>
        <time>2021-05-02T08:02:55Z</time>
      </trkpt>
      <trkpt lat="49.4318" lon="1.12196">
        <ele>139.9</ele>
        <time>2021-05-02T08:02:56Z</time>
      </trkpt>
      <trkpt lat="49.4318" lon="1.12191">
        <ele>139.9</ele>
        <time>2021-05-02T08:02:57Z</time>
      </trkpt>
      <trkpt lat="49.43178" lon="1.12184">
        <ele>139.9</ele>
        <time>2021-05-02T08:02:59Z</time>
      </trkpt>
      <trkpt lat="49.43177" lon="1.12176">
        <ele>139.9</ele>
        <time>2021-05-02T08:03:01Z</time>
      </trkpt>
      <trkpt lat="49.43177" lon="1.1217">
        <ele>140</ele>
        <time>2021-05-02T08:03:02Z</time>
      </trkpt>
      <trkpt lat="49.43176" lon="1.12168">
        <ele>140</ele>
        <time>2021-05-02T08:03:03Z</time>
      </trkpt>
      <trkpt lat="49.43176" lon="1.12164">
        <ele>140</ele>
        <time>2021-05-02T08:03:04Z</time>
      </trkpt>
      <trkpt lat="49.43175" lon="1.12159">
        <ele>140</ele>
        <time>2021-05-02T08:03:06Z</time>
      </trkpt>
      <trkpt lat="49.43175" lon="1.12152">
        <ele>140</ele>
        <time>2021-05-02T08:03:07Z</time>
      </trkpt>
      <trkpt lat="49.43174" lon="1.12149">
        <ele>140</ele>
        <time>2021-05-02T08:03:08Z</time>
      </trkpt>
      <trkpt lat="49.43174" lon="1.12144">
        <ele>140</ele>
        <time>2021-05-02T08:03:09Z</time>
      </trkpt>
      <trkpt lat="49.43174" lon="1.12136">
        <ele>140</ele>
        <time>2021-05-02T08:03:11Z</time>
      </trkpt>
      <trkpt lat="49.43174" lon="1.12131">
        <ele>139.9</ele>
        <time>2021-05-02T08:03:12Z</time>
      </trkpt>
      <trkpt lat="49.43174" lon="1.12124">
        <ele>139.9</ele>
        <time>2021-05-02T08:03:14Z</time>
      </trkpt>
      <trkpt lat="49.43175" lon="1.12118">
        <ele>139.9</ele>
        <time>2021-05-02T08:03:15Z</time>
      </trkpt>
      <trkpt lat="49.43177" lon="1.12113">
        <ele>139.8</ele>
        <time>2021-05-02T08:03:16Z</time>
      </trkpt>
      <trkpt lat="49.43177" lon="1.12106">
        <ele>139.8</ele>
        <time>2021-05-02T08:03:18Z</time>
      </trkpt>
      <trkpt lat="49.43177" lon="1.12101">
        <ele>139.7</ele>
        <time>2021-05-02T08:03:20Z</time>
      </trkpt>
      <trkpt lat="49.43177" lon="1.12098">
        <ele>139.7</ele>
        <time>2021-05-02T08:03:21Z</time>
      </trkpt>
      <trkpt lat="49.43178" lon="1.12092">
        <ele>139.7</ele>
        <time>2021-05-02T08:03:23Z</time>
      </trkpt>
      <trkpt lat="49.43179" lon="1.12088">
        <ele>139.7</ele>
        <time>2021-05-02T08:03:24Z</time>
      </trkpt>
      <trkpt lat="49.4318" lon="1.12085">
        <ele>139.6</ele>
        <time>2021-05-02T08:03:26Z</time>
      </trkpt>
      <trkpt lat="49.43182" lon="1.12081">
        <ele>139.6</ele>
        <time>2021-05-02T08:03:27Z</time>
      </trkpt>
      <trkpt lat="49.43183" lon="1.1208">
        <ele>139.6</ele>
        <time>2021-05-02T08:03:28Z</time>
      </trkpt>
      <trkpt lat="49.43184" lon="1.12077">
        <ele>139.6</ele>
        <time>2021-05-02T08:03:29Z</time>
      </trkpt>
      <trkpt lat="49.43188" lon="1.12073">
        <ele>139.5</ele>
        <time>2021-05-02T08:03:31Z</time>
      </trkpt>
      <trkpt lat="49.43192" lon="1.12068">
        <ele>139.5</ele>
        <time>2021-05-02T08:03:32Z</time>
      </trkpt>
      <trkpt lat="49.43194" lon="1.12065">
        <ele>139.4</ele>
        <time>2021-05-02T08:03:33Z</time>
      </trkpt>
      <trkpt lat="49.43197" lon="1.1206">
        <ele>139.4</ele>
        <time>2021-05-02T08:03:35Z</time>
      </trkpt>
      <trkpt lat="49.43198" lon="1.12056">
        <ele>139.3</ele>
        <time>2021-05-02T08:03:36Z</time>
      </trkpt>
      <trkpt lat="49.43204" lon="1.12049">
        <ele>139.2</ele>
        <time>2021-05-02T08:03:38Z</time>
      </trkpt>
      <trkpt lat="49.43206" lon="1.12046">
        <ele>139.1</ele>
        <time>2021-05-02T08:03:39Z</time>
      </trkpt>
      <trkpt lat="49.43208" lon="1.12042">
        <ele>139.1</ele>
        <time>2021-05-02T08:03:40Z</time>
      </trkpt>
      <trkpt lat="49.43211" lon="1.12037">
        <ele>139</ele>
        <time>2021-05-02T08:03:42Z</time>
      </trkpt>
      <trkpt lat="49.43214" lon="1.12032">
        <ele>138.8</ele>
        <time>2021-05-02T08:03:43Z</time>
      </trkpt>
      <trkpt lat="49.43214" lon="1.12024">
        <ele>138.6</ele>
        <time>2021-05-02T08:03:45Z</time>
      </trkpt>
      <trkpt lat="49.43214" lon="1.12017">
        <ele>138.4</ele>
        <time>2021-05-02T08:03:46Z</time>
      </trkpt>
      <trkpt lat="49.43214" lon="1.12014">
        <ele>138.3</ele>
        <time>2021-05-02T08:03:47Z</time>
      </trkpt>
      <trkpt lat="49.43214" lon="1.12012">
        <ele>138.3</ele>
        <time>2021-05-02T08:03:49Z</time>
      </trkpt>
      <trkpt lat="49.43214" lon="1.1201">
        <ele>138.2</ele>
        <time>2021-05-02T08:03:50Z</time>
      </trkpt>
      <trkpt lat="49.43214" lon="1.12009">
        <ele>138.2</ele>
        <time>2021-05-02T08:03:51Z</time>
      </trkpt>
      <trkpt lat="49.43214" lon="1.12008">
        <ele>138.2</ele>
        <time>2021-05-02T08:03:52Z</time>
      </trkpt>
      <trkpt lat="49.43215" lon="1.12007">
        <ele>138.1</ele>
        <time>2021-05-02T08:03:54Z</time>
      </trkpt>
      <trkpt lat="49.43215" lon="1.12006">
        <ele>138.1</ele>
        <time>2021-05-02T08:03:55Z</time>
      </trkpt>
      <trkpt lat="49.43215" lon="1.12005">
        <ele>138.1</ele>
        <time>2021-05-02T08:03:56Z</time>
      </trkpt>
      <trkpt lat="49.43217" lon="1.12">
        <ele>137.9</ele>
        <time>2021-05-02T08:03:58Z</time>
      </trkpt>
      <trkpt lat="49.43217" lon="1.11999">
        <ele>137.9</ele>
        <time>2021-05-02T08:03:59Z</time>
      </trkpt>
      <trkpt lat="49.43217" lon="1.11991">
        <ele>137.6</ele>
        <time>2021-05-02T08:04:01Z</time>
      </trkpt>
      <trkpt lat="49.43217" lon="1.11988">
        <ele>137.5</ele>
        <time>2021-05-02T08:04:02Z</time>
      </trkpt>
      <trkpt lat="49.43217" lon="1.11985">
        <ele>137.4</ele>
        <time>2021-05-02T08:04:03Z</time>
      </trkpt>
      <trkpt lat="49.43217" lon="1.11984">
        <ele>137.3</ele>
        <time>2021-05-02T08:04:04Z</time>
      </trkpt>
      <trkpt lat="49.43218" lon="1.11981">
        <ele>137.2</ele>
        <time>2021-05-02T08:04:06Z</time>
      </trkpt>
      <trkpt lat="49.43219" lon="1.11979">
        <ele>137.1</ele>
        <time>2021-05-02T08:04:07Z</time>
      </trkpt>
      <trkpt lat="49.4322" lon="1.11975">
        <ele>137</ele>
        <time>2021-05-02T08:04:09Z</time>
      </trkpt>
      <trkpt lat="49.43221" lon="1.11973">
        <ele>136.8</ele>
        <time>2021-05-02T08:04:10Z</time>
      </trkpt>
      <trkpt lat="49.43223" lon="1.11967">
        <ele>136.6</ele>
        <time>2021-05-02T08:04:12Z</time>
      </trkpt>
      <trkpt lat="49.43225" lon="1.11963">
        <ele>136.4</ele>
        <time>2021-05-02T08:04:14Z</time>
      </trkpt>
      <trkpt lat="49.43226" lon="1.11961">
        <ele>134.5</ele>
        <time>2021-05-02T08:04:15Z</time>
      </trkpt>
      <trkpt lat="49.43226" lon="1.1196">
        <ele>134.4</ele>
        <time>2021-05-02T08:04:17Z</time>
      </trkpt>
      <trkpt lat="49.43226" lon="1.1196">
        <ele>134.4</ele>
        <time>2021-05-02T08:04:18Z</time>
      </trkpt>
      <trkpt lat="49.43226" lon="1.1196">
        <ele>134.4</ele>
        <time>2021-05-02T08:04:20Z</time>
      </trkpt>
      <trkpt lat="49.43226" lon="1.1196">
        <ele>134.4</ele>
        <time>2021-05-02T08:04:21Z</time>
      </trkpt>
      <trkpt lat="49.43226" lon="1.11961">
        <ele>134.4</ele>
        <time>2021-05-02T08:04:23Z</time>
      </trkpt>
      <trkpt lat="49.43226" lon="1.11961">
        <ele>134.3</ele>
        <time>2021-05-02T08:04:24Z</time>
      </trkpt>
      <trkpt lat="49.43225" lon="1.11966">
        <ele>134</ele>
        <time>2021-05-02T08:04:26Z</time>
      </trkpt>
      <trkpt lat="49.43225" lon="1.11967">
        <ele>133.9</ele>
        <time>2021-05-02T08:04:27Z</time>
      </trkpt>
      <trkpt lat="49.43224" lon="1.11969">
        <ele>133.8</ele>
        <time>2021-05-02T08:04:29Z</time>
      </trkpt>
      <trkpt lat="49.43223" lon="1.11969">
        <ele>133.7</ele>
        <time>2021-05-02T08:04:30Z</time>
      </trkpt>
      <trkpt lat="49.43221" lon="1.11969">
        <ele>133.5</ele>
        <time>2021-05-02T08:04:32Z</time>
      </trkpt>
      <trkpt lat="49.43218" lon="1.11969">
        <ele>133.3</ele>
        <time>2021-05-02T08:04:33Z</time>
      </trkpt>
      <trkpt lat="49.43217" lon="1.11967">
        <ele>133.2</ele>
        <time>2021-05-02T08:04:34Z</time>
      </trkpt>
      <trkpt lat="49.43215" lon="1.11964">
        <ele>133</ele>
        <time>2021-05-02T08:04:35Z</time>
      </trkpt>
      <trkpt lat="49.43212" lon="1.11962">
        <ele>132.9</ele>
        <time>2021-05-02T08:04:37Z</time>
      </trkpt>
      <trkpt lat="49.43207" lon="1.11958">
        <ele>132.8</ele>
        <time>2021-05-02T08:04:38Z</time>
      </trkpt>
      <trkpt lat="49.43204" lon="1.11956">
        <ele>132.8</ele>
        <time>2021-05-02T08:04:39Z</time>
      </trkpt>
      <trkpt lat="49.432" lon="1.11951">
        <ele>132.8</ele>
        <time>2021-05-02T08:04:40Z</time>
      </trkpt>
      <trkpt lat="49.43195" lon="1.11948">
        <ele>132.8</ele>
        <time>2021-05-02T08:04:42Z</time>
      </trkpt>
      <trkpt lat="49.43192" lon="1.11946">
        <ele>132.8</ele>
        <time>2021-05-02T08:04:44Z</time>
      </trkpt>
      <trkpt lat="49.43193" lon="1.11943">
        <ele>132.7</ele>
        <time>2021-05-02T08:04:45Z</time>
      </trkpt>
      <trkpt lat="49.43193" lon="1.1194">
        <ele>132.7</ele>
        <time>2021-05-02T08:04:47Z</time>
      </trkpt>
      <trkpt lat="49.43192" lon="1.11936">
        <ele>132.7</ele>
        <time>2021-05-02T08:04:48Z</time>
      </trkpt>
      <trkpt lat="49.4319" lon="1.11931">
        <ele>132.7</ele>
        <time>2021-05-02T08:04:50Z</time>
      </trkpt>
      <trkpt lat="49.43189" lon="1.11929">
        <ele>132.7</ele>
        <time>2021-05-02T08:04:51Z</time>
      </trkpt>
      <trkpt lat="49.43188" lon="1.11921">
        <ele>132.6</ele>
        <time>2021-05-02T08:04:53Z</time>
      </trkpt>
      <trkpt lat="49.43187" lon="1.11921">
        <ele>132.6</ele>
        <time>2021-05-02T08:04:55Z</time>
      </trkpt>
      <trkpt lat="49.43187" lon="1.11921">
        <ele>132.6</ele>
        <time>2021-05-02T08:04:56Z</time>
      </trkpt>
      <trkpt lat="49.43187" lon="1.11921">
        <ele>132.6</ele>
        <time>2021-05-02T08:04:58Z</time>
      </trkpt>
      <trkpt lat="49.43188" lon="1.1192">
        <ele>132.6</ele>
        <time>2021-05-02T08:05:00Z</time>
      </trkpt>
      <trkpt lat="49.43188" lon="1.11919">
        <ele>132.6</ele>
        <time>2021-05-02T08:05:02Z</time>
      </trkpt>
      <trkpt lat="49.43188" lon="1.11918">
        <ele>132.6</ele>
        <time>2021-05-02T08:05:03Z</time>
      </trkpt>
      <trkpt lat="49.43188" lon="1.11917">
        <ele>132.6</ele>
        <time>2021-05-02T08:05:04Z</time>
      </trkpt>
      <trkpt lat="49.43188" lon="1.11916">
        <ele>132.5</ele>
        <time>2021-05-02T08:05:05Z</time>
      </trkpt>
      <trkpt lat="49.43188" lon="1.11915">
        <ele>132.5</ele>
        <time>2021-05-02T08:05:06Z</time>
      </trkpt>
      <trkpt lat="49.43188" lon="1.11915">
        <ele>132.5</ele>
        <time>2021-05-02T08:05:08Z</time>
      </trkpt>
      <trkpt lat="49.43188" lon="1.11914">
        <ele>132.5</ele>
        <time>2021-05-02T08:05:09Z</time>
      </trkpt>
      <trkpt lat="49.43188" lon="1.11914">
        <ele>132.5</ele>
        <time>2021-05-02T08:05:11Z</time>
      </trkpt>
      <trkpt lat="49.43188" lon="1.11914">
        <ele>132.5</ele>
        <time>2021-05-02T08:05:12Z</time>
      </trkpt>
      <trkpt lat="49.43188" lon="1.11914">
        <ele>132.5</ele>
        <time>2021-05-02T08:05:14Z</time>
      </trkpt>
      <trkpt lat="49.43186" lon="1.11907">
        <ele>132.4</ele>
        <time>2021-05-02T08:05:33Z</time>
      </trkpt>
      <trkpt lat="49.43184" lon="1.11901">
        <ele>132.4</ele>
        <time>2021-05-02T08:05:35Z</time>
      </trkpt>
      <trkpt lat="49.43182" lon="1.11897">
        <ele>132.3</ele>
        <time>2021-05-02T08:05:36Z</time>
      </trkpt>
      <trkpt lat="49.43179" lon="1.11892">
        <ele>132.3</ele>
        <time>2021-05-02T08:05:38Z</time>
      </trkpt>
      <trkpt lat="49.43178" lon="1.11888">
        <ele>132.2</ele>
        <time>2021-05-02T08:05:39Z</time>
      </trkpt>
      <trkpt lat="49.43176" lon="1.11884">
        <ele>132.2</ele>
        <time>2021-05-02T08:05:40Z</time>
      </trkpt>
      <trkpt lat="49.43175" lon="1.11883">
        <ele>132.2</ele>
        <time>2021-05-02T08:05:41Z</time>
      </trkpt>
      <trkpt lat="49.43174" lon="1.11878">
        <ele>132.2</ele>
        <time>2021-05-02T08:05:42Z</time>
      </trkpt>
      <trkpt lat="49.43174" lon="1.11875">
        <ele>132.2</ele>
        <time>2021-05-02T08:05:43Z</time>
      </trkpt>
      <trkpt lat="49.43173" lon="1.11869">
        <ele>132.2</ele>
        <time>2021-05-02T08:05:45Z</time>
      </trkpt>
      <trkpt lat="49.43172" lon="1.11863">
        <ele>132.2</ele>
        <time>2021-05-02T08:05:46Z</time>
      </trkpt>
      <trkpt lat="49.43171" lon="1.11858">
        <ele>132.3</ele>
        <time>2021-05-02T08:05:48Z</time>
      </trkpt>
      <trkpt lat="49.43169" lon="1.11856">
        <ele>132.4</ele>
        <time>2021-05-02T08:05:49Z</time>
      </trkpt>
      <trkpt lat="49.43167" lon="1.11854">
        <ele>132.5</ele>
        <time>2021-05-02T08:05:51Z</time>
      </trkpt>
      <trkpt lat="49.43165" lon="1.11852">
        <ele>132.7</ele>
        <time>2021-05-02T08:05:52Z</time>
      </trkpt>
      <trkpt lat="49.43161" lon="1.1185">
        <ele>133</ele>
        <time>2021-05-02T08:05:53Z</time>
      </trkpt>
      <trkpt lat="49.43156" lon="1.11846">
        <ele>133.4</ele>
        <time>2021-05-02T08:05:54Z</time>
      </trkpt>
      <trkpt lat="49.43152" lon="1.11843">
        <ele>133.8</ele>
        <time>2021-05-02T08:05:55Z</time>
      </trkpt>
      <trkpt lat="49.43146" lon="1.11837">
        <ele>134.4</ele>
        <time>2021-05-02T08:05:57Z</time>
      </trkpt>
      <trkpt lat="49.43143" lon="1.11833">
        <ele>134.7</ele>
        <time>2021-05-02T08:05:58Z</time>
      </trkpt>
      <trkpt lat="49.43141" lon="1.11829">
        <ele>135</ele>
        <time>2021-05-02T08:05:59Z</time>
      </trkpt>
      <trkpt lat="49.43138" lon="1.11825">
        <ele>135.2</ele>
        <time>2021-05-02T08:06:00Z</time>
      </trkpt>
      <trkpt lat="49.43134" lon="1.11823">
        <ele>135.5</ele>
        <time>2021-05-02T08:06:01Z</time>
      </trkpt>
      <trkpt lat="49.4313" lon="1.1182">
        <ele>135.8</ele>
        <time>2021-05-02T08:06:03Z</time>
      </trkpt>
      <trkpt lat="49.43126" lon="1.11818">
        <ele>136.1</ele>
        <time>2021-05-02T08:06:04Z</time>
      </trkpt>
      <trkpt lat="49.43123" lon="1.11816">
        <ele>136.3</ele>
        <time>2021-05-02T08:06:05Z</time>
      </trkpt>
      <trkpt lat="49.4312" lon="1.11812">
        <ele>136.7</ele>
        <time>2021-05-02T08:06:07Z</time>
      </trkpt>
      <trkpt lat="49.43118" lon="1.11807">
        <ele>137</ele>
        <time>2021-05-02T08:06:08Z</time>
      </trkpt>
      <trkpt lat="49.43117" lon="1.11806">
        <ele>137.2</ele>
        <time>2021-05-02T08:06:09Z</time>
      </trkpt>
      <trkpt lat="49.43115" lon="1.11802">
        <ele>137.5</ele>
        <time>2021-05-02T08:06:10Z</time>
      </trkpt>
      <trkpt lat="49.43114" lon="1.11796">
        <ele>138.1</ele>
        <time>2021-05-02T08:06:12Z</time>
      </trkpt>
      <trkpt lat="49.43113" lon="1.11791">
        <ele>138.5</ele>
        <time>2021-05-02T08:06:13Z</time>
      </trkpt>
      <trkpt lat="49.43112" lon="1.1179">
        <ele>138.6</ele>
        <time>2021-05-02T08:06:14Z</time>
      </trkpt>
      <trkpt lat="49.43111" lon="1.11788">
        <ele>138.9</ele>
        <time>2021-05-02T08:06:15Z</time>
      </trkpt>
      <trkpt lat="49.43107" lon="1.11787">
        <ele>139.4</ele>
        <time>2021-05-02T08:06:17Z</time>
      </trkpt>
      <trkpt lat="49.43106" lon="1.11787">
        <ele>139.5</ele>
        <time>2021-05-02T08:06:18Z</time>
      </trkpt>
      <trkpt lat="49.43106" lon="1.11786">
        <ele>139.6</ele>
        <time>2021-05-02T08:06:20Z</time>
      </trkpt>
      <trkpt lat="49.43105" lon="1.11786">
        <ele>139.7</ele>
        <time>2021-05-02T08:06:21Z</time>
      </trkpt>
      <trkpt lat="49.43103" lon="1.11784">
        <ele>140</ele>
        <time>2021-05-02T08:06:23Z</time>
      </trkpt>
      <trkpt lat="49.43102" lon="1.11782">
        <ele>140.2</ele>
        <time>2021-05-02T08:06:24Z</time>
      </trkpt>
      <trkpt lat="49.431" lon="1.1178">
        <ele>140.5</ele>
        <time>2021-05-02T08:06:26Z</time>
      </trkpt>
      <trkpt lat="49.431" lon="1.11778">
        <ele>140.6</ele>
        <time>2021-05-02T08:06:27Z</time>
      </trkpt>
      <trkpt lat="49.43098" lon="1.11777">
        <ele>140.7</ele>
        <time>2021-05-02T08:06:29Z</time>
      </trkpt>
      <trkpt lat="49.43097" lon="1.11775">
        <ele>140.9</ele>
        <time>2021-05-02T08:06:30Z</time>
      </trkpt>
      <trkpt lat="49.43096" lon="1.11775">
        <ele>140.9</ele>
        <time>2021-05-02T08:06:32Z</time>
      </trkpt>
      <trkpt lat="49.43096" lon="1.11775">
        <ele>140.9</ele>
        <time>2021-05-02T08:06:33Z</time>
      </trkpt>
      <trkpt lat="49.43095" lon="1.11774">
        <ele>141</ele>
        <time>2021-05-02T08:06:35Z</time>
      </trkpt>
      <trkpt lat="49.43093" lon="1.11773">
        <ele>141.1</ele>
        <time>2021-05-02T08:06:36Z</time>
      </trkpt>
      <trkpt lat="49.43093" lon="1.11768">
        <ele>141.3</ele>
        <time>2021-05-02T08:06:37Z</time>
      </trkpt>
      <trkpt lat="49.43093" lon="1.11766">
        <ele>141.3</ele>
        <time>2021-05-02T08:06:38Z</time>
      </trkpt>
      <trkpt lat="49.43094" lon="1.1176">
        <ele>141.5</ele>
        <time>2021-05-02T08:06:40Z</time>
      </trkpt>
      <trkpt lat="49.43095" lon="1.11758">
        <ele>141.5</ele>
        <time>2021-05-02T08:06:41Z</time>
      </trkpt>
      <trkpt lat="49.43095" lon="1.11755">
        <ele>141.5</ele>
        <time>2021-05-02T08:06:42Z</time>
      </trkpt>
      <trkpt lat="49.43096" lon="1.11749">
        <ele>141.4</ele>
        <time>2021-05-02T08:06:44Z</time>
      </trkpt>
      <trkpt lat="49.43098" lon="1.11742">
        <ele>141.3</ele>
        <time>2021-05-02T08:06:46Z</time>
      </trkpt>
      <trkpt lat="49.43098" lon="1.11737">
        <ele>141.3</ele>
        <time>2021-05-02T08:06:47Z</time>
      </trkpt>
      <trkpt lat="49.43099" lon="1.11732">
        <ele>141.2</ele>
        <time>2021-05-02T08:06:48Z</time>
      </trkpt>
      <trkpt lat="49.431" lon="1.11726">
        <ele>141.2</ele>
        <time>2021-05-02T08:06:49Z</time>
      </trkpt>
      <trkpt lat="49.431" lon="1.11721">
        <ele>141.2</ele>
        <time>2021-05-02T08:06:50Z</time>
      </trkpt>
      <trkpt lat="49.43098" lon="1.11715">
        <ele>141.2</ele>
        <time>2021-05-02T08:06:52Z</time>
      </trkpt>
      <trkpt lat="49.43096" lon="1.11711">
        <ele>141.1</ele>
        <time>2021-05-02T08:06:53Z</time>
      </trkpt>
      <trkpt lat="49.43094" lon="1.11708">
        <ele>141.1</ele>
        <time>2021-05-02T08:06:54Z</time>
      </trkpt>
      <trkpt lat="49.43092" lon="1.11705">
        <ele>141.1</ele>
        <time>2021-05-02T08:06:56Z</time>
      </trkpt>
      <trkpt lat="49.43091" lon="1.11704">
        <ele>141.1</ele>
        <time>2021-05-02T08:06:57Z</time>
      </trkpt>
      <trkpt lat="49.43088" lon="1.11701">
        <ele>141.1</ele>
        <time>2021-05-02T08:06:58Z</time>
      </trkpt>
      <trkpt lat="49.43087" lon="1.117">
        <ele>141.1</ele>
        <time>2021-05-02T08:06:59Z</time>
      </trkpt>
      <trkpt lat="49.43081" lon="1.11695">
        <ele>141.1</ele>
        <time>2021-05-02T08:07:01Z</time>
      </trkpt>
      <trkpt lat="49.43075" lon="1.11687">
        <ele>141.1</ele>
        <time>2021-05-02T08:07:02Z</time>
      </trkpt>
      <trkpt lat="49.43068" lon="1.11679">
        <ele>141.1</ele>
        <time>2021-05-02T08:07:04Z</time>
      </trkpt>
      <trkpt lat="49.43065" lon="1.11675">
        <ele>141.1</ele>
        <time>2021-05-02T08:07:05Z</time>
      </trkpt>
      <trkpt lat="49.43062" lon="1.11672">
        <ele>141.1</ele>
        <time>2021-05-02T08:07:06Z</time>
      </trkpt>
      <trkpt lat="49.43057" lon="1.11668">
        <ele>141</ele>
        <time>2021-05-02T08:07:08Z</time>
      </trkpt>
      <trkpt lat="49.43052" lon="1.11661">
        <ele>141</ele>
        <time>2021-05-02T08:07:10Z</time>
      </trkpt>
      <trkpt lat="49.43048" lon="1.11657">
        <ele>141</ele>
        <time>2021-05-02T08:07:11Z</time>
      </trkpt>
      <trkpt lat="49.43044" lon="1.11653">
        <ele>141</ele>
        <time>2021-05-02T08:07:13Z</time>
      </trkpt>
      <trkpt lat="49.43041" lon="1.1165">
        <ele>140.9</ele>
        <time>2021-05-02T08:07:14Z</time>
      </trkpt>
      <trkpt lat="49.43039" lon="1.11645">
        <ele>140.8</ele>
        <time>2021-05-02T08:07:15Z</time>
      </trkpt>
      <trkpt lat="49.43038" lon="1.11641">
        <ele>140.7</ele>
        <time>2021-05-02T08:07:17Z</time>
      </trkpt>
      <trkpt lat="49.43038" lon="1.11636">
        <ele>140.7</ele>
        <time>2021-05-02T08:07:18Z</time>
      </trkpt>
      <trkpt lat="49.4304" lon="1.11632">
        <ele>140.6</ele>
        <time>2021-05-02T08:07:20Z</time>
      </trkpt>
      <trkpt lat="49.43041" lon="1.11631">
        <ele>140.6</ele>
        <time>2021-05-02T08:07:22Z</time>
      </trkpt>
      <trkpt lat="49.43043" lon="1.11631">
        <ele>140.6</ele>
        <time>2021-05-02T08:07:23Z</time>
      </trkpt>
      <trkpt lat="49.43044" lon="1.11633">
        <ele>140.5</ele>
        <time>2021-05-02T08:07:25Z</time>
      </trkpt>
      <trkpt lat="49.43044" lon="1.11635">
        <ele>140.5</ele>
        <time>2021-05-02T08:07:26Z</time>
      </trkpt>
      <trkpt lat="49.43044" lon="1.11636">
        <ele>140.5</ele>
        <time>2021-05-02T08:07:27Z</time>
      </trkpt>
      <trkpt lat="49.43043" lon="1.11638">
        <ele>140.5</ele>
        <time>2021-05-02T08:07:29Z</time>
      </trkpt>
      <trkpt lat="49.43043" lon="1.11638">
        <ele>140.5</ele>
        <time>2021-05-02T08:07:31Z</time>
      </trkpt>
      <trkpt lat="49.43043" lon="1.11638">
        <ele>140.5</ele>
        <time>2021-05-02T08:07:32Z</time>
      </trkpt>
      <trkpt lat="49.43041" lon="1.11637">
        <ele>140.4</ele>
        <time>2021-05-02T08:07:33Z</time>
      </trkpt>
      <trkpt lat="49.43041" lon="1.11634">
        <ele>140.4</ele>
        <time>2021-05-02T08:07:34Z</time>
      </trkpt>
      <trkpt lat="49.43042" lon="1.11632">
        <ele>140.4</ele>
        <time>2021-05-02T08:07:36Z</time>
      </trkpt>
      <trkpt lat="49.43042" lon="1.11631">
        <ele>140.4</ele>
        <time>2021-05-02T08:07:37Z</time>
      </trkpt>
      <trkpt lat="49.43045" lon="1.11624">
        <ele>140.3</ele>
        <time>2021-05-02T08:07:38Z</time>
      </trkpt>
      <trkpt lat="49.4305" lon="1.11613">
        <ele>140.2</ele>
        <time>2021-05-02T08:07:40Z</time>
      </trkpt>
      <trkpt lat="49.43053" lon="1.11606">
        <ele>140.2</ele>
        <time>2021-05-02T08:07:41Z</time>
      </trkpt>
      <trkpt lat="49.43056" lon="1.116">
        <ele>140.1</ele>
        <time>2021-05-02T08:07:42Z</time>
      </trkpt>
      <trkpt lat="49.43059" lon="1.11594">
        <ele>140.1</ele>
        <time>2021-05-02T08:07:44Z</time>
      </trkpt>
      <trkpt lat="49.43062" lon="1.11588">
        <ele>140</ele>
        <time>2021-05-02T08:07:45Z</time>
      </trkpt>
      <trkpt lat="49.43064" lon="1.11585">
        <ele>140</ele>
        <time>2021-05-02T08:07:46Z</time>
      </trkpt>
      <trkpt lat="49.43067" lon="1.11577">
        <ele>140</ele>
        <time>2021-05-02T08:07:48Z</time>
      </trkpt>
      <trkpt lat="49.43068" lon="1.11572">
        <ele>139.9</ele>
        <time>2021-05-02T08:07:50Z</time>
      </trkpt>
      <trkpt lat="49.43069" lon="1.11568">
        <ele>139.9</ele>
        <time>2021-05-02T08:07:51Z</time>
      </trkpt>
      <trkpt lat="49.43072" lon="1.11564">
        <ele>139.9</ele>
        <time>2021-05-02T08:07:52Z</time>
      </trkpt>
      <trkpt lat="49.43075" lon="1.11558">
        <ele>139.8</ele>
        <time>2021-05-02T08:07:54Z</time>
      </trkpt>
      <trkpt lat="49.43077" lon="1.11554">
        <ele>139.8</ele>
        <time>2021-05-02T08:07:55Z</time>
      </trkpt>
      <trkpt lat="49.43082" lon="1.11547">
        <ele>139.8</ele>
        <time>2021-05-02T08:07:57Z</time>
      </trkpt>
      <trkpt lat="49.43085" lon="1.11541">
        <ele>139.8</ele>
        <time>2021-05-02T08:07:59Z</time>
      </trkpt>
      <trkpt lat="49.43087" lon="1.11537">
        <ele>139.8</ele>
        <time>2021-05-02T08:08:00Z</time>
      </trkpt>
      <trkpt lat="49.4309" lon="1.11533">
        <ele>139.8</ele>
        <time>2021-05-02T08:08:02Z</time>
      </trkpt>
      <trkpt lat="49.43091" lon="1.11531">
        <ele>139.8</ele>
        <time>2021-05-02T08:08:03Z</time>
      </trkpt>
      <trkpt lat="49.43094" lon="1.11527">
        <ele>139.8</ele>
        <time>2021-05-02T08:08:04Z</time>
      </trkpt>
      <trkpt lat="49.43097" lon="1.11521">
        <ele>139.9</ele>
        <time>2021-05-02T08:08:05Z</time>
      </trkpt>
      <trkpt lat="49.431" lon="1.11514">
        <ele>139.9</ele>
        <time>2021-05-02T08:08:07Z</time>
      </trkpt>
      <trkpt lat="49.43103" lon="1.11508">
        <ele>140</ele>
        <time>2021-05-02T08:08:08Z</time>
      </trkpt>
      <trkpt lat="49.43105" lon="1.11504">
        <ele>140.1</ele>
        <time>2021-05-02T08:08:09Z</time>
      </trkpt>
      <trkpt lat="49.43108" lon="1.115">
        <ele>140.1</ele>
        <time>2021-05-02T08:08:10Z</time>
      </trkpt>
      <trkpt lat="49.43111" lon="1.11495">
        <ele>140.2</ele>
        <time>2021-05-02T08:08:12Z</time>
      </trkpt>
      <trkpt lat="49.43113" lon="1.1149">
        <ele>140.3</ele>
        <time>2021-05-02T08:08:13Z</time>
      </trkpt>
      <trkpt lat="49.43115" lon="1.11486">
        <ele>140.4</ele>
        <time>2021-05-02T08:08:14Z</time>
      </trkpt>
      <trkpt lat="49.4312" lon="1.11478">
        <ele>140.5</ele>
        <time>2021-05-02T08:08:17Z</time>
      </trkpt>
      <trkpt lat="49.43123" lon="1.11473">
        <ele>140.5</ele>
        <time>2021-05-02T08:08:19Z</time>
      </trkpt>
      <trkpt lat="49.43124" lon="1.11468">
        <ele>140.6</ele>
        <time>2021-05-02T08:08:20Z</time>
      </trkpt>
      <trkpt lat="49.43124" lon="1.11467">
        <ele>140.6</ele>
        <time>2021-05-02T08:08:21Z</time>
      </trkpt>
      <trkpt lat="49.43125" lon="1.11461">
        <ele>140.6</ele>
        <time>2021-05-02T08:08:23Z</time>
      </trkpt>
      <trkpt lat="49.43127" lon="1.11456">
        <ele>140.6</ele>
        <time>2021-05-02T08:08:24Z</time>
      </trkpt>
      <trkpt lat="49.43127" lon="1.11455">
        <ele>140.6</ele>
        <time>2021-05-02T08:08:25Z</time>
      </trkpt>
      <trkpt lat="49.43129" lon="1.1145">
        <ele>140.6</ele>
        <time>2021-05-02T08:08:27Z</time>
      </trkpt>
      <trkpt lat="49.43132" lon="1.11446">
        <ele>140.6</ele>
        <time>2021-05-02T08:08:28Z</time>
      </trkpt>
      <trkpt lat="49.43134" lon="1.11442">
        <ele>140.6</ele>
        <time>2021-05-02T08:08:30Z</time>
      </trkpt>
      <trkpt lat="49.43135" lon="1.11439">
        <ele>140.6</ele>
        <time>2021-05-02T08:08:31Z</time>
      </trkpt>
      <trkpt lat="49.43137" lon="1.11436">
        <ele>140.6</ele>
        <time>2021-05-02T08:08:33Z</time>
      </trkpt>
      <trkpt lat="49.4314" lon="1.11431">
        <ele>140.5</ele>
        <time>2021-05-02T08:08:34Z</time>
      </trkpt>
      <trkpt lat="49.43141" lon="1.11429">
        <ele>140.5</ele>
        <time>2021-05-02T08:08:35Z</time>
      </trkpt>
      <trkpt lat="49.43143" lon="1.11424">
        <ele>140.4</ele>
        <time>2021-05-02T08:08:37Z</time>
      </trkpt>
      <trkpt lat="49.43145" lon="1.1142">
        <ele>140.4</ele>
        <time>2021-05-02T08:08:38Z</time>
      </trkpt>
      <trkpt lat="49.43151" lon="1.11408">
        <ele>140.2</ele>
        <time>2021-05-02T08:08:40Z</time>
      </trkpt>
      <trkpt lat="49.43154" lon="1.11401">
        <ele>140.1</ele>
        <time>2021-05-02T08:08:42Z</time>
      </trkpt>
      <trkpt lat="49.43157" lon="1.11393">
        <ele>140</ele>
        <time>2021-05-02T08:08:43Z</time>
      </trkpt>
      <trkpt lat="49.4316" lon="1.11385">
        <ele>139.9</ele>
        <time>2021-05-02T08:08:44Z</time>
      </trkpt>
      <trkpt lat="49.43162" lon="1.11377">
        <ele>139.9</ele>
        <time>2021-05-02T08:08:45Z</time>
      </trkpt>
      <trkpt lat="49.43164" lon="1.11372">
        <ele>139.9</ele>
        <time>2021-05-02T08:08:46Z</time>
      </trkpt>
      <trkpt lat="49.43167" lon="1.11365">
        <ele>139.9</ele>
        <time>2021-05-02T08:08:47Z</time>
      </trkpt>
      <trkpt lat="49.43169" lon="1.11359">
        <ele>139.9</ele>
        <time>2021-05-02T08:08:49Z</time>
      </trkpt>
      <trkpt lat="49.4317" lon="1.11355">
        <ele>139.9</ele>
        <time>2021-05-02T08:08:50Z</time>
      </trkpt>
      <trkpt lat="49.43174" lon="1.11349">
        <ele>140</ele>
        <time>2021-05-02T08:08:52Z</time>
      </trkpt>
      <trkpt lat="49.43176" lon="1.11346">
        <ele>140</ele>
        <time>2021-05-02T08:08:53Z</time>
      </trkpt>
      <trkpt lat="49.43178" lon="1.11342">
        <ele>140</ele>
        <time>2021-05-02T08:08:55Z</time>
      </trkpt>
      <trkpt lat="49.43179" lon="1.11339">
        <ele>140</ele>
        <time>2021-05-02T08:08:56Z</time>
      </trkpt>
      <trkpt lat="49.43182" lon="1.11334">
        <ele>140.1</ele>
        <time>2021-05-02T08:08:58Z</time>
      </trkpt>
      <trkpt lat="49.43183" lon="1.1133">
        <ele>140.1</ele>
        <time>2021-05-02T08:08:59Z</time>
      </trkpt>
      <trkpt lat="49.43184" lon="1.11325">
        <ele>140.1</ele>
        <time>2021-05-02T08:09:01Z</time>
      </trkpt>
      <trkpt lat="49.43185" lon="1.11322">
        <ele>140.1</ele>
        <time>2021-05-02T08:09:02Z</time>
      </trkpt>
      <trkpt lat="49.43186" lon="1.11319">
        <ele>140.1</ele>
        <time>2021-05-02T08:09:03Z</time>
      </trkpt>
      <trkpt lat="49.43188" lon="1.11313">
        <ele>140.1</ele>
        <time>2021-05-02T08:09:05Z</time>
      </trkpt>
      <trkpt lat="49.43189" lon="1.1131">
        <ele>140.1</ele>
        <time>2021-05-02T08:09:06Z</time>
      </trkpt>
      <trkpt lat="49.43192" lon="1.11304">
        <ele>140.1</ele>
        <time>2021-05-02T08:09:08Z</time>
      </trkpt>
      <trkpt lat="49.43194" lon="1.113">
        <ele>140.1</ele>
        <time>2021-05-02T08:09:09Z</time>
      </trkpt>
      <trkpt lat="49.43197" lon="1.11294">
        <ele>140.1</ele>
        <time>2021-05-02T08:09:10Z</time>
      </trkpt>
      <trkpt lat="49.43202" lon="1.11288">
        <ele>140.3</ele>
        <time>2021-05-02T08:09:12Z</time>
      </trkpt>
      <trkpt lat="49.43205" lon="1.11284">
        <ele>140.3</ele>
        <time>2021-05-02T08:09:13Z</time>
      </trkpt>
      <trkpt lat="49.43208" lon="1.1128">
        <ele>140.5</ele>
        <time>2021-05-02T08:09:14Z</time>
      </trkpt>
      <trkpt lat="49.43211" lon="1.11275">
        <ele>140.7</ele>
        <time>2021-05-02T08:09:16Z</time>
      </trkpt>
      <trkpt lat="49.43213" lon="1.11271">
        <ele>140.8</ele>
        <time>2021-05-02T08:09:17Z</time>
      </trkpt>
      <trkpt lat="49.43216" lon="1.11266">
        <ele>141</ele>
        <time>2021-05-02T08:09:18Z</time>
      </trkpt>
      <trkpt lat="49.4322" lon="1.11258">
        <ele>141.3</ele>
        <time>2021-05-02T08:09:20Z</time>
      </trkpt>
      <trkpt lat="49.43222" lon="1.11255">
        <ele>141.4</ele>
        <time>2021-05-02T08:09:21Z</time>
      </trkpt>
      <trkpt lat="49.43224" lon="1.1125">
        <ele>141.5</ele>
        <time>2021-05-02T08:09:23Z</time>
      </trkpt>
      <trkpt lat="49.43227" lon="1.11245">
        <ele>141.5</ele>
        <time>2021-05-02T08:09:25Z</time>
      </trkpt>
      <trkpt lat="49.4323" lon="1.1124">
        <ele>141.6</ele>
        <time>2021-05-02T08:09:26Z</time>
      </trkpt>
      <trkpt lat="49.43233" lon="1.11238">
        <ele>141.6</ele>
        <time>2021-05-02T08:09:27Z</time>
      </trkpt>
      <trkpt lat="49.43236" lon="1.11234">
        <ele>141.5</ele>
        <time>2021-05-02T08:09:29Z</time>
      </trkpt>
      <trkpt lat="49.43237" lon="1.11232">
        <ele>141.5</ele>
        <time>2021-05-02T08:09:30Z</time>
      </trkpt>
      <trkpt lat="49.43238" lon="1.11231">
        <ele>141.5</ele>
        <time>2021-05-02T08:09:31Z</time>
      </trkpt>
      <trkpt lat="49.43239" lon="1.11229">
        <ele>141.5</ele>
        <time>2021-05-02T08:09:32Z</time>
      </trkpt>
      <trkpt lat="49.43244" lon="1.11224">
        <ele>141.4</ele>
        <time>2021-05-02T08:09:34Z</time>
      </trkpt>
      <trkpt lat="49.43246" lon="1.11221">
        <ele>141.4</ele>
        <time>2021-05-02T08:09:35Z</time>
      </trkpt>
      <trkpt lat="49.43247" lon="1.1122">
        <ele>141.4</ele>
        <time>2021-05-02T08:09:36Z</time>
      </trkpt>
      <trkpt lat="49.4325" lon="1.11216">
        <ele>141.3</ele>
        <time>2021-05-02T08:09:38Z</time>
      </trkpt>
      <trkpt lat="49.43254" lon="1.11212">
        <ele>141.1</ele>
        <time>2021-05-02T08:09:39Z</time>
      </trkpt>
      <trkpt lat="49.43264" lon="1.11201">
        <ele>140.6</ele>
        <time>2021-05-02T08:09:40Z</time>
      </trkpt>
      <trkpt lat="49.43274" lon="1.11186">
        <ele>140.1</ele>
        <time>2021-05-02T08:09:42Z</time>
      </trkpt>
      <trkpt lat="49.4328" lon="1.11177">
        <ele>140</ele>
        <time>2021-05-02T08:09:43Z</time>
      </trkpt>
      <trkpt lat="49.43287" lon="1.11166">
        <ele>139.9</ele>
        <time>2021-05-02T08:09:44Z</time>
      </trkpt>
      <trkpt lat="49.43291" lon="1.11159">
        <ele>140</ele>
        <time>2021-05-02T08:09:46Z</time>
      </trkpt>
      <trkpt lat="49.43295" lon="1.11152">
        <ele>140</ele>
        <time>2021-05-02T08:09:47Z</time>
      </trkpt>
      <trkpt lat="49.43298" lon="1.11147">
        <ele>140</ele>
        <time>2021-05-02T08:09:48Z</time>
      </trkpt>
      <trkpt lat="49.43301" lon="1.11143">
        <ele>139.9</ele>
        <time>2021-05-02T08:09:49Z</time>
      </trkpt>
      <trkpt lat="49.43305" lon="1.11137">
        <ele>139.9</ele>
        <time>2021-05-02T08:09:51Z</time>
      </trkpt>
      <trkpt lat="49.43307" lon="1.11133">
        <ele>139.9</ele>
        <time>2021-05-02T08:09:52Z</time>
      </trkpt>
      <trkpt lat="49.43309" lon="1.11129">
        <ele>139.8</ele>
        <time>2021-05-02T08:09:53Z</time>
      </trkpt>
      <trkpt lat="49.43313" lon="1.11125">
        <ele>139.7</ele>
        <time>2021-05-02T08:09:55Z</time>
      </trkpt>
      <trkpt lat="49.43317" lon="1.11121">
        <ele>139.5</ele>
        <time>2021-05-02T08:09:56Z</time>
      </trkpt>
      <trkpt lat="49.43319" lon="1.11118">
        <ele>139.3</ele>
        <time>2021-05-02T08:09:57Z</time>
      </trkpt>
      <trkpt lat="49.4332" lon="1.11115">
        <ele>139.2</ele>
        <time>2021-05-02T08:09:58Z</time>
      </trkpt>
      <trkpt lat="49.43321" lon="1.11112">
        <ele>139</ele>
        <time>2021-05-02T08:10:00Z</time>
      </trkpt>
      <trkpt lat="49.43322" lon="1.11112">
        <ele>138.9</ele>
        <time>2021-05-02T08:10:02Z</time>
      </trkpt>
      <trkpt lat="49.43321" lon="1.11112">
        <ele>138.9</ele>
        <time>2021-05-02T08:10:03Z</time>
      </trkpt>
      <trkpt lat="49.43321" lon="1.11112">
        <ele>138.9</ele>
        <time>2021-05-02T08:10:04Z</time>
      </trkpt>
      <trkpt lat="49.43321" lon="1.11112">
        <ele>138.8</ele>
        <time>2021-05-02T08:10:05Z</time>
      </trkpt>
      <trkpt lat="49.4332" lon="1.11112">
        <ele>138.8</ele>
        <time>2021-05-02T08:10:07Z</time>
      </trkpt>
      <trkpt lat="49.4332" lon="1.11113">
        <ele>138.7</ele>
        <time>2021-05-02T08:10:09Z</time>
      </trkpt>
      <trkpt lat="49.4332" lon="1.11113">
        <ele>138.7</ele>
        <time>2021-05-02T08:10:11Z</time>
      </trkpt>
      <trkpt lat="49.4332" lon="1.1111">
        <ele>138.3</ele>
        <time>2021-05-02T08:11:12Z</time>
      </trkpt>
      <trkpt lat="49.43321" lon="1.11109">
        <ele>138.2</ele>
        <time>2021-05-02T08:11:13Z</time>
      </trkpt>
      <trkpt lat="49.43322" lon="1.11108">
        <ele>138</ele>
        <time>2021-05-02T08:11:14Z</time>
      </trkpt>
      <trkpt lat="49.43322" lon="1.11107">
        <ele>137.9</ele>
        <time>2021-05-02T08:11:15Z</time>
      </trkpt>
      <trkpt lat="49.43323" lon="1.11107">
        <ele>137.7</ele>
        <time>2021-05-02T08:11:17Z</time>
      </trkpt>
      <trkpt lat="49.43323" lon="1.11107">
        <ele>137.7</ele>
        <time>2021-05-02T08:11:19Z</time>
      </trkpt>
      <trkpt lat="49.43323" lon="1.11107">
        <ele>137.7</ele>
        <time>2021-05-02T08:11:21Z</time>
      </trkpt>
      <trkpt lat="49.43323" lon="1.11106">
        <ele>137.6</ele>
        <time>2021-05-02T08:11:23Z</time>
      </trkpt>
      <trkpt lat="49.43324" lon="1.11106">
        <ele>137.4</ele>
        <time>2021-05-02T08:11:25Z</time>
      </trkpt>
      <trkpt lat="49.43325" lon="1.11106">
        <ele>137.3</ele>
        <time>2021-05-02T08:11:26Z</time>
      </trkpt>
      <trkpt lat="49.43325" lon="1.11106">
        <ele>137.2</ele>
        <time>2021-05-02T08:11:27Z</time>
      </trkpt>
      <trkpt lat="49.43326" lon="1.11104">
        <ele>136.8</ele>
        <time>2021-05-02T08:11:29Z</time>
      </trkpt>
      <trkpt lat="49.43327" lon="1.11103">
        <ele>136.6</ele>
        <time>2021-05-02T08:11:30Z</time>
      </trkpt>
      <trkpt lat="49.43327" lon="1.11102">
        <ele>136.3</ele>
        <time>2021-05-02T08:11:31Z</time>
      </trkpt>
      <trkpt lat="49.43328" lon="1.11101">
        <ele>136.1</ele>
        <time>2021-05-02T08:11:33Z</time>
      </trkpt>
      <trkpt lat="49.43328" lon="1.111">
        <ele>135.9</ele>
        <time>2021-05-02T08:11:34Z</time>
      </trkpt>
      <trkpt lat="49.43329" lon="1.11099">
        <ele>135.7</ele>
        <time>2021-05-02T08:11:35Z</time>
      </trkpt>
      <trkpt lat="49.43329" lon="1.11098">
        <ele>135.4</ele>
        <time>2021-05-02T08:11:37Z</time>
      </trkpt>
      <trkpt lat="49.4333" lon="1.11097">
        <ele>135.2</ele>
        <time>2021-05-02T08:11:38Z</time>
      </trkpt>
      <trkpt lat="49.43331" lon="1.11096">
        <ele>134.9</ele>
        <time>2021-05-02T08:11:39Z</time>
      </trkpt>
      <trkpt lat="49.43331" lon="1.11095">
        <ele>134.7</ele>
        <time>2021-05-02T08:11:40Z</time>
      </trkpt>
      <trkpt lat="49.43331" lon="1.11093">
        <ele>134.4</ele>
        <time>2021-05-02T08:11:42Z</time>
      </trkpt>
      <trkpt lat="49.43331" lon="1.11093">
        <ele>134.2</ele>
        <time>2021-05-02T08:11:43Z</time>
      </trkpt>
      <trkpt lat="49.4333" lon="1.11091">
        <ele>133.7</ele>
        <time>2021-05-02T08:11:45Z</time>
      </trkpt>
      <trkpt lat="49.43329" lon="1.1109">
        <ele>133.4</ele>
        <time>2021-05-02T08:11:46Z</time>
      </trkpt>
      <trkpt lat="49.43329" lon="1.11086">
        <ele>132.7</ele>
        <time>2021-05-02T08:11:48Z</time>
      </trkpt>
      <trkpt lat="49.4333" lon="1.11084">
        <ele>132.3</ele>
        <time>2021-05-02T08:11:49Z</time>
      </trkpt>
      <trkpt lat="49.43331" lon="1.1108">
        <ele>131.6</ele>
        <time>2021-05-02T08:11:51Z</time>
      </trkpt>
      <trkpt lat="49.43333" lon="1.11077">
        <ele>130.8</ele>
        <time>2021-05-02T08:11:52Z</time>
      </trkpt>
      <trkpt lat="49.43336" lon="1.11073">
        <ele>129.8</ele>
        <time>2021-05-02T08:11:54Z</time>
      </trkpt>
      <trkpt lat="49.43336" lon="1.11072">
        <ele>129.6</ele>
        <time>2021-05-02T08:11:55Z</time>
      </trkpt>
      <trkpt lat="49.43337" lon="1.11067">
        <ele>128.8</ele>
        <time>2021-05-02T08:11:56Z</time>
      </trkpt>
      <trkpt lat="49.43337" lon="1.11059">
        <ele>127.7</ele>
        <time>2021-05-02T08:11:58Z</time>
      </trkpt>
      <trkpt lat="49.43336" lon="1.11054">
        <ele>126.3</ele>
        <time>2021-05-02T08:11:59Z</time>
      </trkpt>
      <trkpt lat="49.43337" lon="1.11049">
        <ele>125.9</ele>
        <time>2021-05-02T08:12:01Z</time>
      </trkpt>
      <trkpt lat="49.43338" lon="1.11045">
        <ele>125.5</ele>
        <time>2021-05-02T08:12:02Z</time>
      </trkpt>
      <trkpt lat="49.43338" lon="1.11043">
        <ele>125.3</ele>
        <time>2021-05-02T08:12:03Z</time>
      </trkpt>
      <trkpt lat="49.43338" lon="1.11041">
        <ele>125.2</ele>
        <time>2021-05-02T08:12:05Z</time>
      </trkpt>
      <trkpt lat="49.43339" lon="1.11041">
        <ele>125</ele>
        <time>2021-05-02T08:12:06Z</time>
      </trkpt>
      <trkpt lat="49.43339" lon="1.11039">
        <ele>124.8</ele>
        <time>2021-05-02T08:12:07Z</time>
      </trkpt>
      <trkpt lat="49.43337" lon="1.11039">
        <ele>124.7</ele>
        <time>2021-05-02T08:12:08Z</time>
      </trkpt>
      <trkpt lat="49.43336" lon="1.11038">
        <ele>124.5</ele>
        <time>2021-05-02T08:12:10Z</time>
      </trkpt>
      <trkpt lat="49.43335" lon="1.11038">
        <ele>124.3</ele>
        <time>2021-05-02T08:12:11Z</time>
      </trkpt>
      <trkpt lat="49.43333" lon="1.11035">
        <ele>123.9</ele>
        <time>2021-05-02T08:12:13Z</time>
      </trkpt>
      <trkpt lat="49.43332" lon="1.11033">
        <ele>123.6</ele>
        <time>2021-05-02T08:12:14Z</time>
      </trkpt>
      <trkpt lat="49.43331" lon="1.11031">
        <ele>123.3</ele>
        <time>2021-05-02T08:12:16Z</time>
      </trkpt>
      <trkpt lat="49.43331" lon="1.11029">
        <ele>123.1</ele>
        <time>2021-05-02T08:12:17Z</time>
      </trkpt>
      <trkpt lat="49.43333" lon="1.11032">
        <ele>122.7</ele>
        <time>2021-05-02T08:12:18Z</time>
      </trkpt>
      <trkpt lat="49.43333" lon="1.11031">
        <ele>122.6</ele>
        <time>2021-05-02T08:12:20Z</time>
      </trkpt>
      <trkpt lat="49.43333" lon="1.11029">
        <ele>122.5</ele>
        <time>2021-05-02T08:12:21Z</time>
      </trkpt>
      <trkpt lat="49.43334" lon="1.11027">
        <ele>122.2</ele>
        <time>2021-05-02T08:12:23Z</time>
      </trkpt>
      <trkpt lat="49.43335" lon="1.11025">
        <ele>122</ele>
        <time>2021-05-02T08:12:24Z</time>
      </trkpt>
      <trkpt lat="49.43337" lon="1.11021">
        <ele>121.5</ele>
        <time>2021-05-02T08:12:26Z</time>
      </trkpt>
      <trkpt lat="49.43338" lon="1.11019">
        <ele>121.3</ele>
        <time>2021-05-02T08:12:27Z</time>
      </trkpt>
      <trkpt lat="49.43342" lon="1.11012">
        <ele>120.5</ele>
        <time>2021-05-02T08:12:29Z</time>
      </trkpt>
      <trkpt lat="49.43346" lon="1.11004">
        <ele>119.7</ele>
        <time>2021-05-02T08:12:31Z</time>
      </trkpt>
      <trkpt lat="49.43349" lon="1.11001">
        <ele>119.5</ele>
        <time>2021-05-02T08:12:32Z</time>
      </trkpt>
      <trkpt lat="49.43351" lon="1.10998">
        <ele>119.5</ele>
        <time>2021-05-02T08:12:33Z</time>
      </trkpt>
      <trkpt lat="49.43353" lon="1.10997">
        <ele>119.5</ele>
        <time>2021-05-02T08:12:34Z</time>
      </trkpt>
      <trkpt lat="49.43356" lon="1.10996">
        <ele>119.5</ele>
        <time>2021-05-02T08:12:36Z</time>
      </trkpt>
      <trkpt lat="49.43359" lon="1.10995">
        <ele>119.5</ele>
        <time>2021-05-02T08:12:37Z</time>
      </trkpt>
      <trkpt lat="49.43359" lon="1.10994">
        <ele>119.5</ele>
        <time>2021-05-02T08:12:38Z</time>
      </trkpt>
      <trkpt lat="49.43359" lon="1.10993">
        <ele>119.5</ele>
        <time>2021-05-02T08:12:39Z</time>
      </trkpt>
      <trkpt lat="49.43359" lon="1.1099">
        <ele>119.5</ele>
        <time>2021-05-02T08:12:41Z</time>
      </trkpt>
      <trkpt lat="49.43358" lon="1.10989">
        <ele>119.5</ele>
        <time>2021-05-02T08:12:43Z</time>
      </trkpt>
      <trkpt lat="49.43357" lon="1.10991">
        <ele>119.5</ele>
        <time>2021-05-02T08:12:45Z</time>
      </trkpt>
      <trkpt lat="49.43357" lon="1.10992">
        <ele>119.5</ele>
        <time>2021-05-02T08:12:46Z</time>
      </trkpt>
      <trkpt lat="49.43357" lon="1.10992">
        <ele>119.5</ele>
        <time>2021-05-02T08:12:47Z</time>
      </trkpt>
      <trkpt lat="49.43357" lon="1.10993">
        <ele>119.5</ele>
        <time>2021-05-02T08:12:48Z</time>
      </trkpt>
      <trkpt lat="49.43358" lon="1.10994">
        <ele>119.5</ele>
        <time>2021-05-02T08:12:50Z</time>
      </trkpt>
      <trkpt lat="49.43358" lon="1.10995">
        <ele>119.5</ele>
        <time>2021-05-02T08:12:51Z</time>
      </trkpt>
      <trkpt lat="49.43359" lon="1.10996">
        <ele>119.5</ele>
        <time>2021-05-02T08:12:53Z</time>
      </trkpt>
      <trkpt lat="49.4336" lon="1.10996">
        <ele>119.5</ele>
        <time>2021-05-02T08:12:54Z</time>
      </trkpt>
      <trkpt lat="49.43361" lon="1.10995">
        <ele>119.5</ele>
        <time>2021-05-02T08:12:55Z</time>
      </trkpt>
      <trkpt lat="49.43362" lon="1.10994">
        <ele>119.5</ele>
        <time>2021-05-02T08:12:56Z</time>
      </trkpt>
      <trkpt lat="49.43362" lon="1.10991">
        <ele>119.5</ele>
        <time>2021-05-02T08:12:58Z</time>
      </trkpt>
      <trkpt lat="49.43362" lon="1.10992">
        <ele>119.5</ele>
        <time>2021-05-02T08:13:00Z</time>
      </trkpt>
      <trkpt lat="49.43361" lon="1.10992">
        <ele>119.5</ele>
        <time>2021-05-02T08:13:01Z</time>
      </trkpt>
      <trkpt lat="49.43361" lon="1.10992">
        <ele>119.5</ele>
        <time>2021-05-02T08:13:02Z</time>
      </trkpt>
      <trkpt lat="49.43359" lon="1.10993">
        <ele>119.5</ele>
        <time>2021-05-02T08:13:04Z</time>
      </trkpt>
      <trkpt lat="49.43357" lon="1.10998">
        <ele>119.5</ele>
        <time>2021-05-02T08:13:05Z</time>
      </trkpt>
      <trkpt lat="49.43357" lon="1.1102">
        <ele>119.3</ele>
        <time>2021-05-02T08:13:06Z</time>
      </trkpt>
      <trkpt lat="49.43357" lon="1.1104">
        <ele>118.8</ele>
        <time>2021-05-02T08:13:07Z</time>
      </trkpt>
      <trkpt lat="49.43357" lon="1.1106">
        <ele>118.4</ele>
        <time>2021-05-02T08:13:09Z</time>
      </trkpt>
      <trkpt lat="49.4336" lon="1.11082">
        <ele>117.9</ele>
        <time>2021-05-02T08:13:11Z</time>
      </trkpt>
      <trkpt lat="49.43362" lon="1.11093">
        <ele>117.7</ele>
        <time>2021-05-02T08:13:12Z</time>
      </trkpt>
      <trkpt lat="49.43367" lon="1.1111">
        <ele>117.4</ele>
        <time>2021-05-02T08:13:14Z</time>
      </trkpt>
      <trkpt lat="49.43372" lon="1.11126">
        <ele>117</ele>
        <time>2021-05-02T08:13:16Z</time>
      </trkpt>
      <trkpt lat="49.43376" lon="1.11141">
        <ele>116.7</ele>
        <time>2021-05-02T08:13:18Z</time>
      </trkpt>
      <trkpt lat="49.43381" lon="1.11157">
        <ele>116.4</ele>
        <time>2021-05-02T08:13:20Z</time>
      </trkpt>
      <trkpt lat="49.43385" lon="1.11174">
        <ele>116</ele>
        <time>2021-05-02T08:13:22Z</time>
      </trkpt>
      <trkpt lat="49.43387" lon="1.11183">
        <ele>115.8</ele>
        <time>2021-05-02T08:13:23Z</time>
      </trkpt>
      <trkpt lat="49.43391" lon="1.11201">
        <ele>115.4</ele>
        <time>2021-05-02T08:13:25Z</time>
      </trkpt>
      <trkpt lat="49.43395" lon="1.11219">
        <ele>115</ele>
        <time>2021-05-02T08:13:27Z</time>
      </trkpt>
      <trkpt lat="49.43395" lon="1.11231">
        <ele>114.7</ele>
        <time>2021-05-02T08:13:29Z</time>
      </trkpt>
      <trkpt lat="49.43397" lon="1.11233">
        <ele>114.7</ele>
        <time>2021-05-02T08:13:31Z</time>
      </trkpt>
      <trkpt lat="49.43398" lon="1.11232">
        <ele>114.7</ele>
        <time>2021-05-02T08:13:32Z</time>
      </trkpt>
      <trkpt lat="49.43401" lon="1.11228">
        <ele>114.5</ele>
        <time>2021-05-02T08:13:34Z</time>
      </trkpt>
      <trkpt lat="49.43405" lon="1.11222">
        <ele>114.3</ele>
        <time>2021-05-02T08:13:35Z</time>
      </trkpt>
      <trkpt lat="49.43408" lon="1.11211">
        <ele>114</ele>
        <time>2021-05-02T08:13:37Z</time>
      </trkpt>
      <trkpt lat="49.43408" lon="1.11202">
        <ele>113.8</ele>
        <time>2021-05-02T08:13:38Z</time>
      </trkpt>
      <trkpt lat="49.43406" lon="1.11179">
        <ele>113.1</ele>
        <time>2021-05-02T08:13:40Z</time>
      </trkpt>
      <trkpt lat="49.43403" lon="1.11154">
        <ele>112.4</ele>
        <time>2021-05-02T08:13:42Z</time>
      </trkpt>
      <trkpt lat="49.43401" lon="1.11129">
        <ele>111.8</ele>
        <time>2021-05-02T08:13:44Z</time>
      </trkpt>
      <trkpt lat="49.43399" lon="1.11116">
        <ele>112.9</ele>
        <time>2021-05-02T08:13:45Z</time>
      </trkpt>
      <trkpt lat="49.43396" lon="1.11091">
        <ele>112.5</ele>
        <time>2021-05-02T08:13:47Z</time>
      </trkpt>
      <trkpt lat="49.43397" lon="1.11078">
        <ele>111.5</ele>
        <time>2021-05-02T08:13:48Z</time>
      </trkpt>
      <trkpt lat="49.43398" lon="1.11064">
        <ele>110.1</ele>
        <time>2021-05-02T08:13:49Z</time>
      </trkpt>
      <trkpt lat="49.434" lon="1.11037">
        <ele>109.5</ele>
        <time>2021-05-02T08:13:51Z</time>
      </trkpt>
      <trkpt lat="49.43405" lon="1.11009">
        <ele>108.8</ele>
        <time>2021-05-02T08:13:53Z</time>
      </trkpt>
      <trkpt lat="49.43411" lon="1.10986">
        <ele>108.3</ele>
        <time>2021-05-02T08:13:55Z</time>
      </trkpt>
      <trkpt lat="49.43414" lon="1.10974">
        <ele>108</ele>
        <time>2021-05-02T08:13:56Z</time>
      </trkpt>
      <trkpt lat="49.43418" lon="1.10951">
        <ele>107.4</ele>
        <time>2021-05-02T08:13:58Z</time>
      </trkpt>
      <trkpt lat="49.4342" lon="1.10939">
        <ele>107.1</ele>
        <time>2021-05-02T08:13:59Z</time>
      </trkpt>
      <trkpt lat="49.43425" lon="1.10921">
        <ele>106.7</ele>
        <time>2021-05-02T08:14:01Z</time>
      </trkpt>
      <trkpt lat="49.43429" lon="1.10902">
        <ele>106.2</ele>
        <time>2021-05-02T08:14:03Z</time>
      </trkpt>
      <trkpt lat="49.43432" lon="1.10888">
        <ele>105.9</ele>
        <time>2021-05-02T08:14:05Z</time>
      </trkpt>
      <trkpt lat="49.43434" lon="1.10883">
        <ele>87.9</ele>
        <time>2021-05-02T08:14:07Z</time>
      </trkpt>
      <trkpt lat="49.43436" lon="1.10881">
        <ele>87.7</ele>
        <time>2021-05-02T08:14:08Z</time>
      </trkpt>
      <trkpt lat="49.43439" lon="1.10878">
        <ele>87.2</ele>
        <time>2021-05-02T08:14:10Z</time>
      </trkpt>
      <trkpt lat="49.43445" lon="1.1088">
        <ele>86.4</ele>
        <time>2021-05-02T08:14:12Z</time>
      </trkpt>
      <trkpt lat="49.43443" lon="1.1088">
        <ele>86.1</ele>
        <time>2021-05-02T08:14:14Z</time>
      </trkpt>
      <trkpt lat="49.43444" lon="1.10881">
        <ele>86</ele>
        <time>2021-05-02T08:14:16Z</time>
      </trkpt>
      <trkpt lat="49.43444" lon="1.10881">
        <ele>85.9</ele>
        <time>2021-05-02T08:14:17Z</time>
      </trkpt>
      <trkpt lat="49.43445" lon="1.10881">
        <ele>85.8</ele>
        <time>2021-05-02T08:14:19Z</time>
      </trkpt>
      <trkpt lat="49.43445" lon="1.10881">
        <ele>85.8</ele>
        <time>2021-05-02T08:14:21Z</time>
      </trkpt>
      <trkpt lat="49.43445" lon="1.10882">
        <ele>85.8</ele>
        <time>2021-05-02T08:14:22Z</time>
      </trkpt>
      <trkpt lat="49.43446" lon="1.10867">
        <ele>84.2</ele>
        <time>2021-05-02T08:15:13Z</time>
      </trkpt>
      <trkpt lat="49.43446" lon="1.1087">
        <ele>83.9</ele>
        <time>2021-05-02T08:15:15Z</time>
      </trkpt>
      <trkpt lat="49.43446" lon="1.1087">
        <ele>83.8</ele>
        <time>2021-05-02T08:15:16Z</time>
      </trkpt>
      <trkpt lat="49.43446" lon="1.10869">
        <ele>83.6</ele>
        <time>2021-05-02T08:15:17Z</time>
      </trkpt>
      <trkpt lat="49.43446" lon="1.10869">
        <ele>83.6</ele>
        <time>2021-05-02T08:15:18Z</time>
      </trkpt>
      <trkpt lat="49.43447" lon="1.10869">
        <ele>83.6</ele>
        <time>2021-05-02T08:15:20Z</time>
      </trkpt>
      <trkpt lat="49.43447" lon="1.10869">
        <ele>83.5</ele>
        <time>2021-05-02T08:15:22Z</time>
      </trkpt>
      <trkpt lat="49.43447" lon="1.1087">
        <ele>83.5</ele>
        <time>2021-05-02T08:15:23Z</time>
      </trkpt>
      <trkpt lat="49.43447" lon="1.1087">
        <ele>83.4</ele>
        <time>2021-05-02T08:15:25Z</time>
      </trkpt>
      <trkpt lat="49.43448" lon="1.1087">
        <ele>83.4</ele>
        <time>2021-05-02T08:15:27Z</time>
      </trkpt>
      <trkpt lat="49.43448" lon="1.1087">
        <ele>83.3</ele>
        <time>2021-05-02T08:15:28Z</time>
      </trkpt>
      <trkpt lat="49.43448" lon="1.1087">
        <ele>83.3</ele>
        <time>2021-05-02T08:15:30Z</time>
      </trkpt>
      <trkpt lat="49.43448" lon="1.10871">
        <ele>83.2</ele>
        <time>2021-05-02T08:15:32Z</time>
      </trkpt>
      <trkpt lat="49.43448" lon="1.10871">
        <ele>83.1</ele>
        <time>2021-05-02T08:15:34Z</time>
      </trkpt>
      <trkpt lat="49.43448" lon="1.10871">
        <ele>83.1</ele>
        <time>2021-05-02T08:15:36Z</time>
      </trkpt>
      <trkpt lat="49.43449" lon="1.10871">
        <ele>83.1</ele>
        <time>2021-05-02T08:15:37Z</time>
      </trkpt>
      <trkpt lat="49.43449" lon="1.10871">
        <ele>83</ele>
        <time>2021-05-02T08:15:39Z</time>
      </trkpt>
      <trkpt lat="49.43449" lon="1.10872">
        <ele>83</ele>
        <time>2021-05-02T08:15:41Z</time>
      </trkpt>
      <trkpt lat="49.43449" lon="1.10873">
        <ele>82.8</ele>
        <time>2021-05-02T08:15:43Z</time>
      </trkpt>
      <trkpt lat="49.43449" lon="1.10873">
        <ele>82.8</ele>
        <time>2021-05-02T08:15:44Z</time>
      </trkpt>
      <trkpt lat="49.43449" lon="1.10872">
        <ele>82.7</ele>
        <time>2021-05-02T08:15:46Z</time>
      </trkpt>
      <trkpt lat="49.4345" lon="1.10872">
        <ele>82.7</ele>
        <time>2021-05-02T08:15:47Z</time>
      </trkpt>
      <trkpt lat="49.4345" lon="1.10872">
        <ele>82.6</ele>
        <time>2021-05-02T08:15:49Z</time>
      </trkpt>
      <trkpt lat="49.4345" lon="1.10872">
        <ele>82.6</ele>
        <time>2021-05-02T08:15:50Z</time>
      </trkpt>
      <trkpt lat="49.43449" lon="1.10872">
        <ele>82.5</ele>
        <time>2021-05-02T08:15:52Z</time>
      </trkpt>
      <trkpt lat="49.43451" lon="1.10873">
        <ele>82.1</ele>
        <time>2021-05-02T08:16:07Z</time>
      </trkpt>
      <trkpt lat="49.43455" lon="1.10874">
        <ele>81.3</ele>
        <time>2021-05-02T08:16:08Z</time>
      </trkpt>
      <trkpt lat="49.43459" lon="1.10878">
        <ele>80.2</ele>
        <time>2021-05-02T08:16:09Z</time>
      </trkpt>
      <trkpt lat="49.43463" lon="1.1088">
        <ele>79.1</ele>
        <time>2021-05-02T08:16:11Z</time>
      </trkpt>
      <trkpt lat="49.43466" lon="1.10883">
        <ele>78.2</ele>
        <time>2021-05-02T08:16:12Z</time>
      </trkpt>
      <trkpt lat="49.43468" lon="1.10885">
        <ele>77.8</ele>
        <time>2021-05-02T08:16:13Z</time>
      </trkpt>
      <trkpt lat="49.43468" lon="1.10888">
        <ele>77.3</ele>
        <time>2021-05-02T08:16:15Z</time>
      </trkpt>
      <trkpt lat="49.43469" lon="1.10892">
        <ele>76.5</ele>
        <time>2021-05-02T08:16:16Z</time>
      </trkpt>
      <trkpt lat="49.4347" lon="1.10893">
        <ele>76.3</ele>
        <time>2021-05-02T08:16:17Z</time>
      </trkpt>
      <trkpt lat="49.43473" lon="1.10897">
        <ele>75.1</ele>
        <time>2021-05-02T08:16:19Z</time>
      </trkpt>
      <trkpt lat="49.43476" lon="1.109">
        <ele>74.4</ele>
        <time>2021-05-02T08:16:20Z</time>
      </trkpt>
      <trkpt lat="49.43479" lon="1.10903">
        <ele>73.4</ele>
        <time>2021-05-02T08:16:22Z</time>
      </trkpt>
      <trkpt lat="49.4348" lon="1.10906">
        <ele>72.7</ele>
        <time>2021-05-02T08:16:24Z</time>
      </trkpt>
      <trkpt lat="49.43481" lon="1.10906">
        <ele>72.5</ele>
        <time>2021-05-02T08:16:25Z</time>
      </trkpt>
      <trkpt lat="49.43481" lon="1.10907">
        <ele>72.4</ele>
        <time>2021-05-02T08:16:27Z</time>
      </trkpt>
      <trkpt lat="49.43482" lon="1.10908">
        <ele>72.1</ele>
        <time>2021-05-02T08:16:29Z</time>
      </trkpt>
      <trkpt lat="49.43484" lon="1.10908">
        <ele>71.5</ele>
        <time>2021-05-02T08:16:30Z</time>
      </trkpt>
      <trkpt lat="49.43487" lon="1.10907">
        <ele>70.7</ele>
        <time>2021-05-02T08:16:31Z</time>
      </trkpt>
      <trkpt lat="49.4349" lon="1.10908">
        <ele>69.9</ele>
        <time>2021-05-02T08:16:33Z</time>
      </trkpt>
      <trkpt lat="49.43493" lon="1.10909">
        <ele>69.2</ele>
        <time>2021-05-02T08:16:34Z</time>
      </trkpt>
      <trkpt lat="49.43496" lon="1.10911">
        <ele>68.4</ele>
        <time>2021-05-02T08:16:35Z</time>
      </trkpt>
      <trkpt lat="49.43496" lon="1.10912">
        <ele>68.2</ele>
        <time>2021-05-02T08:16:36Z</time>
      </trkpt>
      <trkpt lat="49.43498" lon="1.10913">
        <ele>67.7</ele>
        <time>2021-05-02T08:16:37Z</time>
      </trkpt>
      <trkpt lat="49.435" lon="1.10914">
        <ele>67.2</ele>
        <time>2021-05-02T08:16:39Z</time>
      </trkpt>
      <trkpt lat="49.43503" lon="1.10918">
        <ele>66.4</ele>
        <time>2021-05-02T08:16:40Z</time>
      </trkpt>
      <trkpt lat="49.43504" lon="1.10919">
        <ele>66.2</ele>
        <time>2021-05-02T08:16:41Z</time>
      </trkpt>
      <trkpt lat="49.43506" lon="1.10922">
        <ele>65.6</ele>
        <time>2021-05-02T08:16:42Z</time>
      </trkpt>
      <trkpt lat="49.43508" lon="1.10927">
        <ele>64.7</ele>
        <time>2021-05-02T08:16:44Z</time>
      </trkpt>
      <trkpt lat="49.43509" lon="1.10929">
        <ele>64.4</ele>
        <time>2021-05-02T08:16:45Z</time>
      </trkpt>
      <trkpt lat="49.43509" lon="1.10931">
        <ele>64.1</ele>
        <time>2021-05-02T08:16:46Z</time>
      </trkpt>
      <trkpt lat="49.4351" lon="1.10933">
        <ele>63.7</ele>
        <time>2021-05-02T08:16:48Z</time>
      </trkpt>
      <trkpt lat="49.4351" lon="1.10935">
        <ele>63.5</ele>
        <time>2021-05-02T08:16:49Z</time>
      </trkpt>
      <trkpt lat="49.4351" lon="1.10936">
        <ele>63.2</ele>
        <time>2021-05-02T08:16:50Z</time>
      </trkpt>
      <trkpt lat="49.4351" lon="1.10939">
        <ele>62.8</ele>
        <time>2021-05-02T08:16:52Z</time>
      </trkpt>
      <trkpt lat="49.43511" lon="1.10941">
        <ele>62.5</ele>
        <time>2021-05-02T08:16:53Z</time>
      </trkpt>
      <trkpt lat="49.43511" lon="1.10943">
        <ele>62.1</ele>
        <time>2021-05-02T08:16:55Z</time>
      </trkpt>
      <trkpt lat="49.43511" lon="1.10945">
        <ele>61.9</ele>
        <time>2021-05-02T08:16:56Z</time>
      </trkpt>
      <trkpt lat="49.43511" lon="1.10947">
        <ele>61.6</ele>
        <time>2021-05-02T08:16:57Z</time>
      </trkpt>
      <trkpt lat="49.43514" lon="1.10949">
        <ele>60.7</ele>
        <time>2021-05-02T08:16:59Z</time>
      </trkpt>
      <trkpt lat="49.43517" lon="1.10948">
        <ele>59.9</ele>
        <time>2021-05-02T08:17:00Z</time>
      </trkpt>
      <trkpt lat="49.43518" lon="1.10947">
        <ele>59.6</ele>
        <time>2021-05-02T08:17:01Z</time>
      </trkpt>
      <trkpt lat="49.43521" lon="1.10947">
        <ele>58.8</ele>
        <time>2021-05-02T08:17:03Z</time>
      </trkpt>
      <trkpt lat="49.43522" lon="1.10946">
        <ele>58.5</ele>
        <time>2021-05-02T08:17:04Z</time>
      </trkpt>
      <trkpt lat="49.43523" lon="1.10945">
        <ele>58.1</ele>
        <time>2021-05-02T08:17:05Z</time>
      </trkpt>
      <trkpt lat="49.43528" lon="1.10946">
        <ele>56.8</ele>
        <time>2021-05-02T08:17:08Z</time>
      </trkpt>
      <trkpt lat="49.4353" lon="1.10948">
        <ele>56.3</ele>
        <time>2021-05-02T08:17:09Z</time>
      </trkpt>
      <trkpt lat="49.43533" lon="1.1095">
        <ele>55.4</ele>
        <time>2021-05-02T08:17:11Z</time>
      </trkpt>
      <trkpt lat="49.43534" lon="1.10953">
        <ele>54.7</ele>
        <time>2021-05-02T08:17:12Z</time>
      </trkpt>
      <trkpt lat="49.43536" lon="1.10955">
        <ele>54.2</ele>
        <time>2021-05-02T08:17:14Z</time>
      </trkpt>
      <trkpt lat="49.43538" lon="1.10957">
        <ele>53.5</ele>
        <time>2021-05-02T08:17:15Z</time>
      </trkpt>
      <trkpt lat="49.4354" lon="1.1096">
        <ele>52.8</ele>
        <time>2021-05-02T08:17:17Z</time>
      </trkpt>
      <trkpt lat="49.43543" lon="1.10962">
        <ele>51.9</ele>
        <time>2021-05-02T08:17:18Z</time>
      </trkpt>
      <trkpt lat="49.43544" lon="1.10963">
        <ele>51.6</ele>
        <time>2021-05-02T08:17:19Z</time>
      </trkpt>
      <trkpt lat="49.43547" lon="1.10961">
        <ele>50.8</ele>
        <time>2021-05-02T08:17:21Z</time>
      </trkpt>
      <trkpt lat="49.43548" lon="1.10959">
        <ele>50.5</ele>
        <time>2021-05-02T08:17:22Z</time>
      </trkpt>
      <trkpt lat="49.4355" lon="1.10956">
        <ele>49.8</ele>
        <time>2021-05-02T08:17:24Z</time>
      </trkpt>
      <trkpt lat="49.43553" lon="1.10954">
        <ele>48.9</ele>
        <time>2021-05-02T08:17:25Z</time>
      </trkpt>
      <trkpt lat="49.43557" lon="1.10952">
        <ele>47.9</ele>
        <time>2021-05-02T08:17:26Z</time>
      </trkpt>
      <trkpt lat="49.43558" lon="1.10952">
        <ele>47.5</ele>
        <time>2021-05-02T08:17:27Z</time>
      </trkpt>
      <trkpt lat="49.43559" lon="1.10952">
        <ele>47.2</ele>
        <time>2021-05-02T08:17:29Z</time>
      </trkpt>
      <trkpt lat="49.43559" lon="1.10954">
        <ele>46.8</ele>
        <time>2021-05-02T08:17:30Z</time>
      </trkpt>
      <trkpt lat="49.43559" lon="1.10955">
        <ele>46.5</ele>
        <time>2021-05-02T08:17:31Z</time>
      </trkpt>
      <trkpt lat="49.43559" lon="1.10957">
        <ele>46.3</ele>
        <time>2021-05-02T08:17:32Z</time>
      </trkpt>
      <trkpt lat="49.4356" lon="1.10958">
        <ele>46</ele>
        <time>2021-05-02T08:17:33Z</time>
      </trkpt>
      <trkpt lat="49.43561" lon="1.10962">
        <ele>45.2</ele>
        <time>2021-05-02T08:17:35Z</time>
      </trkpt>
      <trkpt lat="49.43564" lon="1.10965">
        <ele>44.1</ele>
        <time>2021-05-02T08:17:36Z</time>
      </trkpt>
      <trkpt lat="49.43566" lon="1.10966">
        <ele>43.6</ele>
        <time>2021-05-02T08:17:37Z</time>
      </trkpt>
      <trkpt lat="49.43567" lon="1.10967">
        <ele>43</ele>
        <time>2021-05-02T08:17:38Z</time>
      </trkpt>
      <trkpt lat="49.4357" lon="1.10965">
        <ele>42.1</ele>
        <time>2021-05-02T08:17:40Z</time>
      </trkpt>
      <trkpt lat="49.43574" lon="1.10961">
        <ele>40.9</ele>
        <time>2021-05-02T08:17:41Z</time>
      </trkpt>
      <trkpt lat="49.43579" lon="1.10957">
        <ele>39.4</ele>
        <time>2021-05-02T08:17:43Z</time>
      </trkpt>
      <trkpt lat="49.43584" lon="1.10954">
        <ele>38</ele>
        <time>2021-05-02T08:17:44Z</time>
      </trkpt>
      <trkpt lat="49.43589" lon="1.10951">
        <ele>36.7</ele>
        <time>2021-05-02T08:17:45Z</time>
      </trkpt>
      <trkpt lat="49.43594" lon="1.10951">
        <ele>35.7</ele>
        <time>2021-05-02T08:17:47Z</time>
      </trkpt>
      <trkpt lat="49.43596" lon="1.10953">
        <ele>35.1</ele>
        <time>2021-05-02T08:17:48Z</time>
      </trkpt>
      <trkpt lat="49.43598" lon="1.10954">
        <ele>34.7</ele>
        <time>2021-05-02T08:17:49Z</time>
      </trkpt>
      <trkpt lat="49.436" lon="1.10957">
        <ele>34.1</ele>
        <time>2021-05-02T08:17:51Z</time>
      </trkpt>
      <trkpt lat="49.43603" lon="1.10961">
        <ele>33.3</ele>
        <time>2021-05-02T08:17:52Z</time>
      </trkpt>
      <trkpt lat="49.43605" lon="1.10963">
        <ele>32.9</ele>
        <time>2021-05-02T08:17:53Z</time>
      </trkpt>
      <trkpt lat="49.43607" lon="1.10966">
        <ele>32.2</ele>
        <time>2021-05-02T08:17:55Z</time>
      </trkpt>
      <trkpt lat="49.43608" lon="1.10969">
        <ele>28.7</ele>
        <time>2021-05-02T08:17:56Z</time>
      </trkpt>
      <trkpt lat="49.43609" lon="1.1097">
        <ele>28.5</ele>
        <time>2021-05-02T08:17:58Z</time>
      </trkpt>
      <trkpt lat="49.43613" lon="1.10974">
        <ele>28</ele>
        <time>2021-05-02T08:18:00Z</time>
      </trkpt>
      <trkpt lat="49.43617" lon="1.10977">
        <ele>27.5</ele>
        <time>2021-05-02T08:18:01Z</time>
      </trkpt>
      <trkpt lat="49.43618" lon="1.10981">
        <ele>27.1</ele>
        <time>2021-05-02T08:18:02Z</time>
      </trkpt>
      <trkpt lat="49.43619" lon="1.10983">
        <ele>27</ele>
        <time>2021-05-02T08:18:03Z</time>
      </trkpt>
      <trkpt lat="49.43622" lon="1.10989">
        <ele>26.6</ele>
        <time>2021-05-02T08:18:05Z</time>
      </trkpt>
      <trkpt lat="49.43623" lon="1.10993">
        <ele>26.3</ele>
        <time>2021-05-02T08:18:06Z</time>
      </trkpt>
      <trkpt lat="49.43624" lon="1.11002">
        <ele>25.8</ele>
        <time>2021-05-02T08:18:08Z</time>
      </trkpt>
      <trkpt lat="49.43626" lon="1.11006">
        <ele>25.7</ele>
        <time>2021-05-02T08:18:09Z</time>
      </trkpt>
      <trkpt lat="49.43628" lon="1.1101">
        <ele>25.6</ele>
        <time>2021-05-02T08:18:10Z</time>
      </trkpt>
      <trkpt lat="49.43629" lon="1.11011">
        <ele>25.5</ele>
        <time>2021-05-02T08:18:11Z</time>
      </trkpt>
      <trkpt lat="49.43631" lon="1.11013">
        <ele>25.4</ele>
        <time>2021-05-02T08:18:12Z</time>
      </trkpt>
      <trkpt lat="49.43632" lon="1.11014">
        <ele>25.3</ele>
        <time>2021-05-02T08:18:13Z</time>
      </trkpt>
      <trkpt lat="49.43635" lon="1.11013">
        <ele>25.2</ele>
        <time>2021-05-02T08:18:15Z</time>
      </trkpt>
      <trkpt lat="49.43636" lon="1.11009">
        <ele>25.1</ele>
        <time>2021-05-02T08:18:16Z</time>
      </trkpt>
      <trkpt lat="49.43638" lon="1.11002">
        <ele>24.8</ele>
        <time>2021-05-02T08:18:18Z</time>
      </trkpt>
      <trkpt lat="49.43639" lon="1.10999">
        <ele>24.7</ele>
        <time>2021-05-02T08:18:19Z</time>
      </trkpt>
      <trkpt lat="49.4364" lon="1.10992">
        <ele>24.5</ele>
        <time>2021-05-02T08:18:21Z</time>
      </trkpt>
      <trkpt lat="49.4364" lon="1.1099">
        <ele>24.5</ele>
        <time>2021-05-02T08:18:22Z</time>
      </trkpt>
      <trkpt lat="49.43639" lon="1.10988">
        <ele>24.4</ele>
        <time>2021-05-02T08:18:23Z</time>
      </trkpt>
      <trkpt lat="49.4364" lon="1.10981">
        <ele>24.2</ele>
        <time>2021-05-02T08:18:25Z</time>
      </trkpt>
      <trkpt lat="49.4364" lon="1.10973">
        <ele>24</ele>
        <time>2021-05-02T08:18:26Z</time>
      </trkpt>
      <trkpt lat="49.43641" lon="1.10954">
        <ele>23.5</ele>
        <time>2021-05-02T08:18:28Z</time>
      </trkpt>
      <trkpt lat="49.4364" lon="1.10943">
        <ele>23.2</ele>
        <time>2021-05-02T08:18:30Z</time>
      </trkpt>
      <trkpt lat="49.43641" lon="1.10936">
        <ele>23</ele>
        <time>2021-05-02T08:18:31Z</time>
      </trkpt>
      <trkpt lat="49.43644" lon="1.10931">
        <ele>20.2</ele>
        <time>2021-05-02T08:18:33Z</time>
      </trkpt>
      <trkpt lat="49.43645" lon="1.1093">
        <ele>19.9</ele>
        <time>2021-05-02T08:18:34Z</time>
      </trkpt>
      <trkpt lat="49.43646" lon="1.10929">
        <ele>19.6</ele>
        <time>2021-05-02T08:18:35Z</time>
      </trkpt>
      <trkpt lat="49.43648" lon="1.10929">
        <ele>19.3</ele>
        <time>2021-05-02T08:18:36Z</time>
      </trkpt>
      <trkpt lat="49.43648" lon="1.1093">
        <ele>19.2</ele>
        <time>2021-05-02T08:18:37Z</time>
      </trkpt>
      <trkpt lat="49.4365" lon="1.10932">
        <ele>18.8</ele>
        <time>2021-05-02T08:18:39Z</time>
      </trkpt>
      <trkpt lat="49.4365" lon="1.10933">
        <ele>18.5</ele>
        <time>2021-05-02T08:18:40Z</time>
      </trkpt>
      <trkpt lat="49.4365" lon="1.10934">
        <ele>18.4</ele>
        <time>2021-05-02T08:18:41Z</time>
      </trkpt>
      <trkpt lat="49.43651" lon="1.10936">
        <ele>18.2</ele>
        <time>2021-05-02T08:18:43Z</time>
      </trkpt>
      <trkpt lat="49.43651" lon="1.10935">
        <ele>18.1</ele>
        <time>2021-05-02T08:18:45Z</time>
      </trkpt>
      <trkpt lat="49.43651" lon="1.10936">
        <ele>18.1</ele>
        <time>2021-05-02T08:18:47Z</time>
      </trkpt>
      <trkpt lat="49.43651" lon="1.10936">
        <ele>18</ele>
        <time>2021-05-02T08:18:48Z</time>
      </trkpt>
      <trkpt lat="49.43652" lon="1.10938">
        <ele>17.7</ele>
        <time>2021-05-02T08:18:50Z</time>
      </trkpt>
      <trkpt lat="49.43653" lon="1.10941">
        <ele>17.3</ele>
        <time>2021-05-02T08:18:52Z</time>
      </trkpt>
      <trkpt lat="49.43653" lon="1.10942">
        <ele>17.1</ele>
        <time>2021-05-02T08:18:53Z</time>
      </trkpt>
      <trkpt lat="49.43653" lon="1.10943">
        <ele>17</ele>
        <time>2021-05-02T08:18:55Z</time>
      </trkpt>
      <trkpt lat="49.43652" lon="1.10943">
        <ele>16.9</ele>
        <time>2021-05-02T08:18:56Z</time>
      </trkpt>
      <trkpt lat="49.43652" lon="1.10944">
        <ele>16.7</ele>
        <time>2021-05-02T08:18:57Z</time>
      </trkpt>
      <trkpt lat="49.43654" lon="1.10946">
        <ele>16.2</ele>
        <time>2021-05-02T08:19:00Z</time>
      </trkpt>
      <trkpt lat="49.43655" lon="1.10947">
        <ele>16</ele>
        <time>2021-05-02T08:19:01Z</time>
      </trkpt>
      <trkpt lat="49.43657" lon="1.10948">
        <ele>15.5</ele>
        <time>2021-05-02T08:19:02Z</time>
      </trkpt>
      <trkpt lat="49.43659" lon="1.10949">
        <ele>15.2</ele>
        <time>2021-05-02T08:19:03Z</time>
      </trkpt>
      <trkpt lat="49.4366" lon="1.1095">
        <ele>14.8</ele>
        <time>2021-05-02T08:19:05Z</time>
      </trkpt>
      <trkpt lat="49.43661" lon="1.1095">
        <ele>14.7</ele>
        <time>2021-05-02T08:19:06Z</time>
      </trkpt>
      <trkpt lat="49.43661" lon="1.1095">
        <ele>14.6</ele>
        <time>2021-05-02T08:19:07Z</time>
      </trkpt>
      <trkpt lat="49.43662" lon="1.10951">
        <ele>14.4</ele>
        <time>2021-05-02T08:19:10Z</time>
      </trkpt>
      <trkpt lat="49.43663" lon="1.10955">
        <ele>13.9</ele>
        <time>2021-05-02T08:19:12Z</time>
      </trkpt>
      <trkpt lat="49.43664" lon="1.10956">
        <ele>13.9</ele>
        <time>2021-05-02T08:19:13Z</time>
      </trkpt>
      <trkpt lat="49.43664" lon="1.10956">
        <ele>13.9</ele>
        <time>2021-05-02T08:19:15Z</time>
      </trkpt>
      <trkpt lat="49.43664" lon="1.10956">
        <ele>13.9</ele>
        <time>2021-05-02T08:19:23Z</time>
      </trkpt>
      <trkpt lat="49.43664" lon="1.10956">
        <ele>13.9</ele>
        <time>2021-05-02T08:19:24Z</time>
      </trkpt>
      <trkpt lat="49.43664" lon="1.10956">
        <ele>14</ele>
        <time>2021-05-02T08:19:26Z</time>
      </trkpt>
      <trkpt lat="49.43665" lon="1.10956">
        <ele>14</ele>
        <time>2021-05-02T08:19:27Z</time>
      </trkpt>
      <trkpt lat="49.43665" lon="1.10955">
        <ele>14</ele>
        <time>2021-05-02T08:19:29Z</time>
      </trkpt>
      <trkpt lat="49.43665" lon="1.10955">
        <ele>14</ele>
        <time>2021-05-02T08:19:31Z</time>
      </trkpt>
      <trkpt lat="49.43665" lon="1.10955">
        <ele>14</ele>
        <time>2021-05-02T08:19:32Z</time>
      </trkpt>
      <trkpt lat="49.43665" lon="1.10955">
        <ele>14</ele>
        <time>2021-05-02T08:19:33Z</time>
      </trkpt>
      <trkpt lat="49.43666" lon="1.10955">
        <ele>14</ele>
        <time>2021-05-02T08:19:35Z</time>
      </trkpt>
      <trkpt lat="49.43666" lon="1.10955">
        <ele>14</ele>
        <time>2021-05-02T08:19:37Z</time>
      </trkpt>
      <trkpt lat="49.43666" lon="1.10955">
        <ele>14.1</ele>
        <time>2021-05-02T08:19:39Z</time>
      </trkpt>
      <trkpt lat="49.43666" lon="1.10955">
        <ele>14.1</ele>
        <time>2021-05-02T08:19:41Z</time>
      </trkpt>
      <trkpt lat="49.43666" lon="1.10954">
        <ele>14.1</ele>
        <time>2021-05-02T08:19:42Z</time>
      </trkpt>
      <trkpt lat="49.43667" lon="1.10954">
        <ele>14.1</ele>
        <time>2021-05-02T08:19:44Z</time>
      </trkpt>
      <trkpt lat="49.43667" lon="1.10954">
        <ele>14.1</ele>
        <time>2021-05-02T08:19:45Z</time>
      </trkpt>
      <trkpt lat="49.43667" lon="1.10954">
        <ele>14.1</ele>
        <time>2021-05-02T08:19:47Z</time>
      </trkpt>
      <trkpt lat="49.43667" lon="1.10954">
        <ele>14.2</ele>
        <time>2021-05-02T08:19:48Z</time>
      </trkpt>
      <trkpt lat="49.43667" lon="1.10954">
        <ele>14.2</ele>
        <time>2021-05-02T08:19:50Z</time>
      </trkpt>
      <trkpt lat="49.43668" lon="1.10954">
        <ele>14.2</ele>
        <time>2021-05-02T08:19:51Z</time>
      </trkpt>
      <trkpt lat="49.43668" lon="1.10954">
        <ele>14.2</ele>
        <time>2021-05-02T08:19:52Z</time>
      </trkpt>
      <trkpt lat="49.43668" lon="1.10953">
        <ele>14.2</ele>
        <time>2021-05-02T08:19:54Z</time>
      </trkpt>
      <trkpt lat="49.43668" lon="1.10953">
        <ele>14.1</ele>
        <time>2021-05-02T08:19:56Z</time>
      </trkpt>
      <trkpt lat="49.43668" lon="1.10953">
        <ele>14.1</ele>
        <time>2021-05-02T08:19:57Z</time>
      </trkpt>
      <trkpt lat="49.43669" lon="1.10953">
        <ele>14.1</ele>
        <time>2021-05-02T08:19:58Z</time>
      </trkpt>
      <trkpt lat="49.43669" lon="1.10953">
        <ele>14.2</ele>
        <time>2021-05-02T08:20:00Z</time>
      </trkpt>
      <trkpt lat="49.43669" lon="1.10953">
        <ele>14.2</ele>
        <time>2021-05-02T08:20:02Z</time>
      </trkpt>
      <trkpt lat="49.43669" lon="1.10953">
        <ele>14.2</ele>
        <time>2021-05-02T08:20:03Z</time>
      </trkpt>
      <trkpt lat="49.43669" lon="1.10953">
        <ele>14.2</ele>
        <time>2021-05-02T08:20:04Z</time>
      </trkpt>
      <trkpt lat="49.4367" lon="1.10952">
        <ele>14.2</ele>
        <time>2021-05-02T08:20:06Z</time>
      </trkpt>
      <trkpt lat="49.4367" lon="1.10952">
        <ele>14.3</ele>
        <time>2021-05-02T08:20:08Z</time>
      </trkpt>
      <trkpt lat="49.4367" lon="1.10952">
        <ele>14.3</ele>
        <time>2021-05-02T08:20:10Z</time>
      </trkpt>
      <trkpt lat="49.4367" lon="1.10952">
        <ele>14.3</ele>
        <time>2021-05-02T08:20:12Z</time>
      </trkpt>
      <trkpt lat="49.4367" lon="1.10952">
        <ele>14.3</ele>
        <time>2021-05-02T08:20:14Z</time>
      </trkpt>
      <trkpt lat="49.43671" lon="1.10952">
        <ele>14.3</ele>
        <time>2021-05-02T08:20:15Z</time>
      </trkpt>
      <trkpt lat="49.43671" lon="1.10952">
        <ele>14.3</ele>
        <time>2021-05-02T08:20:16Z</time>
      </trkpt>
      <trkpt lat="49.43671" lon="1.10952">
        <ele>14.4</ele>
        <time>2021-05-02T08:20:17Z</time>
      </trkpt>
      <trkpt lat="49.43671" lon="1.10951">
        <ele>14.4</ele>
        <time>2021-05-02T08:20:19Z</time>
      </trkpt>
      <trkpt lat="49.43671" lon="1.10951">
        <ele>14.4</ele>
        <time>2021-05-02T08:20:20Z</time>
      </trkpt>
      <trkpt lat="49.43685" lon="1.10939">
        <ele>14.1</ele>
        <time>2021-05-02T08:20:22Z</time>
      </trkpt>
      <trkpt lat="49.43693" lon="1.10928">
        <ele>13.9</ele>
        <time>2021-05-02T08:20:23Z</time>
      </trkpt>
      <trkpt lat="49.43701" lon="1.1092">
        <ele>13.8</ele>
        <time>2021-05-02T08:20:25Z</time>
      </trkpt>
      <trkpt lat="49.43707" lon="1.1091">
        <ele>13.5</ele>
        <time>2021-05-02T08:20:26Z</time>
      </trkpt>
      <trkpt lat="49.43722" lon="1.10879">
        <ele>11.2</ele>
        <time>2021-05-02T08:20:28Z</time>
      </trkpt>
      <trkpt lat="49.43729" lon="1.10864">
        <ele>10.4</ele>
        <time>2021-05-02T08:20:30Z</time>
      </trkpt>
      <trkpt lat="49.43732" lon="1.10859">
        <ele>10.1</ele>
        <time>2021-05-02T08:20:32Z</time>
      </trkpt>
      <trkpt lat="49.43733" lon="1.10857">
        <ele>9.9</ele>
        <time>2021-05-02T08:20:33Z</time>
      </trkpt>
      <trkpt lat="49.43734" lon="1.10855">
        <ele>9.8</ele>
        <time>2021-05-02T08:20:35Z</time>
      </trkpt>
      <trkpt lat="49.43734" lon="1.10854">
        <ele>9.8</ele>
        <time>2021-05-02T08:20:37Z</time>
      </trkpt>
      <trkpt lat="49.43735" lon="1.10854">
        <ele>9.8</ele>
        <time>2021-05-02T08:20:38Z</time>
      </trkpt>
      <trkpt lat="49.43735" lon="1.10853">
        <ele>9.8</ele>
        <time>2021-05-02T08:20:39Z</time>
      </trkpt>
      <trkpt lat="49.43737" lon="1.10852">
        <ele>9.8</ele>
        <time>2021-05-02T08:20:40Z</time>
      </trkpt>
      <trkpt lat="49.43739" lon="1.1086">
        <ele>9.8</ele>
        <time>2021-05-02T08:20:42Z</time>
      </trkpt>
      <trkpt lat="49.43741" lon="1.10866">
        <ele>9.9</ele>
        <time>2021-05-02T08:20:43Z</time>
      </trkpt>
      <trkpt lat="49.43743" lon="1.10874">
        <ele>9.9</ele>
        <time>2021-05-02T08:20:45Z</time>
      </trkpt>
      <trkpt lat="49.43745" lon="1.10881">
        <ele>9.9</ele>
        <time>2021-05-02T08:20:46Z</time>
      </trkpt>
      <trkpt lat="49.43747" lon="1.10888">
        <ele>9.9</ele>
        <time>2021-05-02T08:20:47Z</time>
      </trkpt>
      <trkpt lat="49.43749" lon="1.10895">
        <ele>9.9</ele>
        <time>2021-05-02T08:20:48Z</time>
      </trkpt>
      <trkpt lat="49.43751" lon="1.109">
        <ele>10</ele>
        <time>2021-05-02T08:20:49Z</time>
      </trkpt>
      <trkpt lat="49.43753" lon="1.10904">
        <ele>10</ele>
        <time>2021-05-02T08:20:50Z</time>
      </trkpt>
      <trkpt lat="49.43756" lon="1.10908">
        <ele>10</ele>
        <time>2021-05-02T08:20:51Z</time>
      </trkpt>
      <trkpt lat="49.43761" lon="1.10914">
        <ele>10.1</ele>
        <time>2021-05-02T08:20:53Z</time>
      </trkpt>
      <trkpt lat="49.43764" lon="1.10917">
        <ele>10.1</ele>
        <time>2021-05-02T08:20:54Z</time>
      </trkpt>
      <trkpt lat="49.43767" lon="1.10921">
        <ele>10.1</ele>
        <time>2021-05-02T08:20:55Z</time>
      </trkpt>
      <trkpt lat="49.4377" lon="1.10925">
        <ele>10.1</ele>
        <time>2021-05-02T08:20:56Z</time>
      </trkpt>
      <trkpt lat="49.43772" lon="1.10929">
        <ele>10.2</ele>
        <time>2021-05-02T08:20:57Z</time>
      </trkpt>
      <trkpt lat="49.43774" lon="1.10934">
        <ele>10.2</ele>
        <time>2021-05-02T08:20:58Z</time>
      </trkpt>
      <trkpt lat="49.43777" lon="1.1094">
        <ele>10.2</ele>
        <time>2021-05-02T08:20:59Z</time>
      </trkpt>
      <trkpt lat="49.4378" lon="1.10945">
        <ele>10.3</ele>
        <time>2021-05-02T08:21:01Z</time>
      </trkpt>
      <trkpt lat="49.43782" lon="1.10948">
        <ele>10.3</ele>
        <time>2021-05-02T08:21:02Z</time>
      </trkpt>
      <trkpt lat="49.43783" lon="1.10952">
        <ele>10.3</ele>
        <time>2021-05-02T08:21:03Z</time>
      </trkpt>
      <trkpt lat="49.43785" lon="1.10957">
        <ele>10.2</ele>
        <time>2021-05-02T08:21:04Z</time>
      </trkpt>
      <trkpt lat="49.43786" lon="1.10962">
        <ele>10.2</ele>
        <time>2021-05-02T08:21:05Z</time>
      </trkpt>
      <trkpt lat="49.43787" lon="1.10964">
        <ele>10.2</ele>
        <time>2021-05-02T08:21:06Z</time>
      </trkpt>
      <trkpt lat="49.43788" lon="1.10968">
        <ele>10.2</ele>
        <time>2021-05-02T08:21:07Z</time>
      </trkpt>
      <trkpt lat="49.43788" lon="1.10972">
        <ele>10.1</ele>
        <time>2021-05-02T08:21:08Z</time>
      </trkpt>
      <trkpt lat="49.43789" lon="1.10978">
        <ele>10.1</ele>
        <time>2021-05-02T08:21:09Z</time>
      </trkpt>
      <trkpt lat="49.4379" lon="1.10984">
        <ele>10.1</ele>
        <time>2021-05-02T08:21:10Z</time>
      </trkpt>
      <trkpt lat="49.43791" lon="1.10989">
        <ele>10</ele>
        <time>2021-05-02T08:21:11Z</time>
      </trkpt>
      <trkpt lat="49.43792" lon="1.10995">
        <ele>10</ele>
        <time>2021-05-02T08:21:13Z</time>
      </trkpt>
      <trkpt lat="49.43793" lon="1.11">
        <ele>9.9</ele>
        <time>2021-05-02T08:21:14Z</time>
      </trkpt>
      <trkpt lat="49.43795" lon="1.11006">
        <ele>9.8</ele>
        <time>2021-05-02T08:21:15Z</time>
      </trkpt>
      <trkpt lat="49.43795" lon="1.11014">
        <ele>9.8</ele>
        <time>2021-05-02T08:21:16Z</time>
      </trkpt>
      <trkpt lat="49.43795" lon="1.11025">
        <ele>9.8</ele>
        <time>2021-05-02T08:21:17Z</time>
      </trkpt>
      <trkpt lat="49.43796" lon="1.11036">
        <ele>10</ele>
        <time>2021-05-02T08:21:19Z</time>
      </trkpt>
      <trkpt lat="49.43798" lon="1.11042">
        <ele>10</ele>
        <time>2021-05-02T08:21:20Z</time>
      </trkpt>
      <trkpt lat="49.43801" lon="1.11047">
        <ele>10.1</ele>
        <time>2021-05-02T08:21:22Z</time>
      </trkpt>
      <trkpt lat="49.43803" lon="1.1105">
        <ele>10.1</ele>
        <time>2021-05-02T08:21:23Z</time>
      </trkpt>
      <trkpt lat="49.43805" lon="1.11053">
        <ele>10.2</ele>
        <time>2021-05-02T08:21:25Z</time>
      </trkpt>
      <trkpt lat="49.43807" lon="1.11056">
        <ele>10.2</ele>
        <time>2021-05-02T08:21:26Z</time>
      </trkpt>
      <trkpt lat="49.43808" lon="1.11057">
        <ele>10.2</ele>
        <time>2021-05-02T08:21:27Z</time>
      </trkpt>
      <trkpt lat="49.43812" lon="1.11061">
        <ele>10.3</ele>
        <time>2021-05-02T08:21:29Z</time>
      </trkpt>
      <trkpt lat="49.43814" lon="1.11062">
        <ele>10.3</ele>
        <time>2021-05-02T08:21:30Z</time>
      </trkpt>
      <trkpt lat="49.43815" lon="1.11063">
        <ele>10.3</ele>
        <time>2021-05-02T08:21:31Z</time>
      </trkpt>
      <trkpt lat="49.4382" lon="1.11065">
        <ele>10.4</ele>
        <time>2021-05-02T08:21:32Z</time>
      </trkpt>
      <trkpt lat="49.43824" lon="1.11066">
        <ele>10.4</ele>
        <time>2021-05-02T08:21:34Z</time>
      </trkpt>
      <trkpt lat="49.43827" lon="1.1107">
        <ele>10.5</ele>
        <time>2021-05-02T08:21:35Z</time>
      </trkpt>
      <trkpt lat="49.43831" lon="1.11072">
        <ele>10.5</ele>
        <time>2021-05-02T08:21:37Z</time>
      </trkpt>
      <trkpt lat="49.43834" lon="1.11072">
        <ele>10.6</ele>
        <time>2021-05-02T08:21:38Z</time>
      </trkpt>
      <trkpt lat="49.43835" lon="1.11073">
        <ele>10.6</ele>
        <time>2021-05-02T08:21:39Z</time>
      </trkpt>
      <trkpt lat="49.43837" lon="1.11074">
        <ele>10.6</ele>
        <time>2021-05-02T08:21:40Z</time>
      </trkpt>
      <trkpt lat="49.4384" lon="1.11071">
        <ele>10.6</ele>
        <time>2021-05-02T08:21:42Z</time>
      </trkpt>
      <trkpt lat="49.43841" lon="1.11068">
        <ele>10.6</ele>
        <time>2021-05-02T08:21:43Z</time>
      </trkpt>
      <trkpt lat="49.43842" lon="1.11067">
        <ele>10.6</ele>
        <time>2021-05-02T08:21:45Z</time>
      </trkpt>
      <trkpt lat="49.43843" lon="1.11067">
        <ele>10.6</ele>
        <time>2021-05-02T08:21:46Z</time>
      </trkpt>
      <trkpt lat="49.43844" lon="1.11068">
        <ele>10.7</ele>
        <time>2021-05-02T08:21:47Z</time>
      </trkpt>
      <trkpt lat="49.43845" lon="1.11069">
        <ele>10.7</ele>
        <time>2021-05-02T08:21:49Z</time>
      </trkpt>
      <trkpt lat="49.43846" lon="1.11071">
        <ele>10.7</ele>
        <time>2021-05-02T08:21:50Z</time>
      </trkpt>
      <trkpt lat="49.43846" lon="1.11074">
        <ele>10.7</ele>
        <time>2021-05-02T08:21:51Z</time>
      </trkpt>
      <trkpt lat="49.43846" lon="1.11077">
        <ele>10.7</ele>
        <time>2021-05-02T08:21:52Z</time>
      </trkpt>
      <trkpt lat="49.43846" lon="1.1108">
        <ele>10.7</ele>
        <time>2021-05-02T08:21:53Z</time>
      </trkpt>
      <trkpt lat="49.43847" lon="1.11083">
        <ele>10.7</ele>
        <time>2021-05-02T08:21:54Z</time>
      </trkpt>
      <trkpt lat="49.43847" lon="1.1109">
        <ele>10.7</ele>
        <time>2021-05-02T08:21:56Z</time>
      </trkpt>
      <trkpt lat="49.43847" lon="1.11095">
        <ele>10.7</ele>
        <time>2021-05-02T08:21:57Z</time>
      </trkpt>
      <trkpt lat="49.43847" lon="1.11103">
        <ele>10.7</ele>
        <time>2021-05-02T08:21:58Z</time>
      </trkpt>
      <trkpt lat="49.43846" lon="1.11112">
        <ele>10.8</ele>
        <time>2021-05-02T08:22:00Z</time>
      </trkpt>
      <trkpt lat="49.43846" lon="1.11118">
        <ele>10.8</ele>
        <time>2021-05-02T08:22:01Z</time>
      </trkpt>
      <trkpt lat="49.43846" lon="1.11124">
        <ele>10.8</ele>
        <time>2021-05-02T08:22:02Z</time>
      </trkpt>
      <trkpt lat="49.43847" lon="1.11132">
        <ele>10.8</ele>
        <time>2021-05-02T08:22:03Z</time>
      </trkpt>
      <trkpt lat="49.43847" lon="1.11137">
        <ele>10.8</ele>
        <time>2021-05-02T08:22:05Z</time>
      </trkpt>
      <trkpt lat="49.43848" lon="1.11142">
        <ele>10.8</ele>
        <time>2021-05-02T08:22:06Z</time>
      </trkpt>
      <trkpt lat="49.43849" lon="1.11147">
        <ele>10.8</ele>
        <time>2021-05-02T08:22:07Z</time>
      </trkpt>
      <trkpt lat="49.4385" lon="1.11152">
        <ele>10.8</ele>
        <time>2021-05-02T08:22:08Z</time>
      </trkpt>
      <trkpt lat="49.43853" lon="1.11158">
        <ele>10.8</ele>
        <time>2021-05-02T08:22:09Z</time>
      </trkpt>
      <trkpt lat="49.43855" lon="1.11162">
        <ele>10.8</ele>
        <time>2021-05-02T08:22:11Z</time>
      </trkpt>
      <trkpt lat="49.43857" lon="1.11165">
        <ele>10.8</ele>
        <time>2021-05-02T08:22:12Z</time>
      </trkpt>
      <trkpt lat="49.43859" lon="1.11169">
        <ele>10.8</ele>
        <time>2021-05-02T08:22:13Z</time>
      </trkpt>
      <trkpt lat="49.43862" lon="1.11173">
        <ele>10.8</ele>
        <time>2021-05-02T08:22:14Z</time>
      </trkpt>
      <trkpt lat="49.43864" lon="1.11175">
        <ele>10.8</ele>
        <time>2021-05-02T08:22:15Z</time>
      </trkpt>
      <trkpt lat="49.43867" lon="1.11179">
        <ele>10.8</ele>
        <time>2021-05-02T08:22:17Z</time>
      </trkpt>
      <trkpt lat="49.4387" lon="1.11182">
        <ele>10.7</ele>
        <time>2021-05-02T08:22:18Z</time>
      </trkpt>
      <trkpt lat="49.43873" lon="1.11185">
        <ele>10.7</ele>
        <time>2021-05-02T08:22:19Z</time>
      </trkpt>
      <trkpt lat="49.43875" lon="1.11187">
        <ele>10.7</ele>
        <time>2021-05-02T08:22:20Z</time>
      </trkpt>
      <trkpt lat="49.43878" lon="1.1119">
        <ele>10.7</ele>
        <time>2021-05-02T08:22:21Z</time>
      </trkpt>
      <trkpt lat="49.43881" lon="1.11192">
        <ele>10.7</ele>
        <time>2021-05-02T08:22:22Z</time>
      </trkpt>
      <trkpt lat="49.43884" lon="1.11195">
        <ele>10.7</ele>
        <time>2021-05-02T08:22:23Z</time>
      </trkpt>
      <trkpt lat="49.43888" lon="1.11197">
        <ele>10.6</ele>
        <time>2021-05-02T08:22:24Z</time>
      </trkpt>
      <trkpt lat="49.43892" lon="1.112">
        <ele>10.6</ele>
        <time>2021-05-02T08:22:26Z</time>
      </trkpt>
      <trkpt lat="49.43896" lon="1.11202">
        <ele>10.6</ele>
        <time>2021-05-02T08:22:27Z</time>
      </trkpt>
      <trkpt lat="49.43899" lon="1.11204">
        <ele>10.6</ele>
        <time>2021-05-02T08:22:28Z</time>
      </trkpt>
      <trkpt lat="49.43902" lon="1.11207">
        <ele>10.5</ele>
        <time>2021-05-02T08:22:30Z</time>
      </trkpt>
      <trkpt lat="49.43905" lon="1.11208">
        <ele>10.5</ele>
        <time>2021-05-02T08:22:31Z</time>
      </trkpt>
      <trkpt lat="49.43908" lon="1.1121">
        <ele>10.5</ele>
        <time>2021-05-02T08:22:32Z</time>
      </trkpt>
      <trkpt lat="49.43911" lon="1.11212">
        <ele>10.5</ele>
        <time>2021-05-02T08:22:33Z</time>
      </trkpt>
      <trkpt lat="49.43914" lon="1.11215">
        <ele>10.4</ele>
        <time>2021-05-02T08:22:34Z</time>
      </trkpt>
      <trkpt lat="49.43917" lon="1.11217">
        <ele>10.4</ele>
        <time>2021-05-02T08:22:35Z</time>
      </trkpt>
      <trkpt lat="49.4392" lon="1.11219">
        <ele>10.4</ele>
        <time>2021-05-02T08:22:36Z</time>
      </trkpt>
      <trkpt lat="49.43923" lon="1.1122">
        <ele>10.3</ele>
        <time>2021-05-02T08:22:37Z</time>
      </trkpt>
      <trkpt lat="49.43927" lon="1.11222">
        <ele>10.3</ele>
        <time>2021-05-02T08:22:38Z</time>
      </trkpt>
      <trkpt lat="49.4393" lon="1.11225">
        <ele>10.3</ele>
        <time>2021-05-02T08:22:39Z</time>
      </trkpt>
      <trkpt lat="49.43936" lon="1.11229">
        <ele>10.2</ele>
        <time>2021-05-02T08:22:41Z</time>
      </trkpt>
      <trkpt lat="49.43938" lon="1.11231">
        <ele>10.2</ele>
        <time>2021-05-02T08:22:42Z</time>
      </trkpt>
      <trkpt lat="49.43941" lon="1.11232">
        <ele>10.2</ele>
        <time>2021-05-02T08:22:43Z</time>
      </trkpt>
      <trkpt lat="49.43946" lon="1.11233">
        <ele>10.2</ele>
        <time>2021-05-02T08:22:45Z</time>
      </trkpt>
      <trkpt lat="49.43949" lon="1.11233">
        <ele>10.1</ele>
        <time>2021-05-02T08:22:46Z</time>
      </trkpt>
      <trkpt lat="49.43952" lon="1.11233">
        <ele>10.1</ele>
        <time>2021-05-02T08:22:47Z</time>
      </trkpt>
      <trkpt lat="49.43956" lon="1.11233">
        <ele>10.1</ele>
        <time>2021-05-02T08:22:48Z</time>
      </trkpt>
      <trkpt lat="49.43961" lon="1.11233">
        <ele>10.1</ele>
        <time>2021-05-02T08:22:49Z</time>
      </trkpt>
      <trkpt lat="49.43964" lon="1.11234">
        <ele>10.1</ele>
        <time>2021-05-02T08:22:51Z</time>
      </trkpt>
      <trkpt lat="49.43969" lon="1.11233">
        <ele>10</ele>
        <time>2021-05-02T08:22:52Z</time>
      </trkpt>
      <trkpt lat="49.43972" lon="1.11232">
        <ele>10</ele>
        <time>2021-05-02T08:22:53Z</time>
      </trkpt>
      <trkpt lat="49.43975" lon="1.11231">
        <ele>10</ele>
        <time>2021-05-02T08:22:54Z</time>
      </trkpt>
      <trkpt lat="49.43978" lon="1.11231">
        <ele>10</ele>
        <time>2021-05-02T08:22:55Z</time>
      </trkpt>
      <trkpt lat="49.43982" lon="1.11231">
        <ele>10</ele>
        <time>2021-05-02T08:22:57Z</time>
      </trkpt>
      <trkpt lat="49.43986" lon="1.11232">
        <ele>10</ele>
        <time>2021-05-02T08:22:58Z</time>
      </trkpt>
      <trkpt lat="49.43989" lon="1.11234">
        <ele>10</ele>
        <time>2021-05-02T08:22:59Z</time>
      </trkpt>
      <trkpt lat="49.43992" lon="1.11236">
        <ele>10</ele>
        <time>2021-05-02T08:23:00Z</time>
      </trkpt>
      <trkpt lat="49.43995" lon="1.11241">
        <ele>10</ele>
        <time>2021-05-02T08:23:02Z</time>
      </trkpt>
      <trkpt lat="49.43997" lon="1.11246">
        <ele>10</ele>
        <time>2021-05-02T08:23:03Z</time>
      </trkpt>
      <trkpt lat="49.43998" lon="1.1125">
        <ele>10</ele>
        <time>2021-05-02T08:23:04Z</time>
      </trkpt>
      <trkpt lat="49.43999" lon="1.11255">
        <ele>10</ele>
        <time>2021-05-02T08:23:05Z</time>
      </trkpt>
      <trkpt lat="49.43999" lon="1.11257">
        <ele>10</ele>
        <time>2021-05-02T08:23:06Z</time>
      </trkpt>
      <trkpt lat="49.43999" lon="1.11264">
        <ele>10.1</ele>
        <time>2021-05-02T08:23:08Z</time>
      </trkpt>
      <trkpt lat="49.43998" lon="1.11267">
        <ele>10.1</ele>
        <time>2021-05-02T08:23:09Z</time>
      </trkpt>
      <trkpt lat="49.43999" lon="1.11272">
        <ele>10.1</ele>
        <time>2021-05-02T08:23:11Z</time>
      </trkpt>
      <trkpt lat="49.43999" lon="1.11275">
        <ele>10.1</ele>
        <time>2021-05-02T08:23:12Z</time>
      </trkpt>
      <trkpt lat="49.44" lon="1.11277">
        <ele>10.1</ele>
        <time>2021-05-02T08:23:13Z</time>
      </trkpt>
      <trkpt lat="49.44001" lon="1.11283">
        <ele>10.2</ele>
        <time>2021-05-02T08:23:15Z</time>
      </trkpt>
      <trkpt lat="49.44002" lon="1.1129">
        <ele>10.2</ele>
        <time>2021-05-02T08:23:16Z</time>
      </trkpt>
      <trkpt lat="49.44003" lon="1.11302">
        <ele>10.3</ele>
        <time>2021-05-02T08:23:18Z</time>
      </trkpt>
      <trkpt lat="49.44003" lon="1.11312">
        <ele>10.4</ele>
        <time>2021-05-02T08:23:20Z</time>
      </trkpt>
      <trkpt lat="49.43995" lon="1.11329">
        <ele>10.8</ele>
        <time>2021-05-02T08:23:22Z</time>
      </trkpt>
      <trkpt lat="49.43988" lon="1.11339">
        <ele>10.8</ele>
        <time>2021-05-02T08:23:23Z</time>
      </trkpt>
      <trkpt lat="49.43979" lon="1.11351">
        <ele>10.6</ele>
        <time>2021-05-02T08:23:25Z</time>
      </trkpt>
      <trkpt lat="49.43971" lon="1.11361">
        <ele>10.5</ele>
        <time>2021-05-02T08:23:27Z</time>
      </trkpt>
      <trkpt lat="49.43967" lon="1.11367">
        <ele>10.5</ele>
        <time>2021-05-02T08:23:28Z</time>
      </trkpt>
      <trkpt lat="49.4396" lon="1.11378">
        <ele>10.5</ele>
        <time>2021-05-02T08:23:30Z</time>
      </trkpt>
      <trkpt lat="49.43958" lon="1.11382">
        <ele>10.4</ele>
        <time>2021-05-02T08:23:31Z</time>
      </trkpt>
      <trkpt lat="49.43956" lon="1.11385">
        <ele>10.4</ele>
        <time>2021-05-02T08:23:32Z</time>
      </trkpt>
      <trkpt lat="49.43951" lon="1.11392">
        <ele>10.4</ele>
        <time>2021-05-02T08:23:34Z</time>
      </trkpt>
      <trkpt lat="49.43947" lon="1.11399">
        <ele>10.3</ele>
        <time>2021-05-02T08:23:35Z</time>
      </trkpt>
      <trkpt lat="49.43944" lon="1.11407">
        <ele>10.3</ele>
        <time>2021-05-02T08:23:36Z</time>
      </trkpt>
      <trkpt lat="49.4394" lon="1.11415">
        <ele>10.3</ele>
        <time>2021-05-02T08:23:38Z</time>
      </trkpt>
      <trkpt lat="49.43938" lon="1.11426">
        <ele>10.2</ele>
        <time>2021-05-02T08:23:40Z</time>
      </trkpt>
      <trkpt lat="49.43936" lon="1.11436">
        <ele>10.2</ele>
        <time>2021-05-02T08:23:42Z</time>
      </trkpt>
      <trkpt lat="49.43935" lon="1.11443">
        <ele>10.2</ele>
        <time>2021-05-02T08:23:43Z</time>
      </trkpt>
      <trkpt lat="49.43932" lon="1.11452">
        <ele>10.1</ele>
        <time>2021-05-02T08:23:44Z</time>
      </trkpt>
      <trkpt lat="49.43929" lon="1.11459">
        <ele>10.1</ele>
        <time>2021-05-02T08:23:45Z</time>
      </trkpt>
      <trkpt lat="49.43925" lon="1.11468">
        <ele>10.1</ele>
        <time>2021-05-02T08:23:47Z</time>
      </trkpt>
      <trkpt lat="49.43923" lon="1.11474">
        <ele>10</ele>
        <time>2021-05-02T08:23:48Z</time>
      </trkpt>
      <trkpt lat="49.43921" lon="1.11485">
        <ele>10</ele>
        <time>2021-05-02T08:23:50Z</time>
      </trkpt>
      <trkpt lat="49.43921" lon="1.11498">
        <ele>10</ele>
        <time>2021-05-02T08:23:52Z</time>
      </trkpt>
      <trkpt lat="49.43922" lon="1.11507">
        <ele>10</ele>
        <time>2021-05-02T08:23:53Z</time>
      </trkpt>
      <trkpt lat="49.43924" lon="1.11514">
        <ele>10</ele>
        <time>2021-05-02T08:23:54Z</time>
      </trkpt>
      <trkpt lat="49.43926" lon="1.1152">
        <ele>10</ele>
        <time>2021-05-02T08:23:55Z</time>
      </trkpt>
      <trkpt lat="49.43932" lon="1.11531">
        <ele>10</ele>
        <time>2021-05-02T08:23:57Z</time>
      </trkpt>
      <trkpt lat="49.43936" lon="1.11533">
        <ele>9.9</ele>
        <time>2021-05-02T08:23:58Z</time>
      </trkpt>
      <trkpt lat="49.43941" lon="1.11535">
        <ele>9.9</ele>
        <time>2021-05-02T08:24:00Z</time>
      </trkpt>
      <trkpt lat="49.43944" lon="1.11535">
        <ele>9.9</ele>
        <time>2021-05-02T08:24:01Z</time>
      </trkpt>
      <trkpt lat="49.43946" lon="1.11537">
        <ele>9.8</ele>
        <time>2021-05-02T08:24:02Z</time>
      </trkpt>
      <trkpt lat="49.43948" lon="1.11543">
        <ele>9.8</ele>
        <time>2021-05-02T08:24:04Z</time>
      </trkpt>
      <trkpt lat="49.43951" lon="1.11544">
        <ele>9.7</ele>
        <time>2021-05-02T08:24:05Z</time>
      </trkpt>
      <trkpt lat="49.43952" lon="1.11545">
        <ele>9.7</ele>
        <time>2021-05-02T08:24:06Z</time>
      </trkpt>
      <trkpt lat="49.43954" lon="1.11546">
        <ele>9.7</ele>
        <time>2021-05-02T08:24:07Z</time>
      </trkpt>
      <trkpt lat="49.43957" lon="1.11547">
        <ele>9.7</ele>
        <time>2021-05-02T08:24:09Z</time>
      </trkpt>
      <trkpt lat="49.43961" lon="1.11548">
        <ele>9.6</ele>
        <time>2021-05-02T08:24:10Z</time>
      </trkpt>
      <trkpt lat="49.43962" lon="1.11548">
        <ele>9.6</ele>
        <time>2021-05-02T08:24:11Z</time>
      </trkpt>
      <trkpt lat="49.43966" lon="1.11548">
        <ele>9.6</ele>
        <time>2021-05-02T08:24:12Z</time>
      </trkpt>
      <trkpt lat="49.43971" lon="1.11549">
        <ele>9.6</ele>
        <time>2021-05-02T08:24:13Z</time>
      </trkpt>
      <trkpt lat="49.43976" lon="1.11548">
        <ele>9.6</ele>
        <time>2021-05-02T08:24:15Z</time>
      </trkpt>
      <trkpt lat="49.4398" lon="1.11548">
        <ele>9.6</ele>
        <time>2021-05-02T08:24:16Z</time>
      </trkpt>
      <trkpt lat="49.43983" lon="1.11548">
        <ele>9.6</ele>
        <time>2021-05-02T08:24:17Z</time>
      </trkpt>
      <trkpt lat="49.43986" lon="1.11549">
        <ele>9.6</ele>
        <time>2021-05-02T08:24:18Z</time>
      </trkpt>
      <trkpt lat="49.43988" lon="1.11549">
        <ele>9.6</ele>
        <time>2021-05-02T08:24:20Z</time>
      </trkpt>
      <trkpt lat="49.43989" lon="1.11548">
        <ele>9.6</ele>
        <time>2021-05-02T08:24:21Z</time>
      </trkpt>
      <trkpt lat="49.4399" lon="1.11548">
        <ele>9.6</ele>
        <time>2021-05-02T08:24:22Z</time>
      </trkpt>
      <trkpt lat="49.43994" lon="1.11547">
        <ele>9.6</ele>
        <time>2021-05-02T08:24:23Z</time>
      </trkpt>
      <trkpt lat="49.43998" lon="1.11546">
        <ele>9.6</ele>
        <time>2021-05-02T08:24:24Z</time>
      </trkpt>
      <trkpt lat="49.44001" lon="1.11543">
        <ele>9.6</ele>
        <time>2021-05-02T08:24:25Z</time>
      </trkpt>
      <trkpt lat="49.44003" lon="1.11539">
        <ele>9.6</ele>
        <time>2021-05-02T08:24:26Z</time>
      </trkpt>
      <trkpt lat="49.44005" lon="1.11534">
        <ele>9.6</ele>
        <time>2021-05-02T08:24:28Z</time>
      </trkpt>
      <trkpt lat="49.44007" lon="1.11529">
        <ele>9.6</ele>
        <time>2021-05-02T08:24:29Z</time>
      </trkpt>
      <trkpt lat="49.4401" lon="1.11524">
        <ele>9.6</ele>
        <time>2021-05-02T08:24:30Z</time>
      </trkpt>
      <trkpt lat="49.44012" lon="1.11518">
        <ele>9.6</ele>
        <time>2021-05-02T08:24:31Z</time>
      </trkpt>
      <trkpt lat="49.44014" lon="1.11512">
        <ele>9.6</ele>
        <time>2021-05-02T08:24:32Z</time>
      </trkpt>
      <trkpt lat="49.44016" lon="1.11507">
        <ele>9.6</ele>
        <time>2021-05-02T08:24:33Z</time>
      </trkpt>
      <trkpt lat="49.44019" lon="1.11502">
        <ele>9.6</ele>
        <time>2021-05-02T08:24:34Z</time>
      </trkpt>
      <trkpt lat="49.44023" lon="1.11499">
        <ele>9.7</ele>
        <time>2021-05-02T08:24:35Z</time>
      </trkpt>
      <trkpt lat="49.44027" lon="1.11496">
        <ele>9.7</ele>
        <time>2021-05-02T08:24:36Z</time>
      </trkpt>
      <trkpt lat="49.4403" lon="1.11494">
        <ele>9.7</ele>
        <time>2021-05-02T08:24:37Z</time>
      </trkpt>
      <trkpt lat="49.44035" lon="1.11493">
        <ele>9.8</ele>
        <time>2021-05-02T08:24:39Z</time>
      </trkpt>
      <trkpt lat="49.44039" lon="1.11492">
        <ele>9.8</ele>
        <time>2021-05-02T08:24:40Z</time>
      </trkpt>
      <trkpt lat="49.4404" lon="1.11491">
        <ele>9.8</ele>
        <time>2021-05-02T08:24:41Z</time>
      </trkpt>
      <trkpt lat="49.44043" lon="1.11491">
        <ele>9.8</ele>
        <time>2021-05-02T08:24:42Z</time>
      </trkpt>
      <trkpt lat="49.44046" lon="1.11491">
        <ele>9.8</ele>
        <time>2021-05-02T08:24:44Z</time>
      </trkpt>
      <trkpt lat="49.44049" lon="1.1149">
        <ele>9.8</ele>
        <time>2021-05-02T08:24:45Z</time>
      </trkpt>
      <trkpt lat="49.44052" lon="1.1149">
        <ele>9.9</ele>
        <time>2021-05-02T08:24:46Z</time>
      </trkpt>
      <trkpt lat="49.44055" lon="1.1149">
        <ele>9.9</ele>
        <time>2021-05-02T08:24:47Z</time>
      </trkpt>
      <trkpt lat="49.44058" lon="1.1149">
        <ele>9.9</ele>
        <time>2021-05-02T08:24:48Z</time>
      </trkpt>
      <trkpt lat="49.44061" lon="1.11491">
        <ele>9.9</ele>
        <time>2021-05-02T08:24:49Z</time>
      </trkpt>
      <trkpt lat="49.44064" lon="1.11491">
        <ele>9.9</ele>
        <time>2021-05-02T08:24:51Z</time>
      </trkpt>
      <trkpt lat="49.44067" lon="1.11491">
        <ele>9.9</ele>
        <time>2021-05-02T08:24:52Z</time>
      </trkpt>
      <trkpt lat="49.44071" lon="1.11491">
        <ele>9.9</ele>
        <time>2021-05-02T08:24:53Z</time>
      </trkpt>
      <trkpt lat="49.44074" lon="1.11491">
        <ele>9.9</ele>
        <time>2021-05-02T08:24:54Z</time>
      </trkpt>
      <trkpt lat="49.44079" lon="1.11492">
        <ele>9.9</ele>
        <time>2021-05-02T08:24:56Z</time>
      </trkpt>
      <trkpt lat="49.44083" lon="1.11492">
        <ele>10</ele>
        <time>2021-05-02T08:24:57Z</time>
      </trkpt>
      <trkpt lat="49.44087" lon="1.11492">
        <ele>10</ele>
        <time>2021-05-02T08:24:58Z</time>
      </trkpt>
      <trkpt lat="49.44091" lon="1.11492">
        <ele>10</ele>
        <time>2021-05-02T08:24:59Z</time>
      </trkpt>
      <trkpt lat="49.44095" lon="1.11493">
        <ele>10.4</ele>
        <time>2021-05-02T08:25:00Z</time>
      </trkpt>
      <trkpt lat="49.44098" lon="1.11493">
        <ele>10.7</ele>
        <time>2021-05-02T08:25:01Z</time>
      </trkpt>
      <trkpt lat="49.44102" lon="1.11493">
        <ele>11.1</ele>
        <time>2021-05-02T08:25:03Z</time>
      </trkpt>
      <trkpt lat="49.44105" lon="1.11494">
        <ele>11.5</ele>
        <time>2021-05-02T08:25:04Z</time>
      </trkpt>
      <trkpt lat="49.44108" lon="1.11495">
        <ele>11.9</ele>
        <time>2021-05-02T08:25:05Z</time>
      </trkpt>
      <trkpt lat="49.44111" lon="1.11498">
        <ele>12.3</ele>
        <time>2021-05-02T08:25:06Z</time>
      </trkpt>
      <trkpt lat="49.44114" lon="1.11501">
        <ele>12.6</ele>
        <time>2021-05-02T08:25:07Z</time>
      </trkpt>
      <trkpt lat="49.44116" lon="1.11503">
        <ele>13</ele>
        <time>2021-05-02T08:25:08Z</time>
      </trkpt>
      <trkpt lat="49.44118" lon="1.11506">
        <ele>13.4</ele>
        <time>2021-05-02T08:25:09Z</time>
      </trkpt>
      <trkpt lat="49.44121" lon="1.1151">
        <ele>13.8</ele>
        <time>2021-05-02T08:25:10Z</time>
      </trkpt>
      <trkpt lat="49.44121" lon="1.11511">
        <ele>13.9</ele>
        <time>2021-05-02T08:25:11Z</time>
      </trkpt>
      <trkpt lat="49.44124" lon="1.11514">
        <ele>14.2</ele>
        <time>2021-05-02T08:25:12Z</time>
      </trkpt>
      <trkpt lat="49.44125" lon="1.11515">
        <ele>14.4</ele>
        <time>2021-05-02T08:25:13Z</time>
      </trkpt>
      <trkpt lat="49.44128" lon="1.11518">
        <ele>14.8</ele>
        <time>2021-05-02T08:25:15Z</time>
      </trkpt>
      <trkpt lat="49.44129" lon="1.11519">
        <ele>14.8</ele>
        <time>2021-05-02T08:25:16Z</time>
      </trkpt>
      <trkpt lat="49.44132" lon="1.11521">
        <ele>15</ele>
        <time>2021-05-02T08:25:17Z</time>
      </trkpt>
      <trkpt lat="49.44135" lon="1.11523">
        <ele>15.1</ele>
        <time>2021-05-02T08:25:18Z</time>
      </trkpt>
      <trkpt lat="49.44139" lon="1.11524">
        <ele>15.2</ele>
        <time>2021-05-02T08:25:19Z</time>
      </trkpt>
      <trkpt lat="49.44142" lon="1.11527">
        <ele>15.4</ele>
        <time>2021-05-02T08:25:20Z</time>
      </trkpt>
      <trkpt lat="49.44145" lon="1.1153">
        <ele>15.4</ele>
        <time>2021-05-02T08:25:21Z</time>
      </trkpt>
      <trkpt lat="49.44148" lon="1.11533">
        <ele>15.5</ele>
        <time>2021-05-02T08:25:22Z</time>
      </trkpt>
      <trkpt lat="49.44151" lon="1.11539">
        <ele>15.5</ele>
        <time>2021-05-02T08:25:24Z</time>
      </trkpt>
      <trkpt lat="49.44154" lon="1.11544">
        <ele>15.5</ele>
        <time>2021-05-02T08:25:25Z</time>
      </trkpt>
      <trkpt lat="49.44155" lon="1.11549">
        <ele>15.5</ele>
        <time>2021-05-02T08:25:26Z</time>
      </trkpt>
      <trkpt lat="49.44156" lon="1.11554">
        <ele>15.5</ele>
        <time>2021-05-02T08:25:28Z</time>
      </trkpt>
      <trkpt lat="49.44157" lon="1.11558">
        <ele>15.5</ele>
        <time>2021-05-02T08:25:29Z</time>
      </trkpt>
      <trkpt lat="49.44158" lon="1.11562">
        <ele>15.5</ele>
        <time>2021-05-02T08:25:30Z</time>
      </trkpt>
      <trkpt lat="49.44159" lon="1.11567">
        <ele>15.5</ele>
        <time>2021-05-02T08:25:31Z</time>
      </trkpt>
      <trkpt lat="49.44159" lon="1.11568">
        <ele>15.5</ele>
        <time>2021-05-02T08:25:32Z</time>
      </trkpt>
      <trkpt lat="49.4416" lon="1.11574">
        <ele>15.6</ele>
        <time>2021-05-02T08:25:33Z</time>
      </trkpt>
      <trkpt lat="49.44161" lon="1.11576">
        <ele>15.6</ele>
        <time>2021-05-02T08:25:34Z</time>
      </trkpt>
      <trkpt lat="49.44162" lon="1.11581">
        <ele>15.6</ele>
        <time>2021-05-02T08:25:36Z</time>
      </trkpt>
      <trkpt lat="49.44163" lon="1.11586">
        <ele>15.6</ele>
        <time>2021-05-02T08:25:37Z</time>
      </trkpt>
      <trkpt lat="49.44164" lon="1.11591">
        <ele>15.6</ele>
        <time>2021-05-02T08:25:38Z</time>
      </trkpt>
      <trkpt lat="49.44165" lon="1.11596">
        <ele>15.6</ele>
        <time>2021-05-02T08:25:39Z</time>
      </trkpt>
      <trkpt lat="49.44166" lon="1.11602">
        <ele>15.6</ele>
        <time>2021-05-02T08:25:40Z</time>
      </trkpt>
      <trkpt lat="49.44168" lon="1.11607">
        <ele>15.7</ele>
        <time>2021-05-02T08:25:41Z</time>
      </trkpt>
      <trkpt lat="49.44168" lon="1.11612">
        <ele>15.7</ele>
        <time>2021-05-02T08:25:42Z</time>
      </trkpt>
      <trkpt lat="49.4417" lon="1.1162">
        <ele>15.7</ele>
        <time>2021-05-02T08:25:44Z</time>
      </trkpt>
      <trkpt lat="49.4417" lon="1.11626">
        <ele>15.7</ele>
        <time>2021-05-02T08:25:45Z</time>
      </trkpt>
      <trkpt lat="49.44171" lon="1.11633">
        <ele>15.7</ele>
        <time>2021-05-02T08:25:47Z</time>
      </trkpt>
      <trkpt lat="49.44171" lon="1.11639">
        <ele>15.8</ele>
        <time>2021-05-02T08:25:48Z</time>
      </trkpt>
      <trkpt lat="49.44171" lon="1.11644">
        <ele>15.8</ele>
        <time>2021-05-02T08:25:49Z</time>
      </trkpt>
      <trkpt lat="49.44171" lon="1.11651">
        <ele>15.8</ele>
        <time>2021-05-02T08:25:51Z</time>
      </trkpt>
      <trkpt lat="49.44171" lon="1.11657">
        <ele>15.8</ele>
        <time>2021-05-02T08:25:52Z</time>
      </trkpt>
      <trkpt lat="49.44171" lon="1.11663">
        <ele>15.8</ele>
        <time>2021-05-02T08:25:53Z</time>
      </trkpt>
      <trkpt lat="49.44171" lon="1.11665">
        <ele>15.8</ele>
        <time>2021-05-02T08:25:54Z</time>
      </trkpt>
      <trkpt lat="49.44172" lon="1.1167">
        <ele>15.8</ele>
        <time>2021-05-02T08:25:56Z</time>
      </trkpt>
      <trkpt lat="49.44171" lon="1.11674">
        <ele>15.8</ele>
        <time>2021-05-02T08:25:57Z</time>
      </trkpt>
      <trkpt lat="49.44171" lon="1.11679">
        <ele>15.8</ele>
        <time>2021-05-02T08:25:58Z</time>
      </trkpt>
      <trkpt lat="49.44171" lon="1.1168">
        <ele>15.8</ele>
        <time>2021-05-02T08:25:59Z</time>
      </trkpt>
      <trkpt lat="49.44171" lon="1.11686">
        <ele>15.8</ele>
        <time>2021-05-02T08:26:00Z</time>
      </trkpt>
      <trkpt lat="49.44171" lon="1.11688">
        <ele>15.8</ele>
        <time>2021-05-02T08:26:01Z</time>
      </trkpt>
      <trkpt lat="49.4417" lon="1.11696">
        <ele>15.8</ele>
        <time>2021-05-02T08:26:03Z</time>
      </trkpt>
      <trkpt lat="49.44169" lon="1.11699">
        <ele>15.8</ele>
        <time>2021-05-02T08:26:04Z</time>
      </trkpt>
      <trkpt lat="49.44169" lon="1.11703">
        <ele>15.8</ele>
        <time>2021-05-02T08:26:05Z</time>
      </trkpt>
      <trkpt lat="49.44169" lon="1.11708">
        <ele>15.8</ele>
        <time>2021-05-02T08:26:06Z</time>
      </trkpt>
      <trkpt lat="49.44168" lon="1.11715">
        <ele>15.8</ele>
        <time>2021-05-02T08:26:08Z</time>
      </trkpt>
      <trkpt lat="49.44168" lon="1.11721">
        <ele>15.8</ele>
        <time>2021-05-02T08:26:09Z</time>
      </trkpt>
      <trkpt lat="49.44167" lon="1.11726">
        <ele>15.8</ele>
        <time>2021-05-02T08:26:10Z</time>
      </trkpt>
      <trkpt lat="49.44167" lon="1.11735">
        <ele>15.8</ele>
        <time>2021-05-02T08:26:12Z</time>
      </trkpt>
      <trkpt lat="49.44167" lon="1.11739">
        <ele>15.8</ele>
        <time>2021-05-02T08:26:13Z</time>
      </trkpt>
      <trkpt lat="49.44166" lon="1.11745">
        <ele>15.8</ele>
        <time>2021-05-02T08:26:14Z</time>
      </trkpt>
      <trkpt lat="49.44166" lon="1.11747">
        <ele>15.8</ele>
        <time>2021-05-02T08:26:15Z</time>
      </trkpt>
      <trkpt lat="49.44164" lon="1.11752">
        <ele>15.8</ele>
        <time>2021-05-02T08:26:16Z</time>
      </trkpt>
      <trkpt lat="49.44163" lon="1.11759">
        <ele>15.8</ele>
        <time>2021-05-02T08:26:18Z</time>
      </trkpt>
      <trkpt lat="49.44162" lon="1.11765">
        <ele>15.8</ele>
        <time>2021-05-02T08:26:20Z</time>
      </trkpt>
      <trkpt lat="49.4416" lon="1.11771">
        <ele>15.8</ele>
        <time>2021-05-02T08:26:21Z</time>
      </trkpt>
      <trkpt lat="49.44159" lon="1.11776">
        <ele>15.8</ele>
        <time>2021-05-02T08:26:22Z</time>
      </trkpt>
      <trkpt lat="49.44158" lon="1.11779">
        <ele>15.8</ele>
        <time>2021-05-02T08:26:23Z</time>
      </trkpt>
      <trkpt lat="49.44156" lon="1.11786">
        <ele>15.8</ele>
        <time>2021-05-02T08:26:25Z</time>
      </trkpt>
      <trkpt lat="49.44155" lon="1.11794">
        <ele>15.8</ele>
        <time>2021-05-02T08:26:27Z</time>
      </trkpt>
      <trkpt lat="49.44154" lon="1.11799">
        <ele>15.8</ele>
        <time>2021-05-02T08:26:28Z</time>
      </trkpt>
      <trkpt lat="49.44153" lon="1.11804">
        <ele>15.7</ele>
        <time>2021-05-02T08:26:29Z</time>
      </trkpt>
      <trkpt lat="49.44151" lon="1.1181">
        <ele>15.7</ele>
        <time>2021-05-02T08:26:30Z</time>
      </trkpt>
      <trkpt lat="49.4415" lon="1.11816">
        <ele>15.7</ele>
        <time>2021-05-02T08:26:31Z</time>
      </trkpt>
      <trkpt lat="49.44149" lon="1.11821">
        <ele>15.7</ele>
        <time>2021-05-02T08:26:32Z</time>
      </trkpt>
      <trkpt lat="49.44148" lon="1.11826">
        <ele>15.6</ele>
        <time>2021-05-02T08:26:33Z</time>
      </trkpt>
      <trkpt lat="49.44148" lon="1.11827">
        <ele>15.6</ele>
        <time>2021-05-02T08:26:34Z</time>
      </trkpt>
      <trkpt lat="49.44146" lon="1.11832">
        <ele>15.6</ele>
        <time>2021-05-02T08:26:36Z</time>
      </trkpt>
      <trkpt lat="49.44144" lon="1.11837">
        <ele>15.5</ele>
        <time>2021-05-02T08:26:37Z</time>
      </trkpt>
      <trkpt lat="49.44142" lon="1.11842">
        <ele>15.5</ele>
        <time>2021-05-02T08:26:38Z</time>
      </trkpt>
      <trkpt lat="49.44141" lon="1.11846">
        <ele>15.5</ele>
        <time>2021-05-02T08:26:39Z</time>
      </trkpt>
      <trkpt lat="49.4414" lon="1.11852">
        <ele>15.5</ele>
        <time>2021-05-02T08:26:40Z</time>
      </trkpt>
      <trkpt lat="49.44138" lon="1.11858">
        <ele>15.5</ele>
        <time>2021-05-02T08:26:41Z</time>
      </trkpt>
      <trkpt lat="49.44136" lon="1.11864">
        <ele>15.5</ele>
        <time>2021-05-02T08:26:43Z</time>
      </trkpt>
      <trkpt lat="49.44134" lon="1.11869">
        <ele>15.5</ele>
        <time>2021-05-02T08:26:44Z</time>
      </trkpt>
      <trkpt lat="49.44132" lon="1.11874">
        <ele>15.4</ele>
        <time>2021-05-02T08:26:45Z</time>
      </trkpt>
      <trkpt lat="49.4413" lon="1.11879">
        <ele>15.4</ele>
        <time>2021-05-02T08:26:46Z</time>
      </trkpt>
      <trkpt lat="49.44128" lon="1.11884">
        <ele>15.4</ele>
        <time>2021-05-02T08:26:47Z</time>
      </trkpt>
      <trkpt lat="49.44126" lon="1.11891">
        <ele>15.4</ele>
        <time>2021-05-02T08:26:49Z</time>
      </trkpt>
      <trkpt lat="49.44124" lon="1.11895">
        <ele>15.4</ele>
        <time>2021-05-02T08:26:50Z</time>
      </trkpt>
      <trkpt lat="49.44121" lon="1.11901">
        <ele>15.4</ele>
        <time>2021-05-02T08:26:51Z</time>
      </trkpt>
      <trkpt lat="49.4412" lon="1.11904">
        <ele>15.4</ele>
        <time>2021-05-02T08:26:52Z</time>
      </trkpt>
      <trkpt lat="49.44117" lon="1.1191">
        <ele>15.4</ele>
        <time>2021-05-02T08:26:54Z</time>
      </trkpt>
      <trkpt lat="49.44115" lon="1.11915">
        <ele>15.4</ele>
        <time>2021-05-02T08:26:56Z</time>
      </trkpt>
      <trkpt lat="49.44112" lon="1.1192">
        <ele>15.4</ele>
        <time>2021-05-02T08:26:57Z</time>
      </trkpt>
      <trkpt lat="49.44109" lon="1.11926">
        <ele>15.4</ele>
        <time>2021-05-02T08:26:59Z</time>
      </trkpt>
      <trkpt lat="49.44106" lon="1.11933">
        <ele>15.4</ele>
        <time>2021-05-02T08:27:01Z</time>
      </trkpt>
      <trkpt lat="49.44104" lon="1.11938">
        <ele>15.4</ele>
        <time>2021-05-02T08:27:03Z</time>
      </trkpt>
      <trkpt lat="49.44102" lon="1.11943">
        <ele>15.4</ele>
        <time>2021-05-02T08:27:04Z</time>
      </trkpt>
      <trkpt lat="49.44102" lon="1.11945">
        <ele>15.4</ele>
        <time>2021-05-02T08:27:05Z</time>
      </trkpt>
      <trkpt lat="49.44099" lon="1.1195">
        <ele>15.4</ele>
        <time>2021-05-02T08:27:07Z</time>
      </trkpt>
      <trkpt lat="49.44098" lon="1.11954">
        <ele>15.4</ele>
        <time>2021-05-02T08:27:09Z</time>
      </trkpt>
      <trkpt lat="49.44097" lon="1.11955">
        <ele>15.4</ele>
        <time>2021-05-02T08:27:10Z</time>
      </trkpt>
      <trkpt lat="49.44097" lon="1.11959">
        <ele>15.4</ele>
        <time>2021-05-02T08:27:12Z</time>
      </trkpt>
      <trkpt lat="49.44095" lon="1.11967">
        <ele>15.4</ele>
        <time>2021-05-02T08:27:14Z</time>
      </trkpt>
      <trkpt lat="49.44093" lon="1.11974">
        <ele>15.4</ele>
        <time>2021-05-02T08:27:16Z</time>
      </trkpt>
      <trkpt lat="49.44091" lon="1.11982">
        <ele>15.4</ele>
        <time>2021-05-02T08:27:18Z</time>
      </trkpt>
      <trkpt lat="49.44088" lon="1.11991">
        <ele>15.5</ele>
        <time>2021-05-02T08:27:19Z</time>
      </trkpt>
      <trkpt lat="49.44086" lon="1.12004">
        <ele>15.6</ele>
        <time>2021-05-02T08:27:21Z</time>
      </trkpt>
      <trkpt lat="49.44085" lon="1.12009">
        <ele>15.7</ele>
        <time>2021-05-02T08:27:22Z</time>
      </trkpt>
      <trkpt lat="49.44081" lon="1.12026">
        <ele>15.8</ele>
        <time>2021-05-02T08:27:24Z</time>
      </trkpt>
      <trkpt lat="49.44081" lon="1.12031">
        <ele>15.8</ele>
        <time>2021-05-02T08:27:25Z</time>
      </trkpt>
      <trkpt lat="49.44081" lon="1.12035">
        <ele>15.8</ele>
        <time>2021-05-02T08:27:26Z</time>
      </trkpt>
      <trkpt lat="49.4408" lon="1.12041">
        <ele>15.8</ele>
        <time>2021-05-02T08:27:28Z</time>
      </trkpt>
      <trkpt lat="49.4408" lon="1.12051">
        <ele>15.9</ele>
        <time>2021-05-02T08:27:29Z</time>
      </trkpt>
      <trkpt lat="49.44079" lon="1.12053">
        <ele>15.9</ele>
        <time>2021-05-02T08:27:31Z</time>
      </trkpt>
      <trkpt lat="49.44078" lon="1.12055">
        <ele>15.9</ele>
        <time>2021-05-02T08:27:32Z</time>
      </trkpt>
      <trkpt lat="49.44077" lon="1.12057">
        <ele>15.9</ele>
        <time>2021-05-02T08:27:33Z</time>
      </trkpt>
      <trkpt lat="49.44075" lon="1.12062">
        <ele>15.9</ele>
        <time>2021-05-02T08:27:35Z</time>
      </trkpt>
      <trkpt lat="49.44072" lon="1.12066">
        <ele>15.9</ele>
        <time>2021-05-02T08:27:36Z</time>
      </trkpt>
      <trkpt lat="49.44071" lon="1.12066">
        <ele>15.9</ele>
        <time>2021-05-02T08:27:37Z</time>
      </trkpt>
      <trkpt lat="49.4407" lon="1.12069">
        <ele>15.9</ele>
        <time>2021-05-02T08:27:39Z</time>
      </trkpt>
      <trkpt lat="49.4407" lon="1.12076">
        <ele>15.9</ele>
        <time>2021-05-02T08:27:41Z</time>
      </trkpt>
      <trkpt lat="49.44067" lon="1.12085">
        <ele>16</ele>
        <time>2021-05-02T08:27:43Z</time>
      </trkpt>
      <trkpt lat="49.44062" lon="1.12107">
        <ele>16</ele>
        <time>2021-05-02T08:27:45Z</time>
      </trkpt>
      <trkpt lat="49.44059" lon="1.12125">
        <ele>16</ele>
        <time>2021-05-02T08:27:47Z</time>
      </trkpt>
      <trkpt lat="49.44058" lon="1.12133">
        <ele>16</ele>
        <time>2021-05-02T08:27:49Z</time>
      </trkpt>
      <trkpt lat="49.44054" lon="1.12155">
        <ele>16.1</ele>
        <time>2021-05-02T08:27:50Z</time>
      </trkpt>
      <trkpt lat="49.44054" lon="1.12158">
        <ele>16.1</ele>
        <time>2021-05-02T08:27:51Z</time>
      </trkpt>
      <trkpt lat="49.44051" lon="1.12169">
        <ele>16.1</ele>
        <time>2021-05-02T08:27:53Z</time>
      </trkpt>
      <trkpt lat="49.4405" lon="1.12174">
        <ele>16.1</ele>
        <time>2021-05-02T08:27:54Z</time>
      </trkpt>
      <trkpt lat="49.44048" lon="1.12185">
        <ele>16.1</ele>
        <time>2021-05-02T08:27:56Z</time>
      </trkpt>
      <trkpt lat="49.44047" lon="1.12191">
        <ele>16.1</ele>
        <time>2021-05-02T08:27:58Z</time>
      </trkpt>
      <trkpt lat="49.44046" lon="1.12195">
        <ele>16.1</ele>
        <time>2021-05-02T08:27:59Z</time>
      </trkpt>
      <trkpt lat="49.44044" lon="1.12201">
        <ele>16.2</ele>
        <time>2021-05-02T08:28:01Z</time>
      </trkpt>
      <trkpt lat="49.44044" lon="1.12204">
        <ele>16.2</ele>
        <time>2021-05-02T08:28:02Z</time>
      </trkpt>
      <trkpt lat="49.44043" lon="1.12208">
        <ele>16.2</ele>
        <time>2021-05-02T08:28:03Z</time>
      </trkpt>
      <trkpt lat="49.44042" lon="1.12212">
        <ele>16.2</ele>
        <time>2021-05-02T08:28:04Z</time>
      </trkpt>
      <trkpt lat="49.44042" lon="1.12216">
        <ele>16.2</ele>
        <time>2021-05-02T08:28:05Z</time>
      </trkpt>
      <trkpt lat="49.44041" lon="1.1222">
        <ele>16.2</ele>
        <time>2021-05-02T08:28:07Z</time>
      </trkpt>
      <trkpt lat="49.44041" lon="1.12226">
        <ele>16.2</ele>
        <time>2021-05-02T08:28:08Z</time>
      </trkpt>
      <trkpt lat="49.44041" lon="1.12228">
        <ele>16.2</ele>
        <time>2021-05-02T08:28:09Z</time>
      </trkpt>
      <trkpt lat="49.4404" lon="1.12235">
        <ele>16.2</ele>
        <time>2021-05-02T08:28:11Z</time>
      </trkpt>
      <trkpt lat="49.4404" lon="1.1224">
        <ele>16.2</ele>
        <time>2021-05-02T08:28:12Z</time>
      </trkpt>
      <trkpt lat="49.4404" lon="1.12245">
        <ele>16.2</ele>
        <time>2021-05-02T08:28:13Z</time>
      </trkpt>
      <trkpt lat="49.44039" lon="1.12251">
        <ele>16.2</ele>
        <time>2021-05-02T08:28:15Z</time>
      </trkpt>
      <trkpt lat="49.44039" lon="1.12256">
        <ele>16.2</ele>
        <time>2021-05-02T08:28:16Z</time>
      </trkpt>
      <trkpt lat="49.44039" lon="1.12258">
        <ele>16.2</ele>
        <time>2021-05-02T08:28:17Z</time>
      </trkpt>
      <trkpt lat="49.44039" lon="1.12262">
        <ele>16.2</ele>
        <time>2021-05-02T08:28:18Z</time>
      </trkpt>
      <trkpt lat="49.44038" lon="1.12268">
        <ele>16.2</ele>
        <time>2021-05-02T08:28:20Z</time>
      </trkpt>
      <trkpt lat="49.44037" lon="1.12276">
        <ele>16.1</ele>
        <time>2021-05-02T08:28:21Z</time>
      </trkpt>
      <trkpt lat="49.44036" lon="1.12282">
        <ele>16.1</ele>
        <time>2021-05-02T08:28:22Z</time>
      </trkpt>
      <trkpt lat="49.44034" lon="1.12286">
        <ele>16.1</ele>
        <time>2021-05-02T08:28:23Z</time>
      </trkpt>
      <trkpt lat="49.44034" lon="1.12296">
        <ele>16</ele>
        <time>2021-05-02T08:28:25Z</time>
      </trkpt>
      <trkpt lat="49.44028" lon="1.12318">
        <ele>15.9</ele>
        <time>2021-05-02T08:28:27Z</time>
      </trkpt>
      <trkpt lat="49.44025" lon="1.12337">
        <ele>15.7</ele>
        <time>2021-05-02T08:28:29Z</time>
      </trkpt>
      <trkpt lat="49.44023" lon="1.1235">
        <ele>15.7</ele>
        <time>2021-05-02T08:28:31Z</time>
      </trkpt>
      <trkpt lat="49.4402" lon="1.12361">
        <ele>15.6</ele>
        <time>2021-05-02T08:28:33Z</time>
      </trkpt>
      <trkpt lat="49.44019" lon="1.12366">
        <ele>15.6</ele>
        <time>2021-05-02T08:28:34Z</time>
      </trkpt>
      <trkpt lat="49.44017" lon="1.12377">
        <ele>15.6</ele>
        <time>2021-05-02T08:28:36Z</time>
      </trkpt>
      <trkpt lat="49.44017" lon="1.12386">
        <ele>15.7</ele>
        <time>2021-05-02T08:28:37Z</time>
      </trkpt>
      <trkpt lat="49.44017" lon="1.12394">
        <ele>15.7</ele>
        <time>2021-05-02T08:28:39Z</time>
      </trkpt>
      <trkpt lat="49.44017" lon="1.12399">
        <ele>15.8</ele>
        <time>2021-05-02T08:28:40Z</time>
      </trkpt>
      <trkpt lat="49.44016" lon="1.12408">
        <ele>15.8</ele>
        <time>2021-05-02T08:28:42Z</time>
      </trkpt>
      <trkpt lat="49.44013" lon="1.12422">
        <ele>15.9</ele>
        <time>2021-05-02T08:28:43Z</time>
      </trkpt>
      <trkpt lat="49.44011" lon="1.12431">
        <ele>15.9</ele>
        <time>2021-05-02T08:28:45Z</time>
      </trkpt>
      <trkpt lat="49.4401" lon="1.12434">
        <ele>15.9</ele>
        <time>2021-05-02T08:28:46Z</time>
      </trkpt>
      <trkpt lat="49.44009" lon="1.12441">
        <ele>16</ele>
        <time>2021-05-02T08:28:48Z</time>
      </trkpt>
      <trkpt lat="49.44007" lon="1.12449">
        <ele>16</ele>
        <time>2021-05-02T08:28:49Z</time>
      </trkpt>
      <trkpt lat="49.44003" lon="1.12467">
        <ele>16.1</ele>
        <time>2021-05-02T08:28:51Z</time>
      </trkpt>
      <trkpt lat="49.44002" lon="1.12475">
        <ele>16.1</ele>
        <time>2021-05-02T08:28:52Z</time>
      </trkpt>
      <trkpt lat="49.44001" lon="1.12483">
        <ele>16.1</ele>
        <time>2021-05-02T08:28:53Z</time>
      </trkpt>
      <trkpt lat="49.44001" lon="1.12487">
        <ele>16.2</ele>
        <time>2021-05-02T08:28:55Z</time>
      </trkpt>
      <trkpt lat="49.44" lon="1.12492">
        <ele>16.2</ele>
        <time>2021-05-02T08:28:56Z</time>
      </trkpt>
      <trkpt lat="49.44" lon="1.125">
        <ele>16.2</ele>
        <time>2021-05-02T08:28:58Z</time>
      </trkpt>
      <trkpt lat="49.44" lon="1.12502">
        <ele>16.2</ele>
        <time>2021-05-02T08:29:00Z</time>
      </trkpt>
      <trkpt lat="49.43999" lon="1.12501">
        <ele>16.2</ele>
        <time>2021-05-02T08:29:01Z</time>
      </trkpt>
      <trkpt lat="49.43999" lon="1.125">
        <ele>16.2</ele>
        <time>2021-05-02T08:29:02Z</time>
      </trkpt>
      <trkpt lat="49.43999" lon="1.125">
        <ele>16.2</ele>
        <time>2021-05-02T08:29:04Z</time>
      </trkpt>
      <trkpt lat="49.43999" lon="1.125">
        <ele>16.2</ele>
        <time>2021-05-02T08:29:05Z</time>
      </trkpt>
      <trkpt lat="49.43998" lon="1.12509">
        <ele>16.2</ele>
        <time>2021-05-02T08:29:07Z</time>
      </trkpt>
      <trkpt lat="49.43996" lon="1.12522">
        <ele>16.2</ele>
        <time>2021-05-02T08:29:09Z</time>
      </trkpt>
      <trkpt lat="49.43993" lon="1.12532">
        <ele>16.1</ele>
        <time>2021-05-02T08:29:11Z</time>
      </trkpt>
      <trkpt lat="49.43991" lon="1.12537">
        <ele>16.1</ele>
        <time>2021-05-02T08:29:12Z</time>
      </trkpt>
      <trkpt lat="49.43989" lon="1.12548">
        <ele>16.1</ele>
        <time>2021-05-02T08:29:14Z</time>
      </trkpt>
      <trkpt lat="49.43986" lon="1.12568">
        <ele>16</ele>
        <time>2021-05-02T08:29:16Z</time>
      </trkpt>
      <trkpt lat="49.43985" lon="1.12573">
        <ele>16</ele>
        <time>2021-05-02T08:29:17Z</time>
      </trkpt>
      <trkpt lat="49.43982" lon="1.12581">
        <ele>16</ele>
        <time>2021-05-02T08:29:19Z</time>
      </trkpt>
      <trkpt lat="49.43978" lon="1.12591">
        <ele>16</ele>
        <time>2021-05-02T08:29:21Z</time>
      </trkpt>
      <trkpt lat="49.43976" lon="1.12595">
        <ele>16</ele>
        <time>2021-05-02T08:29:22Z</time>
      </trkpt>
      <trkpt lat="49.43974" lon="1.12604">
        <ele>16</ele>
        <time>2021-05-02T08:29:24Z</time>
      </trkpt>
      <trkpt lat="49.43973" lon="1.12609">
        <ele>16</ele>
        <time>2021-05-02T08:29:26Z</time>
      </trkpt>
      <trkpt lat="49.43972" lon="1.12611">
        <ele>16</ele>
        <time>2021-05-02T08:29:27Z</time>
      </trkpt>
      <trkpt lat="49.4397" lon="1.12614">
        <ele>16</ele>
        <time>2021-05-02T08:29:29Z</time>
      </trkpt>
      <trkpt lat="49.43969" lon="1.12616">
        <ele>16</ele>
        <time>2021-05-02T08:29:30Z</time>
      </trkpt>
      <trkpt lat="49.43969" lon="1.12616">
        <ele>16</ele>
        <time>2021-05-02T08:29:32Z</time>
      </trkpt>
      <trkpt lat="49.43971" lon="1.12613">
        <ele>16</ele>
        <time>2021-05-02T08:29:33Z</time>
      </trkpt>
      <trkpt lat="49.43968" lon="1.12614">
        <ele>16</ele>
        <time>2021-05-02T08:29:35Z</time>
      </trkpt>
      <trkpt lat="49.43966" lon="1.12617">
        <ele>16</ele>
        <time>2021-05-02T08:29:37Z</time>
      </trkpt>
      <trkpt lat="49.43966" lon="1.12618">
        <ele>16</ele>
        <time>2021-05-02T08:29:39Z</time>
      </trkpt>
      <trkpt lat="49.43965" lon="1.1262">
        <ele>16</ele>
        <time>2021-05-02T08:29:40Z</time>
      </trkpt>
      <trkpt lat="49.43962" lon="1.1263">
        <ele>16</ele>
        <time>2021-05-02T08:29:42Z</time>
      </trkpt>
      <trkpt lat="49.43958" lon="1.12638">
        <ele>16.1</ele>
        <time>2021-05-02T08:29:44Z</time>
      </trkpt>
      <trkpt lat="49.43955" lon="1.12643">
        <ele>16.1</ele>
        <time>2021-05-02T08:29:45Z</time>
      </trkpt>
      <trkpt lat="49.43951" lon="1.12651">
        <ele>16.1</ele>
        <time>2021-05-02T08:29:47Z</time>
      </trkpt>
      <trkpt lat="49.43948" lon="1.12657">
        <ele>16.1</ele>
        <time>2021-05-02T08:29:49Z</time>
      </trkpt>
      <trkpt lat="49.43944" lon="1.12661">
        <ele>16.1</ele>
        <time>2021-05-02T08:29:50Z</time>
      </trkpt>
      <trkpt lat="49.43941" lon="1.12666">
        <ele>16.2</ele>
        <time>2021-05-02T08:29:52Z</time>
      </trkpt>
      <trkpt lat="49.4394" lon="1.1267">
        <ele>16.2</ele>
        <time>2021-05-02T08:29:53Z</time>
      </trkpt>
      <trkpt lat="49.43935" lon="1.1268">
        <ele>16.2</ele>
        <time>2021-05-02T08:29:55Z</time>
      </trkpt>
      <trkpt lat="49.43931" lon="1.12687">
        <ele>16.2</ele>
        <time>2021-05-02T08:29:56Z</time>
      </trkpt>
      <trkpt lat="49.43929" lon="1.12692">
        <ele>16.2</ele>
        <time>2021-05-02T08:29:57Z</time>
      </trkpt>
      <trkpt lat="49.43925" lon="1.12702">
        <ele>16.3</ele>
        <time>2021-05-02T08:29:59Z</time>
      </trkpt>
      <trkpt lat="49.43923" lon="1.12706">
        <ele>16.3</ele>
        <time>2021-05-02T08:30:00Z</time>
      </trkpt>
      <trkpt lat="49.43922" lon="1.12712">
        <ele>16.3</ele>
        <time>2021-05-02T08:30:01Z</time>
      </trkpt>
      <trkpt lat="49.4392" lon="1.12718">
        <ele>16.3</ele>
        <time>2021-05-02T08:30:02Z</time>
      </trkpt>
      <trkpt lat="49.43919" lon="1.12722">
        <ele>16.3</ele>
        <time>2021-05-02T08:30:04Z</time>
      </trkpt>
      <trkpt lat="49.43918" lon="1.12727">
        <ele>16.3</ele>
        <time>2021-05-02T08:30:05Z</time>
      </trkpt>
      <trkpt lat="49.43916" lon="1.12731">
        <ele>16.3</ele>
        <time>2021-05-02T08:30:06Z</time>
      </trkpt>
      <trkpt lat="49.43915" lon="1.12736">
        <ele>16.2</ele>
        <time>2021-05-02T08:30:07Z</time>
      </trkpt>
      <trkpt lat="49.43915" lon="1.12738">
        <ele>16.2</ele>
        <time>2021-05-02T08:30:08Z</time>
      </trkpt>
      <trkpt lat="49.43913" lon="1.1274">
        <ele>16.2</ele>
        <time>2021-05-02T08:30:09Z</time>
      </trkpt>
      <trkpt lat="49.43911" lon="1.12745">
        <ele>16.1</ele>
        <time>2021-05-02T08:30:11Z</time>
      </trkpt>
      <trkpt lat="49.43909" lon="1.12749">
        <ele>16</ele>
        <time>2021-05-02T08:30:12Z</time>
      </trkpt>
      <trkpt lat="49.43907" lon="1.12754">
        <ele>15.9</ele>
        <time>2021-05-02T08:30:13Z</time>
      </trkpt>
      <trkpt lat="49.43904" lon="1.1276">
        <ele>15.7</ele>
        <time>2021-05-02T08:30:14Z</time>
      </trkpt>
      <trkpt lat="49.43888" lon="1.12804">
        <ele>14.6</ele>
        <time>2021-05-02T08:30:16Z</time>
      </trkpt>
      <trkpt lat="49.43883" lon="1.12821">
        <ele>14.4</ele>
        <time>2021-05-02T08:30:18Z</time>
      </trkpt>
      <trkpt lat="49.4388" lon="1.12831">
        <ele>14.4</ele>
        <time>2021-05-02T08:30:20Z</time>
      </trkpt>
      <trkpt lat="49.43877" lon="1.12837">
        <ele>14.4</ele>
        <time>2021-05-02T08:30:21Z</time>
      </trkpt>
      <trkpt lat="49.43877" lon="1.12849">
        <ele>14.5</ele>
        <time>2021-05-02T08:30:23Z</time>
      </trkpt>
      <trkpt lat="49.43879" lon="1.12856">
        <ele>14.6</ele>
        <time>2021-05-02T08:30:24Z</time>
      </trkpt>
      <trkpt lat="49.43881" lon="1.12863">
        <ele>14.7</ele>
        <time>2021-05-02T08:30:25Z</time>
      </trkpt>
      <trkpt lat="49.43884" lon="1.1287">
        <ele>14.8</ele>
        <time>2021-05-02T08:30:26Z</time>
      </trkpt>
      <trkpt lat="49.43886" lon="1.12874">
        <ele>14.8</ele>
        <time>2021-05-02T08:30:28Z</time>
      </trkpt>
      <trkpt lat="49.43886" lon="1.12881">
        <ele>14.9</ele>
        <time>2021-05-02T08:30:29Z</time>
      </trkpt>
      <trkpt lat="49.43887" lon="1.12889">
        <ele>15.1</ele>
        <time>2021-05-02T08:30:31Z</time>
      </trkpt>
      <trkpt lat="49.43889" lon="1.12893">
        <ele>15.1</ele>
        <time>2021-05-02T08:30:32Z</time>
      </trkpt>
      <trkpt lat="49.43892" lon="1.129">
        <ele>15.3</ele>
        <time>2021-05-02T08:30:34Z</time>
      </trkpt>
      <trkpt lat="49.43896" lon="1.12907">
        <ele>15.4</ele>
        <time>2021-05-02T08:30:36Z</time>
      </trkpt>
      <trkpt lat="49.439" lon="1.12912">
        <ele>15.6</ele>
        <time>2021-05-02T08:30:38Z</time>
      </trkpt>
      <trkpt lat="49.43902" lon="1.12916">
        <ele>15.8</ele>
        <time>2021-05-02T08:30:39Z</time>
      </trkpt>
      <trkpt lat="49.43907" lon="1.12921">
        <ele>16</ele>
        <time>2021-05-02T08:30:41Z</time>
      </trkpt>
      <trkpt lat="49.43911" lon="1.12924">
        <ele>16.1</ele>
        <time>2021-05-02T08:30:42Z</time>
      </trkpt>
      <trkpt lat="49.43913" lon="1.12927">
        <ele>16.2</ele>
        <time>2021-05-02T08:30:43Z</time>
      </trkpt>
      <trkpt lat="49.43917" lon="1.1293">
        <ele>16.3</ele>
        <time>2021-05-02T08:30:45Z</time>
      </trkpt>
      <trkpt lat="49.4392" lon="1.12933">
        <ele>16.3</ele>
        <time>2021-05-02T08:30:47Z</time>
      </trkpt>
      <trkpt lat="49.4392" lon="1.12937">
        <ele>16.4</ele>
        <time>2021-05-02T08:30:49Z</time>
      </trkpt>
      <trkpt lat="49.43921" lon="1.12939">
        <ele>16.4</ele>
        <time>2021-05-02T08:30:50Z</time>
      </trkpt>
      <trkpt lat="49.43923" lon="1.1294">
        <ele>16.4</ele>
        <time>2021-05-02T08:30:52Z</time>
      </trkpt>
      <trkpt lat="49.43927" lon="1.12943">
        <ele>16.5</ele>
        <time>2021-05-02T08:30:54Z</time>
      </trkpt>
      <trkpt lat="49.43932" lon="1.12945">
        <ele>16.6</ele>
        <time>2021-05-02T08:30:56Z</time>
      </trkpt>
      <trkpt lat="49.43937" lon="1.12948">
        <ele>16.7</ele>
        <time>2021-05-02T08:30:58Z</time>
      </trkpt>
      <trkpt lat="49.43939" lon="1.12948">
        <ele>16.7</ele>
        <time>2021-05-02T08:30:59Z</time>
      </trkpt>
      <trkpt lat="49.43943" lon="1.1295">
        <ele>16.7</ele>
        <time>2021-05-02T08:31:01Z</time>
      </trkpt>
      <trkpt lat="49.43947" lon="1.12954">
        <ele>16.8</ele>
        <time>2021-05-02T08:31:02Z</time>
      </trkpt>
      <trkpt lat="49.43948" lon="1.12958">
        <ele>16.8</ele>
        <time>2021-05-02T08:31:03Z</time>
      </trkpt>
      <trkpt lat="49.43951" lon="1.12964">
        <ele>16.8</ele>
        <time>2021-05-02T08:31:04Z</time>
      </trkpt>
      <trkpt lat="49.43953" lon="1.12968">
        <ele>16.9</ele>
        <time>2021-05-02T08:31:06Z</time>
      </trkpt>
      <trkpt lat="49.43955" lon="1.12972">
        <ele>16.9</ele>
        <time>2021-05-02T08:31:07Z</time>
      </trkpt>
      <trkpt lat="49.43956" lon="1.12977">
        <ele>16.9</ele>
        <time>2021-05-02T08:31:08Z</time>
      </trkpt>
      <trkpt lat="49.43959" lon="1.12983">
        <ele>16.9</ele>
        <time>2021-05-02T08:31:10Z</time>
      </trkpt>
      <trkpt lat="49.43962" lon="1.12988">
        <ele>17</ele>
        <time>2021-05-02T08:31:11Z</time>
      </trkpt>
      <trkpt lat="49.43965" lon="1.12986">
        <ele>17</ele>
        <time>2021-05-02T08:31:12Z</time>
      </trkpt>
      <trkpt lat="49.43969" lon="1.12983">
        <ele>17</ele>
        <time>2021-05-02T08:31:13Z</time>
      </trkpt>
      <trkpt lat="49.43973" lon="1.12977">
        <ele>17.2</ele>
        <time>2021-05-02T08:31:15Z</time>
      </trkpt>
      <trkpt lat="49.43975" lon="1.1297">
        <ele>17.3</ele>
        <time>2021-05-02T08:31:16Z</time>
      </trkpt>
      <trkpt lat="49.43977" lon="1.12961">
        <ele>17.6</ele>
        <time>2021-05-02T08:31:17Z</time>
      </trkpt>
      <trkpt lat="49.43979" lon="1.12953">
        <ele>17.9</ele>
        <time>2021-05-02T08:31:19Z</time>
      </trkpt>
      <trkpt lat="49.43984" lon="1.12939">
        <ele>18.5</ele>
        <time>2021-05-02T08:31:20Z</time>
      </trkpt>
      <trkpt lat="49.43985" lon="1.12932">
        <ele>18.8</ele>
        <time>2021-05-02T08:31:21Z</time>
      </trkpt>
      <trkpt lat="49.43988" lon="1.12929">
        <ele>19</ele>
        <time>2021-05-02T08:31:22Z</time>
      </trkpt>
      <trkpt lat="49.4399" lon="1.12923">
        <ele>19.2</ele>
        <time>2021-05-02T08:31:23Z</time>
      </trkpt>
      <trkpt lat="49.43991" lon="1.12916">
        <ele>19.6</ele>
        <time>2021-05-02T08:31:24Z</time>
      </trkpt>
      <trkpt lat="49.43994" lon="1.12907">
        <ele>20.1</ele>
        <time>2021-05-02T08:31:26Z</time>
      </trkpt>
      <trkpt lat="49.43997" lon="1.129">
        <ele>20.5</ele>
        <time>2021-05-02T08:31:27Z</time>
      </trkpt>
      <trkpt lat="49.44003" lon="1.12891">
        <ele>21.2</ele>
        <time>2021-05-02T08:31:29Z</time>
      </trkpt>
      <trkpt lat="49.44006" lon="1.12887">
        <ele>21.8</ele>
        <time>2021-05-02T08:31:30Z</time>
      </trkpt>
      <trkpt lat="49.4401" lon="1.12883">
        <ele>22.5</ele>
        <time>2021-05-02T08:31:31Z</time>
      </trkpt>
      <trkpt lat="49.44013" lon="1.12881">
        <ele>23</ele>
        <time>2021-05-02T08:31:32Z</time>
      </trkpt>
      <trkpt lat="49.44019" lon="1.1288">
        <ele>23.9</ele>
        <time>2021-05-02T08:31:34Z</time>
      </trkpt>
      <trkpt lat="49.44021" lon="1.12882">
        <ele>24.2</ele>
        <time>2021-05-02T08:31:35Z</time>
      </trkpt>
      <trkpt lat="49.4402" lon="1.12885">
        <ele>24.8</ele>
        <time>2021-05-02T08:31:37Z</time>
      </trkpt>
      <trkpt lat="49.44019" lon="1.12887">
        <ele>24.8</ele>
        <time>2021-05-02T08:31:39Z</time>
      </trkpt>
      <trkpt lat="49.44018" lon="1.1289">
        <ele>24.8</ele>
        <time>2021-05-02T08:31:40Z</time>
      </trkpt>
      <trkpt lat="49.44012" lon="1.129">
        <ele>24.8</ele>
        <time>2021-05-02T08:31:42Z</time>
      </trkpt>
      <trkpt lat="49.44008" lon="1.1291">
        <ele>24.9</ele>
        <time>2021-05-02T08:31:43Z</time>
      </trkpt>
      <trkpt lat="49.44006" lon="1.12918">
        <ele>24.9</ele>
        <time>2021-05-02T08:31:44Z</time>
      </trkpt>
      <trkpt lat="49.44004" lon="1.12924">
        <ele>25</ele>
        <time>2021-05-02T08:31:45Z</time>
      </trkpt>
      <trkpt lat="49.44002" lon="1.12934">
        <ele>25</ele>
        <time>2021-05-02T08:31:47Z</time>
      </trkpt>
      <trkpt lat="49.44001" lon="1.12942">
        <ele>25.1</ele>
        <time>2021-05-02T08:31:48Z</time>
      </trkpt>
      <trkpt lat="49.44" lon="1.12948">
        <ele>25.2</ele>
        <time>2021-05-02T08:31:49Z</time>
      </trkpt>
      <trkpt lat="49.44" lon="1.12951">
        <ele>25.2</ele>
        <time>2021-05-02T08:31:51Z</time>
      </trkpt>
      <trkpt lat="49.43999" lon="1.12952">
        <ele>25.2</ele>
        <time>2021-05-02T08:31:52Z</time>
      </trkpt>
      <trkpt lat="49.43998" lon="1.12953">
        <ele>25.2</ele>
        <time>2021-05-02T08:31:53Z</time>
      </trkpt>
      <trkpt lat="49.43997" lon="1.12955">
        <ele>25.2</ele>
        <time>2021-05-02T08:31:54Z</time>
      </trkpt>
      <trkpt lat="49.43997" lon="1.12955">
        <ele>25.2</ele>
        <time>2021-05-02T08:31:56Z</time>
      </trkpt>
      <trkpt lat="49.43997" lon="1.12956">
        <ele>25.2</ele>
        <time>2021-05-02T08:31:57Z</time>
      </trkpt>
      <trkpt lat="49.43997" lon="1.12959">
        <ele>25.3</ele>
        <time>2021-05-02T08:31:58Z</time>
      </trkpt>
      <trkpt lat="49.43997" lon="1.12959">
        <ele>25.3</ele>
        <time>2021-05-02T08:31:59Z</time>
      </trkpt>
      <trkpt lat="49.44002" lon="1.1299">
        <ele>25.5</ele>
        <time>2021-05-02T08:32:05Z</time>
      </trkpt>
      <trkpt lat="49.44001" lon="1.12992">
        <ele>25.5</ele>
        <time>2021-05-02T08:32:06Z</time>
      </trkpt>
      <trkpt lat="49.44" lon="1.12991">
        <ele>25.5</ele>
        <time>2021-05-02T08:32:08Z</time>
      </trkpt>
      <trkpt lat="49.43999" lon="1.12992">
        <ele>25.5</ele>
        <time>2021-05-02T08:32:10Z</time>
      </trkpt>
      <trkpt lat="49.43998" lon="1.12994">
        <ele>25.5</ele>
        <time>2021-05-02T08:32:12Z</time>
      </trkpt>
      <trkpt lat="49.43998" lon="1.12997">
        <ele>25.6</ele>
        <time>2021-05-02T08:32:14Z</time>
      </trkpt>
      <trkpt lat="49.43998" lon="1.12998">
        <ele>25.6</ele>
        <time>2021-05-02T08:32:15Z</time>
      </trkpt>
      <trkpt lat="49.43997" lon="1.13">
        <ele>25.6</ele>
        <time>2021-05-02T08:32:17Z</time>
      </trkpt>
      <trkpt lat="49.43997" lon="1.13003">
        <ele>25.6</ele>
        <time>2021-05-02T08:32:18Z</time>
      </trkpt>
      <trkpt lat="49.43996" lon="1.13005">
        <ele>25.6</ele>
        <time>2021-05-02T08:32:19Z</time>
      </trkpt>
      <trkpt lat="49.43995" lon="1.13011">
        <ele>25.6</ele>
        <time>2021-05-02T08:32:21Z</time>
      </trkpt>
      <trkpt lat="49.43994" lon="1.13013">
        <ele>25.6</ele>
        <time>2021-05-02T08:32:22Z</time>
      </trkpt>
      <trkpt lat="49.43994" lon="1.13016">
        <ele>25.6</ele>
        <time>2021-05-02T08:32:23Z</time>
      </trkpt>
      <trkpt lat="49.43993" lon="1.13021">
        <ele>25.7</ele>
        <time>2021-05-02T08:32:25Z</time>
      </trkpt>
      <trkpt lat="49.43992" lon="1.1303">
        <ele>25.7</ele>
        <time>2021-05-02T08:32:27Z</time>
      </trkpt>
      <trkpt lat="49.43991" lon="1.13039">
        <ele>25.7</ele>
        <time>2021-05-02T08:32:29Z</time>
      </trkpt>
      <trkpt lat="49.43992" lon="1.13043">
        <ele>25.7</ele>
        <time>2021-05-02T08:32:30Z</time>
      </trkpt>
      <trkpt lat="49.43992" lon="1.13048">
        <ele>25.7</ele>
        <time>2021-05-02T08:32:31Z</time>
      </trkpt>
      <trkpt lat="49.43992" lon="1.13058">
        <ele>25.7</ele>
        <time>2021-05-02T08:32:33Z</time>
      </trkpt>
      <trkpt lat="49.43992" lon="1.13063">
        <ele>25.7</ele>
        <time>2021-05-02T08:32:34Z</time>
      </trkpt>
      <trkpt lat="49.43992" lon="1.13075">
        <ele>25.7</ele>
        <time>2021-05-02T08:32:35Z</time>
      </trkpt>
      <trkpt lat="49.43991" lon="1.13081">
        <ele>26.1</ele>
        <time>2021-05-02T08:32:37Z</time>
      </trkpt>
      <trkpt lat="49.4399" lon="1.1308">
        <ele>26.2</ele>
        <time>2021-05-02T08:32:38Z</time>
      </trkpt>
      <trkpt lat="49.43991" lon="1.13079">
        <ele>26.3</ele>
        <time>2021-05-02T08:32:39Z</time>
      </trkpt>
      <trkpt lat="49.43992" lon="1.1308">
        <ele>26.4</ele>
        <time>2021-05-02T08:32:41Z</time>
      </trkpt>
      <trkpt lat="49.43993" lon="1.13081">
        <ele>26.8</ele>
        <time>2021-05-02T08:32:42Z</time>
      </trkpt>
      <trkpt lat="49.43995" lon="1.13083">
        <ele>27.2</ele>
        <time>2021-05-02T08:32:44Z</time>
      </trkpt>
      <trkpt lat="49.43995" lon="1.13085">
        <ele>27.7</ele>
        <time>2021-05-02T08:32:45Z</time>
      </trkpt>
      <trkpt lat="49.43996" lon="1.13087">
        <ele>28.1</ele>
        <time>2021-05-02T08:32:46Z</time>
      </trkpt>
      <trkpt lat="49.43997" lon="1.1309">
        <ele>28.2</ele>
        <time>2021-05-02T08:32:48Z</time>
      </trkpt>
      <trkpt lat="49.43999" lon="1.13094">
        <ele>29</ele>
        <time>2021-05-02T08:32:49Z</time>
      </trkpt>
      <trkpt lat="49.43999" lon="1.13096">
        <ele>29.4</ele>
        <time>2021-05-02T08:32:50Z</time>
      </trkpt>
      <trkpt lat="49.44002" lon="1.13095">
        <ele>29.9</ele>
        <time>2021-05-02T08:32:52Z</time>
      </trkpt>
      <trkpt lat="49.44003" lon="1.13093">
        <ele>29.7</ele>
        <time>2021-05-02T08:32:53Z</time>
      </trkpt>
      <trkpt lat="49.44003" lon="1.13092">
        <ele>29.7</ele>
        <time>2021-05-02T08:32:55Z</time>
      </trkpt>
      <trkpt lat="49.44002" lon="1.13091">
        <ele>29.8</ele>
        <time>2021-05-02T08:32:56Z</time>
      </trkpt>
      <trkpt lat="49.44003" lon="1.13091">
        <ele>29.9</ele>
        <time>2021-05-02T08:32:57Z</time>
      </trkpt>
      <trkpt lat="49.44004" lon="1.13091">
        <ele>30.4</ele>
        <time>2021-05-02T08:32:59Z</time>
      </trkpt>
      <trkpt lat="49.44005" lon="1.13091">
        <ele>30.5</ele>
        <time>2021-05-02T08:33:00Z</time>
      </trkpt>
      <trkpt lat="49.44005" lon="1.13091">
        <ele>30.6</ele>
        <time>2021-05-02T08:33:01Z</time>
      </trkpt>
      <trkpt lat="49.44006" lon="1.13092">
        <ele>31.1</ele>
        <time>2021-05-02T08:33:03Z</time>
      </trkpt>
      <trkpt lat="49.4401" lon="1.1309">
        <ele>31.3</ele>
        <time>2021-05-02T08:33:05Z</time>
      </trkpt>
      <trkpt lat="49.44013" lon="1.13087">
        <ele>31.8</ele>
        <time>2021-05-02T08:33:06Z</time>
      </trkpt>
      <trkpt lat="49.44017" lon="1.13081">
        <ele>31.7</ele>
        <time>2021-05-02T08:33:08Z</time>
      </trkpt>
      <trkpt lat="49.4402" lon="1.13078">
        <ele>32.2</ele>
        <time>2021-05-02T08:33:09Z</time>
      </trkpt>
      <trkpt lat="49.44022" lon="1.13076">
        <ele>32.4</ele>
        <time>2021-05-02T08:33:10Z</time>
      </trkpt>
      <trkpt lat="49.44026" lon="1.13074">
        <ele>33.4</ele>
        <time>2021-05-02T08:33:12Z</time>
      </trkpt>
      <trkpt lat="49.44029" lon="1.13071">
        <ele>33.6</ele>
        <time>2021-05-02T08:33:13Z</time>
      </trkpt>
      <trkpt lat="49.44032" lon="1.13069">
        <ele>33.7</ele>
        <time>2021-05-02T08:33:15Z</time>
      </trkpt>
      <trkpt lat="49.44033" lon="1.13064">
        <ele>33.4</ele>
        <time>2021-05-02T08:33:16Z</time>
      </trkpt>
      <trkpt lat="49.44033" lon="1.13062">
        <ele>33.4</ele>
        <time>2021-05-02T08:33:17Z</time>
      </trkpt>
      <trkpt lat="49.44034" lon="1.13058">
        <ele>33.1</ele>
        <time>2021-05-02T08:33:19Z</time>
      </trkpt>
      <trkpt lat="49.44037" lon="1.13056">
        <ele>33.7</ele>
        <time>2021-05-02T08:33:21Z</time>
      </trkpt>
      <trkpt lat="49.44039" lon="1.13055">
        <ele>33.9</ele>
        <time>2021-05-02T08:33:22Z</time>
      </trkpt>
      <trkpt lat="49.4404" lon="1.13052">
        <ele>34.4</ele>
        <time>2021-05-02T08:33:24Z</time>
      </trkpt>
      <trkpt lat="49.44042" lon="1.1305">
        <ele>34.2</ele>
        <time>2021-05-02T08:33:25Z</time>
      </trkpt>
      <trkpt lat="49.44044" lon="1.13049">
        <ele>34.8</ele>
        <time>2021-05-02T08:33:27Z</time>
      </trkpt>
      <trkpt lat="49.44048" lon="1.13048">
        <ele>35.8</ele>
        <time>2021-05-02T08:33:28Z</time>
      </trkpt>
      <trkpt lat="49.44049" lon="1.13048">
        <ele>35.9</ele>
        <time>2021-05-02T08:33:29Z</time>
      </trkpt>
      <trkpt lat="49.44052" lon="1.13047">
        <ele>36.1</ele>
        <time>2021-05-02T08:33:30Z</time>
      </trkpt>
      <trkpt lat="49.44055" lon="1.13048">
        <ele>37</ele>
        <time>2021-05-02T08:33:32Z</time>
      </trkpt>
      <trkpt lat="49.44057" lon="1.13048">
        <ele>37.5</ele>
        <time>2021-05-02T08:33:33Z</time>
      </trkpt>
      <trkpt lat="49.44061" lon="1.1305">
        <ele>38.1</ele>
        <time>2021-05-02T08:33:35Z</time>
      </trkpt>
      <trkpt lat="49.44062" lon="1.13051">
        <ele>38.4</ele>
        <time>2021-05-02T08:33:36Z</time>
      </trkpt>
      <trkpt lat="49.44064" lon="1.13053">
        <ele>38.8</ele>
        <time>2021-05-02T08:33:38Z</time>
      </trkpt>
      <trkpt lat="49.44066" lon="1.13054">
        <ele>39</ele>
        <time>2021-05-02T08:33:39Z</time>
      </trkpt>
      <trkpt lat="49.44067" lon="1.13055">
        <ele>39.3</ele>
        <time>2021-05-02T08:33:40Z</time>
      </trkpt>
      <trkpt lat="49.4407" lon="1.13057">
        <ele>39.8</ele>
        <time>2021-05-02T08:33:42Z</time>
      </trkpt>
      <trkpt lat="49.44073" lon="1.13059">
        <ele>40.3</ele>
        <time>2021-05-02T08:33:43Z</time>
      </trkpt>
      <trkpt lat="49.44077" lon="1.13061">
        <ele>40.8</ele>
        <time>2021-05-02T08:33:44Z</time>
      </trkpt>
      <trkpt lat="49.44078" lon="1.13062">
        <ele>41</ele>
        <time>2021-05-02T08:33:45Z</time>
      </trkpt>
      <trkpt lat="49.44081" lon="1.13064">
        <ele>41.4</ele>
        <time>2021-05-02T08:33:47Z</time>
      </trkpt>
      <trkpt lat="49.44083" lon="1.13067">
        <ele>41.7</ele>
        <time>2021-05-02T08:33:48Z</time>
      </trkpt>
      <trkpt lat="49.44087" lon="1.1307">
        <ele>42.3</ele>
        <time>2021-05-02T08:33:49Z</time>
      </trkpt>
      <trkpt lat="49.44088" lon="1.13071">
        <ele>42.4</ele>
        <time>2021-05-02T08:33:50Z</time>
      </trkpt>
      <trkpt lat="49.44091" lon="1.13074">
        <ele>42.9</ele>
        <time>2021-05-02T08:33:52Z</time>
      </trkpt>
      <trkpt lat="49.44094" lon="1.13079">
        <ele>43.5</ele>
        <time>2021-05-02T08:33:54Z</time>
      </trkpt>
      <trkpt lat="49.44097" lon="1.13082">
        <ele>43.9</ele>
        <time>2021-05-02T08:33:55Z</time>
      </trkpt>
      <trkpt lat="49.441" lon="1.13086">
        <ele>44.5</ele>
        <time>2021-05-02T08:33:56Z</time>
      </trkpt>
      <trkpt lat="49.44101" lon="1.13087">
        <ele>44.7</ele>
        <time>2021-05-02T08:33:57Z</time>
      </trkpt>
      <trkpt lat="49.44104" lon="1.13092">
        <ele>45.3</ele>
        <time>2021-05-02T08:33:59Z</time>
      </trkpt>
      <trkpt lat="49.44105" lon="1.13094">
        <ele>45.5</ele>
        <time>2021-05-02T08:34:00Z</time>
      </trkpt>
      <trkpt lat="49.44106" lon="1.13096">
        <ele>45.7</ele>
        <time>2021-05-02T08:34:01Z</time>
      </trkpt>
      <trkpt lat="49.44108" lon="1.13098">
        <ele>46</ele>
        <time>2021-05-02T08:34:02Z</time>
      </trkpt>
      <trkpt lat="49.4411" lon="1.131">
        <ele>46.4</ele>
        <time>2021-05-02T08:34:04Z</time>
      </trkpt>
      <trkpt lat="49.44111" lon="1.13103">
        <ele>46.6</ele>
        <time>2021-05-02T08:34:05Z</time>
      </trkpt>
      <trkpt lat="49.44112" lon="1.13105">
        <ele>46.8</ele>
        <time>2021-05-02T08:34:07Z</time>
      </trkpt>
      <trkpt lat="49.44113" lon="1.13106">
        <ele>47</ele>
        <time>2021-05-02T08:34:08Z</time>
      </trkpt>
      <trkpt lat="49.44115" lon="1.13108">
        <ele>47.3</ele>
        <time>2021-05-02T08:34:09Z</time>
      </trkpt>
      <trkpt lat="49.44116" lon="1.1311">
        <ele>47.5</ele>
        <time>2021-05-02T08:34:10Z</time>
      </trkpt>
      <trkpt lat="49.44117" lon="1.13113">
        <ele>47.8</ele>
        <time>2021-05-02T08:34:11Z</time>
      </trkpt>
      <trkpt lat="49.44119" lon="1.13116">
        <ele>48.2</ele>
        <time>2021-05-02T08:34:13Z</time>
      </trkpt>
      <trkpt lat="49.4412" lon="1.13117">
        <ele>48.3</ele>
        <time>2021-05-02T08:34:14Z</time>
      </trkpt>
      <trkpt lat="49.4412" lon="1.13118">
        <ele>48.4</ele>
        <time>2021-05-02T08:34:15Z</time>
      </trkpt>
      <trkpt lat="49.44121" lon="1.1312">
        <ele>48.5</ele>
        <time>2021-05-02T08:34:16Z</time>
      </trkpt>
      <trkpt lat="49.44121" lon="1.13123">
        <ele>48.8</ele>
        <time>2021-05-02T08:34:18Z</time>
      </trkpt>
      <trkpt lat="49.44122" lon="1.13128">
        <ele>49.2</ele>
        <time>2021-05-02T08:34:19Z</time>
      </trkpt>
      <trkpt lat="49.44123" lon="1.1313">
        <ele>49.3</ele>
        <time>2021-05-02T08:34:20Z</time>
      </trkpt>
      <trkpt lat="49.44125" lon="1.13133">
        <ele>49.6</ele>
        <time>2021-05-02T08:34:22Z</time>
      </trkpt>
      <trkpt lat="49.44125" lon="1.13134">
        <ele>49.7</ele>
        <time>2021-05-02T08:34:23Z</time>
      </trkpt>
      <trkpt lat="49.44127" lon="1.13136">
        <ele>49.9</ele>
        <time>2021-05-02T08:34:24Z</time>
      </trkpt>
      <trkpt lat="49.44128" lon="1.13138">
        <ele>50.1</ele>
        <time>2021-05-02T08:34:25Z</time>
      </trkpt>
      <trkpt lat="49.44131" lon="1.13141">
        <ele>50.5</ele>
        <time>2021-05-02T08:34:27Z</time>
      </trkpt>
      <trkpt lat="49.44132" lon="1.13141">
        <ele>50.7</ele>
        <time>2021-05-02T08:34:28Z</time>
      </trkpt>
      <trkpt lat="49.44134" lon="1.13145">
        <ele>51.1</ele>
        <time>2021-05-02T08:34:30Z</time>
      </trkpt>
      <trkpt lat="49.44135" lon="1.13146">
        <ele>51.2</ele>
        <time>2021-05-02T08:34:31Z</time>
      </trkpt>
      <trkpt lat="49.44138" lon="1.13149">
        <ele>51.7</ele>
        <time>2021-05-02T08:34:33Z</time>
      </trkpt>
      <trkpt lat="49.44142" lon="1.13153">
        <ele>52.3</ele>
        <time>2021-05-02T08:34:34Z</time>
      </trkpt>
      <trkpt lat="49.44146" lon="1.13157">
        <ele>52.9</ele>
        <time>2021-05-02T08:34:36Z</time>
      </trkpt>
      <trkpt lat="49.44149" lon="1.1316">
        <ele>53.3</ele>
        <time>2021-05-02T08:34:37Z</time>
      </trkpt>
      <trkpt lat="49.44152" lon="1.13162">
        <ele>53.6</ele>
        <time>2021-05-02T08:34:38Z</time>
      </trkpt>
      <trkpt lat="49.44154" lon="1.13165">
        <ele>53.9</ele>
        <time>2021-05-02T08:34:40Z</time>
      </trkpt>
      <trkpt lat="49.44155" lon="1.13166">
        <ele>53.9</ele>
        <time>2021-05-02T08:34:41Z</time>
      </trkpt>
      <trkpt lat="49.44155" lon="1.1317">
        <ele>54.1</ele>
        <time>2021-05-02T08:34:42Z</time>
      </trkpt>
      <trkpt lat="49.44155" lon="1.13172">
        <ele>54.2</ele>
        <time>2021-05-02T08:34:43Z</time>
      </trkpt>
      <trkpt lat="49.44156" lon="1.13176">
        <ele>54.5</ele>
        <time>2021-05-02T08:34:45Z</time>
      </trkpt>
      <trkpt lat="49.44156" lon="1.13178">
        <ele>54.5</ele>
        <time>2021-05-02T08:34:46Z</time>
      </trkpt>
      <trkpt lat="49.4416" lon="1.13179">
        <ele>54.5</ele>
        <time>2021-05-02T08:34:48Z</time>
      </trkpt>
      <trkpt lat="49.44161" lon="1.13179">
        <ele>54.5</ele>
        <time>2021-05-02T08:34:49Z</time>
      </trkpt>
      <trkpt lat="49.44162" lon="1.13179">
        <ele>54.5</ele>
        <time>2021-05-02T08:34:50Z</time>
      </trkpt>
      <trkpt lat="49.44162" lon="1.13179">
        <ele>54.5</ele>
        <time>2021-05-02T08:34:52Z</time>
      </trkpt>
      <trkpt lat="49.44163" lon="1.13179">
        <ele>54.5</ele>
        <time>2021-05-02T08:34:54Z</time>
      </trkpt>
      <trkpt lat="49.44164" lon="1.13178">
        <ele>54.5</ele>
        <time>2021-05-02T08:34:55Z</time>
      </trkpt>
      <trkpt lat="49.44165" lon="1.13178">
        <ele>54.7</ele>
        <time>2021-05-02T08:34:57Z</time>
      </trkpt>
      <trkpt lat="49.44166" lon="1.13178">
        <ele>54.7</ele>
        <time>2021-05-02T08:34:58Z</time>
      </trkpt>
      <trkpt lat="49.44169" lon="1.13178">
        <ele>54.9</ele>
        <time>2021-05-02T08:34:59Z</time>
      </trkpt>
      <trkpt lat="49.4417" lon="1.13178">
        <ele>55</ele>
        <time>2021-05-02T08:35:00Z</time>
      </trkpt>
      <trkpt lat="49.44173" lon="1.13179">
        <ele>55.1</ele>
        <time>2021-05-02T08:35:02Z</time>
      </trkpt>
      <trkpt lat="49.44176" lon="1.13179">
        <ele>55.3</ele>
        <time>2021-05-02T08:35:03Z</time>
      </trkpt>
      <trkpt lat="49.4418" lon="1.1318">
        <ele>55.6</ele>
        <time>2021-05-02T08:35:04Z</time>
      </trkpt>
      <trkpt lat="49.44186" lon="1.13182">
        <ele>56</ele>
        <time>2021-05-02T08:35:06Z</time>
      </trkpt>
      <trkpt lat="49.4419" lon="1.13182">
        <ele>56.3</ele>
        <time>2021-05-02T08:35:07Z</time>
      </trkpt>
      <trkpt lat="49.44194" lon="1.13183">
        <ele>56.6</ele>
        <time>2021-05-02T08:35:09Z</time>
      </trkpt>
      <trkpt lat="49.44197" lon="1.13182">
        <ele>56.8</ele>
        <time>2021-05-02T08:35:10Z</time>
      </trkpt>
      <trkpt lat="49.44202" lon="1.13182">
        <ele>57.2</ele>
        <time>2021-05-02T08:35:11Z</time>
      </trkpt>
      <trkpt lat="49.44206" lon="1.13182">
        <ele>57.5</ele>
        <time>2021-05-02T08:35:13Z</time>
      </trkpt>
      <trkpt lat="49.4421" lon="1.13181">
        <ele>57.7</ele>
        <time>2021-05-02T08:35:14Z</time>
      </trkpt>
      <trkpt lat="49.44213" lon="1.13181">
        <ele>57.9</ele>
        <time>2021-05-02T08:35:15Z</time>
      </trkpt>
      <trkpt lat="49.44214" lon="1.13181">
        <ele>58</ele>
        <time>2021-05-02T08:35:16Z</time>
      </trkpt>
      <trkpt lat="49.44219" lon="1.13182">
        <ele>58.3</ele>
        <time>2021-05-02T08:35:18Z</time>
      </trkpt>
      <trkpt lat="49.44224" lon="1.13182">
        <ele>58.7</ele>
        <time>2021-05-02T08:35:19Z</time>
      </trkpt>
      <trkpt lat="49.4423" lon="1.13182">
        <ele>59</ele>
        <time>2021-05-02T08:35:21Z</time>
      </trkpt>
      <trkpt lat="49.44234" lon="1.13182">
        <ele>59.2</ele>
        <time>2021-05-02T08:35:22Z</time>
      </trkpt>
      <trkpt lat="49.4424" lon="1.13181">
        <ele>59.5</ele>
        <time>2021-05-02T08:35:24Z</time>
      </trkpt>
      <trkpt lat="49.44243" lon="1.13181">
        <ele>59.6</ele>
        <time>2021-05-02T08:35:25Z</time>
      </trkpt>
      <trkpt lat="49.44246" lon="1.13181">
        <ele>59.7</ele>
        <time>2021-05-02T08:35:26Z</time>
      </trkpt>
      <trkpt lat="49.44247" lon="1.13181">
        <ele>59.8</ele>
        <time>2021-05-02T08:35:27Z</time>
      </trkpt>
      <trkpt lat="49.4425" lon="1.1318">
        <ele>59.9</ele>
        <time>2021-05-02T08:35:28Z</time>
      </trkpt>
      <trkpt lat="49.44255" lon="1.1318">
        <ele>60.1</ele>
        <time>2021-05-02T08:35:30Z</time>
      </trkpt>
      <trkpt lat="49.44259" lon="1.13179">
        <ele>60.1</ele>
        <time>2021-05-02T08:35:32Z</time>
      </trkpt>
      <trkpt lat="49.44263" lon="1.13178">
        <ele>60.2</ele>
        <time>2021-05-02T08:35:33Z</time>
      </trkpt>
      <trkpt lat="49.44268" lon="1.13177">
        <ele>60.2</ele>
        <time>2021-05-02T08:35:35Z</time>
      </trkpt>
      <trkpt lat="49.44271" lon="1.13176">
        <ele>60.2</ele>
        <time>2021-05-02T08:35:36Z</time>
      </trkpt>
      <trkpt lat="49.44275" lon="1.13173">
        <ele>60.2</ele>
        <time>2021-05-02T08:35:38Z</time>
      </trkpt>
      <trkpt lat="49.44279" lon="1.1317">
        <ele>60.1</ele>
        <time>2021-05-02T08:35:40Z</time>
      </trkpt>
      <trkpt lat="49.44283" lon="1.13166">
        <ele>59.9</ele>
        <time>2021-05-02T08:35:42Z</time>
      </trkpt>
      <trkpt lat="49.44285" lon="1.13164">
        <ele>59.8</ele>
        <time>2021-05-02T08:35:43Z</time>
      </trkpt>
      <trkpt lat="49.44287" lon="1.13163">
        <ele>59.7</ele>
        <time>2021-05-02T08:35:44Z</time>
      </trkpt>
      <trkpt lat="49.44291" lon="1.1316">
        <ele>59.5</ele>
        <time>2021-05-02T08:35:46Z</time>
      </trkpt>
      <trkpt lat="49.44294" lon="1.13158">
        <ele>59.4</ele>
        <time>2021-05-02T08:35:47Z</time>
      </trkpt>
      <trkpt lat="49.44297" lon="1.13156">
        <ele>59.2</ele>
        <time>2021-05-02T08:35:48Z</time>
      </trkpt>
      <trkpt lat="49.443" lon="1.13154">
        <ele>59</ele>
        <time>2021-05-02T08:35:50Z</time>
      </trkpt>
      <trkpt lat="49.44303" lon="1.13153">
        <ele>58.8</ele>
        <time>2021-05-02T08:35:51Z</time>
      </trkpt>
      <trkpt lat="49.44306" lon="1.13151">
        <ele>58.6</ele>
        <time>2021-05-02T08:35:52Z</time>
      </trkpt>
      <trkpt lat="49.44309" lon="1.13149">
        <ele>58.4</ele>
        <time>2021-05-02T08:35:53Z</time>
      </trkpt>
      <trkpt lat="49.44313" lon="1.13147">
        <ele>58.2</ele>
        <time>2021-05-02T08:35:55Z</time>
      </trkpt>
      <trkpt lat="49.44316" lon="1.13145">
        <ele>58</ele>
        <time>2021-05-02T08:35:56Z</time>
      </trkpt>
      <trkpt lat="49.44319" lon="1.13143">
        <ele>57.8</ele>
        <time>2021-05-02T08:35:57Z</time>
      </trkpt>
      <trkpt lat="49.44323" lon="1.13142">
        <ele>57.5</ele>
        <time>2021-05-02T08:35:59Z</time>
      </trkpt>
      <trkpt lat="49.44326" lon="1.1314">
        <ele>57.3</ele>
        <time>2021-05-02T08:36:00Z</time>
      </trkpt>
      <trkpt lat="49.4433" lon="1.13137">
        <ele>57.1</ele>
        <time>2021-05-02T08:36:02Z</time>
      </trkpt>
      <trkpt lat="49.44335" lon="1.13135">
        <ele>56.8</ele>
        <time>2021-05-02T08:36:03Z</time>
      </trkpt>
      <trkpt lat="49.44339" lon="1.13133">
        <ele>56.7</ele>
        <time>2021-05-02T08:36:04Z</time>
      </trkpt>
      <trkpt lat="49.44342" lon="1.13131">
        <ele>56.6</ele>
        <time>2021-05-02T08:36:05Z</time>
      </trkpt>
      <trkpt lat="49.44347" lon="1.13128">
        <ele>56.5</ele>
        <time>2021-05-02T08:36:07Z</time>
      </trkpt>
      <trkpt lat="49.44351" lon="1.13126">
        <ele>56.4</ele>
        <time>2021-05-02T08:36:08Z</time>
      </trkpt>
      <trkpt lat="49.44354" lon="1.13125">
        <ele>56.4</ele>
        <time>2021-05-02T08:36:09Z</time>
      </trkpt>
      <trkpt lat="49.44359" lon="1.13123">
        <ele>56.4</ele>
        <time>2021-05-02T08:36:10Z</time>
      </trkpt>
      <trkpt lat="49.44362" lon="1.13122">
        <ele>56.4</ele>
        <time>2021-05-02T08:36:12Z</time>
      </trkpt>
      <trkpt lat="49.44365" lon="1.13121">
        <ele>56.5</ele>
        <time>2021-05-02T08:36:13Z</time>
      </trkpt>
      <trkpt lat="49.44369" lon="1.1312">
        <ele>56.5</ele>
        <time>2021-05-02T08:36:14Z</time>
      </trkpt>
      <trkpt lat="49.44373" lon="1.13119">
        <ele>56.5</ele>
        <time>2021-05-02T08:36:15Z</time>
      </trkpt>
      <trkpt lat="49.44376" lon="1.13118">
        <ele>56.5</ele>
        <time>2021-05-02T08:36:16Z</time>
      </trkpt>
      <trkpt lat="49.4438" lon="1.13117">
        <ele>56.5</ele>
        <time>2021-05-02T08:36:17Z</time>
      </trkpt>
      <trkpt lat="49.44386" lon="1.13116">
        <ele>56.6</ele>
        <time>2021-05-02T08:36:19Z</time>
      </trkpt>
      <trkpt lat="49.44391" lon="1.13116">
        <ele>56.6</ele>
        <time>2021-05-02T08:36:21Z</time>
      </trkpt>
      <trkpt lat="49.44396" lon="1.13115">
        <ele>56.6</ele>
        <time>2021-05-02T08:36:22Z</time>
      </trkpt>
      <trkpt lat="49.44399" lon="1.13115">
        <ele>56.7</ele>
        <time>2021-05-02T08:36:23Z</time>
      </trkpt>
      <trkpt lat="49.44403" lon="1.13115">
        <ele>56.8</ele>
        <time>2021-05-02T08:36:24Z</time>
      </trkpt>
      <trkpt lat="49.44407" lon="1.13115">
        <ele>57</ele>
        <time>2021-05-02T08:36:25Z</time>
      </trkpt>
      <trkpt lat="49.44411" lon="1.13116">
        <ele>57.2</ele>
        <time>2021-05-02T08:36:26Z</time>
      </trkpt>
      <trkpt lat="49.44417" lon="1.13118">
        <ele>57.6</ele>
        <time>2021-05-02T08:36:28Z</time>
      </trkpt>
      <trkpt lat="49.44424" lon="1.13122">
        <ele>58.3</ele>
        <time>2021-05-02T08:36:29Z</time>
      </trkpt>
      <trkpt lat="49.4443" lon="1.13125">
        <ele>58.9</ele>
        <time>2021-05-02T08:36:30Z</time>
      </trkpt>
      <trkpt lat="49.44433" lon="1.13128">
        <ele>59.3</ele>
        <time>2021-05-02T08:36:32Z</time>
      </trkpt>
      <trkpt lat="49.44434" lon="1.13129">
        <ele>59.4</ele>
        <time>2021-05-02T08:36:33Z</time>
      </trkpt>
      <trkpt lat="49.44437" lon="1.13131">
        <ele>59.7</ele>
        <time>2021-05-02T08:36:34Z</time>
      </trkpt>
      <trkpt lat="49.44439" lon="1.13133">
        <ele>60</ele>
        <time>2021-05-02T08:36:35Z</time>
      </trkpt>
      <trkpt lat="49.44442" lon="1.13135">
        <ele>60.4</ele>
        <time>2021-05-02T08:36:37Z</time>
      </trkpt>
      <trkpt lat="49.44446" lon="1.13139">
        <ele>60.8</ele>
        <time>2021-05-02T08:36:38Z</time>
      </trkpt>
      <trkpt lat="49.44449" lon="1.13142">
        <ele>61.2</ele>
        <time>2021-05-02T08:36:39Z</time>
      </trkpt>
      <trkpt lat="49.44452" lon="1.13145">
        <ele>61.5</ele>
        <time>2021-05-02T08:36:40Z</time>
      </trkpt>
      <trkpt lat="49.44453" lon="1.13146">
        <ele>61.6</ele>
        <time>2021-05-02T08:36:41Z</time>
      </trkpt>
      <trkpt lat="49.44457" lon="1.13149">
        <ele>62.1</ele>
        <time>2021-05-02T08:36:43Z</time>
      </trkpt>
      <trkpt lat="49.44458" lon="1.13151">
        <ele>62.2</ele>
        <time>2021-05-02T08:36:44Z</time>
      </trkpt>
      <trkpt lat="49.44459" lon="1.13152">
        <ele>62.4</ele>
        <time>2021-05-02T08:36:45Z</time>
      </trkpt>
      <trkpt lat="49.44461" lon="1.13154">
        <ele>62.6</ele>
        <time>2021-05-02T08:36:46Z</time>
      </trkpt>
      <trkpt lat="49.44465" lon="1.13155">
        <ele>62.9</ele>
        <time>2021-05-02T08:36:48Z</time>
      </trkpt>
      <trkpt lat="49.44467" lon="1.13156">
        <ele>63.1</ele>
        <time>2021-05-02T08:36:49Z</time>
      </trkpt>
      <trkpt lat="49.4447" lon="1.13157">
        <ele>63.4</ele>
        <time>2021-05-02T08:36:50Z</time>
      </trkpt>
      <trkpt lat="49.44474" lon="1.13159">
        <ele>63.7</ele>
        <time>2021-05-02T08:36:52Z</time>
      </trkpt>
      <trkpt lat="49.44475" lon="1.1316">
        <ele>63.8</ele>
        <time>2021-05-02T08:36:53Z</time>
      </trkpt>
      <trkpt lat="49.44477" lon="1.13161">
        <ele>64</ele>
        <time>2021-05-02T08:36:54Z</time>
      </trkpt>
      <trkpt lat="49.4448" lon="1.13163">
        <ele>64.2</ele>
        <time>2021-05-02T08:36:56Z</time>
      </trkpt>
      <trkpt lat="49.4448" lon="1.13163">
        <ele>64.2</ele>
        <time>2021-05-02T08:36:57Z</time>
      </trkpt>
      <trkpt lat="49.4448" lon="1.13163">
        <ele>64.2</ele>
        <time>2021-05-02T08:36:58Z</time>
      </trkpt>
      <trkpt lat="49.4448" lon="1.13164">
        <ele>64.2</ele>
        <time>2021-05-02T08:37:00Z</time>
      </trkpt>
      <trkpt lat="49.4448" lon="1.13164">
        <ele>64.2</ele>
        <time>2021-05-02T08:37:01Z</time>
      </trkpt>
      <trkpt lat="49.44483" lon="1.13163">
        <ele>64.4</ele>
        <time>2021-05-02T08:37:03Z</time>
      </trkpt>
      <trkpt lat="49.44487" lon="1.13162">
        <ele>64.6</ele>
        <time>2021-05-02T08:37:04Z</time>
      </trkpt>
      <trkpt lat="49.44489" lon="1.1316">
        <ele>64.8</ele>
        <time>2021-05-02T08:37:05Z</time>
      </trkpt>
      <trkpt lat="49.44492" lon="1.13157">
        <ele>65</ele>
        <time>2021-05-02T08:37:06Z</time>
      </trkpt>
      <trkpt lat="49.44496" lon="1.13153">
        <ele>65.2</ele>
        <time>2021-05-02T08:37:07Z</time>
      </trkpt>
      <trkpt lat="49.445" lon="1.1315">
        <ele>65.4</ele>
        <time>2021-05-02T08:37:09Z</time>
      </trkpt>
      <trkpt lat="49.44504" lon="1.13144">
        <ele>65.6</ele>
        <time>2021-05-02T08:37:11Z</time>
      </trkpt>
      <trkpt lat="49.44506" lon="1.13141">
        <ele>65.7</ele>
        <time>2021-05-02T08:37:12Z</time>
      </trkpt>
      <trkpt lat="49.44509" lon="1.13135">
        <ele>65.9</ele>
        <time>2021-05-02T08:37:14Z</time>
      </trkpt>
      <trkpt lat="49.44512" lon="1.13129">
        <ele>66.1</ele>
        <time>2021-05-02T08:37:16Z</time>
      </trkpt>
      <trkpt lat="49.44516" lon="1.13126">
        <ele>66.3</ele>
        <time>2021-05-02T08:37:17Z</time>
      </trkpt>
      <trkpt lat="49.4452" lon="1.13123">
        <ele>66.5</ele>
        <time>2021-05-02T08:37:19Z</time>
      </trkpt>
      <trkpt lat="49.44523" lon="1.13119">
        <ele>66.8</ele>
        <time>2021-05-02T08:37:20Z</time>
      </trkpt>
      <trkpt lat="49.44527" lon="1.13114">
        <ele>67.1</ele>
        <time>2021-05-02T08:37:21Z</time>
      </trkpt>
      <trkpt lat="49.44531" lon="1.13108">
        <ele>67.6</ele>
        <time>2021-05-02T08:37:23Z</time>
      </trkpt>
      <trkpt lat="49.44534" lon="1.13103">
        <ele>68</ele>
        <time>2021-05-02T08:37:25Z</time>
      </trkpt>
      <trkpt lat="49.44535" lon="1.13098">
        <ele>68.3</ele>
        <time>2021-05-02T08:37:26Z</time>
      </trkpt>
      <trkpt lat="49.44537" lon="1.13092">
        <ele>68.7</ele>
        <time>2021-05-02T08:37:28Z</time>
      </trkpt>
      <trkpt lat="49.44539" lon="1.13088">
        <ele>68.9</ele>
        <time>2021-05-02T08:37:29Z</time>
      </trkpt>
      <trkpt lat="49.44541" lon="1.13083">
        <ele>69.3</ele>
        <time>2021-05-02T08:37:30Z</time>
      </trkpt>
      <trkpt lat="49.44542" lon="1.13081">
        <ele>69.5</ele>
        <time>2021-05-02T08:37:31Z</time>
      </trkpt>
      <trkpt lat="49.44544" lon="1.13077">
        <ele>69.8</ele>
        <time>2021-05-02T08:37:33Z</time>
      </trkpt>
      <trkpt lat="49.44547" lon="1.13072">
        <ele>70.2</ele>
        <time>2021-05-02T08:37:34Z</time>
      </trkpt>
      <trkpt lat="49.44548" lon="1.13069">
        <ele>70.4</ele>
        <time>2021-05-02T08:37:35Z</time>
      </trkpt>
      <trkpt lat="49.44551" lon="1.13066">
        <ele>70.7</ele>
        <time>2021-05-02T08:37:37Z</time>
      </trkpt>
      <trkpt lat="49.44554" lon="1.13063">
        <ele>71</ele>
        <time>2021-05-02T08:37:38Z</time>
      </trkpt>
      <trkpt lat="49.44555" lon="1.13061">
        <ele>71.1</ele>
        <time>2021-05-02T08:37:39Z</time>
      </trkpt>
      <trkpt lat="49.44558" lon="1.13059">
        <ele>71.3</ele>
        <time>2021-05-02T08:37:40Z</time>
      </trkpt>
      <trkpt lat="49.44561" lon="1.13057">
        <ele>71.5</ele>
        <time>2021-05-02T08:37:41Z</time>
      </trkpt>
      <trkpt lat="49.44565" lon="1.13055">
        <ele>71.7</ele>
        <time>2021-05-02T08:37:43Z</time>
      </trkpt>
      <trkpt lat="49.44568" lon="1.13052">
        <ele>71.9</ele>
        <time>2021-05-02T08:37:44Z</time>
      </trkpt>
      <trkpt lat="49.44571" lon="1.13049">
        <ele>72.1</ele>
        <time>2021-05-02T08:37:45Z</time>
      </trkpt>
      <trkpt lat="49.44574" lon="1.13047">
        <ele>72.2</ele>
        <time>2021-05-02T08:37:46Z</time>
      </trkpt>
      <trkpt lat="49.44576" lon="1.13045">
        <ele>72.3</ele>
        <time>2021-05-02T08:37:47Z</time>
      </trkpt>
      <trkpt lat="49.4458" lon="1.13043">
        <ele>72.4</ele>
        <time>2021-05-02T08:37:49Z</time>
      </trkpt>
      <trkpt lat="49.44582" lon="1.13041">
        <ele>72.4</ele>
        <time>2021-05-02T08:37:50Z</time>
      </trkpt>
      <trkpt lat="49.44585" lon="1.13038">
        <ele>72.4</ele>
        <time>2021-05-02T08:37:51Z</time>
      </trkpt>
      <trkpt lat="49.44585" lon="1.13037">
        <ele>72.4</ele>
        <time>2021-05-02T08:37:52Z</time>
      </trkpt>
      <trkpt lat="49.44588" lon="1.13032">
        <ele>72.3</ele>
        <time>2021-05-02T08:37:54Z</time>
      </trkpt>
      <trkpt lat="49.44589" lon="1.13029">
        <ele>72.3</ele>
        <time>2021-05-02T08:37:55Z</time>
      </trkpt>
      <trkpt lat="49.44592" lon="1.13025">
        <ele>72.2</ele>
        <time>2021-05-02T08:37:57Z</time>
      </trkpt>
      <trkpt lat="49.44594" lon="1.13022">
        <ele>72.1</ele>
        <time>2021-05-02T08:37:58Z</time>
      </trkpt>
      <trkpt lat="49.44599" lon="1.13018">
        <ele>71.8</ele>
        <time>2021-05-02T08:38:00Z</time>
      </trkpt>
      <trkpt lat="49.44601" lon="1.13018">
        <ele>71.8</ele>
        <time>2021-05-02T08:38:01Z</time>
      </trkpt>
      <trkpt lat="49.44603" lon="1.13018">
        <ele>71.7</ele>
        <time>2021-05-02T08:38:02Z</time>
      </trkpt>
      <trkpt lat="49.44606" lon="1.13016">
        <ele>71.5</ele>
        <time>2021-05-02T08:38:04Z</time>
      </trkpt>
      <trkpt lat="49.44609" lon="1.13014">
        <ele>71.3</ele>
        <time>2021-05-02T08:38:05Z</time>
      </trkpt>
      <trkpt lat="49.44613" lon="1.13011">
        <ele>71.1</ele>
        <time>2021-05-02T08:38:06Z</time>
      </trkpt>
      <trkpt lat="49.44614" lon="1.1301">
        <ele>71.1</ele>
        <time>2021-05-02T08:38:07Z</time>
      </trkpt>
      <trkpt lat="49.44616" lon="1.13008">
        <ele>70.9</ele>
        <time>2021-05-02T08:38:08Z</time>
      </trkpt>
      <trkpt lat="49.4462" lon="1.13005">
        <ele>70.8</ele>
        <time>2021-05-02T08:38:10Z</time>
      </trkpt>
      <trkpt lat="49.44623" lon="1.13002">
        <ele>70.6</ele>
        <time>2021-05-02T08:38:11Z</time>
      </trkpt>
      <trkpt lat="49.44631" lon="1.12993">
        <ele>70.2</ele>
        <time>2021-05-02T08:38:13Z</time>
      </trkpt>
      <trkpt lat="49.44637" lon="1.12987">
        <ele>70</ele>
        <time>2021-05-02T08:38:14Z</time>
      </trkpt>
      <trkpt lat="49.44643" lon="1.12982">
        <ele>69.9</ele>
        <time>2021-05-02T08:38:16Z</time>
      </trkpt>
      <trkpt lat="49.44646" lon="1.12979">
        <ele>69.9</ele>
        <time>2021-05-02T08:38:17Z</time>
      </trkpt>
      <trkpt lat="49.44649" lon="1.12977">
        <ele>69.9</ele>
        <time>2021-05-02T08:38:18Z</time>
      </trkpt>
      <trkpt lat="49.44653" lon="1.12974">
        <ele>69.9</ele>
        <time>2021-05-02T08:38:20Z</time>
      </trkpt>
      <trkpt lat="49.44657" lon="1.12975">
        <ele>70</ele>
        <time>2021-05-02T08:38:21Z</time>
      </trkpt>
      <trkpt lat="49.44661" lon="1.12977">
        <ele>70.2</ele>
        <time>2021-05-02T08:38:23Z</time>
      </trkpt>
      <trkpt lat="49.44663" lon="1.1298">
        <ele>70.4</ele>
        <time>2021-05-02T08:38:24Z</time>
      </trkpt>
      <trkpt lat="49.44665" lon="1.12984">
        <ele>70.6</ele>
        <time>2021-05-02T08:38:25Z</time>
      </trkpt>
      <trkpt lat="49.44666" lon="1.12989">
        <ele>70.8</ele>
        <time>2021-05-02T08:38:26Z</time>
      </trkpt>
      <trkpt lat="49.44666" lon="1.1299">
        <ele>70.9</ele>
        <time>2021-05-02T08:38:27Z</time>
      </trkpt>
      <trkpt lat="49.44665" lon="1.12995">
        <ele>71.3</ele>
        <time>2021-05-02T08:38:29Z</time>
      </trkpt>
      <trkpt lat="49.44665" lon="1.13">
        <ele>71.6</ele>
        <time>2021-05-02T08:38:30Z</time>
      </trkpt>
      <trkpt lat="49.44664" lon="1.13005">
        <ele>72</ele>
        <time>2021-05-02T08:38:32Z</time>
      </trkpt>
      <trkpt lat="49.44663" lon="1.13009">
        <ele>72.3</ele>
        <time>2021-05-02T08:38:33Z</time>
      </trkpt>
      <trkpt lat="49.44662" lon="1.13011">
        <ele>72.5</ele>
        <time>2021-05-02T08:38:34Z</time>
      </trkpt>
      <trkpt lat="49.44659" lon="1.13015">
        <ele>72.9</ele>
        <time>2021-05-02T08:38:36Z</time>
      </trkpt>
      <trkpt lat="49.44658" lon="1.13016">
        <ele>73</ele>
        <time>2021-05-02T08:38:37Z</time>
      </trkpt>
      <trkpt lat="49.44655" lon="1.13018">
        <ele>73.4</ele>
        <time>2021-05-02T08:38:38Z</time>
      </trkpt>
      <trkpt lat="49.44652" lon="1.13021">
        <ele>73.8</ele>
        <time>2021-05-02T08:38:40Z</time>
      </trkpt>
      <trkpt lat="49.44648" lon="1.13024">
        <ele>74.3</ele>
        <time>2021-05-02T08:38:42Z</time>
      </trkpt>
      <trkpt lat="49.44646" lon="1.13026">
        <ele>74.7</ele>
        <time>2021-05-02T08:38:43Z</time>
      </trkpt>
      <trkpt lat="49.44642" lon="1.13029">
        <ele>75.1</ele>
        <time>2021-05-02T08:38:44Z</time>
      </trkpt>
      <trkpt lat="49.44639" lon="1.13031">
        <ele>75.5</ele>
        <time>2021-05-02T08:38:46Z</time>
      </trkpt>
      <trkpt lat="49.44636" lon="1.13034">
        <ele>75.8</ele>
        <time>2021-05-02T08:38:47Z</time>
      </trkpt>
      <trkpt lat="49.44632" lon="1.13037">
        <ele>76.3</ele>
        <time>2021-05-02T08:38:48Z</time>
      </trkpt>
      <trkpt lat="49.44631" lon="1.13038">
        <ele>76.4</ele>
        <time>2021-05-02T08:38:49Z</time>
      </trkpt>
      <trkpt lat="49.44627" lon="1.13041">
        <ele>76.8</ele>
        <time>2021-05-02T08:38:51Z</time>
      </trkpt>
      <trkpt lat="49.44626" lon="1.13042">
        <ele>77</ele>
        <time>2021-05-02T08:38:52Z</time>
      </trkpt>
      <trkpt lat="49.44625" lon="1.1304">
        <ele>77.1</ele>
        <time>2021-05-02T08:38:53Z</time>
      </trkpt>
      <trkpt lat="49.44625" lon="1.13039">
        <ele>77.2</ele>
        <time>2021-05-02T08:38:54Z</time>
      </trkpt>
      <trkpt lat="49.44625" lon="1.13039">
        <ele>77.2</ele>
        <time>2021-05-02T08:38:55Z</time>
      </trkpt>
      <trkpt lat="49.44625" lon="1.13039">
        <ele>77.2</ele>
        <time>2021-05-02T08:38:57Z</time>
      </trkpt>
      <trkpt lat="49.44625" lon="1.13039">
        <ele>77.2</ele>
        <time>2021-05-02T08:38:58Z</time>
      </trkpt>
      <trkpt lat="49.44625" lon="1.13039">
        <ele>77.3</ele>
        <time>2021-05-02T08:38:59Z</time>
      </trkpt>
      <trkpt lat="49.44625" lon="1.13039">
        <ele>77.3</ele>
        <time>2021-05-02T08:39:01Z</time>
      </trkpt>
      <trkpt lat="49.44621" lon="1.13042">
        <ele>77.7</ele>
        <time>2021-05-02T08:39:03Z</time>
      </trkpt>
      <trkpt lat="49.44615" lon="1.13047">
        <ele>78.5</ele>
        <time>2021-05-02T08:39:04Z</time>
      </trkpt>
      <trkpt lat="49.4461" lon="1.13051">
        <ele>79.2</ele>
        <time>2021-05-02T08:39:06Z</time>
      </trkpt>
      <trkpt lat="49.44606" lon="1.13054">
        <ele>79.7</ele>
        <time>2021-05-02T08:39:07Z</time>
      </trkpt>
      <trkpt lat="49.44602" lon="1.13059">
        <ele>80.3</ele>
        <time>2021-05-02T08:39:08Z</time>
      </trkpt>
      <trkpt lat="49.44601" lon="1.13062">
        <ele>80.6</ele>
        <time>2021-05-02T08:39:09Z</time>
      </trkpt>
      <trkpt lat="49.44602" lon="1.13064">
        <ele>80.7</ele>
        <time>2021-05-02T08:39:10Z</time>
      </trkpt>
      <trkpt lat="49.44605" lon="1.13065">
        <ele>81.2</ele>
        <time>2021-05-02T08:39:12Z</time>
      </trkpt>
      <trkpt lat="49.44606" lon="1.13066">
        <ele>81.3</ele>
        <time>2021-05-02T08:39:14Z</time>
      </trkpt>
      <trkpt lat="49.44607" lon="1.13066">
        <ele>81.5</ele>
        <time>2021-05-02T08:39:15Z</time>
      </trkpt>
      <trkpt lat="49.44609" lon="1.13066">
        <ele>81.6</ele>
        <time>2021-05-02T08:39:17Z</time>
      </trkpt>
      <trkpt lat="49.4461" lon="1.13067">
        <ele>83.9</ele>
        <time>2021-05-02T08:39:18Z</time>
      </trkpt>
      <trkpt lat="49.44615" lon="1.1307">
        <ele>83.9</ele>
        <time>2021-05-02T08:39:19Z</time>
      </trkpt>
      <trkpt lat="49.44617" lon="1.13072">
        <ele>83.9</ele>
        <time>2021-05-02T08:39:20Z</time>
      </trkpt>
      <trkpt lat="49.44627" lon="1.13076">
        <ele>83.7</ele>
        <time>2021-05-02T08:39:22Z</time>
      </trkpt>
      <trkpt lat="49.44635" lon="1.13077">
        <ele>83.5</ele>
        <time>2021-05-02T08:39:24Z</time>
      </trkpt>
      <trkpt lat="49.4464" lon="1.13077">
        <ele>83.4</ele>
        <time>2021-05-02T08:39:25Z</time>
      </trkpt>
      <trkpt lat="49.44645" lon="1.13077">
        <ele>83.3</ele>
        <time>2021-05-02T08:39:26Z</time>
      </trkpt>
      <trkpt lat="49.4465" lon="1.13076">
        <ele>83.3</ele>
        <time>2021-05-02T08:39:27Z</time>
      </trkpt>
      <trkpt lat="49.44654" lon="1.13076">
        <ele>83.3</ele>
        <time>2021-05-02T08:39:28Z</time>
      </trkpt>
      <trkpt lat="49.44658" lon="1.13077">
        <ele>83.3</ele>
        <time>2021-05-02T08:39:29Z</time>
      </trkpt>
      <trkpt lat="49.44661" lon="1.13078">
        <ele>83.4</ele>
        <time>2021-05-02T08:39:31Z</time>
      </trkpt>
      <trkpt lat="49.44664" lon="1.13082">
        <ele>83.5</ele>
        <time>2021-05-02T08:39:32Z</time>
      </trkpt>
      <trkpt lat="49.44665" lon="1.13083">
        <ele>83.6</ele>
        <time>2021-05-02T08:39:33Z</time>
      </trkpt>
      <trkpt lat="49.44667" lon="1.13087">
        <ele>83.8</ele>
        <time>2021-05-02T08:39:34Z</time>
      </trkpt>
      <trkpt lat="49.44669" lon="1.1309">
        <ele>84</ele>
        <time>2021-05-02T08:39:36Z</time>
      </trkpt>
      <trkpt lat="49.44672" lon="1.13094">
        <ele>84.2</ele>
        <time>2021-05-02T08:39:37Z</time>
      </trkpt>
      <trkpt lat="49.44677" lon="1.13097">
        <ele>84.6</ele>
        <time>2021-05-02T08:39:39Z</time>
      </trkpt>
      <trkpt lat="49.44681" lon="1.131">
        <ele>84.9</ele>
        <time>2021-05-02T08:39:41Z</time>
      </trkpt>
      <trkpt lat="49.44685" lon="1.13101">
        <ele>85.2</ele>
        <time>2021-05-02T08:39:42Z</time>
      </trkpt>
      <trkpt lat="49.44688" lon="1.13102">
        <ele>85.4</ele>
        <time>2021-05-02T08:39:43Z</time>
      </trkpt>
      <trkpt lat="49.4469" lon="1.13103">
        <ele>85.6</ele>
        <time>2021-05-02T08:39:44Z</time>
      </trkpt>
      <trkpt lat="49.44695" lon="1.13104">
        <ele>85.8</ele>
        <time>2021-05-02T08:39:46Z</time>
      </trkpt>
      <trkpt lat="49.44699" lon="1.13105">
        <ele>86.1</ele>
        <time>2021-05-02T08:39:47Z</time>
      </trkpt>
      <trkpt lat="49.44703" lon="1.13104">
        <ele>86.3</ele>
        <time>2021-05-02T08:39:49Z</time>
      </trkpt>
      <trkpt lat="49.44704" lon="1.13104">
        <ele>86.4</ele>
        <time>2021-05-02T08:39:50Z</time>
      </trkpt>
      <trkpt lat="49.44705" lon="1.13105">
        <ele>86.4</ele>
        <time>2021-05-02T08:39:51Z</time>
      </trkpt>
      <trkpt lat="49.4471" lon="1.13106">
        <ele>86.7</ele>
        <time>2021-05-02T08:39:53Z</time>
      </trkpt>
      <trkpt lat="49.44712" lon="1.13107">
        <ele>86.8</ele>
        <time>2021-05-02T08:39:54Z</time>
      </trkpt>
      <trkpt lat="49.44713" lon="1.13107">
        <ele>86.8</ele>
        <time>2021-05-02T08:39:55Z</time>
      </trkpt>
      <trkpt lat="49.44718" lon="1.13109">
        <ele>87</ele>
        <time>2021-05-02T08:39:57Z</time>
      </trkpt>
      <trkpt lat="49.4472" lon="1.13111">
        <ele>87.1</ele>
        <time>2021-05-02T08:39:59Z</time>
      </trkpt>
      <trkpt lat="49.44721" lon="1.13112">
        <ele>87.2</ele>
        <time>2021-05-02T08:40:00Z</time>
      </trkpt>
      <trkpt lat="49.44723" lon="1.13113">
        <ele>87.2</ele>
        <time>2021-05-02T08:40:01Z</time>
      </trkpt>
      <trkpt lat="49.44725" lon="1.13116">
        <ele>87.4</ele>
        <time>2021-05-02T08:40:03Z</time>
      </trkpt>
      <trkpt lat="49.44727" lon="1.13116">
        <ele>87.5</ele>
        <time>2021-05-02T08:40:04Z</time>
      </trkpt>
      <trkpt lat="49.4473" lon="1.13115">
        <ele>87.7</ele>
        <time>2021-05-02T08:40:06Z</time>
      </trkpt>
      <trkpt lat="49.44732" lon="1.13116">
        <ele>87.8</ele>
        <time>2021-05-02T08:40:08Z</time>
      </trkpt>
      <trkpt lat="49.44734" lon="1.13117">
        <ele>87.9</ele>
        <time>2021-05-02T08:40:09Z</time>
      </trkpt>
      <trkpt lat="49.44735" lon="1.13119">
        <ele>88</ele>
        <time>2021-05-02T08:40:11Z</time>
      </trkpt>
      <trkpt lat="49.44734" lon="1.13121">
        <ele>88.1</ele>
        <time>2021-05-02T08:40:12Z</time>
      </trkpt>
      <trkpt lat="49.44734" lon="1.13123">
        <ele>88.2</ele>
        <time>2021-05-02T08:40:14Z</time>
      </trkpt>
      <trkpt lat="49.44734" lon="1.13125">
        <ele>88.3</ele>
        <time>2021-05-02T08:40:15Z</time>
      </trkpt>
      <trkpt lat="49.44734" lon="1.13127">
        <ele>88.4</ele>
        <time>2021-05-02T08:40:16Z</time>
      </trkpt>
      <trkpt lat="49.44735" lon="1.1313">
        <ele>88.5</ele>
        <time>2021-05-02T08:40:18Z</time>
      </trkpt>
      <trkpt lat="49.44735" lon="1.13132">
        <ele>88.6</ele>
        <time>2021-05-02T08:40:19Z</time>
      </trkpt>
      <trkpt lat="49.44736" lon="1.13134">
        <ele>88.7</ele>
        <time>2021-05-02T08:40:20Z</time>
      </trkpt>
      <trkpt lat="49.44736" lon="1.13136">
        <ele>88.8</ele>
        <time>2021-05-02T08:40:21Z</time>
      </trkpt>
      <trkpt lat="49.44738" lon="1.1314">
        <ele>89.1</ele>
        <time>2021-05-02T08:40:23Z</time>
      </trkpt>
      <trkpt lat="49.4474" lon="1.13143">
        <ele>89.3</ele>
        <time>2021-05-02T08:40:24Z</time>
      </trkpt>
      <trkpt lat="49.44742" lon="1.13146">
        <ele>89.5</ele>
        <time>2021-05-02T08:40:25Z</time>
      </trkpt>
      <trkpt lat="49.44746" lon="1.1315">
        <ele>89.7</ele>
        <time>2021-05-02T08:40:27Z</time>
      </trkpt>
      <trkpt lat="49.44749" lon="1.13153">
        <ele>89.9</ele>
        <time>2021-05-02T08:40:28Z</time>
      </trkpt>
      <trkpt lat="49.44753" lon="1.13158">
        <ele>90.1</ele>
        <time>2021-05-02T08:40:30Z</time>
      </trkpt>
      <trkpt lat="49.44756" lon="1.13163">
        <ele>90.2</ele>
        <time>2021-05-02T08:40:31Z</time>
      </trkpt>
      <trkpt lat="49.4476" lon="1.13166">
        <ele>90.3</ele>
        <time>2021-05-02T08:40:32Z</time>
      </trkpt>
      <trkpt lat="49.44762" lon="1.1317">
        <ele>90.4</ele>
        <time>2021-05-02T08:40:33Z</time>
      </trkpt>
      <trkpt lat="49.44767" lon="1.13174">
        <ele>90.4</ele>
        <time>2021-05-02T08:40:35Z</time>
      </trkpt>
      <trkpt lat="49.4477" lon="1.13176">
        <ele>90.4</ele>
        <time>2021-05-02T08:40:36Z</time>
      </trkpt>
      <trkpt lat="49.44772" lon="1.13179">
        <ele>90.4</ele>
        <time>2021-05-02T08:40:37Z</time>
      </trkpt>
      <trkpt lat="49.44778" lon="1.13183">
        <ele>90.4</ele>
        <time>2021-05-02T08:40:39Z</time>
      </trkpt>
      <trkpt lat="49.44782" lon="1.13188">
        <ele>90.2</ele>
        <time>2021-05-02T08:40:41Z</time>
      </trkpt>
      <trkpt lat="49.44786" lon="1.13193">
        <ele>90</ele>
        <time>2021-05-02T08:40:42Z</time>
      </trkpt>
      <trkpt lat="49.44789" lon="1.13196">
        <ele>89.9</ele>
        <time>2021-05-02T08:40:43Z</time>
      </trkpt>
      <trkpt lat="49.44791" lon="1.132">
        <ele>89.7</ele>
        <time>2021-05-02T08:40:44Z</time>
      </trkpt>
      <trkpt lat="49.44794" lon="1.13203">
        <ele>89.4</ele>
        <time>2021-05-02T08:40:45Z</time>
      </trkpt>
      <trkpt lat="49.44798" lon="1.13207">
        <ele>89.1</ele>
        <time>2021-05-02T08:40:47Z</time>
      </trkpt>
      <trkpt lat="49.44802" lon="1.1321">
        <ele>88.9</ele>
        <time>2021-05-02T08:40:48Z</time>
      </trkpt>
      <trkpt lat="49.44805" lon="1.13212">
        <ele>88.7</ele>
        <time>2021-05-02T08:40:49Z</time>
      </trkpt>
      <trkpt lat="49.44808" lon="1.13216">
        <ele>88.4</ele>
        <time>2021-05-02T08:40:50Z</time>
      </trkpt>
      <trkpt lat="49.44814" lon="1.1322">
        <ele>88</ele>
        <time>2021-05-02T08:40:52Z</time>
      </trkpt>
      <trkpt lat="49.44819" lon="1.13224">
        <ele>87.7</ele>
        <time>2021-05-02T08:40:53Z</time>
      </trkpt>
      <trkpt lat="49.44825" lon="1.13228">
        <ele>87.5</ele>
        <time>2021-05-02T08:40:55Z</time>
      </trkpt>
      <trkpt lat="49.4483" lon="1.13232">
        <ele>87.4</ele>
        <time>2021-05-02T08:40:56Z</time>
      </trkpt>
      <trkpt lat="49.44834" lon="1.13236">
        <ele>87.3</ele>
        <time>2021-05-02T08:40:57Z</time>
      </trkpt>
      <trkpt lat="49.44838" lon="1.1324">
        <ele>87.3</ele>
        <time>2021-05-02T08:40:59Z</time>
      </trkpt>
      <trkpt lat="49.44842" lon="1.13243">
        <ele>87.2</ele>
        <time>2021-05-02T08:41:00Z</time>
      </trkpt>
      <trkpt lat="49.44848" lon="1.13248">
        <ele>87.1</ele>
        <time>2021-05-02T08:41:02Z</time>
      </trkpt>
      <trkpt lat="49.44852" lon="1.13251">
        <ele>87.1</ele>
        <time>2021-05-02T08:41:04Z</time>
      </trkpt>
      <trkpt lat="49.44859" lon="1.13257">
        <ele>87.2</ele>
        <time>2021-05-02T08:41:05Z</time>
      </trkpt>
      <trkpt lat="49.44867" lon="1.13263">
        <ele>87.4</ele>
        <time>2021-05-02T08:41:07Z</time>
      </trkpt>
      <trkpt lat="49.44873" lon="1.13267">
        <ele>87.7</ele>
        <time>2021-05-02T08:41:08Z</time>
      </trkpt>
      <trkpt lat="49.4488" lon="1.13274">
        <ele>88.1</ele>
        <time>2021-05-02T08:41:09Z</time>
      </trkpt>
      <trkpt lat="49.44885" lon="1.13278">
        <ele>88.5</ele>
        <time>2021-05-02T08:41:11Z</time>
      </trkpt>
      <trkpt lat="49.44891" lon="1.13282">
        <ele>88.8</ele>
        <time>2021-05-02T08:41:12Z</time>
      </trkpt>
      <trkpt lat="49.44896" lon="1.13286">
        <ele>89.2</ele>
        <time>2021-05-02T08:41:13Z</time>
      </trkpt>
      <trkpt lat="49.44903" lon="1.13292">
        <ele>89.7</ele>
        <time>2021-05-02T08:41:15Z</time>
      </trkpt>
      <trkpt lat="49.44909" lon="1.13297">
        <ele>90.1</ele>
        <time>2021-05-02T08:41:16Z</time>
      </trkpt>
      <trkpt lat="49.44917" lon="1.13303">
        <ele>90.8</ele>
        <time>2021-05-02T08:41:18Z</time>
      </trkpt>
      <trkpt lat="49.44923" lon="1.13308">
        <ele>91.4</ele>
        <time>2021-05-02T08:41:19Z</time>
      </trkpt>
      <trkpt lat="49.44928" lon="1.13313">
        <ele>92</ele>
        <time>2021-05-02T08:41:21Z</time>
      </trkpt>
      <trkpt lat="49.44931" lon="1.13315">
        <ele>92.3</ele>
        <time>2021-05-02T08:41:22Z</time>
      </trkpt>
      <trkpt lat="49.44937" lon="1.1332">
        <ele>92.9</ele>
        <time>2021-05-02T08:41:24Z</time>
      </trkpt>
      <trkpt lat="49.44942" lon="1.13322">
        <ele>93.4</ele>
        <time>2021-05-02T08:41:25Z</time>
      </trkpt>
      <trkpt lat="49.44946" lon="1.13327">
        <ele>93.9</ele>
        <time>2021-05-02T08:41:27Z</time>
      </trkpt>
      <trkpt lat="49.44953" lon="1.13332">
        <ele>94.5</ele>
        <time>2021-05-02T08:41:29Z</time>
      </trkpt>
      <trkpt lat="49.44955" lon="1.13336">
        <ele>94.8</ele>
        <time>2021-05-02T08:41:30Z</time>
      </trkpt>
      <trkpt lat="49.44958" lon="1.13339">
        <ele>95</ele>
        <time>2021-05-02T08:41:32Z</time>
      </trkpt>
      <trkpt lat="49.44964" lon="1.13341">
        <ele>95.3</ele>
        <time>2021-05-02T08:41:34Z</time>
      </trkpt>
      <trkpt lat="49.44966" lon="1.13341">
        <ele>95.4</ele>
        <time>2021-05-02T08:41:35Z</time>
      </trkpt>
      <trkpt lat="49.44969" lon="1.13342">
        <ele>95.6</ele>
        <time>2021-05-02T08:41:37Z</time>
      </trkpt>
      <trkpt lat="49.44972" lon="1.13342">
        <ele>95.7</ele>
        <time>2021-05-02T08:41:39Z</time>
      </trkpt>
      <trkpt lat="49.44974" lon="1.13343">
        <ele>95.8</ele>
        <time>2021-05-02T08:41:40Z</time>
      </trkpt>
      <trkpt lat="49.44977" lon="1.13344">
        <ele>95.9</ele>
        <time>2021-05-02T08:41:42Z</time>
      </trkpt>
      <trkpt lat="49.44979" lon="1.13345">
        <ele>96</ele>
        <time>2021-05-02T08:41:43Z</time>
      </trkpt>
      <trkpt lat="49.44983" lon="1.13345">
        <ele>96.2</ele>
        <time>2021-05-02T08:41:45Z</time>
      </trkpt>
      <trkpt lat="49.44984" lon="1.13346">
        <ele>96.3</ele>
        <time>2021-05-02T08:41:46Z</time>
      </trkpt>
      <trkpt lat="49.44987" lon="1.13346">
        <ele>96.4</ele>
        <time>2021-05-02T08:41:48Z</time>
      </trkpt>
      <trkpt lat="49.44991" lon="1.13348">
        <ele>96.6</ele>
        <time>2021-05-02T08:41:50Z</time>
      </trkpt>
      <trkpt lat="49.44995" lon="1.13352">
        <ele>96.8</ele>
        <time>2021-05-02T08:41:52Z</time>
      </trkpt>
      <trkpt lat="49.44999" lon="1.13356">
        <ele>97.1</ele>
        <time>2021-05-02T08:41:54Z</time>
      </trkpt>
      <trkpt lat="49.45002" lon="1.13359">
        <ele>97.2</ele>
        <time>2021-05-02T08:41:55Z</time>
      </trkpt>
      <trkpt lat="49.45005" lon="1.13362">
        <ele>97.3</ele>
        <time>2021-05-02T08:41:57Z</time>
      </trkpt>
      <trkpt lat="49.45008" lon="1.13366">
        <ele>97.5</ele>
        <time>2021-05-02T08:41:59Z</time>
      </trkpt>
      <trkpt lat="49.4501" lon="1.13369">
        <ele>97.6</ele>
        <time>2021-05-02T08:42:00Z</time>
      </trkpt>
      <trkpt lat="49.45013" lon="1.13372">
        <ele>97.7</ele>
        <time>2021-05-02T08:42:02Z</time>
      </trkpt>
      <trkpt lat="49.45017" lon="1.13375">
        <ele>97.8</ele>
        <time>2021-05-02T08:42:04Z</time>
      </trkpt>
      <trkpt lat="49.45021" lon="1.13378">
        <ele>97.9</ele>
        <time>2021-05-02T08:42:06Z</time>
      </trkpt>
      <trkpt lat="49.45024" lon="1.13381">
        <ele>98</ele>
        <time>2021-05-02T08:42:08Z</time>
      </trkpt>
      <trkpt lat="49.45026" lon="1.13382">
        <ele>98</ele>
        <time>2021-05-02T08:42:09Z</time>
      </trkpt>
      <trkpt lat="49.45027" lon="1.13383">
        <ele>98</ele>
        <time>2021-05-02T08:42:10Z</time>
      </trkpt>
      <trkpt lat="49.45031" lon="1.13386">
        <ele>98.1</ele>
        <time>2021-05-02T08:42:12Z</time>
      </trkpt>
      <trkpt lat="49.45033" lon="1.13388">
        <ele>98.1</ele>
        <time>2021-05-02T08:42:13Z</time>
      </trkpt>
      <trkpt lat="49.45036" lon="1.13391">
        <ele>98.2</ele>
        <time>2021-05-02T08:42:15Z</time>
      </trkpt>
      <trkpt lat="49.45037" lon="1.13392">
        <ele>98.2</ele>
        <time>2021-05-02T08:42:16Z</time>
      </trkpt>
      <trkpt lat="49.45041" lon="1.13395">
        <ele>98.3</ele>
        <time>2021-05-02T08:42:18Z</time>
      </trkpt>
      <trkpt lat="49.4505" lon="1.13401">
        <ele>98.5</ele>
        <time>2021-05-02T08:42:20Z</time>
      </trkpt>
      <trkpt lat="49.45055" lon="1.13406">
        <ele>98.6</ele>
        <time>2021-05-02T08:42:21Z</time>
      </trkpt>
      <trkpt lat="49.45058" lon="1.13407">
        <ele>98.6</ele>
        <time>2021-05-02T08:42:23Z</time>
      </trkpt>
      <trkpt lat="49.45062" lon="1.13407">
        <ele>98.6</ele>
        <time>2021-05-02T08:42:24Z</time>
      </trkpt>
      <trkpt lat="49.45065" lon="1.13408">
        <ele>98.6</ele>
        <time>2021-05-02T08:42:25Z</time>
      </trkpt>
      <trkpt lat="49.45069" lon="1.13407">
        <ele>98.6</ele>
        <time>2021-05-02T08:42:27Z</time>
      </trkpt>
      <trkpt lat="49.45074" lon="1.13404">
        <ele>98.5</ele>
        <time>2021-05-02T08:42:28Z</time>
      </trkpt>
      <trkpt lat="49.45079" lon="1.13404">
        <ele>98.4</ele>
        <time>2021-05-02T08:42:30Z</time>
      </trkpt>
      <trkpt lat="49.45081" lon="1.13403">
        <ele>98.3</ele>
        <time>2021-05-02T08:42:32Z</time>
      </trkpt>
      <trkpt lat="49.45083" lon="1.13402">
        <ele>98.3</ele>
        <time>2021-05-02T08:42:33Z</time>
      </trkpt>
      <trkpt lat="49.45084" lon="1.13403">
        <ele>98.2</ele>
        <time>2021-05-02T08:42:34Z</time>
      </trkpt>
      <trkpt lat="49.45085" lon="1.13404">
        <ele>98.2</ele>
        <time>2021-05-02T08:42:35Z</time>
      </trkpt>
      <trkpt lat="49.45088" lon="1.13404">
        <ele>98</ele>
        <time>2021-05-02T08:42:37Z</time>
      </trkpt>
      <trkpt lat="49.45093" lon="1.13404">
        <ele>97.8</ele>
        <time>2021-05-02T08:42:39Z</time>
      </trkpt>
      <trkpt lat="49.45096" lon="1.13403">
        <ele>97.7</ele>
        <time>2021-05-02T08:42:41Z</time>
      </trkpt>
      <trkpt lat="49.451" lon="1.13405">
        <ele>97.6</ele>
        <time>2021-05-02T08:42:42Z</time>
      </trkpt>
      <trkpt lat="49.45103" lon="1.13407">
        <ele>97.5</ele>
        <time>2021-05-02T08:42:43Z</time>
      </trkpt>
      <trkpt lat="49.45106" lon="1.13411">
        <ele>97.5</ele>
        <time>2021-05-02T08:42:45Z</time>
      </trkpt>
      <trkpt lat="49.45107" lon="1.13414">
        <ele>97.5</ele>
        <time>2021-05-02T08:42:46Z</time>
      </trkpt>
      <trkpt lat="49.45111" lon="1.13417">
        <ele>97.6</ele>
        <time>2021-05-02T08:42:48Z</time>
      </trkpt>
      <trkpt lat="49.45116" lon="1.1342">
        <ele>98</ele>
        <time>2021-05-02T08:42:49Z</time>
      </trkpt>
      <trkpt lat="49.45119" lon="1.13421">
        <ele>98.3</ele>
        <time>2021-05-02T08:42:50Z</time>
      </trkpt>
      <trkpt lat="49.45119" lon="1.13422">
        <ele>98.4</ele>
        <time>2021-05-02T08:42:51Z</time>
      </trkpt>
      <trkpt lat="49.45122" lon="1.13424">
        <ele>98.7</ele>
        <time>2021-05-02T08:42:52Z</time>
      </trkpt>
      <trkpt lat="49.45128" lon="1.13426">
        <ele>99.4</ele>
        <time>2021-05-02T08:42:54Z</time>
      </trkpt>
      <trkpt lat="49.45131" lon="1.13428">
        <ele>99.8</ele>
        <time>2021-05-02T08:42:55Z</time>
      </trkpt>
      <trkpt lat="49.45133" lon="1.1343">
        <ele>100</ele>
        <time>2021-05-02T08:42:56Z</time>
      </trkpt>
      <trkpt lat="49.45135" lon="1.13432">
        <ele>100.3</ele>
        <time>2021-05-02T08:42:57Z</time>
      </trkpt>
      <trkpt lat="49.4514" lon="1.13435">
        <ele>100.8</ele>
        <time>2021-05-02T08:42:59Z</time>
      </trkpt>
      <trkpt lat="49.45144" lon="1.13435">
        <ele>101</ele>
        <time>2021-05-02T08:43:01Z</time>
      </trkpt>
      <trkpt lat="49.45144" lon="1.13435">
        <ele>101</ele>
        <time>2021-05-02T08:43:02Z</time>
      </trkpt>
      <trkpt lat="49.4515" lon="1.13438">
        <ele>101.3</ele>
        <time>2021-05-02T08:43:05Z</time>
      </trkpt>
      <trkpt lat="49.45152" lon="1.13439">
        <ele>101.4</ele>
        <time>2021-05-02T08:43:07Z</time>
      </trkpt>
      <trkpt lat="49.45153" lon="1.13439">
        <ele>101.4</ele>
        <time>2021-05-02T08:43:08Z</time>
      </trkpt>
      <trkpt lat="49.4516" lon="1.1344">
        <ele>101.5</ele>
        <time>2021-05-02T08:43:10Z</time>
      </trkpt>
      <trkpt lat="49.45163" lon="1.13442">
        <ele>101.5</ele>
        <time>2021-05-02T08:43:12Z</time>
      </trkpt>
      <trkpt lat="49.45165" lon="1.13442">
        <ele>101.5</ele>
        <time>2021-05-02T08:43:14Z</time>
      </trkpt>
      <trkpt lat="49.45166" lon="1.13442">
        <ele>101.5</ele>
        <time>2021-05-02T08:43:15Z</time>
      </trkpt>
      <trkpt lat="49.45167" lon="1.13442">
        <ele>101.5</ele>
        <time>2021-05-02T08:43:16Z</time>
      </trkpt>
      <trkpt lat="49.45168" lon="1.13442">
        <ele>101.5</ele>
        <time>2021-05-02T08:43:18Z</time>
      </trkpt>
      <trkpt lat="49.45169" lon="1.13442">
        <ele>101.5</ele>
        <time>2021-05-02T08:43:19Z</time>
      </trkpt>
      <trkpt lat="49.45169" lon="1.13442">
        <ele>101.5</ele>
        <time>2021-05-02T08:43:20Z</time>
      </trkpt>
      <trkpt lat="49.4524" lon="1.13432">
        <ele>100.6</ele>
        <time>2021-05-02T08:43:44Z</time>
      </trkpt>
      <trkpt lat="49.45249" lon="1.13452">
        <ele>99.9</ele>
        <time>2021-05-02T08:43:46Z</time>
      </trkpt>
      <trkpt lat="49.45251" lon="1.13453">
        <ele>99.8</ele>
        <time>2021-05-02T08:43:47Z</time>
      </trkpt>
      <trkpt lat="49.45253" lon="1.13453">
        <ele>99.8</ele>
        <time>2021-05-02T08:43:48Z</time>
      </trkpt>
      <trkpt lat="49.45275" lon="1.13459">
        <ele>100.6</ele>
        <time>2021-05-02T08:43:49Z</time>
      </trkpt>
      <trkpt lat="49.45277" lon="1.13459">
        <ele>100.8</ele>
        <time>2021-05-02T08:43:51Z</time>
      </trkpt>
      <trkpt lat="49.45282" lon="1.1346">
        <ele>101</ele>
        <time>2021-05-02T08:43:52Z</time>
      </trkpt>
      <trkpt lat="49.45284" lon="1.13461">
        <ele>101.2</ele>
        <time>2021-05-02T08:43:53Z</time>
      </trkpt>
      <trkpt lat="49.45287" lon="1.13461">
        <ele>101.4</ele>
        <time>2021-05-02T08:43:55Z</time>
      </trkpt>
      <trkpt lat="49.4529" lon="1.1346">
        <ele>101.5</ele>
        <time>2021-05-02T08:43:56Z</time>
      </trkpt>
      <trkpt lat="49.45292" lon="1.13459">
        <ele>101.6</ele>
        <time>2021-05-02T08:43:57Z</time>
      </trkpt>
      <trkpt lat="49.45294" lon="1.1346">
        <ele>101.7</ele>
        <time>2021-05-02T08:43:59Z</time>
      </trkpt>
      <trkpt lat="49.45298" lon="1.1346">
        <ele>101.9</ele>
        <time>2021-05-02T08:44:00Z</time>
      </trkpt>
      <trkpt lat="49.45299" lon="1.13461">
        <ele>101.9</ele>
        <time>2021-05-02T08:44:01Z</time>
      </trkpt>
      <trkpt lat="49.45302" lon="1.13465">
        <ele>102.1</ele>
        <time>2021-05-02T08:44:03Z</time>
      </trkpt>
      <trkpt lat="49.45303" lon="1.13467">
        <ele>102.2</ele>
        <time>2021-05-02T08:44:04Z</time>
      </trkpt>
      <trkpt lat="49.45306" lon="1.1347">
        <ele>102.3</ele>
        <time>2021-05-02T08:44:06Z</time>
      </trkpt>
      <trkpt lat="49.45309" lon="1.13473">
        <ele>102.5</ele>
        <time>2021-05-02T08:44:07Z</time>
      </trkpt>
      <trkpt lat="49.45312" lon="1.13474">
        <ele>102.6</ele>
        <time>2021-05-02T08:44:08Z</time>
      </trkpt>
      <trkpt lat="49.45313" lon="1.13475">
        <ele>102.7</ele>
        <time>2021-05-02T08:44:09Z</time>
      </trkpt>
      <trkpt lat="49.45317" lon="1.13477">
        <ele>103</ele>
        <time>2021-05-02T08:44:11Z</time>
      </trkpt>
      <trkpt lat="49.4532" lon="1.13479">
        <ele>103.2</ele>
        <time>2021-05-02T08:44:12Z</time>
      </trkpt>
      <trkpt lat="49.45323" lon="1.13479">
        <ele>103.4</ele>
        <time>2021-05-02T08:44:14Z</time>
      </trkpt>
      <trkpt lat="49.45326" lon="1.1348">
        <ele>103.7</ele>
        <time>2021-05-02T08:44:15Z</time>
      </trkpt>
      <trkpt lat="49.45329" lon="1.13481">
        <ele>103.9</ele>
        <time>2021-05-02T08:44:16Z</time>
      </trkpt>
      <trkpt lat="49.45335" lon="1.13481">
        <ele>104.1</ele>
        <time>2021-05-02T08:44:18Z</time>
      </trkpt>
      <trkpt lat="49.45337" lon="1.1348">
        <ele>104.2</ele>
        <time>2021-05-02T08:44:19Z</time>
      </trkpt>
      <trkpt lat="49.45341" lon="1.13479">
        <ele>104.3</ele>
        <time>2021-05-02T08:44:21Z</time>
      </trkpt>
      <trkpt lat="49.45345" lon="1.13479">
        <ele>104.3</ele>
        <time>2021-05-02T08:44:22Z</time>
      </trkpt>
      <trkpt lat="49.45349" lon="1.13479">
        <ele>104.3</ele>
        <time>2021-05-02T08:44:23Z</time>
      </trkpt>
      <trkpt lat="49.45357" lon="1.13479">
        <ele>104.4</ele>
        <time>2021-05-02T08:44:25Z</time>
      </trkpt>
      <trkpt lat="49.45362" lon="1.13478">
        <ele>104.5</ele>
        <time>2021-05-02T08:44:26Z</time>
      </trkpt>
      <trkpt lat="49.45365" lon="1.13476">
        <ele>104.6</ele>
        <time>2021-05-02T08:44:27Z</time>
      </trkpt>
      <trkpt lat="49.45369" lon="1.13473">
        <ele>104.7</ele>
        <time>2021-05-02T08:44:28Z</time>
      </trkpt>
      <trkpt lat="49.45377" lon="1.13468">
        <ele>104.9</ele>
        <time>2021-05-02T08:44:30Z</time>
      </trkpt>
      <trkpt lat="49.45386" lon="1.13463">
        <ele>105</ele>
        <time>2021-05-02T08:44:31Z</time>
      </trkpt>
      <trkpt lat="49.45398" lon="1.13454">
        <ele>104.7</ele>
        <time>2021-05-02T08:44:33Z</time>
      </trkpt>
      <trkpt lat="49.45403" lon="1.13453">
        <ele>104.6</ele>
        <time>2021-05-02T08:44:34Z</time>
      </trkpt>
      <trkpt lat="49.45408" lon="1.1345">
        <ele>104.4</ele>
        <time>2021-05-02T08:44:35Z</time>
      </trkpt>
      <trkpt lat="49.45414" lon="1.13446">
        <ele>104.2</ele>
        <time>2021-05-02T08:44:36Z</time>
      </trkpt>
      <trkpt lat="49.4542" lon="1.13442">
        <ele>104.1</ele>
        <time>2021-05-02T08:44:38Z</time>
      </trkpt>
      <trkpt lat="49.45425" lon="1.13439">
        <ele>104.1</ele>
        <time>2021-05-02T08:44:39Z</time>
      </trkpt>
      <trkpt lat="49.4543" lon="1.13436">
        <ele>104.3</ele>
        <time>2021-05-02T08:44:41Z</time>
      </trkpt>
      <trkpt lat="49.45433" lon="1.13434">
        <ele>104.4</ele>
        <time>2021-05-02T08:44:42Z</time>
      </trkpt>
      <trkpt lat="49.45438" lon="1.13432">
        <ele>104.7</ele>
        <time>2021-05-02T08:44:44Z</time>
      </trkpt>
      <trkpt lat="49.45442" lon="1.13431">
        <ele>105</ele>
        <time>2021-05-02T08:44:45Z</time>
      </trkpt>
      <trkpt lat="49.45443" lon="1.13431">
        <ele>105.1</ele>
        <time>2021-05-02T08:44:46Z</time>
      </trkpt>
      <trkpt lat="49.45445" lon="1.13432">
        <ele>105.3</ele>
        <time>2021-05-02T08:44:47Z</time>
      </trkpt>
      <trkpt lat="49.45448" lon="1.13433">
        <ele>105.7</ele>
        <time>2021-05-02T08:44:49Z</time>
      </trkpt>
      <trkpt lat="49.45451" lon="1.13434">
        <ele>106.1</ele>
        <time>2021-05-02T08:44:50Z</time>
      </trkpt>
      <trkpt lat="49.45456" lon="1.13435">
        <ele>106.8</ele>
        <time>2021-05-02T08:44:52Z</time>
      </trkpt>
      <trkpt lat="49.45461" lon="1.13435">
        <ele>107.5</ele>
        <time>2021-05-02T08:44:54Z</time>
      </trkpt>
      <trkpt lat="49.45464" lon="1.13434">
        <ele>108.1</ele>
        <time>2021-05-02T08:44:55Z</time>
      </trkpt>
      <trkpt lat="49.45466" lon="1.13434">
        <ele>108.3</ele>
        <time>2021-05-02T08:44:56Z</time>
      </trkpt>
      <trkpt lat="49.45469" lon="1.13434">
        <ele>108.8</ele>
        <time>2021-05-02T08:44:58Z</time>
      </trkpt>
      <trkpt lat="49.45471" lon="1.13434">
        <ele>109</ele>
        <time>2021-05-02T08:44:59Z</time>
      </trkpt>
      <trkpt lat="49.45474" lon="1.13433">
        <ele>109.5</ele>
        <time>2021-05-02T08:45:01Z</time>
      </trkpt>
      <trkpt lat="49.45477" lon="1.13433">
        <ele>109.8</ele>
        <time>2021-05-02T08:45:02Z</time>
      </trkpt>
      <trkpt lat="49.45478" lon="1.13433">
        <ele>109.9</ele>
        <time>2021-05-02T08:45:03Z</time>
      </trkpt>
      <trkpt lat="49.45479" lon="1.13434">
        <ele>110.1</ele>
        <time>2021-05-02T08:45:05Z</time>
      </trkpt>
      <trkpt lat="49.45479" lon="1.13435">
        <ele>110.1</ele>
        <time>2021-05-02T08:45:07Z</time>
      </trkpt>
      <trkpt lat="49.4548" lon="1.13436">
        <ele>110.2</ele>
        <time>2021-05-02T08:45:09Z</time>
      </trkpt>
      <trkpt lat="49.45483" lon="1.13436">
        <ele>110.4</ele>
        <time>2021-05-02T08:45:11Z</time>
      </trkpt>
      <trkpt lat="49.45488" lon="1.13435">
        <ele>110.6</ele>
        <time>2021-05-02T08:45:12Z</time>
      </trkpt>
      <trkpt lat="49.4549" lon="1.13434">
        <ele>110.7</ele>
        <time>2021-05-02T08:45:13Z</time>
      </trkpt>
      <trkpt lat="49.45495" lon="1.1343">
        <ele>110.7</ele>
        <time>2021-05-02T08:45:15Z</time>
      </trkpt>
      <trkpt lat="49.45496" lon="1.13429">
        <ele>110.7</ele>
        <time>2021-05-02T08:45:17Z</time>
      </trkpt>
      <trkpt lat="49.45498" lon="1.13427">
        <ele>110.7</ele>
        <time>2021-05-02T08:45:18Z</time>
      </trkpt>
      <trkpt lat="49.455" lon="1.13426">
        <ele>110.6</ele>
        <time>2021-05-02T08:45:19Z</time>
      </trkpt>
      <trkpt lat="49.45504" lon="1.13424">
        <ele>110.4</ele>
        <time>2021-05-02T08:45:21Z</time>
      </trkpt>
      <trkpt lat="49.45508" lon="1.13424">
        <ele>110.2</ele>
        <time>2021-05-02T08:45:23Z</time>
      </trkpt>
      <trkpt lat="49.45512" lon="1.13423">
        <ele>110</ele>
        <time>2021-05-02T08:45:24Z</time>
      </trkpt>
      <trkpt lat="49.45516" lon="1.13426">
        <ele>109.9</ele>
        <time>2021-05-02T08:45:26Z</time>
      </trkpt>
      <trkpt lat="49.45518" lon="1.13427">
        <ele>109.8</ele>
        <time>2021-05-02T08:45:27Z</time>
      </trkpt>
      <trkpt lat="49.45521" lon="1.13426">
        <ele>109.7</ele>
        <time>2021-05-02T08:45:29Z</time>
      </trkpt>
      <trkpt lat="49.45524" lon="1.13426">
        <ele>109.6</ele>
        <time>2021-05-02T08:45:30Z</time>
      </trkpt>
      <trkpt lat="49.45528" lon="1.13425">
        <ele>109.5</ele>
        <time>2021-05-02T08:45:31Z</time>
      </trkpt>
      <trkpt lat="49.45533" lon="1.13425">
        <ele>109.4</ele>
        <time>2021-05-02T08:45:33Z</time>
      </trkpt>
      <trkpt lat="49.45539" lon="1.13426">
        <ele>109.3</ele>
        <time>2021-05-02T08:45:35Z</time>
      </trkpt>
      <trkpt lat="49.45544" lon="1.13427">
        <ele>109.2</ele>
        <time>2021-05-02T08:45:36Z</time>
      </trkpt>
      <trkpt lat="49.45548" lon="1.13426">
        <ele>109.2</ele>
        <time>2021-05-02T08:45:38Z</time>
      </trkpt>
      <trkpt lat="49.45551" lon="1.13425">
        <ele>109.1</ele>
        <time>2021-05-02T08:45:39Z</time>
      </trkpt>
      <trkpt lat="49.45554" lon="1.13424">
        <ele>109.1</ele>
        <time>2021-05-02T08:45:41Z</time>
      </trkpt>
      <trkpt lat="49.45556" lon="1.13423">
        <ele>109.1</ele>
        <time>2021-05-02T08:45:42Z</time>
      </trkpt>
      <trkpt lat="49.45557" lon="1.13421">
        <ele>109.1</ele>
        <time>2021-05-02T08:45:44Z</time>
      </trkpt>
      <trkpt lat="49.45558" lon="1.13419">
        <ele>109.1</ele>
        <time>2021-05-02T08:45:45Z</time>
      </trkpt>
      <trkpt lat="49.45553" lon="1.13416">
        <ele>108.5</ele>
        <time>2021-05-02T08:45:47Z</time>
      </trkpt>
      <trkpt lat="49.45548" lon="1.13412">
        <ele>107.9</ele>
        <time>2021-05-02T08:45:49Z</time>
      </trkpt>
      <trkpt lat="49.45543" lon="1.13407">
        <ele>107.3</ele>
        <time>2021-05-02T08:45:51Z</time>
      </trkpt>
      <trkpt lat="49.45542" lon="1.13404">
        <ele>107.1</ele>
        <time>2021-05-02T08:45:52Z</time>
      </trkpt>
      <trkpt lat="49.45542" lon="1.13402">
        <ele>107</ele>
        <time>2021-05-02T08:45:53Z</time>
      </trkpt>
      <trkpt lat="49.45542" lon="1.134">
        <ele>106.9</ele>
        <time>2021-05-02T08:45:54Z</time>
      </trkpt>
      <trkpt lat="49.45541" lon="1.13399">
        <ele>106.8</ele>
        <time>2021-05-02T08:45:55Z</time>
      </trkpt>
      <trkpt lat="49.45539" lon="1.13398">
        <ele>106.6</ele>
        <time>2021-05-02T08:45:57Z</time>
      </trkpt>
      <trkpt lat="49.45539" lon="1.13396">
        <ele>106.4</ele>
        <time>2021-05-02T08:45:58Z</time>
      </trkpt>
      <trkpt lat="49.45538" lon="1.13393">
        <ele>106.2</ele>
        <time>2021-05-02T08:46:00Z</time>
      </trkpt>
      <trkpt lat="49.45538" lon="1.13391">
        <ele>106.1</ele>
        <time>2021-05-02T08:46:01Z</time>
      </trkpt>
      <trkpt lat="49.45538" lon="1.13391">
        <ele>106</ele>
        <time>2021-05-02T08:46:02Z</time>
      </trkpt>
      <trkpt lat="49.45534" lon="1.13386">
        <ele>105.5</ele>
        <time>2021-05-02T08:46:04Z</time>
      </trkpt>
      <trkpt lat="49.4553" lon="1.13384">
        <ele>105</ele>
        <time>2021-05-02T08:46:05Z</time>
      </trkpt>
      <trkpt lat="49.45523" lon="1.1338">
        <ele>104.1</ele>
        <time>2021-05-02T08:46:07Z</time>
      </trkpt>
      <trkpt lat="49.45517" lon="1.13377">
        <ele>103.4</ele>
        <time>2021-05-02T08:46:08Z</time>
      </trkpt>
      <trkpt lat="49.45506" lon="1.13368">
        <ele>102</ele>
        <time>2021-05-02T08:46:10Z</time>
      </trkpt>
      <trkpt lat="49.45494" lon="1.13357">
        <ele>101</ele>
        <time>2021-05-02T08:46:11Z</time>
      </trkpt>
      <trkpt lat="49.45488" lon="1.13353">
        <ele>100.8</ele>
        <time>2021-05-02T08:46:13Z</time>
      </trkpt>
      <trkpt lat="49.45486" lon="1.13351">
        <ele>100.7</ele>
        <time>2021-05-02T08:46:14Z</time>
      </trkpt>
      <trkpt lat="49.45485" lon="1.13352">
        <ele>100.6</ele>
        <time>2021-05-02T08:46:15Z</time>
      </trkpt>
      <trkpt lat="49.45485" lon="1.13361">
        <ele>100.4</ele>
        <time>2021-05-02T08:46:17Z</time>
      </trkpt>
      <trkpt lat="49.45485" lon="1.13366">
        <ele>100.3</ele>
        <time>2021-05-02T08:46:18Z</time>
      </trkpt>
      <trkpt lat="49.45484" lon="1.13368">
        <ele>100.2</ele>
        <time>2021-05-02T08:46:19Z</time>
      </trkpt>
      <trkpt lat="49.45485" lon="1.1337">
        <ele>100.3</ele>
        <time>2021-05-02T08:46:20Z</time>
      </trkpt>
      <trkpt lat="49.45489" lon="1.13372">
        <ele>100.6</ele>
        <time>2021-05-02T08:46:21Z</time>
      </trkpt>
      <trkpt lat="49.4549" lon="1.13372">
        <ele>100.7</ele>
        <time>2021-05-02T08:46:22Z</time>
      </trkpt>
      <trkpt lat="49.45493" lon="1.13368">
        <ele>100.9</ele>
        <time>2021-05-02T08:46:24Z</time>
      </trkpt>
      <trkpt lat="49.45497" lon="1.13369">
        <ele>101.2</ele>
        <time>2021-05-02T08:46:25Z</time>
      </trkpt>
      <trkpt lat="49.455" lon="1.1337">
        <ele>101.4</ele>
        <time>2021-05-02T08:46:26Z</time>
      </trkpt>
      <trkpt lat="49.45503" lon="1.13373">
        <ele>101.8</ele>
        <time>2021-05-02T08:46:28Z</time>
      </trkpt>
      <trkpt lat="49.45507" lon="1.13377">
        <ele>102.3</ele>
        <time>2021-05-02T08:46:29Z</time>
      </trkpt>
      <trkpt lat="49.45508" lon="1.13378">
        <ele>102.5</ele>
        <time>2021-05-02T08:46:30Z</time>
      </trkpt>
      <trkpt lat="49.45513" lon="1.13381">
        <ele>103.2</ele>
        <time>2021-05-02T08:46:32Z</time>
      </trkpt>
      <trkpt lat="49.45517" lon="1.13383">
        <ele>103.7</ele>
        <time>2021-05-02T08:46:34Z</time>
      </trkpt>
      <trkpt lat="49.4552" lon="1.13384">
        <ele>104.1</ele>
        <time>2021-05-02T08:46:35Z</time>
      </trkpt>
      <trkpt lat="49.45524" lon="1.13387">
        <ele>104.6</ele>
        <time>2021-05-02T08:46:37Z</time>
      </trkpt>
      <trkpt lat="49.45527" lon="1.13389">
        <ele>105.1</ele>
        <time>2021-05-02T08:46:39Z</time>
      </trkpt>
      <trkpt lat="49.45528" lon="1.1339">
        <ele>105.2</ele>
        <time>2021-05-02T08:46:40Z</time>
      </trkpt>
      <trkpt lat="49.4553" lon="1.13392">
        <ele>105.4</ele>
        <time>2021-05-02T08:46:41Z</time>
      </trkpt>
      <trkpt lat="49.45533" lon="1.13395">
        <ele>105.8</ele>
        <time>2021-05-02T08:46:43Z</time>
      </trkpt>
      <trkpt lat="49.45535" lon="1.13398">
        <ele>106.2</ele>
        <time>2021-05-02T08:46:44Z</time>
      </trkpt>
      <trkpt lat="49.45537" lon="1.13401">
        <ele>106.6</ele>
        <time>2021-05-02T08:46:45Z</time>
      </trkpt>
      <trkpt lat="49.45541" lon="1.13404">
        <ele>107</ele>
        <time>2021-05-02T08:46:46Z</time>
      </trkpt>
      <trkpt lat="49.45542" lon="1.13405">
        <ele>107.1</ele>
        <time>2021-05-02T08:46:47Z</time>
      </trkpt>
      <trkpt lat="49.45547" lon="1.13409">
        <ele>107.8</ele>
        <time>2021-05-02T08:46:49Z</time>
      </trkpt>
      <trkpt lat="49.45551" lon="1.13411">
        <ele>108.3</ele>
        <time>2021-05-02T08:46:50Z</time>
      </trkpt>
      <trkpt lat="49.45554" lon="1.13416">
        <ele>108.8</ele>
        <time>2021-05-02T08:46:52Z</time>
      </trkpt>
      <trkpt lat="49.45556" lon="1.13418">
        <ele>109.1</ele>
        <time>2021-05-02T08:46:53Z</time>
      </trkpt>
      <trkpt lat="49.45557" lon="1.1342">
        <ele>109.2</ele>
        <time>2021-05-02T08:46:55Z</time>
      </trkpt>
      <trkpt lat="49.4556" lon="1.13422">
        <ele>109.4</ele>
        <time>2021-05-02T08:46:56Z</time>
      </trkpt>
      <trkpt lat="49.45561" lon="1.13423">
        <ele>109.4</ele>
        <time>2021-05-02T08:46:57Z</time>
      </trkpt>
      <trkpt lat="49.45565" lon="1.13426">
        <ele>109.7</ele>
        <time>2021-05-02T08:46:59Z</time>
      </trkpt>
      <trkpt lat="49.45566" lon="1.13427">
        <ele>109.7</ele>
        <time>2021-05-02T08:47:00Z</time>
      </trkpt>
      <trkpt lat="49.45567" lon="1.13427">
        <ele>109.8</ele>
        <time>2021-05-02T08:47:01Z</time>
      </trkpt>
      <trkpt lat="49.45572" lon="1.1343">
        <ele>110.2</ele>
        <time>2021-05-02T08:47:03Z</time>
      </trkpt>
      <trkpt lat="49.45574" lon="1.13433">
        <ele>110.4</ele>
        <time>2021-05-02T08:47:04Z</time>
      </trkpt>
      <trkpt lat="49.45576" lon="1.13435">
        <ele>110.6</ele>
        <time>2021-05-02T08:47:06Z</time>
      </trkpt>
      <trkpt lat="49.45579" lon="1.13436">
        <ele>110.8</ele>
        <time>2021-05-02T08:47:07Z</time>
      </trkpt>
      <trkpt lat="49.45582" lon="1.13437">
        <ele>111</ele>
        <time>2021-05-02T08:47:09Z</time>
      </trkpt>
      <trkpt lat="49.45584" lon="1.13438">
        <ele>111.2</ele>
        <time>2021-05-02T08:47:10Z</time>
      </trkpt>
      <trkpt lat="49.45585" lon="1.13439">
        <ele>111.3</ele>
        <time>2021-05-02T08:47:11Z</time>
      </trkpt>
      <trkpt lat="49.45589" lon="1.13442">
        <ele>111.6</ele>
        <time>2021-05-02T08:47:13Z</time>
      </trkpt>
      <trkpt lat="49.45592" lon="1.13446">
        <ele>111.9</ele>
        <time>2021-05-02T08:47:14Z</time>
      </trkpt>
      <trkpt lat="49.45594" lon="1.1345">
        <ele>112.1</ele>
        <time>2021-05-02T08:47:16Z</time>
      </trkpt>
      <trkpt lat="49.45596" lon="1.13455">
        <ele>112.4</ele>
        <time>2021-05-02T08:47:17Z</time>
      </trkpt>
      <trkpt lat="49.456" lon="1.13461">
        <ele>112.7</ele>
        <time>2021-05-02T08:47:19Z</time>
      </trkpt>
      <trkpt lat="49.45602" lon="1.13471">
        <ele>113.1</ele>
        <time>2021-05-02T08:47:20Z</time>
      </trkpt>
      <trkpt lat="49.45603" lon="1.13474">
        <ele>113.2</ele>
        <time>2021-05-02T08:47:21Z</time>
      </trkpt>
      <trkpt lat="49.45604" lon="1.13477">
        <ele>113.2</ele>
        <time>2021-05-02T08:47:23Z</time>
      </trkpt>
      <trkpt lat="49.45604" lon="1.13477">
        <ele>113.2</ele>
        <time>2021-05-02T08:47:24Z</time>
      </trkpt>
      <trkpt lat="49.45603" lon="1.13477">
        <ele>113.2</ele>
        <time>2021-05-02T08:47:25Z</time>
      </trkpt>
      <trkpt lat="49.45603" lon="1.13477">
        <ele>113.1</ele>
        <time>2021-05-02T08:47:26Z</time>
      </trkpt>
      <trkpt lat="49.45603" lon="1.13476">
        <ele>113</ele>
        <time>2021-05-02T08:47:28Z</time>
      </trkpt>
      <trkpt lat="49.45601" lon="1.13471">
        <ele>112.3</ele>
        <time>2021-05-02T08:47:31Z</time>
      </trkpt>
      <trkpt lat="49.45599" lon="1.13469">
        <ele>112</ele>
        <time>2021-05-02T08:47:32Z</time>
      </trkpt>
      <trkpt lat="49.45598" lon="1.13465">
        <ele>111.4</ele>
        <time>2021-05-02T08:47:34Z</time>
      </trkpt>
      <trkpt lat="49.45596" lon="1.1346">
        <ele>110.9</ele>
        <time>2021-05-02T08:47:35Z</time>
      </trkpt>
      <trkpt lat="49.45595" lon="1.13459">
        <ele>110.6</ele>
        <time>2021-05-02T08:47:36Z</time>
      </trkpt>
      <trkpt lat="49.45593" lon="1.13455">
        <ele>110.1</ele>
        <time>2021-05-02T08:47:37Z</time>
      </trkpt>
      <trkpt lat="49.4559" lon="1.13449">
        <ele>109.3</ele>
        <time>2021-05-02T08:47:38Z</time>
      </trkpt>
      <trkpt lat="49.45587" lon="1.13444">
        <ele>108.4</ele>
        <time>2021-05-02T08:47:39Z</time>
      </trkpt>
      <trkpt lat="49.45582" lon="1.13434">
        <ele>106.9</ele>
        <time>2021-05-02T08:47:40Z</time>
      </trkpt>
      <trkpt lat="49.45577" lon="1.13426">
        <ele>105.6</ele>
        <time>2021-05-02T08:47:42Z</time>
      </trkpt>
      <trkpt lat="49.45572" lon="1.13417">
        <ele>104.4</ele>
        <time>2021-05-02T08:47:43Z</time>
      </trkpt>
      <trkpt lat="49.45568" lon="1.13405">
        <ele>103</ele>
        <time>2021-05-02T08:47:44Z</time>
      </trkpt>
      <trkpt lat="49.45562" lon="1.1339">
        <ele>101.2</ele>
        <time>2021-05-02T08:47:45Z</time>
      </trkpt>
      <trkpt lat="49.45555" lon="1.13374">
        <ele>99.5</ele>
        <time>2021-05-02T08:47:47Z</time>
      </trkpt>
      <trkpt lat="49.45552" lon="1.13367">
        <ele>98.7</ele>
        <time>2021-05-02T08:47:48Z</time>
      </trkpt>
      <trkpt lat="49.4555" lon="1.13361">
        <ele>98.1</ele>
        <time>2021-05-02T08:47:50Z</time>
      </trkpt>
      <trkpt lat="49.45551" lon="1.13358">
        <ele>98.6</ele>
        <time>2021-05-02T08:47:51Z</time>
      </trkpt>
      <trkpt lat="49.45551" lon="1.13357">
        <ele>99.4</ele>
        <time>2021-05-02T08:47:52Z</time>
      </trkpt>
      <trkpt lat="49.45552" lon="1.13359">
        <ele>100.7</ele>
        <time>2021-05-02T08:47:54Z</time>
      </trkpt>
      <trkpt lat="49.4555" lon="1.13365">
        <ele>101.4</ele>
        <time>2021-05-02T08:47:56Z</time>
      </trkpt>
      <trkpt lat="49.4555" lon="1.13363">
        <ele>102.2</ele>
        <time>2021-05-02T08:47:58Z</time>
      </trkpt>
      <trkpt lat="49.45552" lon="1.1336">
        <ele>102.7</ele>
        <time>2021-05-02T08:47:59Z</time>
      </trkpt>
      <trkpt lat="49.45554" lon="1.1335">
        <ele>103.5</ele>
        <time>2021-05-02T08:48:01Z</time>
      </trkpt>
      <trkpt lat="49.45554" lon="1.13345">
        <ele>104.2</ele>
        <time>2021-05-02T08:48:02Z</time>
      </trkpt>
      <trkpt lat="49.45556" lon="1.1334">
        <ele>105.5</ele>
        <time>2021-05-02T08:48:04Z</time>
      </trkpt>
      <trkpt lat="49.45557" lon="1.13336">
        <ele>106.3</ele>
        <time>2021-05-02T08:48:06Z</time>
      </trkpt>
      <trkpt lat="49.45558" lon="1.1333">
        <ele>107.7</ele>
        <time>2021-05-02T08:48:07Z</time>
      </trkpt>
      <trkpt lat="49.45558" lon="1.13325">
        <ele>108.6</ele>
        <time>2021-05-02T08:48:08Z</time>
      </trkpt>
      <trkpt lat="49.45554" lon="1.13312">
        <ele>108.4</ele>
        <time>2021-05-02T08:48:11Z</time>
      </trkpt>
      <trkpt lat="49.45553" lon="1.13307">
        <ele>108.1</ele>
        <time>2021-05-02T08:48:13Z</time>
      </trkpt>
      <trkpt lat="49.45552" lon="1.13304">
        <ele>107.9</ele>
        <time>2021-05-02T08:48:14Z</time>
      </trkpt>
      <trkpt lat="49.45549" lon="1.133">
        <ele>107.6</ele>
        <time>2021-05-02T08:48:16Z</time>
      </trkpt>
      <trkpt lat="49.45548" lon="1.13299">
        <ele>107.5</ele>
        <time>2021-05-02T08:48:17Z</time>
      </trkpt>
      <trkpt lat="49.45548" lon="1.13297">
        <ele>107.3</ele>
        <time>2021-05-02T08:48:18Z</time>
      </trkpt>
      <trkpt lat="49.45546" lon="1.13294">
        <ele>107.1</ele>
        <time>2021-05-02T08:48:19Z</time>
      </trkpt>
      <trkpt lat="49.45544" lon="1.13286">
        <ele>106.6</ele>
        <time>2021-05-02T08:48:21Z</time>
      </trkpt>
      <trkpt lat="49.4554" lon="1.13277">
        <ele>106.1</ele>
        <time>2021-05-02T08:48:23Z</time>
      </trkpt>
      <trkpt lat="49.45539" lon="1.13264">
        <ele>105.4</ele>
        <time>2021-05-02T08:48:25Z</time>
      </trkpt>
      <trkpt lat="49.45538" lon="1.13254">
        <ele>105</ele>
        <time>2021-05-02T08:48:26Z</time>
      </trkpt>
      <trkpt lat="49.45536" lon="1.13243">
        <ele>104.6</ele>
        <time>2021-05-02T08:48:27Z</time>
      </trkpt>
      <trkpt lat="49.45536" lon="1.13237">
        <ele>104.3</ele>
        <time>2021-05-02T08:48:28Z</time>
      </trkpt>
      <trkpt lat="49.45535" lon="1.1323">
        <ele>104.1</ele>
        <time>2021-05-02T08:48:30Z</time>
      </trkpt>
      <trkpt lat="49.45534" lon="1.13221">
        <ele>103.8</ele>
        <time>2021-05-02T08:48:32Z</time>
      </trkpt>
      <trkpt lat="49.45534" lon="1.13221">
        <ele>103.8</ele>
        <time>2021-05-02T08:48:33Z</time>
      </trkpt>
      <trkpt lat="49.45533" lon="1.13219">
        <ele>103.7</ele>
        <time>2021-05-02T08:48:34Z</time>
      </trkpt>
      <trkpt lat="49.45531" lon="1.13215">
        <ele>103.5</ele>
        <time>2021-05-02T08:48:36Z</time>
      </trkpt>
      <trkpt lat="49.4553" lon="1.13212">
        <ele>103.4</ele>
        <time>2021-05-02T08:48:37Z</time>
      </trkpt>
      <trkpt lat="49.45527" lon="1.13209">
        <ele>103.3</ele>
        <time>2021-05-02T08:48:39Z</time>
      </trkpt>
      <trkpt lat="49.45524" lon="1.13206">
        <ele>103.1</ele>
        <time>2021-05-02T08:48:40Z</time>
      </trkpt>
      <trkpt lat="49.45523" lon="1.13205">
        <ele>103.1</ele>
        <time>2021-05-02T08:48:41Z</time>
      </trkpt>
      <trkpt lat="49.45515" lon="1.132">
        <ele>102.7</ele>
        <time>2021-05-02T08:48:43Z</time>
      </trkpt>
      <trkpt lat="49.45512" lon="1.132">
        <ele>102.5</ele>
        <time>2021-05-02T08:48:44Z</time>
      </trkpt>
      <trkpt lat="49.45506" lon="1.13196">
        <ele>102.2</ele>
        <time>2021-05-02T08:48:46Z</time>
      </trkpt>
      <trkpt lat="49.45501" lon="1.13193">
        <ele>102</ele>
        <time>2021-05-02T08:48:48Z</time>
      </trkpt>
      <trkpt lat="49.45499" lon="1.1319">
        <ele>101.8</ele>
        <time>2021-05-02T08:48:49Z</time>
      </trkpt>
      <trkpt lat="49.45496" lon="1.13188">
        <ele>101.7</ele>
        <time>2021-05-02T08:48:50Z</time>
      </trkpt>
      <trkpt lat="49.45494" lon="1.13187">
        <ele>101.6</ele>
        <time>2021-05-02T08:48:51Z</time>
      </trkpt>
      <trkpt lat="49.4549" lon="1.13186">
        <ele>101.4</ele>
        <time>2021-05-02T08:48:53Z</time>
      </trkpt>
      <trkpt lat="49.45486" lon="1.13186">
        <ele>101.1</ele>
        <time>2021-05-02T08:48:55Z</time>
      </trkpt>
      <trkpt lat="49.45483" lon="1.13185">
        <ele>100.9</ele>
        <time>2021-05-02T08:48:56Z</time>
      </trkpt>
      <trkpt lat="49.45477" lon="1.13183">
        <ele>100.6</ele>
        <time>2021-05-02T08:48:58Z</time>
      </trkpt>
      <trkpt lat="49.45468" lon="1.13174">
        <ele>100</ele>
        <time>2021-05-02T08:49:00Z</time>
      </trkpt>
      <trkpt lat="49.45461" lon="1.13169">
        <ele>99.6</ele>
        <time>2021-05-02T08:49:02Z</time>
      </trkpt>
      <trkpt lat="49.45455" lon="1.13167">
        <ele>99.3</ele>
        <time>2021-05-02T08:49:04Z</time>
      </trkpt>
      <trkpt lat="49.45451" lon="1.13164">
        <ele>99.1</ele>
        <time>2021-05-02T08:49:05Z</time>
      </trkpt>
      <trkpt lat="49.45449" lon="1.13162">
        <ele>99</ele>
        <time>2021-05-02T08:49:06Z</time>
      </trkpt>
      <trkpt lat="49.45445" lon="1.13158">
        <ele>98.8</ele>
        <time>2021-05-02T08:49:08Z</time>
      </trkpt>
      <trkpt lat="49.45444" lon="1.13157">
        <ele>98.7</ele>
        <time>2021-05-02T08:49:09Z</time>
      </trkpt>
      <trkpt lat="49.45442" lon="1.13155">
        <ele>98.7</ele>
        <time>2021-05-02T08:49:11Z</time>
      </trkpt>
      <trkpt lat="49.45442" lon="1.13155">
        <ele>98.7</ele>
        <time>2021-05-02T08:49:13Z</time>
      </trkpt>
      <trkpt lat="49.4544" lon="1.13154">
        <ele>98.6</ele>
        <time>2021-05-02T08:49:14Z</time>
      </trkpt>
      <trkpt lat="49.45432" lon="1.1315">
        <ele>98.2</ele>
        <time>2021-05-02T08:49:16Z</time>
      </trkpt>
      <trkpt lat="49.45428" lon="1.13148">
        <ele>98</ele>
        <time>2021-05-02T08:49:18Z</time>
      </trkpt>
      <trkpt lat="49.45427" lon="1.13148">
        <ele>98</ele>
        <time>2021-05-02T08:49:19Z</time>
      </trkpt>
      <trkpt lat="49.45425" lon="1.13147">
        <ele>97.9</ele>
        <time>2021-05-02T08:49:21Z</time>
      </trkpt>
      <trkpt lat="49.45423" lon="1.13147">
        <ele>97.8</ele>
        <time>2021-05-02T08:49:22Z</time>
      </trkpt>
      <trkpt lat="49.45412" lon="1.13143">
        <ele>97.3</ele>
        <time>2021-05-02T08:49:24Z</time>
      </trkpt>
      <trkpt lat="49.45396" lon="1.13136">
        <ele>96.5</ele>
        <time>2021-05-02T08:49:26Z</time>
      </trkpt>
      <trkpt lat="49.45389" lon="1.13133">
        <ele>96.2</ele>
        <time>2021-05-02T08:49:27Z</time>
      </trkpt>
      <trkpt lat="49.45381" lon="1.13129">
        <ele>95.8</ele>
        <time>2021-05-02T08:49:29Z</time>
      </trkpt>
      <trkpt lat="49.45378" lon="1.13127">
        <ele>95.7</ele>
        <time>2021-05-02T08:49:31Z</time>
      </trkpt>
      <trkpt lat="49.45376" lon="1.13126">
        <ele>95.7</ele>
        <time>2021-05-02T08:49:32Z</time>
      </trkpt>
      <trkpt lat="49.45374" lon="1.13123">
        <ele>95.6</ele>
        <time>2021-05-02T08:49:34Z</time>
      </trkpt>
      <trkpt lat="49.45371" lon="1.13121">
        <ele>95.4</ele>
        <time>2021-05-02T08:49:35Z</time>
      </trkpt>
      <trkpt lat="49.45366" lon="1.13115">
        <ele>95.2</ele>
        <time>2021-05-02T08:49:37Z</time>
      </trkpt>
      <trkpt lat="49.45363" lon="1.13113">
        <ele>95.1</ele>
        <time>2021-05-02T08:49:38Z</time>
      </trkpt>
      <trkpt lat="49.4536" lon="1.13108">
        <ele>94.9</ele>
        <time>2021-05-02T08:49:40Z</time>
      </trkpt>
      <trkpt lat="49.45359" lon="1.13106">
        <ele>94.9</ele>
        <time>2021-05-02T08:49:41Z</time>
      </trkpt>
      <trkpt lat="49.45358" lon="1.13104">
        <ele>94.8</ele>
        <time>2021-05-02T08:49:43Z</time>
      </trkpt>
      <trkpt lat="49.45358" lon="1.13103">
        <ele>94.8</ele>
        <time>2021-05-02T08:49:45Z</time>
      </trkpt>
      <trkpt lat="49.45355" lon="1.13102">
        <ele>94.7</ele>
        <time>2021-05-02T08:49:47Z</time>
      </trkpt>
      <trkpt lat="49.45352" lon="1.13102">
        <ele>94.7</ele>
        <time>2021-05-02T08:49:48Z</time>
      </trkpt>
      <trkpt lat="49.45348" lon="1.131">
        <ele>94.6</ele>
        <time>2021-05-02T08:49:50Z</time>
      </trkpt>
      <trkpt lat="49.45345" lon="1.13099">
        <ele>94.5</ele>
        <time>2021-05-02T08:49:51Z</time>
      </trkpt>
      <trkpt lat="49.45339" lon="1.13095">
        <ele>94.4</ele>
        <time>2021-05-02T08:49:53Z</time>
      </trkpt>
      <trkpt lat="49.45335" lon="1.13093">
        <ele>94.5</ele>
        <time>2021-05-02T08:49:55Z</time>
      </trkpt>
      <trkpt lat="49.45331" lon="1.13092">
        <ele>99.3</ele>
        <time>2021-05-02T08:49:57Z</time>
      </trkpt>
      <trkpt lat="49.45326" lon="1.1309">
        <ele>107.9</ele>
        <time>2021-05-02T08:49:59Z</time>
      </trkpt>
      <trkpt lat="49.45319" lon="1.13086">
        <ele>108.4</ele>
        <time>2021-05-02T08:50:01Z</time>
      </trkpt>
      <trkpt lat="49.45315" lon="1.13087">
        <ele>108.6</ele>
        <time>2021-05-02T08:50:03Z</time>
      </trkpt>
      <trkpt lat="49.4531" lon="1.1309">
        <ele>108.9</ele>
        <time>2021-05-02T08:50:05Z</time>
      </trkpt>
      <trkpt lat="49.45306" lon="1.13093">
        <ele>109.1</ele>
        <time>2021-05-02T08:50:07Z</time>
      </trkpt>
      <trkpt lat="49.45306" lon="1.13094">
        <ele>109.1</ele>
        <time>2021-05-02T08:50:08Z</time>
      </trkpt>
      <trkpt lat="49.45306" lon="1.13095">
        <ele>109.2</ele>
        <time>2021-05-02T08:50:10Z</time>
      </trkpt>
      <trkpt lat="49.45303" lon="1.13093">
        <ele>109.3</ele>
        <time>2021-05-02T08:50:11Z</time>
      </trkpt>
      <trkpt lat="49.45294" lon="1.1309">
        <ele>109.8</ele>
        <time>2021-05-02T08:50:13Z</time>
      </trkpt>
      <trkpt lat="49.45291" lon="1.13088">
        <ele>109.9</ele>
        <time>2021-05-02T08:50:15Z</time>
      </trkpt>
      <trkpt lat="49.45289" lon="1.13087">
        <ele>110</ele>
        <time>2021-05-02T08:50:16Z</time>
      </trkpt>
      <trkpt lat="49.45288" lon="1.13087">
        <ele>110</ele>
        <time>2021-05-02T08:50:17Z</time>
      </trkpt>
      <trkpt lat="49.45288" lon="1.13082">
        <ele>110.2</ele>
        <time>2021-05-02T08:50:19Z</time>
      </trkpt>
      <trkpt lat="49.45287" lon="1.13081">
        <ele>110.2</ele>
        <time>2021-05-02T08:50:20Z</time>
      </trkpt>
      <trkpt lat="49.45288" lon="1.13078">
        <ele>110.5</ele>
        <time>2021-05-02T08:50:21Z</time>
      </trkpt>
      <trkpt lat="49.4529" lon="1.13075">
        <ele>110.8</ele>
        <time>2021-05-02T08:50:23Z</time>
      </trkpt>
      <trkpt lat="49.45291" lon="1.13073">
        <ele>111</ele>
        <time>2021-05-02T08:50:24Z</time>
      </trkpt>
      <trkpt lat="49.45295" lon="1.13069">
        <ele>111.5</ele>
        <time>2021-05-02T08:50:26Z</time>
      </trkpt>
      <trkpt lat="49.45299" lon="1.13066">
        <ele>112</ele>
        <time>2021-05-02T08:50:27Z</time>
      </trkpt>
      <trkpt lat="49.45303" lon="1.13062">
        <ele>112.4</ele>
        <time>2021-05-02T08:50:29Z</time>
      </trkpt>
      <trkpt lat="49.45307" lon="1.13057">
        <ele>112.6</ele>
        <time>2021-05-02T08:50:30Z</time>
      </trkpt>
      <trkpt lat="49.45309" lon="1.13053">
        <ele>112.8</ele>
        <time>2021-05-02T08:50:31Z</time>
      </trkpt>
      <trkpt lat="49.45311" lon="1.13049">
        <ele>113</ele>
        <time>2021-05-02T08:50:32Z</time>
      </trkpt>
      <trkpt lat="49.45314" lon="1.13041">
        <ele>113.3</ele>
        <time>2021-05-02T08:50:34Z</time>
      </trkpt>
      <trkpt lat="49.45316" lon="1.13035">
        <ele>113.6</ele>
        <time>2021-05-02T08:50:35Z</time>
      </trkpt>
      <trkpt lat="49.45318" lon="1.1303">
        <ele>113.9</ele>
        <time>2021-05-02T08:50:37Z</time>
      </trkpt>
      <trkpt lat="49.4532" lon="1.13025">
        <ele>114.3</ele>
        <time>2021-05-02T08:50:38Z</time>
      </trkpt>
      <trkpt lat="49.45322" lon="1.13019">
        <ele>114.8</ele>
        <time>2021-05-02T08:50:40Z</time>
      </trkpt>
      <trkpt lat="49.45325" lon="1.13013">
        <ele>115.2</ele>
        <time>2021-05-02T08:50:41Z</time>
      </trkpt>
      <trkpt lat="49.45327" lon="1.1301">
        <ele>115.5</ele>
        <time>2021-05-02T08:50:42Z</time>
      </trkpt>
      <trkpt lat="49.45329" lon="1.13003">
        <ele>116</ele>
        <time>2021-05-02T08:50:44Z</time>
      </trkpt>
      <trkpt lat="49.45331" lon="1.13">
        <ele>116.3</ele>
        <time>2021-05-02T08:50:45Z</time>
      </trkpt>
      <trkpt lat="49.45332" lon="1.12997">
        <ele>116.5</ele>
        <time>2021-05-02T08:50:46Z</time>
      </trkpt>
      <trkpt lat="49.45335" lon="1.12993">
        <ele>116.9</ele>
        <time>2021-05-02T08:50:48Z</time>
      </trkpt>
      <trkpt lat="49.45337" lon="1.1299">
        <ele>117.2</ele>
        <time>2021-05-02T08:50:49Z</time>
      </trkpt>
      <trkpt lat="49.45338" lon="1.12989">
        <ele>117.3</ele>
        <time>2021-05-02T08:50:50Z</time>
      </trkpt>
      <trkpt lat="49.45341" lon="1.12986">
        <ele>117.7</ele>
        <time>2021-05-02T08:50:52Z</time>
      </trkpt>
      <trkpt lat="49.45343" lon="1.12983">
        <ele>118</ele>
        <time>2021-05-02T08:50:53Z</time>
      </trkpt>
      <trkpt lat="49.45345" lon="1.12979">
        <ele>118.3</ele>
        <time>2021-05-02T08:50:55Z</time>
      </trkpt>
      <trkpt lat="49.45347" lon="1.12975">
        <ele>118.6</ele>
        <time>2021-05-02T08:50:56Z</time>
      </trkpt>
      <trkpt lat="49.45348" lon="1.1297">
        <ele>119</ele>
        <time>2021-05-02T08:50:58Z</time>
      </trkpt>
      <trkpt lat="49.45349" lon="1.12967">
        <ele>119.2</ele>
        <time>2021-05-02T08:50:59Z</time>
      </trkpt>
      <trkpt lat="49.45349" lon="1.1296">
        <ele>119.6</ele>
        <time>2021-05-02T08:51:01Z</time>
      </trkpt>
      <trkpt lat="49.45349" lon="1.12956">
        <ele>119.9</ele>
        <time>2021-05-02T08:51:02Z</time>
      </trkpt>
      <trkpt lat="49.45348" lon="1.1295">
        <ele>120.3</ele>
        <time>2021-05-02T08:51:04Z</time>
      </trkpt>
      <trkpt lat="49.45348" lon="1.12948">
        <ele>120.5</ele>
        <time>2021-05-02T08:51:05Z</time>
      </trkpt>
      <trkpt lat="49.45347" lon="1.12945">
        <ele>120.7</ele>
        <time>2021-05-02T08:51:06Z</time>
      </trkpt>
      <trkpt lat="49.45346" lon="1.12943">
        <ele>120.8</ele>
        <time>2021-05-02T08:51:07Z</time>
      </trkpt>
      <trkpt lat="49.45344" lon="1.1294">
        <ele>122.4</ele>
        <time>2021-05-02T08:51:09Z</time>
      </trkpt>
      <trkpt lat="49.45344" lon="1.12938">
        <ele>122.4</ele>
        <time>2021-05-02T08:51:10Z</time>
      </trkpt>
      <trkpt lat="49.45343" lon="1.12937">
        <ele>122.4</ele>
        <time>2021-05-02T08:51:12Z</time>
      </trkpt>
      <trkpt lat="49.45342" lon="1.12937">
        <ele>122.4</ele>
        <time>2021-05-02T08:51:13Z</time>
      </trkpt>
      <trkpt lat="49.4534" lon="1.12936">
        <ele>122.4</ele>
        <time>2021-05-02T08:51:14Z</time>
      </trkpt>
      <trkpt lat="49.45339" lon="1.12935">
        <ele>122.4</ele>
        <time>2021-05-02T08:51:15Z</time>
      </trkpt>
      <trkpt lat="49.45336" lon="1.12937">
        <ele>122.4</ele>
        <time>2021-05-02T08:51:17Z</time>
      </trkpt>
      <trkpt lat="49.45335" lon="1.12937">
        <ele>122.4</ele>
        <time>2021-05-02T08:51:18Z</time>
      </trkpt>
      <trkpt lat="49.45332" lon="1.12938">
        <ele>122.6</ele>
        <time>2021-05-02T08:51:19Z</time>
      </trkpt>
      <trkpt lat="49.45329" lon="1.1294">
        <ele>122.9</ele>
        <time>2021-05-02T08:51:20Z</time>
      </trkpt>
      <trkpt lat="49.45325" lon="1.12942">
        <ele>123.2</ele>
        <time>2021-05-02T08:51:22Z</time>
      </trkpt>
      <trkpt lat="49.45322" lon="1.12944">
        <ele>123.5</ele>
        <time>2021-05-02T08:51:23Z</time>
      </trkpt>
      <trkpt lat="49.45319" lon="1.12946">
        <ele>123.7</ele>
        <time>2021-05-02T08:51:24Z</time>
      </trkpt>
      <trkpt lat="49.45316" lon="1.12948">
        <ele>124</ele>
        <time>2021-05-02T08:51:25Z</time>
      </trkpt>
      <trkpt lat="49.45313" lon="1.12951">
        <ele>124.3</ele>
        <time>2021-05-02T08:51:26Z</time>
      </trkpt>
      <trkpt lat="49.45309" lon="1.12955">
        <ele>124.6</ele>
        <time>2021-05-02T08:51:28Z</time>
      </trkpt>
      <trkpt lat="49.45305" lon="1.12958">
        <ele>125</ele>
        <time>2021-05-02T08:51:29Z</time>
      </trkpt>
      <trkpt lat="49.45302" lon="1.12959">
        <ele>125.3</ele>
        <time>2021-05-02T08:51:30Z</time>
      </trkpt>
      <trkpt lat="49.45298" lon="1.12959">
        <ele>125.6</ele>
        <time>2021-05-02T08:51:31Z</time>
      </trkpt>
      <trkpt lat="49.45294" lon="1.12959">
        <ele>125.9</ele>
        <time>2021-05-02T08:51:33Z</time>
      </trkpt>
      <trkpt lat="49.4529" lon="1.12957">
        <ele>126.2</ele>
        <time>2021-05-02T08:51:34Z</time>
      </trkpt>
      <trkpt lat="49.45288" lon="1.12954">
        <ele>126.5</ele>
        <time>2021-05-02T08:51:35Z</time>
      </trkpt>
      <trkpt lat="49.45285" lon="1.12951">
        <ele>126.8</ele>
        <time>2021-05-02T08:51:37Z</time>
      </trkpt>
      <trkpt lat="49.45282" lon="1.12947">
        <ele>127.1</ele>
        <time>2021-05-02T08:51:38Z</time>
      </trkpt>
      <trkpt lat="49.45282" lon="1.12945">
        <ele>127.2</ele>
        <time>2021-05-02T08:51:39Z</time>
      </trkpt>
      <trkpt lat="49.4528" lon="1.12941">
        <ele>127.5</ele>
        <time>2021-05-02T08:51:40Z</time>
      </trkpt>
      <trkpt lat="49.45279" lon="1.12939">
        <ele>127.6</ele>
        <time>2021-05-02T08:51:41Z</time>
      </trkpt>
      <trkpt lat="49.45277" lon="1.12935">
        <ele>127.9</ele>
        <time>2021-05-02T08:51:43Z</time>
      </trkpt>
      <trkpt lat="49.45275" lon="1.12932">
        <ele>128.1</ele>
        <time>2021-05-02T08:51:44Z</time>
      </trkpt>
      <trkpt lat="49.45272" lon="1.12927">
        <ele>128.4</ele>
        <time>2021-05-02T08:51:46Z</time>
      </trkpt>
      <trkpt lat="49.4527" lon="1.12924">
        <ele>128.6</ele>
        <time>2021-05-02T08:51:48Z</time>
      </trkpt>
      <trkpt lat="49.45269" lon="1.12921">
        <ele>128.9</ele>
        <time>2021-05-02T08:51:49Z</time>
      </trkpt>
      <trkpt lat="49.45266" lon="1.12918">
        <ele>129.2</ele>
        <time>2021-05-02T08:51:51Z</time>
      </trkpt>
      <trkpt lat="49.45264" lon="1.12914">
        <ele>129.5</ele>
        <time>2021-05-02T08:51:53Z</time>
      </trkpt>
      <trkpt lat="49.45263" lon="1.12911">
        <ele>129.7</ele>
        <time>2021-05-02T08:51:54Z</time>
      </trkpt>
      <trkpt lat="49.4526" lon="1.12908">
        <ele>130</ele>
        <time>2021-05-02T08:51:56Z</time>
      </trkpt>
      <trkpt lat="49.45256" lon="1.12907">
        <ele>130.3</ele>
        <time>2021-05-02T08:51:57Z</time>
      </trkpt>
      <trkpt lat="49.45253" lon="1.12906">
        <ele>130.6</ele>
        <time>2021-05-02T08:51:58Z</time>
      </trkpt>
      <trkpt lat="49.45247" lon="1.12903">
        <ele>131.2</ele>
        <time>2021-05-02T08:52:00Z</time>
      </trkpt>
      <trkpt lat="49.45239" lon="1.12899">
        <ele>131.8</ele>
        <time>2021-05-02T08:52:02Z</time>
      </trkpt>
      <trkpt lat="49.45233" lon="1.12895">
        <ele>132</ele>
        <time>2021-05-02T08:52:03Z</time>
      </trkpt>
      <trkpt lat="49.45229" lon="1.1289">
        <ele>132.2</ele>
        <time>2021-05-02T08:52:05Z</time>
      </trkpt>
      <trkpt lat="49.45227" lon="1.12886">
        <ele>132.4</ele>
        <time>2021-05-02T08:52:06Z</time>
      </trkpt>
      <trkpt lat="49.45225" lon="1.12884">
        <ele>132.4</ele>
        <time>2021-05-02T08:52:07Z</time>
      </trkpt>
      <trkpt lat="49.45223" lon="1.12878">
        <ele>132.6</ele>
        <time>2021-05-02T08:52:09Z</time>
      </trkpt>
      <trkpt lat="49.45222" lon="1.12874">
        <ele>132.7</ele>
        <time>2021-05-02T08:52:10Z</time>
      </trkpt>
      <trkpt lat="49.4522" lon="1.12869">
        <ele>132.8</ele>
        <time>2021-05-02T08:52:12Z</time>
      </trkpt>
      <trkpt lat="49.45218" lon="1.12866">
        <ele>132.9</ele>
        <time>2021-05-02T08:52:13Z</time>
      </trkpt>
      <trkpt lat="49.45215" lon="1.12861">
        <ele>133.1</ele>
        <time>2021-05-02T08:52:15Z</time>
      </trkpt>
      <trkpt lat="49.45213" lon="1.12858">
        <ele>133.2</ele>
        <time>2021-05-02T08:52:16Z</time>
      </trkpt>
      <trkpt lat="49.45211" lon="1.12855">
        <ele>133.3</ele>
        <time>2021-05-02T08:52:18Z</time>
      </trkpt>
      <trkpt lat="49.45211" lon="1.12854">
        <ele>133.4</ele>
        <time>2021-05-02T08:52:19Z</time>
      </trkpt>
      <trkpt lat="49.4521" lon="1.12853">
        <ele>133.4</ele>
        <time>2021-05-02T08:52:21Z</time>
      </trkpt>
      <trkpt lat="49.45209" lon="1.12852">
        <ele>133.4</ele>
        <time>2021-05-02T08:52:22Z</time>
      </trkpt>
      <trkpt lat="49.45206" lon="1.12848">
        <ele>133.6</ele>
        <time>2021-05-02T08:52:24Z</time>
      </trkpt>
      <trkpt lat="49.45203" lon="1.12843">
        <ele>133.7</ele>
        <time>2021-05-02T08:52:25Z</time>
      </trkpt>
      <trkpt lat="49.45199" lon="1.12838">
        <ele>133.9</ele>
        <time>2021-05-02T08:52:26Z</time>
      </trkpt>
      <trkpt lat="49.45196" lon="1.12834">
        <ele>134</ele>
        <time>2021-05-02T08:52:27Z</time>
      </trkpt>
      <trkpt lat="49.45193" lon="1.1283">
        <ele>134.1</ele>
        <time>2021-05-02T08:52:28Z</time>
      </trkpt>
      <trkpt lat="49.45191" lon="1.12825">
        <ele>134.3</ele>
        <time>2021-05-02T08:52:29Z</time>
      </trkpt>
      <trkpt lat="49.45186" lon="1.12818">
        <ele>134.5</ele>
        <time>2021-05-02T08:52:31Z</time>
      </trkpt>
      <trkpt lat="49.45184" lon="1.12813">
        <ele>134.7</ele>
        <time>2021-05-02T08:52:32Z</time>
      </trkpt>
      <trkpt lat="49.45179" lon="1.12806">
        <ele>134.9</ele>
        <time>2021-05-02T08:52:34Z</time>
      </trkpt>
      <trkpt lat="49.45176" lon="1.128">
        <ele>135.2</ele>
        <time>2021-05-02T08:52:36Z</time>
      </trkpt>
      <trkpt lat="49.45174" lon="1.12797">
        <ele>135.3</ele>
        <time>2021-05-02T08:52:37Z</time>
      </trkpt>
      <trkpt lat="49.45172" lon="1.1279">
        <ele>135.5</ele>
        <time>2021-05-02T08:52:39Z</time>
      </trkpt>
      <trkpt lat="49.4517" lon="1.12787">
        <ele>135.7</ele>
        <time>2021-05-02T08:52:40Z</time>
      </trkpt>
      <trkpt lat="49.45168" lon="1.12782">
        <ele>135.9</ele>
        <time>2021-05-02T08:52:42Z</time>
      </trkpt>
      <trkpt lat="49.45165" lon="1.12777">
        <ele>136.1</ele>
        <time>2021-05-02T08:52:43Z</time>
      </trkpt>
      <trkpt lat="49.45161" lon="1.12773">
        <ele>136.4</ele>
        <time>2021-05-02T08:52:45Z</time>
      </trkpt>
      <trkpt lat="49.45157" lon="1.12768">
        <ele>136.7</ele>
        <time>2021-05-02T08:52:46Z</time>
      </trkpt>
      <trkpt lat="49.45152" lon="1.12761">
        <ele>137</ele>
        <time>2021-05-02T08:52:48Z</time>
      </trkpt>
      <trkpt lat="49.4515" lon="1.12756">
        <ele>137.2</ele>
        <time>2021-05-02T08:52:49Z</time>
      </trkpt>
      <trkpt lat="49.45147" lon="1.1275">
        <ele>137.5</ele>
        <time>2021-05-02T08:52:51Z</time>
      </trkpt>
      <trkpt lat="49.45144" lon="1.12746">
        <ele>137.8</ele>
        <time>2021-05-02T08:52:52Z</time>
      </trkpt>
      <trkpt lat="49.4514" lon="1.12738">
        <ele>138.2</ele>
        <time>2021-05-02T08:52:54Z</time>
      </trkpt>
      <trkpt lat="49.45138" lon="1.12733">
        <ele>138.4</ele>
        <time>2021-05-02T08:52:56Z</time>
      </trkpt>
      <trkpt lat="49.45136" lon="1.12728">
        <ele>138.7</ele>
        <time>2021-05-02T08:52:57Z</time>
      </trkpt>
      <trkpt lat="49.45132" lon="1.12725">
        <ele>139</ele>
        <time>2021-05-02T08:52:59Z</time>
      </trkpt>
      <trkpt lat="49.4513" lon="1.12722">
        <ele>139.2</ele>
        <time>2021-05-02T08:53:00Z</time>
      </trkpt>
      <trkpt lat="49.45127" lon="1.12716">
        <ele>139.5</ele>
        <time>2021-05-02T08:53:02Z</time>
      </trkpt>
      <trkpt lat="49.45125" lon="1.12713">
        <ele>139.7</ele>
        <time>2021-05-02T08:53:03Z</time>
      </trkpt>
      <trkpt lat="49.45121" lon="1.12708">
        <ele>139.9</ele>
        <time>2021-05-02T08:53:05Z</time>
      </trkpt>
      <trkpt lat="49.45118" lon="1.12705">
        <ele>140.2</ele>
        <time>2021-05-02T08:53:07Z</time>
      </trkpt>
      <trkpt lat="49.45115" lon="1.12701">
        <ele>140.4</ele>
        <time>2021-05-02T08:53:08Z</time>
      </trkpt>
      <trkpt lat="49.45113" lon="1.12698">
        <ele>140.5</ele>
        <time>2021-05-02T08:53:09Z</time>
      </trkpt>
      <trkpt lat="49.45109" lon="1.12693">
        <ele>140.8</ele>
        <time>2021-05-02T08:53:11Z</time>
      </trkpt>
      <trkpt lat="49.45105" lon="1.12688">
        <ele>141</ele>
        <time>2021-05-02T08:53:12Z</time>
      </trkpt>
      <trkpt lat="49.45103" lon="1.12685">
        <ele>141.1</ele>
        <time>2021-05-02T08:53:13Z</time>
      </trkpt>
      <trkpt lat="49.451" lon="1.1268">
        <ele>141.3</ele>
        <time>2021-05-02T08:53:15Z</time>
      </trkpt>
      <trkpt lat="49.45097" lon="1.12675">
        <ele>141.3</ele>
        <time>2021-05-02T08:53:16Z</time>
      </trkpt>
      <trkpt lat="49.45094" lon="1.12671">
        <ele>141.2</ele>
        <time>2021-05-02T08:53:18Z</time>
      </trkpt>
      <trkpt lat="49.45092" lon="1.12666">
        <ele>141.2</ele>
        <time>2021-05-02T08:53:19Z</time>
      </trkpt>
      <trkpt lat="49.45089" lon="1.12663">
        <ele>141.2</ele>
        <time>2021-05-02T08:53:20Z</time>
      </trkpt>
      <trkpt lat="49.45086" lon="1.12659">
        <ele>141.2</ele>
        <time>2021-05-02T08:53:21Z</time>
      </trkpt>
      <trkpt lat="49.45086" lon="1.12658">
        <ele>141.2</ele>
        <time>2021-05-02T08:53:22Z</time>
      </trkpt>
      <trkpt lat="49.45084" lon="1.12653">
        <ele>141.2</ele>
        <time>2021-05-02T08:53:23Z</time>
      </trkpt>
      <trkpt lat="49.45082" lon="1.12649">
        <ele>141.2</ele>
        <time>2021-05-02T08:53:24Z</time>
      </trkpt>
      <trkpt lat="49.45079" lon="1.12646">
        <ele>141.2</ele>
        <time>2021-05-02T08:53:25Z</time>
      </trkpt>
      <trkpt lat="49.45074" lon="1.12641">
        <ele>141.2</ele>
        <time>2021-05-02T08:53:27Z</time>
      </trkpt>
      <trkpt lat="49.45069" lon="1.12634">
        <ele>141.1</ele>
        <time>2021-05-02T08:53:29Z</time>
      </trkpt>
      <trkpt lat="49.45067" lon="1.12631">
        <ele>141.1</ele>
        <time>2021-05-02T08:53:31Z</time>
      </trkpt>
      <trkpt lat="49.45066" lon="1.12628">
        <ele>141.1</ele>
        <time>2021-05-02T08:53:33Z</time>
      </trkpt>
      <trkpt lat="49.45066" lon="1.12628">
        <ele>141.1</ele>
        <time>2021-05-02T08:53:34Z</time>
      </trkpt>
      <trkpt lat="49.45066" lon="1.12628">
        <ele>141.1</ele>
        <time>2021-05-02T08:53:36Z</time>
      </trkpt>
      <trkpt lat="49.45066" lon="1.12628">
        <ele>141.1</ele>
        <time>2021-05-02T08:53:38Z</time>
      </trkpt>
      <trkpt lat="49.45066" lon="1.12628">
        <ele>141.1</ele>
        <time>2021-05-02T08:53:39Z</time>
      </trkpt>
      <trkpt lat="49.45056" lon="1.12615">
        <ele>141.1</ele>
        <time>2021-05-02T08:53:56Z</time>
      </trkpt>
      <trkpt lat="49.45062" lon="1.12625">
        <ele>141.1</ele>
        <time>2021-05-02T08:53:58Z</time>
      </trkpt>
      <trkpt lat="49.45063" lon="1.1263">
        <ele>141.1</ele>
        <time>2021-05-02T08:53:59Z</time>
      </trkpt>
      <trkpt lat="49.45062" lon="1.12635">
        <ele>141.2</ele>
        <time>2021-05-02T08:54:01Z</time>
      </trkpt>
      <trkpt lat="49.45061" lon="1.12635">
        <ele>141.3</ele>
        <time>2021-05-02T08:54:02Z</time>
      </trkpt>
      <trkpt lat="49.4506" lon="1.12634">
        <ele>141.3</ele>
        <time>2021-05-02T08:54:04Z</time>
      </trkpt>
      <trkpt lat="49.45059" lon="1.12633">
        <ele>141.3</ele>
        <time>2021-05-02T08:54:05Z</time>
      </trkpt>
      <trkpt lat="49.45059" lon="1.12632">
        <ele>141.4</ele>
        <time>2021-05-02T08:54:07Z</time>
      </trkpt>
      <trkpt lat="49.45059" lon="1.12631">
        <ele>141.5</ele>
        <time>2021-05-02T08:54:08Z</time>
      </trkpt>
      <trkpt lat="49.45058" lon="1.1263">
        <ele>141.5</ele>
        <time>2021-05-02T08:54:09Z</time>
      </trkpt>
      <trkpt lat="49.45053" lon="1.12627">
        <ele>141.4</ele>
        <time>2021-05-02T08:54:11Z</time>
      </trkpt>
      <trkpt lat="49.45052" lon="1.12627">
        <ele>141.4</ele>
        <time>2021-05-02T08:54:12Z</time>
      </trkpt>
      <trkpt lat="49.4505" lon="1.12626">
        <ele>141.5</ele>
        <time>2021-05-02T08:54:13Z</time>
      </trkpt>
      <trkpt lat="49.45047" lon="1.12624">
        <ele>141.4</ele>
        <time>2021-05-02T08:54:14Z</time>
      </trkpt>
      <trkpt lat="49.45044" lon="1.12621">
        <ele>141.4</ele>
        <time>2021-05-02T08:54:16Z</time>
      </trkpt>
      <trkpt lat="49.44974" lon="1.12566">
        <ele>134.3</ele>
        <time>2021-05-02T08:54:17Z</time>
      </trkpt>
      <trkpt lat="49.44947" lon="1.12545">
        <ele>131.1</ele>
        <time>2021-05-02T08:54:19Z</time>
      </trkpt>
      <trkpt lat="49.44921" lon="1.12525">
        <ele>126.8</ele>
        <time>2021-05-02T08:54:21Z</time>
      </trkpt>
      <trkpt lat="49.449" lon="1.12509">
        <ele>125.2</ele>
        <time>2021-05-02T08:54:23Z</time>
      </trkpt>
      <trkpt lat="49.44891" lon="1.12502">
        <ele>125.1</ele>
        <time>2021-05-02T08:54:24Z</time>
      </trkpt>
      <trkpt lat="49.44883" lon="1.12494">
        <ele>124.6</ele>
        <time>2021-05-02T08:54:25Z</time>
      </trkpt>
      <trkpt lat="49.44878" lon="1.12487">
        <ele>124.1</ele>
        <time>2021-05-02T08:54:27Z</time>
      </trkpt>
      <trkpt lat="49.44872" lon="1.12479">
        <ele>124.7</ele>
        <time>2021-05-02T08:54:28Z</time>
      </trkpt>
      <trkpt lat="49.44868" lon="1.12477">
        <ele>124.3</ele>
        <time>2021-05-02T08:54:30Z</time>
      </trkpt>
      <trkpt lat="49.44867" lon="1.12473">
        <ele>124.9</ele>
        <time>2021-05-02T08:54:31Z</time>
      </trkpt>
      <trkpt lat="49.44866" lon="1.12466">
        <ele>127</ele>
        <time>2021-05-02T08:54:33Z</time>
      </trkpt>
      <trkpt lat="49.44865" lon="1.1246">
        <ele>127.6</ele>
        <time>2021-05-02T08:54:35Z</time>
      </trkpt>
      <trkpt lat="49.44865" lon="1.12458">
        <ele>128.5</ele>
        <time>2021-05-02T08:54:36Z</time>
      </trkpt>
      <trkpt lat="49.44865" lon="1.12456">
        <ele>128.6</ele>
        <time>2021-05-02T08:54:37Z</time>
      </trkpt>
      <trkpt lat="49.44862" lon="1.12453">
        <ele>129</ele>
        <time>2021-05-02T08:54:38Z</time>
      </trkpt>
      <trkpt lat="49.4486" lon="1.12451">
        <ele>129.3</ele>
        <time>2021-05-02T08:54:39Z</time>
      </trkpt>
      <trkpt lat="49.44856" lon="1.12447">
        <ele>128.9</ele>
        <time>2021-05-02T08:54:41Z</time>
      </trkpt>
      <trkpt lat="49.44855" lon="1.12444">
        <ele>129.8</ele>
        <time>2021-05-02T08:54:42Z</time>
      </trkpt>
      <trkpt lat="49.44854" lon="1.12441">
        <ele>130.2</ele>
        <time>2021-05-02T08:54:44Z</time>
      </trkpt>
      <trkpt lat="49.44853" lon="1.12438">
        <ele>131.2</ele>
        <time>2021-05-02T08:54:45Z</time>
      </trkpt>
      <trkpt lat="49.44852" lon="1.12434">
        <ele>132.2</ele>
        <time>2021-05-02T08:54:47Z</time>
      </trkpt>
      <trkpt lat="49.4485" lon="1.12431">
        <ele>131.8</ele>
        <time>2021-05-02T08:54:48Z</time>
      </trkpt>
      <trkpt lat="49.44849" lon="1.12431">
        <ele>131.9</ele>
        <time>2021-05-02T08:54:49Z</time>
      </trkpt>
      <trkpt lat="49.44845" lon="1.12426">
        <ele>132.2</ele>
        <time>2021-05-02T08:54:51Z</time>
      </trkpt>
      <trkpt lat="49.44842" lon="1.12423">
        <ele>132.9</ele>
        <time>2021-05-02T08:54:52Z</time>
      </trkpt>
      <trkpt lat="49.4484" lon="1.1242">
        <ele>133.7</ele>
        <time>2021-05-02T08:54:54Z</time>
      </trkpt>
      <trkpt lat="49.44838" lon="1.12419">
        <ele>133.7</ele>
        <time>2021-05-02T08:54:55Z</time>
      </trkpt>
      <trkpt lat="49.44832" lon="1.12415">
        <ele>133.9</ele>
        <time>2021-05-02T08:54:57Z</time>
      </trkpt>
      <trkpt lat="49.44828" lon="1.12411">
        <ele>133.9</ele>
        <time>2021-05-02T08:54:58Z</time>
      </trkpt>
      <trkpt lat="49.44823" lon="1.12406">
        <ele>134</ele>
        <time>2021-05-02T08:55:00Z</time>
      </trkpt>
      <trkpt lat="49.4482" lon="1.12403">
        <ele>134.6</ele>
        <time>2021-05-02T08:55:01Z</time>
      </trkpt>
      <trkpt lat="49.44801" lon="1.12382">
        <ele>137.3</ele>
        <time>2021-05-02T08:55:02Z</time>
      </trkpt>
      <trkpt lat="49.44795" lon="1.12376">
        <ele>137.7</ele>
        <time>2021-05-02T08:55:03Z</time>
      </trkpt>
      <trkpt lat="49.44792" lon="1.12372">
        <ele>138.4</ele>
        <time>2021-05-02T08:55:04Z</time>
      </trkpt>
      <trkpt lat="49.4479" lon="1.1237">
        <ele>138</ele>
        <time>2021-05-02T08:55:05Z</time>
      </trkpt>
      <trkpt lat="49.44789" lon="1.1237">
        <ele>139</ele>
        <time>2021-05-02T08:55:07Z</time>
      </trkpt>
      <trkpt lat="49.44788" lon="1.12369">
        <ele>139.1</ele>
        <time>2021-05-02T08:55:08Z</time>
      </trkpt>
      <trkpt lat="49.44783" lon="1.12365">
        <ele>138.2</ele>
        <time>2021-05-02T08:55:09Z</time>
      </trkpt>
      <trkpt lat="49.44781" lon="1.12364">
        <ele>137.9</ele>
        <time>2021-05-02T08:55:10Z</time>
      </trkpt>
      <trkpt lat="49.44776" lon="1.1236">
        <ele>137.1</ele>
        <time>2021-05-02T08:55:12Z</time>
      </trkpt>
      <trkpt lat="49.4477" lon="1.12355">
        <ele>136.2</ele>
        <time>2021-05-02T08:55:13Z</time>
      </trkpt>
      <trkpt lat="49.44765" lon="1.12352">
        <ele>135.1</ele>
        <time>2021-05-02T08:55:14Z</time>
      </trkpt>
      <trkpt lat="49.44761" lon="1.12351">
        <ele>134.2</ele>
        <time>2021-05-02T08:55:16Z</time>
      </trkpt>
      <trkpt lat="49.44757" lon="1.12349">
        <ele>133.2</ele>
        <time>2021-05-02T08:55:17Z</time>
      </trkpt>
      <trkpt lat="49.44747" lon="1.12346">
        <ele>130.9</ele>
        <time>2021-05-02T08:55:19Z</time>
      </trkpt>
      <trkpt lat="49.44737" lon="1.12342">
        <ele>128.5</ele>
        <time>2021-05-02T08:55:20Z</time>
      </trkpt>
      <trkpt lat="49.44735" lon="1.12341">
        <ele>128</ele>
        <time>2021-05-02T08:55:21Z</time>
      </trkpt>
      <trkpt lat="49.44731" lon="1.1234">
        <ele>127.2</ele>
        <time>2021-05-02T08:55:23Z</time>
      </trkpt>
      <trkpt lat="49.44728" lon="1.12335">
        <ele>126.2</ele>
        <time>2021-05-02T08:55:24Z</time>
      </trkpt>
      <trkpt lat="49.44727" lon="1.12334">
        <ele>125.9</ele>
        <time>2021-05-02T08:55:25Z</time>
      </trkpt>
      <trkpt lat="49.44725" lon="1.12331">
        <ele>125.2</ele>
        <time>2021-05-02T08:55:26Z</time>
      </trkpt>
      <trkpt lat="49.44721" lon="1.12324">
        <ele>124.7</ele>
        <time>2021-05-02T08:55:28Z</time>
      </trkpt>
      <trkpt lat="49.44718" lon="1.1232">
        <ele>124.6</ele>
        <time>2021-05-02T08:55:29Z</time>
      </trkpt>
      <trkpt lat="49.44714" lon="1.12314">
        <ele>124.5</ele>
        <time>2021-05-02T08:55:31Z</time>
      </trkpt>
      <trkpt lat="49.44711" lon="1.1231">
        <ele>124.3</ele>
        <time>2021-05-02T08:55:32Z</time>
      </trkpt>
      <trkpt lat="49.44702" lon="1.12301">
        <ele>123.5</ele>
        <time>2021-05-02T08:55:34Z</time>
      </trkpt>
      <trkpt lat="49.44696" lon="1.12296">
        <ele>122.8</ele>
        <time>2021-05-02T08:55:36Z</time>
      </trkpt>
      <trkpt lat="49.44692" lon="1.12293">
        <ele>122.3</ele>
        <time>2021-05-02T08:55:37Z</time>
      </trkpt>
      <trkpt lat="49.44688" lon="1.12288">
        <ele>121.9</ele>
        <time>2021-05-02T08:55:39Z</time>
      </trkpt>
      <trkpt lat="49.44686" lon="1.12285">
        <ele>121.4</ele>
        <time>2021-05-02T08:55:40Z</time>
      </trkpt>
      <trkpt lat="49.44682" lon="1.12281">
        <ele>120.8</ele>
        <time>2021-05-02T08:55:41Z</time>
      </trkpt>
      <trkpt lat="49.4468" lon="1.12277">
        <ele>120.2</ele>
        <time>2021-05-02T08:55:43Z</time>
      </trkpt>
      <trkpt lat="49.44678" lon="1.12274">
        <ele>119.8</ele>
        <time>2021-05-02T08:55:44Z</time>
      </trkpt>
      <trkpt lat="49.44676" lon="1.12271">
        <ele>119.4</ele>
        <time>2021-05-02T08:55:45Z</time>
      </trkpt>
      <trkpt lat="49.44674" lon="1.12268">
        <ele>119.1</ele>
        <time>2021-05-02T08:55:47Z</time>
      </trkpt>
      <trkpt lat="49.44673" lon="1.12266">
        <ele>118.8</ele>
        <time>2021-05-02T08:55:49Z</time>
      </trkpt>
      <trkpt lat="49.44673" lon="1.12266">
        <ele>118.8</ele>
        <time>2021-05-02T08:55:50Z</time>
      </trkpt>
      <trkpt lat="49.44673" lon="1.12266">
        <ele>118.8</ele>
        <time>2021-05-02T08:55:51Z</time>
      </trkpt>
      <trkpt lat="49.44673" lon="1.12266">
        <ele>118.8</ele>
        <time>2021-05-02T08:55:52Z</time>
      </trkpt>
      <trkpt lat="49.44673" lon="1.12266">
        <ele>118.7</ele>
        <time>2021-05-02T08:55:53Z</time>
      </trkpt>
      <trkpt lat="49.44673" lon="1.12266">
        <ele>118.7</ele>
        <time>2021-05-02T08:55:55Z</time>
      </trkpt>
      <trkpt lat="49.4467" lon="1.12263">
        <ele>118.2</ele>
        <time>2021-05-02T08:56:00Z</time>
      </trkpt>
      <trkpt lat="49.44668" lon="1.12257">
        <ele>117.7</ele>
        <time>2021-05-02T08:56:02Z</time>
      </trkpt>
      <trkpt lat="49.44666" lon="1.12253">
        <ele>117.2</ele>
        <time>2021-05-02T08:56:03Z</time>
      </trkpt>
      <trkpt lat="49.44663" lon="1.12248">
        <ele>116.6</ele>
        <time>2021-05-02T08:56:04Z</time>
      </trkpt>
      <trkpt lat="49.44662" lon="1.12245">
        <ele>116.4</ele>
        <time>2021-05-02T08:56:05Z</time>
      </trkpt>
      <trkpt lat="49.44661" lon="1.12238">
        <ele>116</ele>
        <time>2021-05-02T08:56:07Z</time>
      </trkpt>
      <trkpt lat="49.44661" lon="1.12231">
        <ele>115.6</ele>
        <time>2021-05-02T08:56:08Z</time>
      </trkpt>
      <trkpt lat="49.4466" lon="1.12227">
        <ele>115.3</ele>
        <time>2021-05-02T08:56:10Z</time>
      </trkpt>
      <trkpt lat="49.44661" lon="1.12226">
        <ele>115.3</ele>
        <time>2021-05-02T08:56:11Z</time>
      </trkpt>
      <trkpt lat="49.44664" lon="1.12222">
        <ele>114.5</ele>
        <time>2021-05-02T08:56:13Z</time>
      </trkpt>
      <trkpt lat="49.44668" lon="1.12219">
        <ele>114.5</ele>
        <time>2021-05-02T08:56:15Z</time>
      </trkpt>
      <trkpt lat="49.44669" lon="1.12219">
        <ele>114.5</ele>
        <time>2021-05-02T08:56:17Z</time>
      </trkpt>
      <trkpt lat="49.44669" lon="1.12219">
        <ele>114.5</ele>
        <time>2021-05-02T08:56:18Z</time>
      </trkpt>
      <trkpt lat="49.44668" lon="1.12222">
        <ele>114.5</ele>
        <time>2021-05-02T08:56:20Z</time>
      </trkpt>
      <trkpt lat="49.44668" lon="1.12226">
        <ele>114.5</ele>
        <time>2021-05-02T08:56:22Z</time>
      </trkpt>
      <trkpt lat="49.44667" lon="1.12229">
        <ele>114.5</ele>
        <time>2021-05-02T08:56:24Z</time>
      </trkpt>
      <trkpt lat="49.4467" lon="1.12222">
        <ele>114.5</ele>
        <time>2021-05-02T08:57:01Z</time>
      </trkpt>
      <trkpt lat="49.44672" lon="1.12213">
        <ele>114.5</ele>
        <time>2021-05-02T08:57:03Z</time>
      </trkpt>
      <trkpt lat="49.44674" lon="1.12203">
        <ele>114.4</ele>
        <time>2021-05-02T08:57:04Z</time>
      </trkpt>
      <trkpt lat="49.44675" lon="1.12195">
        <ele>114.4</ele>
        <time>2021-05-02T08:57:06Z</time>
      </trkpt>
      <trkpt lat="49.44677" lon="1.12186">
        <ele>114.4</ele>
        <time>2021-05-02T08:57:08Z</time>
      </trkpt>
      <trkpt lat="49.44676" lon="1.12182">
        <ele>114.4</ele>
        <time>2021-05-02T08:57:09Z</time>
      </trkpt>
      <trkpt lat="49.44676" lon="1.12176">
        <ele>114.3</ele>
        <time>2021-05-02T08:57:10Z</time>
      </trkpt>
      <trkpt lat="49.44676" lon="1.12174">
        <ele>114.3</ele>
        <time>2021-05-02T08:57:11Z</time>
      </trkpt>
      <trkpt lat="49.44678" lon="1.12167">
        <ele>114.2</ele>
        <time>2021-05-02T08:57:13Z</time>
      </trkpt>
      <trkpt lat="49.44679" lon="1.12158">
        <ele>114.1</ele>
        <time>2021-05-02T08:57:15Z</time>
      </trkpt>
      <trkpt lat="49.4468" lon="1.1215">
        <ele>113.9</ele>
        <time>2021-05-02T08:57:17Z</time>
      </trkpt>
      <trkpt lat="49.44679" lon="1.12145">
        <ele>113.7</ele>
        <time>2021-05-02T08:57:19Z</time>
      </trkpt>
      <trkpt lat="49.44677" lon="1.12141">
        <ele>113.5</ele>
        <time>2021-05-02T08:57:20Z</time>
      </trkpt>
      <trkpt lat="49.44675" lon="1.12138">
        <ele>113.2</ele>
        <time>2021-05-02T08:57:21Z</time>
      </trkpt>
      <trkpt lat="49.44674" lon="1.12136">
        <ele>113.1</ele>
        <time>2021-05-02T08:57:22Z</time>
      </trkpt>
      <trkpt lat="49.44674" lon="1.12129">
        <ele>112.8</ele>
        <time>2021-05-02T08:57:24Z</time>
      </trkpt>
      <trkpt lat="49.44674" lon="1.12126">
        <ele>112.6</ele>
        <time>2021-05-02T08:57:25Z</time>
      </trkpt>
      <trkpt lat="49.44674" lon="1.12123">
        <ele>112.5</ele>
        <time>2021-05-02T08:57:26Z</time>
      </trkpt>
      <trkpt lat="49.44675" lon="1.12119">
        <ele>112.3</ele>
        <time>2021-05-02T08:57:27Z</time>
      </trkpt>
      <trkpt lat="49.44677" lon="1.12112">
        <ele>112</ele>
        <time>2021-05-02T08:57:29Z</time>
      </trkpt>
      <trkpt lat="49.44679" lon="1.12107">
        <ele>111.9</ele>
        <time>2021-05-02T08:57:30Z</time>
      </trkpt>
      <trkpt lat="49.44681" lon="1.12101">
        <ele>111.8</ele>
        <time>2021-05-02T08:57:31Z</time>
      </trkpt>
      <trkpt lat="49.44683" lon="1.12096">
        <ele>111.7</ele>
        <time>2021-05-02T08:57:32Z</time>
      </trkpt>
      <trkpt lat="49.44685" lon="1.12093">
        <ele>111.7</ele>
        <time>2021-05-02T08:57:33Z</time>
      </trkpt>
      <trkpt lat="49.44687" lon="1.12084">
        <ele>111.6</ele>
        <time>2021-05-02T08:57:35Z</time>
      </trkpt>
      <trkpt lat="49.44688" lon="1.12077">
        <ele>111.6</ele>
        <time>2021-05-02T08:57:36Z</time>
      </trkpt>
      <trkpt lat="49.44689" lon="1.12069">
        <ele>111.6</ele>
        <time>2021-05-02T08:57:37Z</time>
      </trkpt>
      <trkpt lat="49.44691" lon="1.12063">
        <ele>111.6</ele>
        <time>2021-05-02T08:57:38Z</time>
      </trkpt>
      <trkpt lat="49.44692" lon="1.12058">
        <ele>110</ele>
        <time>2021-05-02T08:57:40Z</time>
      </trkpt>
      <trkpt lat="49.44694" lon="1.12057">
        <ele>110.3</ele>
        <time>2021-05-02T08:57:41Z</time>
      </trkpt>
      <trkpt lat="49.44695" lon="1.12056">
        <ele>109.1</ele>
        <time>2021-05-02T08:57:42Z</time>
      </trkpt>
      <trkpt lat="49.44695" lon="1.12053">
        <ele>109.4</ele>
        <time>2021-05-02T08:57:43Z</time>
      </trkpt>
      <trkpt lat="49.44697" lon="1.12049">
        <ele>108.2</ele>
        <time>2021-05-02T08:57:45Z</time>
      </trkpt>
      <trkpt lat="49.447" lon="1.12046">
        <ele>107.5</ele>
        <time>2021-05-02T08:57:46Z</time>
      </trkpt>
      <trkpt lat="49.44702" lon="1.12044">
        <ele>107.8</ele>
        <time>2021-05-02T08:57:47Z</time>
      </trkpt>
      <trkpt lat="49.44705" lon="1.1204">
        <ele>107</ele>
        <time>2021-05-02T08:57:49Z</time>
      </trkpt>
      <trkpt lat="49.44708" lon="1.12038">
        <ele>106.2</ele>
        <time>2021-05-02T08:57:50Z</time>
      </trkpt>
      <trkpt lat="49.4471" lon="1.12035">
        <ele>106.6</ele>
        <time>2021-05-02T08:57:51Z</time>
      </trkpt>
      <trkpt lat="49.44712" lon="1.12033">
        <ele>105.9</ele>
        <time>2021-05-02T08:57:53Z</time>
      </trkpt>
      <trkpt lat="49.44714" lon="1.12031">
        <ele>105.6</ele>
        <time>2021-05-02T08:57:54Z</time>
      </trkpt>
      <trkpt lat="49.44719" lon="1.12028">
        <ele>105.8</ele>
        <time>2021-05-02T08:57:56Z</time>
      </trkpt>
      <trkpt lat="49.44723" lon="1.12027">
        <ele>107.3</ele>
        <time>2021-05-02T08:57:58Z</time>
      </trkpt>
      <trkpt lat="49.44726" lon="1.12024">
        <ele>107.1</ele>
        <time>2021-05-02T08:57:59Z</time>
      </trkpt>
      <trkpt lat="49.4473" lon="1.12022">
        <ele>106.9</ele>
        <time>2021-05-02T08:58:00Z</time>
      </trkpt>
      <trkpt lat="49.44732" lon="1.1202">
        <ele>107.6</ele>
        <time>2021-05-02T08:58:01Z</time>
      </trkpt>
      <trkpt lat="49.44737" lon="1.12017">
        <ele>108.3</ele>
        <time>2021-05-02T08:58:03Z</time>
      </trkpt>
      <trkpt lat="49.44742" lon="1.12015">
        <ele>108.9</ele>
        <time>2021-05-02T08:58:04Z</time>
      </trkpt>
      <trkpt lat="49.44747" lon="1.12011">
        <ele>109.9</ele>
        <time>2021-05-02T08:58:06Z</time>
      </trkpt>
      <trkpt lat="49.4475" lon="1.12008">
        <ele>110</ele>
        <time>2021-05-02T08:58:07Z</time>
      </trkpt>
      <trkpt lat="49.44754" lon="1.12007">
        <ele>111.6</ele>
        <time>2021-05-02T08:58:08Z</time>
      </trkpt>
      <trkpt lat="49.44755" lon="1.12006">
        <ele>111.3</ele>
        <time>2021-05-02T08:58:09Z</time>
      </trkpt>
      <trkpt lat="49.44759" lon="1.12004">
        <ele>111.3</ele>
        <time>2021-05-02T08:58:10Z</time>
      </trkpt>
      <trkpt lat="49.4476" lon="1.12003">
        <ele>111.9</ele>
        <time>2021-05-02T08:58:11Z</time>
      </trkpt>
      <trkpt lat="49.44767" lon="1.12001">
        <ele>113.2</ele>
        <time>2021-05-02T08:58:13Z</time>
      </trkpt>
      <trkpt lat="49.4477" lon="1.11999">
        <ele>113</ele>
        <time>2021-05-02T08:58:14Z</time>
      </trkpt>
      <trkpt lat="49.44772" lon="1.11999">
        <ele>113.5</ele>
        <time>2021-05-02T08:58:16Z</time>
      </trkpt>
      <trkpt lat="49.44773" lon="1.11999">
        <ele>113.2</ele>
        <time>2021-05-02T08:58:17Z</time>
      </trkpt>
      <trkpt lat="49.44773" lon="1.11998">
        <ele>113.7</ele>
        <time>2021-05-02T08:58:18Z</time>
      </trkpt>
      <trkpt lat="49.44777" lon="1.11994">
        <ele>113.4</ele>
        <time>2021-05-02T08:58:20Z</time>
      </trkpt>
      <trkpt lat="49.4478" lon="1.1199">
        <ele>113.2</ele>
        <time>2021-05-02T08:58:21Z</time>
      </trkpt>
      <trkpt lat="49.44783" lon="1.11984">
        <ele>113</ele>
        <time>2021-05-02T08:58:22Z</time>
      </trkpt>
      <trkpt lat="49.44787" lon="1.11981">
        <ele>113.4</ele>
        <time>2021-05-02T08:58:23Z</time>
      </trkpt>
      <trkpt lat="49.44791" lon="1.11975">
        <ele>112.8</ele>
        <time>2021-05-02T08:58:24Z</time>
      </trkpt>
      <trkpt lat="49.44794" lon="1.11969">
        <ele>112.8</ele>
        <time>2021-05-02T08:58:25Z</time>
      </trkpt>
      <trkpt lat="49.44798" lon="1.1196">
        <ele>112.5</ele>
        <time>2021-05-02T08:58:27Z</time>
      </trkpt>
      <trkpt lat="49.44799" lon="1.11956">
        <ele>112.8</ele>
        <time>2021-05-02T08:58:28Z</time>
      </trkpt>
      <trkpt lat="49.44801" lon="1.1195">
        <ele>113.1</ele>
        <time>2021-05-02T08:58:30Z</time>
      </trkpt>
      <trkpt lat="49.44803" lon="1.11945">
        <ele>112.6</ele>
        <time>2021-05-02T08:58:31Z</time>
      </trkpt>
      <trkpt lat="49.44807" lon="1.11939">
        <ele>112.9</ele>
        <time>2021-05-02T08:58:33Z</time>
      </trkpt>
      <trkpt lat="49.44808" lon="1.11937">
        <ele>113.1</ele>
        <time>2021-05-02T08:58:34Z</time>
      </trkpt>
      <trkpt lat="49.44809" lon="1.11935">
        <ele>113.3</ele>
        <time>2021-05-02T08:58:35Z</time>
      </trkpt>
      <trkpt lat="49.44811" lon="1.11932">
        <ele>113.6</ele>
        <time>2021-05-02T08:58:36Z</time>
      </trkpt>
      <trkpt lat="49.44813" lon="1.11929">
        <ele>113.9</ele>
        <time>2021-05-02T08:58:38Z</time>
      </trkpt>
      <trkpt lat="49.44815" lon="1.11924">
        <ele>114.4</ele>
        <time>2021-05-02T08:58:39Z</time>
      </trkpt>
      <trkpt lat="49.44816" lon="1.11922">
        <ele>114.6</ele>
        <time>2021-05-02T08:58:40Z</time>
      </trkpt>
      <trkpt lat="49.44819" lon="1.11918">
        <ele>115</ele>
        <time>2021-05-02T08:58:41Z</time>
      </trkpt>
      <trkpt lat="49.44825" lon="1.11911">
        <ele>115.8</ele>
        <time>2021-05-02T08:58:43Z</time>
      </trkpt>
      <trkpt lat="49.4483" lon="1.11905">
        <ele>116.6</ele>
        <time>2021-05-02T08:58:45Z</time>
      </trkpt>
      <trkpt lat="49.44836" lon="1.11899">
        <ele>117.4</ele>
        <time>2021-05-02T08:58:46Z</time>
      </trkpt>
      <trkpt lat="49.4484" lon="1.11894">
        <ele>117.9</ele>
        <time>2021-05-02T08:58:47Z</time>
      </trkpt>
      <trkpt lat="49.44843" lon="1.11889">
        <ele>118.4</ele>
        <time>2021-05-02T08:58:48Z</time>
      </trkpt>
      <trkpt lat="49.44848" lon="1.11884">
        <ele>119.1</ele>
        <time>2021-05-02T08:58:49Z</time>
      </trkpt>
      <trkpt lat="49.44852" lon="1.11879">
        <ele>119.7</ele>
        <time>2021-05-02T08:58:51Z</time>
      </trkpt>
      <trkpt lat="49.44856" lon="1.11875">
        <ele>120.3</ele>
        <time>2021-05-02T08:58:53Z</time>
      </trkpt>
      <trkpt lat="49.4486" lon="1.11873">
        <ele>120.7</ele>
        <time>2021-05-02T08:58:54Z</time>
      </trkpt>
      <trkpt lat="49.44862" lon="1.11871">
        <ele>121</ele>
        <time>2021-05-02T08:58:55Z</time>
      </trkpt>
      <trkpt lat="49.44866" lon="1.1187">
        <ele>121.5</ele>
        <time>2021-05-02T08:58:57Z</time>
      </trkpt>
      <trkpt lat="49.4487" lon="1.11871">
        <ele>121.9</ele>
        <time>2021-05-02T08:58:59Z</time>
      </trkpt>
      <trkpt lat="49.44872" lon="1.11872">
        <ele>122.2</ele>
        <time>2021-05-02T08:59:00Z</time>
      </trkpt>
      <trkpt lat="49.44873" lon="1.11872">
        <ele>122.4</ele>
        <time>2021-05-02T08:59:01Z</time>
      </trkpt>
      <trkpt lat="49.44875" lon="1.11872">
        <ele>122.9</ele>
        <time>2021-05-02T08:59:02Z</time>
      </trkpt>
      <trkpt lat="49.44876" lon="1.11872">
        <ele>122.9</ele>
        <time>2021-05-02T08:59:04Z</time>
      </trkpt>
      <trkpt lat="49.44877" lon="1.11872">
        <ele>122.9</ele>
        <time>2021-05-02T08:59:05Z</time>
      </trkpt>
      <trkpt lat="49.44878" lon="1.11871">
        <ele>122.9</ele>
        <time>2021-05-02T08:59:07Z</time>
      </trkpt>
      <trkpt lat="49.44878" lon="1.11871">
        <ele>122.9</ele>
        <time>2021-05-02T08:59:08Z</time>
      </trkpt>
      <trkpt lat="49.44879" lon="1.11871">
        <ele>122.9</ele>
        <time>2021-05-02T08:59:09Z</time>
      </trkpt>
      <trkpt lat="49.4488" lon="1.1187">
        <ele>123</ele>
        <time>2021-05-02T08:59:10Z</time>
      </trkpt>
      <trkpt lat="49.44881" lon="1.1187">
        <ele>123</ele>
        <time>2021-05-02T08:59:12Z</time>
      </trkpt>
      <trkpt lat="49.44882" lon="1.1187">
        <ele>123</ele>
        <time>2021-05-02T08:59:14Z</time>
      </trkpt>
      <trkpt lat="49.44882" lon="1.11869">
        <ele>123</ele>
        <time>2021-05-02T08:59:16Z</time>
      </trkpt>
      <trkpt lat="49.44883" lon="1.11869">
        <ele>123</ele>
        <time>2021-05-02T08:59:17Z</time>
      </trkpt>
      <trkpt lat="49.44884" lon="1.11869">
        <ele>123</ele>
        <time>2021-05-02T08:59:18Z</time>
      </trkpt>
      <trkpt lat="49.44885" lon="1.11868">
        <ele>123</ele>
        <time>2021-05-02T08:59:19Z</time>
      </trkpt>
      <trkpt lat="49.44887" lon="1.11863">
        <ele>123</ele>
        <time>2021-05-02T08:59:21Z</time>
      </trkpt>
      <trkpt lat="49.44887" lon="1.11859">
        <ele>123.1</ele>
        <time>2021-05-02T08:59:22Z</time>
      </trkpt>
      <trkpt lat="49.44887" lon="1.11857">
        <ele>123.1</ele>
        <time>2021-05-02T08:59:23Z</time>
      </trkpt>
      <trkpt lat="49.44887" lon="1.11848">
        <ele>123.2</ele>
        <time>2021-05-02T08:59:25Z</time>
      </trkpt>
      <trkpt lat="49.44887" lon="1.11846">
        <ele>123.2</ele>
        <time>2021-05-02T08:59:26Z</time>
      </trkpt>
      <trkpt lat="49.44887" lon="1.11844">
        <ele>123.2</ele>
        <time>2021-05-02T08:59:27Z</time>
      </trkpt>
      <trkpt lat="49.44887" lon="1.11842">
        <ele>123.2</ele>
        <time>2021-05-02T08:59:29Z</time>
      </trkpt>
      <trkpt lat="49.44888" lon="1.11839">
        <ele>123.3</ele>
        <time>2021-05-02T08:59:31Z</time>
      </trkpt>
      <trkpt lat="49.44889" lon="1.11839">
        <ele>123.3</ele>
        <time>2021-05-02T08:59:33Z</time>
      </trkpt>
      <trkpt lat="49.44889" lon="1.11838">
        <ele>123.3</ele>
        <time>2021-05-02T08:59:34Z</time>
      </trkpt>
      <trkpt lat="49.4489" lon="1.11837">
        <ele>123.3</ele>
        <time>2021-05-02T08:59:35Z</time>
      </trkpt>
      <trkpt lat="49.44891" lon="1.11836">
        <ele>123.3</ele>
        <time>2021-05-02T08:59:36Z</time>
      </trkpt>
      <trkpt lat="49.44891" lon="1.11825">
        <ele>123.3</ele>
        <time>2021-05-02T08:59:39Z</time>
      </trkpt>
      <trkpt lat="49.44891" lon="1.11822">
        <ele>123.3</ele>
        <time>2021-05-02T08:59:40Z</time>
      </trkpt>
      <trkpt lat="49.44889" lon="1.11817">
        <ele>123.3</ele>
        <time>2021-05-02T08:59:42Z</time>
      </trkpt>
      <trkpt lat="49.44888" lon="1.11807">
        <ele>123.2</ele>
        <time>2021-05-02T08:59:44Z</time>
      </trkpt>
      <trkpt lat="49.44887" lon="1.11803">
        <ele>123</ele>
        <time>2021-05-02T08:59:45Z</time>
      </trkpt>
      <trkpt lat="49.44886" lon="1.11795">
        <ele>122.6</ele>
        <time>2021-05-02T08:59:47Z</time>
      </trkpt>
      <trkpt lat="49.44882" lon="1.11769">
        <ele>121.3</ele>
        <time>2021-05-02T08:59:48Z</time>
      </trkpt>
      <trkpt lat="49.44879" lon="1.11746">
        <ele>120.2</ele>
        <time>2021-05-02T08:59:50Z</time>
      </trkpt>
      <trkpt lat="49.44873" lon="1.11717">
        <ele>118.9</ele>
        <time>2021-05-02T08:59:52Z</time>
      </trkpt>
      <trkpt lat="49.44872" lon="1.11705">
        <ele>118.4</ele>
        <time>2021-05-02T08:59:53Z</time>
      </trkpt>
      <trkpt lat="49.4487" lon="1.11683">
        <ele>117.6</ele>
        <time>2021-05-02T08:59:55Z</time>
      </trkpt>
      <trkpt lat="49.4487" lon="1.11672">
        <ele>117.1</ele>
        <time>2021-05-02T08:59:56Z</time>
      </trkpt>
      <trkpt lat="49.44869" lon="1.11661">
        <ele>116.7</ele>
        <time>2021-05-02T08:59:57Z</time>
      </trkpt>
      <trkpt lat="49.44869" lon="1.11649">
        <ele>116.2</ele>
        <time>2021-05-02T08:59:58Z</time>
      </trkpt>
      <trkpt lat="49.4487" lon="1.11638">
        <ele>115.8</ele>
        <time>2021-05-02T08:59:59Z</time>
      </trkpt>
      <trkpt lat="49.44876" lon="1.11616">
        <ele>114.8</ele>
        <time>2021-05-02T09:00:01Z</time>
      </trkpt>
      <trkpt lat="49.44882" lon="1.11594">
        <ele>113.8</ele>
        <time>2021-05-02T09:00:03Z</time>
      </trkpt>
      <trkpt lat="49.44885" lon="1.11583">
        <ele>113.2</ele>
        <time>2021-05-02T09:00:04Z</time>
      </trkpt>
      <trkpt lat="49.44888" lon="1.11571">
        <ele>112.7</ele>
        <time>2021-05-02T09:00:05Z</time>
      </trkpt>
      <trkpt lat="49.44897" lon="1.11549">
        <ele>111.6</ele>
        <time>2021-05-02T09:00:07Z</time>
      </trkpt>
      <trkpt lat="49.44902" lon="1.11539">
        <ele>111.1</ele>
        <time>2021-05-02T09:00:08Z</time>
      </trkpt>
      <trkpt lat="49.44912" lon="1.11519">
        <ele>110</ele>
        <time>2021-05-02T09:00:10Z</time>
      </trkpt>
      <trkpt lat="49.44921" lon="1.11502">
        <ele>109.2</ele>
        <time>2021-05-02T09:00:12Z</time>
      </trkpt>
      <trkpt lat="49.44924" lon="1.11493">
        <ele>108.8</ele>
        <time>2021-05-02T09:00:13Z</time>
      </trkpt>
      <trkpt lat="49.44929" lon="1.1148">
        <ele>108.2</ele>
        <time>2021-05-02T09:00:15Z</time>
      </trkpt>
      <trkpt lat="49.44937" lon="1.11472">
        <ele>107.6</ele>
        <time>2021-05-02T09:00:17Z</time>
      </trkpt>
      <trkpt lat="49.4494" lon="1.11468">
        <ele>107.3</ele>
        <time>2021-05-02T09:00:18Z</time>
      </trkpt>
      <trkpt lat="49.44943" lon="1.11462">
        <ele>107</ele>
        <time>2021-05-02T09:00:20Z</time>
      </trkpt>
      <trkpt lat="49.44943" lon="1.11459">
        <ele>106.8</ele>
        <time>2021-05-02T09:00:21Z</time>
      </trkpt>
      <trkpt lat="49.44943" lon="1.11458">
        <ele>106.8</ele>
        <time>2021-05-02T09:00:22Z</time>
      </trkpt>
      <trkpt lat="49.44944" lon="1.11457">
        <ele>106.7</ele>
        <time>2021-05-02T09:00:23Z</time>
      </trkpt>
      <trkpt lat="49.44944" lon="1.11456">
        <ele>106.6</ele>
        <time>2021-05-02T09:00:25Z</time>
      </trkpt>
      <trkpt lat="49.44944" lon="1.11454">
        <ele>106.6</ele>
        <time>2021-05-02T09:00:27Z</time>
      </trkpt>
      <trkpt lat="49.44944" lon="1.11453">
        <ele>106.5</ele>
        <time>2021-05-02T09:00:28Z</time>
      </trkpt>
      <trkpt lat="49.44944" lon="1.11452">
        <ele>106.5</ele>
        <time>2021-05-02T09:00:29Z</time>
      </trkpt>
      <trkpt lat="49.44941" lon="1.11441">
        <ele>105.9</ele>
        <time>2021-05-02T09:00:31Z</time>
      </trkpt>
      <trkpt lat="49.44937" lon="1.11446">
        <ele>106.2</ele>
        <time>2021-05-02T09:00:33Z</time>
      </trkpt>
      <trkpt lat="49.44935" lon="1.11452">
        <ele>106.6</ele>
        <time>2021-05-02T09:00:34Z</time>
      </trkpt>
      <trkpt lat="49.44932" lon="1.11459">
        <ele>107</ele>
        <time>2021-05-02T09:00:35Z</time>
      </trkpt>
      <trkpt lat="49.44929" lon="1.11466">
        <ele>107.5</ele>
        <time>2021-05-02T09:00:36Z</time>
      </trkpt>
      <trkpt lat="49.44925" lon="1.11472">
        <ele>107.9</ele>
        <time>2021-05-02T09:00:37Z</time>
      </trkpt>
      <trkpt lat="49.44918" lon="1.11478">
        <ele>108.5</ele>
        <time>2021-05-02T09:00:38Z</time>
      </trkpt>
      <trkpt lat="49.44916" lon="1.11484">
        <ele>108.8</ele>
        <time>2021-05-02T09:00:39Z</time>
      </trkpt>
      <trkpt lat="49.44912" lon="1.11488">
        <ele>109</ele>
        <time>2021-05-02T09:00:40Z</time>
      </trkpt>
      <trkpt lat="49.4491" lon="1.11492">
        <ele>109.3</ele>
        <time>2021-05-02T09:00:41Z</time>
      </trkpt>
      <trkpt lat="49.44906" lon="1.115">
        <ele>109.7</ele>
        <time>2021-05-02T09:00:43Z</time>
      </trkpt>
      <trkpt lat="49.449" lon="1.11508">
        <ele>110.1</ele>
        <time>2021-05-02T09:00:44Z</time>
      </trkpt>
      <trkpt lat="49.44895" lon="1.11515">
        <ele>110.6</ele>
        <time>2021-05-02T09:00:45Z</time>
      </trkpt>
      <trkpt lat="49.44889" lon="1.11525">
        <ele>111.1</ele>
        <time>2021-05-02T09:00:47Z</time>
      </trkpt>
      <trkpt lat="49.44886" lon="1.11532">
        <ele>111.5</ele>
        <time>2021-05-02T09:00:48Z</time>
      </trkpt>
      <trkpt lat="49.44883" lon="1.11542">
        <ele>111.9</ele>
        <time>2021-05-02T09:00:50Z</time>
      </trkpt>
      <trkpt lat="49.44881" lon="1.11547">
        <ele>111.7</ele>
        <time>2021-05-02T09:00:51Z</time>
      </trkpt>
      <trkpt lat="49.44884" lon="1.11553">
        <ele>111.5</ele>
        <time>2021-05-02T09:00:53Z</time>
      </trkpt>
      <trkpt lat="49.44887" lon="1.11549">
        <ele>111.3</ele>
        <time>2021-05-02T09:00:55Z</time>
      </trkpt>
      <trkpt lat="49.44897" lon="1.11536">
        <ele>110.8</ele>
        <time>2021-05-02T09:00:57Z</time>
      </trkpt>
      <trkpt lat="49.44906" lon="1.11526">
        <ele>110.3</ele>
        <time>2021-05-02T09:00:58Z</time>
      </trkpt>
      <trkpt lat="49.44914" lon="1.11512">
        <ele>109.7</ele>
        <time>2021-05-02T09:01:00Z</time>
      </trkpt>
      <trkpt lat="49.44918" lon="1.11504">
        <ele>109.4</ele>
        <time>2021-05-02T09:01:01Z</time>
      </trkpt>
      <trkpt lat="49.44922" lon="1.11498">
        <ele>109</ele>
        <time>2021-05-02T09:01:02Z</time>
      </trkpt>
      <trkpt lat="49.44931" lon="1.11484">
        <ele>108.2</ele>
        <time>2021-05-02T09:01:04Z</time>
      </trkpt>
      <trkpt lat="49.44938" lon="1.11469">
        <ele>107.3</ele>
        <time>2021-05-02T09:01:06Z</time>
      </trkpt>
      <trkpt lat="49.44946" lon="1.11453">
        <ele>106.2</ele>
        <time>2021-05-02T09:01:08Z</time>
      </trkpt>
      <trkpt lat="49.4495" lon="1.11446">
        <ele>105.8</ele>
        <time>2021-05-02T09:01:09Z</time>
      </trkpt>
      <trkpt lat="49.44955" lon="1.11435">
        <ele>105.3</ele>
        <time>2021-05-02T09:01:11Z</time>
      </trkpt>
      <trkpt lat="49.44957" lon="1.11432">
        <ele>105.4</ele>
        <time>2021-05-02T09:01:12Z</time>
      </trkpt>
      <trkpt lat="49.44963" lon="1.11424">
        <ele>106.5</ele>
        <time>2021-05-02T09:01:14Z</time>
      </trkpt>
      <trkpt lat="49.44968" lon="1.1142">
        <ele>107.6</ele>
        <time>2021-05-02T09:01:16Z</time>
      </trkpt>
      <trkpt lat="49.44972" lon="1.1142">
        <ele>108.9</ele>
        <time>2021-05-02T09:01:17Z</time>
      </trkpt>
      <trkpt lat="49.44973" lon="1.1142">
        <ele>109.1</ele>
        <time>2021-05-02T09:01:18Z</time>
      </trkpt>
      <trkpt lat="49.44973" lon="1.1142">
        <ele>109.3</ele>
        <time>2021-05-02T09:01:20Z</time>
      </trkpt>
      <trkpt lat="49.44975" lon="1.11418">
        <ele>110</ele>
        <time>2021-05-02T09:01:22Z</time>
      </trkpt>
      <trkpt lat="49.44974" lon="1.11418">
        <ele>110.2</ele>
        <time>2021-05-02T09:01:23Z</time>
      </trkpt>
      <trkpt lat="49.44974" lon="1.11418">
        <ele>110.4</ele>
        <time>2021-05-02T09:01:24Z</time>
      </trkpt>
      <trkpt lat="49.44975" lon="1.11418">
        <ele>110.6</ele>
        <time>2021-05-02T09:01:25Z</time>
      </trkpt>
      <trkpt lat="49.44974" lon="1.11417">
        <ele>110.3</ele>
        <time>2021-05-02T09:01:26Z</time>
      </trkpt>
      <trkpt lat="49.44974" lon="1.11417">
        <ele>110.5</ele>
        <time>2021-05-02T09:01:27Z</time>
      </trkpt>
      <trkpt lat="49.44974" lon="1.11417">
        <ele>110.7</ele>
        <time>2021-05-02T09:01:29Z</time>
      </trkpt>
      <trkpt lat="49.44974" lon="1.11416">
        <ele>110.9</ele>
        <time>2021-05-02T09:01:30Z</time>
      </trkpt>
      <trkpt lat="49.44973" lon="1.11416">
        <ele>111.1</ele>
        <time>2021-05-02T09:01:32Z</time>
      </trkpt>
      <trkpt lat="49.44973" lon="1.11416">
        <ele>111.2</ele>
        <time>2021-05-02T09:01:33Z</time>
      </trkpt>
      <trkpt lat="49.44973" lon="1.11416">
        <ele>111.4</ele>
        <time>2021-05-02T09:01:34Z</time>
      </trkpt>
      <trkpt lat="49.44973" lon="1.11416">
        <ele>111.6</ele>
        <time>2021-05-02T09:01:36Z</time>
      </trkpt>
      <trkpt lat="49.44978" lon="1.1142">
        <ele>112.8</ele>
        <time>2021-05-02T09:01:44Z</time>
      </trkpt>
      <trkpt lat="49.44979" lon="1.11421">
        <ele>113</ele>
        <time>2021-05-02T09:01:45Z</time>
      </trkpt>
      <trkpt lat="49.44981" lon="1.11423">
        <ele>113.7</ele>
        <time>2021-05-02T09:01:46Z</time>
      </trkpt>
      <trkpt lat="49.44984" lon="1.11422">
        <ele>114.5</ele>
        <time>2021-05-02T09:01:47Z</time>
      </trkpt>
      <trkpt lat="49.44985" lon="1.11423">
        <ele>114.6</ele>
        <time>2021-05-02T09:01:48Z</time>
      </trkpt>
      <trkpt lat="49.44986" lon="1.11425">
        <ele>115.4</ele>
        <time>2021-05-02T09:01:49Z</time>
      </trkpt>
      <trkpt lat="49.44988" lon="1.11427">
        <ele>115.7</ele>
        <time>2021-05-02T09:01:51Z</time>
      </trkpt>
      <trkpt lat="49.4499" lon="1.11429">
        <ele>116.4</ele>
        <time>2021-05-02T09:01:52Z</time>
      </trkpt>
      <trkpt lat="49.44993" lon="1.11432">
        <ele>116.8</ele>
        <time>2021-05-02T09:01:53Z</time>
      </trkpt>
      <trkpt lat="49.44996" lon="1.11435">
        <ele>117.2</ele>
        <time>2021-05-02T09:01:54Z</time>
      </trkpt>
      <trkpt lat="49.45" lon="1.11437">
        <ele>117.7</ele>
        <time>2021-05-02T09:01:56Z</time>
      </trkpt>
      <trkpt lat="49.45002" lon="1.11438">
        <ele>117.9</ele>
        <time>2021-05-02T09:01:57Z</time>
      </trkpt>
      <trkpt lat="49.45005" lon="1.11434">
        <ele>118.3</ele>
        <time>2021-05-02T09:01:59Z</time>
      </trkpt>
      <trkpt lat="49.45007" lon="1.11433">
        <ele>118.5</ele>
        <time>2021-05-02T09:02:00Z</time>
      </trkpt>
      <trkpt lat="49.45008" lon="1.11431">
        <ele>118.7</ele>
        <time>2021-05-02T09:02:02Z</time>
      </trkpt>
      <trkpt lat="49.45007" lon="1.11428">
        <ele>118.9</ele>
        <time>2021-05-02T09:02:03Z</time>
      </trkpt>
      <trkpt lat="49.45006" lon="1.11427">
        <ele>119.1</ele>
        <time>2021-05-02T09:02:04Z</time>
      </trkpt>
      <trkpt lat="49.45004" lon="1.11433">
        <ele>119.6</ele>
        <time>2021-05-02T09:02:06Z</time>
      </trkpt>
      <trkpt lat="49.45002" lon="1.11434">
        <ele>119.8</ele>
        <time>2021-05-02T09:02:08Z</time>
      </trkpt>
      <trkpt lat="49.45003" lon="1.11436">
        <ele>120.1</ele>
        <time>2021-05-02T09:02:09Z</time>
      </trkpt>
      <trkpt lat="49.45004" lon="1.11436">
        <ele>120.1</ele>
        <time>2021-05-02T09:02:11Z</time>
      </trkpt>
      <trkpt lat="49.45003" lon="1.11436">
        <ele>120.2</ele>
        <time>2021-05-02T09:02:12Z</time>
      </trkpt>
      <trkpt lat="49.45003" lon="1.11435">
        <ele>120.2</ele>
        <time>2021-05-02T09:02:14Z</time>
      </trkpt>
      <trkpt lat="49.45004" lon="1.11435">
        <ele>120.3</ele>
        <time>2021-05-02T09:02:16Z</time>
      </trkpt>
      <trkpt lat="49.45004" lon="1.11435">
        <ele>120.3</ele>
        <time>2021-05-02T09:02:18Z</time>
      </trkpt>
      <trkpt lat="49.45004" lon="1.11435">
        <ele>120.4</ele>
        <time>2021-05-02T09:02:20Z</time>
      </trkpt>
      <trkpt lat="49.45007" lon="1.11435">
        <ele>120.7</ele>
        <time>2021-05-02T09:02:22Z</time>
      </trkpt>
      <trkpt lat="49.45008" lon="1.11436">
        <ele>120.8</ele>
        <time>2021-05-02T09:02:24Z</time>
      </trkpt>
      <trkpt lat="49.4501" lon="1.11437">
        <ele>121</ele>
        <time>2021-05-02T09:02:41Z</time>
      </trkpt>
      <trkpt lat="49.45008" lon="1.11438">
        <ele>121.2</ele>
        <time>2021-05-02T09:02:43Z</time>
      </trkpt>
      <trkpt lat="49.45008" lon="1.1144">
        <ele>121.4</ele>
        <time>2021-05-02T09:02:44Z</time>
      </trkpt>
      <trkpt lat="49.4501" lon="1.11444">
        <ele>121.7</ele>
        <time>2021-05-02T09:02:46Z</time>
      </trkpt>
      <trkpt lat="49.4501" lon="1.11446">
        <ele>121.9</ele>
        <time>2021-05-02T09:02:47Z</time>
      </trkpt>
      <trkpt lat="49.45012" lon="1.1145">
        <ele>122.2</ele>
        <time>2021-05-02T09:02:49Z</time>
      </trkpt>
      <trkpt lat="49.45014" lon="1.11454">
        <ele>122.7</ele>
        <time>2021-05-02T09:02:50Z</time>
      </trkpt>
      <trkpt lat="49.45015" lon="1.11456">
        <ele>122.8</ele>
        <time>2021-05-02T09:02:51Z</time>
      </trkpt>
      <trkpt lat="49.45017" lon="1.11461">
        <ele>123.3</ele>
        <time>2021-05-02T09:02:52Z</time>
      </trkpt>
      <trkpt lat="49.45021" lon="1.11466">
        <ele>123.8</ele>
        <time>2021-05-02T09:02:53Z</time>
      </trkpt>
      <trkpt lat="49.45024" lon="1.1147">
        <ele>124.3</ele>
        <time>2021-05-02T09:02:55Z</time>
      </trkpt>
      <trkpt lat="49.45028" lon="1.11476">
        <ele>124.9</ele>
        <time>2021-05-02T09:02:56Z</time>
      </trkpt>
      <trkpt lat="49.45032" lon="1.11481">
        <ele>125.7</ele>
        <time>2021-05-02T09:02:58Z</time>
      </trkpt>
      <trkpt lat="49.45034" lon="1.11484">
        <ele>126.2</ele>
        <time>2021-05-02T09:02:59Z</time>
      </trkpt>
      <trkpt lat="49.45037" lon="1.11489">
        <ele>126.8</ele>
        <time>2021-05-02T09:03:01Z</time>
      </trkpt>
      <trkpt lat="49.45039" lon="1.11492">
        <ele>127.3</ele>
        <time>2021-05-02T09:03:02Z</time>
      </trkpt>
      <trkpt lat="49.45042" lon="1.11495">
        <ele>127.8</ele>
        <time>2021-05-02T09:03:04Z</time>
      </trkpt>
      <trkpt lat="49.45043" lon="1.11496">
        <ele>128</ele>
        <time>2021-05-02T09:03:05Z</time>
      </trkpt>
      <trkpt lat="49.45044" lon="1.11497">
        <ele>128.2</ele>
        <time>2021-05-02T09:03:06Z</time>
      </trkpt>
      <trkpt lat="49.45045" lon="1.115">
        <ele>128.5</ele>
        <time>2021-05-02T09:03:08Z</time>
      </trkpt>
      <trkpt lat="49.45048" lon="1.11504">
        <ele>129.1</ele>
        <time>2021-05-02T09:03:09Z</time>
      </trkpt>
      <trkpt lat="49.45049" lon="1.11508">
        <ele>129.6</ele>
        <time>2021-05-02T09:03:11Z</time>
      </trkpt>
      <trkpt lat="49.45051" lon="1.11512">
        <ele>130.1</ele>
        <time>2021-05-02T09:03:12Z</time>
      </trkpt>
      <trkpt lat="49.45052" lon="1.11514">
        <ele>130.4</ele>
        <time>2021-05-02T09:03:13Z</time>
      </trkpt>
      <trkpt lat="49.45052" lon="1.11514">
        <ele>130.4</ele>
        <time>2021-05-02T09:03:15Z</time>
      </trkpt>
      <trkpt lat="49.45052" lon="1.11514">
        <ele>130.4</ele>
        <time>2021-05-02T09:03:17Z</time>
      </trkpt>
      <trkpt lat="49.45052" lon="1.11514">
        <ele>130.5</ele>
        <time>2021-05-02T09:03:18Z</time>
      </trkpt>
      <trkpt lat="49.45052" lon="1.11514">
        <ele>130.5</ele>
        <time>2021-05-02T09:03:20Z</time>
      </trkpt>
      <trkpt lat="49.45052" lon="1.11514">
        <ele>130.5</ele>
        <time>2021-05-02T09:03:21Z</time>
      </trkpt>
      <trkpt lat="49.45053" lon="1.11515">
        <ele>130.6</ele>
        <time>2021-05-02T09:03:22Z</time>
      </trkpt>
      <trkpt lat="49.45053" lon="1.11515">
        <ele>130.6</ele>
        <time>2021-05-02T09:03:24Z</time>
      </trkpt>
      <trkpt lat="49.4508" lon="1.11557">
        <ele>136.3</ele>
        <time>2021-05-02T09:03:41Z</time>
      </trkpt>
      <trkpt lat="49.45082" lon="1.11564">
        <ele>137</ele>
        <time>2021-05-02T09:03:42Z</time>
      </trkpt>
      <trkpt lat="49.45083" lon="1.11565">
        <ele>137.2</ele>
        <time>2021-05-02T09:03:43Z</time>
      </trkpt>
      <trkpt lat="49.45085" lon="1.11568">
        <ele>137.6</ele>
        <time>2021-05-02T09:03:45Z</time>
      </trkpt>
      <trkpt lat="49.45088" lon="1.11572">
        <ele>138</ele>
        <time>2021-05-02T09:03:47Z</time>
      </trkpt>
      <trkpt lat="49.45089" lon="1.11574">
        <ele>138.2</ele>
        <time>2021-05-02T09:03:48Z</time>
      </trkpt>
      <trkpt lat="49.4509" lon="1.11576">
        <ele>138.4</ele>
        <time>2021-05-02T09:03:49Z</time>
      </trkpt>
      <trkpt lat="49.45093" lon="1.11581">
        <ele>138.9</ele>
        <time>2021-05-02T09:03:51Z</time>
      </trkpt>
      <trkpt lat="49.45095" lon="1.11584">
        <ele>139.2</ele>
        <time>2021-05-02T09:03:52Z</time>
      </trkpt>
      <trkpt lat="49.45097" lon="1.11589">
        <ele>139.7</ele>
        <time>2021-05-02T09:03:54Z</time>
      </trkpt>
      <trkpt lat="49.45099" lon="1.11592">
        <ele>140</ele>
        <time>2021-05-02T09:03:55Z</time>
      </trkpt>
      <trkpt lat="49.45101" lon="1.11596">
        <ele>140.3</ele>
        <time>2021-05-02T09:03:56Z</time>
      </trkpt>
      <trkpt lat="49.45104" lon="1.11601">
        <ele>140.7</ele>
        <time>2021-05-02T09:03:58Z</time>
      </trkpt>
      <trkpt lat="49.45106" lon="1.11604">
        <ele>141</ele>
        <time>2021-05-02T09:03:59Z</time>
      </trkpt>
      <trkpt lat="49.45108" lon="1.11607">
        <ele>141.2</ele>
        <time>2021-05-02T09:04:00Z</time>
      </trkpt>
      <trkpt lat="49.45112" lon="1.11613">
        <ele>141.6</ele>
        <time>2021-05-02T09:04:02Z</time>
      </trkpt>
      <trkpt lat="49.45113" lon="1.11616">
        <ele>141.9</ele>
        <time>2021-05-02T09:04:03Z</time>
      </trkpt>
      <trkpt lat="49.45116" lon="1.1162">
        <ele>142.1</ele>
        <time>2021-05-02T09:04:05Z</time>
      </trkpt>
      <trkpt lat="49.45118" lon="1.11625">
        <ele>142.4</ele>
        <time>2021-05-02T09:04:06Z</time>
      </trkpt>
      <trkpt lat="49.4512" lon="1.11627">
        <ele>142.5</ele>
        <time>2021-05-02T09:04:07Z</time>
      </trkpt>
      <trkpt lat="49.45122" lon="1.1163">
        <ele>142.7</ele>
        <time>2021-05-02T09:04:08Z</time>
      </trkpt>
      <trkpt lat="49.45122" lon="1.11631">
        <ele>142.7</ele>
        <time>2021-05-02T09:04:09Z</time>
      </trkpt>
      <trkpt lat="49.45124" lon="1.11634">
        <ele>142.9</ele>
        <time>2021-05-02T09:04:11Z</time>
      </trkpt>
      <trkpt lat="49.45126" lon="1.11638">
        <ele>143.1</ele>
        <time>2021-05-02T09:04:12Z</time>
      </trkpt>
      <trkpt lat="49.45128" lon="1.11642">
        <ele>143.2</ele>
        <time>2021-05-02T09:04:14Z</time>
      </trkpt>
      <trkpt lat="49.4513" lon="1.11647">
        <ele>143.4</ele>
        <time>2021-05-02T09:04:16Z</time>
      </trkpt>
      <trkpt lat="49.45132" lon="1.11651">
        <ele>143.5</ele>
        <time>2021-05-02T09:04:17Z</time>
      </trkpt>
      <trkpt lat="49.45134" lon="1.11656">
        <ele>143.7</ele>
        <time>2021-05-02T09:04:18Z</time>
      </trkpt>
      <trkpt lat="49.45135" lon="1.11657">
        <ele>143.7</ele>
        <time>2021-05-02T09:04:19Z</time>
      </trkpt>
      <trkpt lat="49.45138" lon="1.11663">
        <ele>144</ele>
        <time>2021-05-02T09:04:21Z</time>
      </trkpt>
      <trkpt lat="49.45139" lon="1.11666">
        <ele>144</ele>
        <time>2021-05-02T09:04:22Z</time>
      </trkpt>
      <trkpt lat="49.4514" lon="1.11668">
        <ele>144.1</ele>
        <time>2021-05-02T09:04:23Z</time>
      </trkpt>
      <trkpt lat="49.45142" lon="1.11673">
        <ele>144.2</ele>
        <time>2021-05-02T09:04:25Z</time>
      </trkpt>
      <trkpt lat="49.45143" lon="1.11675">
        <ele>144.3</ele>
        <time>2021-05-02T09:04:26Z</time>
      </trkpt>
      <trkpt lat="49.45143" lon="1.1168">
        <ele>144.4</ele>
        <time>2021-05-02T09:04:28Z</time>
      </trkpt>
      <trkpt lat="49.45144" lon="1.11681">
        <ele>144.5</ele>
        <time>2021-05-02T09:04:29Z</time>
      </trkpt>
      <trkpt lat="49.45146" lon="1.11681">
        <ele>144.5</ele>
        <time>2021-05-02T09:04:31Z</time>
      </trkpt>
      <trkpt lat="49.45148" lon="1.11683">
        <ele>144.6</ele>
        <time>2021-05-02T09:04:33Z</time>
      </trkpt>
      <trkpt lat="49.45149" lon="1.11684">
        <ele>144.6</ele>
        <time>2021-05-02T09:04:34Z</time>
      </trkpt>
      <trkpt lat="49.45151" lon="1.11683">
        <ele>144.7</ele>
        <time>2021-05-02T09:04:36Z</time>
      </trkpt>
      <trkpt lat="49.4515" lon="1.11683">
        <ele>144.7</ele>
        <time>2021-05-02T09:04:37Z</time>
      </trkpt>
      <trkpt lat="49.45151" lon="1.11683">
        <ele>144.7</ele>
        <time>2021-05-02T09:04:39Z</time>
      </trkpt>
      <trkpt lat="49.45151" lon="1.11683">
        <ele>144.7</ele>
        <time>2021-05-02T09:04:40Z</time>
      </trkpt>
      <trkpt lat="49.45152" lon="1.11685">
        <ele>144.8</ele>
        <time>2021-05-02T09:04:41Z</time>
      </trkpt>
      <trkpt lat="49.45153" lon="1.11687">
        <ele>144.8</ele>
        <time>2021-05-02T09:04:43Z</time>
      </trkpt>
      <trkpt lat="49.45154" lon="1.11687">
        <ele>144.8</ele>
        <time>2021-05-02T09:04:44Z</time>
      </trkpt>
      <trkpt lat="49.45155" lon="1.11691">
        <ele>144.9</ele>
        <time>2021-05-02T09:04:46Z</time>
      </trkpt>
      <trkpt lat="49.45157" lon="1.11697">
        <ele>145</ele>
        <time>2021-05-02T09:04:47Z</time>
      </trkpt>
      <trkpt lat="49.4516" lon="1.11702">
        <ele>145.2</ele>
        <time>2021-05-02T09:04:49Z</time>
      </trkpt>
      <trkpt lat="49.45161" lon="1.1171">
        <ele>145.3</ele>
        <time>2021-05-02T09:04:51Z</time>
      </trkpt>
      <trkpt lat="49.45161" lon="1.11717">
        <ele>145.4</ele>
        <time>2021-05-02T09:04:53Z</time>
      </trkpt>
      <trkpt lat="49.45161" lon="1.11719">
        <ele>145.5</ele>
        <time>2021-05-02T09:04:54Z</time>
      </trkpt>
      <trkpt lat="49.45161" lon="1.1172">
        <ele>145.5</ele>
        <time>2021-05-02T09:04:56Z</time>
      </trkpt>
      <trkpt lat="49.45161" lon="1.11721">
        <ele>145.5</ele>
        <time>2021-05-02T09:04:57Z</time>
      </trkpt>
      <trkpt lat="49.45161" lon="1.11722">
        <ele>145.5</ele>
        <time>2021-05-02T09:04:58Z</time>
      </trkpt>
      <trkpt lat="49.45161" lon="1.11723">
        <ele>145.5</ele>
        <time>2021-05-02T09:04:59Z</time>
      </trkpt>
      <trkpt lat="49.45162" lon="1.11728">
        <ele>145.6</ele>
        <time>2021-05-02T09:05:01Z</time>
      </trkpt>
      <trkpt lat="49.45165" lon="1.11737">
        <ele>145.8</ele>
        <time>2021-05-02T09:05:03Z</time>
      </trkpt>
      <trkpt lat="49.45165" lon="1.1174">
        <ele>145.9</ele>
        <time>2021-05-02T09:05:04Z</time>
      </trkpt>
      <trkpt lat="49.45171" lon="1.11751">
        <ele>146.1</ele>
        <time>2021-05-02T09:05:07Z</time>
      </trkpt>
      <trkpt lat="49.45184" lon="1.1177">
        <ele>146.6</ele>
        <time>2021-05-02T09:05:09Z</time>
      </trkpt>
      <trkpt lat="49.45188" lon="1.11776">
        <ele>146.7</ele>
        <time>2021-05-02T09:05:10Z</time>
      </trkpt>
      <trkpt lat="49.45192" lon="1.11781">
        <ele>146.9</ele>
        <time>2021-05-02T09:05:12Z</time>
      </trkpt>
      <trkpt lat="49.45194" lon="1.11783">
        <ele>146.9</ele>
        <time>2021-05-02T09:05:14Z</time>
      </trkpt>
      <trkpt lat="49.45202" lon="1.11805">
        <ele>147.4</ele>
        <time>2021-05-02T09:05:17Z</time>
      </trkpt>
      <trkpt lat="49.45207" lon="1.11815">
        <ele>147.6</ele>
        <time>2021-05-02T09:05:19Z</time>
      </trkpt>
      <trkpt lat="49.45208" lon="1.11819">
        <ele>147.7</ele>
        <time>2021-05-02T09:05:20Z</time>
      </trkpt>
      <trkpt lat="49.4521" lon="1.11823">
        <ele>147.8</ele>
        <time>2021-05-02T09:05:21Z</time>
      </trkpt>
      <trkpt lat="49.45212" lon="1.11828">
        <ele>147.9</ele>
        <time>2021-05-02T09:05:22Z</time>
      </trkpt>
      <trkpt lat="49.45213" lon="1.1183">
        <ele>147.9</ele>
        <time>2021-05-02T09:05:23Z</time>
      </trkpt>
      <trkpt lat="49.45215" lon="1.11836">
        <ele>148</ele>
        <time>2021-05-02T09:05:25Z</time>
      </trkpt>
      <trkpt lat="49.45216" lon="1.11841">
        <ele>148.2</ele>
        <time>2021-05-02T09:05:26Z</time>
      </trkpt>
      <trkpt lat="49.45217" lon="1.11842">
        <ele>148.2</ele>
        <time>2021-05-02T09:05:27Z</time>
      </trkpt>
      <trkpt lat="49.45219" lon="1.1185">
        <ele>148.4</ele>
        <time>2021-05-02T09:05:29Z</time>
      </trkpt>
      <trkpt lat="49.45222" lon="1.11858">
        <ele>148.5</ele>
        <time>2021-05-02T09:05:31Z</time>
      </trkpt>
      <trkpt lat="49.45224" lon="1.11864">
        <ele>148.7</ele>
        <time>2021-05-02T09:05:33Z</time>
      </trkpt>
      <trkpt lat="49.45228" lon="1.11871">
        <ele>148.8</ele>
        <time>2021-05-02T09:05:34Z</time>
      </trkpt>
      <trkpt lat="49.45232" lon="1.11874">
        <ele>148.9</ele>
        <time>2021-05-02T09:05:35Z</time>
      </trkpt>
      <trkpt lat="49.45239" lon="1.11874">
        <ele>148.9</ele>
        <time>2021-05-02T09:05:37Z</time>
      </trkpt>
      <trkpt lat="49.45241" lon="1.11873">
        <ele>148.9</ele>
        <time>2021-05-02T09:05:38Z</time>
      </trkpt>
      <trkpt lat="49.45245" lon="1.11871">
        <ele>149</ele>
        <time>2021-05-02T09:05:40Z</time>
      </trkpt>
      <trkpt lat="49.45248" lon="1.11869">
        <ele>149</ele>
        <time>2021-05-02T09:05:41Z</time>
      </trkpt>
      <trkpt lat="49.45249" lon="1.11869">
        <ele>149</ele>
        <time>2021-05-02T09:05:42Z</time>
      </trkpt>
      <trkpt lat="49.45254" lon="1.11866">
        <ele>149</ele>
        <time>2021-05-02T09:05:44Z</time>
      </trkpt>
      <trkpt lat="49.45258" lon="1.11863">
        <ele>149.1</ele>
        <time>2021-05-02T09:05:45Z</time>
      </trkpt>
      <trkpt lat="49.45263" lon="1.11859">
        <ele>149.2</ele>
        <time>2021-05-02T09:05:47Z</time>
      </trkpt>
      <trkpt lat="49.45268" lon="1.11857">
        <ele>149.3</ele>
        <time>2021-05-02T09:05:48Z</time>
      </trkpt>
      <trkpt lat="49.45272" lon="1.11856">
        <ele>149.3</ele>
        <time>2021-05-02T09:05:49Z</time>
      </trkpt>
      <trkpt lat="49.45278" lon="1.11855">
        <ele>149.4</ele>
        <time>2021-05-02T09:05:51Z</time>
      </trkpt>
      <trkpt lat="49.45282" lon="1.11853">
        <ele>149.5</ele>
        <time>2021-05-02T09:05:53Z</time>
      </trkpt>
      <trkpt lat="49.45285" lon="1.11852">
        <ele>149.5</ele>
        <time>2021-05-02T09:05:54Z</time>
      </trkpt>
      <trkpt lat="49.45289" lon="1.1185">
        <ele>149.6</ele>
        <time>2021-05-02T09:05:55Z</time>
      </trkpt>
      <trkpt lat="49.45291" lon="1.1185">
        <ele>149.7</ele>
        <time>2021-05-02T09:05:56Z</time>
      </trkpt>
      <trkpt lat="49.45295" lon="1.11847">
        <ele>149.8</ele>
        <time>2021-05-02T09:05:58Z</time>
      </trkpt>
      <trkpt lat="49.45297" lon="1.11847">
        <ele>149.8</ele>
        <time>2021-05-02T09:06:00Z</time>
      </trkpt>
      <trkpt lat="49.45297" lon="1.11848">
        <ele>149.8</ele>
        <time>2021-05-02T09:06:01Z</time>
      </trkpt>
      <trkpt lat="49.45297" lon="1.11849">
        <ele>149.8</ele>
        <time>2021-05-02T09:06:02Z</time>
      </trkpt>
      <trkpt lat="49.45297" lon="1.11849">
        <ele>149.8</ele>
        <time>2021-05-02T09:06:03Z</time>
      </trkpt>
      <trkpt lat="49.45297" lon="1.11849">
        <ele>149.8</ele>
        <time>2021-05-02T09:06:04Z</time>
      </trkpt>
      <trkpt lat="49.45298" lon="1.11849">
        <ele>149.8</ele>
        <time>2021-05-02T09:06:06Z</time>
      </trkpt>
      <trkpt lat="49.45301" lon="1.11846">
        <ele>149.9</ele>
        <time>2021-05-02T09:06:07Z</time>
      </trkpt>
      <trkpt lat="49.45306" lon="1.11842">
        <ele>150</ele>
        <time>2021-05-02T09:06:08Z</time>
      </trkpt>
      <trkpt lat="49.45313" lon="1.11839">
        <ele>150.1</ele>
        <time>2021-05-02T09:06:10Z</time>
      </trkpt>
      <trkpt lat="49.4532" lon="1.11834">
        <ele>150.3</ele>
        <time>2021-05-02T09:06:11Z</time>
      </trkpt>
      <trkpt lat="49.45326" lon="1.11831">
        <ele>150.4</ele>
        <time>2021-05-02T09:06:12Z</time>
      </trkpt>
      <trkpt lat="49.4533" lon="1.11828">
        <ele>150.4</ele>
        <time>2021-05-02T09:06:13Z</time>
      </trkpt>
      <trkpt lat="49.45335" lon="1.11824">
        <ele>150.4</ele>
        <time>2021-05-02T09:06:15Z</time>
      </trkpt>
      <trkpt lat="49.45339" lon="1.11821">
        <ele>150.4</ele>
        <time>2021-05-02T09:06:16Z</time>
      </trkpt>
      <trkpt lat="49.45342" lon="1.11818">
        <ele>150.3</ele>
        <time>2021-05-02T09:06:17Z</time>
      </trkpt>
      <trkpt lat="49.45345" lon="1.11816">
        <ele>150.3</ele>
        <time>2021-05-02T09:06:18Z</time>
      </trkpt>
      <trkpt lat="49.45349" lon="1.11813">
        <ele>150.3</ele>
        <time>2021-05-02T09:06:19Z</time>
      </trkpt>
      <trkpt lat="49.45353" lon="1.1181">
        <ele>150.3</ele>
        <time>2021-05-02T09:06:20Z</time>
      </trkpt>
      <trkpt lat="49.45357" lon="1.11807">
        <ele>150.3</ele>
        <time>2021-05-02T09:06:22Z</time>
      </trkpt>
      <trkpt lat="49.4536" lon="1.11804">
        <ele>150.3</ele>
        <time>2021-05-02T09:06:23Z</time>
      </trkpt>
      <trkpt lat="49.45364" lon="1.118">
        <ele>150.3</ele>
        <time>2021-05-02T09:06:24Z</time>
      </trkpt>
      <trkpt lat="49.45367" lon="1.11798">
        <ele>150.3</ele>
        <time>2021-05-02T09:06:25Z</time>
      </trkpt>
      <trkpt lat="49.45371" lon="1.11795">
        <ele>150.4</ele>
        <time>2021-05-02T09:06:27Z</time>
      </trkpt>
      <trkpt lat="49.45374" lon="1.11791">
        <ele>150.4</ele>
        <time>2021-05-02T09:06:28Z</time>
      </trkpt>
      <trkpt lat="49.45379" lon="1.11789">
        <ele>150.5</ele>
        <time>2021-05-02T09:06:30Z</time>
      </trkpt>
      <trkpt lat="49.45384" lon="1.11788">
        <ele>150.5</ele>
        <time>2021-05-02T09:06:31Z</time>
      </trkpt>
      <trkpt lat="49.45388" lon="1.11787">
        <ele>150.6</ele>
        <time>2021-05-02T09:06:33Z</time>
      </trkpt>
      <trkpt lat="49.45391" lon="1.11785">
        <ele>150.6</ele>
        <time>2021-05-02T09:06:34Z</time>
      </trkpt>
      <trkpt lat="49.45396" lon="1.11787">
        <ele>150.6</ele>
        <time>2021-05-02T09:06:35Z</time>
      </trkpt>
      <trkpt lat="49.45399" lon="1.11786">
        <ele>150.7</ele>
        <time>2021-05-02T09:06:36Z</time>
      </trkpt>
      <trkpt lat="49.45405" lon="1.11777">
        <ele>150.7</ele>
        <time>2021-05-02T09:06:38Z</time>
      </trkpt>
      <trkpt lat="49.45411" lon="1.11771">
        <ele>150.8</ele>
        <time>2021-05-02T09:06:39Z</time>
      </trkpt>
      <trkpt lat="49.45415" lon="1.11767">
        <ele>150.8</ele>
        <time>2021-05-02T09:06:40Z</time>
      </trkpt>
      <trkpt lat="49.4542" lon="1.11763">
        <ele>150.9</ele>
        <time>2021-05-02T09:06:41Z</time>
      </trkpt>
      <trkpt lat="49.45425" lon="1.1176">
        <ele>150.9</ele>
        <time>2021-05-02T09:06:43Z</time>
      </trkpt>
      <trkpt lat="49.45431" lon="1.11757">
        <ele>151</ele>
        <time>2021-05-02T09:06:44Z</time>
      </trkpt>
      <trkpt lat="49.45435" lon="1.11756">
        <ele>151</ele>
        <time>2021-05-02T09:06:45Z</time>
      </trkpt>
      <trkpt lat="49.45439" lon="1.11754">
        <ele>151</ele>
        <time>2021-05-02T09:06:46Z</time>
      </trkpt>
      <trkpt lat="49.45441" lon="1.11753">
        <ele>151</ele>
        <time>2021-05-02T09:06:47Z</time>
      </trkpt>
      <trkpt lat="49.45444" lon="1.11751">
        <ele>151</ele>
        <time>2021-05-02T09:06:49Z</time>
      </trkpt>
      <trkpt lat="49.45441" lon="1.11753">
        <ele>150.9</ele>
        <time>2021-05-02T09:06:51Z</time>
      </trkpt>
      <trkpt lat="49.4544" lon="1.11753">
        <ele>150.8</ele>
        <time>2021-05-02T09:06:52Z</time>
      </trkpt>
      <trkpt lat="49.45439" lon="1.11753">
        <ele>150.8</ele>
        <time>2021-05-02T09:06:54Z</time>
      </trkpt>
      <trkpt lat="49.45439" lon="1.11753">
        <ele>150.8</ele>
        <time>2021-05-02T09:06:55Z</time>
      </trkpt>
      <trkpt lat="49.45439" lon="1.11753">
        <ele>150.8</ele>
        <time>2021-05-02T09:06:57Z</time>
      </trkpt>
      <trkpt lat="49.45439" lon="1.11753">
        <ele>150.8</ele>
        <time>2021-05-02T09:06:58Z</time>
      </trkpt>
      <trkpt lat="49.4544" lon="1.11753">
        <ele>150.8</ele>
        <time>2021-05-02T09:07:00Z</time>
      </trkpt>
      <trkpt lat="49.4544" lon="1.11753">
        <ele>150.8</ele>
        <time>2021-05-02T09:07:01Z</time>
      </trkpt>
      <trkpt lat="49.45442" lon="1.11751">
        <ele>150.7</ele>
        <time>2021-05-02T09:07:02Z</time>
      </trkpt>
      <trkpt lat="49.45449" lon="1.11743">
        <ele>150.4</ele>
        <time>2021-05-02T09:07:04Z</time>
      </trkpt>
      <trkpt lat="49.45461" lon="1.11733">
        <ele>150</ele>
        <time>2021-05-02T09:07:06Z</time>
      </trkpt>
      <trkpt lat="49.45468" lon="1.11725">
        <ele>149.7</ele>
        <time>2021-05-02T09:07:07Z</time>
      </trkpt>
      <trkpt lat="49.45473" lon="1.11719">
        <ele>149.5</ele>
        <time>2021-05-02T09:07:08Z</time>
      </trkpt>
      <trkpt lat="49.45486" lon="1.11711">
        <ele>149.2</ele>
        <time>2021-05-02T09:07:10Z</time>
      </trkpt>
      <trkpt lat="49.45487" lon="1.11707">
        <ele>149.1</ele>
        <time>2021-05-02T09:07:11Z</time>
      </trkpt>
      <trkpt lat="49.45488" lon="1.11706">
        <ele>149</ele>
        <time>2021-05-02T09:07:12Z</time>
      </trkpt>
      <trkpt lat="49.45493" lon="1.11699">
        <ele>148.9</ele>
        <time>2021-05-02T09:07:14Z</time>
      </trkpt>
      <trkpt lat="49.45496" lon="1.11695">
        <ele>148.8</ele>
        <time>2021-05-02T09:07:15Z</time>
      </trkpt>
      <trkpt lat="49.45503" lon="1.11689">
        <ele>148.6</ele>
        <time>2021-05-02T09:07:16Z</time>
      </trkpt>
      <trkpt lat="49.4551" lon="1.11682">
        <ele>148.5</ele>
        <time>2021-05-02T09:07:18Z</time>
      </trkpt>
      <trkpt lat="49.45514" lon="1.11675">
        <ele>148.4</ele>
        <time>2021-05-02T09:07:19Z</time>
      </trkpt>
      <trkpt lat="49.45517" lon="1.11673">
        <ele>148.4</ele>
        <time>2021-05-02T09:07:20Z</time>
      </trkpt>
      <trkpt lat="49.45519" lon="1.11673">
        <ele>148.3</ele>
        <time>2021-05-02T09:07:21Z</time>
      </trkpt>
      <trkpt lat="49.4552" lon="1.11674">
        <ele>148.3</ele>
        <time>2021-05-02T09:07:22Z</time>
      </trkpt>
      <trkpt lat="49.45522" lon="1.11674">
        <ele>148.3</ele>
        <time>2021-05-02T09:07:23Z</time>
      </trkpt>
      <trkpt lat="49.45522" lon="1.11673">
        <ele>148.3</ele>
        <time>2021-05-02T09:07:25Z</time>
      </trkpt>
      <trkpt lat="49.45523" lon="1.11672">
        <ele>148.2</ele>
        <time>2021-05-02T09:07:26Z</time>
      </trkpt>
      <trkpt lat="49.45523" lon="1.11671">
        <ele>148.2</ele>
        <time>2021-05-02T09:07:28Z</time>
      </trkpt>
      <trkpt lat="49.45523" lon="1.11671">
        <ele>148.2</ele>
        <time>2021-05-02T09:07:29Z</time>
      </trkpt>
      <trkpt lat="49.45524" lon="1.1167">
        <ele>148.2</ele>
        <time>2021-05-02T09:07:31Z</time>
      </trkpt>
      <trkpt lat="49.45524" lon="1.11669">
        <ele>148.1</ele>
        <time>2021-05-02T09:07:32Z</time>
      </trkpt>
      <trkpt lat="49.45527" lon="1.11665">
        <ele>148</ele>
        <time>2021-05-02T09:07:33Z</time>
      </trkpt>
      <trkpt lat="49.4553" lon="1.11659">
        <ele>147.7</ele>
        <time>2021-05-02T09:07:34Z</time>
      </trkpt>
      <trkpt lat="49.45535" lon="1.1165">
        <ele>147.3</ele>
        <time>2021-05-02T09:07:36Z</time>
      </trkpt>
      <trkpt lat="49.45545" lon="1.11633">
        <ele>146.1</ele>
        <time>2021-05-02T09:07:37Z</time>
      </trkpt>
      <trkpt lat="49.45548" lon="1.11627">
        <ele>145.6</ele>
        <time>2021-05-02T09:07:38Z</time>
      </trkpt>
      <trkpt lat="49.45549" lon="1.1162">
        <ele>145.1</ele>
        <time>2021-05-02T09:07:40Z</time>
      </trkpt>
      <trkpt lat="49.45558" lon="1.11614">
        <ele>144</ele>
        <time>2021-05-02T09:07:41Z</time>
      </trkpt>
      <trkpt lat="49.4556" lon="1.1161">
        <ele>143.5</ele>
        <time>2021-05-02T09:07:42Z</time>
      </trkpt>
      <trkpt lat="49.45564" lon="1.11606">
        <ele>142.9</ele>
        <time>2021-05-02T09:07:44Z</time>
      </trkpt>
      <trkpt lat="49.45566" lon="1.11602">
        <ele>142.5</ele>
        <time>2021-05-02T09:07:46Z</time>
      </trkpt>
      <trkpt lat="49.45567" lon="1.11598">
        <ele>142.1</ele>
        <time>2021-05-02T09:07:47Z</time>
      </trkpt>
      <trkpt lat="49.45567" lon="1.11596">
        <ele>142</ele>
        <time>2021-05-02T09:07:49Z</time>
      </trkpt>
      <trkpt lat="49.45567" lon="1.11597">
        <ele>142</ele>
        <time>2021-05-02T09:07:50Z</time>
      </trkpt>
      <trkpt lat="49.45568" lon="1.11596">
        <ele>141.9</ele>
        <time>2021-05-02T09:07:52Z</time>
      </trkpt>
      <trkpt lat="49.4557" lon="1.11599">
        <ele>141.7</ele>
        <time>2021-05-02T09:07:54Z</time>
      </trkpt>
      <trkpt lat="49.4557" lon="1.11602">
        <ele>141.7</ele>
        <time>2021-05-02T09:07:56Z</time>
      </trkpt>
      <trkpt lat="49.4557" lon="1.11604">
        <ele>141.7</ele>
        <time>2021-05-02T09:07:57Z</time>
      </trkpt>
      <trkpt lat="49.45572" lon="1.11605">
        <ele>141.7</ele>
        <time>2021-05-02T09:07:58Z</time>
      </trkpt>
      <trkpt lat="49.45573" lon="1.11605">
        <ele>141.7</ele>
        <time>2021-05-02T09:07:59Z</time>
      </trkpt>
      <trkpt lat="49.45575" lon="1.11604">
        <ele>141.7</ele>
        <time>2021-05-02T09:08:00Z</time>
      </trkpt>
      <trkpt lat="49.45579" lon="1.11603">
        <ele>141.6</ele>
        <time>2021-05-02T09:08:02Z</time>
      </trkpt>
      <trkpt lat="49.4558" lon="1.11602">
        <ele>141.6</ele>
        <time>2021-05-02T09:08:03Z</time>
      </trkpt>
      <trkpt lat="49.45581" lon="1.11602">
        <ele>141.6</ele>
        <time>2021-05-02T09:08:05Z</time>
      </trkpt>
      <trkpt lat="49.45582" lon="1.11601">
        <ele>141.6</ele>
        <time>2021-05-02T09:08:06Z</time>
      </trkpt>
      <trkpt lat="49.45582" lon="1.11601">
        <ele>141.6</ele>
        <time>2021-05-02T09:08:07Z</time>
      </trkpt>
      <trkpt lat="49.45626" lon="1.11609">
        <ele>139.2</ele>
        <time>2021-05-02T09:08:13Z</time>
      </trkpt>
      <trkpt lat="49.45624" lon="1.11605">
        <ele>139.2</ele>
        <time>2021-05-02T09:08:15Z</time>
      </trkpt>
      <trkpt lat="49.45631" lon="1.11595">
        <ele>139.4</ele>
        <time>2021-05-02T09:08:17Z</time>
      </trkpt>
      <trkpt lat="49.45636" lon="1.11589">
        <ele>139.5</ele>
        <time>2021-05-02T09:08:18Z</time>
      </trkpt>
      <trkpt lat="49.45638" lon="1.11585">
        <ele>139.6</ele>
        <time>2021-05-02T09:08:19Z</time>
      </trkpt>
      <trkpt lat="49.45643" lon="1.11577">
        <ele>139.7</ele>
        <time>2021-05-02T09:08:21Z</time>
      </trkpt>
      <trkpt lat="49.45647" lon="1.1157">
        <ele>139.9</ele>
        <time>2021-05-02T09:08:23Z</time>
      </trkpt>
      <trkpt lat="49.45648" lon="1.11566">
        <ele>140</ele>
        <time>2021-05-02T09:08:24Z</time>
      </trkpt>
      <trkpt lat="49.45652" lon="1.11559">
        <ele>140.1</ele>
        <time>2021-05-02T09:08:26Z</time>
      </trkpt>
      <trkpt lat="49.45655" lon="1.11554">
        <ele>140.3</ele>
        <time>2021-05-02T09:08:28Z</time>
      </trkpt>
      <trkpt lat="49.45657" lon="1.11551">
        <ele>140.3</ele>
        <time>2021-05-02T09:08:29Z</time>
      </trkpt>
      <trkpt lat="49.45659" lon="1.11546">
        <ele>140.4</ele>
        <time>2021-05-02T09:08:31Z</time>
      </trkpt>
      <trkpt lat="49.45661" lon="1.11545">
        <ele>140.5</ele>
        <time>2021-05-02T09:08:33Z</time>
      </trkpt>
      <trkpt lat="49.45661" lon="1.11545">
        <ele>140.5</ele>
        <time>2021-05-02T09:08:34Z</time>
      </trkpt>
      <trkpt lat="49.45662" lon="1.11544">
        <ele>140.5</ele>
        <time>2021-05-02T09:08:35Z</time>
      </trkpt>
      <trkpt lat="49.45662" lon="1.11542">
        <ele>140.5</ele>
        <time>2021-05-02T09:08:37Z</time>
      </trkpt>
      <trkpt lat="49.45663" lon="1.11542">
        <ele>140.6</ele>
        <time>2021-05-02T09:08:38Z</time>
      </trkpt>
      <trkpt lat="49.45664" lon="1.11541">
        <ele>140.6</ele>
        <time>2021-05-02T09:08:39Z</time>
      </trkpt>
      <trkpt lat="49.45665" lon="1.1154">
        <ele>140.6</ele>
        <time>2021-05-02T09:08:41Z</time>
      </trkpt>
      <trkpt lat="49.45668" lon="1.11537">
        <ele>140.7</ele>
        <time>2021-05-02T09:08:43Z</time>
      </trkpt>
      <trkpt lat="49.45671" lon="1.11532">
        <ele>140.8</ele>
        <time>2021-05-02T09:08:45Z</time>
      </trkpt>
      <trkpt lat="49.45673" lon="1.11528">
        <ele>140.9</ele>
        <time>2021-05-02T09:08:46Z</time>
      </trkpt>
      <trkpt lat="49.45677" lon="1.11521">
        <ele>141</ele>
        <time>2021-05-02T09:08:48Z</time>
      </trkpt>
      <trkpt lat="49.45679" lon="1.11515">
        <ele>141.2</ele>
        <time>2021-05-02T09:08:50Z</time>
      </trkpt>
      <trkpt lat="49.45681" lon="1.1151">
        <ele>141.3</ele>
        <time>2021-05-02T09:08:51Z</time>
      </trkpt>
      <trkpt lat="49.45684" lon="1.11506">
        <ele>141.4</ele>
        <time>2021-05-02T09:08:53Z</time>
      </trkpt>
      <trkpt lat="49.45684" lon="1.11506">
        <ele>141.4</ele>
        <time>2021-05-02T09:08:54Z</time>
      </trkpt>
      <trkpt lat="49.45686" lon="1.11504">
        <ele>141.5</ele>
        <time>2021-05-02T09:08:55Z</time>
      </trkpt>
      <trkpt lat="49.45686" lon="1.11503">
        <ele>141.5</ele>
        <time>2021-05-02T09:08:56Z</time>
      </trkpt>
      <trkpt lat="49.45687" lon="1.11502">
        <ele>141.5</ele>
        <time>2021-05-02T09:08:58Z</time>
      </trkpt>
      <trkpt lat="49.45687" lon="1.11502">
        <ele>141.5</ele>
        <time>2021-05-02T09:09:00Z</time>
      </trkpt>
      <trkpt lat="49.45687" lon="1.11502">
        <ele>141.5</ele>
        <time>2021-05-02T09:09:01Z</time>
      </trkpt>
      <trkpt lat="49.45694" lon="1.11492">
        <ele>141.9</ele>
        <time>2021-05-02T09:09:04Z</time>
      </trkpt>
      <trkpt lat="49.45696" lon="1.11485">
        <ele>142</ele>
        <time>2021-05-02T09:09:05Z</time>
      </trkpt>
      <trkpt lat="49.45702" lon="1.11472">
        <ele>142.2</ele>
        <time>2021-05-02T09:09:07Z</time>
      </trkpt>
      <trkpt lat="49.45706" lon="1.11463">
        <ele>142.3</ele>
        <time>2021-05-02T09:09:08Z</time>
      </trkpt>
      <trkpt lat="49.4571" lon="1.11453">
        <ele>142.4</ele>
        <time>2021-05-02T09:09:10Z</time>
      </trkpt>
      <trkpt lat="49.45711" lon="1.11447">
        <ele>142.5</ele>
        <time>2021-05-02T09:09:11Z</time>
      </trkpt>
      <trkpt lat="49.45714" lon="1.11442">
        <ele>142.5</ele>
        <time>2021-05-02T09:09:12Z</time>
      </trkpt>
      <trkpt lat="49.45716" lon="1.11436">
        <ele>142.5</ele>
        <time>2021-05-02T09:09:13Z</time>
      </trkpt>
      <trkpt lat="49.45717" lon="1.11432">
        <ele>142.6</ele>
        <time>2021-05-02T09:09:14Z</time>
      </trkpt>
      <trkpt lat="49.45717" lon="1.11426">
        <ele>142.6</ele>
        <time>2021-05-02T09:09:16Z</time>
      </trkpt>
      <trkpt lat="49.45718" lon="1.11421">
        <ele>142.7</ele>
        <time>2021-05-02T09:09:17Z</time>
      </trkpt>
      <trkpt lat="49.45719" lon="1.11415">
        <ele>142.7</ele>
        <time>2021-05-02T09:09:18Z</time>
      </trkpt>
      <trkpt lat="49.4572" lon="1.11408">
        <ele>142.7</ele>
        <time>2021-05-02T09:09:20Z</time>
      </trkpt>
      <trkpt lat="49.4572" lon="1.11404">
        <ele>142.8</ele>
        <time>2021-05-02T09:09:21Z</time>
      </trkpt>
      <trkpt lat="49.45721" lon="1.11398">
        <ele>142.8</ele>
        <time>2021-05-02T09:09:22Z</time>
      </trkpt>
      <trkpt lat="49.45722" lon="1.11397">
        <ele>142.8</ele>
        <time>2021-05-02T09:09:23Z</time>
      </trkpt>
      <trkpt lat="49.45724" lon="1.11391">
        <ele>142.9</ele>
        <time>2021-05-02T09:09:24Z</time>
      </trkpt>
      <trkpt lat="49.45727" lon="1.11386">
        <ele>143</ele>
        <time>2021-05-02T09:09:26Z</time>
      </trkpt>
      <trkpt lat="49.4573" lon="1.11381">
        <ele>143</ele>
        <time>2021-05-02T09:09:27Z</time>
      </trkpt>
      <trkpt lat="49.45733" lon="1.11375">
        <ele>143.1</ele>
        <time>2021-05-02T09:09:28Z</time>
      </trkpt>
      <trkpt lat="49.45738" lon="1.11369">
        <ele>143.2</ele>
        <time>2021-05-02T09:09:30Z</time>
      </trkpt>
      <trkpt lat="49.45741" lon="1.11365">
        <ele>143.4</ele>
        <time>2021-05-02T09:09:31Z</time>
      </trkpt>
      <trkpt lat="49.45745" lon="1.11362">
        <ele>143.5</ele>
        <time>2021-05-02T09:09:32Z</time>
      </trkpt>
      <trkpt lat="49.45748" lon="1.1136">
        <ele>143.6</ele>
        <time>2021-05-02T09:09:33Z</time>
      </trkpt>
      <trkpt lat="49.45751" lon="1.11358">
        <ele>143.7</ele>
        <time>2021-05-02T09:09:34Z</time>
      </trkpt>
      <trkpt lat="49.45755" lon="1.11356">
        <ele>143.8</ele>
        <time>2021-05-02T09:09:35Z</time>
      </trkpt>
      <trkpt lat="49.45758" lon="1.11354">
        <ele>144</ele>
        <time>2021-05-02T09:09:36Z</time>
      </trkpt>
      <trkpt lat="49.45761" lon="1.11351">
        <ele>144.1</ele>
        <time>2021-05-02T09:09:37Z</time>
      </trkpt>
      <trkpt lat="49.45764" lon="1.11348">
        <ele>144.2</ele>
        <time>2021-05-02T09:09:38Z</time>
      </trkpt>
      <trkpt lat="49.45767" lon="1.11344">
        <ele>144.4</ele>
        <time>2021-05-02T09:09:39Z</time>
      </trkpt>
      <trkpt lat="49.45769" lon="1.11343">
        <ele>144.4</ele>
        <time>2021-05-02T09:09:41Z</time>
      </trkpt>
      <trkpt lat="49.4577" lon="1.11342">
        <ele>144.5</ele>
        <time>2021-05-02T09:09:42Z</time>
      </trkpt>
      <trkpt lat="49.45772" lon="1.1134">
        <ele>144.6</ele>
        <time>2021-05-02T09:09:43Z</time>
      </trkpt>
      <trkpt lat="49.45776" lon="1.11337">
        <ele>144.7</ele>
        <time>2021-05-02T09:09:44Z</time>
      </trkpt>
      <trkpt lat="49.45777" lon="1.11336">
        <ele>144.8</ele>
        <time>2021-05-02T09:09:45Z</time>
      </trkpt>
      <trkpt lat="49.4578" lon="1.11332">
        <ele>144.9</ele>
        <time>2021-05-02T09:09:46Z</time>
      </trkpt>
      <trkpt lat="49.45783" lon="1.11327">
        <ele>145.1</ele>
        <time>2021-05-02T09:09:48Z</time>
      </trkpt>
      <trkpt lat="49.45785" lon="1.11323">
        <ele>145.2</ele>
        <time>2021-05-02T09:09:49Z</time>
      </trkpt>
      <trkpt lat="49.45787" lon="1.1132">
        <ele>145.3</ele>
        <time>2021-05-02T09:09:50Z</time>
      </trkpt>
      <trkpt lat="49.45789" lon="1.11316">
        <ele>145.4</ele>
        <time>2021-05-02T09:09:51Z</time>
      </trkpt>
      <trkpt lat="49.45791" lon="1.11312">
        <ele>145.6</ele>
        <time>2021-05-02T09:09:52Z</time>
      </trkpt>
      <trkpt lat="49.45794" lon="1.11308">
        <ele>145.8</ele>
        <time>2021-05-02T09:09:53Z</time>
      </trkpt>
      <trkpt lat="49.45799" lon="1.113">
        <ele>146.2</ele>
        <time>2021-05-02T09:09:55Z</time>
      </trkpt>
      <trkpt lat="49.45803" lon="1.11294">
        <ele>146.5</ele>
        <time>2021-05-02T09:09:56Z</time>
      </trkpt>
      <trkpt lat="49.45805" lon="1.11291">
        <ele>146.7</ele>
        <time>2021-05-02T09:09:57Z</time>
      </trkpt>
      <trkpt lat="49.45807" lon="1.11287">
        <ele>147</ele>
        <time>2021-05-02T09:09:58Z</time>
      </trkpt>
      <trkpt lat="49.45809" lon="1.11283">
        <ele>147.2</ele>
        <time>2021-05-02T09:09:59Z</time>
      </trkpt>
      <trkpt lat="49.45812" lon="1.11278">
        <ele>147.4</ele>
        <time>2021-05-02T09:10:01Z</time>
      </trkpt>
      <trkpt lat="49.45813" lon="1.11276">
        <ele>147.5</ele>
        <time>2021-05-02T09:10:02Z</time>
      </trkpt>
      <trkpt lat="49.45813" lon="1.11275">
        <ele>147.6</ele>
        <time>2021-05-02T09:10:03Z</time>
      </trkpt>
      <trkpt lat="49.45816" lon="1.11271">
        <ele>147.8</ele>
        <time>2021-05-02T09:10:04Z</time>
      </trkpt>
      <trkpt lat="49.45819" lon="1.11266">
        <ele>148.1</ele>
        <time>2021-05-02T09:10:05Z</time>
      </trkpt>
      <trkpt lat="49.4582" lon="1.11265">
        <ele>148.1</ele>
        <time>2021-05-02T09:10:06Z</time>
      </trkpt>
      <trkpt lat="49.45823" lon="1.11263">
        <ele>148.3</ele>
        <time>2021-05-02T09:10:08Z</time>
      </trkpt>
      <trkpt lat="49.45826" lon="1.11262">
        <ele>148.6</ele>
        <time>2021-05-02T09:10:09Z</time>
      </trkpt>
      <trkpt lat="49.45828" lon="1.11265">
        <ele>148.7</ele>
        <time>2021-05-02T09:10:11Z</time>
      </trkpt>
      <trkpt lat="49.45831" lon="1.11267">
        <ele>148.7</ele>
        <time>2021-05-02T09:10:12Z</time>
      </trkpt>
      <trkpt lat="49.45834" lon="1.11267">
        <ele>148.8</ele>
        <time>2021-05-02T09:10:14Z</time>
      </trkpt>
      <trkpt lat="49.45834" lon="1.11267">
        <ele>148.8</ele>
        <time>2021-05-02T09:10:15Z</time>
      </trkpt>
      <trkpt lat="49.45835" lon="1.11267">
        <ele>148.8</ele>
        <time>2021-05-02T09:10:16Z</time>
      </trkpt>
      <trkpt lat="49.45837" lon="1.11268">
        <ele>148.9</ele>
        <time>2021-05-02T09:10:18Z</time>
      </trkpt>
      <trkpt lat="49.45837" lon="1.11269">
        <ele>148.9</ele>
        <time>2021-05-02T09:10:19Z</time>
      </trkpt>
      <trkpt lat="49.45837" lon="1.11274">
        <ele>148.9</ele>
        <time>2021-05-02T09:10:21Z</time>
      </trkpt>
      <trkpt lat="49.45837" lon="1.11275">
        <ele>149</ele>
        <time>2021-05-02T09:10:22Z</time>
      </trkpt>
      <trkpt lat="49.45837" lon="1.11279">
        <ele>149</ele>
        <time>2021-05-02T09:10:23Z</time>
      </trkpt>
      <trkpt lat="49.45837" lon="1.11281">
        <ele>149</ele>
        <time>2021-05-02T09:10:24Z</time>
      </trkpt>
      <trkpt lat="49.45838" lon="1.11287">
        <ele>149.1</ele>
        <time>2021-05-02T09:10:26Z</time>
      </trkpt>
      <trkpt lat="49.45838" lon="1.11288">
        <ele>149.2</ele>
        <time>2021-05-02T09:10:27Z</time>
      </trkpt>
      <trkpt lat="49.4584" lon="1.11292">
        <ele>149.2</ele>
        <time>2021-05-02T09:10:29Z</time>
      </trkpt>
      <trkpt lat="49.4584" lon="1.11293">
        <ele>149.2</ele>
        <time>2021-05-02T09:10:30Z</time>
      </trkpt>
      <trkpt lat="49.45843" lon="1.11295">
        <ele>149.3</ele>
        <time>2021-05-02T09:10:32Z</time>
      </trkpt>
      <trkpt lat="49.45844" lon="1.11296">
        <ele>149.3</ele>
        <time>2021-05-02T09:10:33Z</time>
      </trkpt>
      <trkpt lat="49.45845" lon="1.11297">
        <ele>149.4</ele>
        <time>2021-05-02T09:10:34Z</time>
      </trkpt>
      <trkpt lat="49.45846" lon="1.113">
        <ele>149.4</ele>
        <time>2021-05-02T09:10:35Z</time>
      </trkpt>
      <trkpt lat="49.45846" lon="1.11305">
        <ele>149.4</ele>
        <time>2021-05-02T09:10:37Z</time>
      </trkpt>
      <trkpt lat="49.45846" lon="1.11307">
        <ele>149.5</ele>
        <time>2021-05-02T09:10:38Z</time>
      </trkpt>
      <trkpt lat="49.45846" lon="1.11309">
        <ele>149.5</ele>
        <time>2021-05-02T09:10:39Z</time>
      </trkpt>
      <trkpt lat="49.45845" lon="1.11312">
        <ele>149.5</ele>
        <time>2021-05-02T09:10:41Z</time>
      </trkpt>
      <trkpt lat="49.45845" lon="1.11314">
        <ele>149.6</ele>
        <time>2021-05-02T09:10:42Z</time>
      </trkpt>
      <trkpt lat="49.45845" lon="1.11316">
        <ele>149.6</ele>
        <time>2021-05-02T09:10:43Z</time>
      </trkpt>
      <trkpt lat="49.45844" lon="1.1132">
        <ele>149.6</ele>
        <time>2021-05-02T09:10:45Z</time>
      </trkpt>
      <trkpt lat="49.45842" lon="1.11321">
        <ele>149.6</ele>
        <time>2021-05-02T09:10:46Z</time>
      </trkpt>
      <trkpt lat="49.45839" lon="1.11324">
        <ele>149.7</ele>
        <time>2021-05-02T09:10:48Z</time>
      </trkpt>
      <trkpt lat="49.45837" lon="1.11327">
        <ele>149.8</ele>
        <time>2021-05-02T09:10:49Z</time>
      </trkpt>
      <trkpt lat="49.45835" lon="1.1133">
        <ele>149.8</ele>
        <time>2021-05-02T09:10:50Z</time>
      </trkpt>
      <trkpt lat="49.45833" lon="1.11334">
        <ele>149.9</ele>
        <time>2021-05-02T09:10:52Z</time>
      </trkpt>
      <trkpt lat="49.45832" lon="1.11337">
        <ele>149.9</ele>
        <time>2021-05-02T09:10:53Z</time>
      </trkpt>
      <trkpt lat="49.45832" lon="1.1134">
        <ele>149.9</ele>
        <time>2021-05-02T09:10:54Z</time>
      </trkpt>
      <trkpt lat="49.45833" lon="1.11343">
        <ele>150</ele>
        <time>2021-05-02T09:10:55Z</time>
      </trkpt>
      <trkpt lat="49.45835" lon="1.11347">
        <ele>150</ele>
        <time>2021-05-02T09:10:57Z</time>
      </trkpt>
      <trkpt lat="49.45837" lon="1.11349">
        <ele>150.1</ele>
        <time>2021-05-02T09:10:59Z</time>
      </trkpt>
      <trkpt lat="49.45839" lon="1.1135">
        <ele>150.1</ele>
        <time>2021-05-02T09:11:00Z</time>
      </trkpt>
      <trkpt lat="49.45841" lon="1.11351">
        <ele>150.2</ele>
        <time>2021-05-02T09:11:02Z</time>
      </trkpt>
      <trkpt lat="49.45842" lon="1.1135">
        <ele>150.2</ele>
        <time>2021-05-02T09:11:03Z</time>
      </trkpt>
      <trkpt lat="49.45844" lon="1.11349">
        <ele>150.2</ele>
        <time>2021-05-02T09:11:04Z</time>
      </trkpt>
      <trkpt lat="49.45847" lon="1.11347">
        <ele>150.3</ele>
        <time>2021-05-02T09:11:05Z</time>
      </trkpt>
      <trkpt lat="49.45855" lon="1.11346">
        <ele>150.4</ele>
        <time>2021-05-02T09:11:07Z</time>
      </trkpt>
      <trkpt lat="49.45862" lon="1.11343">
        <ele>150.9</ele>
        <time>2021-05-02T09:11:08Z</time>
      </trkpt>
      <trkpt lat="49.45866" lon="1.11341">
        <ele>151</ele>
        <time>2021-05-02T09:11:10Z</time>
      </trkpt>
      <trkpt lat="49.45868" lon="1.11339">
        <ele>151</ele>
        <time>2021-05-02T09:11:11Z</time>
      </trkpt>
      <trkpt lat="49.45872" lon="1.11339">
        <ele>151.1</ele>
        <time>2021-05-02T09:11:12Z</time>
      </trkpt>
      <trkpt lat="49.45875" lon="1.11337">
        <ele>151.1</ele>
        <time>2021-05-02T09:11:13Z</time>
      </trkpt>
      <trkpt lat="49.45878" lon="1.11335">
        <ele>151.2</ele>
        <time>2021-05-02T09:11:15Z</time>
      </trkpt>
      <trkpt lat="49.45882" lon="1.11333">
        <ele>151.2</ele>
        <time>2021-05-02T09:11:17Z</time>
      </trkpt>
      <trkpt lat="49.45883" lon="1.11332">
        <ele>151.3</ele>
        <time>2021-05-02T09:11:18Z</time>
      </trkpt>
      <trkpt lat="49.45886" lon="1.11329">
        <ele>151.3</ele>
        <time>2021-05-02T09:11:20Z</time>
      </trkpt>
      <trkpt lat="49.45888" lon="1.11326">
        <ele>151.4</ele>
        <time>2021-05-02T09:11:21Z</time>
      </trkpt>
      <trkpt lat="49.45889" lon="1.11324">
        <ele>151.4</ele>
        <time>2021-05-02T09:11:22Z</time>
      </trkpt>
      <trkpt lat="49.45892" lon="1.1132">
        <ele>151.5</ele>
        <time>2021-05-02T09:11:24Z</time>
      </trkpt>
      <trkpt lat="49.45893" lon="1.11319">
        <ele>151.5</ele>
        <time>2021-05-02T09:11:25Z</time>
      </trkpt>
      <trkpt lat="49.45896" lon="1.11317">
        <ele>151.6</ele>
        <time>2021-05-02T09:11:26Z</time>
      </trkpt>
      <trkpt lat="49.45897" lon="1.11316">
        <ele>151.6</ele>
        <time>2021-05-02T09:11:27Z</time>
      </trkpt>
      <trkpt lat="49.45902" lon="1.11313">
        <ele>151.7</ele>
        <time>2021-05-02T09:11:29Z</time>
      </trkpt>
      <trkpt lat="49.45904" lon="1.11312">
        <ele>151.8</ele>
        <time>2021-05-02T09:11:30Z</time>
      </trkpt>
      <trkpt lat="49.45905" lon="1.11311">
        <ele>151.8</ele>
        <time>2021-05-02T09:11:31Z</time>
      </trkpt>
      <trkpt lat="49.45909" lon="1.11308">
        <ele>151.9</ele>
        <time>2021-05-02T09:11:32Z</time>
      </trkpt>
      <trkpt lat="49.45913" lon="1.11305">
        <ele>152</ele>
        <time>2021-05-02T09:11:33Z</time>
      </trkpt>
      <trkpt lat="49.45919" lon="1.11298">
        <ele>152.2</ele>
        <time>2021-05-02T09:11:35Z</time>
      </trkpt>
      <trkpt lat="49.45924" lon="1.11294">
        <ele>152.3</ele>
        <time>2021-05-02T09:11:36Z</time>
      </trkpt>
      <trkpt lat="49.45931" lon="1.11289">
        <ele>152.5</ele>
        <time>2021-05-02T09:11:38Z</time>
      </trkpt>
      <trkpt lat="49.45938" lon="1.11283">
        <ele>152.7</ele>
        <time>2021-05-02T09:11:39Z</time>
      </trkpt>
      <trkpt lat="49.45943" lon="1.11278">
        <ele>152.8</ele>
        <time>2021-05-02T09:11:40Z</time>
      </trkpt>
      <trkpt lat="49.45948" lon="1.11273">
        <ele>152.9</ele>
        <time>2021-05-02T09:11:41Z</time>
      </trkpt>
      <trkpt lat="49.45953" lon="1.11267">
        <ele>153.1</ele>
        <time>2021-05-02T09:11:42Z</time>
      </trkpt>
      <trkpt lat="49.45959" lon="1.11262">
        <ele>153.2</ele>
        <time>2021-05-02T09:11:44Z</time>
      </trkpt>
      <trkpt lat="49.45962" lon="1.11258">
        <ele>153.3</ele>
        <time>2021-05-02T09:11:45Z</time>
      </trkpt>
      <trkpt lat="49.45965" lon="1.11256">
        <ele>153.4</ele>
        <time>2021-05-02T09:11:46Z</time>
      </trkpt>
      <trkpt lat="49.45968" lon="1.11253">
        <ele>153.5</ele>
        <time>2021-05-02T09:11:47Z</time>
      </trkpt>
      <trkpt lat="49.45969" lon="1.11252">
        <ele>153.5</ele>
        <time>2021-05-02T09:11:48Z</time>
      </trkpt>
      <trkpt lat="49.45972" lon="1.11248">
        <ele>153.6</ele>
        <time>2021-05-02T09:11:49Z</time>
      </trkpt>
      <trkpt lat="49.45973" lon="1.11247">
        <ele>153.6</ele>
        <time>2021-05-02T09:11:50Z</time>
      </trkpt>
      <trkpt lat="49.45976" lon="1.11243">
        <ele>153.7</ele>
        <time>2021-05-02T09:11:51Z</time>
      </trkpt>
      <trkpt lat="49.45978" lon="1.11239">
        <ele>153.8</ele>
        <time>2021-05-02T09:11:52Z</time>
      </trkpt>
      <trkpt lat="49.45981" lon="1.11236">
        <ele>153.8</ele>
        <time>2021-05-02T09:11:53Z</time>
      </trkpt>
      <trkpt lat="49.45983" lon="1.11232">
        <ele>153.9</ele>
        <time>2021-05-02T09:11:54Z</time>
      </trkpt>
      <trkpt lat="49.45985" lon="1.11227">
        <ele>154</ele>
        <time>2021-05-02T09:11:56Z</time>
      </trkpt>
      <trkpt lat="49.45988" lon="1.11222">
        <ele>154.1</ele>
        <time>2021-05-02T09:11:57Z</time>
      </trkpt>
      <trkpt lat="49.4599" lon="1.11217">
        <ele>154.1</ele>
        <time>2021-05-02T09:11:59Z</time>
      </trkpt>
      <trkpt lat="49.4599" lon="1.11217">
        <ele>154.2</ele>
        <time>2021-05-02T09:12:00Z</time>
      </trkpt>
      <trkpt lat="49.45991" lon="1.11217">
        <ele>154.2</ele>
        <time>2021-05-02T09:12:02Z</time>
      </trkpt>
      <trkpt lat="49.45992" lon="1.11216">
        <ele>154.2</ele>
        <time>2021-05-02T09:12:03Z</time>
      </trkpt>
      <trkpt lat="49.45992" lon="1.11215">
        <ele>154.2</ele>
        <time>2021-05-02T09:12:04Z</time>
      </trkpt>
      <trkpt lat="49.45994" lon="1.11211">
        <ele>154.2</ele>
        <time>2021-05-02T09:12:05Z</time>
      </trkpt>
      <trkpt lat="49.45997" lon="1.11205">
        <ele>154.3</ele>
        <time>2021-05-02T09:12:06Z</time>
      </trkpt>
      <trkpt lat="49.46" lon="1.112">
        <ele>154.4</ele>
        <time>2021-05-02T09:12:07Z</time>
      </trkpt>
      <trkpt lat="49.46003" lon="1.11195">
        <ele>154.5</ele>
        <time>2021-05-02T09:12:08Z</time>
      </trkpt>
      <trkpt lat="49.46005" lon="1.11191">
        <ele>154.5</ele>
        <time>2021-05-02T09:12:09Z</time>
      </trkpt>
      <trkpt lat="49.4601" lon="1.11184">
        <ele>154.6</ele>
        <time>2021-05-02T09:12:11Z</time>
      </trkpt>
      <trkpt lat="49.46013" lon="1.1118">
        <ele>154.7</ele>
        <time>2021-05-02T09:12:12Z</time>
      </trkpt>
      <trkpt lat="49.46016" lon="1.11176">
        <ele>154.8</ele>
        <time>2021-05-02T09:12:13Z</time>
      </trkpt>
      <trkpt lat="49.46018" lon="1.11172">
        <ele>154.8</ele>
        <time>2021-05-02T09:12:14Z</time>
      </trkpt>
      <trkpt lat="49.46021" lon="1.11167">
        <ele>154.9</ele>
        <time>2021-05-02T09:12:16Z</time>
      </trkpt>
      <trkpt lat="49.46022" lon="1.11165">
        <ele>154.9</ele>
        <time>2021-05-02T09:12:17Z</time>
      </trkpt>
      <trkpt lat="49.46023" lon="1.11163">
        <ele>154.9</ele>
        <time>2021-05-02T09:12:18Z</time>
      </trkpt>
      <trkpt lat="49.46025" lon="1.11159">
        <ele>155</ele>
        <time>2021-05-02T09:12:20Z</time>
      </trkpt>
      <trkpt lat="49.46028" lon="1.11155">
        <ele>155</ele>
        <time>2021-05-02T09:12:21Z</time>
      </trkpt>
      <trkpt lat="49.4603" lon="1.11152">
        <ele>155.1</ele>
        <time>2021-05-02T09:12:22Z</time>
      </trkpt>
      <trkpt lat="49.46032" lon="1.11148">
        <ele>155.1</ele>
        <time>2021-05-02T09:12:23Z</time>
      </trkpt>
      <trkpt lat="49.46035" lon="1.11145">
        <ele>155.2</ele>
        <time>2021-05-02T09:12:24Z</time>
      </trkpt>
      <trkpt lat="49.46037" lon="1.11142">
        <ele>155.2</ele>
        <time>2021-05-02T09:12:25Z</time>
      </trkpt>
      <trkpt lat="49.46039" lon="1.11138">
        <ele>155.2</ele>
        <time>2021-05-02T09:12:27Z</time>
      </trkpt>
      <trkpt lat="49.46041" lon="1.11135">
        <ele>155.3</ele>
        <time>2021-05-02T09:12:28Z</time>
      </trkpt>
      <trkpt lat="49.46043" lon="1.11132">
        <ele>155.3</ele>
        <time>2021-05-02T09:12:29Z</time>
      </trkpt>
      <trkpt lat="49.46046" lon="1.11127">
        <ele>155.3</ele>
        <time>2021-05-02T09:12:30Z</time>
      </trkpt>
      <trkpt lat="49.46047" lon="1.11125">
        <ele>155.4</ele>
        <time>2021-05-02T09:12:31Z</time>
      </trkpt>
      <trkpt lat="49.46049" lon="1.11122">
        <ele>155.4</ele>
        <time>2021-05-02T09:12:32Z</time>
      </trkpt>
      <trkpt lat="49.46051" lon="1.11119">
        <ele>155.4</ele>
        <time>2021-05-02T09:12:33Z</time>
      </trkpt>
      <trkpt lat="49.46054" lon="1.11114">
        <ele>155.4</ele>
        <time>2021-05-02T09:12:34Z</time>
      </trkpt>
      <trkpt lat="49.46055" lon="1.11113">
        <ele>155.4</ele>
        <time>2021-05-02T09:12:35Z</time>
      </trkpt>
      <trkpt lat="49.46057" lon="1.11109">
        <ele>155.4</ele>
        <time>2021-05-02T09:12:36Z</time>
      </trkpt>
      <trkpt lat="49.4606" lon="1.11104">
        <ele>155.4</ele>
        <time>2021-05-02T09:12:38Z</time>
      </trkpt>
      <trkpt lat="49.46062" lon="1.11101">
        <ele>155.4</ele>
        <time>2021-05-02T09:12:39Z</time>
      </trkpt>
      <trkpt lat="49.46064" lon="1.11097">
        <ele>155.4</ele>
        <time>2021-05-02T09:12:40Z</time>
      </trkpt>
      <trkpt lat="49.46066" lon="1.11093">
        <ele>155.4</ele>
        <time>2021-05-02T09:12:41Z</time>
      </trkpt>
      <trkpt lat="49.46069" lon="1.1109">
        <ele>155.4</ele>
        <time>2021-05-02T09:12:42Z</time>
      </trkpt>
      <trkpt lat="49.46071" lon="1.11087">
        <ele>155.4</ele>
        <time>2021-05-02T09:12:43Z</time>
      </trkpt>
      <trkpt lat="49.46073" lon="1.11083">
        <ele>155.4</ele>
        <time>2021-05-02T09:12:44Z</time>
      </trkpt>
      <trkpt lat="49.46075" lon="1.11079">
        <ele>155.4</ele>
        <time>2021-05-02T09:12:46Z</time>
      </trkpt>
      <trkpt lat="49.46077" lon="1.11075">
        <ele>155.4</ele>
        <time>2021-05-02T09:12:47Z</time>
      </trkpt>
      <trkpt lat="49.4608" lon="1.11071">
        <ele>155.4</ele>
        <time>2021-05-02T09:12:48Z</time>
      </trkpt>
      <trkpt lat="49.46082" lon="1.11068">
        <ele>155.4</ele>
        <time>2021-05-02T09:12:49Z</time>
      </trkpt>
      <trkpt lat="49.46083" lon="1.11064">
        <ele>155.4</ele>
        <time>2021-05-02T09:12:50Z</time>
      </trkpt>
      <trkpt lat="49.46085" lon="1.11059">
        <ele>155.4</ele>
        <time>2021-05-02T09:12:51Z</time>
      </trkpt>
      <trkpt lat="49.46086" lon="1.11056">
        <ele>155.4</ele>
        <time>2021-05-02T09:12:52Z</time>
      </trkpt>
      <trkpt lat="49.46088" lon="1.11051">
        <ele>155.5</ele>
        <time>2021-05-02T09:12:54Z</time>
      </trkpt>
      <trkpt lat="49.46091" lon="1.11046">
        <ele>155.5</ele>
        <time>2021-05-02T09:12:55Z</time>
      </trkpt>
      <trkpt lat="49.46095" lon="1.11041">
        <ele>155.5</ele>
        <time>2021-05-02T09:12:57Z</time>
      </trkpt>
      <trkpt lat="49.46097" lon="1.11037">
        <ele>155.5</ele>
        <time>2021-05-02T09:12:58Z</time>
      </trkpt>
      <trkpt lat="49.461" lon="1.11033">
        <ele>155.6</ele>
        <time>2021-05-02T09:12:59Z</time>
      </trkpt>
      <trkpt lat="49.46103" lon="1.11029">
        <ele>155.6</ele>
        <time>2021-05-02T09:13:00Z</time>
      </trkpt>
      <trkpt lat="49.46106" lon="1.11026">
        <ele>155.6</ele>
        <time>2021-05-02T09:13:01Z</time>
      </trkpt>
      <trkpt lat="49.46109" lon="1.11022">
        <ele>155.5</ele>
        <time>2021-05-02T09:13:02Z</time>
      </trkpt>
      <trkpt lat="49.46112" lon="1.11019">
        <ele>155.5</ele>
        <time>2021-05-02T09:13:03Z</time>
      </trkpt>
      <trkpt lat="49.46114" lon="1.11016">
        <ele>155.5</ele>
        <time>2021-05-02T09:13:04Z</time>
      </trkpt>
      <trkpt lat="49.46116" lon="1.11012">
        <ele>155.5</ele>
        <time>2021-05-02T09:13:05Z</time>
      </trkpt>
      <trkpt lat="49.46119" lon="1.11007">
        <ele>155.5</ele>
        <time>2021-05-02T09:13:07Z</time>
      </trkpt>
      <trkpt lat="49.46122" lon="1.11004">
        <ele>155.5</ele>
        <time>2021-05-02T09:13:08Z</time>
      </trkpt>
      <trkpt lat="49.46124" lon="1.11001">
        <ele>155.4</ele>
        <time>2021-05-02T09:13:09Z</time>
      </trkpt>
      <trkpt lat="49.46126" lon="1.10998">
        <ele>155.4</ele>
        <time>2021-05-02T09:13:10Z</time>
      </trkpt>
      <trkpt lat="49.46128" lon="1.10995">
        <ele>155.4</ele>
        <time>2021-05-02T09:13:11Z</time>
      </trkpt>
      <trkpt lat="49.46131" lon="1.10991">
        <ele>155.4</ele>
        <time>2021-05-02T09:13:12Z</time>
      </trkpt>
      <trkpt lat="49.46133" lon="1.10988">
        <ele>155.4</ele>
        <time>2021-05-02T09:13:13Z</time>
      </trkpt>
      <trkpt lat="49.46136" lon="1.10983">
        <ele>155.3</ele>
        <time>2021-05-02T09:13:15Z</time>
      </trkpt>
      <trkpt lat="49.46139" lon="1.10978">
        <ele>155.3</ele>
        <time>2021-05-02T09:13:16Z</time>
      </trkpt>
      <trkpt lat="49.46141" lon="1.10975">
        <ele>155.3</ele>
        <time>2021-05-02T09:13:17Z</time>
      </trkpt>
      <trkpt lat="49.46143" lon="1.10972">
        <ele>155.2</ele>
        <time>2021-05-02T09:13:18Z</time>
      </trkpt>
      <trkpt lat="49.46146" lon="1.10969">
        <ele>155.2</ele>
        <time>2021-05-02T09:13:19Z</time>
      </trkpt>
      <trkpt lat="49.46148" lon="1.10966">
        <ele>155.1</ele>
        <time>2021-05-02T09:13:20Z</time>
      </trkpt>
      <trkpt lat="49.46152" lon="1.10961">
        <ele>155.1</ele>
        <time>2021-05-02T09:13:22Z</time>
      </trkpt>
      <trkpt lat="49.46155" lon="1.10957">
        <ele>155</ele>
        <time>2021-05-02T09:13:23Z</time>
      </trkpt>
      <trkpt lat="49.46157" lon="1.10953">
        <ele>155</ele>
        <time>2021-05-02T09:13:24Z</time>
      </trkpt>
      <trkpt lat="49.46159" lon="1.10949">
        <ele>154.9</ele>
        <time>2021-05-02T09:13:25Z</time>
      </trkpt>
      <trkpt lat="49.46162" lon="1.10944">
        <ele>154.8</ele>
        <time>2021-05-02T09:13:27Z</time>
      </trkpt>
      <trkpt lat="49.46163" lon="1.1094">
        <ele>154.8</ele>
        <time>2021-05-02T09:13:28Z</time>
      </trkpt>
      <trkpt lat="49.46165" lon="1.10933">
        <ele>154.7</ele>
        <time>2021-05-02T09:13:30Z</time>
      </trkpt>
      <trkpt lat="49.46166" lon="1.10931">
        <ele>154.7</ele>
        <time>2021-05-02T09:13:31Z</time>
      </trkpt>
      <trkpt lat="49.46167" lon="1.10929">
        <ele>154.6</ele>
        <time>2021-05-02T09:13:32Z</time>
      </trkpt>
      <trkpt lat="49.46168" lon="1.10928">
        <ele>154.6</ele>
        <time>2021-05-02T09:13:33Z</time>
      </trkpt>
      <trkpt lat="49.46169" lon="1.10927">
        <ele>154.6</ele>
        <time>2021-05-02T09:13:34Z</time>
      </trkpt>
      <trkpt lat="49.46172" lon="1.1092">
        <ele>154.5</ele>
        <time>2021-05-02T09:13:36Z</time>
      </trkpt>
      <trkpt lat="49.46175" lon="1.10916">
        <ele>154.4</ele>
        <time>2021-05-02T09:13:37Z</time>
      </trkpt>
      <trkpt lat="49.46178" lon="1.10913">
        <ele>154.4</ele>
        <time>2021-05-02T09:13:38Z</time>
      </trkpt>
      <trkpt lat="49.4618" lon="1.1091">
        <ele>154.3</ele>
        <time>2021-05-02T09:13:39Z</time>
      </trkpt>
      <trkpt lat="49.46183" lon="1.10906">
        <ele>154.3</ele>
        <time>2021-05-02T09:13:40Z</time>
      </trkpt>
      <trkpt lat="49.46185" lon="1.10901">
        <ele>154.2</ele>
        <time>2021-05-02T09:13:41Z</time>
      </trkpt>
      <trkpt lat="49.46186" lon="1.10896">
        <ele>154.2</ele>
        <time>2021-05-02T09:13:42Z</time>
      </trkpt>
      <trkpt lat="49.46188" lon="1.10886">
        <ele>153.9</ele>
        <time>2021-05-02T09:13:44Z</time>
      </trkpt>
      <trkpt lat="49.46186" lon="1.10882">
        <ele>153.8</ele>
        <time>2021-05-02T09:13:46Z</time>
      </trkpt>
      <trkpt lat="49.46184" lon="1.10878">
        <ele>153.6</ele>
        <time>2021-05-02T09:13:47Z</time>
      </trkpt>
      <trkpt lat="49.46182" lon="1.10874">
        <ele>153.2</ele>
        <time>2021-05-02T09:13:48Z</time>
      </trkpt>
      <trkpt lat="49.4618" lon="1.1087">
        <ele>153.2</ele>
        <time>2021-05-02T09:13:49Z</time>
      </trkpt>
      <trkpt lat="49.46178" lon="1.10865">
        <ele>153.2</ele>
        <time>2021-05-02T09:13:50Z</time>
      </trkpt>
      <trkpt lat="49.46176" lon="1.10861">
        <ele>153.2</ele>
        <time>2021-05-02T09:13:51Z</time>
      </trkpt>
      <trkpt lat="49.46175" lon="1.10856">
        <ele>153.1</ele>
        <time>2021-05-02T09:13:53Z</time>
      </trkpt>
      <trkpt lat="49.46173" lon="1.10851">
        <ele>153.1</ele>
        <time>2021-05-02T09:13:54Z</time>
      </trkpt>
      <trkpt lat="49.4617" lon="1.10843">
        <ele>153</ele>
        <time>2021-05-02T09:13:55Z</time>
      </trkpt>
      <trkpt lat="49.46167" lon="1.10835">
        <ele>153</ele>
        <time>2021-05-02T09:13:56Z</time>
      </trkpt>
      <trkpt lat="49.46163" lon="1.10825">
        <ele>152.9</ele>
        <time>2021-05-02T09:13:58Z</time>
      </trkpt>
      <trkpt lat="49.46159" lon="1.10819">
        <ele>152.9</ele>
        <time>2021-05-02T09:13:59Z</time>
      </trkpt>
      <trkpt lat="49.46156" lon="1.10814">
        <ele>152.8</ele>
        <time>2021-05-02T09:14:00Z</time>
      </trkpt>
      <trkpt lat="49.46152" lon="1.1081">
        <ele>152.8</ele>
        <time>2021-05-02T09:14:01Z</time>
      </trkpt>
      <trkpt lat="49.46148" lon="1.10806">
        <ele>152.7</ele>
        <time>2021-05-02T09:14:03Z</time>
      </trkpt>
      <trkpt lat="49.46145" lon="1.10804">
        <ele>152.6</ele>
        <time>2021-05-02T09:14:04Z</time>
      </trkpt>
      <trkpt lat="49.46142" lon="1.108">
        <ele>152.6</ele>
        <time>2021-05-02T09:14:05Z</time>
      </trkpt>
      <trkpt lat="49.46139" lon="1.10797">
        <ele>152.5</ele>
        <time>2021-05-02T09:14:06Z</time>
      </trkpt>
      <trkpt lat="49.46136" lon="1.10794">
        <ele>152.5</ele>
        <time>2021-05-02T09:14:07Z</time>
      </trkpt>
      <trkpt lat="49.46132" lon="1.10792">
        <ele>152.4</ele>
        <time>2021-05-02T09:14:08Z</time>
      </trkpt>
      <trkpt lat="49.46129" lon="1.10789">
        <ele>152.4</ele>
        <time>2021-05-02T09:14:09Z</time>
      </trkpt>
      <trkpt lat="49.46127" lon="1.10787">
        <ele>152.4</ele>
        <time>2021-05-02T09:14:10Z</time>
      </trkpt>
      <trkpt lat="49.46124" lon="1.10784">
        <ele>152.3</ele>
        <time>2021-05-02T09:14:11Z</time>
      </trkpt>
      <trkpt lat="49.46122" lon="1.10782">
        <ele>152.3</ele>
        <time>2021-05-02T09:14:12Z</time>
      </trkpt>
      <trkpt lat="49.46119" lon="1.10779">
        <ele>152.2</ele>
        <time>2021-05-02T09:14:13Z</time>
      </trkpt>
      <trkpt lat="49.46116" lon="1.10776">
        <ele>152.2</ele>
        <time>2021-05-02T09:14:14Z</time>
      </trkpt>
      <trkpt lat="49.46113" lon="1.10774">
        <ele>152.2</ele>
        <time>2021-05-02T09:14:15Z</time>
      </trkpt>
      <trkpt lat="49.46108" lon="1.10772">
        <ele>152.1</ele>
        <time>2021-05-02T09:14:17Z</time>
      </trkpt>
      <trkpt lat="49.46105" lon="1.10771">
        <ele>152.1</ele>
        <time>2021-05-02T09:14:18Z</time>
      </trkpt>
      <trkpt lat="49.46101" lon="1.10769">
        <ele>152</ele>
        <time>2021-05-02T09:14:19Z</time>
      </trkpt>
      <trkpt lat="49.46098" lon="1.10768">
        <ele>152</ele>
        <time>2021-05-02T09:14:20Z</time>
      </trkpt>
      <trkpt lat="49.46094" lon="1.10766">
        <ele>151.9</ele>
        <time>2021-05-02T09:14:21Z</time>
      </trkpt>
      <trkpt lat="49.46091" lon="1.10764">
        <ele>151.9</ele>
        <time>2021-05-02T09:14:22Z</time>
      </trkpt>
      <trkpt lat="49.46087" lon="1.10763">
        <ele>151.8</ele>
        <time>2021-05-02T09:14:23Z</time>
      </trkpt>
      <trkpt lat="49.46084" lon="1.10761">
        <ele>151.8</ele>
        <time>2021-05-02T09:14:24Z</time>
      </trkpt>
      <trkpt lat="49.46081" lon="1.10759">
        <ele>151.8</ele>
        <time>2021-05-02T09:14:25Z</time>
      </trkpt>
      <trkpt lat="49.46078" lon="1.10758">
        <ele>151.7</ele>
        <time>2021-05-02T09:14:26Z</time>
      </trkpt>
      <trkpt lat="49.46075" lon="1.10756">
        <ele>151.7</ele>
        <time>2021-05-02T09:14:27Z</time>
      </trkpt>
      <trkpt lat="49.46072" lon="1.10754">
        <ele>151.6</ele>
        <time>2021-05-02T09:14:28Z</time>
      </trkpt>
      <trkpt lat="49.46068" lon="1.1075">
        <ele>151.6</ele>
        <time>2021-05-02T09:14:30Z</time>
      </trkpt>
      <trkpt lat="49.46067" lon="1.1075">
        <ele>151.5</ele>
        <time>2021-05-02T09:14:31Z</time>
      </trkpt>
      <trkpt lat="49.46065" lon="1.10749">
        <ele>151.5</ele>
        <time>2021-05-02T09:14:32Z</time>
      </trkpt>
      <trkpt lat="49.46062" lon="1.10747">
        <ele>151.5</ele>
        <time>2021-05-02T09:14:33Z</time>
      </trkpt>
      <trkpt lat="49.46061" lon="1.10746">
        <ele>151.4</ele>
        <time>2021-05-02T09:14:34Z</time>
      </trkpt>
      <trkpt lat="49.46059" lon="1.10744">
        <ele>151.4</ele>
        <time>2021-05-02T09:14:35Z</time>
      </trkpt>
      <trkpt lat="49.46056" lon="1.10743">
        <ele>151.3</ele>
        <time>2021-05-02T09:14:36Z</time>
      </trkpt>
      <trkpt lat="49.46054" lon="1.1074">
        <ele>151.3</ele>
        <time>2021-05-02T09:14:37Z</time>
      </trkpt>
      <trkpt lat="49.46051" lon="1.10738">
        <ele>151.2</ele>
        <time>2021-05-02T09:14:38Z</time>
      </trkpt>
      <trkpt lat="49.46048" lon="1.10736">
        <ele>151.2</ele>
        <time>2021-05-02T09:14:39Z</time>
      </trkpt>
      <trkpt lat="49.46045" lon="1.10734">
        <ele>151.2</ele>
        <time>2021-05-02T09:14:40Z</time>
      </trkpt>
      <trkpt lat="49.46041" lon="1.10731">
        <ele>151.1</ele>
        <time>2021-05-02T09:14:41Z</time>
      </trkpt>
      <trkpt lat="49.46037" lon="1.10728">
        <ele>151.1</ele>
        <time>2021-05-02T09:14:42Z</time>
      </trkpt>
      <trkpt lat="49.4603" lon="1.10724">
        <ele>151</ele>
        <time>2021-05-02T09:14:44Z</time>
      </trkpt>
      <trkpt lat="49.46024" lon="1.1072">
        <ele>150.9</ele>
        <time>2021-05-02T09:14:45Z</time>
      </trkpt>
      <trkpt lat="49.46017" lon="1.10717">
        <ele>150.9</ele>
        <time>2021-05-02T09:14:46Z</time>
      </trkpt>
      <trkpt lat="49.46011" lon="1.10712">
        <ele>150.8</ele>
        <time>2021-05-02T09:14:48Z</time>
      </trkpt>
      <trkpt lat="49.46009" lon="1.10709">
        <ele>150.7</ele>
        <time>2021-05-02T09:14:49Z</time>
      </trkpt>
      <trkpt lat="49.46007" lon="1.10708">
        <ele>150.7</ele>
        <time>2021-05-02T09:14:50Z</time>
      </trkpt>
      <trkpt lat="49.46005" lon="1.10707">
        <ele>150.7</ele>
        <time>2021-05-02T09:14:52Z</time>
      </trkpt>
      <trkpt lat="49.46004" lon="1.10705">
        <ele>150.7</ele>
        <time>2021-05-02T09:14:53Z</time>
      </trkpt>
      <trkpt lat="49.46002" lon="1.10704">
        <ele>150.6</ele>
        <time>2021-05-02T09:14:54Z</time>
      </trkpt>
      <trkpt lat="49.45998" lon="1.10701">
        <ele>150.5</ele>
        <time>2021-05-02T09:14:56Z</time>
      </trkpt>
      <trkpt lat="49.45995" lon="1.107">
        <ele>150.5</ele>
        <time>2021-05-02T09:14:57Z</time>
      </trkpt>
      <trkpt lat="49.45991" lon="1.10699">
        <ele>150.4</ele>
        <time>2021-05-02T09:14:59Z</time>
      </trkpt>
      <trkpt lat="49.45989" lon="1.10698">
        <ele>150.3</ele>
        <time>2021-05-02T09:15:00Z</time>
      </trkpt>
      <trkpt lat="49.45988" lon="1.10698">
        <ele>150.3</ele>
        <time>2021-05-02T09:15:01Z</time>
      </trkpt>
      <trkpt lat="49.45985" lon="1.10696">
        <ele>150.2</ele>
        <time>2021-05-02T09:15:02Z</time>
      </trkpt>
      <trkpt lat="49.45982" lon="1.10693">
        <ele>150.1</ele>
        <time>2021-05-02T09:15:03Z</time>
      </trkpt>
      <trkpt lat="49.4598" lon="1.1069">
        <ele>150</ele>
        <time>2021-05-02T09:15:04Z</time>
      </trkpt>
      <trkpt lat="49.45979" lon="1.10687">
        <ele>150</ele>
        <time>2021-05-02T09:15:06Z</time>
      </trkpt>
      <trkpt lat="49.45978" lon="1.10686">
        <ele>150</ele>
        <time>2021-05-02T09:15:07Z</time>
      </trkpt>
      <trkpt lat="49.45976" lon="1.10682">
        <ele>149.9</ele>
        <time>2021-05-02T09:15:08Z</time>
      </trkpt>
      <trkpt lat="49.45973" lon="1.10679">
        <ele>149.9</ele>
        <time>2021-05-02T09:15:09Z</time>
      </trkpt>
      <trkpt lat="49.45972" lon="1.10678">
        <ele>149.8</ele>
        <time>2021-05-02T09:15:10Z</time>
      </trkpt>
      <trkpt lat="49.45968" lon="1.10673">
        <ele>149.8</ele>
        <time>2021-05-02T09:15:11Z</time>
      </trkpt>
      <trkpt lat="49.45965" lon="1.10666">
        <ele>149.7</ele>
        <time>2021-05-02T09:15:12Z</time>
      </trkpt>
      <trkpt lat="49.45961" lon="1.10658">
        <ele>149.6</ele>
        <time>2021-05-02T09:15:14Z</time>
      </trkpt>
      <trkpt lat="49.45957" lon="1.10649">
        <ele>149.6</ele>
        <time>2021-05-02T09:15:15Z</time>
      </trkpt>
      <trkpt lat="49.45954" lon="1.10643">
        <ele>149.5</ele>
        <time>2021-05-02T09:15:16Z</time>
      </trkpt>
      <trkpt lat="49.45952" lon="1.10638">
        <ele>149.5</ele>
        <time>2021-05-02T09:15:17Z</time>
      </trkpt>
      <trkpt lat="49.45949" lon="1.10634">
        <ele>149.4</ele>
        <time>2021-05-02T09:15:18Z</time>
      </trkpt>
      <trkpt lat="49.45947" lon="1.10629">
        <ele>149.4</ele>
        <time>2021-05-02T09:15:19Z</time>
      </trkpt>
      <trkpt lat="49.45945" lon="1.10625">
        <ele>149.4</ele>
        <time>2021-05-02T09:15:20Z</time>
      </trkpt>
      <trkpt lat="49.45942" lon="1.10621">
        <ele>149.4</ele>
        <time>2021-05-02T09:15:21Z</time>
      </trkpt>
      <trkpt lat="49.4594" lon="1.10617">
        <ele>149.4</ele>
        <time>2021-05-02T09:15:22Z</time>
      </trkpt>
      <trkpt lat="49.45938" lon="1.10613">
        <ele>149.3</ele>
        <time>2021-05-02T09:15:23Z</time>
      </trkpt>
      <trkpt lat="49.45936" lon="1.10608">
        <ele>149.3</ele>
        <time>2021-05-02T09:15:24Z</time>
      </trkpt>
      <trkpt lat="49.45933" lon="1.10599">
        <ele>149.2</ele>
        <time>2021-05-02T09:15:26Z</time>
      </trkpt>
      <trkpt lat="49.45931" lon="1.10594">
        <ele>149.1</ele>
        <time>2021-05-02T09:15:27Z</time>
      </trkpt>
      <trkpt lat="49.45929" lon="1.1059">
        <ele>149</ele>
        <time>2021-05-02T09:15:28Z</time>
      </trkpt>
      <trkpt lat="49.45925" lon="1.10582">
        <ele>148.8</ele>
        <time>2021-05-02T09:15:30Z</time>
      </trkpt>
      <trkpt lat="49.45922" lon="1.10577">
        <ele>148.7</ele>
        <time>2021-05-02T09:15:31Z</time>
      </trkpt>
      <trkpt lat="49.4592" lon="1.10572">
        <ele>148.6</ele>
        <time>2021-05-02T09:15:32Z</time>
      </trkpt>
      <trkpt lat="49.45918" lon="1.10565">
        <ele>148.4</ele>
        <time>2021-05-02T09:15:33Z</time>
      </trkpt>
      <trkpt lat="49.45916" lon="1.10561">
        <ele>148.3</ele>
        <time>2021-05-02T09:15:34Z</time>
      </trkpt>
      <trkpt lat="49.45917" lon="1.10557">
        <ele>148.3</ele>
        <time>2021-05-02T09:15:35Z</time>
      </trkpt>
      <trkpt lat="49.45918" lon="1.10555">
        <ele>148.2</ele>
        <time>2021-05-02T09:15:36Z</time>
      </trkpt>
      <trkpt lat="49.45916" lon="1.1055">
        <ele>148.1</ele>
        <time>2021-05-02T09:15:37Z</time>
      </trkpt>
      <trkpt lat="49.45915" lon="1.10548">
        <ele>148.1</ele>
        <time>2021-05-02T09:15:38Z</time>
      </trkpt>
      <trkpt lat="49.45913" lon="1.10544">
        <ele>148</ele>
        <time>2021-05-02T09:15:39Z</time>
      </trkpt>
      <trkpt lat="49.45912" lon="1.10542">
        <ele>147.9</ele>
        <time>2021-05-02T09:15:40Z</time>
      </trkpt>
      <trkpt lat="49.45909" lon="1.10535">
        <ele>147.9</ele>
        <time>2021-05-02T09:15:42Z</time>
      </trkpt>
      <trkpt lat="49.45905" lon="1.10528">
        <ele>147.8</ele>
        <time>2021-05-02T09:15:43Z</time>
      </trkpt>
      <trkpt lat="49.45903" lon="1.10521">
        <ele>147.7</ele>
        <time>2021-05-02T09:15:44Z</time>
      </trkpt>
      <trkpt lat="49.45901" lon="1.10513">
        <ele>147.6</ele>
        <time>2021-05-02T09:15:45Z</time>
      </trkpt>
      <trkpt lat="49.45899" lon="1.10502">
        <ele>147.5</ele>
        <time>2021-05-02T09:15:47Z</time>
      </trkpt>
      <trkpt lat="49.45899" lon="1.10498">
        <ele>147.2</ele>
        <time>2021-05-02T09:15:48Z</time>
      </trkpt>
      <trkpt lat="49.459" lon="1.10493">
        <ele>147.1</ele>
        <time>2021-05-02T09:15:49Z</time>
      </trkpt>
      <trkpt lat="49.45901" lon="1.10491">
        <ele>147.1</ele>
        <time>2021-05-02T09:15:50Z</time>
      </trkpt>
      <trkpt lat="49.45904" lon="1.10486">
        <ele>147</ele>
        <time>2021-05-02T09:15:52Z</time>
      </trkpt>
      <trkpt lat="49.45905" lon="1.10484">
        <ele>147</ele>
        <time>2021-05-02T09:15:53Z</time>
      </trkpt>
      <trkpt lat="49.45906" lon="1.10482">
        <ele>147</ele>
        <time>2021-05-02T09:15:54Z</time>
      </trkpt>
      <trkpt lat="49.45908" lon="1.10478">
        <ele>146.9</ele>
        <time>2021-05-02T09:15:55Z</time>
      </trkpt>
      <trkpt lat="49.45909" lon="1.10477">
        <ele>146.9</ele>
        <time>2021-05-02T09:15:56Z</time>
      </trkpt>
      <trkpt lat="49.45912" lon="1.10472">
        <ele>146.9</ele>
        <time>2021-05-02T09:15:57Z</time>
      </trkpt>
      <trkpt lat="49.45912" lon="1.1047">
        <ele>146.8</ele>
        <time>2021-05-02T09:15:58Z</time>
      </trkpt>
      <trkpt lat="49.45915" lon="1.10465">
        <ele>146.8</ele>
        <time>2021-05-02T09:15:59Z</time>
      </trkpt>
      <trkpt lat="49.45915" lon="1.10464">
        <ele>146.7</ele>
        <time>2021-05-02T09:16:00Z</time>
      </trkpt>
      <trkpt lat="49.45917" lon="1.10459">
        <ele>146.7</ele>
        <time>2021-05-02T09:16:01Z</time>
      </trkpt>
      <trkpt lat="49.45918" lon="1.10458">
        <ele>146.6</ele>
        <time>2021-05-02T09:16:02Z</time>
      </trkpt>
      <trkpt lat="49.45921" lon="1.10452">
        <ele>146.5</ele>
        <time>2021-05-02T09:16:04Z</time>
      </trkpt>
      <trkpt lat="49.45922" lon="1.1045">
        <ele>146.5</ele>
        <time>2021-05-02T09:16:05Z</time>
      </trkpt>
      <trkpt lat="49.45924" lon="1.10448">
        <ele>146.5</ele>
        <time>2021-05-02T09:16:06Z</time>
      </trkpt>
      <trkpt lat="49.45926" lon="1.10443">
        <ele>146.4</ele>
        <time>2021-05-02T09:16:07Z</time>
      </trkpt>
      <trkpt lat="49.45928" lon="1.10439">
        <ele>146.3</ele>
        <time>2021-05-02T09:16:08Z</time>
      </trkpt>
      <trkpt lat="49.4593" lon="1.10435">
        <ele>146.3</ele>
        <time>2021-05-02T09:16:09Z</time>
      </trkpt>
      <trkpt lat="49.45933" lon="1.10429">
        <ele>146.2</ele>
        <time>2021-05-02T09:16:11Z</time>
      </trkpt>
      <trkpt lat="49.45935" lon="1.10426">
        <ele>146.1</ele>
        <time>2021-05-02T09:16:12Z</time>
      </trkpt>
      <trkpt lat="49.45937" lon="1.10421">
        <ele>146</ele>
        <time>2021-05-02T09:16:13Z</time>
      </trkpt>
      <trkpt lat="49.45938" lon="1.1042">
        <ele>146</ele>
        <time>2021-05-02T09:16:14Z</time>
      </trkpt>
      <trkpt lat="49.45941" lon="1.10415">
        <ele>145.9</ele>
        <time>2021-05-02T09:16:15Z</time>
      </trkpt>
      <trkpt lat="49.45941" lon="1.10413">
        <ele>145.9</ele>
        <time>2021-05-02T09:16:16Z</time>
      </trkpt>
      <trkpt lat="49.45943" lon="1.1041">
        <ele>145.8</ele>
        <time>2021-05-02T09:16:17Z</time>
      </trkpt>
      <trkpt lat="49.45945" lon="1.10405">
        <ele>145.7</ele>
        <time>2021-05-02T09:16:18Z</time>
      </trkpt>
      <trkpt lat="49.45947" lon="1.10401">
        <ele>145.7</ele>
        <time>2021-05-02T09:16:19Z</time>
      </trkpt>
      <trkpt lat="49.45949" lon="1.10397">
        <ele>145.6</ele>
        <time>2021-05-02T09:16:20Z</time>
      </trkpt>
      <trkpt lat="49.45952" lon="1.10393">
        <ele>145.5</ele>
        <time>2021-05-02T09:16:22Z</time>
      </trkpt>
      <trkpt lat="49.45954" lon="1.10389">
        <ele>145.5</ele>
        <time>2021-05-02T09:16:23Z</time>
      </trkpt>
      <trkpt lat="49.45956" lon="1.10385">
        <ele>145.4</ele>
        <time>2021-05-02T09:16:24Z</time>
      </trkpt>
      <trkpt lat="49.4596" lon="1.10379">
        <ele>144.8</ele>
        <time>2021-05-02T09:16:26Z</time>
      </trkpt>
      <trkpt lat="49.45964" lon="1.10375">
        <ele>144.3</ele>
        <time>2021-05-02T09:16:27Z</time>
      </trkpt>
      <trkpt lat="49.45967" lon="1.10372">
        <ele>143.9</ele>
        <time>2021-05-02T09:16:28Z</time>
      </trkpt>
      <trkpt lat="49.45969" lon="1.10369">
        <ele>143.5</ele>
        <time>2021-05-02T09:16:29Z</time>
      </trkpt>
      <trkpt lat="49.45973" lon="1.10352">
        <ele>141.8</ele>
        <time>2021-05-02T09:16:31Z</time>
      </trkpt>
      <trkpt lat="49.45975" lon="1.10338">
        <ele>140.4</ele>
        <time>2021-05-02T09:16:32Z</time>
      </trkpt>
      <trkpt lat="49.45977" lon="1.10324">
        <ele>139</ele>
        <time>2021-05-02T09:16:34Z</time>
      </trkpt>
      <trkpt lat="49.4598" lon="1.10313">
        <ele>137.7</ele>
        <time>2021-05-02T09:16:35Z</time>
      </trkpt>
      <trkpt lat="49.45976" lon="1.10292">
        <ele>135.3</ele>
        <time>2021-05-02T09:16:37Z</time>
      </trkpt>
      <trkpt lat="49.45971" lon="1.10281">
        <ele>133.7</ele>
        <time>2021-05-02T09:16:38Z</time>
      </trkpt>
      <trkpt lat="49.45964" lon="1.1027">
        <ele>131.9</ele>
        <time>2021-05-02T09:16:39Z</time>
      </trkpt>
      <trkpt lat="49.45946" lon="1.10255">
        <ele>127.9</ele>
        <time>2021-05-02T09:16:41Z</time>
      </trkpt>
      <trkpt lat="49.45935" lon="1.10248">
        <ele>125.6</ele>
        <time>2021-05-02T09:16:42Z</time>
      </trkpt>
      <trkpt lat="49.45912" lon="1.10238">
        <ele>121</ele>
        <time>2021-05-02T09:16:44Z</time>
      </trkpt>
      <trkpt lat="49.45902" lon="1.10235">
        <ele>119.2</ele>
        <time>2021-05-02T09:16:45Z</time>
      </trkpt>
      <trkpt lat="49.45888" lon="1.10232">
        <ele>116.6</ele>
        <time>2021-05-02T09:16:47Z</time>
      </trkpt>
      <trkpt lat="49.45884" lon="1.10231">
        <ele>116</ele>
        <time>2021-05-02T09:16:48Z</time>
      </trkpt>
      <trkpt lat="49.4588" lon="1.10224">
        <ele>115</ele>
        <time>2021-05-02T09:16:50Z</time>
      </trkpt>
      <trkpt lat="49.45875" lon="1.10219">
        <ele>113.4</ele>
        <time>2021-05-02T09:16:51Z</time>
      </trkpt>
      <trkpt lat="49.45865" lon="1.10207">
        <ele>111.3</ele>
        <time>2021-05-02T09:16:53Z</time>
      </trkpt>
      <trkpt lat="49.4586" lon="1.10203">
        <ele>110.3</ele>
        <time>2021-05-02T09:16:54Z</time>
      </trkpt>
      <trkpt lat="49.45854" lon="1.10197">
        <ele>109.2</ele>
        <time>2021-05-02T09:16:55Z</time>
      </trkpt>
      <trkpt lat="49.45843" lon="1.10188">
        <ele>107.6</ele>
        <time>2021-05-02T09:16:57Z</time>
      </trkpt>
      <trkpt lat="49.45841" lon="1.10184">
        <ele>107.4</ele>
        <time>2021-05-02T09:16:58Z</time>
      </trkpt>
      <trkpt lat="49.45839" lon="1.1018">
        <ele>107.2</ele>
        <time>2021-05-02T09:17:00Z</time>
      </trkpt>
      <trkpt lat="49.45838" lon="1.10179">
        <ele>107.2</ele>
        <time>2021-05-02T09:17:01Z</time>
      </trkpt>
      <trkpt lat="49.45838" lon="1.10179">
        <ele>107.2</ele>
        <time>2021-05-02T09:17:02Z</time>
      </trkpt>
      <trkpt lat="49.45838" lon="1.10179">
        <ele>107.2</ele>
        <time>2021-05-02T09:17:04Z</time>
      </trkpt>
      <trkpt lat="49.45838" lon="1.10179">
        <ele>107.2</ele>
        <time>2021-05-02T09:17:06Z</time>
      </trkpt>
      <trkpt lat="49.45838" lon="1.10179">
        <ele>107.2</ele>
        <time>2021-05-02T09:17:08Z</time>
      </trkpt>
      <trkpt lat="49.45838" lon="1.10179">
        <ele>107.2</ele>
        <time>2021-05-02T09:17:09Z</time>
      </trkpt>
      <trkpt lat="49.45838" lon="1.10179">
        <ele>107.2</ele>
        <time>2021-05-02T09:17:11Z</time>
      </trkpt>
      <trkpt lat="49.45838" lon="1.10179">
        <ele>107.2</ele>
        <time>2021-05-02T09:17:24Z</time>
      </trkpt>
      <trkpt lat="49.45838" lon="1.10179">
        <ele>107.1</ele>
        <time>2021-05-02T09:17:25Z</time>
      </trkpt>
      <trkpt lat="49.45838" lon="1.10179">
        <ele>107.1</ele>
        <time>2021-05-02T09:17:27Z</time>
      </trkpt>
      <trkpt lat="49.45838" lon="1.10179">
        <ele>107.1</ele>
        <time>2021-05-02T09:17:28Z</time>
      </trkpt>
      <trkpt lat="49.45837" lon="1.10171">
        <ele>107</ele>
        <time>2021-05-02T09:17:29Z</time>
      </trkpt>
      <trkpt lat="49.45836" lon="1.10167">
        <ele>106.9</ele>
        <time>2021-05-02T09:17:30Z</time>
      </trkpt>
      <trkpt lat="49.45834" lon="1.10164">
        <ele>106.9</ele>
        <time>2021-05-02T09:17:32Z</time>
      </trkpt>
      <trkpt lat="49.45832" lon="1.1016">
        <ele>106.8</ele>
        <time>2021-05-02T09:17:33Z</time>
      </trkpt>
      <trkpt lat="49.45832" lon="1.10159">
        <ele>106.8</ele>
        <time>2021-05-02T09:17:34Z</time>
      </trkpt>
      <trkpt lat="49.4583" lon="1.10158">
        <ele>106.8</ele>
        <time>2021-05-02T09:17:35Z</time>
      </trkpt>
      <trkpt lat="49.45829" lon="1.10157">
        <ele>106.8</ele>
        <time>2021-05-02T09:17:36Z</time>
      </trkpt>
      <trkpt lat="49.45828" lon="1.10155">
        <ele>106.8</ele>
        <time>2021-05-02T09:17:38Z</time>
      </trkpt>
      <trkpt lat="49.45827" lon="1.10153">
        <ele>106.8</ele>
        <time>2021-05-02T09:17:39Z</time>
      </trkpt>
      <trkpt lat="49.45826" lon="1.10151">
        <ele>106.7</ele>
        <time>2021-05-02T09:17:40Z</time>
      </trkpt>
      <trkpt lat="49.45825" lon="1.10148">
        <ele>106.7</ele>
        <time>2021-05-02T09:17:41Z</time>
      </trkpt>
      <trkpt lat="49.45825" lon="1.10144">
        <ele>106.7</ele>
        <time>2021-05-02T09:17:42Z</time>
      </trkpt>
      <trkpt lat="49.45823" lon="1.10138">
        <ele>106.7</ele>
        <time>2021-05-02T09:17:44Z</time>
      </trkpt>
      <trkpt lat="49.45823" lon="1.10137">
        <ele>106.7</ele>
        <time>2021-05-02T09:17:45Z</time>
      </trkpt>
      <trkpt lat="49.45822" lon="1.10133">
        <ele>106.7</ele>
        <time>2021-05-02T09:17:46Z</time>
      </trkpt>
      <trkpt lat="49.4582" lon="1.10129">
        <ele>106.7</ele>
        <time>2021-05-02T09:17:47Z</time>
      </trkpt>
      <trkpt lat="49.45818" lon="1.10125">
        <ele>106.7</ele>
        <time>2021-05-02T09:17:48Z</time>
      </trkpt>
      <trkpt lat="49.45816" lon="1.1012">
        <ele>106.7</ele>
        <time>2021-05-02T09:17:49Z</time>
      </trkpt>
      <trkpt lat="49.45814" lon="1.10115">
        <ele>106.7</ele>
        <time>2021-05-02T09:17:50Z</time>
      </trkpt>
      <trkpt lat="49.45811" lon="1.10111">
        <ele>106.6</ele>
        <time>2021-05-02T09:17:51Z</time>
      </trkpt>
      <trkpt lat="49.4581" lon="1.10109">
        <ele>106.6</ele>
        <time>2021-05-02T09:17:52Z</time>
      </trkpt>
      <trkpt lat="49.45808" lon="1.10106">
        <ele>106.6</ele>
        <time>2021-05-02T09:17:53Z</time>
      </trkpt>
      <trkpt lat="49.45806" lon="1.10102">
        <ele>106.5</ele>
        <time>2021-05-02T09:17:54Z</time>
      </trkpt>
      <trkpt lat="49.45802" lon="1.10099">
        <ele>106.4</ele>
        <time>2021-05-02T09:17:55Z</time>
      </trkpt>
      <trkpt lat="49.458" lon="1.10095">
        <ele>106.3</ele>
        <time>2021-05-02T09:17:57Z</time>
      </trkpt>
      <trkpt lat="49.458" lon="1.10094">
        <ele>106.3</ele>
        <time>2021-05-02T09:17:58Z</time>
      </trkpt>
      <trkpt lat="49.45798" lon="1.10089">
        <ele>106.2</ele>
        <time>2021-05-02T09:17:59Z</time>
      </trkpt>
      <trkpt lat="49.45797" lon="1.10087">
        <ele>106.2</ele>
        <time>2021-05-02T09:18:00Z</time>
      </trkpt>
      <trkpt lat="49.45795" lon="1.10084">
        <ele>106.1</ele>
        <time>2021-05-02T09:18:01Z</time>
      </trkpt>
      <trkpt lat="49.45792" lon="1.10081">
        <ele>106</ele>
        <time>2021-05-02T09:18:02Z</time>
      </trkpt>
      <trkpt lat="49.45789" lon="1.10077">
        <ele>105.9</ele>
        <time>2021-05-02T09:18:03Z</time>
      </trkpt>
      <trkpt lat="49.45787" lon="1.10072">
        <ele>105.8</ele>
        <time>2021-05-02T09:18:04Z</time>
      </trkpt>
      <trkpt lat="49.45784" lon="1.10067">
        <ele>105.8</ele>
        <time>2021-05-02T09:18:05Z</time>
      </trkpt>
      <trkpt lat="49.45782" lon="1.10062">
        <ele>105.7</ele>
        <time>2021-05-02T09:18:06Z</time>
      </trkpt>
      <trkpt lat="49.45779" lon="1.10055">
        <ele>105.6</ele>
        <time>2021-05-02T09:18:07Z</time>
      </trkpt>
      <trkpt lat="49.45777" lon="1.1005">
        <ele>105.5</ele>
        <time>2021-05-02T09:18:08Z</time>
      </trkpt>
      <trkpt lat="49.45775" lon="1.10046">
        <ele>105.5</ele>
        <time>2021-05-02T09:18:10Z</time>
      </trkpt>
      <trkpt lat="49.45773" lon="1.10042">
        <ele>105.4</ele>
        <time>2021-05-02T09:18:11Z</time>
      </trkpt>
      <trkpt lat="49.45771" lon="1.10038">
        <ele>105.4</ele>
        <time>2021-05-02T09:18:12Z</time>
      </trkpt>
      <trkpt lat="49.45769" lon="1.10034">
        <ele>105.3</ele>
        <time>2021-05-02T09:18:13Z</time>
      </trkpt>
      <trkpt lat="49.45768" lon="1.10031">
        <ele>105.3</ele>
        <time>2021-05-02T09:18:14Z</time>
      </trkpt>
      <trkpt lat="49.45766" lon="1.10027">
        <ele>105.3</ele>
        <time>2021-05-02T09:18:15Z</time>
      </trkpt>
      <trkpt lat="49.45764" lon="1.10024">
        <ele>105.3</ele>
        <time>2021-05-02T09:18:16Z</time>
      </trkpt>
      <trkpt lat="49.45763" lon="1.1002">
        <ele>105.2</ele>
        <time>2021-05-02T09:18:17Z</time>
      </trkpt>
      <trkpt lat="49.45761" lon="1.10015">
        <ele>105.2</ele>
        <time>2021-05-02T09:18:18Z</time>
      </trkpt>
      <trkpt lat="49.45761" lon="1.1001">
        <ele>105.2</ele>
        <time>2021-05-02T09:18:19Z</time>
      </trkpt>
      <trkpt lat="49.4576" lon="1.10004">
        <ele>105.2</ele>
        <time>2021-05-02T09:18:20Z</time>
      </trkpt>
      <trkpt lat="49.45759" lon="1.1">
        <ele>105.2</ele>
        <time>2021-05-02T09:18:21Z</time>
      </trkpt>
      <trkpt lat="49.45758" lon="1.09995">
        <ele>105.2</ele>
        <time>2021-05-02T09:18:23Z</time>
      </trkpt>
      <trkpt lat="49.45757" lon="1.09991">
        <ele>105.2</ele>
        <time>2021-05-02T09:18:24Z</time>
      </trkpt>
      <trkpt lat="49.45756" lon="1.09987">
        <ele>105.2</ele>
        <time>2021-05-02T09:18:25Z</time>
      </trkpt>
      <trkpt lat="49.45754" lon="1.09981">
        <ele>105.2</ele>
        <time>2021-05-02T09:18:26Z</time>
      </trkpt>
      <trkpt lat="49.45752" lon="1.09975">
        <ele>105.1</ele>
        <time>2021-05-02T09:18:28Z</time>
      </trkpt>
      <trkpt lat="49.45751" lon="1.0997">
        <ele>105</ele>
        <time>2021-05-02T09:18:29Z</time>
      </trkpt>
      <trkpt lat="49.4575" lon="1.09964">
        <ele>104.9</ele>
        <time>2021-05-02T09:18:30Z</time>
      </trkpt>
      <trkpt lat="49.45749" lon="1.09959">
        <ele>104.7</ele>
        <time>2021-05-02T09:18:31Z</time>
      </trkpt>
      <trkpt lat="49.45748" lon="1.09953">
        <ele>104.5</ele>
        <time>2021-05-02T09:18:32Z</time>
      </trkpt>
      <trkpt lat="49.45747" lon="1.09949">
        <ele>104.4</ele>
        <time>2021-05-02T09:18:33Z</time>
      </trkpt>
      <trkpt lat="49.45746" lon="1.09944">
        <ele>104.2</ele>
        <time>2021-05-02T09:18:34Z</time>
      </trkpt>
      <trkpt lat="49.45746" lon="1.09938">
        <ele>104</ele>
        <time>2021-05-02T09:18:35Z</time>
      </trkpt>
      <trkpt lat="49.45746" lon="1.09933">
        <ele>103.7</ele>
        <time>2021-05-02T09:18:36Z</time>
      </trkpt>
      <trkpt lat="49.45745" lon="1.09929">
        <ele>103.5</ele>
        <time>2021-05-02T09:18:37Z</time>
      </trkpt>
      <trkpt lat="49.45744" lon="1.09924">
        <ele>103.3</ele>
        <time>2021-05-02T09:18:38Z</time>
      </trkpt>
      <trkpt lat="49.45744" lon="1.09919">
        <ele>103</ele>
        <time>2021-05-02T09:18:39Z</time>
      </trkpt>
      <trkpt lat="49.45743" lon="1.09914">
        <ele>102.8</ele>
        <time>2021-05-02T09:18:41Z</time>
      </trkpt>
      <trkpt lat="49.45742" lon="1.09909">
        <ele>102.5</ele>
        <time>2021-05-02T09:18:42Z</time>
      </trkpt>
      <trkpt lat="49.45742" lon="1.09904">
        <ele>102.2</ele>
        <time>2021-05-02T09:18:43Z</time>
      </trkpt>
      <trkpt lat="49.45741" lon="1.09899">
        <ele>101.9</ele>
        <time>2021-05-02T09:18:44Z</time>
      </trkpt>
      <trkpt lat="49.45741" lon="1.09894">
        <ele>101.7</ele>
        <time>2021-05-02T09:18:45Z</time>
      </trkpt>
      <trkpt lat="49.4574" lon="1.09889">
        <ele>101.4</ele>
        <time>2021-05-02T09:18:46Z</time>
      </trkpt>
      <trkpt lat="49.4574" lon="1.09887">
        <ele>101.3</ele>
        <time>2021-05-02T09:18:47Z</time>
      </trkpt>
      <trkpt lat="49.4574" lon="1.09879">
        <ele>101</ele>
        <time>2021-05-02T09:18:49Z</time>
      </trkpt>
      <trkpt lat="49.4574" lon="1.09877">
        <ele>100.8</ele>
        <time>2021-05-02T09:18:50Z</time>
      </trkpt>
      <trkpt lat="49.45739" lon="1.09874">
        <ele>100.7</ele>
        <time>2021-05-02T09:18:51Z</time>
      </trkpt>
      <trkpt lat="49.45739" lon="1.09868">
        <ele>100.4</ele>
        <time>2021-05-02T09:18:52Z</time>
      </trkpt>
      <trkpt lat="49.45739" lon="1.09866">
        <ele>100.3</ele>
        <time>2021-05-02T09:18:53Z</time>
      </trkpt>
      <trkpt lat="49.45739" lon="1.09861">
        <ele>100.1</ele>
        <time>2021-05-02T09:18:54Z</time>
      </trkpt>
      <trkpt lat="49.45738" lon="1.09856">
        <ele>99.9</ele>
        <time>2021-05-02T09:18:55Z</time>
      </trkpt>
      <trkpt lat="49.45738" lon="1.09851">
        <ele>99.7</ele>
        <time>2021-05-02T09:18:56Z</time>
      </trkpt>
      <trkpt lat="49.45738" lon="1.09846">
        <ele>99.5</ele>
        <time>2021-05-02T09:18:57Z</time>
      </trkpt>
      <trkpt lat="49.45738" lon="1.09842">
        <ele>99.4</ele>
        <time>2021-05-02T09:18:58Z</time>
      </trkpt>
      <trkpt lat="49.45738" lon="1.09837">
        <ele>99.2</ele>
        <time>2021-05-02T09:19:00Z</time>
      </trkpt>
      <trkpt lat="49.45739" lon="1.09832">
        <ele>99</ele>
        <time>2021-05-02T09:19:01Z</time>
      </trkpt>
      <trkpt lat="49.45739" lon="1.09827">
        <ele>98.8</ele>
        <time>2021-05-02T09:19:02Z</time>
      </trkpt>
      <trkpt lat="49.4574" lon="1.09821">
        <ele>98.6</ele>
        <time>2021-05-02T09:19:03Z</time>
      </trkpt>
      <trkpt lat="49.4574" lon="1.09819">
        <ele>98.5</ele>
        <time>2021-05-02T09:19:04Z</time>
      </trkpt>
      <trkpt lat="49.45741" lon="1.09815">
        <ele>98.3</ele>
        <time>2021-05-02T09:19:05Z</time>
      </trkpt>
      <trkpt lat="49.45742" lon="1.0981">
        <ele>98.1</ele>
        <time>2021-05-02T09:19:06Z</time>
      </trkpt>
      <trkpt lat="49.45742" lon="1.09805">
        <ele>97.9</ele>
        <time>2021-05-02T09:19:08Z</time>
      </trkpt>
      <trkpt lat="49.45744" lon="1.09799">
        <ele>97.7</ele>
        <time>2021-05-02T09:19:09Z</time>
      </trkpt>
      <trkpt lat="49.45744" lon="1.09797">
        <ele>97.6</ele>
        <time>2021-05-02T09:19:10Z</time>
      </trkpt>
      <trkpt lat="49.45745" lon="1.09793">
        <ele>97.4</ele>
        <time>2021-05-02T09:19:11Z</time>
      </trkpt>
      <trkpt lat="49.45745" lon="1.09789">
        <ele>97.2</ele>
        <time>2021-05-02T09:19:12Z</time>
      </trkpt>
      <trkpt lat="49.45746" lon="1.09784">
        <ele>97</ele>
        <time>2021-05-02T09:19:13Z</time>
      </trkpt>
      <trkpt lat="49.45747" lon="1.09779">
        <ele>96.8</ele>
        <time>2021-05-02T09:19:14Z</time>
      </trkpt>
      <trkpt lat="49.45747" lon="1.09774">
        <ele>96.6</ele>
        <time>2021-05-02T09:19:15Z</time>
      </trkpt>
      <trkpt lat="49.45748" lon="1.09769">
        <ele>96.4</ele>
        <time>2021-05-02T09:19:16Z</time>
      </trkpt>
      <trkpt lat="49.45749" lon="1.09762">
        <ele>96.1</ele>
        <time>2021-05-02T09:19:18Z</time>
      </trkpt>
      <trkpt lat="49.45751" lon="1.09758">
        <ele>95.9</ele>
        <time>2021-05-02T09:19:19Z</time>
      </trkpt>
      <trkpt lat="49.45751" lon="1.09756">
        <ele>95.8</ele>
        <time>2021-05-02T09:19:20Z</time>
      </trkpt>
      <trkpt lat="49.45752" lon="1.09754">
        <ele>95.8</ele>
        <time>2021-05-02T09:19:21Z</time>
      </trkpt>
      <trkpt lat="49.45753" lon="1.09752">
        <ele>95.8</ele>
        <time>2021-05-02T09:19:22Z</time>
      </trkpt>
      <trkpt lat="49.45755" lon="1.09751">
        <ele>95.8</ele>
        <time>2021-05-02T09:19:24Z</time>
      </trkpt>
      <trkpt lat="49.45756" lon="1.09752">
        <ele>95.7</ele>
        <time>2021-05-02T09:19:26Z</time>
      </trkpt>
      <trkpt lat="49.45756" lon="1.09754">
        <ele>95.7</ele>
        <time>2021-05-02T09:19:28Z</time>
      </trkpt>
      <trkpt lat="49.45756" lon="1.09755">
        <ele>95.7</ele>
        <time>2021-05-02T09:19:30Z</time>
      </trkpt>
      <trkpt lat="49.45756" lon="1.09756">
        <ele>95.7</ele>
        <time>2021-05-02T09:19:31Z</time>
      </trkpt>
      <trkpt lat="49.45756" lon="1.09756">
        <ele>95.7</ele>
        <time>2021-05-02T09:19:32Z</time>
      </trkpt>
      <trkpt lat="49.45755" lon="1.09756">
        <ele>95.6</ele>
        <time>2021-05-02T09:19:33Z</time>
      </trkpt>
      <trkpt lat="49.45755" lon="1.09755">
        <ele>95.6</ele>
        <time>2021-05-02T09:19:35Z</time>
      </trkpt>
      <trkpt lat="49.45754" lon="1.09755">
        <ele>95.6</ele>
        <time>2021-05-02T09:19:37Z</time>
      </trkpt>
      <trkpt lat="49.45753" lon="1.09755">
        <ele>95.6</ele>
        <time>2021-05-02T09:19:38Z</time>
      </trkpt>
      <trkpt lat="49.45753" lon="1.09755">
        <ele>95.6</ele>
        <time>2021-05-02T09:19:39Z</time>
      </trkpt>
      <trkpt lat="49.45753" lon="1.09754">
        <ele>95.6</ele>
        <time>2021-05-02T09:19:40Z</time>
      </trkpt>
      <trkpt lat="49.45754" lon="1.09755">
        <ele>95.6</ele>
        <time>2021-05-02T09:19:43Z</time>
      </trkpt>
      <trkpt lat="49.45754" lon="1.09755">
        <ele>95.6</ele>
        <time>2021-05-02T09:19:44Z</time>
      </trkpt>
      <trkpt lat="49.45754" lon="1.09755">
        <ele>95.6</ele>
        <time>2021-05-02T09:19:45Z</time>
      </trkpt>
      <trkpt lat="49.45752" lon="1.09754">
        <ele>95.5</ele>
        <time>2021-05-02T09:19:47Z</time>
      </trkpt>
      <trkpt lat="49.45752" lon="1.09754">
        <ele>95.5</ele>
        <time>2021-05-02T09:19:48Z</time>
      </trkpt>
      <trkpt lat="49.45751" lon="1.09753">
        <ele>95.5</ele>
        <time>2021-05-02T09:19:50Z</time>
      </trkpt>
      <trkpt lat="49.45749" lon="1.09754">
        <ele>95.5</ele>
        <time>2021-05-02T09:19:52Z</time>
      </trkpt>
      <trkpt lat="49.45749" lon="1.09753">
        <ele>95.5</ele>
        <time>2021-05-02T09:19:54Z</time>
      </trkpt>
      <trkpt lat="49.45748" lon="1.09753">
        <ele>95.5</ele>
        <time>2021-05-02T09:19:56Z</time>
      </trkpt>
      <trkpt lat="49.45748" lon="1.09753">
        <ele>95.5</ele>
        <time>2021-05-02T09:19:57Z</time>
      </trkpt>
      <trkpt lat="49.45748" lon="1.09753">
        <ele>95.5</ele>
        <time>2021-05-02T09:19:58Z</time>
      </trkpt>
      <trkpt lat="49.45748" lon="1.09753">
        <ele>95.5</ele>
        <time>2021-05-02T09:19:59Z</time>
      </trkpt>
      <trkpt lat="49.45748" lon="1.09753">
        <ele>95.5</ele>
        <time>2021-05-02T09:20:01Z</time>
      </trkpt>
      <trkpt lat="49.45753" lon="1.09753">
        <ele>95.4</ele>
        <time>2021-05-02T09:20:41Z</time>
      </trkpt>
      <trkpt lat="49.45754" lon="1.09754">
        <ele>95.4</ele>
        <time>2021-05-02T09:20:42Z</time>
      </trkpt>
      <trkpt lat="49.45753" lon="1.09754">
        <ele>95.4</ele>
        <time>2021-05-02T09:20:44Z</time>
      </trkpt>
      <trkpt lat="49.45753" lon="1.09754">
        <ele>95.4</ele>
        <time>2021-05-02T09:20:45Z</time>
      </trkpt>
      <trkpt lat="49.45753" lon="1.09754">
        <ele>95.4</ele>
        <time>2021-05-02T09:20:46Z</time>
      </trkpt>
      <trkpt lat="49.45753" lon="1.09755">
        <ele>95.4</ele>
        <time>2021-05-02T09:20:47Z</time>
      </trkpt>
      <trkpt lat="49.45753" lon="1.09755">
        <ele>95.4</ele>
        <time>2021-05-02T09:20:49Z</time>
      </trkpt>
      <trkpt lat="49.45753" lon="1.09755">
        <ele>95.4</ele>
        <time>2021-05-02T09:20:50Z</time>
      </trkpt>
      <trkpt lat="49.45753" lon="1.09755">
        <ele>95.4</ele>
        <time>2021-05-02T09:20:52Z</time>
      </trkpt>
      <trkpt lat="49.45754" lon="1.09757">
        <ele>95.3</ele>
        <time>2021-05-02T09:20:54Z</time>
      </trkpt>
      <trkpt lat="49.45754" lon="1.09757">
        <ele>95.3</ele>
        <time>2021-05-02T09:20:56Z</time>
      </trkpt>
      <trkpt lat="49.45754" lon="1.09757">
        <ele>95.3</ele>
        <time>2021-05-02T09:20:57Z</time>
      </trkpt>
      <trkpt lat="49.45754" lon="1.09757">
        <ele>95.3</ele>
        <time>2021-05-02T09:20:59Z</time>
      </trkpt>
      <trkpt lat="49.45754" lon="1.09757">
        <ele>95.3</ele>
        <time>2021-05-02T09:21:00Z</time>
      </trkpt>
      <trkpt lat="49.45754" lon="1.09757">
        <ele>95.3</ele>
        <time>2021-05-02T09:21:02Z</time>
      </trkpt>
      <trkpt lat="49.45757" lon="1.09758">
        <ele>95.3</ele>
        <time>2021-05-02T09:21:56Z</time>
      </trkpt>
      <trkpt lat="49.45759" lon="1.09759">
        <ele>95.3</ele>
        <time>2021-05-02T09:21:57Z</time>
      </trkpt>
      <trkpt lat="49.4576" lon="1.0976">
        <ele>95.3</ele>
        <time>2021-05-02T09:21:59Z</time>
      </trkpt>
      <trkpt lat="49.45759" lon="1.0976">
        <ele>95.2</ele>
        <time>2021-05-02T09:22:00Z</time>
      </trkpt>
      <trkpt lat="49.45759" lon="1.0976">
        <ele>95.2</ele>
        <time>2021-05-02T09:22:01Z</time>
      </trkpt>
      <trkpt lat="49.45759" lon="1.09761">
        <ele>95.2</ele>
        <time>2021-05-02T09:22:03Z</time>
      </trkpt>
      <trkpt lat="49.45759" lon="1.09759">
        <ele>95.2</ele>
        <time>2021-05-02T09:22:05Z</time>
      </trkpt>
      <trkpt lat="49.4576" lon="1.09757">
        <ele>95.2</ele>
        <time>2021-05-02T09:22:06Z</time>
      </trkpt>
      <trkpt lat="49.45766" lon="1.09751">
        <ele>95.1</ele>
        <time>2021-05-02T09:22:08Z</time>
      </trkpt>
      <trkpt lat="49.45767" lon="1.09749">
        <ele>95.1</ele>
        <time>2021-05-02T09:22:09Z</time>
      </trkpt>
      <trkpt lat="49.45773" lon="1.09743">
        <ele>95</ele>
        <time>2021-05-02T09:22:11Z</time>
      </trkpt>
      <trkpt lat="49.45777" lon="1.09741">
        <ele>95</ele>
        <time>2021-05-02T09:22:12Z</time>
      </trkpt>
      <trkpt lat="49.45794" lon="1.09724">
        <ele>94.7</ele>
        <time>2021-05-02T09:22:14Z</time>
      </trkpt>
      <trkpt lat="49.45812" lon="1.09704">
        <ele>94.2</ele>
        <time>2021-05-02T09:22:16Z</time>
      </trkpt>
      <trkpt lat="49.45819" lon="1.09696">
        <ele>93.9</ele>
        <time>2021-05-02T09:22:17Z</time>
      </trkpt>
      <trkpt lat="49.45829" lon="1.09685">
        <ele>93.3</ele>
        <time>2021-05-02T09:22:19Z</time>
      </trkpt>
      <trkpt lat="49.45834" lon="1.09679">
        <ele>93.1</ele>
        <time>2021-05-02T09:22:20Z</time>
      </trkpt>
      <trkpt lat="49.45845" lon="1.09666">
        <ele>92.5</ele>
        <time>2021-05-02T09:22:22Z</time>
      </trkpt>
      <trkpt lat="49.4585" lon="1.09659">
        <ele>92.2</ele>
        <time>2021-05-02T09:22:23Z</time>
      </trkpt>
      <trkpt lat="49.45856" lon="1.09652">
        <ele>91.9</ele>
        <time>2021-05-02T09:22:24Z</time>
      </trkpt>
      <trkpt lat="49.45867" lon="1.09639">
        <ele>91.2</ele>
        <time>2021-05-02T09:22:26Z</time>
      </trkpt>
      <trkpt lat="49.45873" lon="1.09634">
        <ele>90.8</ele>
        <time>2021-05-02T09:22:27Z</time>
      </trkpt>
      <trkpt lat="49.45884" lon="1.09626">
        <ele>90.1</ele>
        <time>2021-05-02T09:22:29Z</time>
      </trkpt>
      <trkpt lat="49.45888" lon="1.09622">
        <ele>89.8</ele>
        <time>2021-05-02T09:22:30Z</time>
      </trkpt>
      <trkpt lat="49.45893" lon="1.09615">
        <ele>89.4</ele>
        <time>2021-05-02T09:22:32Z</time>
      </trkpt>
      <trkpt lat="49.45896" lon="1.09614">
        <ele>89.3</ele>
        <time>2021-05-02T09:22:34Z</time>
      </trkpt>
      <trkpt lat="49.45895" lon="1.09614">
        <ele>89.2</ele>
        <time>2021-05-02T09:22:36Z</time>
      </trkpt>
      <trkpt lat="49.45888" lon="1.09606">
        <ele>88.8</ele>
        <time>2021-05-02T09:22:38Z</time>
      </trkpt>
      <trkpt lat="49.45882" lon="1.09604">
        <ele>88.7</ele>
        <time>2021-05-02T09:22:40Z</time>
      </trkpt>
      <trkpt lat="49.4588" lon="1.09604">
        <ele>88.3</ele>
        <time>2021-05-02T09:22:41Z</time>
      </trkpt>
      <trkpt lat="49.45876" lon="1.09603">
        <ele>87.7</ele>
        <time>2021-05-02T09:22:43Z</time>
      </trkpt>
      <trkpt lat="49.45873" lon="1.09602">
        <ele>87.2</ele>
        <time>2021-05-02T09:22:44Z</time>
      </trkpt>
      <trkpt lat="49.45855" lon="1.09599">
        <ele>84.4</ele>
        <time>2021-05-02T09:22:46Z</time>
      </trkpt>
      <trkpt lat="49.45846" lon="1.09599">
        <ele>82.9</ele>
        <time>2021-05-02T09:22:47Z</time>
      </trkpt>
      <trkpt lat="49.45837" lon="1.096">
        <ele>81.6</ele>
        <time>2021-05-02T09:22:48Z</time>
      </trkpt>
      <trkpt lat="49.45828" lon="1.09602">
        <ele>80.4</ele>
        <time>2021-05-02T09:22:49Z</time>
      </trkpt>
      <trkpt lat="49.45808" lon="1.09606">
        <ele>77.9</ele>
        <time>2021-05-02T09:22:51Z</time>
      </trkpt>
      <trkpt lat="49.45788" lon="1.09617">
        <ele>75.5</ele>
        <time>2021-05-02T09:22:53Z</time>
      </trkpt>
      <trkpt lat="49.45778" lon="1.09622">
        <ele>74.3</ele>
        <time>2021-05-02T09:22:54Z</time>
      </trkpt>
      <trkpt lat="49.45768" lon="1.09625">
        <ele>73.2</ele>
        <time>2021-05-02T09:22:55Z</time>
      </trkpt>
      <trkpt lat="49.45746" lon="1.09629">
        <ele>70.9</ele>
        <time>2021-05-02T09:22:57Z</time>
      </trkpt>
      <trkpt lat="49.45721" lon="1.09635">
        <ele>68.5</ele>
        <time>2021-05-02T09:22:59Z</time>
      </trkpt>
      <trkpt lat="49.4571" lon="1.09636">
        <ele>67.5</ele>
        <time>2021-05-02T09:23:00Z</time>
      </trkpt>
      <trkpt lat="49.45689" lon="1.09636">
        <ele>65.8</ele>
        <time>2021-05-02T09:23:02Z</time>
      </trkpt>
      <trkpt lat="49.45674" lon="1.09641">
        <ele>64.6</ele>
        <time>2021-05-02T09:23:04Z</time>
      </trkpt>
      <trkpt lat="49.45667" lon="1.09643">
        <ele>64.1</ele>
        <time>2021-05-02T09:23:05Z</time>
      </trkpt>
      <trkpt lat="49.45663" lon="1.09645">
        <ele>64</ele>
        <time>2021-05-02T09:23:06Z</time>
      </trkpt>
      <trkpt lat="49.45661" lon="1.09653">
        <ele>63.8</ele>
        <time>2021-05-02T09:23:08Z</time>
      </trkpt>
      <trkpt lat="49.45661" lon="1.09657">
        <ele>63.8</ele>
        <time>2021-05-02T09:23:09Z</time>
      </trkpt>
      <trkpt lat="49.45661" lon="1.09662">
        <ele>63.7</ele>
        <time>2021-05-02T09:23:10Z</time>
      </trkpt>
      <trkpt lat="49.45661" lon="1.09663">
        <ele>63.7</ele>
        <time>2021-05-02T09:23:11Z</time>
      </trkpt>
      <trkpt lat="49.4566" lon="1.09665">
        <ele>63.6</ele>
        <time>2021-05-02T09:23:13Z</time>
      </trkpt>
      <trkpt lat="49.45659" lon="1.09665">
        <ele>63.6</ele>
        <time>2021-05-02T09:23:14Z</time>
      </trkpt>
      <trkpt lat="49.45656" lon="1.09662">
        <ele>63.5</ele>
        <time>2021-05-02T09:23:16Z</time>
      </trkpt>
      <trkpt lat="49.45655" lon="1.0966">
        <ele>63.5</ele>
        <time>2021-05-02T09:23:18Z</time>
      </trkpt>
      <trkpt lat="49.45652" lon="1.0966">
        <ele>63.3</ele>
        <time>2021-05-02T09:23:20Z</time>
      </trkpt>
      <trkpt lat="49.45647" lon="1.09652">
        <ele>62.8</ele>
        <time>2021-05-02T09:23:22Z</time>
      </trkpt>
      <trkpt lat="49.45653" lon="1.09656">
        <ele>62.5</ele>
        <time>2021-05-02T09:23:24Z</time>
      </trkpt>
      <trkpt lat="49.45654" lon="1.09657">
        <ele>62.4</ele>
        <time>2021-05-02T09:23:25Z</time>
      </trkpt>
      <trkpt lat="49.45655" lon="1.09658">
        <ele>62.3</ele>
        <time>2021-05-02T09:23:26Z</time>
      </trkpt>
      <trkpt lat="49.45651" lon="1.09655">
        <ele>62.1</ele>
        <time>2021-05-02T09:23:28Z</time>
      </trkpt>
      <trkpt lat="49.45643" lon="1.09645">
        <ele>61.5</ele>
        <time>2021-05-02T09:23:30Z</time>
      </trkpt>
      <trkpt lat="49.4564" lon="1.09641">
        <ele>61.2</ele>
        <time>2021-05-02T09:23:31Z</time>
      </trkpt>
      <trkpt lat="49.45636" lon="1.09636">
        <ele>60.7</ele>
        <time>2021-05-02T09:23:33Z</time>
      </trkpt>
      <trkpt lat="49.45631" lon="1.09632">
        <ele>60.3</ele>
        <time>2021-05-02T09:23:35Z</time>
      </trkpt>
      <trkpt lat="49.45628" lon="1.09626">
        <ele>59.9</ele>
        <time>2021-05-02T09:23:37Z</time>
      </trkpt>
      <trkpt lat="49.45626" lon="1.0962">
        <ele>59.6</ele>
        <time>2021-05-02T09:23:39Z</time>
      </trkpt>
      <trkpt lat="49.45626" lon="1.09619">
        <ele>59.6</ele>
        <time>2021-05-02T09:23:40Z</time>
      </trkpt>
      <trkpt lat="49.45626" lon="1.09618">
        <ele>59.5</ele>
        <time>2021-05-02T09:23:41Z</time>
      </trkpt>
      <trkpt lat="49.45626" lon="1.09617">
        <ele>59.5</ele>
        <time>2021-05-02T09:23:43Z</time>
      </trkpt>
      <trkpt lat="49.45626" lon="1.09617">
        <ele>59.5</ele>
        <time>2021-05-02T09:23:44Z</time>
      </trkpt>
      <trkpt lat="49.45626" lon="1.09617">
        <ele>59.5</ele>
        <time>2021-05-02T09:23:46Z</time>
      </trkpt>
      <trkpt lat="49.45625" lon="1.09616">
        <ele>59.4</ele>
        <time>2021-05-02T09:23:48Z</time>
      </trkpt>
      <trkpt lat="49.45624" lon="1.09616">
        <ele>59.4</ele>
        <time>2021-05-02T09:23:49Z</time>
      </trkpt>
      <trkpt lat="49.45621" lon="1.09614">
        <ele>59.1</ele>
        <time>2021-05-02T09:23:51Z</time>
      </trkpt>
      <trkpt lat="49.45619" lon="1.09613">
        <ele>59</ele>
        <time>2021-05-02T09:23:52Z</time>
      </trkpt>
      <trkpt lat="49.45615" lon="1.09618">
        <ele>58.7</ele>
        <time>2021-05-02T09:23:54Z</time>
      </trkpt>
      <trkpt lat="49.45611" lon="1.09624">
        <ele>58.4</ele>
        <time>2021-05-02T09:23:56Z</time>
      </trkpt>
      <trkpt lat="49.45607" lon="1.09624">
        <ele>58.2</ele>
        <time>2021-05-02T09:23:58Z</time>
      </trkpt>
      <trkpt lat="49.45602" lon="1.09624">
        <ele>58.1</ele>
        <time>2021-05-02T09:24:00Z</time>
      </trkpt>
      <trkpt lat="49.45595" lon="1.09621">
        <ele>58.1</ele>
        <time>2021-05-02T09:24:02Z</time>
      </trkpt>
      <trkpt lat="49.45591" lon="1.09622">
        <ele>58.2</ele>
        <time>2021-05-02T09:24:04Z</time>
      </trkpt>
      <trkpt lat="49.45588" lon="1.09622">
        <ele>58.2</ele>
        <time>2021-05-02T09:24:05Z</time>
      </trkpt>
      <trkpt lat="49.45584" lon="1.09621">
        <ele>58.3</ele>
        <time>2021-05-02T09:24:07Z</time>
      </trkpt>
      <trkpt lat="49.4558" lon="1.09623">
        <ele>58.4</ele>
        <time>2021-05-02T09:24:09Z</time>
      </trkpt>
      <trkpt lat="49.45575" lon="1.09626">
        <ele>58.5</ele>
        <time>2021-05-02T09:24:11Z</time>
      </trkpt>
      <trkpt lat="49.45571" lon="1.09627">
        <ele>58.6</ele>
        <time>2021-05-02T09:24:13Z</time>
      </trkpt>
      <trkpt lat="49.45569" lon="1.09627">
        <ele>58.7</ele>
        <time>2021-05-02T09:24:14Z</time>
      </trkpt>
      <trkpt lat="49.45564" lon="1.09626">
        <ele>58.9</ele>
        <time>2021-05-02T09:24:16Z</time>
      </trkpt>
      <trkpt lat="49.45561" lon="1.09625">
        <ele>58.9</ele>
        <time>2021-05-02T09:24:17Z</time>
      </trkpt>
      <trkpt lat="49.45557" lon="1.09624">
        <ele>59.1</ele>
        <time>2021-05-02T09:24:19Z</time>
      </trkpt>
      <trkpt lat="49.45554" lon="1.09622">
        <ele>59.2</ele>
        <time>2021-05-02T09:24:20Z</time>
      </trkpt>
      <trkpt lat="49.45553" lon="1.09622">
        <ele>59.3</ele>
        <time>2021-05-02T09:24:21Z</time>
      </trkpt>
      <trkpt lat="49.4555" lon="1.09621">
        <ele>59.4</ele>
        <time>2021-05-02T09:24:22Z</time>
      </trkpt>
      <trkpt lat="49.45542" lon="1.0962">
        <ele>59.7</ele>
        <time>2021-05-02T09:24:24Z</time>
      </trkpt>
      <trkpt lat="49.45539" lon="1.0962">
        <ele>59.8</ele>
        <time>2021-05-02T09:24:25Z</time>
      </trkpt>
      <trkpt lat="49.45533" lon="1.09618">
        <ele>60</ele>
        <time>2021-05-02T09:24:27Z</time>
      </trkpt>
      <trkpt lat="49.45529" lon="1.09616">
        <ele>60.2</ele>
        <time>2021-05-02T09:24:29Z</time>
      </trkpt>
      <trkpt lat="49.45528" lon="1.09616">
        <ele>60.2</ele>
        <time>2021-05-02T09:24:30Z</time>
      </trkpt>
      <trkpt lat="49.45527" lon="1.09615">
        <ele>60.3</ele>
        <time>2021-05-02T09:24:31Z</time>
      </trkpt>
      <trkpt lat="49.45525" lon="1.09614">
        <ele>60.4</ele>
        <time>2021-05-02T09:24:32Z</time>
      </trkpt>
      <trkpt lat="49.4552" lon="1.09611">
        <ele>60.5</ele>
        <time>2021-05-02T09:24:34Z</time>
      </trkpt>
      <trkpt lat="49.45516" lon="1.0961">
        <ele>60.7</ele>
        <time>2021-05-02T09:24:36Z</time>
      </trkpt>
      <trkpt lat="49.45511" lon="1.09608">
        <ele>60.8</ele>
        <time>2021-05-02T09:24:37Z</time>
      </trkpt>
      <trkpt lat="49.45509" lon="1.09607">
        <ele>60.9</ele>
        <time>2021-05-02T09:24:38Z</time>
      </trkpt>
      <trkpt lat="49.45504" lon="1.09605">
        <ele>61.1</ele>
        <time>2021-05-02T09:24:40Z</time>
      </trkpt>
      <trkpt lat="49.45497" lon="1.09603">
        <ele>61.2</ele>
        <time>2021-05-02T09:24:42Z</time>
      </trkpt>
      <trkpt lat="49.45494" lon="1.09603">
        <ele>61.3</ele>
        <time>2021-05-02T09:24:43Z</time>
      </trkpt>
      <trkpt lat="49.4549" lon="1.096">
        <ele>61.4</ele>
        <time>2021-05-02T09:24:45Z</time>
      </trkpt>
      <trkpt lat="49.45488" lon="1.09599">
        <ele>61.4</ele>
        <time>2021-05-02T09:24:46Z</time>
      </trkpt>
      <trkpt lat="49.45485" lon="1.09596">
        <ele>61.5</ele>
        <time>2021-05-02T09:24:48Z</time>
      </trkpt>
      <trkpt lat="49.45482" lon="1.09593">
        <ele>61.5</ele>
        <time>2021-05-02T09:24:49Z</time>
      </trkpt>
      <trkpt lat="49.4548" lon="1.09592">
        <ele>61.6</ele>
        <time>2021-05-02T09:24:50Z</time>
      </trkpt>
      <trkpt lat="49.45476" lon="1.09592">
        <ele>61.6</ele>
        <time>2021-05-02T09:24:52Z</time>
      </trkpt>
      <trkpt lat="49.45473" lon="1.0959">
        <ele>61.7</ele>
        <time>2021-05-02T09:24:54Z</time>
      </trkpt>
      <trkpt lat="49.45472" lon="1.09589">
        <ele>61.7</ele>
        <time>2021-05-02T09:24:55Z</time>
      </trkpt>
      <trkpt lat="49.45468" lon="1.09587">
        <ele>61.8</ele>
        <time>2021-05-02T09:24:57Z</time>
      </trkpt>
      <trkpt lat="49.45458" lon="1.09584">
        <ele>61.9</ele>
        <time>2021-05-02T09:24:59Z</time>
      </trkpt>
      <trkpt lat="49.45455" lon="1.09583">
        <ele>62</ele>
        <time>2021-05-02T09:25:00Z</time>
      </trkpt>
      <trkpt lat="49.4545" lon="1.09582">
        <ele>62.1</ele>
        <time>2021-05-02T09:25:02Z</time>
      </trkpt>
      <trkpt lat="49.45445" lon="1.09581">
        <ele>62.1</ele>
        <time>2021-05-02T09:25:04Z</time>
      </trkpt>
      <trkpt lat="49.45442" lon="1.0958">
        <ele>62.2</ele>
        <time>2021-05-02T09:25:05Z</time>
      </trkpt>
      <trkpt lat="49.4544" lon="1.0958">
        <ele>62.2</ele>
        <time>2021-05-02T09:25:06Z</time>
      </trkpt>
      <trkpt lat="49.45437" lon="1.09578">
        <ele>62.3</ele>
        <time>2021-05-02T09:25:08Z</time>
      </trkpt>
      <trkpt lat="49.45433" lon="1.09573">
        <ele>62.3</ele>
        <time>2021-05-02T09:25:10Z</time>
      </trkpt>
      <trkpt lat="49.4543" lon="1.09572">
        <ele>62.4</ele>
        <time>2021-05-02T09:25:11Z</time>
      </trkpt>
      <trkpt lat="49.45428" lon="1.09571">
        <ele>62.4</ele>
        <time>2021-05-02T09:25:12Z</time>
      </trkpt>
      <trkpt lat="49.4542" lon="1.09568">
        <ele>62.5</ele>
        <time>2021-05-02T09:25:14Z</time>
      </trkpt>
      <trkpt lat="49.45416" lon="1.09567">
        <ele>62.6</ele>
        <time>2021-05-02T09:25:15Z</time>
      </trkpt>
      <trkpt lat="49.4541" lon="1.09567">
        <ele>62.7</ele>
        <time>2021-05-02T09:25:17Z</time>
      </trkpt>
      <trkpt lat="49.45409" lon="1.09567">
        <ele>62.7</ele>
        <time>2021-05-02T09:25:18Z</time>
      </trkpt>
      <trkpt lat="49.45406" lon="1.09566">
        <ele>62.7</ele>
        <time>2021-05-02T09:25:20Z</time>
      </trkpt>
      <trkpt lat="49.45404" lon="1.09565">
        <ele>62.8</ele>
        <time>2021-05-02T09:25:21Z</time>
      </trkpt>
      <trkpt lat="49.454" lon="1.09564">
        <ele>62.8</ele>
        <time>2021-05-02T09:25:23Z</time>
      </trkpt>
      <trkpt lat="49.45394" lon="1.09564">
        <ele>62.9</ele>
        <time>2021-05-02T09:25:25Z</time>
      </trkpt>
      <trkpt lat="49.4539" lon="1.09563">
        <ele>63</ele>
        <time>2021-05-02T09:25:26Z</time>
      </trkpt>
      <trkpt lat="49.45387" lon="1.09563">
        <ele>63</ele>
        <time>2021-05-02T09:25:27Z</time>
      </trkpt>
      <trkpt lat="49.45379" lon="1.09563">
        <ele>63.1</ele>
        <time>2021-05-02T09:25:29Z</time>
      </trkpt>
      <trkpt lat="49.45375" lon="1.09563">
        <ele>63.1</ele>
        <time>2021-05-02T09:25:30Z</time>
      </trkpt>
      <trkpt lat="49.4537" lon="1.09564">
        <ele>63.2</ele>
        <time>2021-05-02T09:25:32Z</time>
      </trkpt>
      <trkpt lat="49.45367" lon="1.09562">
        <ele>63.2</ele>
        <time>2021-05-02T09:25:34Z</time>
      </trkpt>
      <trkpt lat="49.45364" lon="1.09562">
        <ele>63.3</ele>
        <time>2021-05-02T09:25:35Z</time>
      </trkpt>
      <trkpt lat="49.45361" lon="1.09561">
        <ele>63.3</ele>
        <time>2021-05-02T09:25:36Z</time>
      </trkpt>
      <trkpt lat="49.45357" lon="1.09562">
        <ele>63.3</ele>
        <time>2021-05-02T09:25:37Z</time>
      </trkpt>
      <trkpt lat="49.45355" lon="1.09562">
        <ele>63.3</ele>
        <time>2021-05-02T09:25:38Z</time>
      </trkpt>
      <trkpt lat="49.45349" lon="1.09561">
        <ele>63.3</ele>
        <time>2021-05-02T09:25:40Z</time>
      </trkpt>
      <trkpt lat="49.45345" lon="1.09561">
        <ele>63.3</ele>
        <time>2021-05-02T09:25:41Z</time>
      </trkpt>
      <trkpt lat="49.45342" lon="1.09562">
        <ele>63.3</ele>
        <time>2021-05-02T09:25:42Z</time>
      </trkpt>
      <trkpt lat="49.45336" lon="1.09564">
        <ele>63.3</ele>
        <time>2021-05-02T09:25:44Z</time>
      </trkpt>
      <trkpt lat="49.45331" lon="1.09564">
        <ele>63.2</ele>
        <time>2021-05-02T09:25:46Z</time>
      </trkpt>
      <trkpt lat="49.45327" lon="1.09564">
        <ele>63.2</ele>
        <time>2021-05-02T09:25:47Z</time>
      </trkpt>
      <trkpt lat="49.45321" lon="1.09559">
        <ele>63.1</ele>
        <time>2021-05-02T09:25:49Z</time>
      </trkpt>
      <trkpt lat="49.45318" lon="1.09561">
        <ele>63</ele>
        <time>2021-05-02T09:25:50Z</time>
      </trkpt>
      <trkpt lat="49.45311" lon="1.09563">
        <ele>62.7</ele>
        <time>2021-05-02T09:25:52Z</time>
      </trkpt>
      <trkpt lat="49.45304" lon="1.09565">
        <ele>62.4</ele>
        <time>2021-05-02T09:25:54Z</time>
      </trkpt>
      <trkpt lat="49.45296" lon="1.09566">
        <ele>62.1</ele>
        <time>2021-05-02T09:25:56Z</time>
      </trkpt>
      <trkpt lat="49.45293" lon="1.09565">
        <ele>61.9</ele>
        <time>2021-05-02T09:25:57Z</time>
      </trkpt>
      <trkpt lat="49.45286" lon="1.09565">
        <ele>61.6</ele>
        <time>2021-05-02T09:25:59Z</time>
      </trkpt>
      <trkpt lat="49.45282" lon="1.09565">
        <ele>61.4</ele>
        <time>2021-05-02T09:26:00Z</time>
      </trkpt>
      <trkpt lat="49.45279" lon="1.09565">
        <ele>61.2</ele>
        <time>2021-05-02T09:26:01Z</time>
      </trkpt>
      <trkpt lat="49.45275" lon="1.09566">
        <ele>61</ele>
        <time>2021-05-02T09:26:02Z</time>
      </trkpt>
      <trkpt lat="49.45269" lon="1.09566">
        <ele>60.7</ele>
        <time>2021-05-02T09:26:04Z</time>
      </trkpt>
      <trkpt lat="49.45266" lon="1.09567">
        <ele>60.6</ele>
        <time>2021-05-02T09:26:05Z</time>
      </trkpt>
      <trkpt lat="49.45257" lon="1.09569">
        <ele>60.2</ele>
        <time>2021-05-02T09:26:07Z</time>
      </trkpt>
      <trkpt lat="49.45253" lon="1.09568">
        <ele>60</ele>
        <time>2021-05-02T09:26:08Z</time>
      </trkpt>
      <trkpt lat="49.45249" lon="1.09567">
        <ele>59.8</ele>
        <time>2021-05-02T09:26:09Z</time>
      </trkpt>
      <trkpt lat="49.45244" lon="1.09566">
        <ele>59.6</ele>
        <time>2021-05-02T09:26:10Z</time>
      </trkpt>
      <trkpt lat="49.45235" lon="1.09566">
        <ele>59.1</ele>
        <time>2021-05-02T09:26:12Z</time>
      </trkpt>
      <trkpt lat="49.4523" lon="1.09565">
        <ele>58.9</ele>
        <time>2021-05-02T09:26:14Z</time>
      </trkpt>
      <trkpt lat="49.45229" lon="1.09566">
        <ele>58.8</ele>
        <time>2021-05-02T09:26:15Z</time>
      </trkpt>
      <trkpt lat="49.45226" lon="1.09569">
        <ele>58.7</ele>
        <time>2021-05-02T09:26:17Z</time>
      </trkpt>
      <trkpt lat="49.45225" lon="1.09569">
        <ele>58.6</ele>
        <time>2021-05-02T09:26:18Z</time>
      </trkpt>
      <trkpt lat="49.45225" lon="1.09569">
        <ele>58.6</ele>
        <time>2021-05-02T09:26:19Z</time>
      </trkpt>
      <trkpt lat="49.45223" lon="1.09569">
        <ele>58.5</ele>
        <time>2021-05-02T09:26:20Z</time>
      </trkpt>
      <trkpt lat="49.45218" lon="1.0957">
        <ele>58.2</ele>
        <time>2021-05-02T09:26:22Z</time>
      </trkpt>
      <trkpt lat="49.45214" lon="1.09571">
        <ele>58.1</ele>
        <time>2021-05-02T09:26:23Z</time>
      </trkpt>
      <trkpt lat="49.4521" lon="1.09572">
        <ele>57.9</ele>
        <time>2021-05-02T09:26:24Z</time>
      </trkpt>
      <trkpt lat="49.45207" lon="1.09572">
        <ele>57.8</ele>
        <time>2021-05-02T09:26:25Z</time>
      </trkpt>
      <trkpt lat="49.45203" lon="1.0957">
        <ele>57.7</ele>
        <time>2021-05-02T09:26:26Z</time>
      </trkpt>
      <trkpt lat="49.45196" lon="1.09569">
        <ele>57.4</ele>
        <time>2021-05-02T09:26:28Z</time>
      </trkpt>
      <trkpt lat="49.45187" lon="1.0957">
        <ele>57.1</ele>
        <time>2021-05-02T09:26:30Z</time>
      </trkpt>
      <trkpt lat="49.45184" lon="1.0957">
        <ele>56.9</ele>
        <time>2021-05-02T09:26:31Z</time>
      </trkpt>
      <trkpt lat="49.45177" lon="1.09571">
        <ele>56.7</ele>
        <time>2021-05-02T09:26:33Z</time>
      </trkpt>
      <trkpt lat="49.45171" lon="1.09572">
        <ele>56.6</ele>
        <time>2021-05-02T09:26:35Z</time>
      </trkpt>
      <trkpt lat="49.45165" lon="1.09572">
        <ele>56.5</ele>
        <time>2021-05-02T09:26:36Z</time>
      </trkpt>
      <trkpt lat="49.45161" lon="1.09572">
        <ele>56.5</ele>
        <time>2021-05-02T09:26:37Z</time>
      </trkpt>
      <trkpt lat="49.45155" lon="1.09573">
        <ele>56</ele>
        <time>2021-05-02T09:26:39Z</time>
      </trkpt>
      <trkpt lat="49.4515" lon="1.09572">
        <ele>55.6</ele>
        <time>2021-05-02T09:26:41Z</time>
      </trkpt>
      <trkpt lat="49.45147" lon="1.09572">
        <ele>55.3</ele>
        <time>2021-05-02T09:26:42Z</time>
      </trkpt>
      <trkpt lat="49.45142" lon="1.0957">
        <ele>54.8</ele>
        <time>2021-05-02T09:26:44Z</time>
      </trkpt>
      <trkpt lat="49.45139" lon="1.09569">
        <ele>54.5</ele>
        <time>2021-05-02T09:26:45Z</time>
      </trkpt>
      <trkpt lat="49.45137" lon="1.09569">
        <ele>54.4</ele>
        <time>2021-05-02T09:26:46Z</time>
      </trkpt>
      <trkpt lat="49.45131" lon="1.09566">
        <ele>53.9</ele>
        <time>2021-05-02T09:26:48Z</time>
      </trkpt>
      <trkpt lat="49.45129" lon="1.09566">
        <ele>53.6</ele>
        <time>2021-05-02T09:26:49Z</time>
      </trkpt>
      <trkpt lat="49.45124" lon="1.09566">
        <ele>53.2</ele>
        <time>2021-05-02T09:26:51Z</time>
      </trkpt>
      <trkpt lat="49.45119" lon="1.09566">
        <ele>52.9</ele>
        <time>2021-05-02T09:26:52Z</time>
      </trkpt>
      <trkpt lat="49.45111" lon="1.09566">
        <ele>52.2</ele>
        <time>2021-05-02T09:26:54Z</time>
      </trkpt>
      <trkpt lat="49.45101" lon="1.09564">
        <ele>51.5</ele>
        <time>2021-05-02T09:26:56Z</time>
      </trkpt>
      <trkpt lat="49.45092" lon="1.09565">
        <ele>51.3</ele>
        <time>2021-05-02T09:26:58Z</time>
      </trkpt>
      <trkpt lat="49.45088" lon="1.09565">
        <ele>51.1</ele>
        <time>2021-05-02T09:26:59Z</time>
      </trkpt>
      <trkpt lat="49.45082" lon="1.09567">
        <ele>50.9</ele>
        <time>2021-05-02T09:27:01Z</time>
      </trkpt>
      <trkpt lat="49.45076" lon="1.09569">
        <ele>50.7</ele>
        <time>2021-05-02T09:27:02Z</time>
      </trkpt>
      <trkpt lat="49.4507" lon="1.09568">
        <ele>50.5</ele>
        <time>2021-05-02T09:27:04Z</time>
      </trkpt>
      <trkpt lat="49.45067" lon="1.09567">
        <ele>50.3</ele>
        <time>2021-05-02T09:27:06Z</time>
      </trkpt>
      <trkpt lat="49.45063" lon="1.09567">
        <ele>50.1</ele>
        <time>2021-05-02T09:27:07Z</time>
      </trkpt>
      <trkpt lat="49.4506" lon="1.09568">
        <ele>50</ele>
        <time>2021-05-02T09:27:08Z</time>
      </trkpt>
      <trkpt lat="49.45053" lon="1.09568">
        <ele>49.6</ele>
        <time>2021-05-02T09:27:10Z</time>
      </trkpt>
      <trkpt lat="49.45049" lon="1.09567">
        <ele>49.3</ele>
        <time>2021-05-02T09:27:12Z</time>
      </trkpt>
      <trkpt lat="49.45046" lon="1.09565">
        <ele>49.2</ele>
        <time>2021-05-02T09:27:13Z</time>
      </trkpt>
      <trkpt lat="49.45045" lon="1.09563">
        <ele>49.1</ele>
        <time>2021-05-02T09:27:14Z</time>
      </trkpt>
      <trkpt lat="49.45042" lon="1.09561">
        <ele>49</ele>
        <time>2021-05-02T09:27:15Z</time>
      </trkpt>
      <trkpt lat="49.45038" lon="1.09559">
        <ele>48.8</ele>
        <time>2021-05-02T09:27:17Z</time>
      </trkpt>
      <trkpt lat="49.45035" lon="1.09558">
        <ele>48.7</ele>
        <time>2021-05-02T09:27:18Z</time>
      </trkpt>
      <trkpt lat="49.45029" lon="1.0956">
        <ele>48.4</ele>
        <time>2021-05-02T09:27:20Z</time>
      </trkpt>
      <trkpt lat="49.4502" lon="1.09561">
        <ele>48</ele>
        <time>2021-05-02T09:27:22Z</time>
      </trkpt>
      <trkpt lat="49.45012" lon="1.09561">
        <ele>47.6</ele>
        <time>2021-05-02T09:27:24Z</time>
      </trkpt>
      <trkpt lat="49.45007" lon="1.0956">
        <ele>47.4</ele>
        <time>2021-05-02T09:27:25Z</time>
      </trkpt>
      <trkpt lat="49.44999" lon="1.09559">
        <ele>47</ele>
        <time>2021-05-02T09:27:27Z</time>
      </trkpt>
      <trkpt lat="49.44996" lon="1.09558">
        <ele>46.8</ele>
        <time>2021-05-02T09:27:28Z</time>
      </trkpt>
      <trkpt lat="49.4499" lon="1.09557">
        <ele>46.4</ele>
        <time>2021-05-02T09:27:30Z</time>
      </trkpt>
      <trkpt lat="49.44985" lon="1.09558">
        <ele>46.2</ele>
        <time>2021-05-02T09:27:32Z</time>
      </trkpt>
      <trkpt lat="49.44982" lon="1.09558">
        <ele>46</ele>
        <time>2021-05-02T09:27:33Z</time>
      </trkpt>
      <trkpt lat="49.44971" lon="1.09567">
        <ele>45.4</ele>
        <time>2021-05-02T09:27:35Z</time>
      </trkpt>
      <trkpt lat="49.44967" lon="1.09568">
        <ele>45.2</ele>
        <time>2021-05-02T09:27:36Z</time>
      </trkpt>
      <trkpt lat="49.44965" lon="1.09569">
        <ele>45</ele>
        <time>2021-05-02T09:27:37Z</time>
      </trkpt>
      <trkpt lat="49.44959" lon="1.09569">
        <ele>44.7</ele>
        <time>2021-05-02T09:27:39Z</time>
      </trkpt>
      <trkpt lat="49.44954" lon="1.09568">
        <ele>44.4</ele>
        <time>2021-05-02T09:27:40Z</time>
      </trkpt>
      <trkpt lat="49.44949" lon="1.09568">
        <ele>44.2</ele>
        <time>2021-05-02T09:27:41Z</time>
      </trkpt>
      <trkpt lat="49.44938" lon="1.09569">
        <ele>43.7</ele>
        <time>2021-05-02T09:27:43Z</time>
      </trkpt>
      <trkpt lat="49.44931" lon="1.09569">
        <ele>43.4</ele>
        <time>2021-05-02T09:27:44Z</time>
      </trkpt>
      <trkpt lat="49.44921" lon="1.09568">
        <ele>43.1</ele>
        <time>2021-05-02T09:27:46Z</time>
      </trkpt>
      <trkpt lat="49.44912" lon="1.09567">
        <ele>42.8</ele>
        <time>2021-05-02T09:27:47Z</time>
      </trkpt>
      <trkpt lat="49.44901" lon="1.09566">
        <ele>42.5</ele>
        <time>2021-05-02T09:27:49Z</time>
      </trkpt>
      <trkpt lat="49.44895" lon="1.09564">
        <ele>42.3</ele>
        <time>2021-05-02T09:27:50Z</time>
      </trkpt>
      <trkpt lat="49.44884" lon="1.09564">
        <ele>42.1</ele>
        <time>2021-05-02T09:27:52Z</time>
      </trkpt>
      <trkpt lat="49.44875" lon="1.09561">
        <ele>41.9</ele>
        <time>2021-05-02T09:27:54Z</time>
      </trkpt>
      <trkpt lat="49.44869" lon="1.09558">
        <ele>41.8</ele>
        <time>2021-05-02T09:27:56Z</time>
      </trkpt>
      <trkpt lat="49.44868" lon="1.09558">
        <ele>41.8</ele>
        <time>2021-05-02T09:27:57Z</time>
      </trkpt>
      <trkpt lat="49.44863" lon="1.09555">
        <ele>41.6</ele>
        <time>2021-05-02T09:27:59Z</time>
      </trkpt>
      <trkpt lat="49.44861" lon="1.09555">
        <ele>41.6</ele>
        <time>2021-05-02T09:28:01Z</time>
      </trkpt>
      <trkpt lat="49.44862" lon="1.09554">
        <ele>41.6</ele>
        <time>2021-05-02T09:28:02Z</time>
      </trkpt>
    </trkseg>
  </trk>
</gpx>